<?xml version="1.0" encoding="UTF-8" standalone="no" ?>
<gpx xmlns="http://www.topografix.com/GPX/1/1" xmlns:xsi="http://www.w3.org/2001/XMLSchema-instance" xsi:schemaLocation="http://www.topografix.com/GPX/1/1 http://www.topografix.com/GPX/1/1/gpx.xsd" version="1.1" creator="VisuGPX - https://www.visugpx.com">
  <metadata>
    <name>French-divide 2021</name>
  </metadata>
  <trk>
    <name><![CDATA[09 FD]]></name>
    <trkseg>
      <trkpt lat="45.62281" lon="2.92952">
        <ele>1043.17</ele>
        <time>2021-08-15T03:23:14Z</time>
      </trkpt>
      <trkpt lat="45.62279" lon="2.92953">
        <ele>1042.69</ele>
        <time>2021-08-15T03:23:15Z</time>
      </trkpt>
      <trkpt lat="45.62277" lon="2.92954">
        <ele>1042.21</ele>
        <time>2021-08-15T03:23:16Z</time>
      </trkpt>
      <trkpt lat="45.62271" lon="2.92955">
        <ele>1041.25</ele>
        <time>2021-08-15T03:23:20Z</time>
      </trkpt>
      <trkpt lat="45.6227" lon="2.92957">
        <ele>1041.25</ele>
        <time>2021-08-15T03:23:21Z</time>
      </trkpt>
      <trkpt lat="45.62269" lon="2.92959">
        <ele>1041.25</ele>
        <time>2021-08-15T03:23:22Z</time>
      </trkpt>
      <trkpt lat="45.62266" lon="2.92963">
        <ele>1040.28</ele>
        <time>2021-08-15T03:23:24Z</time>
      </trkpt>
      <trkpt lat="45.62264" lon="2.92963">
        <ele>1040.76</ele>
        <time>2021-08-15T03:23:29Z</time>
      </trkpt>
      <trkpt lat="45.62266" lon="2.92959">
        <ele>1040.76</ele>
        <time>2021-08-15T03:23:42Z</time>
      </trkpt>
      <trkpt lat="45.62265" lon="2.9296">
        <ele>1040.28</ele>
        <time>2021-08-15T03:23:44Z</time>
      </trkpt>
      <trkpt lat="45.62264" lon="2.92962">
        <ele>1040.28</ele>
        <time>2021-08-15T03:23:45Z</time>
      </trkpt>
      <trkpt lat="45.62263" lon="2.92965">
        <ele>1039.8</ele>
        <time>2021-08-15T03:23:46Z</time>
      </trkpt>
      <trkpt lat="45.62262" lon="2.92967">
        <ele>1039.8</ele>
        <time>2021-08-15T03:23:47Z</time>
      </trkpt>
      <trkpt lat="45.62259" lon="2.92967">
        <ele>1038.84</ele>
        <time>2021-08-15T03:23:48Z</time>
      </trkpt>
      <trkpt lat="45.62258" lon="2.92966">
        <ele>1038.84</ele>
        <time>2021-08-15T03:23:49Z</time>
      </trkpt>
      <trkpt lat="45.62258" lon="2.92964">
        <ele>1038.84</ele>
        <time>2021-08-15T03:23:50Z</time>
      </trkpt>
      <trkpt lat="45.62258" lon="2.92962">
        <ele>1038.84</ele>
        <time>2021-08-15T03:23:51Z</time>
      </trkpt>
      <trkpt lat="45.62258" lon="2.92961">
        <ele>1038.84</ele>
        <time>2021-08-15T03:23:52Z</time>
      </trkpt>
      <trkpt lat="45.62258" lon="2.9296">
        <ele>1038.84</ele>
        <time>2021-08-15T03:23:53Z</time>
      </trkpt>
      <trkpt lat="45.62256" lon="2.92961">
        <ele>1038.36</ele>
        <time>2021-08-15T03:23:55Z</time>
      </trkpt>
      <trkpt lat="45.62256" lon="2.92962">
        <ele>1038.36</ele>
        <time>2021-08-15T03:23:56Z</time>
      </trkpt>
      <trkpt lat="45.62256" lon="2.92964">
        <ele>1038.36</ele>
        <time>2021-08-15T03:23:57Z</time>
      </trkpt>
      <trkpt lat="45.62258" lon="2.92972">
        <ele>1038.36</ele>
        <time>2021-08-15T03:24:01Z</time>
      </trkpt>
      <trkpt lat="45.62259" lon="2.92974">
        <ele>1038.36</ele>
        <time>2021-08-15T03:24:02Z</time>
      </trkpt>
      <trkpt lat="45.6226" lon="2.92976">
        <ele>1038.36</ele>
        <time>2021-08-15T03:24:03Z</time>
      </trkpt>
      <trkpt lat="45.6226" lon="2.92978">
        <ele>1038.36</ele>
        <time>2021-08-15T03:24:04Z</time>
      </trkpt>
      <trkpt lat="45.62259" lon="2.92981">
        <ele>1038.36</ele>
        <time>2021-08-15T03:24:05Z</time>
      </trkpt>
      <trkpt lat="45.62259" lon="2.92985">
        <ele>1038.36</ele>
        <time>2021-08-15T03:24:06Z</time>
      </trkpt>
      <trkpt lat="45.6226" lon="2.92999">
        <ele>1037.88</ele>
        <time>2021-08-15T03:24:10Z</time>
      </trkpt>
      <trkpt lat="45.62258" lon="2.93002">
        <ele>1037.4</ele>
        <time>2021-08-15T03:24:11Z</time>
      </trkpt>
      <trkpt lat="45.62256" lon="2.93002">
        <ele>1037.4</ele>
        <time>2021-08-15T03:24:12Z</time>
      </trkpt>
      <trkpt lat="45.62254" lon="2.93002">
        <ele>1036.92</ele>
        <time>2021-08-15T03:24:13Z</time>
      </trkpt>
      <trkpt lat="45.62252" lon="2.93001">
        <ele>1036.92</ele>
        <time>2021-08-15T03:24:14Z</time>
      </trkpt>
      <trkpt lat="45.62249" lon="2.92999">
        <ele>1036.44</ele>
        <time>2021-08-15T03:24:15Z</time>
      </trkpt>
      <trkpt lat="45.62231" lon="2.92984">
        <ele>1034.04</ele>
        <time>2021-08-15T03:24:20Z</time>
      </trkpt>
      <trkpt lat="45.62215" lon="2.92966">
        <ele>1031.15</ele>
        <time>2021-08-15T03:24:23Z</time>
      </trkpt>
      <trkpt lat="45.622" lon="2.9295">
        <ele>1028.27</ele>
        <time>2021-08-15T03:24:26Z</time>
      </trkpt>
      <trkpt lat="45.62186" lon="2.9293">
        <ele>1025.38</ele>
        <time>2021-08-15T03:24:29Z</time>
      </trkpt>
      <trkpt lat="45.62182" lon="2.92922">
        <ele>1024.42</ele>
        <time>2021-08-15T03:24:30Z</time>
      </trkpt>
      <trkpt lat="45.6218" lon="2.92914">
        <ele>1023.94</ele>
        <time>2021-08-15T03:24:31Z</time>
      </trkpt>
      <trkpt lat="45.62179" lon="2.92905">
        <ele>1022.98</ele>
        <time>2021-08-15T03:24:32Z</time>
      </trkpt>
      <trkpt lat="45.62178" lon="2.92897">
        <ele>1021.54</ele>
        <time>2021-08-15T03:24:33Z</time>
      </trkpt>
      <trkpt lat="45.62176" lon="2.92889">
        <ele>1021.54</ele>
        <time>2021-08-15T03:24:34Z</time>
      </trkpt>
      <trkpt lat="45.62172" lon="2.92865">
        <ele>1021.54</ele>
        <time>2021-08-15T03:24:37Z</time>
      </trkpt>
      <trkpt lat="45.62169" lon="2.9285">
        <ele>1020.1</ele>
        <time>2021-08-15T03:24:39Z</time>
      </trkpt>
      <trkpt lat="45.62167" lon="2.92843">
        <ele>1019.62</ele>
        <time>2021-08-15T03:24:40Z</time>
      </trkpt>
      <trkpt lat="45.62165" lon="2.92837">
        <ele>1020.1</ele>
        <time>2021-08-15T03:24:41Z</time>
      </trkpt>
      <trkpt lat="45.62163" lon="2.92831">
        <ele>1019.13</ele>
        <time>2021-08-15T03:24:42Z</time>
      </trkpt>
      <trkpt lat="45.62161" lon="2.92825">
        <ele>1019.13</ele>
        <time>2021-08-15T03:24:43Z</time>
      </trkpt>
      <trkpt lat="45.62159" lon="2.9282">
        <ele>1019.62</ele>
        <time>2021-08-15T03:24:44Z</time>
      </trkpt>
      <trkpt lat="45.62156" lon="2.92816">
        <ele>1020.58</ele>
        <time>2021-08-15T03:24:48Z</time>
      </trkpt>
      <trkpt lat="45.62156" lon="2.92816">
        <ele>1020.58</ele>
        <time>2021-08-15T03:24:49Z</time>
      </trkpt>
      <trkpt lat="45.62156" lon="2.92816">
        <ele>1020.58</ele>
        <time>2021-08-15T03:25:08Z</time>
      </trkpt>
      <trkpt lat="45.62155" lon="2.92818">
        <ele>1020.58</ele>
        <time>2021-08-15T03:25:15Z</time>
      </trkpt>
      <trkpt lat="45.62156" lon="2.9282">
        <ele>1020.58</ele>
        <time>2021-08-15T03:25:16Z</time>
      </trkpt>
      <trkpt lat="45.62157" lon="2.92822">
        <ele>1020.58</ele>
        <time>2021-08-15T03:25:17Z</time>
      </trkpt>
      <trkpt lat="45.62158" lon="2.92823">
        <ele>1020.58</ele>
        <time>2021-08-15T03:25:18Z</time>
      </trkpt>
      <trkpt lat="45.62159" lon="2.92825">
        <ele>1021.06</ele>
        <time>2021-08-15T03:25:19Z</time>
      </trkpt>
      <trkpt lat="45.6216" lon="2.92827">
        <ele>1021.06</ele>
        <time>2021-08-15T03:25:20Z</time>
      </trkpt>
      <trkpt lat="45.62161" lon="2.9283">
        <ele>1021.06</ele>
        <time>2021-08-15T03:25:21Z</time>
      </trkpt>
      <trkpt lat="45.62162" lon="2.92833">
        <ele>1021.06</ele>
        <time>2021-08-15T03:25:22Z</time>
      </trkpt>
      <trkpt lat="45.62167" lon="2.92856">
        <ele>1022.02</ele>
        <time>2021-08-15T03:25:29Z</time>
      </trkpt>
      <trkpt lat="45.62166" lon="2.92858">
        <ele>1022.02</ele>
        <time>2021-08-15T03:25:30Z</time>
      </trkpt>
      <trkpt lat="45.62164" lon="2.9286">
        <ele>1022.5</ele>
        <time>2021-08-15T03:25:31Z</time>
      </trkpt>
      <trkpt lat="45.62161" lon="2.92861">
        <ele>1022.5</ele>
        <time>2021-08-15T03:25:32Z</time>
      </trkpt>
      <trkpt lat="45.62158" lon="2.92861">
        <ele>1022.5</ele>
        <time>2021-08-15T03:25:33Z</time>
      </trkpt>
      <trkpt lat="45.62137" lon="2.92864">
        <ele>1021.06</ele>
        <time>2021-08-15T03:25:39Z</time>
      </trkpt>
      <trkpt lat="45.62113" lon="2.92869">
        <ele>1020.58</ele>
        <time>2021-08-15T03:25:47Z</time>
      </trkpt>
      <trkpt lat="45.62092" lon="2.92874">
        <ele>1021.54</ele>
        <time>2021-08-15T03:25:55Z</time>
      </trkpt>
      <trkpt lat="45.62076" lon="2.92876">
        <ele>1022.98</ele>
        <time>2021-08-15T03:26:04Z</time>
      </trkpt>
      <trkpt lat="45.62066" lon="2.9288">
        <ele>1024.42</ele>
        <time>2021-08-15T03:26:10Z</time>
      </trkpt>
      <trkpt lat="45.62065" lon="2.92882">
        <ele>1023.94</ele>
        <time>2021-08-15T03:26:11Z</time>
      </trkpt>
      <trkpt lat="45.62062" lon="2.92903">
        <ele>1023.94</ele>
        <time>2021-08-15T03:26:18Z</time>
      </trkpt>
      <trkpt lat="45.62063" lon="2.92933">
        <ele>1022.5</ele>
        <time>2021-08-15T03:26:24Z</time>
      </trkpt>
      <trkpt lat="45.62063" lon="2.92939">
        <ele>1022.5</ele>
        <time>2021-08-15T03:26:25Z</time>
      </trkpt>
      <trkpt lat="45.62064" lon="2.92991">
        <ele>1020.1</ele>
        <time>2021-08-15T03:26:33Z</time>
      </trkpt>
      <trkpt lat="45.62065" lon="2.9306">
        <ele>1018.65</ele>
        <time>2021-08-15T03:26:41Z</time>
      </trkpt>
      <trkpt lat="45.62063" lon="2.93084">
        <ele>1018.65</ele>
        <time>2021-08-15T03:26:44Z</time>
      </trkpt>
      <trkpt lat="45.62055" lon="2.93122">
        <ele>1018.65</ele>
        <time>2021-08-15T03:26:49Z</time>
      </trkpt>
      <trkpt lat="45.62043" lon="2.93186">
        <ele>1017.69</ele>
        <time>2021-08-15T03:26:58Z</time>
      </trkpt>
      <trkpt lat="45.62035" lon="2.93234">
        <ele>1017.69</ele>
        <time>2021-08-15T03:27:05Z</time>
      </trkpt>
      <trkpt lat="45.62034" lon="2.93241">
        <ele>1017.69</ele>
        <time>2021-08-15T03:27:06Z</time>
      </trkpt>
      <trkpt lat="45.62033" lon="2.93248">
        <ele>1017.69</ele>
        <time>2021-08-15T03:27:07Z</time>
      </trkpt>
      <trkpt lat="45.62032" lon="2.93295">
        <ele>1016.73</ele>
        <time>2021-08-15T03:27:13Z</time>
      </trkpt>
      <trkpt lat="45.62031" lon="2.93332">
        <ele>1016.73</ele>
        <time>2021-08-15T03:27:19Z</time>
      </trkpt>
      <trkpt lat="45.62025" lon="2.93353">
        <ele>1019.13</ele>
        <time>2021-08-15T03:27:25Z</time>
      </trkpt>
      <trkpt lat="45.62024" lon="2.93355">
        <ele>1019.13</ele>
        <time>2021-08-15T03:27:26Z</time>
      </trkpt>
      <trkpt lat="45.62023" lon="2.93357">
        <ele>1019.13</ele>
        <time>2021-08-15T03:27:27Z</time>
      </trkpt>
      <trkpt lat="45.62022" lon="2.93359">
        <ele>1019.13</ele>
        <time>2021-08-15T03:27:28Z</time>
      </trkpt>
      <trkpt lat="45.62021" lon="2.9336">
        <ele>1019.13</ele>
        <time>2021-08-15T03:27:29Z</time>
      </trkpt>
      <trkpt lat="45.62021" lon="2.93362">
        <ele>1019.13</ele>
        <time>2021-08-15T03:27:30Z</time>
      </trkpt>
      <trkpt lat="45.62019" lon="2.93364">
        <ele>1019.13</ele>
        <time>2021-08-15T03:27:31Z</time>
      </trkpt>
      <trkpt lat="45.62018" lon="2.93366">
        <ele>1019.62</ele>
        <time>2021-08-15T03:27:32Z</time>
      </trkpt>
      <trkpt lat="45.62017" lon="2.93368">
        <ele>1019.62</ele>
        <time>2021-08-15T03:27:33Z</time>
      </trkpt>
      <trkpt lat="45.62016" lon="2.9337">
        <ele>1019.62</ele>
        <time>2021-08-15T03:27:34Z</time>
      </trkpt>
      <trkpt lat="45.62015" lon="2.93372">
        <ele>1019.62</ele>
        <time>2021-08-15T03:27:35Z</time>
      </trkpt>
      <trkpt lat="45.62014" lon="2.93374">
        <ele>1019.62</ele>
        <time>2021-08-15T03:27:36Z</time>
      </trkpt>
      <trkpt lat="45.62014" lon="2.93376">
        <ele>1019.62</ele>
        <time>2021-08-15T03:27:37Z</time>
      </trkpt>
      <trkpt lat="45.62003" lon="2.93396">
        <ele>1021.54</ele>
        <time>2021-08-15T03:27:49Z</time>
      </trkpt>
      <trkpt lat="45.61995" lon="2.93409">
        <ele>1022.98</ele>
        <time>2021-08-15T03:27:58Z</time>
      </trkpt>
      <trkpt lat="45.61987" lon="2.93423">
        <ele>1023.94</ele>
        <time>2021-08-15T03:28:07Z</time>
      </trkpt>
      <trkpt lat="45.61979" lon="2.93437">
        <ele>1024.42</ele>
        <time>2021-08-15T03:28:16Z</time>
      </trkpt>
      <trkpt lat="45.61972" lon="2.93451">
        <ele>1025.86</ele>
        <time>2021-08-15T03:28:25Z</time>
      </trkpt>
      <trkpt lat="45.61964" lon="2.93464">
        <ele>1026.34</ele>
        <time>2021-08-15T03:28:34Z</time>
      </trkpt>
      <trkpt lat="45.61956" lon="2.93474">
        <ele>1027.31</ele>
        <time>2021-08-15T03:28:42Z</time>
      </trkpt>
      <trkpt lat="45.61956" lon="2.93476">
        <ele>1027.31</ele>
        <time>2021-08-15T03:28:43Z</time>
      </trkpt>
      <trkpt lat="45.61955" lon="2.93478">
        <ele>1027.31</ele>
        <time>2021-08-15T03:28:44Z</time>
      </trkpt>
      <trkpt lat="45.61955" lon="2.93479">
        <ele>1027.79</ele>
        <time>2021-08-15T03:28:45Z</time>
      </trkpt>
      <trkpt lat="45.61954" lon="2.93481">
        <ele>1027.79</ele>
        <time>2021-08-15T03:28:46Z</time>
      </trkpt>
      <trkpt lat="45.61953" lon="2.93482">
        <ele>1027.79</ele>
        <time>2021-08-15T03:28:47Z</time>
      </trkpt>
      <trkpt lat="45.61947" lon="2.93492">
        <ele>1028.27</ele>
        <time>2021-08-15T03:28:54Z</time>
      </trkpt>
      <trkpt lat="45.61946" lon="2.93493">
        <ele>1028.75</ele>
        <time>2021-08-15T03:28:55Z</time>
      </trkpt>
      <trkpt lat="45.61946" lon="2.93495">
        <ele>1028.75</ele>
        <time>2021-08-15T03:28:56Z</time>
      </trkpt>
      <trkpt lat="45.61945" lon="2.93496">
        <ele>1029.23</ele>
        <time>2021-08-15T03:28:57Z</time>
      </trkpt>
      <trkpt lat="45.61944" lon="2.93497">
        <ele>1029.71</ele>
        <time>2021-08-15T03:28:58Z</time>
      </trkpt>
      <trkpt lat="45.61943" lon="2.93498">
        <ele>1029.23</ele>
        <time>2021-08-15T03:28:59Z</time>
      </trkpt>
      <trkpt lat="45.61942" lon="2.93499">
        <ele>1029.23</ele>
        <time>2021-08-15T03:29:00Z</time>
      </trkpt>
      <trkpt lat="45.61941" lon="2.93501">
        <ele>1029.23</ele>
        <time>2021-08-15T03:29:01Z</time>
      </trkpt>
      <trkpt lat="45.61941" lon="2.93502">
        <ele>1029.71</ele>
        <time>2021-08-15T03:29:02Z</time>
      </trkpt>
      <trkpt lat="45.6194" lon="2.93503">
        <ele>1029.71</ele>
        <time>2021-08-15T03:29:03Z</time>
      </trkpt>
      <trkpt lat="45.61939" lon="2.93505">
        <ele>1029.71</ele>
        <time>2021-08-15T03:29:04Z</time>
      </trkpt>
      <trkpt lat="45.61933" lon="2.93514">
        <ele>1031.15</ele>
        <time>2021-08-15T03:29:12Z</time>
      </trkpt>
      <trkpt lat="45.6193" lon="2.93521">
        <ele>1031.15</ele>
        <time>2021-08-15T03:29:16Z</time>
      </trkpt>
      <trkpt lat="45.61929" lon="2.93522">
        <ele>1032.11</ele>
        <time>2021-08-15T03:29:17Z</time>
      </trkpt>
      <trkpt lat="45.61928" lon="2.93523">
        <ele>1031.63</ele>
        <time>2021-08-15T03:29:18Z</time>
      </trkpt>
      <trkpt lat="45.61927" lon="2.93525">
        <ele>1031.63</ele>
        <time>2021-08-15T03:29:19Z</time>
      </trkpt>
      <trkpt lat="45.61926" lon="2.93526">
        <ele>1032.59</ele>
        <time>2021-08-15T03:29:20Z</time>
      </trkpt>
      <trkpt lat="45.61926" lon="2.93527">
        <ele>1032.59</ele>
        <time>2021-08-15T03:29:21Z</time>
      </trkpt>
      <trkpt lat="45.61925" lon="2.93529">
        <ele>1032.59</ele>
        <time>2021-08-15T03:29:22Z</time>
      </trkpt>
      <trkpt lat="45.61924" lon="2.9353">
        <ele>1032.59</ele>
        <time>2021-08-15T03:29:23Z</time>
      </trkpt>
      <trkpt lat="45.61924" lon="2.93531">
        <ele>1033.07</ele>
        <time>2021-08-15T03:29:24Z</time>
      </trkpt>
      <trkpt lat="45.61923" lon="2.93533">
        <ele>1033.55</ele>
        <time>2021-08-15T03:29:25Z</time>
      </trkpt>
      <trkpt lat="45.61923" lon="2.93534">
        <ele>1033.55</ele>
        <time>2021-08-15T03:29:26Z</time>
      </trkpt>
      <trkpt lat="45.61921" lon="2.93538">
        <ele>1033.55</ele>
        <time>2021-08-15T03:29:29Z</time>
      </trkpt>
      <trkpt lat="45.6192" lon="2.93539">
        <ele>1034.04</ele>
        <time>2021-08-15T03:29:30Z</time>
      </trkpt>
      <trkpt lat="45.6192" lon="2.9354">
        <ele>1034.04</ele>
        <time>2021-08-15T03:29:31Z</time>
      </trkpt>
      <trkpt lat="45.61919" lon="2.93542">
        <ele>1034.52</ele>
        <time>2021-08-15T03:29:32Z</time>
      </trkpt>
      <trkpt lat="45.61919" lon="2.93543">
        <ele>1034.52</ele>
        <time>2021-08-15T03:29:33Z</time>
      </trkpt>
      <trkpt lat="45.61918" lon="2.93544">
        <ele>1034.52</ele>
        <time>2021-08-15T03:29:34Z</time>
      </trkpt>
      <trkpt lat="45.61917" lon="2.93546">
        <ele>1035</ele>
        <time>2021-08-15T03:29:35Z</time>
      </trkpt>
      <trkpt lat="45.61917" lon="2.93547">
        <ele>1035</ele>
        <time>2021-08-15T03:29:36Z</time>
      </trkpt>
      <trkpt lat="45.61917" lon="2.93549">
        <ele>1035</ele>
        <time>2021-08-15T03:29:37Z</time>
      </trkpt>
      <trkpt lat="45.61916" lon="2.9355">
        <ele>1035</ele>
        <time>2021-08-15T03:29:38Z</time>
      </trkpt>
      <trkpt lat="45.61916" lon="2.93552">
        <ele>1035</ele>
        <time>2021-08-15T03:29:39Z</time>
      </trkpt>
      <trkpt lat="45.61916" lon="2.93554">
        <ele>1035.48</ele>
        <time>2021-08-15T03:29:40Z</time>
      </trkpt>
      <trkpt lat="45.61915" lon="2.93555">
        <ele>1035.48</ele>
        <time>2021-08-15T03:29:41Z</time>
      </trkpt>
      <trkpt lat="45.61915" lon="2.93556">
        <ele>1035.96</ele>
        <time>2021-08-15T03:29:42Z</time>
      </trkpt>
      <trkpt lat="45.61914" lon="2.93558">
        <ele>1036.44</ele>
        <time>2021-08-15T03:29:43Z</time>
      </trkpt>
      <trkpt lat="45.61911" lon="2.93573">
        <ele>1036.92</ele>
        <time>2021-08-15T03:29:52Z</time>
      </trkpt>
      <trkpt lat="45.61907" lon="2.93586">
        <ele>1037.88</ele>
        <time>2021-08-15T03:30:00Z</time>
      </trkpt>
      <trkpt lat="45.61903" lon="2.936">
        <ele>1038.84</ele>
        <time>2021-08-15T03:30:09Z</time>
      </trkpt>
      <trkpt lat="45.619" lon="2.9361">
        <ele>1039.32</ele>
        <time>2021-08-15T03:30:15Z</time>
      </trkpt>
      <trkpt lat="45.61899" lon="2.93612">
        <ele>1039.32</ele>
        <time>2021-08-15T03:30:16Z</time>
      </trkpt>
      <trkpt lat="45.61899" lon="2.93614">
        <ele>1039.32</ele>
        <time>2021-08-15T03:30:17Z</time>
      </trkpt>
      <trkpt lat="45.61896" lon="2.93624">
        <ele>1040.76</ele>
        <time>2021-08-15T03:30:23Z</time>
      </trkpt>
      <trkpt lat="45.61895" lon="2.93631">
        <ele>1041.25</ele>
        <time>2021-08-15T03:30:27Z</time>
      </trkpt>
      <trkpt lat="45.61895" lon="2.93633">
        <ele>1041.25</ele>
        <time>2021-08-15T03:30:28Z</time>
      </trkpt>
      <trkpt lat="45.6189" lon="2.93651">
        <ele>1042.21</ele>
        <time>2021-08-15T03:30:39Z</time>
      </trkpt>
      <trkpt lat="45.61886" lon="2.9367">
        <ele>1043.65</ele>
        <time>2021-08-15T03:30:50Z</time>
      </trkpt>
      <trkpt lat="45.61886" lon="2.93672">
        <ele>1044.13</ele>
        <time>2021-08-15T03:30:51Z</time>
      </trkpt>
      <trkpt lat="45.61885" lon="2.93677">
        <ele>1044.13</ele>
        <time>2021-08-15T03:30:54Z</time>
      </trkpt>
      <trkpt lat="45.61884" lon="2.93679">
        <ele>1044.13</ele>
        <time>2021-08-15T03:30:55Z</time>
      </trkpt>
      <trkpt lat="45.61884" lon="2.9368">
        <ele>1044.61</ele>
        <time>2021-08-15T03:30:56Z</time>
      </trkpt>
      <trkpt lat="45.61884" lon="2.93682">
        <ele>1044.61</ele>
        <time>2021-08-15T03:30:57Z</time>
      </trkpt>
      <trkpt lat="45.61884" lon="2.93684">
        <ele>1045.09</ele>
        <time>2021-08-15T03:30:58Z</time>
      </trkpt>
      <trkpt lat="45.61884" lon="2.93686">
        <ele>1045.09</ele>
        <time>2021-08-15T03:30:59Z</time>
      </trkpt>
      <trkpt lat="45.61883" lon="2.93687">
        <ele>1045.09</ele>
        <time>2021-08-15T03:31:00Z</time>
      </trkpt>
      <trkpt lat="45.61883" lon="2.93689">
        <ele>1045.09</ele>
        <time>2021-08-15T03:31:01Z</time>
      </trkpt>
      <trkpt lat="45.61883" lon="2.93691">
        <ele>1045.57</ele>
        <time>2021-08-15T03:31:02Z</time>
      </trkpt>
      <trkpt lat="45.61882" lon="2.93693">
        <ele>1045.57</ele>
        <time>2021-08-15T03:31:03Z</time>
      </trkpt>
      <trkpt lat="45.61882" lon="2.93694">
        <ele>1045.57</ele>
        <time>2021-08-15T03:31:04Z</time>
      </trkpt>
      <trkpt lat="45.61882" lon="2.93696">
        <ele>1046.05</ele>
        <time>2021-08-15T03:31:05Z</time>
      </trkpt>
      <trkpt lat="45.61882" lon="2.93698">
        <ele>1046.05</ele>
        <time>2021-08-15T03:31:06Z</time>
      </trkpt>
      <trkpt lat="45.61878" lon="2.9372">
        <ele>1047.01</ele>
        <time>2021-08-15T03:31:17Z</time>
      </trkpt>
      <trkpt lat="45.61876" lon="2.93736">
        <ele>1047.97</ele>
        <time>2021-08-15T03:31:26Z</time>
      </trkpt>
      <trkpt lat="45.61875" lon="2.93742">
        <ele>1048.45</ele>
        <time>2021-08-15T03:31:30Z</time>
      </trkpt>
      <trkpt lat="45.61876" lon="2.93744">
        <ele>1048.45</ele>
        <time>2021-08-15T03:31:31Z</time>
      </trkpt>
      <trkpt lat="45.61875" lon="2.93745">
        <ele>1048.45</ele>
        <time>2021-08-15T03:31:32Z</time>
      </trkpt>
      <trkpt lat="45.61875" lon="2.93747">
        <ele>1048.94</ele>
        <time>2021-08-15T03:31:33Z</time>
      </trkpt>
      <trkpt lat="45.61875" lon="2.93749">
        <ele>1048.94</ele>
        <time>2021-08-15T03:31:34Z</time>
      </trkpt>
      <trkpt lat="45.61875" lon="2.9375">
        <ele>1049.42</ele>
        <time>2021-08-15T03:31:35Z</time>
      </trkpt>
      <trkpt lat="45.61875" lon="2.93752">
        <ele>1049.9</ele>
        <time>2021-08-15T03:31:36Z</time>
      </trkpt>
      <trkpt lat="45.61875" lon="2.93754">
        <ele>1049.9</ele>
        <time>2021-08-15T03:31:37Z</time>
      </trkpt>
      <trkpt lat="45.61874" lon="2.93755">
        <ele>1049.9</ele>
        <time>2021-08-15T03:31:38Z</time>
      </trkpt>
      <trkpt lat="45.61874" lon="2.93757">
        <ele>1049.9</ele>
        <time>2021-08-15T03:31:39Z</time>
      </trkpt>
      <trkpt lat="45.61873" lon="2.93759">
        <ele>1049.9</ele>
        <time>2021-08-15T03:31:40Z</time>
      </trkpt>
      <trkpt lat="45.61873" lon="2.93761">
        <ele>1050.38</ele>
        <time>2021-08-15T03:31:41Z</time>
      </trkpt>
      <trkpt lat="45.61873" lon="2.93763">
        <ele>1050.38</ele>
        <time>2021-08-15T03:31:42Z</time>
      </trkpt>
      <trkpt lat="45.61873" lon="2.93765">
        <ele>1050.38</ele>
        <time>2021-08-15T03:31:43Z</time>
      </trkpt>
      <trkpt lat="45.61873" lon="2.93767">
        <ele>1050.38</ele>
        <time>2021-08-15T03:31:44Z</time>
      </trkpt>
      <trkpt lat="45.61872" lon="2.93769">
        <ele>1050.38</ele>
        <time>2021-08-15T03:31:45Z</time>
      </trkpt>
      <trkpt lat="45.61872" lon="2.9377">
        <ele>1050.38</ele>
        <time>2021-08-15T03:31:46Z</time>
      </trkpt>
      <trkpt lat="45.61871" lon="2.93772">
        <ele>1051.34</ele>
        <time>2021-08-15T03:31:47Z</time>
      </trkpt>
      <trkpt lat="45.61871" lon="2.93774">
        <ele>1051.34</ele>
        <time>2021-08-15T03:31:48Z</time>
      </trkpt>
      <trkpt lat="45.61871" lon="2.93776">
        <ele>1051.34</ele>
        <time>2021-08-15T03:31:49Z</time>
      </trkpt>
      <trkpt lat="45.6187" lon="2.93777">
        <ele>1051.34</ele>
        <time>2021-08-15T03:31:50Z</time>
      </trkpt>
      <trkpt lat="45.6187" lon="2.93779">
        <ele>1051.34</ele>
        <time>2021-08-15T03:31:51Z</time>
      </trkpt>
      <trkpt lat="45.6187" lon="2.93781">
        <ele>1051.34</ele>
        <time>2021-08-15T03:31:52Z</time>
      </trkpt>
      <trkpt lat="45.61868" lon="2.93796">
        <ele>1052.3</ele>
        <time>2021-08-15T03:32:00Z</time>
      </trkpt>
      <trkpt lat="45.61867" lon="2.93803">
        <ele>1053.26</ele>
        <time>2021-08-15T03:32:04Z</time>
      </trkpt>
      <trkpt lat="45.61867" lon="2.93805">
        <ele>1053.26</ele>
        <time>2021-08-15T03:32:05Z</time>
      </trkpt>
      <trkpt lat="45.61867" lon="2.93807">
        <ele>1053.26</ele>
        <time>2021-08-15T03:32:06Z</time>
      </trkpt>
      <trkpt lat="45.61865" lon="2.9382">
        <ele>1053.74</ele>
        <time>2021-08-15T03:32:12Z</time>
      </trkpt>
      <trkpt lat="45.61865" lon="2.93822">
        <ele>1053.74</ele>
        <time>2021-08-15T03:32:13Z</time>
      </trkpt>
      <trkpt lat="45.61865" lon="2.93825">
        <ele>1053.74</ele>
        <time>2021-08-15T03:32:14Z</time>
      </trkpt>
      <trkpt lat="45.61863" lon="2.93841">
        <ele>1053.74</ele>
        <time>2021-08-15T03:32:21Z</time>
      </trkpt>
      <trkpt lat="45.61863" lon="2.9386">
        <ele>1055.18</ele>
        <time>2021-08-15T03:32:28Z</time>
      </trkpt>
      <trkpt lat="45.61862" lon="2.93886">
        <ele>1055.67</ele>
        <time>2021-08-15T03:32:35Z</time>
      </trkpt>
      <trkpt lat="45.61861" lon="2.93915">
        <ele>1056.15</ele>
        <time>2021-08-15T03:32:45Z</time>
      </trkpt>
      <trkpt lat="45.6186" lon="2.93944">
        <ele>1056.63</ele>
        <time>2021-08-15T03:32:54Z</time>
      </trkpt>
      <trkpt lat="45.61856" lon="2.93966">
        <ele>1057.59</ele>
        <time>2021-08-15T03:33:02Z</time>
      </trkpt>
      <trkpt lat="45.61852" lon="2.93972">
        <ele>1057.59</ele>
        <time>2021-08-15T03:33:07Z</time>
      </trkpt>
      <trkpt lat="45.61853" lon="2.93972">
        <ele>1060.47</ele>
        <time>2021-08-15T03:33:20Z</time>
      </trkpt>
      <trkpt lat="45.61853" lon="2.93972">
        <ele>1060.47</ele>
        <time>2021-08-15T03:33:21Z</time>
      </trkpt>
      <trkpt lat="45.61852" lon="2.93972">
        <ele>1058.55</ele>
        <time>2021-08-15T03:33:25Z</time>
      </trkpt>
      <trkpt lat="45.61851" lon="2.93973">
        <ele>1058.55</ele>
        <time>2021-08-15T03:33:28Z</time>
      </trkpt>
      <trkpt lat="45.61849" lon="2.93973">
        <ele>1058.55</ele>
        <time>2021-08-15T03:33:29Z</time>
      </trkpt>
      <trkpt lat="45.61848" lon="2.93973">
        <ele>1058.55</ele>
        <time>2021-08-15T03:33:30Z</time>
      </trkpt>
      <trkpt lat="45.6183" lon="2.93974">
        <ele>1059.51</ele>
        <time>2021-08-15T03:33:37Z</time>
      </trkpt>
      <trkpt lat="45.61805" lon="2.93979">
        <ele>1060.95</ele>
        <time>2021-08-15T03:33:46Z</time>
      </trkpt>
      <trkpt lat="45.61777" lon="2.93983">
        <ele>1062.39</ele>
        <time>2021-08-15T03:33:56Z</time>
      </trkpt>
      <trkpt lat="45.61755" lon="2.93986">
        <ele>1063.36</ele>
        <time>2021-08-15T03:34:04Z</time>
      </trkpt>
      <trkpt lat="45.61729" lon="2.9399">
        <ele>1064.32</ele>
        <time>2021-08-15T03:34:14Z</time>
      </trkpt>
      <trkpt lat="45.61701" lon="2.93994">
        <ele>1065.76</ele>
        <time>2021-08-15T03:34:24Z</time>
      </trkpt>
      <trkpt lat="45.61679" lon="2.93998">
        <ele>1065.76</ele>
        <time>2021-08-15T03:34:32Z</time>
      </trkpt>
      <trkpt lat="45.61656" lon="2.94001">
        <ele>1066.24</ele>
        <time>2021-08-15T03:34:41Z</time>
      </trkpt>
      <trkpt lat="45.61636" lon="2.94004">
        <ele>1066.24</ele>
        <time>2021-08-15T03:34:49Z</time>
      </trkpt>
      <trkpt lat="45.61616" lon="2.94006">
        <ele>1067.2</ele>
        <time>2021-08-15T03:34:58Z</time>
      </trkpt>
      <trkpt lat="45.61608" lon="2.94004">
        <ele>1067.68</ele>
        <time>2021-08-15T03:35:02Z</time>
      </trkpt>
      <trkpt lat="45.61607" lon="2.94001">
        <ele>1067.68</ele>
        <time>2021-08-15T03:35:03Z</time>
      </trkpt>
      <trkpt lat="45.61606" lon="2.93999">
        <ele>1067.68</ele>
        <time>2021-08-15T03:35:04Z</time>
      </trkpt>
      <trkpt lat="45.61606" lon="2.93981">
        <ele>1069.12</ele>
        <time>2021-08-15T03:35:11Z</time>
      </trkpt>
      <trkpt lat="45.61606" lon="2.93977">
        <ele>1069.12</ele>
        <time>2021-08-15T03:35:13Z</time>
      </trkpt>
      <trkpt lat="45.61605" lon="2.93976">
        <ele>1069.6</ele>
        <time>2021-08-15T03:35:14Z</time>
      </trkpt>
      <trkpt lat="45.61605" lon="2.93974">
        <ele>1069.6</ele>
        <time>2021-08-15T03:35:15Z</time>
      </trkpt>
      <trkpt lat="45.61605" lon="2.93972">
        <ele>1069.6</ele>
        <time>2021-08-15T03:35:16Z</time>
      </trkpt>
      <trkpt lat="45.61604" lon="2.93964">
        <ele>1070.08</ele>
        <time>2021-08-15T03:35:21Z</time>
      </trkpt>
      <trkpt lat="45.61604" lon="2.93962">
        <ele>1070.08</ele>
        <time>2021-08-15T03:35:22Z</time>
      </trkpt>
      <trkpt lat="45.61604" lon="2.93961">
        <ele>1070.08</ele>
        <time>2021-08-15T03:35:23Z</time>
      </trkpt>
      <trkpt lat="45.61604" lon="2.93959">
        <ele>1070.08</ele>
        <time>2021-08-15T03:35:24Z</time>
      </trkpt>
      <trkpt lat="45.61604" lon="2.93957">
        <ele>1070.08</ele>
        <time>2021-08-15T03:35:25Z</time>
      </trkpt>
      <trkpt lat="45.61604" lon="2.93956">
        <ele>1070.08</ele>
        <time>2021-08-15T03:35:26Z</time>
      </trkpt>
      <trkpt lat="45.61603" lon="2.93954">
        <ele>1070.08</ele>
        <time>2021-08-15T03:35:27Z</time>
      </trkpt>
      <trkpt lat="45.61603" lon="2.93952">
        <ele>1070.08</ele>
        <time>2021-08-15T03:35:28Z</time>
      </trkpt>
      <trkpt lat="45.61603" lon="2.9394">
        <ele>1071.05</ele>
        <time>2021-08-15T03:35:36Z</time>
      </trkpt>
      <trkpt lat="45.61603" lon="2.9393">
        <ele>1072.01</ele>
        <time>2021-08-15T03:35:43Z</time>
      </trkpt>
      <trkpt lat="45.61601" lon="2.93919">
        <ele>1073.45</ele>
        <time>2021-08-15T03:35:51Z</time>
      </trkpt>
      <trkpt lat="45.616" lon="2.93908">
        <ele>1074.41</ele>
        <time>2021-08-15T03:36:01Z</time>
      </trkpt>
      <trkpt lat="45.616" lon="2.93896">
        <ele>1075.85</ele>
        <time>2021-08-15T03:36:11Z</time>
      </trkpt>
      <trkpt lat="45.616" lon="2.93883">
        <ele>1076.33</ele>
        <time>2021-08-15T03:36:21Z</time>
      </trkpt>
      <trkpt lat="45.61599" lon="2.93868">
        <ele>1077.29</ele>
        <time>2021-08-15T03:36:32Z</time>
      </trkpt>
      <trkpt lat="45.61598" lon="2.93853">
        <ele>1078.74</ele>
        <time>2021-08-15T03:36:43Z</time>
      </trkpt>
      <trkpt lat="45.61598" lon="2.93847">
        <ele>1079.7</ele>
        <time>2021-08-15T03:36:52Z</time>
      </trkpt>
      <trkpt lat="45.61597" lon="2.93832">
        <ele>1080.18</ele>
        <time>2021-08-15T03:36:59Z</time>
      </trkpt>
      <trkpt lat="45.61596" lon="2.93822">
        <ele>1080.66</ele>
        <time>2021-08-15T03:37:04Z</time>
      </trkpt>
      <trkpt lat="45.61597" lon="2.9382">
        <ele>1081.62</ele>
        <time>2021-08-15T03:37:05Z</time>
      </trkpt>
      <trkpt lat="45.61597" lon="2.93818">
        <ele>1081.62</ele>
        <time>2021-08-15T03:37:06Z</time>
      </trkpt>
      <trkpt lat="45.61597" lon="2.93817">
        <ele>1081.62</ele>
        <time>2021-08-15T03:37:07Z</time>
      </trkpt>
      <trkpt lat="45.61597" lon="2.93815">
        <ele>1081.62</ele>
        <time>2021-08-15T03:37:08Z</time>
      </trkpt>
      <trkpt lat="45.61597" lon="2.93813">
        <ele>1082.1</ele>
        <time>2021-08-15T03:37:09Z</time>
      </trkpt>
      <trkpt lat="45.61596" lon="2.93811">
        <ele>1082.1</ele>
        <time>2021-08-15T03:37:10Z</time>
      </trkpt>
      <trkpt lat="45.61596" lon="2.93809">
        <ele>1082.1</ele>
        <time>2021-08-15T03:37:11Z</time>
      </trkpt>
      <trkpt lat="45.61596" lon="2.93801">
        <ele>1082.58</ele>
        <time>2021-08-15T03:37:15Z</time>
      </trkpt>
      <trkpt lat="45.61596" lon="2.938">
        <ele>1083.54</ele>
        <time>2021-08-15T03:37:16Z</time>
      </trkpt>
      <trkpt lat="45.61595" lon="2.93798">
        <ele>1083.54</ele>
        <time>2021-08-15T03:37:17Z</time>
      </trkpt>
      <trkpt lat="45.61595" lon="2.93796">
        <ele>1084.5</ele>
        <time>2021-08-15T03:37:18Z</time>
      </trkpt>
      <trkpt lat="45.61595" lon="2.93794">
        <ele>1084.5</ele>
        <time>2021-08-15T03:37:19Z</time>
      </trkpt>
      <trkpt lat="45.61595" lon="2.93788">
        <ele>1083.06</ele>
        <time>2021-08-15T03:37:22Z</time>
      </trkpt>
      <trkpt lat="45.61594" lon="2.93773">
        <ele>1084.5</ele>
        <time>2021-08-15T03:37:30Z</time>
      </trkpt>
      <trkpt lat="45.61593" lon="2.9377">
        <ele>1084.99</ele>
        <time>2021-08-15T03:37:31Z</time>
      </trkpt>
      <trkpt lat="45.61593" lon="2.93769">
        <ele>1084.99</ele>
        <time>2021-08-15T03:37:32Z</time>
      </trkpt>
      <trkpt lat="45.61593" lon="2.93767">
        <ele>1084.99</ele>
        <time>2021-08-15T03:37:33Z</time>
      </trkpt>
      <trkpt lat="45.61593" lon="2.93765">
        <ele>1084.99</ele>
        <time>2021-08-15T03:37:34Z</time>
      </trkpt>
      <trkpt lat="45.61593" lon="2.93763">
        <ele>1084.99</ele>
        <time>2021-08-15T03:37:35Z</time>
      </trkpt>
      <trkpt lat="45.61593" lon="2.93748">
        <ele>1086.91</ele>
        <time>2021-08-15T03:37:44Z</time>
      </trkpt>
      <trkpt lat="45.61593" lon="2.93731">
        <ele>1087.87</ele>
        <time>2021-08-15T03:37:54Z</time>
      </trkpt>
      <trkpt lat="45.61592" lon="2.93711">
        <ele>1088.35</ele>
        <time>2021-08-15T03:38:06Z</time>
      </trkpt>
      <trkpt lat="45.61591" lon="2.93693">
        <ele>1090.27</ele>
        <time>2021-08-15T03:38:15Z</time>
      </trkpt>
      <trkpt lat="45.61591" lon="2.93675">
        <ele>1090.75</ele>
        <time>2021-08-15T03:38:24Z</time>
      </trkpt>
      <trkpt lat="45.6159" lon="2.93667">
        <ele>1091.23</ele>
        <time>2021-08-15T03:38:28Z</time>
      </trkpt>
      <trkpt lat="45.6159" lon="2.93661">
        <ele>1091.71</ele>
        <time>2021-08-15T03:38:31Z</time>
      </trkpt>
      <trkpt lat="45.6159" lon="2.93659">
        <ele>1091.71</ele>
        <time>2021-08-15T03:38:32Z</time>
      </trkpt>
      <trkpt lat="45.6159" lon="2.93657">
        <ele>1091.71</ele>
        <time>2021-08-15T03:38:33Z</time>
      </trkpt>
      <trkpt lat="45.6159" lon="2.93655">
        <ele>1091.71</ele>
        <time>2021-08-15T03:38:34Z</time>
      </trkpt>
      <trkpt lat="45.6159" lon="2.93653">
        <ele>1091.71</ele>
        <time>2021-08-15T03:38:35Z</time>
      </trkpt>
      <trkpt lat="45.6159" lon="2.93651">
        <ele>1092.2</ele>
        <time>2021-08-15T03:38:36Z</time>
      </trkpt>
      <trkpt lat="45.6159" lon="2.93649">
        <ele>1092.2</ele>
        <time>2021-08-15T03:38:37Z</time>
      </trkpt>
      <trkpt lat="45.61589" lon="2.93647">
        <ele>1092.2</ele>
        <time>2021-08-15T03:38:38Z</time>
      </trkpt>
      <trkpt lat="45.61589" lon="2.93645">
        <ele>1092.68</ele>
        <time>2021-08-15T03:38:39Z</time>
      </trkpt>
      <trkpt lat="45.61589" lon="2.93643">
        <ele>1092.68</ele>
        <time>2021-08-15T03:38:40Z</time>
      </trkpt>
      <trkpt lat="45.61589" lon="2.93619">
        <ele>1094.12</ele>
        <time>2021-08-15T03:38:51Z</time>
      </trkpt>
      <trkpt lat="45.61587" lon="2.93596">
        <ele>1094.6</ele>
        <time>2021-08-15T03:39:01Z</time>
      </trkpt>
      <trkpt lat="45.61586" lon="2.93575">
        <ele>1095.08</ele>
        <time>2021-08-15T03:39:10Z</time>
      </trkpt>
      <trkpt lat="45.61584" lon="2.93552">
        <ele>1095.56</ele>
        <time>2021-08-15T03:39:20Z</time>
      </trkpt>
      <trkpt lat="45.61583" lon="2.93533">
        <ele>1096.52</ele>
        <time>2021-08-15T03:39:29Z</time>
      </trkpt>
      <trkpt lat="45.61582" lon="2.93509">
        <ele>1097.96</ele>
        <time>2021-08-15T03:39:39Z</time>
      </trkpt>
      <trkpt lat="45.61581" lon="2.93484">
        <ele>1098.92</ele>
        <time>2021-08-15T03:39:49Z</time>
      </trkpt>
      <trkpt lat="45.61581" lon="2.93462">
        <ele>1099.4</ele>
        <time>2021-08-15T03:39:58Z</time>
      </trkpt>
      <trkpt lat="45.61579" lon="2.93436">
        <ele>1099.89</ele>
        <time>2021-08-15T03:40:08Z</time>
      </trkpt>
      <trkpt lat="45.61578" lon="2.93413">
        <ele>1100.37</ele>
        <time>2021-08-15T03:40:16Z</time>
      </trkpt>
      <trkpt lat="45.61578" lon="2.93389">
        <ele>1100.37</ele>
        <time>2021-08-15T03:40:25Z</time>
      </trkpt>
      <trkpt lat="45.61578" lon="2.93372">
        <ele>1102.29</ele>
        <time>2021-08-15T03:40:32Z</time>
      </trkpt>
      <trkpt lat="45.61576" lon="2.93348">
        <ele>1102.29</ele>
        <time>2021-08-15T03:40:41Z</time>
      </trkpt>
      <trkpt lat="45.61576" lon="2.93318">
        <ele>1102.29</ele>
        <time>2021-08-15T03:40:52Z</time>
      </trkpt>
      <trkpt lat="45.61575" lon="2.93294">
        <ele>1103.25</ele>
        <time>2021-08-15T03:41:01Z</time>
      </trkpt>
      <trkpt lat="45.61574" lon="2.93267">
        <ele>1104.21</ele>
        <time>2021-08-15T03:41:11Z</time>
      </trkpt>
      <trkpt lat="45.61573" lon="2.93251">
        <ele>1105.17</ele>
        <time>2021-08-15T03:41:17Z</time>
      </trkpt>
      <trkpt lat="45.61575" lon="2.93222">
        <ele>1105.17</ele>
        <time>2021-08-15T03:41:28Z</time>
      </trkpt>
      <trkpt lat="45.61575" lon="2.93204">
        <ele>1106.13</ele>
        <time>2021-08-15T03:41:35Z</time>
      </trkpt>
      <trkpt lat="45.61576" lon="2.93182">
        <ele>1107.1</ele>
        <time>2021-08-15T03:41:43Z</time>
      </trkpt>
      <trkpt lat="45.61577" lon="2.93156">
        <ele>1107.58</ele>
        <time>2021-08-15T03:41:53Z</time>
      </trkpt>
      <trkpt lat="45.61579" lon="2.93137">
        <ele>1108.54</ele>
        <time>2021-08-15T03:42:00Z</time>
      </trkpt>
      <trkpt lat="45.6158" lon="2.93109">
        <ele>1108.54</ele>
        <time>2021-08-15T03:42:11Z</time>
      </trkpt>
      <trkpt lat="45.61581" lon="2.93082">
        <ele>1110.94</ele>
        <time>2021-08-15T03:42:23Z</time>
      </trkpt>
      <trkpt lat="45.61581" lon="2.93068">
        <ele>1111.9</ele>
        <time>2021-08-15T03:42:29Z</time>
      </trkpt>
      <trkpt lat="45.6158" lon="2.93065">
        <ele>1111.9</ele>
        <time>2021-08-15T03:42:31Z</time>
      </trkpt>
      <trkpt lat="45.61581" lon="2.93063">
        <ele>1111.9</ele>
        <time>2021-08-15T03:42:32Z</time>
      </trkpt>
      <trkpt lat="45.6158" lon="2.93039">
        <ele>1112.38</ele>
        <time>2021-08-15T03:42:42Z</time>
      </trkpt>
      <trkpt lat="45.61579" lon="2.9302">
        <ele>1114.31</ele>
        <time>2021-08-15T03:42:51Z</time>
      </trkpt>
      <trkpt lat="45.61577" lon="2.93001">
        <ele>1115.27</ele>
        <time>2021-08-15T03:43:00Z</time>
      </trkpt>
      <trkpt lat="45.61574" lon="2.92981">
        <ele>1115.75</ele>
        <time>2021-08-15T03:43:09Z</time>
      </trkpt>
      <trkpt lat="45.61572" lon="2.92966">
        <ele>1116.71</ele>
        <time>2021-08-15T03:43:16Z</time>
      </trkpt>
      <trkpt lat="45.61572" lon="2.92964">
        <ele>1116.71</ele>
        <time>2021-08-15T03:43:17Z</time>
      </trkpt>
      <trkpt lat="45.61571" lon="2.92962">
        <ele>1116.71</ele>
        <time>2021-08-15T03:43:18Z</time>
      </trkpt>
      <trkpt lat="45.6157" lon="2.92958">
        <ele>1117.19</ele>
        <time>2021-08-15T03:43:24Z</time>
      </trkpt>
      <trkpt lat="45.61571" lon="2.92952">
        <ele>1117.19</ele>
        <time>2021-08-15T03:43:38Z</time>
      </trkpt>
      <trkpt lat="45.6157" lon="2.9295">
        <ele>1117.19</ele>
        <time>2021-08-15T03:43:53Z</time>
      </trkpt>
      <trkpt lat="45.61569" lon="2.92947">
        <ele>1117.19</ele>
        <time>2021-08-15T03:44:07Z</time>
      </trkpt>
      <trkpt lat="45.6157" lon="2.92941">
        <ele>1117.19</ele>
        <time>2021-08-15T03:44:14Z</time>
      </trkpt>
      <trkpt lat="45.61567" lon="2.92919">
        <ele>1117.67</ele>
        <time>2021-08-15T03:44:22Z</time>
      </trkpt>
      <trkpt lat="45.61565" lon="2.92894">
        <ele>1119.59</ele>
        <time>2021-08-15T03:44:30Z</time>
      </trkpt>
      <trkpt lat="45.61563" lon="2.9287">
        <ele>1119.59</ele>
        <time>2021-08-15T03:44:37Z</time>
      </trkpt>
      <trkpt lat="45.61563" lon="2.92843">
        <ele>1120.07</ele>
        <time>2021-08-15T03:44:44Z</time>
      </trkpt>
      <trkpt lat="45.61561" lon="2.92808">
        <ele>1120.07</ele>
        <time>2021-08-15T03:44:53Z</time>
      </trkpt>
      <trkpt lat="45.61561" lon="2.92772">
        <ele>1118.63</ele>
        <time>2021-08-15T03:45:01Z</time>
      </trkpt>
      <trkpt lat="45.61561" lon="2.92767">
        <ele>1118.63</ele>
        <time>2021-08-15T03:45:02Z</time>
      </trkpt>
      <trkpt lat="45.61562" lon="2.92744">
        <ele>1120.07</ele>
        <time>2021-08-15T03:45:07Z</time>
      </trkpt>
      <trkpt lat="45.61561" lon="2.927">
        <ele>1120.55</ele>
        <time>2021-08-15T03:45:16Z</time>
      </trkpt>
      <trkpt lat="45.61559" lon="2.92643">
        <ele>1122</ele>
        <time>2021-08-15T03:45:28Z</time>
      </trkpt>
      <trkpt lat="45.61557" lon="2.92615">
        <ele>1122</ele>
        <time>2021-08-15T03:45:35Z</time>
      </trkpt>
      <trkpt lat="45.61555" lon="2.92586">
        <ele>1122.96</ele>
        <time>2021-08-15T03:45:43Z</time>
      </trkpt>
      <trkpt lat="45.61553" lon="2.92556">
        <ele>1123.92</ele>
        <time>2021-08-15T03:45:52Z</time>
      </trkpt>
      <trkpt lat="45.61551" lon="2.92541">
        <ele>1125.84</ele>
        <time>2021-08-15T03:45:57Z</time>
      </trkpt>
      <trkpt lat="45.61548" lon="2.92521">
        <ele>1126.32</ele>
        <time>2021-08-15T03:46:04Z</time>
      </trkpt>
      <trkpt lat="45.61545" lon="2.92496">
        <ele>1127.28</ele>
        <time>2021-08-15T03:46:12Z</time>
      </trkpt>
      <trkpt lat="45.61545" lon="2.92478">
        <ele>1128.73</ele>
        <time>2021-08-15T03:46:18Z</time>
      </trkpt>
      <trkpt lat="45.61544" lon="2.92463">
        <ele>1129.21</ele>
        <time>2021-08-15T03:46:25Z</time>
      </trkpt>
      <trkpt lat="45.61543" lon="2.92445">
        <ele>1130.65</ele>
        <time>2021-08-15T03:46:34Z</time>
      </trkpt>
      <trkpt lat="45.61538" lon="2.9242">
        <ele>1131.61</ele>
        <time>2021-08-15T03:46:44Z</time>
      </trkpt>
      <trkpt lat="45.61537" lon="2.92415">
        <ele>1132.09</ele>
        <time>2021-08-15T03:46:46Z</time>
      </trkpt>
      <trkpt lat="45.61536" lon="2.92413">
        <ele>1132.09</ele>
        <time>2021-08-15T03:46:47Z</time>
      </trkpt>
      <trkpt lat="45.61532" lon="2.92396">
        <ele>1133.05</ele>
        <time>2021-08-15T03:46:55Z</time>
      </trkpt>
      <trkpt lat="45.61531" lon="2.92392">
        <ele>1133.05</ele>
        <time>2021-08-15T03:46:57Z</time>
      </trkpt>
      <trkpt lat="45.61531" lon="2.9239">
        <ele>1133.05</ele>
        <time>2021-08-15T03:46:58Z</time>
      </trkpt>
      <trkpt lat="45.6153" lon="2.92387">
        <ele>1133.05</ele>
        <time>2021-08-15T03:46:59Z</time>
      </trkpt>
      <trkpt lat="45.61529" lon="2.92384">
        <ele>1133.05</ele>
        <time>2021-08-15T03:47:00Z</time>
      </trkpt>
      <trkpt lat="45.61529" lon="2.92381">
        <ele>1133.05</ele>
        <time>2021-08-15T03:47:01Z</time>
      </trkpt>
      <trkpt lat="45.61528" lon="2.92379">
        <ele>1133.53</ele>
        <time>2021-08-15T03:47:02Z</time>
      </trkpt>
      <trkpt lat="45.61524" lon="2.92362">
        <ele>1134.49</ele>
        <time>2021-08-15T03:47:09Z</time>
      </trkpt>
      <trkpt lat="45.61522" lon="2.92355">
        <ele>1134.49</ele>
        <time>2021-08-15T03:47:12Z</time>
      </trkpt>
      <trkpt lat="45.61518" lon="2.92333">
        <ele>1135.45</ele>
        <time>2021-08-15T03:47:20Z</time>
      </trkpt>
      <trkpt lat="45.61512" lon="2.9231">
        <ele>1134.49</ele>
        <time>2021-08-15T03:47:27Z</time>
      </trkpt>
      <trkpt lat="45.61507" lon="2.92295">
        <ele>1135.94</ele>
        <time>2021-08-15T03:47:32Z</time>
      </trkpt>
      <trkpt lat="45.61495" lon="2.92269">
        <ele>1136.9</ele>
        <time>2021-08-15T03:47:41Z</time>
      </trkpt>
      <trkpt lat="45.61494" lon="2.92269">
        <ele>1136.9</ele>
        <time>2021-08-15T03:47:42Z</time>
      </trkpt>
      <trkpt lat="45.61485" lon="2.92279">
        <ele>1136.9</ele>
        <time>2021-08-15T03:47:48Z</time>
      </trkpt>
      <trkpt lat="45.61471" lon="2.92306">
        <ele>1136.9</ele>
        <time>2021-08-15T03:47:58Z</time>
      </trkpt>
      <trkpt lat="45.6146" lon="2.92332">
        <ele>1136.9</ele>
        <time>2021-08-15T03:48:05Z</time>
      </trkpt>
      <trkpt lat="45.61447" lon="2.92362">
        <ele>1135.94</ele>
        <time>2021-08-15T03:48:12Z</time>
      </trkpt>
      <trkpt lat="45.61437" lon="2.92399">
        <ele>1134.49</ele>
        <time>2021-08-15T03:48:18Z</time>
      </trkpt>
      <trkpt lat="45.61429" lon="2.92421">
        <ele>1133.05</ele>
        <time>2021-08-15T03:48:21Z</time>
      </trkpt>
      <trkpt lat="45.61426" lon="2.92428">
        <ele>1133.05</ele>
        <time>2021-08-15T03:48:22Z</time>
      </trkpt>
      <trkpt lat="45.61406" lon="2.92464">
        <ele>1128.73</ele>
        <time>2021-08-15T03:48:27Z</time>
      </trkpt>
      <trkpt lat="45.61394" lon="2.92482">
        <ele>1127.76</ele>
        <time>2021-08-15T03:48:30Z</time>
      </trkpt>
      <trkpt lat="45.61389" lon="2.92487">
        <ele>1126.8</ele>
        <time>2021-08-15T03:48:31Z</time>
      </trkpt>
      <trkpt lat="45.61383" lon="2.92491">
        <ele>1125.84</ele>
        <time>2021-08-15T03:48:32Z</time>
      </trkpt>
      <trkpt lat="45.61379" lon="2.92495">
        <ele>1125.84</ele>
        <time>2021-08-15T03:48:33Z</time>
      </trkpt>
      <trkpt lat="45.61373" lon="2.92497">
        <ele>1124.4</ele>
        <time>2021-08-15T03:48:34Z</time>
      </trkpt>
      <trkpt lat="45.61367" lon="2.92499">
        <ele>1123.44</ele>
        <time>2021-08-15T03:48:35Z</time>
      </trkpt>
      <trkpt lat="45.61362" lon="2.925">
        <ele>1123.44</ele>
        <time>2021-08-15T03:48:36Z</time>
      </trkpt>
      <trkpt lat="45.61356" lon="2.92502">
        <ele>1122.48</ele>
        <time>2021-08-15T03:48:37Z</time>
      </trkpt>
      <trkpt lat="45.61351" lon="2.92506">
        <ele>1122.48</ele>
        <time>2021-08-15T03:48:38Z</time>
      </trkpt>
      <trkpt lat="45.61346" lon="2.92511">
        <ele>1121.03</ele>
        <time>2021-08-15T03:48:39Z</time>
      </trkpt>
      <trkpt lat="45.61342" lon="2.92518">
        <ele>1121.03</ele>
        <time>2021-08-15T03:48:40Z</time>
      </trkpt>
      <trkpt lat="45.61338" lon="2.92526">
        <ele>1120.07</ele>
        <time>2021-08-15T03:48:41Z</time>
      </trkpt>
      <trkpt lat="45.61335" lon="2.92535">
        <ele>1119.11</ele>
        <time>2021-08-15T03:48:42Z</time>
      </trkpt>
      <trkpt lat="45.61324" lon="2.92564">
        <ele>1115.75</ele>
        <time>2021-08-15T03:48:45Z</time>
      </trkpt>
      <trkpt lat="45.6132" lon="2.92572">
        <ele>1115.27</ele>
        <time>2021-08-15T03:48:46Z</time>
      </trkpt>
      <trkpt lat="45.61315" lon="2.9258">
        <ele>1114.31</ele>
        <time>2021-08-15T03:48:47Z</time>
      </trkpt>
      <trkpt lat="45.61294" lon="2.92609">
        <ele>1109.98</ele>
        <time>2021-08-15T03:48:51Z</time>
      </trkpt>
      <trkpt lat="45.61264" lon="2.92634">
        <ele>1106.61</ele>
        <time>2021-08-15T03:48:56Z</time>
      </trkpt>
      <trkpt lat="45.61246" lon="2.92646">
        <ele>1104.69</ele>
        <time>2021-08-15T03:48:59Z</time>
      </trkpt>
      <trkpt lat="45.61217" lon="2.92665">
        <ele>1101.33</ele>
        <time>2021-08-15T03:49:04Z</time>
      </trkpt>
      <trkpt lat="45.61195" lon="2.92679">
        <ele>1099.4</ele>
        <time>2021-08-15T03:49:08Z</time>
      </trkpt>
      <trkpt lat="45.61179" lon="2.92689">
        <ele>1097.96</ele>
        <time>2021-08-15T03:49:11Z</time>
      </trkpt>
      <trkpt lat="45.61154" lon="2.92718">
        <ele>1095.08</ele>
        <time>2021-08-15T03:49:16Z</time>
      </trkpt>
      <trkpt lat="45.61144" lon="2.92732">
        <ele>1094.12</ele>
        <time>2021-08-15T03:49:18Z</time>
      </trkpt>
      <trkpt lat="45.61125" lon="2.92756">
        <ele>1091.71</ele>
        <time>2021-08-15T03:49:22Z</time>
      </trkpt>
      <trkpt lat="45.61111" lon="2.92774">
        <ele>1089.79</ele>
        <time>2021-08-15T03:49:25Z</time>
      </trkpt>
      <trkpt lat="45.61088" lon="2.92804">
        <ele>1085.95</ele>
        <time>2021-08-15T03:49:30Z</time>
      </trkpt>
      <trkpt lat="45.6106" lon="2.92838">
        <ele>1082.58</ele>
        <time>2021-08-15T03:49:36Z</time>
      </trkpt>
      <trkpt lat="45.61048" lon="2.92851">
        <ele>1081.62</ele>
        <time>2021-08-15T03:49:39Z</time>
      </trkpt>
      <trkpt lat="45.61044" lon="2.92856">
        <ele>1080.66</ele>
        <time>2021-08-15T03:49:40Z</time>
      </trkpt>
      <trkpt lat="45.6104" lon="2.92862">
        <ele>1080.66</ele>
        <time>2021-08-15T03:49:41Z</time>
      </trkpt>
      <trkpt lat="45.61024" lon="2.92884">
        <ele>1079.22</ele>
        <time>2021-08-15T03:49:46Z</time>
      </trkpt>
      <trkpt lat="45.61021" lon="2.9289">
        <ele>1078.74</ele>
        <time>2021-08-15T03:49:47Z</time>
      </trkpt>
      <trkpt lat="45.61019" lon="2.92896">
        <ele>1078.26</ele>
        <time>2021-08-15T03:49:48Z</time>
      </trkpt>
      <trkpt lat="45.61017" lon="2.92902">
        <ele>1078.26</ele>
        <time>2021-08-15T03:49:49Z</time>
      </trkpt>
      <trkpt lat="45.61015" lon="2.92907">
        <ele>1077.78</ele>
        <time>2021-08-15T03:49:50Z</time>
      </trkpt>
      <trkpt lat="45.61013" lon="2.92913">
        <ele>1077.29</ele>
        <time>2021-08-15T03:49:51Z</time>
      </trkpt>
      <trkpt lat="45.61011" lon="2.92917">
        <ele>1077.29</ele>
        <time>2021-08-15T03:49:52Z</time>
      </trkpt>
      <trkpt lat="45.61009" lon="2.92923">
        <ele>1076.81</ele>
        <time>2021-08-15T03:49:53Z</time>
      </trkpt>
      <trkpt lat="45.61006" lon="2.92927">
        <ele>1076.33</ele>
        <time>2021-08-15T03:49:54Z</time>
      </trkpt>
      <trkpt lat="45.61003" lon="2.9293">
        <ele>1076.33</ele>
        <time>2021-08-15T03:49:55Z</time>
      </trkpt>
      <trkpt lat="45.60999" lon="2.92934">
        <ele>1075.85</ele>
        <time>2021-08-15T03:49:56Z</time>
      </trkpt>
      <trkpt lat="45.60995" lon="2.92937">
        <ele>1075.37</ele>
        <time>2021-08-15T03:49:57Z</time>
      </trkpt>
      <trkpt lat="45.60972" lon="2.9295">
        <ele>1072.97</ele>
        <time>2021-08-15T03:50:02Z</time>
      </trkpt>
      <trkpt lat="45.60968" lon="2.92954">
        <ele>1072.01</ele>
        <time>2021-08-15T03:50:03Z</time>
      </trkpt>
      <trkpt lat="45.60963" lon="2.9296">
        <ele>1072.01</ele>
        <time>2021-08-15T03:50:04Z</time>
      </trkpt>
      <trkpt lat="45.60959" lon="2.92967">
        <ele>1071.05</ele>
        <time>2021-08-15T03:50:05Z</time>
      </trkpt>
      <trkpt lat="45.60955" lon="2.92976">
        <ele>1070.08</ele>
        <time>2021-08-15T03:50:06Z</time>
      </trkpt>
      <trkpt lat="45.60951" lon="2.92985">
        <ele>1070.08</ele>
        <time>2021-08-15T03:50:07Z</time>
      </trkpt>
      <trkpt lat="45.60939" lon="2.93006">
        <ele>1069.12</ele>
        <time>2021-08-15T03:50:10Z</time>
      </trkpt>
      <trkpt lat="45.60935" lon="2.93009">
        <ele>1069.12</ele>
        <time>2021-08-15T03:50:11Z</time>
      </trkpt>
      <trkpt lat="45.60929" lon="2.93012">
        <ele>1068.64</ele>
        <time>2021-08-15T03:50:12Z</time>
      </trkpt>
      <trkpt lat="45.60926" lon="2.93014">
        <ele>1067.68</ele>
        <time>2021-08-15T03:50:13Z</time>
      </trkpt>
      <trkpt lat="45.60921" lon="2.93016">
        <ele>1067.68</ele>
        <time>2021-08-15T03:50:14Z</time>
      </trkpt>
      <trkpt lat="45.60916" lon="2.93019">
        <ele>1067.68</ele>
        <time>2021-08-15T03:50:15Z</time>
      </trkpt>
      <trkpt lat="45.60875" lon="2.93037">
        <ele>1064.32</ele>
        <time>2021-08-15T03:50:22Z</time>
      </trkpt>
      <trkpt lat="45.6087" lon="2.9304">
        <ele>1064.32</ele>
        <time>2021-08-15T03:50:23Z</time>
      </trkpt>
      <trkpt lat="45.60802" lon="2.93072">
        <ele>1061.91</ele>
        <time>2021-08-15T03:50:33Z</time>
      </trkpt>
      <trkpt lat="45.60765" lon="2.93087">
        <ele>1061.91</ele>
        <time>2021-08-15T03:50:39Z</time>
      </trkpt>
      <trkpt lat="45.60751" lon="2.9309">
        <ele>1061.91</ele>
        <time>2021-08-15T03:50:44Z</time>
      </trkpt>
      <trkpt lat="45.60731" lon="2.9309">
        <ele>1061.91</ele>
        <time>2021-08-15T03:50:50Z</time>
      </trkpt>
      <trkpt lat="45.60728" lon="2.93091">
        <ele>1061.43</ele>
        <time>2021-08-15T03:50:51Z</time>
      </trkpt>
      <trkpt lat="45.60724" lon="2.93094">
        <ele>1061.43</ele>
        <time>2021-08-15T03:50:52Z</time>
      </trkpt>
      <trkpt lat="45.6072" lon="2.93097">
        <ele>1061.43</ele>
        <time>2021-08-15T03:50:53Z</time>
      </trkpt>
      <trkpt lat="45.60716" lon="2.93101">
        <ele>1061.43</ele>
        <time>2021-08-15T03:50:54Z</time>
      </trkpt>
      <trkpt lat="45.607" lon="2.93122">
        <ele>1060.47</ele>
        <time>2021-08-15T03:50:59Z</time>
      </trkpt>
      <trkpt lat="45.60698" lon="2.93127">
        <ele>1060.47</ele>
        <time>2021-08-15T03:51:00Z</time>
      </trkpt>
      <trkpt lat="45.60697" lon="2.93132">
        <ele>1060.47</ele>
        <time>2021-08-15T03:51:01Z</time>
      </trkpt>
      <trkpt lat="45.6069" lon="2.93153">
        <ele>1060.47</ele>
        <time>2021-08-15T03:51:05Z</time>
      </trkpt>
      <trkpt lat="45.6067" lon="2.9319">
        <ele>1061.91</ele>
        <time>2021-08-15T03:51:13Z</time>
      </trkpt>
      <trkpt lat="45.60642" lon="2.93225">
        <ele>1063.36</ele>
        <time>2021-08-15T03:51:23Z</time>
      </trkpt>
      <trkpt lat="45.60615" lon="2.93249">
        <ele>1063.36</ele>
        <time>2021-08-15T03:51:32Z</time>
      </trkpt>
      <trkpt lat="45.60594" lon="2.93265">
        <ele>1063.36</ele>
        <time>2021-08-15T03:51:41Z</time>
      </trkpt>
      <trkpt lat="45.60574" lon="2.93278">
        <ele>1064.32</ele>
        <time>2021-08-15T03:51:50Z</time>
      </trkpt>
      <trkpt lat="45.60558" lon="2.93288">
        <ele>1065.28</ele>
        <time>2021-08-15T03:51:57Z</time>
      </trkpt>
      <trkpt lat="45.6054" lon="2.93295">
        <ele>1063.84</ele>
        <time>2021-08-15T03:52:04Z</time>
      </trkpt>
      <trkpt lat="45.60536" lon="2.93296">
        <ele>1063.84</ele>
        <time>2021-08-15T03:52:05Z</time>
      </trkpt>
      <trkpt lat="45.60525" lon="2.93297">
        <ele>1063.84</ele>
        <time>2021-08-15T03:52:08Z</time>
      </trkpt>
      <trkpt lat="45.6052" lon="2.93297">
        <ele>1062.87</ele>
        <time>2021-08-15T03:52:09Z</time>
      </trkpt>
      <trkpt lat="45.60515" lon="2.93296">
        <ele>1062.87</ele>
        <time>2021-08-15T03:52:10Z</time>
      </trkpt>
      <trkpt lat="45.605" lon="2.93292">
        <ele>1060.95</ele>
        <time>2021-08-15T03:52:13Z</time>
      </trkpt>
      <trkpt lat="45.60495" lon="2.93291">
        <ele>1059.99</ele>
        <time>2021-08-15T03:52:14Z</time>
      </trkpt>
      <trkpt lat="45.6046" lon="2.93271">
        <ele>1057.59</ele>
        <time>2021-08-15T03:52:21Z</time>
      </trkpt>
      <trkpt lat="45.60449" lon="2.93266">
        <ele>1056.63</ele>
        <time>2021-08-15T03:52:23Z</time>
      </trkpt>
      <trkpt lat="45.60433" lon="2.93258">
        <ele>1054.7</ele>
        <time>2021-08-15T03:52:26Z</time>
      </trkpt>
      <trkpt lat="45.60427" lon="2.93255">
        <ele>1053.74</ele>
        <time>2021-08-15T03:52:27Z</time>
      </trkpt>
      <trkpt lat="45.60422" lon="2.93252">
        <ele>1053.26</ele>
        <time>2021-08-15T03:52:28Z</time>
      </trkpt>
      <trkpt lat="45.60417" lon="2.93248">
        <ele>1053.26</ele>
        <time>2021-08-15T03:52:29Z</time>
      </trkpt>
      <trkpt lat="45.60412" lon="2.93245">
        <ele>1051.82</ele>
        <time>2021-08-15T03:52:30Z</time>
      </trkpt>
      <trkpt lat="45.60407" lon="2.93241">
        <ele>1051.82</ele>
        <time>2021-08-15T03:52:31Z</time>
      </trkpt>
      <trkpt lat="45.60392" lon="2.93231">
        <ele>1050.38</ele>
        <time>2021-08-15T03:52:34Z</time>
      </trkpt>
      <trkpt lat="45.60376" lon="2.93219">
        <ele>1048.45</ele>
        <time>2021-08-15T03:52:37Z</time>
      </trkpt>
      <trkpt lat="45.60353" lon="2.93203">
        <ele>1046.05</ele>
        <time>2021-08-15T03:52:41Z</time>
      </trkpt>
      <trkpt lat="45.60323" lon="2.93187">
        <ele>1044.13</ele>
        <time>2021-08-15T03:52:46Z</time>
      </trkpt>
      <trkpt lat="45.60318" lon="2.93185">
        <ele>1044.13</ele>
        <time>2021-08-15T03:52:47Z</time>
      </trkpt>
      <trkpt lat="45.60312" lon="2.93182">
        <ele>1044.13</ele>
        <time>2021-08-15T03:52:48Z</time>
      </trkpt>
      <trkpt lat="45.60288" lon="2.93165">
        <ele>1041.25</ele>
        <time>2021-08-15T03:52:53Z</time>
      </trkpt>
      <trkpt lat="45.60266" lon="2.93146">
        <ele>1039.8</ele>
        <time>2021-08-15T03:52:58Z</time>
      </trkpt>
      <trkpt lat="45.60261" lon="2.93142">
        <ele>1039.8</ele>
        <time>2021-08-15T03:52:59Z</time>
      </trkpt>
      <trkpt lat="45.60257" lon="2.93139">
        <ele>1038.84</ele>
        <time>2021-08-15T03:53:00Z</time>
      </trkpt>
      <trkpt lat="45.6022" lon="2.93104">
        <ele>1037.4</ele>
        <time>2021-08-15T03:53:09Z</time>
      </trkpt>
      <trkpt lat="45.60208" lon="2.93093">
        <ele>1038.36</ele>
        <time>2021-08-15T03:53:12Z</time>
      </trkpt>
      <trkpt lat="45.60205" lon="2.93089">
        <ele>1038.36</ele>
        <time>2021-08-15T03:53:13Z</time>
      </trkpt>
      <trkpt lat="45.60179" lon="2.93059">
        <ele>1036.92</ele>
        <time>2021-08-15T03:53:21Z</time>
      </trkpt>
      <trkpt lat="45.60149" lon="2.93027">
        <ele>1035.96</ele>
        <time>2021-08-15T03:53:30Z</time>
      </trkpt>
      <trkpt lat="45.6013" lon="2.93008">
        <ele>1034.52</ele>
        <time>2021-08-15T03:53:35Z</time>
      </trkpt>
      <trkpt lat="45.60126" lon="2.93005">
        <ele>1034.52</ele>
        <time>2021-08-15T03:53:36Z</time>
      </trkpt>
      <trkpt lat="45.60123" lon="2.93001">
        <ele>1034.52</ele>
        <time>2021-08-15T03:53:37Z</time>
      </trkpt>
      <trkpt lat="45.60094" lon="2.92972">
        <ele>1034.04</ele>
        <time>2021-08-15T03:53:46Z</time>
      </trkpt>
      <trkpt lat="45.60071" lon="2.92957">
        <ele>1034.52</ele>
        <time>2021-08-15T03:53:53Z</time>
      </trkpt>
      <trkpt lat="45.6005" lon="2.92947">
        <ele>1034.04</ele>
        <time>2021-08-15T03:54:00Z</time>
      </trkpt>
      <trkpt lat="45.60026" lon="2.92934">
        <ele>1034.04</ele>
        <time>2021-08-15T03:54:08Z</time>
      </trkpt>
      <trkpt lat="45.60001" lon="2.92926">
        <ele>1034.04</ele>
        <time>2021-08-15T03:54:16Z</time>
      </trkpt>
      <trkpt lat="45.59985" lon="2.92927">
        <ele>1034.04</ele>
        <time>2021-08-15T03:54:22Z</time>
      </trkpt>
      <trkpt lat="45.59962" lon="2.9293">
        <ele>1034.04</ele>
        <time>2021-08-15T03:54:29Z</time>
      </trkpt>
      <trkpt lat="45.59929" lon="2.92928">
        <ele>1035.48</ele>
        <time>2021-08-15T03:54:39Z</time>
      </trkpt>
      <trkpt lat="45.59914" lon="2.92922">
        <ele>1036.44</ele>
        <time>2021-08-15T03:54:46Z</time>
      </trkpt>
      <trkpt lat="45.59898" lon="2.92918">
        <ele>1037.4</ele>
        <time>2021-08-15T03:54:53Z</time>
      </trkpt>
      <trkpt lat="45.59873" lon="2.92911">
        <ele>1037.88</ele>
        <time>2021-08-15T03:55:03Z</time>
      </trkpt>
      <trkpt lat="45.59849" lon="2.92904">
        <ele>1038.84</ele>
        <time>2021-08-15T03:55:14Z</time>
      </trkpt>
      <trkpt lat="45.5982" lon="2.929">
        <ele>1040.28</ele>
        <time>2021-08-15T03:55:27Z</time>
      </trkpt>
      <trkpt lat="45.59798" lon="2.92898">
        <ele>1040.76</ele>
        <time>2021-08-15T03:55:36Z</time>
      </trkpt>
      <trkpt lat="45.59775" lon="2.929">
        <ele>1038.84</ele>
        <time>2021-08-15T03:55:42Z</time>
      </trkpt>
      <trkpt lat="45.59763" lon="2.92898">
        <ele>1038.36</ele>
        <time>2021-08-15T03:55:46Z</time>
      </trkpt>
      <trkpt lat="45.59761" lon="2.92897">
        <ele>1038.36</ele>
        <time>2021-08-15T03:55:47Z</time>
      </trkpt>
      <trkpt lat="45.59759" lon="2.92895">
        <ele>1038.36</ele>
        <time>2021-08-15T03:55:48Z</time>
      </trkpt>
      <trkpt lat="45.59757" lon="2.92893">
        <ele>1038.36</ele>
        <time>2021-08-15T03:55:49Z</time>
      </trkpt>
      <trkpt lat="45.59754" lon="2.92891">
        <ele>1038.36</ele>
        <time>2021-08-15T03:55:50Z</time>
      </trkpt>
      <trkpt lat="45.59752" lon="2.92889">
        <ele>1037.4</ele>
        <time>2021-08-15T03:55:51Z</time>
      </trkpt>
      <trkpt lat="45.59729" lon="2.92871">
        <ele>1037.4</ele>
        <time>2021-08-15T03:55:58Z</time>
      </trkpt>
      <trkpt lat="45.59704" lon="2.92853">
        <ele>1037.4</ele>
        <time>2021-08-15T03:56:05Z</time>
      </trkpt>
      <trkpt lat="45.59678" lon="2.9284">
        <ele>1036.92</ele>
        <time>2021-08-15T03:56:13Z</time>
      </trkpt>
      <trkpt lat="45.59672" lon="2.92834">
        <ele>1037.88</ele>
        <time>2021-08-15T03:56:16Z</time>
      </trkpt>
      <trkpt lat="45.59668" lon="2.92832">
        <ele>1038.84</ele>
        <time>2021-08-15T03:56:18Z</time>
      </trkpt>
      <trkpt lat="45.59666" lon="2.92833">
        <ele>1038.84</ele>
        <time>2021-08-15T03:56:19Z</time>
      </trkpt>
      <trkpt lat="45.59664" lon="2.92835">
        <ele>1038.84</ele>
        <time>2021-08-15T03:56:20Z</time>
      </trkpt>
      <trkpt lat="45.59646" lon="2.92853">
        <ele>1038.84</ele>
        <time>2021-08-15T03:56:27Z</time>
      </trkpt>
      <trkpt lat="45.59629" lon="2.92859">
        <ele>1038.84</ele>
        <time>2021-08-15T03:56:32Z</time>
      </trkpt>
      <trkpt lat="45.59613" lon="2.92843">
        <ele>1038.84</ele>
        <time>2021-08-15T03:56:38Z</time>
      </trkpt>
      <trkpt lat="45.59596" lon="2.92812">
        <ele>1039.32</ele>
        <time>2021-08-15T03:56:46Z</time>
      </trkpt>
      <trkpt lat="45.59579" lon="2.92776">
        <ele>1040.28</ele>
        <time>2021-08-15T03:56:55Z</time>
      </trkpt>
      <trkpt lat="45.59557" lon="2.92738">
        <ele>1041.25</ele>
        <time>2021-08-15T03:57:05Z</time>
      </trkpt>
      <trkpt lat="45.59534" lon="2.92702">
        <ele>1042.21</ele>
        <time>2021-08-15T03:57:15Z</time>
      </trkpt>
      <trkpt lat="45.59521" lon="2.9267">
        <ele>1043.17</ele>
        <time>2021-08-15T03:57:23Z</time>
      </trkpt>
      <trkpt lat="45.59515" lon="2.92652">
        <ele>1043.65</ele>
        <time>2021-08-15T03:57:28Z</time>
      </trkpt>
      <trkpt lat="45.59497" lon="2.9262">
        <ele>1044.61</ele>
        <time>2021-08-15T03:57:38Z</time>
      </trkpt>
      <trkpt lat="45.59476" lon="2.92598">
        <ele>1045.57</ele>
        <time>2021-08-15T03:57:48Z</time>
      </trkpt>
      <trkpt lat="45.59459" lon="2.92579">
        <ele>1046.53</ele>
        <time>2021-08-15T03:57:57Z</time>
      </trkpt>
      <trkpt lat="45.59445" lon="2.9255">
        <ele>1047.49</ele>
        <time>2021-08-15T03:58:07Z</time>
      </trkpt>
      <trkpt lat="45.59435" lon="2.92513">
        <ele>1047.97</ele>
        <time>2021-08-15T03:58:18Z</time>
      </trkpt>
      <trkpt lat="45.59423" lon="2.92479">
        <ele>1049.42</ele>
        <time>2021-08-15T03:58:29Z</time>
      </trkpt>
      <trkpt lat="45.59406" lon="2.9245">
        <ele>1049.9</ele>
        <time>2021-08-15T03:58:40Z</time>
      </trkpt>
      <trkpt lat="45.59393" lon="2.92432">
        <ele>1050.86</ele>
        <time>2021-08-15T03:58:48Z</time>
      </trkpt>
      <trkpt lat="45.59379" lon="2.92415">
        <ele>1051.34</ele>
        <time>2021-08-15T03:58:56Z</time>
      </trkpt>
      <trkpt lat="45.59367" lon="2.9239">
        <ele>1052.78</ele>
        <time>2021-08-15T03:59:05Z</time>
      </trkpt>
      <trkpt lat="45.5936" lon="2.9237">
        <ele>1053.26</ele>
        <time>2021-08-15T03:59:12Z</time>
      </trkpt>
      <trkpt lat="45.59354" lon="2.92352">
        <ele>1054.22</ele>
        <time>2021-08-15T03:59:19Z</time>
      </trkpt>
      <trkpt lat="45.59346" lon="2.92328">
        <ele>1055.67</ele>
        <time>2021-08-15T03:59:29Z</time>
      </trkpt>
      <trkpt lat="45.59339" lon="2.92304">
        <ele>1056.63</ele>
        <time>2021-08-15T03:59:39Z</time>
      </trkpt>
      <trkpt lat="45.59329" lon="2.92273">
        <ele>1058.55</ele>
        <time>2021-08-15T03:59:52Z</time>
      </trkpt>
      <trkpt lat="45.59321" lon="2.92251">
        <ele>1059.51</ele>
        <time>2021-08-15T04:00:01Z</time>
      </trkpt>
      <trkpt lat="45.59309" lon="2.92221">
        <ele>1060.47</ele>
        <time>2021-08-15T04:00:13Z</time>
      </trkpt>
      <trkpt lat="45.59294" lon="2.92197">
        <ele>1060.47</ele>
        <time>2021-08-15T04:00:22Z</time>
      </trkpt>
      <trkpt lat="45.59275" lon="2.92188">
        <ele>1061.91</ele>
        <time>2021-08-15T04:00:30Z</time>
      </trkpt>
      <trkpt lat="45.59262" lon="2.92186">
        <ele>1060.47</ele>
        <time>2021-08-15T04:00:35Z</time>
      </trkpt>
      <trkpt lat="45.59238" lon="2.92182">
        <ele>1059.51</ele>
        <time>2021-08-15T04:00:42Z</time>
      </trkpt>
      <trkpt lat="45.59234" lon="2.92182">
        <ele>1059.51</ele>
        <time>2021-08-15T04:00:43Z</time>
      </trkpt>
      <trkpt lat="45.59225" lon="2.92179">
        <ele>1059.51</ele>
        <time>2021-08-15T04:00:45Z</time>
      </trkpt>
      <trkpt lat="45.59205" lon="2.92167">
        <ele>1057.59</ele>
        <time>2021-08-15T04:00:49Z</time>
      </trkpt>
      <trkpt lat="45.59186" lon="2.92147">
        <ele>1055.67</ele>
        <time>2021-08-15T04:00:53Z</time>
      </trkpt>
      <trkpt lat="45.59182" lon="2.92141">
        <ele>1054.7</ele>
        <time>2021-08-15T04:00:54Z</time>
      </trkpt>
      <trkpt lat="45.59179" lon="2.92133">
        <ele>1054.22</ele>
        <time>2021-08-15T04:00:55Z</time>
      </trkpt>
      <trkpt lat="45.59177" lon="2.92126">
        <ele>1054.22</ele>
        <time>2021-08-15T04:00:56Z</time>
      </trkpt>
      <trkpt lat="45.59174" lon="2.92118">
        <ele>1053.26</ele>
        <time>2021-08-15T04:00:57Z</time>
      </trkpt>
      <trkpt lat="45.59156" lon="2.9206">
        <ele>1050.38</ele>
        <time>2021-08-15T04:01:04Z</time>
      </trkpt>
      <trkpt lat="45.59145" lon="2.92024">
        <ele>1049.42</ele>
        <time>2021-08-15T04:01:08Z</time>
      </trkpt>
      <trkpt lat="45.59135" lon="2.91998">
        <ele>1047.97</ele>
        <time>2021-08-15T04:01:11Z</time>
      </trkpt>
      <trkpt lat="45.59106" lon="2.9193">
        <ele>1046.05</ele>
        <time>2021-08-15T04:01:19Z</time>
      </trkpt>
      <trkpt lat="45.59102" lon="2.91922">
        <ele>1045.57</ele>
        <time>2021-08-15T04:01:20Z</time>
      </trkpt>
      <trkpt lat="45.59097" lon="2.91915">
        <ele>1045.09</ele>
        <time>2021-08-15T04:01:21Z</time>
      </trkpt>
      <trkpt lat="45.59085" lon="2.91901">
        <ele>1043.17</ele>
        <time>2021-08-15T04:01:23Z</time>
      </trkpt>
      <trkpt lat="45.59072" lon="2.91887">
        <ele>1042.21</ele>
        <time>2021-08-15T04:01:25Z</time>
      </trkpt>
      <trkpt lat="45.59066" lon="2.91881">
        <ele>1042.21</ele>
        <time>2021-08-15T04:01:26Z</time>
      </trkpt>
      <trkpt lat="45.5906" lon="2.91873">
        <ele>1042.21</ele>
        <time>2021-08-15T04:01:27Z</time>
      </trkpt>
      <trkpt lat="45.59055" lon="2.91864">
        <ele>1042.21</ele>
        <time>2021-08-15T04:01:28Z</time>
      </trkpt>
      <trkpt lat="45.59052" lon="2.91855">
        <ele>1042.21</ele>
        <time>2021-08-15T04:01:29Z</time>
      </trkpt>
      <trkpt lat="45.5905" lon="2.91844">
        <ele>1042.21</ele>
        <time>2021-08-15T04:01:30Z</time>
      </trkpt>
      <trkpt lat="45.59048" lon="2.91834">
        <ele>1041.73</ele>
        <time>2021-08-15T04:01:31Z</time>
      </trkpt>
      <trkpt lat="45.59045" lon="2.91787">
        <ele>1041.73</ele>
        <time>2021-08-15T04:01:37Z</time>
      </trkpt>
      <trkpt lat="45.59043" lon="2.91782">
        <ele>1041.73</ele>
        <time>2021-08-15T04:01:38Z</time>
      </trkpt>
      <trkpt lat="45.5904" lon="2.9178">
        <ele>1041.73</ele>
        <time>2021-08-15T04:01:39Z</time>
      </trkpt>
      <trkpt lat="45.59035" lon="2.91779">
        <ele>1041.73</ele>
        <time>2021-08-15T04:01:40Z</time>
      </trkpt>
      <trkpt lat="45.59031" lon="2.91779">
        <ele>1042.21</ele>
        <time>2021-08-15T04:01:41Z</time>
      </trkpt>
      <trkpt lat="45.59025" lon="2.91781">
        <ele>1042.21</ele>
        <time>2021-08-15T04:01:42Z</time>
      </trkpt>
      <trkpt lat="45.5902" lon="2.91783">
        <ele>1042.21</ele>
        <time>2021-08-15T04:01:43Z</time>
      </trkpt>
      <trkpt lat="45.5901" lon="2.91785">
        <ele>1041.73</ele>
        <time>2021-08-15T04:01:45Z</time>
      </trkpt>
      <trkpt lat="45.59005" lon="2.91785">
        <ele>1040.76</ele>
        <time>2021-08-15T04:01:46Z</time>
      </trkpt>
      <trkpt lat="45.59" lon="2.91785">
        <ele>1040.76</ele>
        <time>2021-08-15T04:01:47Z</time>
      </trkpt>
      <trkpt lat="45.58985" lon="2.91786">
        <ele>1040.76</ele>
        <time>2021-08-15T04:01:50Z</time>
      </trkpt>
      <trkpt lat="45.5895" lon="2.91781">
        <ele>1040.28</ele>
        <time>2021-08-15T04:01:58Z</time>
      </trkpt>
      <trkpt lat="45.58935" lon="2.9177">
        <ele>1041.25</ele>
        <time>2021-08-15T04:02:04Z</time>
      </trkpt>
      <trkpt lat="45.58928" lon="2.91761">
        <ele>1042.69</ele>
        <time>2021-08-15T04:02:11Z</time>
      </trkpt>
      <trkpt lat="45.58927" lon="2.91762">
        <ele>1043.17</ele>
        <time>2021-08-15T04:02:12Z</time>
      </trkpt>
      <trkpt lat="45.58926" lon="2.91764">
        <ele>1043.17</ele>
        <time>2021-08-15T04:02:13Z</time>
      </trkpt>
      <trkpt lat="45.58925" lon="2.91767">
        <ele>1043.17</ele>
        <time>2021-08-15T04:02:14Z</time>
      </trkpt>
      <trkpt lat="45.58924" lon="2.9177">
        <ele>1043.17</ele>
        <time>2021-08-15T04:02:15Z</time>
      </trkpt>
      <trkpt lat="45.58923" lon="2.91773">
        <ele>1043.17</ele>
        <time>2021-08-15T04:02:16Z</time>
      </trkpt>
      <trkpt lat="45.58923" lon="2.91776">
        <ele>1043.17</ele>
        <time>2021-08-15T04:02:17Z</time>
      </trkpt>
      <trkpt lat="45.58922" lon="2.91778">
        <ele>1043.17</ele>
        <time>2021-08-15T04:02:18Z</time>
      </trkpt>
      <trkpt lat="45.58921" lon="2.9178">
        <ele>1043.17</ele>
        <time>2021-08-15T04:02:19Z</time>
      </trkpt>
      <trkpt lat="45.58913" lon="2.91791">
        <ele>1043.65</ele>
        <time>2021-08-15T04:02:25Z</time>
      </trkpt>
      <trkpt lat="45.58909" lon="2.91802">
        <ele>1044.13</ele>
        <time>2021-08-15T04:02:30Z</time>
      </trkpt>
      <trkpt lat="45.58907" lon="2.91806">
        <ele>1044.61</ele>
        <time>2021-08-15T04:02:32Z</time>
      </trkpt>
      <trkpt lat="45.58906" lon="2.91807">
        <ele>1044.61</ele>
        <time>2021-08-15T04:02:33Z</time>
      </trkpt>
      <trkpt lat="45.58905" lon="2.91808">
        <ele>1045.09</ele>
        <time>2021-08-15T04:02:34Z</time>
      </trkpt>
      <trkpt lat="45.58903" lon="2.91809">
        <ele>1045.09</ele>
        <time>2021-08-15T04:02:35Z</time>
      </trkpt>
      <trkpt lat="45.58902" lon="2.91809">
        <ele>1045.09</ele>
        <time>2021-08-15T04:02:36Z</time>
      </trkpt>
      <trkpt lat="45.58901" lon="2.91809">
        <ele>1045.09</ele>
        <time>2021-08-15T04:02:37Z</time>
      </trkpt>
      <trkpt lat="45.58899" lon="2.9181">
        <ele>1045.09</ele>
        <time>2021-08-15T04:02:38Z</time>
      </trkpt>
      <trkpt lat="45.58898" lon="2.91809">
        <ele>1045.57</ele>
        <time>2021-08-15T04:02:39Z</time>
      </trkpt>
      <trkpt lat="45.58897" lon="2.91809">
        <ele>1045.57</ele>
        <time>2021-08-15T04:02:40Z</time>
      </trkpt>
      <trkpt lat="45.58895" lon="2.91809">
        <ele>1046.05</ele>
        <time>2021-08-15T04:02:41Z</time>
      </trkpt>
      <trkpt lat="45.58894" lon="2.91809">
        <ele>1046.05</ele>
        <time>2021-08-15T04:02:42Z</time>
      </trkpt>
      <trkpt lat="45.58893" lon="2.91808">
        <ele>1046.05</ele>
        <time>2021-08-15T04:02:43Z</time>
      </trkpt>
      <trkpt lat="45.58892" lon="2.91808">
        <ele>1046.05</ele>
        <time>2021-08-15T04:02:44Z</time>
      </trkpt>
      <trkpt lat="45.58887" lon="2.91805">
        <ele>1046.53</ele>
        <time>2021-08-15T04:02:49Z</time>
      </trkpt>
      <trkpt lat="45.58885" lon="2.91804">
        <ele>1047.49</ele>
        <time>2021-08-15T04:02:50Z</time>
      </trkpt>
      <trkpt lat="45.58879" lon="2.91799">
        <ele>1048.45</ele>
        <time>2021-08-15T04:02:57Z</time>
      </trkpt>
      <trkpt lat="45.58878" lon="2.91798">
        <ele>1048.94</ele>
        <time>2021-08-15T04:02:58Z</time>
      </trkpt>
      <trkpt lat="45.58867" lon="2.91792">
        <ele>1049.9</ele>
        <time>2021-08-15T04:03:07Z</time>
      </trkpt>
      <trkpt lat="45.58856" lon="2.91787">
        <ele>1050.38</ele>
        <time>2021-08-15T04:03:15Z</time>
      </trkpt>
      <trkpt lat="45.58855" lon="2.91787">
        <ele>1050.38</ele>
        <time>2021-08-15T04:03:16Z</time>
      </trkpt>
      <trkpt lat="45.58853" lon="2.91786">
        <ele>1050.86</ele>
        <time>2021-08-15T04:03:17Z</time>
      </trkpt>
      <trkpt lat="45.58852" lon="2.91786">
        <ele>1050.86</ele>
        <time>2021-08-15T04:03:18Z</time>
      </trkpt>
      <trkpt lat="45.58851" lon="2.91786">
        <ele>1050.86</ele>
        <time>2021-08-15T04:03:19Z</time>
      </trkpt>
      <trkpt lat="45.58849" lon="2.91785">
        <ele>1050.86</ele>
        <time>2021-08-15T04:03:20Z</time>
      </trkpt>
      <trkpt lat="45.58837" lon="2.91781">
        <ele>1052.3</ele>
        <time>2021-08-15T04:03:29Z</time>
      </trkpt>
      <trkpt lat="45.58824" lon="2.91777">
        <ele>1052.78</ele>
        <time>2021-08-15T04:03:38Z</time>
      </trkpt>
      <trkpt lat="45.5881" lon="2.91774">
        <ele>1053.74</ele>
        <time>2021-08-15T04:03:46Z</time>
      </trkpt>
      <trkpt lat="45.58792" lon="2.91773">
        <ele>1054.7</ele>
        <time>2021-08-15T04:03:55Z</time>
      </trkpt>
      <trkpt lat="45.58771" lon="2.91774">
        <ele>1055.67</ele>
        <time>2021-08-15T04:04:05Z</time>
      </trkpt>
      <trkpt lat="45.58753" lon="2.91784">
        <ele>1055.67</ele>
        <time>2021-08-15T04:04:13Z</time>
      </trkpt>
      <trkpt lat="45.58732" lon="2.91798">
        <ele>1055.67</ele>
        <time>2021-08-15T04:04:21Z</time>
      </trkpt>
      <trkpt lat="45.58701" lon="2.91815">
        <ele>1055.67</ele>
        <time>2021-08-15T04:04:31Z</time>
      </trkpt>
      <trkpt lat="45.58672" lon="2.91827">
        <ele>1055.67</ele>
        <time>2021-08-15T04:04:40Z</time>
      </trkpt>
      <trkpt lat="45.58643" lon="2.91843">
        <ele>1056.63</ele>
        <time>2021-08-15T04:04:49Z</time>
      </trkpt>
      <trkpt lat="45.58617" lon="2.91855">
        <ele>1056.63</ele>
        <time>2021-08-15T04:04:57Z</time>
      </trkpt>
      <trkpt lat="45.58585" lon="2.9187">
        <ele>1056.63</ele>
        <time>2021-08-15T04:05:07Z</time>
      </trkpt>
      <trkpt lat="45.5856" lon="2.91881">
        <ele>1056.63</ele>
        <time>2021-08-15T04:05:15Z</time>
      </trkpt>
      <trkpt lat="45.58532" lon="2.91886">
        <ele>1057.11</ele>
        <time>2021-08-15T04:05:24Z</time>
      </trkpt>
      <trkpt lat="45.58519" lon="2.9188">
        <ele>1058.07</ele>
        <time>2021-08-15T04:05:30Z</time>
      </trkpt>
      <trkpt lat="45.58502" lon="2.91875">
        <ele>1059.51</ele>
        <time>2021-08-15T04:05:38Z</time>
      </trkpt>
      <trkpt lat="45.58483" lon="2.91866">
        <ele>1059.51</ele>
        <time>2021-08-15T04:05:47Z</time>
      </trkpt>
      <trkpt lat="45.5847" lon="2.9186">
        <ele>1058.07</ele>
        <time>2021-08-15T04:05:52Z</time>
      </trkpt>
      <trkpt lat="45.58444" lon="2.91849">
        <ele>1057.59</ele>
        <time>2021-08-15T04:06:02Z</time>
      </trkpt>
      <trkpt lat="45.58415" lon="2.91836">
        <ele>1057.11</ele>
        <time>2021-08-15T04:06:12Z</time>
      </trkpt>
      <trkpt lat="45.58383" lon="2.91822">
        <ele>1056.63</ele>
        <time>2021-08-15T04:06:22Z</time>
      </trkpt>
      <trkpt lat="45.58352" lon="2.91807">
        <ele>1056.15</ele>
        <time>2021-08-15T04:06:32Z</time>
      </trkpt>
      <trkpt lat="45.58324" lon="2.91785">
        <ele>1054.7</ele>
        <time>2021-08-15T04:06:42Z</time>
      </trkpt>
      <trkpt lat="45.58296" lon="2.91763">
        <ele>1052.78</ele>
        <time>2021-08-15T04:06:51Z</time>
      </trkpt>
      <trkpt lat="45.58278" lon="2.91765">
        <ele>1050.86</ele>
        <time>2021-08-15T04:06:56Z</time>
      </trkpt>
      <trkpt lat="45.58246" lon="2.91784">
        <ele>1047.49</ele>
        <time>2021-08-15T04:07:04Z</time>
      </trkpt>
      <trkpt lat="45.58236" lon="2.9179">
        <ele>1046.53</ele>
        <time>2021-08-15T04:07:06Z</time>
      </trkpt>
      <trkpt lat="45.58226" lon="2.91796">
        <ele>1045.09</ele>
        <time>2021-08-15T04:07:08Z</time>
      </trkpt>
      <trkpt lat="45.58197" lon="2.91813">
        <ele>1042.21</ele>
        <time>2021-08-15T04:07:14Z</time>
      </trkpt>
      <trkpt lat="45.58188" lon="2.91818">
        <ele>1040.76</ele>
        <time>2021-08-15T04:07:16Z</time>
      </trkpt>
      <trkpt lat="45.58184" lon="2.9182">
        <ele>1040.28</ele>
        <time>2021-08-15T04:07:17Z</time>
      </trkpt>
      <trkpt lat="45.58166" lon="2.9183">
        <ele>1036.92</ele>
        <time>2021-08-15T04:07:22Z</time>
      </trkpt>
      <trkpt lat="45.58151" lon="2.91839">
        <ele>1033.55</ele>
        <time>2021-08-15T04:07:28Z</time>
      </trkpt>
      <trkpt lat="45.58145" lon="2.91841">
        <ele>1031.15</ele>
        <time>2021-08-15T04:07:31Z</time>
      </trkpt>
      <trkpt lat="45.58143" lon="2.91841">
        <ele>1030.67</ele>
        <time>2021-08-15T04:07:32Z</time>
      </trkpt>
      <trkpt lat="45.5814" lon="2.9184">
        <ele>1029.23</ele>
        <time>2021-08-15T04:07:33Z</time>
      </trkpt>
      <trkpt lat="45.58125" lon="2.91836">
        <ele>1024.9</ele>
        <time>2021-08-15T04:07:37Z</time>
      </trkpt>
      <trkpt lat="45.58108" lon="2.91837">
        <ele>1021.54</ele>
        <time>2021-08-15T04:07:41Z</time>
      </trkpt>
      <trkpt lat="45.58103" lon="2.9184">
        <ele>1020.58</ele>
        <time>2021-08-15T04:07:42Z</time>
      </trkpt>
      <trkpt lat="45.58094" lon="2.91846">
        <ele>1020.1</ele>
        <time>2021-08-15T04:07:44Z</time>
      </trkpt>
      <trkpt lat="45.58083" lon="2.91852">
        <ele>1017.69</ele>
        <time>2021-08-15T04:07:47Z</time>
      </trkpt>
      <trkpt lat="45.58079" lon="2.91851">
        <ele>1016.25</ele>
        <time>2021-08-15T04:07:48Z</time>
      </trkpt>
      <trkpt lat="45.58075" lon="2.91849">
        <ele>1014.81</ele>
        <time>2021-08-15T04:07:49Z</time>
      </trkpt>
      <trkpt lat="45.58072" lon="2.91846">
        <ele>1013.85</ele>
        <time>2021-08-15T04:07:50Z</time>
      </trkpt>
      <trkpt lat="45.58069" lon="2.91843">
        <ele>1012.41</ele>
        <time>2021-08-15T04:07:51Z</time>
      </trkpt>
      <trkpt lat="45.58067" lon="2.91839">
        <ele>1011.93</ele>
        <time>2021-08-15T04:07:52Z</time>
      </trkpt>
      <trkpt lat="45.58065" lon="2.91835">
        <ele>1011.44</ele>
        <time>2021-08-15T04:07:53Z</time>
      </trkpt>
      <trkpt lat="45.58064" lon="2.91831">
        <ele>1010.48</ele>
        <time>2021-08-15T04:07:54Z</time>
      </trkpt>
      <trkpt lat="45.58061" lon="2.91827">
        <ele>1009.52</ele>
        <time>2021-08-15T04:07:55Z</time>
      </trkpt>
      <trkpt lat="45.58059" lon="2.91823">
        <ele>1008.56</ele>
        <time>2021-08-15T04:07:56Z</time>
      </trkpt>
      <trkpt lat="45.58057" lon="2.91819">
        <ele>1007.6</ele>
        <time>2021-08-15T04:07:57Z</time>
      </trkpt>
      <trkpt lat="45.58054" lon="2.91817">
        <ele>1006.64</ele>
        <time>2021-08-15T04:07:58Z</time>
      </trkpt>
      <trkpt lat="45.58051" lon="2.91815">
        <ele>1005.68</ele>
        <time>2021-08-15T04:07:59Z</time>
      </trkpt>
      <trkpt lat="45.58048" lon="2.91812">
        <ele>1004.23</ele>
        <time>2021-08-15T04:08:00Z</time>
      </trkpt>
      <trkpt lat="45.58037" lon="2.91797">
        <ele>1001.35</ele>
        <time>2021-08-15T04:08:04Z</time>
      </trkpt>
      <trkpt lat="45.58036" lon="2.91793">
        <ele>1001.35</ele>
        <time>2021-08-15T04:08:05Z</time>
      </trkpt>
      <trkpt lat="45.58021" lon="2.91777">
        <ele>998.47</ele>
        <time>2021-08-15T04:08:10Z</time>
      </trkpt>
      <trkpt lat="45.58015" lon="2.91776">
        <ele>997.99</ele>
        <time>2021-08-15T04:08:11Z</time>
      </trkpt>
      <trkpt lat="45.58009" lon="2.91776">
        <ele>997.02</ele>
        <time>2021-08-15T04:08:12Z</time>
      </trkpt>
      <trkpt lat="45.57997" lon="2.91779">
        <ele>995.1</ele>
        <time>2021-08-15T04:08:14Z</time>
      </trkpt>
      <trkpt lat="45.57991" lon="2.91779">
        <ele>994.14</ele>
        <time>2021-08-15T04:08:15Z</time>
      </trkpt>
      <trkpt lat="45.57986" lon="2.91778">
        <ele>993.18</ele>
        <time>2021-08-15T04:08:16Z</time>
      </trkpt>
      <trkpt lat="45.57981" lon="2.91778">
        <ele>992.7</ele>
        <time>2021-08-15T04:08:17Z</time>
      </trkpt>
      <trkpt lat="45.57977" lon="2.91776">
        <ele>992.22</ele>
        <time>2021-08-15T04:08:18Z</time>
      </trkpt>
      <trkpt lat="45.57972" lon="2.91773">
        <ele>991.26</ele>
        <time>2021-08-15T04:08:19Z</time>
      </trkpt>
      <trkpt lat="45.57969" lon="2.9177">
        <ele>990.78</ele>
        <time>2021-08-15T04:08:20Z</time>
      </trkpt>
      <trkpt lat="45.57956" lon="2.91756">
        <ele>986.93</ele>
        <time>2021-08-15T04:08:24Z</time>
      </trkpt>
      <trkpt lat="45.57949" lon="2.91748">
        <ele>985.49</ele>
        <time>2021-08-15T04:08:26Z</time>
      </trkpt>
      <trkpt lat="45.57941" lon="2.91741">
        <ele>983.09</ele>
        <time>2021-08-15T04:08:28Z</time>
      </trkpt>
      <trkpt lat="45.57937" lon="2.91737">
        <ele>982.12</ele>
        <time>2021-08-15T04:08:29Z</time>
      </trkpt>
      <trkpt lat="45.57932" lon="2.91733">
        <ele>980.68</ele>
        <time>2021-08-15T04:08:30Z</time>
      </trkpt>
      <trkpt lat="45.57921" lon="2.91718">
        <ele>977.32</ele>
        <time>2021-08-15T04:08:34Z</time>
      </trkpt>
      <trkpt lat="45.57919" lon="2.91714">
        <ele>976.84</ele>
        <time>2021-08-15T04:08:35Z</time>
      </trkpt>
      <trkpt lat="45.57918" lon="2.9171">
        <ele>976.36</ele>
        <time>2021-08-15T04:08:36Z</time>
      </trkpt>
      <trkpt lat="45.57917" lon="2.91705">
        <ele>976.36</ele>
        <time>2021-08-15T04:08:37Z</time>
      </trkpt>
      <trkpt lat="45.57917" lon="2.91679">
        <ele>972.99</ele>
        <time>2021-08-15T04:08:42Z</time>
      </trkpt>
      <trkpt lat="45.5791" lon="2.91653">
        <ele>969.63</ele>
        <time>2021-08-15T04:08:47Z</time>
      </trkpt>
      <trkpt lat="45.57895" lon="2.91643">
        <ele>966.74</ele>
        <time>2021-08-15T04:08:52Z</time>
      </trkpt>
      <trkpt lat="45.5788" lon="2.91644">
        <ele>964.34</ele>
        <time>2021-08-15T04:08:57Z</time>
      </trkpt>
      <trkpt lat="45.57877" lon="2.91643">
        <ele>964.34</ele>
        <time>2021-08-15T04:08:58Z</time>
      </trkpt>
      <trkpt lat="45.57876" lon="2.91641">
        <ele>963.86</ele>
        <time>2021-08-15T04:08:59Z</time>
      </trkpt>
      <trkpt lat="45.57875" lon="2.91637">
        <ele>963.38</ele>
        <time>2021-08-15T04:09:00Z</time>
      </trkpt>
      <trkpt lat="45.57874" lon="2.91613">
        <ele>960.98</ele>
        <time>2021-08-15T04:09:06Z</time>
      </trkpt>
      <trkpt lat="45.57874" lon="2.91601">
        <ele>959.05</ele>
        <time>2021-08-15T04:09:08Z</time>
      </trkpt>
      <trkpt lat="45.57873" lon="2.91594">
        <ele>958.57</ele>
        <time>2021-08-15T04:09:09Z</time>
      </trkpt>
      <trkpt lat="45.57871" lon="2.91588">
        <ele>957.61</ele>
        <time>2021-08-15T04:09:10Z</time>
      </trkpt>
      <trkpt lat="45.57869" lon="2.9158">
        <ele>957.61</ele>
        <time>2021-08-15T04:09:11Z</time>
      </trkpt>
      <trkpt lat="45.57867" lon="2.91575">
        <ele>956.65</ele>
        <time>2021-08-15T04:09:12Z</time>
      </trkpt>
      <trkpt lat="45.57866" lon="2.9157">
        <ele>956.65</ele>
        <time>2021-08-15T04:09:13Z</time>
      </trkpt>
      <trkpt lat="45.57864" lon="2.91563">
        <ele>955.69</ele>
        <time>2021-08-15T04:09:14Z</time>
      </trkpt>
      <trkpt lat="45.57862" lon="2.91557">
        <ele>955.69</ele>
        <time>2021-08-15T04:09:15Z</time>
      </trkpt>
      <trkpt lat="45.57861" lon="2.9155">
        <ele>954.73</ele>
        <time>2021-08-15T04:09:16Z</time>
      </trkpt>
      <trkpt lat="45.5786" lon="2.91544">
        <ele>955.21</ele>
        <time>2021-08-15T04:09:17Z</time>
      </trkpt>
      <trkpt lat="45.57858" lon="2.91538">
        <ele>953.77</ele>
        <time>2021-08-15T04:09:18Z</time>
      </trkpt>
      <trkpt lat="45.57856" lon="2.91533">
        <ele>953.77</ele>
        <time>2021-08-15T04:09:19Z</time>
      </trkpt>
      <trkpt lat="45.57853" lon="2.91529">
        <ele>953.77</ele>
        <time>2021-08-15T04:09:20Z</time>
      </trkpt>
      <trkpt lat="45.5785" lon="2.91524">
        <ele>952.32</ele>
        <time>2021-08-15T04:09:21Z</time>
      </trkpt>
      <trkpt lat="45.57848" lon="2.9152">
        <ele>951.84</ele>
        <time>2021-08-15T04:09:22Z</time>
      </trkpt>
      <trkpt lat="45.57846" lon="2.91515">
        <ele>951.36</ele>
        <time>2021-08-15T04:09:23Z</time>
      </trkpt>
      <trkpt lat="45.57844" lon="2.9151">
        <ele>950.4</ele>
        <time>2021-08-15T04:09:24Z</time>
      </trkpt>
      <trkpt lat="45.57842" lon="2.91504">
        <ele>949.44</ele>
        <time>2021-08-15T04:09:25Z</time>
      </trkpt>
      <trkpt lat="45.5784" lon="2.91499">
        <ele>948.96</ele>
        <time>2021-08-15T04:09:26Z</time>
      </trkpt>
      <trkpt lat="45.57837" lon="2.91493">
        <ele>947.52</ele>
        <time>2021-08-15T04:09:27Z</time>
      </trkpt>
      <trkpt lat="45.57828" lon="2.91474">
        <ele>944.63</ele>
        <time>2021-08-15T04:09:30Z</time>
      </trkpt>
      <trkpt lat="45.57824" lon="2.91468">
        <ele>943.19</ele>
        <time>2021-08-15T04:09:31Z</time>
      </trkpt>
      <trkpt lat="45.57821" lon="2.91464">
        <ele>942.71</ele>
        <time>2021-08-15T04:09:32Z</time>
      </trkpt>
      <trkpt lat="45.57817" lon="2.9146">
        <ele>941.75</ele>
        <time>2021-08-15T04:09:33Z</time>
      </trkpt>
      <trkpt lat="45.57813" lon="2.91456">
        <ele>940.79</ele>
        <time>2021-08-15T04:09:34Z</time>
      </trkpt>
      <trkpt lat="45.57809" lon="2.91453">
        <ele>939.83</ele>
        <time>2021-08-15T04:09:35Z</time>
      </trkpt>
      <trkpt lat="45.57804" lon="2.9145">
        <ele>938.38</ele>
        <time>2021-08-15T04:09:36Z</time>
      </trkpt>
      <trkpt lat="45.578" lon="2.91448">
        <ele>937.9</ele>
        <time>2021-08-15T04:09:37Z</time>
      </trkpt>
      <trkpt lat="45.57797" lon="2.91447">
        <ele>937.9</ele>
        <time>2021-08-15T04:09:38Z</time>
      </trkpt>
      <trkpt lat="45.57786" lon="2.91444">
        <ele>934.54</ele>
        <time>2021-08-15T04:09:42Z</time>
      </trkpt>
      <trkpt lat="45.57782" lon="2.91444">
        <ele>934.54</ele>
        <time>2021-08-15T04:09:43Z</time>
      </trkpt>
      <trkpt lat="45.57766" lon="2.91443">
        <ele>932.14</ele>
        <time>2021-08-15T04:09:48Z</time>
      </trkpt>
      <trkpt lat="45.57752" lon="2.91453">
        <ele>928.77</ele>
        <time>2021-08-15T04:09:53Z</time>
      </trkpt>
      <trkpt lat="45.5775" lon="2.91457">
        <ele>928.77</ele>
        <time>2021-08-15T04:09:54Z</time>
      </trkpt>
      <trkpt lat="45.57741" lon="2.91475">
        <ele>927.33</ele>
        <time>2021-08-15T04:09:58Z</time>
      </trkpt>
      <trkpt lat="45.57739" lon="2.91481">
        <ele>926.85</ele>
        <time>2021-08-15T04:09:59Z</time>
      </trkpt>
      <trkpt lat="45.57732" lon="2.91506">
        <ele>924.93</ele>
        <time>2021-08-15T04:10:03Z</time>
      </trkpt>
      <trkpt lat="45.57727" lon="2.91527">
        <ele>922.52</ele>
        <time>2021-08-15T04:10:08Z</time>
      </trkpt>
      <trkpt lat="45.57725" lon="2.91533">
        <ele>921.56</ele>
        <time>2021-08-15T04:10:10Z</time>
      </trkpt>
      <trkpt lat="45.57723" lon="2.91534">
        <ele>921.08</ele>
        <time>2021-08-15T04:10:11Z</time>
      </trkpt>
      <trkpt lat="45.57721" lon="2.91532">
        <ele>920.6</ele>
        <time>2021-08-15T04:10:12Z</time>
      </trkpt>
      <trkpt lat="45.57719" lon="2.91529">
        <ele>920.12</ele>
        <time>2021-08-15T04:10:13Z</time>
      </trkpt>
      <trkpt lat="45.57718" lon="2.91524">
        <ele>919.64</ele>
        <time>2021-08-15T04:10:14Z</time>
      </trkpt>
      <trkpt lat="45.57717" lon="2.91519">
        <ele>919.16</ele>
        <time>2021-08-15T04:10:15Z</time>
      </trkpt>
      <trkpt lat="45.57716" lon="2.91513">
        <ele>918.2</ele>
        <time>2021-08-15T04:10:16Z</time>
      </trkpt>
      <trkpt lat="45.57715" lon="2.91496">
        <ele>916.75</ele>
        <time>2021-08-15T04:10:19Z</time>
      </trkpt>
      <trkpt lat="45.57715" lon="2.9149">
        <ele>916.75</ele>
        <time>2021-08-15T04:10:20Z</time>
      </trkpt>
      <trkpt lat="45.57717" lon="2.91478">
        <ele>916.75</ele>
        <time>2021-08-15T04:10:22Z</time>
      </trkpt>
      <trkpt lat="45.57721" lon="2.91443">
        <ele>916.75</ele>
        <time>2021-08-15T04:10:29Z</time>
      </trkpt>
      <trkpt lat="45.57722" lon="2.91427">
        <ele>916.75</ele>
        <time>2021-08-15T04:10:32Z</time>
      </trkpt>
      <trkpt lat="45.57722" lon="2.91421">
        <ele>915.79</ele>
        <time>2021-08-15T04:10:33Z</time>
      </trkpt>
      <trkpt lat="45.57722" lon="2.91381">
        <ele>915.31</ele>
        <time>2021-08-15T04:10:39Z</time>
      </trkpt>
      <trkpt lat="45.5772" lon="2.91358">
        <ele>913.39</ele>
        <time>2021-08-15T04:10:43Z</time>
      </trkpt>
      <trkpt lat="45.57721" lon="2.91347">
        <ele>912.91</ele>
        <time>2021-08-15T04:10:45Z</time>
      </trkpt>
      <trkpt lat="45.57722" lon="2.91341">
        <ele>911.95</ele>
        <time>2021-08-15T04:10:46Z</time>
      </trkpt>
      <trkpt lat="45.57725" lon="2.91335">
        <ele>910.99</ele>
        <time>2021-08-15T04:10:47Z</time>
      </trkpt>
      <trkpt lat="45.57727" lon="2.91329">
        <ele>910.51</ele>
        <time>2021-08-15T04:10:48Z</time>
      </trkpt>
      <trkpt lat="45.57729" lon="2.91324">
        <ele>910.03</ele>
        <time>2021-08-15T04:10:49Z</time>
      </trkpt>
      <trkpt lat="45.57731" lon="2.91319">
        <ele>909.54</ele>
        <time>2021-08-15T04:10:50Z</time>
      </trkpt>
      <trkpt lat="45.57732" lon="2.91314">
        <ele>909.06</ele>
        <time>2021-08-15T04:10:51Z</time>
      </trkpt>
      <trkpt lat="45.57733" lon="2.91309">
        <ele>909.06</ele>
        <time>2021-08-15T04:10:52Z</time>
      </trkpt>
      <trkpt lat="45.57733" lon="2.91305">
        <ele>909.06</ele>
        <time>2021-08-15T04:10:53Z</time>
      </trkpt>
      <trkpt lat="45.57732" lon="2.913">
        <ele>908.58</ele>
        <time>2021-08-15T04:10:54Z</time>
      </trkpt>
      <trkpt lat="45.57731" lon="2.91294">
        <ele>908.58</ele>
        <time>2021-08-15T04:10:55Z</time>
      </trkpt>
      <trkpt lat="45.57721" lon="2.91267">
        <ele>907.62</ele>
        <time>2021-08-15T04:11:02Z</time>
      </trkpt>
      <trkpt lat="45.57716" lon="2.91262">
        <ele>907.62</ele>
        <time>2021-08-15T04:11:05Z</time>
      </trkpt>
      <trkpt lat="45.57715" lon="2.91262">
        <ele>907.14</ele>
        <time>2021-08-15T04:11:06Z</time>
      </trkpt>
      <trkpt lat="45.57713" lon="2.91263">
        <ele>907.14</ele>
        <time>2021-08-15T04:11:07Z</time>
      </trkpt>
      <trkpt lat="45.57716" lon="2.91265">
        <ele>907.14</ele>
        <time>2021-08-15T04:11:11Z</time>
      </trkpt>
      <trkpt lat="45.57717" lon="2.91266">
        <ele>907.14</ele>
        <time>2021-08-15T04:11:12Z</time>
      </trkpt>
      <trkpt lat="45.57719" lon="2.91268">
        <ele>907.14</ele>
        <time>2021-08-15T04:11:14Z</time>
      </trkpt>
      <trkpt lat="45.57726" lon="2.91285">
        <ele>908.58</ele>
        <time>2021-08-15T04:11:22Z</time>
      </trkpt>
      <trkpt lat="45.57731" lon="2.91294">
        <ele>909.06</ele>
        <time>2021-08-15T04:11:26Z</time>
      </trkpt>
      <trkpt lat="45.57734" lon="2.91294">
        <ele>909.06</ele>
        <time>2021-08-15T04:11:29Z</time>
      </trkpt>
      <trkpt lat="45.57735" lon="2.91292">
        <ele>909.06</ele>
        <time>2021-08-15T04:11:30Z</time>
      </trkpt>
      <trkpt lat="45.57742" lon="2.91281">
        <ele>909.06</ele>
        <time>2021-08-15T04:11:37Z</time>
      </trkpt>
      <trkpt lat="45.57743" lon="2.91258">
        <ele>909.06</ele>
        <time>2021-08-15T04:11:43Z</time>
      </trkpt>
      <trkpt lat="45.57742" lon="2.91222">
        <ele>909.54</ele>
        <time>2021-08-15T04:11:54Z</time>
      </trkpt>
      <trkpt lat="45.57736" lon="2.91201">
        <ele>910.99</ele>
        <time>2021-08-15T04:12:03Z</time>
      </trkpt>
      <trkpt lat="45.57734" lon="2.91196">
        <ele>911.47</ele>
        <time>2021-08-15T04:12:05Z</time>
      </trkpt>
      <trkpt lat="45.57729" lon="2.91173">
        <ele>911.95</ele>
        <time>2021-08-15T04:12:14Z</time>
      </trkpt>
      <trkpt lat="45.57724" lon="2.91153">
        <ele>912.91</ele>
        <time>2021-08-15T04:12:22Z</time>
      </trkpt>
      <trkpt lat="45.5772" lon="2.9113">
        <ele>913.87</ele>
        <time>2021-08-15T04:12:32Z</time>
      </trkpt>
      <trkpt lat="45.57719" lon="2.91118">
        <ele>914.83</ele>
        <time>2021-08-15T04:12:39Z</time>
      </trkpt>
      <trkpt lat="45.57718" lon="2.91104">
        <ele>916.27</ele>
        <time>2021-08-15T04:12:48Z</time>
      </trkpt>
      <trkpt lat="45.57717" lon="2.9109">
        <ele>917.72</ele>
        <time>2021-08-15T04:12:57Z</time>
      </trkpt>
      <trkpt lat="45.57714" lon="2.91072">
        <ele>919.16</ele>
        <time>2021-08-15T04:13:08Z</time>
      </trkpt>
      <trkpt lat="45.57705" lon="2.91056">
        <ele>919.64</ele>
        <time>2021-08-15T04:13:17Z</time>
      </trkpt>
      <trkpt lat="45.5769" lon="2.91034">
        <ele>918.68</ele>
        <time>2021-08-15T04:13:24Z</time>
      </trkpt>
      <trkpt lat="45.57665" lon="2.91">
        <ele>917.72</ele>
        <time>2021-08-15T04:13:34Z</time>
      </trkpt>
      <trkpt lat="45.5765" lon="2.90979">
        <ele>917.72</ele>
        <time>2021-08-15T04:13:41Z</time>
      </trkpt>
      <trkpt lat="45.57627" lon="2.90949">
        <ele>918.68</ele>
        <time>2021-08-15T04:13:51Z</time>
      </trkpt>
      <trkpt lat="45.57612" lon="2.90927">
        <ele>919.16</ele>
        <time>2021-08-15T04:13:59Z</time>
      </trkpt>
      <trkpt lat="45.57604" lon="2.90914">
        <ele>917.24</ele>
        <time>2021-08-15T04:14:02Z</time>
      </trkpt>
      <trkpt lat="45.57585" lon="2.90887">
        <ele>914.35</ele>
        <time>2021-08-15T04:14:10Z</time>
      </trkpt>
      <trkpt lat="45.57566" lon="2.90859">
        <ele>911.47</ele>
        <time>2021-08-15T04:14:16Z</time>
      </trkpt>
      <trkpt lat="45.57552" lon="2.90841">
        <ele>908.58</ele>
        <time>2021-08-15T04:14:20Z</time>
      </trkpt>
      <trkpt lat="45.57536" lon="2.90821">
        <ele>904.74</ele>
        <time>2021-08-15T04:14:24Z</time>
      </trkpt>
      <trkpt lat="45.5752" lon="2.90801">
        <ele>899.93</ele>
        <time>2021-08-15T04:14:27Z</time>
      </trkpt>
      <trkpt lat="45.57508" lon="2.90787">
        <ele>896.57</ele>
        <time>2021-08-15T04:14:29Z</time>
      </trkpt>
      <trkpt lat="45.57498" lon="2.90775">
        <ele>895.61</ele>
        <time>2021-08-15T04:14:31Z</time>
      </trkpt>
      <trkpt lat="45.57494" lon="2.90773">
        <ele>894.64</ele>
        <time>2021-08-15T04:14:32Z</time>
      </trkpt>
      <trkpt lat="45.57489" lon="2.90774">
        <ele>894.16</ele>
        <time>2021-08-15T04:14:33Z</time>
      </trkpt>
      <trkpt lat="45.57484" lon="2.90777">
        <ele>893.68</ele>
        <time>2021-08-15T04:14:34Z</time>
      </trkpt>
      <trkpt lat="45.57478" lon="2.90784">
        <ele>893.2</ele>
        <time>2021-08-15T04:14:35Z</time>
      </trkpt>
      <trkpt lat="45.57473" lon="2.90791">
        <ele>892.24</ele>
        <time>2021-08-15T04:14:36Z</time>
      </trkpt>
      <trkpt lat="45.57467" lon="2.90799">
        <ele>891.76</ele>
        <time>2021-08-15T04:14:37Z</time>
      </trkpt>
      <trkpt lat="45.57461" lon="2.90808">
        <ele>891.76</ele>
        <time>2021-08-15T04:14:38Z</time>
      </trkpt>
      <trkpt lat="45.57424" lon="2.90863">
        <ele>889.84</ele>
        <time>2021-08-15T04:14:45Z</time>
      </trkpt>
      <trkpt lat="45.57417" lon="2.90875">
        <ele>888.88</ele>
        <time>2021-08-15T04:14:48Z</time>
      </trkpt>
      <trkpt lat="45.57415" lon="2.90876">
        <ele>888.88</ele>
        <time>2021-08-15T04:14:49Z</time>
      </trkpt>
      <trkpt lat="45.57413" lon="2.90875">
        <ele>888.88</ele>
        <time>2021-08-15T04:14:50Z</time>
      </trkpt>
      <trkpt lat="45.57411" lon="2.90872">
        <ele>889.36</ele>
        <time>2021-08-15T04:14:51Z</time>
      </trkpt>
      <trkpt lat="45.5741" lon="2.90869">
        <ele>889.36</ele>
        <time>2021-08-15T04:14:52Z</time>
      </trkpt>
      <trkpt lat="45.574" lon="2.90842">
        <ele>889.36</ele>
        <time>2021-08-15T04:14:58Z</time>
      </trkpt>
      <trkpt lat="45.57384" lon="2.90799">
        <ele>889.36</ele>
        <time>2021-08-15T04:15:06Z</time>
      </trkpt>
      <trkpt lat="45.57363" lon="2.90752">
        <ele>889.36</ele>
        <time>2021-08-15T04:15:15Z</time>
      </trkpt>
      <trkpt lat="45.57351" lon="2.90727">
        <ele>889.36</ele>
        <time>2021-08-15T04:15:20Z</time>
      </trkpt>
      <trkpt lat="45.57323" lon="2.90686">
        <ele>889.36</ele>
        <time>2021-08-15T04:15:29Z</time>
      </trkpt>
      <trkpt lat="45.57307" lon="2.90665">
        <ele>889.36</ele>
        <time>2021-08-15T04:15:34Z</time>
      </trkpt>
      <trkpt lat="45.57304" lon="2.90662">
        <ele>890.32</ele>
        <time>2021-08-15T04:15:35Z</time>
      </trkpt>
      <trkpt lat="45.57274" lon="2.9063">
        <ele>890.32</ele>
        <time>2021-08-15T04:15:44Z</time>
      </trkpt>
      <trkpt lat="45.57245" lon="2.90597">
        <ele>890.8</ele>
        <time>2021-08-15T04:15:53Z</time>
      </trkpt>
      <trkpt lat="45.57224" lon="2.90563">
        <ele>890.8</ele>
        <time>2021-08-15T04:16:01Z</time>
      </trkpt>
      <trkpt lat="45.57193" lon="2.90513">
        <ele>891.76</ele>
        <time>2021-08-15T04:16:13Z</time>
      </trkpt>
      <trkpt lat="45.57166" lon="2.90474">
        <ele>892.72</ele>
        <time>2021-08-15T04:16:23Z</time>
      </trkpt>
      <trkpt lat="45.57148" lon="2.90446">
        <ele>892.72</ele>
        <time>2021-08-15T04:16:30Z</time>
      </trkpt>
      <trkpt lat="45.57124" lon="2.90408">
        <ele>892.72</ele>
        <time>2021-08-15T04:16:39Z</time>
      </trkpt>
      <trkpt lat="45.571" lon="2.90367">
        <ele>893.2</ele>
        <time>2021-08-15T04:16:49Z</time>
      </trkpt>
      <trkpt lat="45.57087" lon="2.9033">
        <ele>893.68</ele>
        <time>2021-08-15T04:16:56Z</time>
      </trkpt>
      <trkpt lat="45.57078" lon="2.90276">
        <ele>894.16</ele>
        <time>2021-08-15T04:17:06Z</time>
      </trkpt>
      <trkpt lat="45.57066" lon="2.90221">
        <ele>894.16</ele>
        <time>2021-08-15T04:17:16Z</time>
      </trkpt>
      <trkpt lat="45.57058" lon="2.90166">
        <ele>894.64</ele>
        <time>2021-08-15T04:17:26Z</time>
      </trkpt>
      <trkpt lat="45.57058" lon="2.90108">
        <ele>895.12</ele>
        <time>2021-08-15T04:17:37Z</time>
      </trkpt>
      <trkpt lat="45.57062" lon="2.90064">
        <ele>896.09</ele>
        <time>2021-08-15T04:17:46Z</time>
      </trkpt>
      <trkpt lat="45.57062" lon="2.90036">
        <ele>896.57</ele>
        <time>2021-08-15T04:17:53Z</time>
      </trkpt>
      <trkpt lat="45.57061" lon="2.90035">
        <ele>897.05</ele>
        <time>2021-08-15T04:17:54Z</time>
      </trkpt>
      <trkpt lat="45.57059" lon="2.90033">
        <ele>897.05</ele>
        <time>2021-08-15T04:17:55Z</time>
      </trkpt>
      <trkpt lat="45.57058" lon="2.90033">
        <ele>897.05</ele>
        <time>2021-08-15T04:17:56Z</time>
      </trkpt>
      <trkpt lat="45.57056" lon="2.90033">
        <ele>897.05</ele>
        <time>2021-08-15T04:17:57Z</time>
      </trkpt>
      <trkpt lat="45.57054" lon="2.90033">
        <ele>897.05</ele>
        <time>2021-08-15T04:17:58Z</time>
      </trkpt>
      <trkpt lat="45.57052" lon="2.90034">
        <ele>897.05</ele>
        <time>2021-08-15T04:17:59Z</time>
      </trkpt>
      <trkpt lat="45.57049" lon="2.90035">
        <ele>897.05</ele>
        <time>2021-08-15T04:18:00Z</time>
      </trkpt>
      <trkpt lat="45.57046" lon="2.90037">
        <ele>897.05</ele>
        <time>2021-08-15T04:18:01Z</time>
      </trkpt>
      <trkpt lat="45.57025" lon="2.90049">
        <ele>897.05</ele>
        <time>2021-08-15T04:18:08Z</time>
      </trkpt>
      <trkpt lat="45.57012" lon="2.90063">
        <ele>897.05</ele>
        <time>2021-08-15T04:18:13Z</time>
      </trkpt>
      <trkpt lat="45.57005" lon="2.90078">
        <ele>897.05</ele>
        <time>2021-08-15T04:18:16Z</time>
      </trkpt>
      <trkpt lat="45.57003" lon="2.90084">
        <ele>897.05</ele>
        <time>2021-08-15T04:18:17Z</time>
      </trkpt>
      <trkpt lat="45.56999" lon="2.90096">
        <ele>897.05</ele>
        <time>2021-08-15T04:18:19Z</time>
      </trkpt>
      <trkpt lat="45.56998" lon="2.90102">
        <ele>897.05</ele>
        <time>2021-08-15T04:18:20Z</time>
      </trkpt>
      <trkpt lat="45.5699" lon="2.90151">
        <ele>897.05</ele>
        <time>2021-08-15T04:18:29Z</time>
      </trkpt>
      <trkpt lat="45.56983" lon="2.90214">
        <ele>897.05</ele>
        <time>2021-08-15T04:18:40Z</time>
      </trkpt>
      <trkpt lat="45.56983" lon="2.90227">
        <ele>895.61</ele>
        <time>2021-08-15T04:18:42Z</time>
      </trkpt>
      <trkpt lat="45.56982" lon="2.90246">
        <ele>895.61</ele>
        <time>2021-08-15T04:18:45Z</time>
      </trkpt>
      <trkpt lat="45.5698" lon="2.90266">
        <ele>895.61</ele>
        <time>2021-08-15T04:18:48Z</time>
      </trkpt>
      <trkpt lat="45.56979" lon="2.90331">
        <ele>894.64</ele>
        <time>2021-08-15T04:18:57Z</time>
      </trkpt>
      <trkpt lat="45.56975" lon="2.90439">
        <ele>893.68</ele>
        <time>2021-08-15T04:19:10Z</time>
      </trkpt>
      <trkpt lat="45.56973" lon="2.90533">
        <ele>893.68</ele>
        <time>2021-08-15T04:19:21Z</time>
      </trkpt>
      <trkpt lat="45.56974" lon="2.90611">
        <ele>893.68</ele>
        <time>2021-08-15T04:19:30Z</time>
      </trkpt>
      <trkpt lat="45.56968" lon="2.90695">
        <ele>892.72</ele>
        <time>2021-08-15T04:19:39Z</time>
      </trkpt>
      <trkpt lat="45.56959" lon="2.90776">
        <ele>892.24</ele>
        <time>2021-08-15T04:19:48Z</time>
      </trkpt>
      <trkpt lat="45.56958" lon="2.90802">
        <ele>892.24</ele>
        <time>2021-08-15T04:19:51Z</time>
      </trkpt>
      <trkpt lat="45.56957" lon="2.90809">
        <ele>892.24</ele>
        <time>2021-08-15T04:19:52Z</time>
      </trkpt>
      <trkpt lat="45.56955" lon="2.90816">
        <ele>892.24</ele>
        <time>2021-08-15T04:19:53Z</time>
      </trkpt>
      <trkpt lat="45.56947" lon="2.90849">
        <ele>892.24</ele>
        <time>2021-08-15T04:19:58Z</time>
      </trkpt>
      <trkpt lat="45.56945" lon="2.9089">
        <ele>890.8</ele>
        <time>2021-08-15T04:20:03Z</time>
      </trkpt>
      <trkpt lat="45.56942" lon="2.90906">
        <ele>890.8</ele>
        <time>2021-08-15T04:20:05Z</time>
      </trkpt>
      <trkpt lat="45.56936" lon="2.90927">
        <ele>890.8</ele>
        <time>2021-08-15T04:20:08Z</time>
      </trkpt>
      <trkpt lat="45.56908" lon="2.90985">
        <ele>890.32</ele>
        <time>2021-08-15T04:20:17Z</time>
      </trkpt>
      <trkpt lat="45.56904" lon="2.9099">
        <ele>890.32</ele>
        <time>2021-08-15T04:20:18Z</time>
      </trkpt>
      <trkpt lat="45.5689" lon="2.91005">
        <ele>890.32</ele>
        <time>2021-08-15T04:20:21Z</time>
      </trkpt>
      <trkpt lat="45.56843" lon="2.91045">
        <ele>890.32</ele>
        <time>2021-08-15T04:20:31Z</time>
      </trkpt>
      <trkpt lat="45.56838" lon="2.9105">
        <ele>890.32</ele>
        <time>2021-08-15T04:20:32Z</time>
      </trkpt>
      <trkpt lat="45.56835" lon="2.91055">
        <ele>890.32</ele>
        <time>2021-08-15T04:20:33Z</time>
      </trkpt>
      <trkpt lat="45.56832" lon="2.91062">
        <ele>890.32</ele>
        <time>2021-08-15T04:20:34Z</time>
      </trkpt>
      <trkpt lat="45.56829" lon="2.91069">
        <ele>889.84</ele>
        <time>2021-08-15T04:20:35Z</time>
      </trkpt>
      <trkpt lat="45.56814" lon="2.9111">
        <ele>889.84</ele>
        <time>2021-08-15T04:20:41Z</time>
      </trkpt>
      <trkpt lat="45.56794" lon="2.91184">
        <ele>889.36</ele>
        <time>2021-08-15T04:20:52Z</time>
      </trkpt>
      <trkpt lat="45.56784" lon="2.9123">
        <ele>889.36</ele>
        <time>2021-08-15T04:21:00Z</time>
      </trkpt>
      <trkpt lat="45.56779" lon="2.91251">
        <ele>889.36</ele>
        <time>2021-08-15T04:21:06Z</time>
      </trkpt>
      <trkpt lat="45.56779" lon="2.91257">
        <ele>889.36</ele>
        <time>2021-08-15T04:21:08Z</time>
      </trkpt>
      <trkpt lat="45.5678" lon="2.9126">
        <ele>889.36</ele>
        <time>2021-08-15T04:21:09Z</time>
      </trkpt>
      <trkpt lat="45.56782" lon="2.91263">
        <ele>889.36</ele>
        <time>2021-08-15T04:21:10Z</time>
      </trkpt>
      <trkpt lat="45.56785" lon="2.91265">
        <ele>890.8</ele>
        <time>2021-08-15T04:21:11Z</time>
      </trkpt>
      <trkpt lat="45.56786" lon="2.91267">
        <ele>890.8</ele>
        <time>2021-08-15T04:21:12Z</time>
      </trkpt>
      <trkpt lat="45.56787" lon="2.9127">
        <ele>890.8</ele>
        <time>2021-08-15T04:21:13Z</time>
      </trkpt>
      <trkpt lat="45.56787" lon="2.91274">
        <ele>890.8</ele>
        <time>2021-08-15T04:21:14Z</time>
      </trkpt>
      <trkpt lat="45.56787" lon="2.91278">
        <ele>890.8</ele>
        <time>2021-08-15T04:21:15Z</time>
      </trkpt>
      <trkpt lat="45.56788" lon="2.91303">
        <ele>890.8</ele>
        <time>2021-08-15T04:21:22Z</time>
      </trkpt>
      <trkpt lat="45.56788" lon="2.9134">
        <ele>890.8</ele>
        <time>2021-08-15T04:21:30Z</time>
      </trkpt>
      <trkpt lat="45.56786" lon="2.91388">
        <ele>888.88</ele>
        <time>2021-08-15T04:21:37Z</time>
      </trkpt>
      <trkpt lat="45.56786" lon="2.91395">
        <ele>888.88</ele>
        <time>2021-08-15T04:21:38Z</time>
      </trkpt>
      <trkpt lat="45.56783" lon="2.91459">
        <ele>888.4</ele>
        <time>2021-08-15T04:21:47Z</time>
      </trkpt>
      <trkpt lat="45.56783" lon="2.91513">
        <ele>888.4</ele>
        <time>2021-08-15T04:21:56Z</time>
      </trkpt>
      <trkpt lat="45.56783" lon="2.91519">
        <ele>888.4</ele>
        <time>2021-08-15T04:21:57Z</time>
      </trkpt>
      <trkpt lat="45.56778" lon="2.91541">
        <ele>888.4</ele>
        <time>2021-08-15T04:22:02Z</time>
      </trkpt>
      <trkpt lat="45.56777" lon="2.91543">
        <ele>888.4</ele>
        <time>2021-08-15T04:22:03Z</time>
      </trkpt>
      <trkpt lat="45.56776" lon="2.91544">
        <ele>888.4</ele>
        <time>2021-08-15T04:22:04Z</time>
      </trkpt>
      <trkpt lat="45.56775" lon="2.91544">
        <ele>888.4</ele>
        <time>2021-08-15T04:22:05Z</time>
      </trkpt>
      <trkpt lat="45.56773" lon="2.91545">
        <ele>888.4</ele>
        <time>2021-08-15T04:22:06Z</time>
      </trkpt>
      <trkpt lat="45.56772" lon="2.91547">
        <ele>888.4</ele>
        <time>2021-08-15T04:22:07Z</time>
      </trkpt>
      <trkpt lat="45.56771" lon="2.91549">
        <ele>888.4</ele>
        <time>2021-08-15T04:22:08Z</time>
      </trkpt>
      <trkpt lat="45.5677" lon="2.91553">
        <ele>888.4</ele>
        <time>2021-08-15T04:22:09Z</time>
      </trkpt>
      <trkpt lat="45.56769" lon="2.91557">
        <ele>888.4</ele>
        <time>2021-08-15T04:22:10Z</time>
      </trkpt>
      <trkpt lat="45.56768" lon="2.91561">
        <ele>888.4</ele>
        <time>2021-08-15T04:22:11Z</time>
      </trkpt>
      <trkpt lat="45.56761" lon="2.91592">
        <ele>888.4</ele>
        <time>2021-08-15T04:22:17Z</time>
      </trkpt>
      <trkpt lat="45.56758" lon="2.9162">
        <ele>888.4</ele>
        <time>2021-08-15T04:22:22Z</time>
      </trkpt>
      <trkpt lat="45.56758" lon="2.91655">
        <ele>888.4</ele>
        <time>2021-08-15T04:22:28Z</time>
      </trkpt>
      <trkpt lat="45.56761" lon="2.91683">
        <ele>889.84</ele>
        <time>2021-08-15T04:22:34Z</time>
      </trkpt>
      <trkpt lat="45.56761" lon="2.91687">
        <ele>889.84</ele>
        <time>2021-08-15T04:22:35Z</time>
      </trkpt>
      <trkpt lat="45.56766" lon="2.91713">
        <ele>889.84</ele>
        <time>2021-08-15T04:22:41Z</time>
      </trkpt>
      <trkpt lat="45.5677" lon="2.91741">
        <ele>888.4</ele>
        <time>2021-08-15T04:22:45Z</time>
      </trkpt>
      <trkpt lat="45.56771" lon="2.91748">
        <ele>887.91</ele>
        <time>2021-08-15T04:22:46Z</time>
      </trkpt>
      <trkpt lat="45.56771" lon="2.91755">
        <ele>887.91</ele>
        <time>2021-08-15T04:22:47Z</time>
      </trkpt>
      <trkpt lat="45.56773" lon="2.91769">
        <ele>887.43</ele>
        <time>2021-08-15T04:22:49Z</time>
      </trkpt>
      <trkpt lat="45.56778" lon="2.9181">
        <ele>887.43</ele>
        <time>2021-08-15T04:22:56Z</time>
      </trkpt>
      <trkpt lat="45.56776" lon="2.91841">
        <ele>887.43</ele>
        <time>2021-08-15T04:23:01Z</time>
      </trkpt>
      <trkpt lat="45.56772" lon="2.91862">
        <ele>887.43</ele>
        <time>2021-08-15T04:23:04Z</time>
      </trkpt>
      <trkpt lat="45.56766" lon="2.9192">
        <ele>886.95</ele>
        <time>2021-08-15T04:23:12Z</time>
      </trkpt>
      <trkpt lat="45.56764" lon="2.91948">
        <ele>886.95</ele>
        <time>2021-08-15T04:23:16Z</time>
      </trkpt>
      <trkpt lat="45.56763" lon="2.91954">
        <ele>886.95</ele>
        <time>2021-08-15T04:23:17Z</time>
      </trkpt>
      <trkpt lat="45.56761" lon="2.91961">
        <ele>886.95</ele>
        <time>2021-08-15T04:23:18Z</time>
      </trkpt>
      <trkpt lat="45.56755" lon="2.91976">
        <ele>886.95</ele>
        <time>2021-08-15T04:23:21Z</time>
      </trkpt>
      <trkpt lat="45.56748" lon="2.91992">
        <ele>886.47</ele>
        <time>2021-08-15T04:23:24Z</time>
      </trkpt>
      <trkpt lat="45.56746" lon="2.91999">
        <ele>886.47</ele>
        <time>2021-08-15T04:23:25Z</time>
      </trkpt>
      <trkpt lat="45.56745" lon="2.92005">
        <ele>886.47</ele>
        <time>2021-08-15T04:23:26Z</time>
      </trkpt>
      <trkpt lat="45.5674" lon="2.92053">
        <ele>886.47</ele>
        <time>2021-08-15T04:23:33Z</time>
      </trkpt>
      <trkpt lat="45.56736" lon="2.92092">
        <ele>886.47</ele>
        <time>2021-08-15T04:23:39Z</time>
      </trkpt>
      <trkpt lat="45.56727" lon="2.92133">
        <ele>886.47</ele>
        <time>2021-08-15T04:23:46Z</time>
      </trkpt>
      <trkpt lat="45.56722" lon="2.92143">
        <ele>886.47</ele>
        <time>2021-08-15T04:23:48Z</time>
      </trkpt>
      <trkpt lat="45.5672" lon="2.9215">
        <ele>886.47</ele>
        <time>2021-08-15T04:23:49Z</time>
      </trkpt>
      <trkpt lat="45.56718" lon="2.92157">
        <ele>886.47</ele>
        <time>2021-08-15T04:23:50Z</time>
      </trkpt>
      <trkpt lat="45.56716" lon="2.92164">
        <ele>886.47</ele>
        <time>2021-08-15T04:23:51Z</time>
      </trkpt>
      <trkpt lat="45.56714" lon="2.9217">
        <ele>886.47</ele>
        <time>2021-08-15T04:23:52Z</time>
      </trkpt>
      <trkpt lat="45.56709" lon="2.92213">
        <ele>886.47</ele>
        <time>2021-08-15T04:23:58Z</time>
      </trkpt>
      <trkpt lat="45.5671" lon="2.92221">
        <ele>886.47</ele>
        <time>2021-08-15T04:23:59Z</time>
      </trkpt>
      <trkpt lat="45.56711" lon="2.92235">
        <ele>886.47</ele>
        <time>2021-08-15T04:24:01Z</time>
      </trkpt>
      <trkpt lat="45.56712" lon="2.92242">
        <ele>886.47</ele>
        <time>2021-08-15T04:24:02Z</time>
      </trkpt>
      <trkpt lat="45.56713" lon="2.92248">
        <ele>886.47</ele>
        <time>2021-08-15T04:24:03Z</time>
      </trkpt>
      <trkpt lat="45.56715" lon="2.92254">
        <ele>886.47</ele>
        <time>2021-08-15T04:24:04Z</time>
      </trkpt>
      <trkpt lat="45.56718" lon="2.92261">
        <ele>886.47</ele>
        <time>2021-08-15T04:24:05Z</time>
      </trkpt>
      <trkpt lat="45.5672" lon="2.92266">
        <ele>886.47</ele>
        <time>2021-08-15T04:24:06Z</time>
      </trkpt>
      <trkpt lat="45.56729" lon="2.92291">
        <ele>886.47</ele>
        <time>2021-08-15T04:24:10Z</time>
      </trkpt>
      <trkpt lat="45.56738" lon="2.92316">
        <ele>886.47</ele>
        <time>2021-08-15T04:24:14Z</time>
      </trkpt>
      <trkpt lat="45.56749" lon="2.9234">
        <ele>886.47</ele>
        <time>2021-08-15T04:24:18Z</time>
      </trkpt>
      <trkpt lat="45.56761" lon="2.9238">
        <ele>886.47</ele>
        <time>2021-08-15T04:24:24Z</time>
      </trkpt>
      <trkpt lat="45.56762" lon="2.92387">
        <ele>886.47</ele>
        <time>2021-08-15T04:24:25Z</time>
      </trkpt>
      <trkpt lat="45.56768" lon="2.92427">
        <ele>886.47</ele>
        <time>2021-08-15T04:24:32Z</time>
      </trkpt>
      <trkpt lat="45.5677" lon="2.92442">
        <ele>886.47</ele>
        <time>2021-08-15T04:24:34Z</time>
      </trkpt>
      <trkpt lat="45.56769" lon="2.92448">
        <ele>886.47</ele>
        <time>2021-08-15T04:24:35Z</time>
      </trkpt>
      <trkpt lat="45.56769" lon="2.92455">
        <ele>886.47</ele>
        <time>2021-08-15T04:24:36Z</time>
      </trkpt>
      <trkpt lat="45.56764" lon="2.92503">
        <ele>886.47</ele>
        <time>2021-08-15T04:24:43Z</time>
      </trkpt>
      <trkpt lat="45.56763" lon="2.92522">
        <ele>886.95</ele>
        <time>2021-08-15T04:24:46Z</time>
      </trkpt>
      <trkpt lat="45.56763" lon="2.9253">
        <ele>886.47</ele>
        <time>2021-08-15T04:24:47Z</time>
      </trkpt>
      <trkpt lat="45.56763" lon="2.9259">
        <ele>886.95</ele>
        <time>2021-08-15T04:24:56Z</time>
      </trkpt>
      <trkpt lat="45.56762" lon="2.92604">
        <ele>886.95</ele>
        <time>2021-08-15T04:24:58Z</time>
      </trkpt>
      <trkpt lat="45.56761" lon="2.92631">
        <ele>886.95</ele>
        <time>2021-08-15T04:25:02Z</time>
      </trkpt>
      <trkpt lat="45.56761" lon="2.92638">
        <ele>886.95</ele>
        <time>2021-08-15T04:25:03Z</time>
      </trkpt>
      <trkpt lat="45.56762" lon="2.92691">
        <ele>886.95</ele>
        <time>2021-08-15T04:25:11Z</time>
      </trkpt>
      <trkpt lat="45.56761" lon="2.92697">
        <ele>886.95</ele>
        <time>2021-08-15T04:25:12Z</time>
      </trkpt>
      <trkpt lat="45.56762" lon="2.92704">
        <ele>886.95</ele>
        <time>2021-08-15T04:25:13Z</time>
      </trkpt>
      <trkpt lat="45.56762" lon="2.92711">
        <ele>886.95</ele>
        <time>2021-08-15T04:25:14Z</time>
      </trkpt>
      <trkpt lat="45.56762" lon="2.92718">
        <ele>886.95</ele>
        <time>2021-08-15T04:25:15Z</time>
      </trkpt>
      <trkpt lat="45.56763" lon="2.92731">
        <ele>886.95</ele>
        <time>2021-08-15T04:25:17Z</time>
      </trkpt>
      <trkpt lat="45.56765" lon="2.92752">
        <ele>886.95</ele>
        <time>2021-08-15T04:25:20Z</time>
      </trkpt>
      <trkpt lat="45.56765" lon="2.92758">
        <ele>886.95</ele>
        <time>2021-08-15T04:25:21Z</time>
      </trkpt>
      <trkpt lat="45.56765" lon="2.92765">
        <ele>886.95</ele>
        <time>2021-08-15T04:25:22Z</time>
      </trkpt>
      <trkpt lat="45.56765" lon="2.92771">
        <ele>886.95</ele>
        <time>2021-08-15T04:25:23Z</time>
      </trkpt>
      <trkpt lat="45.56765" lon="2.92778">
        <ele>886.95</ele>
        <time>2021-08-15T04:25:24Z</time>
      </trkpt>
      <trkpt lat="45.56771" lon="2.92825">
        <ele>886.47</ele>
        <time>2021-08-15T04:25:31Z</time>
      </trkpt>
      <trkpt lat="45.56773" lon="2.92831">
        <ele>886.47</ele>
        <time>2021-08-15T04:25:32Z</time>
      </trkpt>
      <trkpt lat="45.56787" lon="2.92864">
        <ele>886.47</ele>
        <time>2021-08-15T04:25:39Z</time>
      </trkpt>
      <trkpt lat="45.56791" lon="2.92891">
        <ele>886.47</ele>
        <time>2021-08-15T04:25:46Z</time>
      </trkpt>
      <trkpt lat="45.56787" lon="2.9291">
        <ele>886.47</ele>
        <time>2021-08-15T04:25:52Z</time>
      </trkpt>
      <trkpt lat="45.56783" lon="2.92932">
        <ele>886.47</ele>
        <time>2021-08-15T04:25:58Z</time>
      </trkpt>
      <trkpt lat="45.56779" lon="2.92956">
        <ele>885.99</ele>
        <time>2021-08-15T04:26:05Z</time>
      </trkpt>
      <trkpt lat="45.56779" lon="2.92959">
        <ele>886.47</ele>
        <time>2021-08-15T04:26:07Z</time>
      </trkpt>
      <trkpt lat="45.56779" lon="2.92961">
        <ele>886.47</ele>
        <time>2021-08-15T04:26:08Z</time>
      </trkpt>
      <trkpt lat="45.56779" lon="2.92963">
        <ele>886.47</ele>
        <time>2021-08-15T04:26:09Z</time>
      </trkpt>
      <trkpt lat="45.56779" lon="2.92964">
        <ele>886.47</ele>
        <time>2021-08-15T04:26:10Z</time>
      </trkpt>
      <trkpt lat="45.56779" lon="2.92966">
        <ele>886.47</ele>
        <time>2021-08-15T04:26:11Z</time>
      </trkpt>
      <trkpt lat="45.56779" lon="2.92969">
        <ele>886.47</ele>
        <time>2021-08-15T04:26:12Z</time>
      </trkpt>
      <trkpt lat="45.5678" lon="2.92972">
        <ele>886.47</ele>
        <time>2021-08-15T04:26:13Z</time>
      </trkpt>
      <trkpt lat="45.56781" lon="2.92975">
        <ele>886.47</ele>
        <time>2021-08-15T04:26:14Z</time>
      </trkpt>
      <trkpt lat="45.56782" lon="2.92979">
        <ele>886.47</ele>
        <time>2021-08-15T04:26:15Z</time>
      </trkpt>
      <trkpt lat="45.56783" lon="2.92983">
        <ele>886.47</ele>
        <time>2021-08-15T04:26:16Z</time>
      </trkpt>
      <trkpt lat="45.56784" lon="2.92988">
        <ele>886.47</ele>
        <time>2021-08-15T04:26:17Z</time>
      </trkpt>
      <trkpt lat="45.56784" lon="2.92993">
        <ele>886.47</ele>
        <time>2021-08-15T04:26:18Z</time>
      </trkpt>
      <trkpt lat="45.56785" lon="2.92997">
        <ele>886.47</ele>
        <time>2021-08-15T04:26:19Z</time>
      </trkpt>
      <trkpt lat="45.56786" lon="2.93003">
        <ele>886.47</ele>
        <time>2021-08-15T04:26:20Z</time>
      </trkpt>
      <trkpt lat="45.56781" lon="2.93032">
        <ele>886.47</ele>
        <time>2021-08-15T04:26:26Z</time>
      </trkpt>
      <trkpt lat="45.56778" lon="2.93049">
        <ele>887.43</ele>
        <time>2021-08-15T04:26:33Z</time>
      </trkpt>
      <trkpt lat="45.56775" lon="2.93061">
        <ele>887.91</ele>
        <time>2021-08-15T04:26:38Z</time>
      </trkpt>
      <trkpt lat="45.56775" lon="2.93064">
        <ele>887.91</ele>
        <time>2021-08-15T04:26:39Z</time>
      </trkpt>
      <trkpt lat="45.56775" lon="2.93066">
        <ele>887.91</ele>
        <time>2021-08-15T04:26:40Z</time>
      </trkpt>
      <trkpt lat="45.56775" lon="2.93069">
        <ele>888.88</ele>
        <time>2021-08-15T04:26:41Z</time>
      </trkpt>
      <trkpt lat="45.56775" lon="2.93071">
        <ele>888.88</ele>
        <time>2021-08-15T04:26:42Z</time>
      </trkpt>
      <trkpt lat="45.56775" lon="2.93074">
        <ele>888.88</ele>
        <time>2021-08-15T04:26:43Z</time>
      </trkpt>
      <trkpt lat="45.56775" lon="2.93076">
        <ele>888.88</ele>
        <time>2021-08-15T04:26:44Z</time>
      </trkpt>
      <trkpt lat="45.56775" lon="2.93078">
        <ele>888.88</ele>
        <time>2021-08-15T04:26:45Z</time>
      </trkpt>
      <trkpt lat="45.56776" lon="2.93081">
        <ele>888.88</ele>
        <time>2021-08-15T04:26:46Z</time>
      </trkpt>
      <trkpt lat="45.56777" lon="2.93084">
        <ele>889.36</ele>
        <time>2021-08-15T04:26:47Z</time>
      </trkpt>
      <trkpt lat="45.56777" lon="2.93086">
        <ele>889.84</ele>
        <time>2021-08-15T04:26:48Z</time>
      </trkpt>
      <trkpt lat="45.56778" lon="2.93089">
        <ele>889.84</ele>
        <time>2021-08-15T04:26:49Z</time>
      </trkpt>
      <trkpt lat="45.56778" lon="2.93092">
        <ele>889.84</ele>
        <time>2021-08-15T04:26:50Z</time>
      </trkpt>
      <trkpt lat="45.56779" lon="2.93095">
        <ele>889.84</ele>
        <time>2021-08-15T04:26:51Z</time>
      </trkpt>
      <trkpt lat="45.5678" lon="2.93111">
        <ele>890.8</ele>
        <time>2021-08-15T04:26:58Z</time>
      </trkpt>
      <trkpt lat="45.56784" lon="2.93127">
        <ele>891.76</ele>
        <time>2021-08-15T04:27:06Z</time>
      </trkpt>
      <trkpt lat="45.56788" lon="2.93141">
        <ele>892.72</ele>
        <time>2021-08-15T04:27:13Z</time>
      </trkpt>
      <trkpt lat="45.56792" lon="2.93154">
        <ele>893.68</ele>
        <time>2021-08-15T04:27:19Z</time>
      </trkpt>
      <trkpt lat="45.56793" lon="2.93163">
        <ele>893.68</ele>
        <time>2021-08-15T04:27:23Z</time>
      </trkpt>
      <trkpt lat="45.56799" lon="2.93183">
        <ele>895.12</ele>
        <time>2021-08-15T04:27:32Z</time>
      </trkpt>
      <trkpt lat="45.56805" lon="2.93204">
        <ele>895.61</ele>
        <time>2021-08-15T04:27:42Z</time>
      </trkpt>
      <trkpt lat="45.56809" lon="2.93222">
        <ele>897.05</ele>
        <time>2021-08-15T04:27:51Z</time>
      </trkpt>
      <trkpt lat="45.56809" lon="2.93224">
        <ele>897.05</ele>
        <time>2021-08-15T04:27:52Z</time>
      </trkpt>
      <trkpt lat="45.56809" lon="2.93226">
        <ele>897.05</ele>
        <time>2021-08-15T04:27:53Z</time>
      </trkpt>
      <trkpt lat="45.56809" lon="2.93228">
        <ele>897.05</ele>
        <time>2021-08-15T04:27:54Z</time>
      </trkpt>
      <trkpt lat="45.56813" lon="2.93247">
        <ele>898.49</ele>
        <time>2021-08-15T04:28:04Z</time>
      </trkpt>
      <trkpt lat="45.56815" lon="2.93263">
        <ele>899.45</ele>
        <time>2021-08-15T04:28:12Z</time>
      </trkpt>
      <trkpt lat="45.56814" lon="2.93279">
        <ele>900.89</ele>
        <time>2021-08-15T04:28:20Z</time>
      </trkpt>
      <trkpt lat="45.56814" lon="2.93295">
        <ele>902.82</ele>
        <time>2021-08-15T04:28:30Z</time>
      </trkpt>
      <trkpt lat="45.56815" lon="2.93312">
        <ele>903.78</ele>
        <time>2021-08-15T04:28:37Z</time>
      </trkpt>
      <trkpt lat="45.56816" lon="2.93334">
        <ele>905.22</ele>
        <time>2021-08-15T04:28:47Z</time>
      </trkpt>
      <trkpt lat="45.56814" lon="2.93347">
        <ele>905.7</ele>
        <time>2021-08-15T04:28:54Z</time>
      </trkpt>
      <trkpt lat="45.56814" lon="2.93349">
        <ele>905.7</ele>
        <time>2021-08-15T04:28:55Z</time>
      </trkpt>
      <trkpt lat="45.56813" lon="2.93351">
        <ele>905.7</ele>
        <time>2021-08-15T04:28:56Z</time>
      </trkpt>
      <trkpt lat="45.56812" lon="2.93373">
        <ele>907.14</ele>
        <time>2021-08-15T04:29:07Z</time>
      </trkpt>
      <trkpt lat="45.56808" lon="2.93399">
        <ele>908.1</ele>
        <time>2021-08-15T04:29:19Z</time>
      </trkpt>
      <trkpt lat="45.56807" lon="2.93408">
        <ele>909.06</ele>
        <time>2021-08-15T04:29:23Z</time>
      </trkpt>
      <trkpt lat="45.56807" lon="2.93411">
        <ele>909.54</ele>
        <time>2021-08-15T04:29:24Z</time>
      </trkpt>
      <trkpt lat="45.56807" lon="2.93413">
        <ele>909.54</ele>
        <time>2021-08-15T04:29:25Z</time>
      </trkpt>
      <trkpt lat="45.56807" lon="2.93415">
        <ele>909.54</ele>
        <time>2021-08-15T04:29:26Z</time>
      </trkpt>
      <trkpt lat="45.56808" lon="2.93418">
        <ele>909.54</ele>
        <time>2021-08-15T04:29:27Z</time>
      </trkpt>
      <trkpt lat="45.56812" lon="2.9344">
        <ele>910.99</ele>
        <time>2021-08-15T04:29:37Z</time>
      </trkpt>
      <trkpt lat="45.56813" lon="2.93448">
        <ele>910.99</ele>
        <time>2021-08-15T04:29:40Z</time>
      </trkpt>
      <trkpt lat="45.56814" lon="2.93451">
        <ele>910.99</ele>
        <time>2021-08-15T04:29:41Z</time>
      </trkpt>
      <trkpt lat="45.56814" lon="2.93454">
        <ele>910.99</ele>
        <time>2021-08-15T04:29:42Z</time>
      </trkpt>
      <trkpt lat="45.5682" lon="2.93489">
        <ele>910.99</ele>
        <time>2021-08-15T04:29:52Z</time>
      </trkpt>
      <trkpt lat="45.56823" lon="2.93517">
        <ele>910.99</ele>
        <time>2021-08-15T04:29:59Z</time>
      </trkpt>
      <trkpt lat="45.56824" lon="2.93538">
        <ele>909.06</ele>
        <time>2021-08-15T04:30:03Z</time>
      </trkpt>
      <trkpt lat="45.56825" lon="2.93585">
        <ele>905.7</ele>
        <time>2021-08-15T04:30:08Z</time>
      </trkpt>
      <trkpt lat="45.56828" lon="2.93633">
        <ele>902.33</ele>
        <time>2021-08-15T04:30:12Z</time>
      </trkpt>
      <trkpt lat="45.56833" lon="2.93673">
        <ele>898.97</ele>
        <time>2021-08-15T04:30:15Z</time>
      </trkpt>
      <trkpt lat="45.56839" lon="2.93726">
        <ele>896.09</ele>
        <time>2021-08-15T04:30:19Z</time>
      </trkpt>
      <trkpt lat="45.56843" lon="2.93739">
        <ele>895.12</ele>
        <time>2021-08-15T04:30:20Z</time>
      </trkpt>
      <trkpt lat="45.56856" lon="2.93789">
        <ele>892.24</ele>
        <time>2021-08-15T04:30:24Z</time>
      </trkpt>
      <trkpt lat="45.56867" lon="2.93829">
        <ele>888.88</ele>
        <time>2021-08-15T04:30:28Z</time>
      </trkpt>
      <trkpt lat="45.56868" lon="2.93836">
        <ele>888.88</ele>
        <time>2021-08-15T04:30:29Z</time>
      </trkpt>
      <trkpt lat="45.56868" lon="2.93842">
        <ele>887.91</ele>
        <time>2021-08-15T04:30:30Z</time>
      </trkpt>
      <trkpt lat="45.56865" lon="2.93845">
        <ele>887.91</ele>
        <time>2021-08-15T04:30:31Z</time>
      </trkpt>
      <trkpt lat="45.56862" lon="2.93844">
        <ele>887.91</ele>
        <time>2021-08-15T04:30:32Z</time>
      </trkpt>
      <trkpt lat="45.5686" lon="2.93843">
        <ele>887.91</ele>
        <time>2021-08-15T04:30:33Z</time>
      </trkpt>
      <trkpt lat="45.56858" lon="2.9384">
        <ele>887.43</ele>
        <time>2021-08-15T04:30:34Z</time>
      </trkpt>
      <trkpt lat="45.56856" lon="2.93837">
        <ele>886.95</ele>
        <time>2021-08-15T04:30:35Z</time>
      </trkpt>
      <trkpt lat="45.56854" lon="2.93834">
        <ele>887.43</ele>
        <time>2021-08-15T04:30:36Z</time>
      </trkpt>
      <trkpt lat="45.56852" lon="2.93831">
        <ele>886.95</ele>
        <time>2021-08-15T04:30:37Z</time>
      </trkpt>
      <trkpt lat="45.56833" lon="2.93808">
        <ele>888.88</ele>
        <time>2021-08-15T04:30:46Z</time>
      </trkpt>
      <trkpt lat="45.56819" lon="2.9379">
        <ele>889.84</ele>
        <time>2021-08-15T04:30:54Z</time>
      </trkpt>
      <trkpt lat="45.56806" lon="2.93769">
        <ele>890.8</ele>
        <time>2021-08-15T04:31:03Z</time>
      </trkpt>
      <trkpt lat="45.56794" lon="2.93744">
        <ele>892.72</ele>
        <time>2021-08-15T04:31:13Z</time>
      </trkpt>
      <trkpt lat="45.56785" lon="2.93724">
        <ele>894.64</ele>
        <time>2021-08-15T04:31:22Z</time>
      </trkpt>
      <trkpt lat="45.56775" lon="2.93702">
        <ele>895.61</ele>
        <time>2021-08-15T04:31:32Z</time>
      </trkpt>
      <trkpt lat="45.56764" lon="2.93678">
        <ele>897.05</ele>
        <time>2021-08-15T04:31:43Z</time>
      </trkpt>
      <trkpt lat="45.56757" lon="2.93661">
        <ele>898.01</ele>
        <time>2021-08-15T04:31:52Z</time>
      </trkpt>
      <trkpt lat="45.56752" lon="2.93644">
        <ele>898.97</ele>
        <time>2021-08-15T04:32:00Z</time>
      </trkpt>
      <trkpt lat="45.56748" lon="2.93626">
        <ele>899.93</ele>
        <time>2021-08-15T04:32:08Z</time>
      </trkpt>
      <trkpt lat="45.56746" lon="2.93617">
        <ele>900.41</ele>
        <time>2021-08-15T04:32:12Z</time>
      </trkpt>
      <trkpt lat="45.56745" lon="2.93614">
        <ele>900.41</ele>
        <time>2021-08-15T04:32:13Z</time>
      </trkpt>
      <trkpt lat="45.56745" lon="2.93612">
        <ele>900.41</ele>
        <time>2021-08-15T04:32:14Z</time>
      </trkpt>
      <trkpt lat="45.56742" lon="2.93606">
        <ele>900.89</ele>
        <time>2021-08-15T04:32:17Z</time>
      </trkpt>
      <trkpt lat="45.56741" lon="2.93604">
        <ele>901.37</ele>
        <time>2021-08-15T04:32:18Z</time>
      </trkpt>
      <trkpt lat="45.56736" lon="2.93579">
        <ele>902.82</ele>
        <time>2021-08-15T04:32:30Z</time>
      </trkpt>
      <trkpt lat="45.56732" lon="2.93563">
        <ele>904.74</ele>
        <time>2021-08-15T04:32:39Z</time>
      </trkpt>
      <trkpt lat="45.56729" lon="2.93549">
        <ele>905.22</ele>
        <time>2021-08-15T04:32:47Z</time>
      </trkpt>
      <trkpt lat="45.56723" lon="2.9353">
        <ele>906.66</ele>
        <time>2021-08-15T04:32:57Z</time>
      </trkpt>
      <trkpt lat="45.56721" lon="2.93516">
        <ele>907.62</ele>
        <time>2021-08-15T04:33:04Z</time>
      </trkpt>
      <trkpt lat="45.56716" lon="2.93504">
        <ele>909.06</ele>
        <time>2021-08-15T04:33:12Z</time>
      </trkpt>
      <trkpt lat="45.56714" lon="2.93504">
        <ele>909.06</ele>
        <time>2021-08-15T04:33:13Z</time>
      </trkpt>
      <trkpt lat="45.56713" lon="2.93504">
        <ele>909.06</ele>
        <time>2021-08-15T04:33:14Z</time>
      </trkpt>
      <trkpt lat="45.56711" lon="2.93504">
        <ele>909.06</ele>
        <time>2021-08-15T04:33:15Z</time>
      </trkpt>
      <trkpt lat="45.5671" lon="2.93505">
        <ele>909.06</ele>
        <time>2021-08-15T04:33:16Z</time>
      </trkpt>
      <trkpt lat="45.56709" lon="2.93506">
        <ele>909.06</ele>
        <time>2021-08-15T04:33:17Z</time>
      </trkpt>
      <trkpt lat="45.56707" lon="2.93506">
        <ele>909.06</ele>
        <time>2021-08-15T04:33:18Z</time>
      </trkpt>
      <trkpt lat="45.56696" lon="2.93514">
        <ele>909.06</ele>
        <time>2021-08-15T04:33:24Z</time>
      </trkpt>
      <trkpt lat="45.56683" lon="2.93525">
        <ele>905.22</ele>
        <time>2021-08-15T04:33:28Z</time>
      </trkpt>
      <trkpt lat="45.56679" lon="2.93527">
        <ele>905.22</ele>
        <time>2021-08-15T04:33:29Z</time>
      </trkpt>
      <trkpt lat="45.56671" lon="2.93532">
        <ele>903.3</ele>
        <time>2021-08-15T04:33:31Z</time>
      </trkpt>
      <trkpt lat="45.56661" lon="2.93544">
        <ele>901.85</ele>
        <time>2021-08-15T04:33:34Z</time>
      </trkpt>
      <trkpt lat="45.56658" lon="2.93549">
        <ele>900.89</ele>
        <time>2021-08-15T04:33:35Z</time>
      </trkpt>
      <trkpt lat="45.56654" lon="2.93554">
        <ele>900.41</ele>
        <time>2021-08-15T04:33:36Z</time>
      </trkpt>
      <trkpt lat="45.56647" lon="2.93561">
        <ele>898.97</ele>
        <time>2021-08-15T04:33:38Z</time>
      </trkpt>
      <trkpt lat="45.56643" lon="2.93565">
        <ele>898.01</ele>
        <time>2021-08-15T04:33:39Z</time>
      </trkpt>
      <trkpt lat="45.56639" lon="2.93568">
        <ele>897.05</ele>
        <time>2021-08-15T04:33:40Z</time>
      </trkpt>
      <trkpt lat="45.56631" lon="2.93576">
        <ele>895.61</ele>
        <time>2021-08-15T04:33:42Z</time>
      </trkpt>
      <trkpt lat="45.56627" lon="2.93579">
        <ele>895.61</ele>
        <time>2021-08-15T04:33:43Z</time>
      </trkpt>
      <trkpt lat="45.56612" lon="2.93592">
        <ele>893.68</ele>
        <time>2021-08-15T04:33:46Z</time>
      </trkpt>
      <trkpt lat="45.56594" lon="2.9361">
        <ele>890.32</ele>
        <time>2021-08-15T04:33:50Z</time>
      </trkpt>
      <trkpt lat="45.56576" lon="2.93626">
        <ele>887.91</ele>
        <time>2021-08-15T04:33:54Z</time>
      </trkpt>
      <trkpt lat="45.5656" lon="2.93651">
        <ele>885.51</ele>
        <time>2021-08-15T04:33:59Z</time>
      </trkpt>
      <trkpt lat="45.5655" lon="2.93665">
        <ele>883.59</ele>
        <time>2021-08-15T04:34:02Z</time>
      </trkpt>
      <trkpt lat="45.56543" lon="2.93674">
        <ele>882.15</ele>
        <time>2021-08-15T04:34:04Z</time>
      </trkpt>
      <trkpt lat="45.56539" lon="2.93678">
        <ele>882.15</ele>
        <time>2021-08-15T04:34:05Z</time>
      </trkpt>
      <trkpt lat="45.56531" lon="2.93686">
        <ele>880.71</ele>
        <time>2021-08-15T04:34:07Z</time>
      </trkpt>
      <trkpt lat="45.56528" lon="2.93689">
        <ele>879.74</ele>
        <time>2021-08-15T04:34:08Z</time>
      </trkpt>
      <trkpt lat="45.56524" lon="2.93692">
        <ele>879.26</ele>
        <time>2021-08-15T04:34:09Z</time>
      </trkpt>
      <trkpt lat="45.56521" lon="2.93695">
        <ele>879.26</ele>
        <time>2021-08-15T04:34:10Z</time>
      </trkpt>
      <trkpt lat="45.56498" lon="2.93714">
        <ele>876.38</ele>
        <time>2021-08-15T04:34:16Z</time>
      </trkpt>
      <trkpt lat="45.56479" lon="2.93725">
        <ele>874.46</ele>
        <time>2021-08-15T04:34:20Z</time>
      </trkpt>
      <trkpt lat="45.56465" lon="2.93729">
        <ele>873.5</ele>
        <time>2021-08-15T04:34:23Z</time>
      </trkpt>
      <trkpt lat="45.56444" lon="2.93729">
        <ele>872.05</ele>
        <time>2021-08-15T04:34:28Z</time>
      </trkpt>
      <trkpt lat="45.5644" lon="2.9373">
        <ele>871.57</ele>
        <time>2021-08-15T04:34:29Z</time>
      </trkpt>
      <trkpt lat="45.56419" lon="2.93736">
        <ele>870.61</ele>
        <time>2021-08-15T04:34:33Z</time>
      </trkpt>
      <trkpt lat="45.56404" lon="2.93737">
        <ele>869.65</ele>
        <time>2021-08-15T04:34:36Z</time>
      </trkpt>
      <trkpt lat="45.56399" lon="2.93738">
        <ele>869.17</ele>
        <time>2021-08-15T04:34:37Z</time>
      </trkpt>
      <trkpt lat="45.56395" lon="2.93738">
        <ele>869.17</ele>
        <time>2021-08-15T04:34:38Z</time>
      </trkpt>
      <trkpt lat="45.56366" lon="2.93739">
        <ele>867.73</ele>
        <time>2021-08-15T04:34:45Z</time>
      </trkpt>
      <trkpt lat="45.5636" lon="2.9374">
        <ele>866.77</ele>
        <time>2021-08-15T04:34:46Z</time>
      </trkpt>
      <trkpt lat="45.56355" lon="2.93741">
        <ele>866.77</ele>
        <time>2021-08-15T04:34:47Z</time>
      </trkpt>
      <trkpt lat="45.56349" lon="2.93741">
        <ele>866.77</ele>
        <time>2021-08-15T04:34:48Z</time>
      </trkpt>
      <trkpt lat="45.56317" lon="2.93733">
        <ele>866.77</ele>
        <time>2021-08-15T04:34:56Z</time>
      </trkpt>
      <trkpt lat="45.5629" lon="2.93727">
        <ele>867.73</ele>
        <time>2021-08-15T04:35:03Z</time>
      </trkpt>
      <trkpt lat="45.56264" lon="2.93722">
        <ele>868.69</ele>
        <time>2021-08-15T04:35:11Z</time>
      </trkpt>
      <trkpt lat="45.56256" lon="2.93724">
        <ele>868.69</ele>
        <time>2021-08-15T04:35:13Z</time>
      </trkpt>
      <trkpt lat="45.56246" lon="2.93728">
        <ele>865.8</ele>
        <time>2021-08-15T04:35:15Z</time>
      </trkpt>
      <trkpt lat="45.5624" lon="2.93727">
        <ele>865.8</ele>
        <time>2021-08-15T04:35:16Z</time>
      </trkpt>
      <trkpt lat="45.56234" lon="2.93723">
        <ele>865.8</ele>
        <time>2021-08-15T04:35:17Z</time>
      </trkpt>
      <trkpt lat="45.56229" lon="2.93719">
        <ele>865.8</ele>
        <time>2021-08-15T04:35:18Z</time>
      </trkpt>
      <trkpt lat="45.56225" lon="2.93714">
        <ele>865.8</ele>
        <time>2021-08-15T04:35:19Z</time>
      </trkpt>
      <trkpt lat="45.56221" lon="2.9371">
        <ele>865.8</ele>
        <time>2021-08-15T04:35:20Z</time>
      </trkpt>
      <trkpt lat="45.56217" lon="2.93707">
        <ele>865.8</ele>
        <time>2021-08-15T04:35:21Z</time>
      </trkpt>
      <trkpt lat="45.56214" lon="2.93705">
        <ele>865.8</ele>
        <time>2021-08-15T04:35:22Z</time>
      </trkpt>
      <trkpt lat="45.56208" lon="2.93702">
        <ele>867.25</ele>
        <time>2021-08-15T04:35:24Z</time>
      </trkpt>
      <trkpt lat="45.56194" lon="2.93696">
        <ele>869.17</ele>
        <time>2021-08-15T04:35:31Z</time>
      </trkpt>
      <trkpt lat="45.56192" lon="2.93695">
        <ele>869.17</ele>
        <time>2021-08-15T04:35:32Z</time>
      </trkpt>
      <trkpt lat="45.5619" lon="2.93693">
        <ele>869.17</ele>
        <time>2021-08-15T04:35:33Z</time>
      </trkpt>
      <trkpt lat="45.56187" lon="2.93689">
        <ele>869.17</ele>
        <time>2021-08-15T04:35:34Z</time>
      </trkpt>
      <trkpt lat="45.56185" lon="2.93684">
        <ele>869.17</ele>
        <time>2021-08-15T04:35:35Z</time>
      </trkpt>
      <trkpt lat="45.56184" lon="2.9368">
        <ele>869.17</ele>
        <time>2021-08-15T04:35:36Z</time>
      </trkpt>
      <trkpt lat="45.56183" lon="2.93676">
        <ele>869.17</ele>
        <time>2021-08-15T04:35:37Z</time>
      </trkpt>
      <trkpt lat="45.56183" lon="2.93671">
        <ele>869.17</ele>
        <time>2021-08-15T04:35:38Z</time>
      </trkpt>
      <trkpt lat="45.56182" lon="2.93667">
        <ele>869.17</ele>
        <time>2021-08-15T04:35:39Z</time>
      </trkpt>
      <trkpt lat="45.56181" lon="2.93662">
        <ele>869.17</ele>
        <time>2021-08-15T04:35:40Z</time>
      </trkpt>
      <trkpt lat="45.5618" lon="2.93657">
        <ele>869.17</ele>
        <time>2021-08-15T04:35:41Z</time>
      </trkpt>
      <trkpt lat="45.56179" lon="2.93653">
        <ele>869.17</ele>
        <time>2021-08-15T04:35:42Z</time>
      </trkpt>
      <trkpt lat="45.56177" lon="2.93648">
        <ele>869.17</ele>
        <time>2021-08-15T04:35:43Z</time>
      </trkpt>
      <trkpt lat="45.56175" lon="2.93643">
        <ele>869.17</ele>
        <time>2021-08-15T04:35:44Z</time>
      </trkpt>
      <trkpt lat="45.56172" lon="2.93639">
        <ele>869.17</ele>
        <time>2021-08-15T04:35:45Z</time>
      </trkpt>
      <trkpt lat="45.56169" lon="2.93635">
        <ele>869.17</ele>
        <time>2021-08-15T04:35:46Z</time>
      </trkpt>
      <trkpt lat="45.56165" lon="2.93628">
        <ele>867.73</ele>
        <time>2021-08-15T04:35:48Z</time>
      </trkpt>
      <trkpt lat="45.56151" lon="2.93609">
        <ele>867.73</ele>
        <time>2021-08-15T04:35:54Z</time>
      </trkpt>
      <trkpt lat="45.5613" lon="2.9358">
        <ele>867.73</ele>
        <time>2021-08-15T04:36:02Z</time>
      </trkpt>
      <trkpt lat="45.56111" lon="2.93555">
        <ele>867.73</ele>
        <time>2021-08-15T04:36:09Z</time>
      </trkpt>
      <trkpt lat="45.56096" lon="2.93526">
        <ele>867.73</ele>
        <time>2021-08-15T04:36:16Z</time>
      </trkpt>
      <trkpt lat="45.56077" lon="2.93475">
        <ele>868.69</ele>
        <time>2021-08-15T04:36:27Z</time>
      </trkpt>
      <trkpt lat="45.56065" lon="2.93445">
        <ele>869.17</ele>
        <time>2021-08-15T04:36:34Z</time>
      </trkpt>
      <trkpt lat="45.56046" lon="2.93405">
        <ele>869.65</ele>
        <time>2021-08-15T04:36:44Z</time>
      </trkpt>
      <trkpt lat="45.56033" lon="2.93375">
        <ele>870.61</ele>
        <time>2021-08-15T04:36:52Z</time>
      </trkpt>
      <trkpt lat="45.56025" lon="2.93349">
        <ele>870.61</ele>
        <time>2021-08-15T04:36:59Z</time>
      </trkpt>
      <trkpt lat="45.56019" lon="2.93314">
        <ele>871.57</ele>
        <time>2021-08-15T04:37:08Z</time>
      </trkpt>
      <trkpt lat="45.56017" lon="2.93302">
        <ele>871.57</ele>
        <time>2021-08-15T04:37:11Z</time>
      </trkpt>
      <trkpt lat="45.56018" lon="2.93298">
        <ele>871.57</ele>
        <time>2021-08-15T04:37:12Z</time>
      </trkpt>
      <trkpt lat="45.56018" lon="2.93294">
        <ele>872.05</ele>
        <time>2021-08-15T04:37:13Z</time>
      </trkpt>
      <trkpt lat="45.56012" lon="2.9327">
        <ele>871.57</ele>
        <time>2021-08-15T04:37:20Z</time>
      </trkpt>
      <trkpt lat="45.56001" lon="2.93239">
        <ele>872.53</ele>
        <time>2021-08-15T04:37:29Z</time>
      </trkpt>
      <trkpt lat="45.5599" lon="2.93207">
        <ele>873.01</ele>
        <time>2021-08-15T04:37:39Z</time>
      </trkpt>
      <trkpt lat="45.55987" lon="2.93183">
        <ele>874.46</ele>
        <time>2021-08-15T04:37:46Z</time>
      </trkpt>
      <trkpt lat="45.55981" lon="2.9315">
        <ele>875.42</ele>
        <time>2021-08-15T04:37:57Z</time>
      </trkpt>
      <trkpt lat="45.55976" lon="2.93125">
        <ele>876.38</ele>
        <time>2021-08-15T04:38:07Z</time>
      </trkpt>
      <trkpt lat="45.55969" lon="2.93103">
        <ele>878.3</ele>
        <time>2021-08-15T04:38:16Z</time>
      </trkpt>
      <trkpt lat="45.55968" lon="2.93102">
        <ele>878.3</ele>
        <time>2021-08-15T04:38:17Z</time>
      </trkpt>
      <trkpt lat="45.55967" lon="2.93102">
        <ele>878.78</ele>
        <time>2021-08-15T04:38:18Z</time>
      </trkpt>
      <trkpt lat="45.55966" lon="2.93103">
        <ele>878.78</ele>
        <time>2021-08-15T04:38:19Z</time>
      </trkpt>
      <trkpt lat="45.55965" lon="2.93106">
        <ele>878.78</ele>
        <time>2021-08-15T04:38:20Z</time>
      </trkpt>
      <trkpt lat="45.55964" lon="2.93108">
        <ele>878.78</ele>
        <time>2021-08-15T04:38:21Z</time>
      </trkpt>
      <trkpt lat="45.55964" lon="2.93111">
        <ele>878.78</ele>
        <time>2021-08-15T04:38:22Z</time>
      </trkpt>
      <trkpt lat="45.55963" lon="2.93114">
        <ele>878.78</ele>
        <time>2021-08-15T04:38:23Z</time>
      </trkpt>
      <trkpt lat="45.55962" lon="2.93117">
        <ele>878.78</ele>
        <time>2021-08-15T04:38:24Z</time>
      </trkpt>
      <trkpt lat="45.55952" lon="2.9314">
        <ele>877.34</ele>
        <time>2021-08-15T04:38:30Z</time>
      </trkpt>
      <trkpt lat="45.55946" lon="2.9315">
        <ele>876.86</ele>
        <time>2021-08-15T04:38:32Z</time>
      </trkpt>
      <trkpt lat="45.5594" lon="2.93161">
        <ele>876.38</ele>
        <time>2021-08-15T04:38:34Z</time>
      </trkpt>
      <trkpt lat="45.55937" lon="2.93165">
        <ele>876.38</ele>
        <time>2021-08-15T04:38:35Z</time>
      </trkpt>
      <trkpt lat="45.55934" lon="2.93168">
        <ele>876.38</ele>
        <time>2021-08-15T04:38:36Z</time>
      </trkpt>
      <trkpt lat="45.55929" lon="2.9317">
        <ele>876.38</ele>
        <time>2021-08-15T04:38:37Z</time>
      </trkpt>
      <trkpt lat="45.55927" lon="2.93171">
        <ele>876.38</ele>
        <time>2021-08-15T04:38:38Z</time>
      </trkpt>
      <trkpt lat="45.55924" lon="2.93171">
        <ele>876.38</ele>
        <time>2021-08-15T04:38:39Z</time>
      </trkpt>
      <trkpt lat="45.55922" lon="2.93171">
        <ele>877.82</ele>
        <time>2021-08-15T04:38:40Z</time>
      </trkpt>
      <trkpt lat="45.5592" lon="2.93171">
        <ele>877.82</ele>
        <time>2021-08-15T04:38:41Z</time>
      </trkpt>
      <trkpt lat="45.55898" lon="2.9317">
        <ele>878.78</ele>
        <time>2021-08-15T04:38:52Z</time>
      </trkpt>
      <trkpt lat="45.55886" lon="2.93174">
        <ele>880.71</ele>
        <time>2021-08-15T04:39:00Z</time>
      </trkpt>
      <trkpt lat="45.55881" lon="2.9319">
        <ele>881.19</ele>
        <time>2021-08-15T04:39:07Z</time>
      </trkpt>
      <trkpt lat="45.55876" lon="2.93205">
        <ele>881.67</ele>
        <time>2021-08-15T04:39:14Z</time>
      </trkpt>
      <trkpt lat="45.5587" lon="2.93215">
        <ele>883.11</ele>
        <time>2021-08-15T04:39:22Z</time>
      </trkpt>
      <trkpt lat="45.55867" lon="2.93224">
        <ele>884.07</ele>
        <time>2021-08-15T04:39:27Z</time>
      </trkpt>
      <trkpt lat="45.55867" lon="2.93226">
        <ele>884.07</ele>
        <time>2021-08-15T04:39:28Z</time>
      </trkpt>
      <trkpt lat="45.55863" lon="2.93237">
        <ele>885.03</ele>
        <time>2021-08-15T04:39:33Z</time>
      </trkpt>
      <trkpt lat="45.55863" lon="2.93241">
        <ele>885.03</ele>
        <time>2021-08-15T04:39:34Z</time>
      </trkpt>
      <trkpt lat="45.55863" lon="2.93243">
        <ele>885.03</ele>
        <time>2021-08-15T04:39:35Z</time>
      </trkpt>
      <trkpt lat="45.55862" lon="2.93256">
        <ele>886.95</ele>
        <time>2021-08-15T04:39:43Z</time>
      </trkpt>
      <trkpt lat="45.55862" lon="2.9327">
        <ele>887.91</ele>
        <time>2021-08-15T04:39:51Z</time>
      </trkpt>
      <trkpt lat="45.55867" lon="2.93285">
        <ele>889.36</ele>
        <time>2021-08-15T04:40:00Z</time>
      </trkpt>
      <trkpt lat="45.55877" lon="2.93299">
        <ele>889.84</ele>
        <time>2021-08-15T04:40:09Z</time>
      </trkpt>
      <trkpt lat="45.55883" lon="2.93314">
        <ele>890.8</ele>
        <time>2021-08-15T04:40:17Z</time>
      </trkpt>
      <trkpt lat="45.55887" lon="2.93328">
        <ele>891.28</ele>
        <time>2021-08-15T04:40:24Z</time>
      </trkpt>
      <trkpt lat="45.55889" lon="2.93346">
        <ele>892.72</ele>
        <time>2021-08-15T04:40:33Z</time>
      </trkpt>
      <trkpt lat="45.55889" lon="2.93349">
        <ele>893.2</ele>
        <time>2021-08-15T04:40:34Z</time>
      </trkpt>
      <trkpt lat="45.55889" lon="2.93351">
        <ele>893.2</ele>
        <time>2021-08-15T04:40:35Z</time>
      </trkpt>
      <trkpt lat="45.55889" lon="2.93354">
        <ele>893.68</ele>
        <time>2021-08-15T04:40:36Z</time>
      </trkpt>
      <trkpt lat="45.55888" lon="2.93356">
        <ele>893.68</ele>
        <time>2021-08-15T04:40:37Z</time>
      </trkpt>
      <trkpt lat="45.55888" lon="2.93358">
        <ele>893.68</ele>
        <time>2021-08-15T04:40:38Z</time>
      </trkpt>
      <trkpt lat="45.55888" lon="2.9336">
        <ele>893.68</ele>
        <time>2021-08-15T04:40:39Z</time>
      </trkpt>
      <trkpt lat="45.55887" lon="2.9338">
        <ele>894.64</ele>
        <time>2021-08-15T04:40:48Z</time>
      </trkpt>
      <trkpt lat="45.55887" lon="2.93383">
        <ele>895.61</ele>
        <time>2021-08-15T04:40:50Z</time>
      </trkpt>
      <trkpt lat="45.55886" lon="2.93398">
        <ele>896.09</ele>
        <time>2021-08-15T04:40:58Z</time>
      </trkpt>
      <trkpt lat="45.55882" lon="2.93411">
        <ele>897.05</ele>
        <time>2021-08-15T04:41:06Z</time>
      </trkpt>
      <trkpt lat="45.5588" lon="2.93425">
        <ele>898.01</ele>
        <time>2021-08-15T04:41:14Z</time>
      </trkpt>
      <trkpt lat="45.55879" lon="2.93426">
        <ele>898.49</ele>
        <time>2021-08-15T04:41:15Z</time>
      </trkpt>
      <trkpt lat="45.55878" lon="2.93428">
        <ele>898.01</ele>
        <time>2021-08-15T04:41:16Z</time>
      </trkpt>
      <trkpt lat="45.55878" lon="2.9343">
        <ele>898.97</ele>
        <time>2021-08-15T04:41:17Z</time>
      </trkpt>
      <trkpt lat="45.55877" lon="2.93432">
        <ele>898.97</ele>
        <time>2021-08-15T04:41:18Z</time>
      </trkpt>
      <trkpt lat="45.55876" lon="2.93434">
        <ele>898.97</ele>
        <time>2021-08-15T04:41:19Z</time>
      </trkpt>
      <trkpt lat="45.55876" lon="2.93436">
        <ele>898.97</ele>
        <time>2021-08-15T04:41:20Z</time>
      </trkpt>
      <trkpt lat="45.55875" lon="2.93438">
        <ele>899.45</ele>
        <time>2021-08-15T04:41:21Z</time>
      </trkpt>
      <trkpt lat="45.5587" lon="2.93455">
        <ele>900.89</ele>
        <time>2021-08-15T04:41:31Z</time>
      </trkpt>
      <trkpt lat="45.55867" lon="2.93469">
        <ele>901.85</ele>
        <time>2021-08-15T04:41:39Z</time>
      </trkpt>
      <trkpt lat="45.55862" lon="2.93484">
        <ele>903.3</ele>
        <time>2021-08-15T04:41:48Z</time>
      </trkpt>
      <trkpt lat="45.55859" lon="2.93495">
        <ele>904.74</ele>
        <time>2021-08-15T04:41:56Z</time>
      </trkpt>
      <trkpt lat="45.55853" lon="2.93508">
        <ele>905.7</ele>
        <time>2021-08-15T04:42:08Z</time>
      </trkpt>
      <trkpt lat="45.55847" lon="2.93515">
        <ele>907.14</ele>
        <time>2021-08-15T04:42:16Z</time>
      </trkpt>
      <trkpt lat="45.55842" lon="2.93523">
        <ele>908.1</ele>
        <time>2021-08-15T04:42:23Z</time>
      </trkpt>
      <trkpt lat="45.55834" lon="2.93533">
        <ele>909.06</ele>
        <time>2021-08-15T04:42:33Z</time>
      </trkpt>
      <trkpt lat="45.55827" lon="2.93541">
        <ele>910.51</ele>
        <time>2021-08-15T04:42:42Z</time>
      </trkpt>
      <trkpt lat="45.55819" lon="2.93548">
        <ele>911.47</ele>
        <time>2021-08-15T04:42:51Z</time>
      </trkpt>
      <trkpt lat="45.55815" lon="2.93551">
        <ele>911.95</ele>
        <time>2021-08-15T04:42:59Z</time>
      </trkpt>
      <trkpt lat="45.55811" lon="2.93552">
        <ele>912.91</ele>
        <time>2021-08-15T04:43:07Z</time>
      </trkpt>
      <trkpt lat="45.55808" lon="2.93555">
        <ele>912.91</ele>
        <time>2021-08-15T04:43:10Z</time>
      </trkpt>
      <trkpt lat="45.55801" lon="2.9356">
        <ele>914.35</ele>
        <time>2021-08-15T04:43:19Z</time>
      </trkpt>
      <trkpt lat="45.55792" lon="2.93564">
        <ele>915.31</ele>
        <time>2021-08-15T04:43:28Z</time>
      </trkpt>
      <trkpt lat="45.55786" lon="2.93567">
        <ele>917.24</ele>
        <time>2021-08-15T04:43:36Z</time>
      </trkpt>
      <trkpt lat="45.55779" lon="2.93564">
        <ele>917.72</ele>
        <time>2021-08-15T04:43:44Z</time>
      </trkpt>
      <trkpt lat="45.55778" lon="2.93563">
        <ele>917.72</ele>
        <time>2021-08-15T04:43:45Z</time>
      </trkpt>
      <trkpt lat="45.55767" lon="2.93557">
        <ele>918.68</ele>
        <time>2021-08-15T04:43:54Z</time>
      </trkpt>
      <trkpt lat="45.55756" lon="2.93553">
        <ele>920.12</ele>
        <time>2021-08-15T04:44:04Z</time>
      </trkpt>
      <trkpt lat="45.55748" lon="2.93551">
        <ele>921.08</ele>
        <time>2021-08-15T04:44:11Z</time>
      </trkpt>
      <trkpt lat="45.55743" lon="2.93551">
        <ele>922.04</ele>
        <time>2021-08-15T04:44:15Z</time>
      </trkpt>
      <trkpt lat="45.55742" lon="2.9355">
        <ele>922.04</ele>
        <time>2021-08-15T04:44:16Z</time>
      </trkpt>
      <trkpt lat="45.55737" lon="2.9355">
        <ele>922.52</ele>
        <time>2021-08-15T04:44:20Z</time>
      </trkpt>
      <trkpt lat="45.55727" lon="2.93552">
        <ele>923.96</ele>
        <time>2021-08-15T04:44:29Z</time>
      </trkpt>
      <trkpt lat="45.55719" lon="2.9355">
        <ele>924.45</ele>
        <time>2021-08-15T04:44:36Z</time>
      </trkpt>
      <trkpt lat="45.55706" lon="2.93545">
        <ele>925.89</ele>
        <time>2021-08-15T04:44:47Z</time>
      </trkpt>
      <trkpt lat="45.55704" lon="2.93544">
        <ele>925.89</ele>
        <time>2021-08-15T04:44:49Z</time>
      </trkpt>
      <trkpt lat="45.55703" lon="2.93543">
        <ele>926.37</ele>
        <time>2021-08-15T04:44:50Z</time>
      </trkpt>
      <trkpt lat="45.55702" lon="2.93542">
        <ele>926.37</ele>
        <time>2021-08-15T04:44:51Z</time>
      </trkpt>
      <trkpt lat="45.557" lon="2.93542">
        <ele>926.37</ele>
        <time>2021-08-15T04:44:52Z</time>
      </trkpt>
      <trkpt lat="45.55693" lon="2.9354">
        <ele>927.33</ele>
        <time>2021-08-15T04:44:59Z</time>
      </trkpt>
      <trkpt lat="45.55684" lon="2.93537">
        <ele>928.77</ele>
        <time>2021-08-15T04:45:08Z</time>
      </trkpt>
      <trkpt lat="45.55678" lon="2.93534">
        <ele>928.77</ele>
        <time>2021-08-15T04:45:14Z</time>
      </trkpt>
      <trkpt lat="45.55668" lon="2.93535">
        <ele>928.77</ele>
        <time>2021-08-15T04:45:20Z</time>
      </trkpt>
      <trkpt lat="45.55667" lon="2.93536">
        <ele>928.77</ele>
        <time>2021-08-15T04:45:21Z</time>
      </trkpt>
      <trkpt lat="45.55661" lon="2.93545">
        <ele>928.77</ele>
        <time>2021-08-15T04:45:27Z</time>
      </trkpt>
      <trkpt lat="45.55655" lon="2.93559">
        <ele>928.77</ele>
        <time>2021-08-15T04:45:34Z</time>
      </trkpt>
      <trkpt lat="45.55656" lon="2.93578">
        <ele>929.25</ele>
        <time>2021-08-15T04:45:42Z</time>
      </trkpt>
      <trkpt lat="45.5566" lon="2.93593">
        <ele>927.33</ele>
        <time>2021-08-15T04:45:45Z</time>
      </trkpt>
      <trkpt lat="45.5566" lon="2.93599">
        <ele>927.33</ele>
        <time>2021-08-15T04:45:46Z</time>
      </trkpt>
      <trkpt lat="45.55659" lon="2.9363">
        <ele>927.81</ele>
        <time>2021-08-15T04:45:53Z</time>
      </trkpt>
      <trkpt lat="45.55659" lon="2.93636">
        <ele>927.81</ele>
        <time>2021-08-15T04:45:59Z</time>
      </trkpt>
      <trkpt lat="45.55659" lon="2.93647">
        <ele>927.81</ele>
        <time>2021-08-15T04:46:21Z</time>
      </trkpt>
      <trkpt lat="45.55662" lon="2.93654">
        <ele>928.29</ele>
        <time>2021-08-15T04:46:43Z</time>
      </trkpt>
      <trkpt lat="45.55663" lon="2.93651">
        <ele>928.29</ele>
        <time>2021-08-15T04:46:59Z</time>
      </trkpt>
      <trkpt lat="45.55665" lon="2.93647">
        <ele>928.29</ele>
        <time>2021-08-15T04:47:13Z</time>
      </trkpt>
      <trkpt lat="45.55666" lon="2.93651">
        <ele>928.29</ele>
        <time>2021-08-15T04:47:27Z</time>
      </trkpt>
      <trkpt lat="45.55665" lon="2.93653">
        <ele>928.77</ele>
        <time>2021-08-15T04:47:43Z</time>
      </trkpt>
      <trkpt lat="45.55666" lon="2.93648">
        <ele>928.77</ele>
        <time>2021-08-15T04:47:58Z</time>
      </trkpt>
      <trkpt lat="45.55663" lon="2.93644">
        <ele>928.77</ele>
        <time>2021-08-15T04:48:14Z</time>
      </trkpt>
      <trkpt lat="45.55664" lon="2.93642">
        <ele>929.25</ele>
        <time>2021-08-15T04:48:33Z</time>
      </trkpt>
      <trkpt lat="45.55664" lon="2.93636">
        <ele>929.25</ele>
        <time>2021-08-15T04:48:49Z</time>
      </trkpt>
      <trkpt lat="45.55662" lon="2.93641">
        <ele>929.25</ele>
        <time>2021-08-15T04:49:01Z</time>
      </trkpt>
      <trkpt lat="45.55662" lon="2.93645">
        <ele>929.25</ele>
        <time>2021-08-15T04:49:12Z</time>
      </trkpt>
      <trkpt lat="45.55661" lon="2.93648">
        <ele>929.25</ele>
        <time>2021-08-15T04:49:24Z</time>
      </trkpt>
      <trkpt lat="45.55656" lon="2.93651">
        <ele>929.25</ele>
        <time>2021-08-15T04:49:36Z</time>
      </trkpt>
      <trkpt lat="45.55655" lon="2.93652">
        <ele>929.25</ele>
        <time>2021-08-15T04:49:54Z</time>
      </trkpt>
      <trkpt lat="45.55656" lon="2.93651">
        <ele>929.25</ele>
        <time>2021-08-15T04:50:09Z</time>
      </trkpt>
      <trkpt lat="45.55655" lon="2.93648">
        <ele>929.73</ele>
        <time>2021-08-15T04:50:27Z</time>
      </trkpt>
      <trkpt lat="45.55653" lon="2.93645">
        <ele>929.73</ele>
        <time>2021-08-15T04:50:41Z</time>
      </trkpt>
      <trkpt lat="45.55653" lon="2.93648">
        <ele>929.73</ele>
        <time>2021-08-15T04:50:56Z</time>
      </trkpt>
      <trkpt lat="45.55653" lon="2.93653">
        <ele>929.73</ele>
        <time>2021-08-15T04:50:58Z</time>
      </trkpt>
      <trkpt lat="45.55652" lon="2.93667">
        <ele>929.73</ele>
        <time>2021-08-15T04:51:03Z</time>
      </trkpt>
      <trkpt lat="45.55652" lon="2.9367">
        <ele>929.73</ele>
        <time>2021-08-15T04:51:04Z</time>
      </trkpt>
      <trkpt lat="45.55651" lon="2.93673">
        <ele>929.73</ele>
        <time>2021-08-15T04:51:05Z</time>
      </trkpt>
      <trkpt lat="45.5565" lon="2.93675">
        <ele>929.73</ele>
        <time>2021-08-15T04:51:06Z</time>
      </trkpt>
      <trkpt lat="45.5565" lon="2.93677">
        <ele>929.73</ele>
        <time>2021-08-15T04:51:07Z</time>
      </trkpt>
      <trkpt lat="45.55649" lon="2.9368">
        <ele>929.73</ele>
        <time>2021-08-15T04:51:08Z</time>
      </trkpt>
      <trkpt lat="45.55649" lon="2.93683">
        <ele>929.73</ele>
        <time>2021-08-15T04:51:09Z</time>
      </trkpt>
      <trkpt lat="45.55649" lon="2.93685">
        <ele>929.73</ele>
        <time>2021-08-15T04:51:10Z</time>
      </trkpt>
      <trkpt lat="45.55648" lon="2.93687">
        <ele>929.73</ele>
        <time>2021-08-15T04:51:11Z</time>
      </trkpt>
      <trkpt lat="45.55648" lon="2.93689">
        <ele>929.73</ele>
        <time>2021-08-15T04:51:12Z</time>
      </trkpt>
      <trkpt lat="45.55648" lon="2.93691">
        <ele>929.73</ele>
        <time>2021-08-15T04:51:13Z</time>
      </trkpt>
      <trkpt lat="45.55647" lon="2.93694">
        <ele>929.73</ele>
        <time>2021-08-15T04:51:14Z</time>
      </trkpt>
      <trkpt lat="45.55647" lon="2.93697">
        <ele>929.73</ele>
        <time>2021-08-15T04:51:15Z</time>
      </trkpt>
      <trkpt lat="45.55647" lon="2.937">
        <ele>929.73</ele>
        <time>2021-08-15T04:51:16Z</time>
      </trkpt>
      <trkpt lat="45.55646" lon="2.93703">
        <ele>929.73</ele>
        <time>2021-08-15T04:51:17Z</time>
      </trkpt>
      <trkpt lat="45.55647" lon="2.93718">
        <ele>931.17</ele>
        <time>2021-08-15T04:51:24Z</time>
      </trkpt>
      <trkpt lat="45.55647" lon="2.93725">
        <ele>931.65</ele>
        <time>2021-08-15T04:51:28Z</time>
      </trkpt>
      <trkpt lat="45.55646" lon="2.93727">
        <ele>931.65</ele>
        <time>2021-08-15T04:51:29Z</time>
      </trkpt>
      <trkpt lat="45.55647" lon="2.9373">
        <ele>931.65</ele>
        <time>2021-08-15T04:51:30Z</time>
      </trkpt>
      <trkpt lat="45.55647" lon="2.93732">
        <ele>932.14</ele>
        <time>2021-08-15T04:51:31Z</time>
      </trkpt>
      <trkpt lat="45.55648" lon="2.93742">
        <ele>933.1</ele>
        <time>2021-08-15T04:51:38Z</time>
      </trkpt>
      <trkpt lat="45.55649" lon="2.93749">
        <ele>933.1</ele>
        <time>2021-08-15T04:51:42Z</time>
      </trkpt>
      <trkpt lat="45.55649" lon="2.93751">
        <ele>933.58</ele>
        <time>2021-08-15T04:51:43Z</time>
      </trkpt>
      <trkpt lat="45.5565" lon="2.93753">
        <ele>934.06</ele>
        <time>2021-08-15T04:51:44Z</time>
      </trkpt>
      <trkpt lat="45.5565" lon="2.93755">
        <ele>934.06</ele>
        <time>2021-08-15T04:51:45Z</time>
      </trkpt>
      <trkpt lat="45.55651" lon="2.93768">
        <ele>935.5</ele>
        <time>2021-08-15T04:51:53Z</time>
      </trkpt>
      <trkpt lat="45.55653" lon="2.93783">
        <ele>935.98</ele>
        <time>2021-08-15T04:52:02Z</time>
      </trkpt>
      <trkpt lat="45.55655" lon="2.93797">
        <ele>937.42</ele>
        <time>2021-08-15T04:52:09Z</time>
      </trkpt>
      <trkpt lat="45.55656" lon="2.93806">
        <ele>937.42</ele>
        <time>2021-08-15T04:52:15Z</time>
      </trkpt>
      <trkpt lat="45.55658" lon="2.93819">
        <ele>937.9</ele>
        <time>2021-08-15T04:52:22Z</time>
      </trkpt>
      <trkpt lat="45.55658" lon="2.93851">
        <ele>938.86</ele>
        <time>2021-08-15T04:52:34Z</time>
      </trkpt>
      <trkpt lat="45.55659" lon="2.93867">
        <ele>940.31</ele>
        <time>2021-08-15T04:52:42Z</time>
      </trkpt>
      <trkpt lat="45.5566" lon="2.93884">
        <ele>941.27</ele>
        <time>2021-08-15T04:52:51Z</time>
      </trkpt>
      <trkpt lat="45.55664" lon="2.93897">
        <ele>942.71</ele>
        <time>2021-08-15T04:53:00Z</time>
      </trkpt>
      <trkpt lat="45.5567" lon="2.93918">
        <ele>943.19</ele>
        <time>2021-08-15T04:53:09Z</time>
      </trkpt>
      <trkpt lat="45.55677" lon="2.93942">
        <ele>943.19</ele>
        <time>2021-08-15T04:53:17Z</time>
      </trkpt>
      <trkpt lat="45.55687" lon="2.93969">
        <ele>943.19</ele>
        <time>2021-08-15T04:53:25Z</time>
      </trkpt>
      <trkpt lat="45.55695" lon="2.93985">
        <ele>943.19</ele>
        <time>2021-08-15T04:53:31Z</time>
      </trkpt>
      <trkpt lat="45.55699" lon="2.93995">
        <ele>944.15</ele>
        <time>2021-08-15T04:53:36Z</time>
      </trkpt>
      <trkpt lat="45.55707" lon="2.94011">
        <ele>944.63</ele>
        <time>2021-08-15T04:53:44Z</time>
      </trkpt>
      <trkpt lat="45.55721" lon="2.9403">
        <ele>944.63</ele>
        <time>2021-08-15T04:53:53Z</time>
      </trkpt>
      <trkpt lat="45.55739" lon="2.9405">
        <ele>944.63</ele>
        <time>2021-08-15T04:54:01Z</time>
      </trkpt>
      <trkpt lat="45.55759" lon="2.9407">
        <ele>944.63</ele>
        <time>2021-08-15T04:54:08Z</time>
      </trkpt>
      <trkpt lat="45.55776" lon="2.94092">
        <ele>941.75</ele>
        <time>2021-08-15T04:54:13Z</time>
      </trkpt>
      <trkpt lat="45.5578" lon="2.94098">
        <ele>939.83</ele>
        <time>2021-08-15T04:54:14Z</time>
      </trkpt>
      <trkpt lat="45.55784" lon="2.94105">
        <ele>939.83</ele>
        <time>2021-08-15T04:54:15Z</time>
      </trkpt>
      <trkpt lat="45.55797" lon="2.94132">
        <ele>937.9</ele>
        <time>2021-08-15T04:54:18Z</time>
      </trkpt>
      <trkpt lat="45.55805" lon="2.9416">
        <ele>937.42</ele>
        <time>2021-08-15T04:54:21Z</time>
      </trkpt>
      <trkpt lat="45.55806" lon="2.94169">
        <ele>937.42</ele>
        <time>2021-08-15T04:54:22Z</time>
      </trkpt>
      <trkpt lat="45.55808" lon="2.94199">
        <ele>938.86</ele>
        <time>2021-08-15T04:54:27Z</time>
      </trkpt>
      <trkpt lat="45.5581" lon="2.94211">
        <ele>940.31</ele>
        <time>2021-08-15T04:54:31Z</time>
      </trkpt>
      <trkpt lat="45.55811" lon="2.94214">
        <ele>940.31</ele>
        <time>2021-08-15T04:54:32Z</time>
      </trkpt>
      <trkpt lat="45.55811" lon="2.94217">
        <ele>940.31</ele>
        <time>2021-08-15T04:54:33Z</time>
      </trkpt>
      <trkpt lat="45.55814" lon="2.94238">
        <ele>942.71</ele>
        <time>2021-08-15T04:54:42Z</time>
      </trkpt>
      <trkpt lat="45.55817" lon="2.9425">
        <ele>943.67</ele>
        <time>2021-08-15T04:54:48Z</time>
      </trkpt>
      <trkpt lat="45.55818" lon="2.94252">
        <ele>943.67</ele>
        <time>2021-08-15T04:54:49Z</time>
      </trkpt>
      <trkpt lat="45.55819" lon="2.94254">
        <ele>943.67</ele>
        <time>2021-08-15T04:54:50Z</time>
      </trkpt>
      <trkpt lat="45.55819" lon="2.94255">
        <ele>943.67</ele>
        <time>2021-08-15T04:54:51Z</time>
      </trkpt>
      <trkpt lat="45.5582" lon="2.94257">
        <ele>943.67</ele>
        <time>2021-08-15T04:54:52Z</time>
      </trkpt>
      <trkpt lat="45.55821" lon="2.94258">
        <ele>944.15</ele>
        <time>2021-08-15T04:54:53Z</time>
      </trkpt>
      <trkpt lat="45.55828" lon="2.94273">
        <ele>945.11</ele>
        <time>2021-08-15T04:55:02Z</time>
      </trkpt>
      <trkpt lat="45.55834" lon="2.94289">
        <ele>944.63</ele>
        <time>2021-08-15T04:55:10Z</time>
      </trkpt>
      <trkpt lat="45.5584" lon="2.94311">
        <ele>943.19</ele>
        <time>2021-08-15T04:55:16Z</time>
      </trkpt>
      <trkpt lat="45.55841" lon="2.94318">
        <ele>942.71</ele>
        <time>2021-08-15T04:55:17Z</time>
      </trkpt>
      <trkpt lat="45.55846" lon="2.94353">
        <ele>939.35</ele>
        <time>2021-08-15T04:55:21Z</time>
      </trkpt>
      <trkpt lat="45.55849" lon="2.9437">
        <ele>938.38</ele>
        <time>2021-08-15T04:55:23Z</time>
      </trkpt>
      <trkpt lat="45.55866" lon="2.94434">
        <ele>936.46</ele>
        <time>2021-08-15T04:55:30Z</time>
      </trkpt>
      <trkpt lat="45.5588" lon="2.94479">
        <ele>937.42</ele>
        <time>2021-08-15T04:55:37Z</time>
      </trkpt>
      <trkpt lat="45.55888" lon="2.94519">
        <ele>938.38</ele>
        <time>2021-08-15T04:55:45Z</time>
      </trkpt>
      <trkpt lat="45.55893" lon="2.94547">
        <ele>938.86</ele>
        <time>2021-08-15T04:55:51Z</time>
      </trkpt>
      <trkpt lat="45.55899" lon="2.94576">
        <ele>939.83</ele>
        <time>2021-08-15T04:55:58Z</time>
      </trkpt>
      <trkpt lat="45.55899" lon="2.9458">
        <ele>939.83</ele>
        <time>2021-08-15T04:55:59Z</time>
      </trkpt>
      <trkpt lat="45.55899" lon="2.94585">
        <ele>939.83</ele>
        <time>2021-08-15T04:56:00Z</time>
      </trkpt>
      <trkpt lat="45.559" lon="2.94613">
        <ele>940.79</ele>
        <time>2021-08-15T04:56:07Z</time>
      </trkpt>
      <trkpt lat="45.559" lon="2.94652">
        <ele>942.23</ele>
        <time>2021-08-15T04:56:18Z</time>
      </trkpt>
      <trkpt lat="45.55899" lon="2.94669">
        <ele>944.63</ele>
        <time>2021-08-15T04:56:25Z</time>
      </trkpt>
      <trkpt lat="45.55893" lon="2.94689">
        <ele>945.11</ele>
        <time>2021-08-15T04:56:33Z</time>
      </trkpt>
      <trkpt lat="45.55878" lon="2.94709">
        <ele>946.07</ele>
        <time>2021-08-15T04:56:43Z</time>
      </trkpt>
      <trkpt lat="45.55866" lon="2.94722">
        <ele>947.52</ele>
        <time>2021-08-15T04:56:51Z</time>
      </trkpt>
      <trkpt lat="45.55856" lon="2.94741">
        <ele>948.48</ele>
        <time>2021-08-15T04:57:00Z</time>
      </trkpt>
      <trkpt lat="45.55845" lon="2.94759">
        <ele>949.44</ele>
        <time>2021-08-15T04:57:10Z</time>
      </trkpt>
      <trkpt lat="45.55837" lon="2.94773">
        <ele>950.4</ele>
        <time>2021-08-15T04:57:17Z</time>
      </trkpt>
      <trkpt lat="45.55835" lon="2.94774">
        <ele>950.4</ele>
        <time>2021-08-15T04:57:18Z</time>
      </trkpt>
      <trkpt lat="45.55833" lon="2.94773">
        <ele>950.4</ele>
        <time>2021-08-15T04:57:19Z</time>
      </trkpt>
      <trkpt lat="45.55832" lon="2.94772">
        <ele>950.88</ele>
        <time>2021-08-15T04:57:20Z</time>
      </trkpt>
      <trkpt lat="45.55832" lon="2.9477">
        <ele>950.88</ele>
        <time>2021-08-15T04:57:21Z</time>
      </trkpt>
      <trkpt lat="45.55831" lon="2.94769">
        <ele>950.88</ele>
        <time>2021-08-15T04:57:22Z</time>
      </trkpt>
      <trkpt lat="45.55831" lon="2.94767">
        <ele>950.88</ele>
        <time>2021-08-15T04:57:23Z</time>
      </trkpt>
      <trkpt lat="45.5583" lon="2.94765">
        <ele>950.88</ele>
        <time>2021-08-15T04:57:24Z</time>
      </trkpt>
      <trkpt lat="45.55829" lon="2.94763">
        <ele>951.36</ele>
        <time>2021-08-15T04:57:25Z</time>
      </trkpt>
      <trkpt lat="45.55829" lon="2.94761">
        <ele>951.36</ele>
        <time>2021-08-15T04:57:26Z</time>
      </trkpt>
      <trkpt lat="45.55825" lon="2.94748">
        <ele>953.28</ele>
        <time>2021-08-15T04:57:34Z</time>
      </trkpt>
      <trkpt lat="45.55822" lon="2.94739">
        <ele>953.77</ele>
        <time>2021-08-15T04:57:40Z</time>
      </trkpt>
      <trkpt lat="45.5582" lon="2.94731">
        <ele>954.73</ele>
        <time>2021-08-15T04:57:46Z</time>
      </trkpt>
      <trkpt lat="45.55819" lon="2.94726">
        <ele>955.21</ele>
        <time>2021-08-15T04:57:51Z</time>
      </trkpt>
      <trkpt lat="45.55816" lon="2.9471">
        <ele>956.65</ele>
        <time>2021-08-15T04:58:03Z</time>
      </trkpt>
      <trkpt lat="45.55815" lon="2.94708">
        <ele>957.13</ele>
        <time>2021-08-15T04:58:05Z</time>
      </trkpt>
      <trkpt lat="45.5581" lon="2.94702">
        <ele>958.09</ele>
        <time>2021-08-15T04:58:14Z</time>
      </trkpt>
      <trkpt lat="45.55807" lon="2.94705">
        <ele>958.57</ele>
        <time>2021-08-15T04:58:19Z</time>
      </trkpt>
      <trkpt lat="45.55804" lon="2.94711">
        <ele>959.05</ele>
        <time>2021-08-15T04:58:27Z</time>
      </trkpt>
      <trkpt lat="45.55801" lon="2.9472">
        <ele>959.53</ele>
        <time>2021-08-15T04:58:34Z</time>
      </trkpt>
      <trkpt lat="45.55794" lon="2.94733">
        <ele>960.49</ele>
        <time>2021-08-15T04:58:42Z</time>
      </trkpt>
      <trkpt lat="45.55787" lon="2.94743">
        <ele>961.46</ele>
        <time>2021-08-15T04:58:50Z</time>
      </trkpt>
      <trkpt lat="45.55785" lon="2.94744">
        <ele>961.46</ele>
        <time>2021-08-15T04:58:51Z</time>
      </trkpt>
      <trkpt lat="45.55784" lon="2.94745">
        <ele>961.46</ele>
        <time>2021-08-15T04:58:52Z</time>
      </trkpt>
      <trkpt lat="45.55783" lon="2.94746">
        <ele>961.94</ele>
        <time>2021-08-15T04:58:53Z</time>
      </trkpt>
      <trkpt lat="45.55781" lon="2.94746">
        <ele>961.94</ele>
        <time>2021-08-15T04:58:54Z</time>
      </trkpt>
      <trkpt lat="45.5578" lon="2.94747">
        <ele>962.42</ele>
        <time>2021-08-15T04:58:55Z</time>
      </trkpt>
      <trkpt lat="45.55779" lon="2.94747">
        <ele>962.42</ele>
        <time>2021-08-15T04:58:56Z</time>
      </trkpt>
      <trkpt lat="45.55777" lon="2.94746">
        <ele>962.42</ele>
        <time>2021-08-15T04:58:57Z</time>
      </trkpt>
      <trkpt lat="45.55776" lon="2.94746">
        <ele>962.9</ele>
        <time>2021-08-15T04:58:58Z</time>
      </trkpt>
      <trkpt lat="45.55775" lon="2.94746">
        <ele>962.9</ele>
        <time>2021-08-15T04:58:59Z</time>
      </trkpt>
      <trkpt lat="45.55774" lon="2.94746">
        <ele>962.9</ele>
        <time>2021-08-15T04:59:00Z</time>
      </trkpt>
      <trkpt lat="45.55772" lon="2.94745">
        <ele>963.38</ele>
        <time>2021-08-15T04:59:01Z</time>
      </trkpt>
      <trkpt lat="45.55771" lon="2.94745">
        <ele>963.38</ele>
        <time>2021-08-15T04:59:02Z</time>
      </trkpt>
      <trkpt lat="45.5577" lon="2.94745">
        <ele>963.38</ele>
        <time>2021-08-15T04:59:03Z</time>
      </trkpt>
      <trkpt lat="45.55769" lon="2.94744">
        <ele>963.86</ele>
        <time>2021-08-15T04:59:04Z</time>
      </trkpt>
      <trkpt lat="45.55768" lon="2.94744">
        <ele>963.86</ele>
        <time>2021-08-15T04:59:05Z</time>
      </trkpt>
      <trkpt lat="45.55766" lon="2.94744">
        <ele>963.86</ele>
        <time>2021-08-15T04:59:06Z</time>
      </trkpt>
      <trkpt lat="45.55765" lon="2.94743">
        <ele>963.86</ele>
        <time>2021-08-15T04:59:07Z</time>
      </trkpt>
      <trkpt lat="45.55764" lon="2.94742">
        <ele>963.86</ele>
        <time>2021-08-15T04:59:08Z</time>
      </trkpt>
      <trkpt lat="45.55762" lon="2.94742">
        <ele>964.34</ele>
        <time>2021-08-15T04:59:09Z</time>
      </trkpt>
      <trkpt lat="45.55752" lon="2.94735">
        <ele>965.3</ele>
        <time>2021-08-15T04:59:17Z</time>
      </trkpt>
      <trkpt lat="45.55743" lon="2.94728">
        <ele>965.3</ele>
        <time>2021-08-15T04:59:24Z</time>
      </trkpt>
      <trkpt lat="45.55736" lon="2.9472">
        <ele>965.78</ele>
        <time>2021-08-15T04:59:31Z</time>
      </trkpt>
      <trkpt lat="45.55728" lon="2.94713">
        <ele>967.22</ele>
        <time>2021-08-15T04:59:39Z</time>
      </trkpt>
      <trkpt lat="45.55726" lon="2.94713">
        <ele>967.22</ele>
        <time>2021-08-15T04:59:40Z</time>
      </trkpt>
      <trkpt lat="45.55725" lon="2.94712">
        <ele>967.22</ele>
        <time>2021-08-15T04:59:41Z</time>
      </trkpt>
      <trkpt lat="45.55724" lon="2.94711">
        <ele>967.7</ele>
        <time>2021-08-15T04:59:42Z</time>
      </trkpt>
      <trkpt lat="45.55722" lon="2.94711">
        <ele>967.7</ele>
        <time>2021-08-15T04:59:43Z</time>
      </trkpt>
      <trkpt lat="45.55721" lon="2.9471">
        <ele>967.7</ele>
        <time>2021-08-15T04:59:44Z</time>
      </trkpt>
      <trkpt lat="45.55719" lon="2.94709">
        <ele>968.18</ele>
        <time>2021-08-15T04:59:45Z</time>
      </trkpt>
      <trkpt lat="45.55718" lon="2.94709">
        <ele>968.18</ele>
        <time>2021-08-15T04:59:46Z</time>
      </trkpt>
      <trkpt lat="45.55716" lon="2.94708">
        <ele>968.18</ele>
        <time>2021-08-15T04:59:47Z</time>
      </trkpt>
      <trkpt lat="45.55715" lon="2.94707">
        <ele>968.18</ele>
        <time>2021-08-15T04:59:48Z</time>
      </trkpt>
      <trkpt lat="45.55713" lon="2.94706">
        <ele>968.67</ele>
        <time>2021-08-15T04:59:49Z</time>
      </trkpt>
      <trkpt lat="45.55702" lon="2.94702">
        <ele>969.15</ele>
        <time>2021-08-15T04:59:58Z</time>
      </trkpt>
      <trkpt lat="45.55692" lon="2.94706">
        <ele>970.59</ele>
        <time>2021-08-15T05:00:06Z</time>
      </trkpt>
      <trkpt lat="45.55688" lon="2.9471">
        <ele>971.07</ele>
        <time>2021-08-15T05:00:10Z</time>
      </trkpt>
      <trkpt lat="45.55683" lon="2.94717">
        <ele>972.51</ele>
        <time>2021-08-15T05:00:16Z</time>
      </trkpt>
      <trkpt lat="45.55681" lon="2.94718">
        <ele>972.51</ele>
        <time>2021-08-15T05:00:17Z</time>
      </trkpt>
      <trkpt lat="45.5568" lon="2.94718">
        <ele>972.51</ele>
        <time>2021-08-15T05:00:18Z</time>
      </trkpt>
      <trkpt lat="45.55678" lon="2.94718">
        <ele>972.51</ele>
        <time>2021-08-15T05:00:19Z</time>
      </trkpt>
      <trkpt lat="45.55677" lon="2.94718">
        <ele>972.99</ele>
        <time>2021-08-15T05:00:20Z</time>
      </trkpt>
      <trkpt lat="45.55676" lon="2.94716">
        <ele>973.47</ele>
        <time>2021-08-15T05:00:22Z</time>
      </trkpt>
      <trkpt lat="45.55675" lon="2.94712">
        <ele>973.95</ele>
        <time>2021-08-15T05:00:25Z</time>
      </trkpt>
      <trkpt lat="45.55676" lon="2.9471">
        <ele>973.95</ele>
        <time>2021-08-15T05:00:26Z</time>
      </trkpt>
      <trkpt lat="45.55676" lon="2.94708">
        <ele>973.95</ele>
        <time>2021-08-15T05:00:27Z</time>
      </trkpt>
      <trkpt lat="45.55682" lon="2.9469">
        <ele>972.51</ele>
        <time>2021-08-15T05:00:33Z</time>
      </trkpt>
      <trkpt lat="45.55683" lon="2.94666">
        <ele>972.51</ele>
        <time>2021-08-15T05:00:40Z</time>
      </trkpt>
      <trkpt lat="45.55682" lon="2.94657">
        <ele>972.51</ele>
        <time>2021-08-15T05:00:44Z</time>
      </trkpt>
      <trkpt lat="45.55675" lon="2.94638">
        <ele>973.95</ele>
        <time>2021-08-15T05:00:54Z</time>
      </trkpt>
      <trkpt lat="45.55673" lon="2.94633">
        <ele>974.91</ele>
        <time>2021-08-15T05:00:57Z</time>
      </trkpt>
      <trkpt lat="45.55673" lon="2.94631">
        <ele>974.91</ele>
        <time>2021-08-15T05:00:58Z</time>
      </trkpt>
      <trkpt lat="45.55673" lon="2.94629">
        <ele>974.91</ele>
        <time>2021-08-15T05:00:59Z</time>
      </trkpt>
      <trkpt lat="45.55673" lon="2.94627">
        <ele>974.91</ele>
        <time>2021-08-15T05:01:00Z</time>
      </trkpt>
      <trkpt lat="45.55673" lon="2.94625">
        <ele>974.91</ele>
        <time>2021-08-15T05:01:01Z</time>
      </trkpt>
      <trkpt lat="45.55672" lon="2.94623">
        <ele>974.91</ele>
        <time>2021-08-15T05:01:02Z</time>
      </trkpt>
      <trkpt lat="45.55672" lon="2.94621">
        <ele>975.39</ele>
        <time>2021-08-15T05:01:03Z</time>
      </trkpt>
      <trkpt lat="45.55671" lon="2.94619">
        <ele>975.39</ele>
        <time>2021-08-15T05:01:04Z</time>
      </trkpt>
      <trkpt lat="45.55671" lon="2.94618">
        <ele>975.88</ele>
        <time>2021-08-15T05:01:05Z</time>
      </trkpt>
      <trkpt lat="45.5567" lon="2.94616">
        <ele>975.88</ele>
        <time>2021-08-15T05:01:06Z</time>
      </trkpt>
      <trkpt lat="45.55659" lon="2.94614">
        <ele>976.84</ele>
        <time>2021-08-15T05:01:14Z</time>
      </trkpt>
      <trkpt lat="45.55649" lon="2.94612">
        <ele>977.32</ele>
        <time>2021-08-15T05:01:22Z</time>
      </trkpt>
      <trkpt lat="45.55643" lon="2.94607">
        <ele>977.8</ele>
        <time>2021-08-15T05:01:27Z</time>
      </trkpt>
      <trkpt lat="45.55642" lon="2.94606">
        <ele>977.8</ele>
        <time>2021-08-15T05:01:28Z</time>
      </trkpt>
      <trkpt lat="45.55641" lon="2.94604">
        <ele>978.28</ele>
        <time>2021-08-15T05:01:29Z</time>
      </trkpt>
      <trkpt lat="45.5564" lon="2.94603">
        <ele>978.28</ele>
        <time>2021-08-15T05:01:30Z</time>
      </trkpt>
      <trkpt lat="45.55639" lon="2.94601">
        <ele>978.28</ele>
        <time>2021-08-15T05:01:31Z</time>
      </trkpt>
      <trkpt lat="45.55638" lon="2.94599">
        <ele>978.28</ele>
        <time>2021-08-15T05:01:32Z</time>
      </trkpt>
      <trkpt lat="45.55637" lon="2.94597">
        <ele>978.28</ele>
        <time>2021-08-15T05:01:33Z</time>
      </trkpt>
      <trkpt lat="45.55636" lon="2.94595">
        <ele>978.76</ele>
        <time>2021-08-15T05:01:34Z</time>
      </trkpt>
      <trkpt lat="45.55635" lon="2.94593">
        <ele>978.76</ele>
        <time>2021-08-15T05:01:35Z</time>
      </trkpt>
      <trkpt lat="45.55634" lon="2.94591">
        <ele>978.76</ele>
        <time>2021-08-15T05:01:36Z</time>
      </trkpt>
      <trkpt lat="45.55633" lon="2.94589">
        <ele>978.76</ele>
        <time>2021-08-15T05:01:37Z</time>
      </trkpt>
      <trkpt lat="45.55627" lon="2.94569">
        <ele>980.2</ele>
        <time>2021-08-15T05:01:46Z</time>
      </trkpt>
      <trkpt lat="45.5562" lon="2.94552">
        <ele>981.16</ele>
        <time>2021-08-15T05:01:55Z</time>
      </trkpt>
      <trkpt lat="45.55616" lon="2.94543">
        <ele>982.12</ele>
        <time>2021-08-15T05:02:02Z</time>
      </trkpt>
      <trkpt lat="45.55612" lon="2.94535">
        <ele>982.6</ele>
        <time>2021-08-15T05:02:07Z</time>
      </trkpt>
      <trkpt lat="45.5561" lon="2.94531">
        <ele>982.6</ele>
        <time>2021-08-15T05:02:09Z</time>
      </trkpt>
      <trkpt lat="45.55609" lon="2.94529">
        <ele>983.09</ele>
        <time>2021-08-15T05:02:10Z</time>
      </trkpt>
      <trkpt lat="45.55608" lon="2.94528">
        <ele>983.09</ele>
        <time>2021-08-15T05:02:11Z</time>
      </trkpt>
      <trkpt lat="45.55607" lon="2.94526">
        <ele>983.09</ele>
        <time>2021-08-15T05:02:12Z</time>
      </trkpt>
      <trkpt lat="45.55606" lon="2.94524">
        <ele>983.09</ele>
        <time>2021-08-15T05:02:13Z</time>
      </trkpt>
      <trkpt lat="45.55605" lon="2.94522">
        <ele>983.09</ele>
        <time>2021-08-15T05:02:14Z</time>
      </trkpt>
      <trkpt lat="45.55604" lon="2.94519">
        <ele>984.05</ele>
        <time>2021-08-15T05:02:20Z</time>
      </trkpt>
      <trkpt lat="45.55603" lon="2.94517">
        <ele>984.05</ele>
        <time>2021-08-15T05:02:24Z</time>
      </trkpt>
      <trkpt lat="45.55602" lon="2.94514">
        <ele>983.57</ele>
        <time>2021-08-15T05:02:26Z</time>
      </trkpt>
      <trkpt lat="45.55601" lon="2.94513">
        <ele>984.05</ele>
        <time>2021-08-15T05:02:27Z</time>
      </trkpt>
      <trkpt lat="45.55596" lon="2.94501">
        <ele>985.49</ele>
        <time>2021-08-15T05:02:37Z</time>
      </trkpt>
      <trkpt lat="45.55591" lon="2.94491">
        <ele>986.45</ele>
        <time>2021-08-15T05:02:46Z</time>
      </trkpt>
      <trkpt lat="45.55585" lon="2.94481">
        <ele>986.93</ele>
        <time>2021-08-15T05:02:55Z</time>
      </trkpt>
      <trkpt lat="45.55584" lon="2.94481">
        <ele>987.41</ele>
        <time>2021-08-15T05:03:06Z</time>
      </trkpt>
      <trkpt lat="45.55584" lon="2.94483">
        <ele>987.41</ele>
        <time>2021-08-15T05:03:25Z</time>
      </trkpt>
      <trkpt lat="45.55584" lon="2.94481">
        <ele>987.41</ele>
        <time>2021-08-15T05:03:42Z</time>
      </trkpt>
      <trkpt lat="45.55584" lon="2.94482">
        <ele>987.41</ele>
        <time>2021-08-15T05:03:56Z</time>
      </trkpt>
      <trkpt lat="45.55582" lon="2.94477">
        <ele>987.41</ele>
        <time>2021-08-15T05:04:05Z</time>
      </trkpt>
      <trkpt lat="45.55575" lon="2.94462">
        <ele>987.89</ele>
        <time>2021-08-15T05:04:13Z</time>
      </trkpt>
      <trkpt lat="45.5557" lon="2.94446">
        <ele>988.85</ele>
        <time>2021-08-15T05:04:23Z</time>
      </trkpt>
      <trkpt lat="45.55568" lon="2.9444">
        <ele>989.33</ele>
        <time>2021-08-15T05:04:27Z</time>
      </trkpt>
      <trkpt lat="45.55568" lon="2.94438">
        <ele>989.33</ele>
        <time>2021-08-15T05:04:28Z</time>
      </trkpt>
      <trkpt lat="45.55567" lon="2.94437">
        <ele>989.33</ele>
        <time>2021-08-15T05:04:29Z</time>
      </trkpt>
      <trkpt lat="45.55561" lon="2.94427">
        <ele>990.78</ele>
        <time>2021-08-15T05:04:37Z</time>
      </trkpt>
      <trkpt lat="45.55557" lon="2.94418">
        <ele>991.74</ele>
        <time>2021-08-15T05:04:44Z</time>
      </trkpt>
      <trkpt lat="45.55551" lon="2.94408">
        <ele>992.7</ele>
        <time>2021-08-15T05:04:52Z</time>
      </trkpt>
      <trkpt lat="45.5555" lon="2.94405">
        <ele>993.18</ele>
        <time>2021-08-15T05:04:55Z</time>
      </trkpt>
      <trkpt lat="45.55546" lon="2.94397">
        <ele>994.14</ele>
        <time>2021-08-15T05:05:01Z</time>
      </trkpt>
      <trkpt lat="45.55545" lon="2.94396">
        <ele>994.14</ele>
        <time>2021-08-15T05:05:02Z</time>
      </trkpt>
      <trkpt lat="45.55541" lon="2.94388">
        <ele>995.1</ele>
        <time>2021-08-15T05:05:08Z</time>
      </trkpt>
      <trkpt lat="45.55535" lon="2.94381">
        <ele>995.58</ele>
        <time>2021-08-15T05:05:14Z</time>
      </trkpt>
      <trkpt lat="45.55535" lon="2.94379">
        <ele>995.58</ele>
        <time>2021-08-15T05:05:15Z</time>
      </trkpt>
      <trkpt lat="45.55529" lon="2.9437">
        <ele>997.02</ele>
        <time>2021-08-15T05:05:22Z</time>
      </trkpt>
      <trkpt lat="45.55519" lon="2.94357">
        <ele>997.02</ele>
        <time>2021-08-15T05:05:31Z</time>
      </trkpt>
      <trkpt lat="45.55512" lon="2.94346">
        <ele>997.51</ele>
        <time>2021-08-15T05:05:38Z</time>
      </trkpt>
      <trkpt lat="45.55501" lon="2.94331">
        <ele>998.47</ele>
        <time>2021-08-15T05:05:47Z</time>
      </trkpt>
      <trkpt lat="45.55488" lon="2.94318">
        <ele>998.95</ele>
        <time>2021-08-15T05:05:57Z</time>
      </trkpt>
      <trkpt lat="45.55476" lon="2.94306">
        <ele>999.43</ele>
        <time>2021-08-15T05:06:05Z</time>
      </trkpt>
      <trkpt lat="45.55464" lon="2.94284">
        <ele>999.91</ele>
        <time>2021-08-15T05:06:15Z</time>
      </trkpt>
      <trkpt lat="45.55455" lon="2.94258">
        <ele>1001.35</ele>
        <time>2021-08-15T05:06:26Z</time>
      </trkpt>
      <trkpt lat="45.55448" lon="2.9424">
        <ele>1001.83</ele>
        <time>2021-08-15T05:06:34Z</time>
      </trkpt>
      <trkpt lat="45.55442" lon="2.94231">
        <ele>1002.31</ele>
        <time>2021-08-15T05:06:40Z</time>
      </trkpt>
      <trkpt lat="45.55431" lon="2.94217">
        <ele>1002.79</ele>
        <time>2021-08-15T05:06:49Z</time>
      </trkpt>
      <trkpt lat="45.55423" lon="2.94202">
        <ele>1003.75</ele>
        <time>2021-08-15T05:06:57Z</time>
      </trkpt>
      <trkpt lat="45.55421" lon="2.94196">
        <ele>1004.23</ele>
        <time>2021-08-15T05:07:00Z</time>
      </trkpt>
      <trkpt lat="45.5542" lon="2.94194">
        <ele>1003.75</ele>
        <time>2021-08-15T05:07:01Z</time>
      </trkpt>
      <trkpt lat="45.55419" lon="2.94192">
        <ele>1003.75</ele>
        <time>2021-08-15T05:07:02Z</time>
      </trkpt>
      <trkpt lat="45.55418" lon="2.9419">
        <ele>1004.72</ele>
        <time>2021-08-15T05:07:03Z</time>
      </trkpt>
      <trkpt lat="45.55418" lon="2.94188">
        <ele>1004.72</ele>
        <time>2021-08-15T05:07:04Z</time>
      </trkpt>
      <trkpt lat="45.55417" lon="2.94185">
        <ele>1004.72</ele>
        <time>2021-08-15T05:07:05Z</time>
      </trkpt>
      <trkpt lat="45.55416" lon="2.94184">
        <ele>1004.72</ele>
        <time>2021-08-15T05:07:06Z</time>
      </trkpt>
      <trkpt lat="45.5541" lon="2.94165">
        <ele>1005.2</ele>
        <time>2021-08-15T05:07:14Z</time>
      </trkpt>
      <trkpt lat="45.55405" lon="2.94148">
        <ele>1005.68</ele>
        <time>2021-08-15T05:07:21Z</time>
      </trkpt>
      <trkpt lat="45.55395" lon="2.94126">
        <ele>1006.64</ele>
        <time>2021-08-15T05:07:31Z</time>
      </trkpt>
      <trkpt lat="45.55388" lon="2.94114">
        <ele>1007.12</ele>
        <time>2021-08-15T05:07:38Z</time>
      </trkpt>
      <trkpt lat="45.55379" lon="2.94102">
        <ele>1008.08</ele>
        <time>2021-08-15T05:07:46Z</time>
      </trkpt>
      <trkpt lat="45.55368" lon="2.94093">
        <ele>1009.04</ele>
        <time>2021-08-15T05:07:54Z</time>
      </trkpt>
      <trkpt lat="45.5536" lon="2.94086">
        <ele>1009.52</ele>
        <time>2021-08-15T05:08:00Z</time>
      </trkpt>
      <trkpt lat="45.55348" lon="2.94074">
        <ele>1010.48</ele>
        <time>2021-08-15T05:08:09Z</time>
      </trkpt>
      <trkpt lat="45.55338" lon="2.94066">
        <ele>1011.93</ele>
        <time>2021-08-15T05:08:17Z</time>
      </trkpt>
      <trkpt lat="45.55329" lon="2.94058">
        <ele>1012.41</ele>
        <time>2021-08-15T05:08:24Z</time>
      </trkpt>
      <trkpt lat="45.55317" lon="2.9405">
        <ele>1013.85</ele>
        <time>2021-08-15T05:08:33Z</time>
      </trkpt>
      <trkpt lat="45.55309" lon="2.94045">
        <ele>1015.29</ele>
        <time>2021-08-15T05:08:41Z</time>
      </trkpt>
      <trkpt lat="45.55301" lon="2.9404">
        <ele>1016.25</ele>
        <time>2021-08-15T05:08:50Z</time>
      </trkpt>
      <trkpt lat="45.55291" lon="2.94034">
        <ele>1016.73</ele>
        <time>2021-08-15T05:08:59Z</time>
      </trkpt>
      <trkpt lat="45.55288" lon="2.94032">
        <ele>1017.21</ele>
        <time>2021-08-15T05:09:08Z</time>
      </trkpt>
      <trkpt lat="45.55287" lon="2.9403">
        <ele>1017.21</ele>
        <time>2021-08-15T05:09:14Z</time>
      </trkpt>
      <trkpt lat="45.55278" lon="2.94022">
        <ele>1018.65</ele>
        <time>2021-08-15T05:09:24Z</time>
      </trkpt>
      <trkpt lat="45.5527" lon="2.94014">
        <ele>1019.62</ele>
        <time>2021-08-15T05:09:34Z</time>
      </trkpt>
      <trkpt lat="45.55267" lon="2.94009">
        <ele>1020.1</ele>
        <time>2021-08-15T05:09:42Z</time>
      </trkpt>
      <trkpt lat="45.55266" lon="2.94009">
        <ele>1020.58</ele>
        <time>2021-08-15T05:09:52Z</time>
      </trkpt>
      <trkpt lat="45.55267" lon="2.94009">
        <ele>1020.58</ele>
        <time>2021-08-15T05:10:03Z</time>
      </trkpt>
      <trkpt lat="45.55266" lon="2.9401">
        <ele>1020.58</ele>
        <time>2021-08-15T05:10:09Z</time>
      </trkpt>
      <trkpt lat="45.55266" lon="2.9401">
        <ele>1020.58</ele>
        <time>2021-08-15T05:10:28Z</time>
      </trkpt>
      <trkpt lat="45.55266" lon="2.94009">
        <ele>1020.58</ele>
        <time>2021-08-15T05:10:48Z</time>
      </trkpt>
      <trkpt lat="45.55267" lon="2.94011">
        <ele>1020.58</ele>
        <time>2021-08-15T05:11:06Z</time>
      </trkpt>
      <trkpt lat="45.55266" lon="2.94011">
        <ele>1020.58</ele>
        <time>2021-08-15T05:11:28Z</time>
      </trkpt>
      <trkpt lat="45.55266" lon="2.94008">
        <ele>1020.58</ele>
        <time>2021-08-15T05:11:44Z</time>
      </trkpt>
      <trkpt lat="45.5526" lon="2.93998">
        <ele>1022.02</ele>
        <time>2021-08-15T05:11:55Z</time>
      </trkpt>
      <trkpt lat="45.55258" lon="2.93997">
        <ele>1022.5</ele>
        <time>2021-08-15T05:12:03Z</time>
      </trkpt>
      <trkpt lat="45.55257" lon="2.93997">
        <ele>1022.5</ele>
        <time>2021-08-15T05:12:04Z</time>
      </trkpt>
      <trkpt lat="45.55256" lon="2.93996">
        <ele>1022.5</ele>
        <time>2021-08-15T05:12:05Z</time>
      </trkpt>
      <trkpt lat="45.55249" lon="2.93993">
        <ele>1023.46</ele>
        <time>2021-08-15T05:12:12Z</time>
      </trkpt>
      <trkpt lat="45.55238" lon="2.93989">
        <ele>1024.9</ele>
        <time>2021-08-15T05:12:19Z</time>
      </trkpt>
      <trkpt lat="45.55226" lon="2.93986">
        <ele>1025.86</ele>
        <time>2021-08-15T05:12:26Z</time>
      </trkpt>
      <trkpt lat="45.55225" lon="2.93985">
        <ele>1025.86</ele>
        <time>2021-08-15T05:12:27Z</time>
      </trkpt>
      <trkpt lat="45.55223" lon="2.93984">
        <ele>1025.86</ele>
        <time>2021-08-15T05:12:28Z</time>
      </trkpt>
      <trkpt lat="45.55212" lon="2.93972">
        <ele>1026.83</ele>
        <time>2021-08-15T05:12:37Z</time>
      </trkpt>
      <trkpt lat="45.55201" lon="2.93965">
        <ele>1027.31</ele>
        <time>2021-08-15T05:12:45Z</time>
      </trkpt>
      <trkpt lat="45.552" lon="2.93965">
        <ele>1027.31</ele>
        <time>2021-08-15T05:12:46Z</time>
      </trkpt>
      <trkpt lat="45.55199" lon="2.93966">
        <ele>1028.27</ele>
        <time>2021-08-15T05:12:47Z</time>
      </trkpt>
      <trkpt lat="45.55198" lon="2.93967">
        <ele>1028.27</ele>
        <time>2021-08-15T05:12:48Z</time>
      </trkpt>
      <trkpt lat="45.55198" lon="2.93969">
        <ele>1027.79</ele>
        <time>2021-08-15T05:12:49Z</time>
      </trkpt>
      <trkpt lat="45.55197" lon="2.93971">
        <ele>1028.27</ele>
        <time>2021-08-15T05:12:50Z</time>
      </trkpt>
      <trkpt lat="45.55196" lon="2.93972">
        <ele>1027.79</ele>
        <time>2021-08-15T05:12:51Z</time>
      </trkpt>
      <trkpt lat="45.55194" lon="2.93973">
        <ele>1028.27</ele>
        <time>2021-08-15T05:12:52Z</time>
      </trkpt>
      <trkpt lat="45.55193" lon="2.93973">
        <ele>1028.27</ele>
        <time>2021-08-15T05:12:53Z</time>
      </trkpt>
      <trkpt lat="45.55192" lon="2.93972">
        <ele>1028.27</ele>
        <time>2021-08-15T05:12:54Z</time>
      </trkpt>
      <trkpt lat="45.55192" lon="2.9397">
        <ele>1028.27</ele>
        <time>2021-08-15T05:12:55Z</time>
      </trkpt>
      <trkpt lat="45.55192" lon="2.93968">
        <ele>1028.27</ele>
        <time>2021-08-15T05:12:56Z</time>
      </trkpt>
      <trkpt lat="45.55193" lon="2.93966">
        <ele>1028.27</ele>
        <time>2021-08-15T05:12:57Z</time>
      </trkpt>
      <trkpt lat="45.55194" lon="2.93964">
        <ele>1028.27</ele>
        <time>2021-08-15T05:12:58Z</time>
      </trkpt>
      <trkpt lat="45.55195" lon="2.93962">
        <ele>1028.27</ele>
        <time>2021-08-15T05:12:59Z</time>
      </trkpt>
      <trkpt lat="45.55197" lon="2.9396">
        <ele>1028.27</ele>
        <time>2021-08-15T05:13:00Z</time>
      </trkpt>
      <trkpt lat="45.55201" lon="2.93951">
        <ele>1028.75</ele>
        <time>2021-08-15T05:13:05Z</time>
      </trkpt>
      <trkpt lat="45.55202" lon="2.9395">
        <ele>1028.75</ele>
        <time>2021-08-15T05:13:06Z</time>
      </trkpt>
      <trkpt lat="45.55203" lon="2.93949">
        <ele>1028.75</ele>
        <time>2021-08-15T05:13:07Z</time>
      </trkpt>
      <trkpt lat="45.55203" lon="2.93947">
        <ele>1028.75</ele>
        <time>2021-08-15T05:13:08Z</time>
      </trkpt>
      <trkpt lat="45.55204" lon="2.93946">
        <ele>1029.23</ele>
        <time>2021-08-15T05:13:09Z</time>
      </trkpt>
      <trkpt lat="45.55205" lon="2.93944">
        <ele>1029.23</ele>
        <time>2021-08-15T05:13:10Z</time>
      </trkpt>
      <trkpt lat="45.55205" lon="2.93943">
        <ele>1029.23</ele>
        <time>2021-08-15T05:13:11Z</time>
      </trkpt>
      <trkpt lat="45.55206" lon="2.93942">
        <ele>1029.23</ele>
        <time>2021-08-15T05:13:12Z</time>
      </trkpt>
      <trkpt lat="45.55207" lon="2.9394">
        <ele>1029.71</ele>
        <time>2021-08-15T05:13:13Z</time>
      </trkpt>
      <trkpt lat="45.55208" lon="2.93939">
        <ele>1029.71</ele>
        <time>2021-08-15T05:13:14Z</time>
      </trkpt>
      <trkpt lat="45.55209" lon="2.93937">
        <ele>1030.19</ele>
        <time>2021-08-15T05:13:15Z</time>
      </trkpt>
      <trkpt lat="45.5521" lon="2.93936">
        <ele>1030.19</ele>
        <time>2021-08-15T05:13:16Z</time>
      </trkpt>
      <trkpt lat="45.55212" lon="2.93934">
        <ele>1030.19</ele>
        <time>2021-08-15T05:13:18Z</time>
      </trkpt>
      <trkpt lat="45.55213" lon="2.93933">
        <ele>1030.19</ele>
        <time>2021-08-15T05:13:19Z</time>
      </trkpt>
      <trkpt lat="45.55218" lon="2.93927">
        <ele>1030.67</ele>
        <time>2021-08-15T05:13:23Z</time>
      </trkpt>
      <trkpt lat="45.55219" lon="2.93926">
        <ele>1030.67</ele>
        <time>2021-08-15T05:13:24Z</time>
      </trkpt>
      <trkpt lat="45.5522" lon="2.93925">
        <ele>1030.67</ele>
        <time>2021-08-15T05:13:25Z</time>
      </trkpt>
      <trkpt lat="45.55221" lon="2.93923">
        <ele>1030.67</ele>
        <time>2021-08-15T05:13:26Z</time>
      </trkpt>
      <trkpt lat="45.55222" lon="2.93921">
        <ele>1030.67</ele>
        <time>2021-08-15T05:13:27Z</time>
      </trkpt>
      <trkpt lat="45.55224" lon="2.93919">
        <ele>1030.67</ele>
        <time>2021-08-15T05:13:28Z</time>
      </trkpt>
      <trkpt lat="45.55225" lon="2.93917">
        <ele>1030.67</ele>
        <time>2021-08-15T05:13:29Z</time>
      </trkpt>
      <trkpt lat="45.5524" lon="2.93893">
        <ele>1031.63</ele>
        <time>2021-08-15T05:13:39Z</time>
      </trkpt>
      <trkpt lat="45.55251" lon="2.93871">
        <ele>1032.11</ele>
        <time>2021-08-15T05:13:47Z</time>
      </trkpt>
      <trkpt lat="45.55259" lon="2.9384">
        <ele>1032.59</ele>
        <time>2021-08-15T05:13:56Z</time>
      </trkpt>
      <trkpt lat="45.55264" lon="2.93811">
        <ele>1033.55</ele>
        <time>2021-08-15T05:14:04Z</time>
      </trkpt>
      <trkpt lat="45.55267" lon="2.93793">
        <ele>1034.04</ele>
        <time>2021-08-15T05:14:10Z</time>
      </trkpt>
      <trkpt lat="45.55268" lon="2.93791">
        <ele>1034.52</ele>
        <time>2021-08-15T05:14:11Z</time>
      </trkpt>
      <trkpt lat="45.55272" lon="2.93777">
        <ele>1035</ele>
        <time>2021-08-15T05:14:18Z</time>
      </trkpt>
      <trkpt lat="45.55271" lon="2.93778">
        <ele>1035</ele>
        <time>2021-08-15T05:14:26Z</time>
      </trkpt>
      <trkpt lat="45.55272" lon="2.93778">
        <ele>1035</ele>
        <time>2021-08-15T05:14:42Z</time>
      </trkpt>
      <trkpt lat="45.55271" lon="2.93777">
        <ele>1035</ele>
        <time>2021-08-15T05:14:44Z</time>
      </trkpt>
      <trkpt lat="45.55271" lon="2.93775">
        <ele>1035</ele>
        <time>2021-08-15T05:14:45Z</time>
      </trkpt>
      <trkpt lat="45.55272" lon="2.93762">
        <ele>1035.48</ele>
        <time>2021-08-15T05:14:51Z</time>
      </trkpt>
      <trkpt lat="45.55271" lon="2.93743">
        <ele>1036.44</ele>
        <time>2021-08-15T05:14:58Z</time>
      </trkpt>
      <trkpt lat="45.5527" lon="2.93729">
        <ele>1036.92</ele>
        <time>2021-08-15T05:15:04Z</time>
      </trkpt>
      <trkpt lat="45.55269" lon="2.93727">
        <ele>1036.92</ele>
        <time>2021-08-15T05:15:05Z</time>
      </trkpt>
      <trkpt lat="45.55269" lon="2.93724">
        <ele>1036.92</ele>
        <time>2021-08-15T05:15:06Z</time>
      </trkpt>
      <trkpt lat="45.55269" lon="2.93722">
        <ele>1036.92</ele>
        <time>2021-08-15T05:15:07Z</time>
      </trkpt>
      <trkpt lat="45.55268" lon="2.93719">
        <ele>1036.92</ele>
        <time>2021-08-15T05:15:08Z</time>
      </trkpt>
      <trkpt lat="45.55268" lon="2.93717">
        <ele>1036.92</ele>
        <time>2021-08-15T05:15:09Z</time>
      </trkpt>
      <trkpt lat="45.55268" lon="2.93714">
        <ele>1037.4</ele>
        <time>2021-08-15T05:15:10Z</time>
      </trkpt>
      <trkpt lat="45.55264" lon="2.93691">
        <ele>1037.88</ele>
        <time>2021-08-15T05:15:19Z</time>
      </trkpt>
      <trkpt lat="45.55259" lon="2.93668">
        <ele>1039.32</ele>
        <time>2021-08-15T05:15:29Z</time>
      </trkpt>
      <trkpt lat="45.55255" lon="2.93642">
        <ele>1040.76</ele>
        <time>2021-08-15T05:15:41Z</time>
      </trkpt>
      <trkpt lat="45.55249" lon="2.93625">
        <ele>1041.73</ele>
        <time>2021-08-15T05:15:50Z</time>
      </trkpt>
      <trkpt lat="45.55242" lon="2.93609">
        <ele>1044.13</ele>
        <time>2021-08-15T05:15:59Z</time>
      </trkpt>
      <trkpt lat="45.55236" lon="2.93604">
        <ele>1044.61</ele>
        <time>2021-08-15T05:16:04Z</time>
      </trkpt>
      <trkpt lat="45.55225" lon="2.93587">
        <ele>1045.57</ele>
        <time>2021-08-15T05:16:15Z</time>
      </trkpt>
      <trkpt lat="45.55218" lon="2.93568">
        <ele>1046.53</ele>
        <time>2021-08-15T05:16:25Z</time>
      </trkpt>
      <trkpt lat="45.55214" lon="2.93558">
        <ele>1047.01</ele>
        <time>2021-08-15T05:16:31Z</time>
      </trkpt>
      <trkpt lat="45.55213" lon="2.93557">
        <ele>1047.49</ele>
        <time>2021-08-15T05:16:32Z</time>
      </trkpt>
      <trkpt lat="45.55202" lon="2.93537">
        <ele>1048.94</ele>
        <time>2021-08-15T05:16:43Z</time>
      </trkpt>
      <trkpt lat="45.55193" lon="2.9353">
        <ele>1049.9</ele>
        <time>2021-08-15T05:16:50Z</time>
      </trkpt>
      <trkpt lat="45.55182" lon="2.93537">
        <ele>1049.9</ele>
        <time>2021-08-15T05:16:57Z</time>
      </trkpt>
      <trkpt lat="45.55172" lon="2.93556">
        <ele>1049.9</ele>
        <time>2021-08-15T05:17:03Z</time>
      </trkpt>
      <trkpt lat="45.55153" lon="2.93573">
        <ele>1048.94</ele>
        <time>2021-08-15T05:17:11Z</time>
      </trkpt>
      <trkpt lat="45.55127" lon="2.93589">
        <ele>1048.94</ele>
        <time>2021-08-15T05:17:20Z</time>
      </trkpt>
      <trkpt lat="45.55107" lon="2.93602">
        <ele>1047.97</ele>
        <time>2021-08-15T05:17:27Z</time>
      </trkpt>
      <trkpt lat="45.55075" lon="2.93617">
        <ele>1046.53</ele>
        <time>2021-08-15T05:17:36Z</time>
      </trkpt>
      <trkpt lat="45.55059" lon="2.93629">
        <ele>1046.05</ele>
        <time>2021-08-15T05:17:42Z</time>
      </trkpt>
      <trkpt lat="45.55058" lon="2.93634">
        <ele>1046.05</ele>
        <time>2021-08-15T05:17:43Z</time>
      </trkpt>
      <trkpt lat="45.55058" lon="2.9364">
        <ele>1046.05</ele>
        <time>2021-08-15T05:17:44Z</time>
      </trkpt>
      <trkpt lat="45.55061" lon="2.93655">
        <ele>1045.57</ele>
        <time>2021-08-15T05:17:47Z</time>
      </trkpt>
      <trkpt lat="45.55071" lon="2.93711">
        <ele>1043.17</ele>
        <time>2021-08-15T05:17:55Z</time>
      </trkpt>
      <trkpt lat="45.55088" lon="2.93759">
        <ele>1040.28</ele>
        <time>2021-08-15T05:18:01Z</time>
      </trkpt>
      <trkpt lat="45.55093" lon="2.93772">
        <ele>1039.32</ele>
        <time>2021-08-15T05:18:03Z</time>
      </trkpt>
      <trkpt lat="45.55096" lon="2.93777">
        <ele>1039.32</ele>
        <time>2021-08-15T05:18:04Z</time>
      </trkpt>
      <trkpt lat="45.55098" lon="2.93783">
        <ele>1039.32</ele>
        <time>2021-08-15T05:18:05Z</time>
      </trkpt>
      <trkpt lat="45.551" lon="2.93788">
        <ele>1039.32</ele>
        <time>2021-08-15T05:18:06Z</time>
      </trkpt>
      <trkpt lat="45.55101" lon="2.93793">
        <ele>1038.84</ele>
        <time>2021-08-15T05:18:07Z</time>
      </trkpt>
      <trkpt lat="45.551" lon="2.93797">
        <ele>1038.84</ele>
        <time>2021-08-15T05:18:08Z</time>
      </trkpt>
      <trkpt lat="45.55098" lon="2.93801">
        <ele>1038.84</ele>
        <time>2021-08-15T05:18:09Z</time>
      </trkpt>
      <trkpt lat="45.55095" lon="2.93801">
        <ele>1038.36</ele>
        <time>2021-08-15T05:18:10Z</time>
      </trkpt>
      <trkpt lat="45.55093" lon="2.938">
        <ele>1037.88</ele>
        <time>2021-08-15T05:18:11Z</time>
      </trkpt>
      <trkpt lat="45.5509" lon="2.93799">
        <ele>1038.36</ele>
        <time>2021-08-15T05:18:12Z</time>
      </trkpt>
      <trkpt lat="45.55078" lon="2.93785">
        <ele>1038.36</ele>
        <time>2021-08-15T05:18:19Z</time>
      </trkpt>
      <trkpt lat="45.55058" lon="2.93765">
        <ele>1038.36</ele>
        <time>2021-08-15T05:18:28Z</time>
      </trkpt>
      <trkpt lat="45.55037" lon="2.93752">
        <ele>1039.32</ele>
        <time>2021-08-15T05:18:36Z</time>
      </trkpt>
      <trkpt lat="45.55016" lon="2.93746">
        <ele>1040.76</ele>
        <time>2021-08-15T05:18:44Z</time>
      </trkpt>
      <trkpt lat="45.54994" lon="2.93746">
        <ele>1041.73</ele>
        <time>2021-08-15T05:18:52Z</time>
      </trkpt>
      <trkpt lat="45.54975" lon="2.93757">
        <ele>1042.69</ele>
        <time>2021-08-15T05:19:00Z</time>
      </trkpt>
      <trkpt lat="45.54953" lon="2.93768">
        <ele>1043.17</ele>
        <time>2021-08-15T05:19:09Z</time>
      </trkpt>
      <trkpt lat="45.54935" lon="2.93771">
        <ele>1044.61</ele>
        <time>2021-08-15T05:19:18Z</time>
      </trkpt>
      <trkpt lat="45.54918" lon="2.93774">
        <ele>1046.05</ele>
        <time>2021-08-15T05:19:27Z</time>
      </trkpt>
      <trkpt lat="45.54903" lon="2.93776">
        <ele>1047.49</ele>
        <time>2021-08-15T05:19:35Z</time>
      </trkpt>
      <trkpt lat="45.54885" lon="2.93779">
        <ele>1048.45</ele>
        <time>2021-08-15T05:19:45Z</time>
      </trkpt>
      <trkpt lat="45.54871" lon="2.9378">
        <ele>1049.42</ele>
        <time>2021-08-15T05:19:52Z</time>
      </trkpt>
      <trkpt lat="45.54853" lon="2.93782">
        <ele>1050.38</ele>
        <time>2021-08-15T05:20:01Z</time>
      </trkpt>
      <trkpt lat="45.54827" lon="2.93785">
        <ele>1051.82</ele>
        <time>2021-08-15T05:20:14Z</time>
      </trkpt>
      <trkpt lat="45.54809" lon="2.93787">
        <ele>1052.78</ele>
        <time>2021-08-15T05:20:23Z</time>
      </trkpt>
      <trkpt lat="45.54797" lon="2.93789">
        <ele>1053.26</ele>
        <time>2021-08-15T05:20:29Z</time>
      </trkpt>
      <trkpt lat="45.54795" lon="2.93788">
        <ele>1053.74</ele>
        <time>2021-08-15T05:20:30Z</time>
      </trkpt>
      <trkpt lat="45.54793" lon="2.93788">
        <ele>1053.74</ele>
        <time>2021-08-15T05:20:31Z</time>
      </trkpt>
      <trkpt lat="45.54782" lon="2.9379">
        <ele>1053.74</ele>
        <time>2021-08-15T05:20:38Z</time>
      </trkpt>
      <trkpt lat="45.54769" lon="2.93794">
        <ele>1053.74</ele>
        <time>2021-08-15T05:20:46Z</time>
      </trkpt>
      <trkpt lat="45.54748" lon="2.93802">
        <ele>1053.74</ele>
        <time>2021-08-15T05:20:55Z</time>
      </trkpt>
      <trkpt lat="45.54739" lon="2.93806">
        <ele>1052.3</ele>
        <time>2021-08-15T05:20:58Z</time>
      </trkpt>
      <trkpt lat="45.54713" lon="2.93817">
        <ele>1050.38</ele>
        <time>2021-08-15T05:21:05Z</time>
      </trkpt>
      <trkpt lat="45.54711" lon="2.93818">
        <ele>1050.38</ele>
        <time>2021-08-15T05:21:10Z</time>
      </trkpt>
      <trkpt lat="45.5471" lon="2.93817">
        <ele>1049.9</ele>
        <time>2021-08-15T05:21:28Z</time>
      </trkpt>
      <trkpt lat="45.54711" lon="2.93817">
        <ele>1049.9</ele>
        <time>2021-08-15T05:21:43Z</time>
      </trkpt>
      <trkpt lat="45.54716" lon="2.93814">
        <ele>1049.9</ele>
        <time>2021-08-15T05:21:59Z</time>
      </trkpt>
      <trkpt lat="45.54721" lon="2.93811">
        <ele>1049.9</ele>
        <time>2021-08-15T05:22:00Z</time>
      </trkpt>
      <trkpt lat="45.5472" lon="2.93812">
        <ele>1049.9</ele>
        <time>2021-08-15T05:22:04Z</time>
      </trkpt>
      <trkpt lat="45.5472" lon="2.93813">
        <ele>1049.9</ele>
        <time>2021-08-15T05:22:05Z</time>
      </trkpt>
      <trkpt lat="45.54719" lon="2.93815">
        <ele>1049.9</ele>
        <time>2021-08-15T05:22:10Z</time>
      </trkpt>
      <trkpt lat="45.54714" lon="2.93817">
        <ele>1049.9</ele>
        <time>2021-08-15T05:22:29Z</time>
      </trkpt>
      <trkpt lat="45.54713" lon="2.93817">
        <ele>1049.9</ele>
        <time>2021-08-15T05:22:47Z</time>
      </trkpt>
      <trkpt lat="45.54712" lon="2.93817">
        <ele>1049.9</ele>
        <time>2021-08-15T05:23:04Z</time>
      </trkpt>
      <trkpt lat="45.54712" lon="2.93817">
        <ele>1049.9</ele>
        <time>2021-08-15T05:23:18Z</time>
      </trkpt>
      <trkpt lat="45.54711" lon="2.93816">
        <ele>1049.9</ele>
        <time>2021-08-15T05:23:43Z</time>
      </trkpt>
      <trkpt lat="45.54711" lon="2.93816">
        <ele>1049.9</ele>
        <time>2021-08-15T05:24:00Z</time>
      </trkpt>
      <trkpt lat="45.54711" lon="2.93817">
        <ele>1049.9</ele>
        <time>2021-08-15T05:24:20Z</time>
      </trkpt>
      <trkpt lat="45.54709" lon="2.93818">
        <ele>1049.9</ele>
        <time>2021-08-15T05:24:27Z</time>
      </trkpt>
      <trkpt lat="45.54707" lon="2.93819">
        <ele>1049.42</ele>
        <time>2021-08-15T05:24:28Z</time>
      </trkpt>
      <trkpt lat="45.54706" lon="2.9382">
        <ele>1049.42</ele>
        <time>2021-08-15T05:24:29Z</time>
      </trkpt>
      <trkpt lat="45.54703" lon="2.93821">
        <ele>1049.42</ele>
        <time>2021-08-15T05:24:30Z</time>
      </trkpt>
      <trkpt lat="45.547" lon="2.93822">
        <ele>1048.94</ele>
        <time>2021-08-15T05:24:31Z</time>
      </trkpt>
      <trkpt lat="45.54675" lon="2.93833">
        <ele>1047.01</ele>
        <time>2021-08-15T05:24:37Z</time>
      </trkpt>
      <trkpt lat="45.54646" lon="2.93844">
        <ele>1043.65</ele>
        <time>2021-08-15T05:24:42Z</time>
      </trkpt>
      <trkpt lat="45.54623" lon="2.93852">
        <ele>1040.28</ele>
        <time>2021-08-15T05:24:46Z</time>
      </trkpt>
      <trkpt lat="45.54596" lon="2.9386">
        <ele>1037.88</ele>
        <time>2021-08-15T05:24:50Z</time>
      </trkpt>
      <trkpt lat="45.54552" lon="2.93869">
        <ele>1038.36</ele>
        <time>2021-08-15T05:24:57Z</time>
      </trkpt>
      <trkpt lat="45.54536" lon="2.93868">
        <ele>1040.28</ele>
        <time>2021-08-15T05:25:03Z</time>
      </trkpt>
      <trkpt lat="45.54523" lon="2.93866">
        <ele>1041.73</ele>
        <time>2021-08-15T05:25:10Z</time>
      </trkpt>
      <trkpt lat="45.54511" lon="2.93866">
        <ele>1043.17</ele>
        <time>2021-08-15T05:25:17Z</time>
      </trkpt>
      <trkpt lat="45.54499" lon="2.93866">
        <ele>1044.13</ele>
        <time>2021-08-15T05:25:24Z</time>
      </trkpt>
      <trkpt lat="45.54483" lon="2.93866">
        <ele>1046.05</ele>
        <time>2021-08-15T05:25:33Z</time>
      </trkpt>
      <trkpt lat="45.54467" lon="2.93865">
        <ele>1047.01</ele>
        <time>2021-08-15T05:25:41Z</time>
      </trkpt>
      <trkpt lat="45.54448" lon="2.93863">
        <ele>1047.97</ele>
        <time>2021-08-15T05:25:50Z</time>
      </trkpt>
      <trkpt lat="45.54434" lon="2.93863">
        <ele>1048.45</ele>
        <time>2021-08-15T05:25:56Z</time>
      </trkpt>
      <trkpt lat="45.54432" lon="2.93866">
        <ele>1047.01</ele>
        <time>2021-08-15T05:25:57Z</time>
      </trkpt>
      <trkpt lat="45.54431" lon="2.9387">
        <ele>1047.01</ele>
        <time>2021-08-15T05:25:58Z</time>
      </trkpt>
      <trkpt lat="45.54429" lon="2.93875">
        <ele>1046.53</ele>
        <time>2021-08-15T05:25:59Z</time>
      </trkpt>
      <trkpt lat="45.54427" lon="2.93878">
        <ele>1046.53</ele>
        <time>2021-08-15T05:26:00Z</time>
      </trkpt>
      <trkpt lat="45.54424" lon="2.93877">
        <ele>1046.53</ele>
        <time>2021-08-15T05:26:01Z</time>
      </trkpt>
      <trkpt lat="45.54422" lon="2.93875">
        <ele>1046.53</ele>
        <time>2021-08-15T05:26:02Z</time>
      </trkpt>
      <trkpt lat="45.5442" lon="2.93871">
        <ele>1045.57</ele>
        <time>2021-08-15T05:26:03Z</time>
      </trkpt>
      <trkpt lat="45.54417" lon="2.93867">
        <ele>1045.09</ele>
        <time>2021-08-15T05:26:04Z</time>
      </trkpt>
      <trkpt lat="45.54398" lon="2.93844">
        <ele>1041.73</ele>
        <time>2021-08-15T05:26:10Z</time>
      </trkpt>
      <trkpt lat="45.5437" lon="2.93817">
        <ele>1038.84</ele>
        <time>2021-08-15T05:26:17Z</time>
      </trkpt>
      <trkpt lat="45.54344" lon="2.93787">
        <ele>1035.48</ele>
        <time>2021-08-15T05:26:23Z</time>
      </trkpt>
      <trkpt lat="45.5434" lon="2.93781">
        <ele>1035</ele>
        <time>2021-08-15T05:26:24Z</time>
      </trkpt>
      <trkpt lat="45.54332" lon="2.93767">
        <ele>1033.55</ele>
        <time>2021-08-15T05:26:26Z</time>
      </trkpt>
      <trkpt lat="45.54329" lon="2.93759">
        <ele>1033.55</ele>
        <time>2021-08-15T05:26:27Z</time>
      </trkpt>
      <trkpt lat="45.54321" lon="2.93743">
        <ele>1032.11</ele>
        <time>2021-08-15T05:26:29Z</time>
      </trkpt>
      <trkpt lat="45.54316" lon="2.93735">
        <ele>1031.63</ele>
        <time>2021-08-15T05:26:30Z</time>
      </trkpt>
      <trkpt lat="45.54312" lon="2.93728">
        <ele>1031.15</ele>
        <time>2021-08-15T05:26:31Z</time>
      </trkpt>
      <trkpt lat="45.54303" lon="2.93713">
        <ele>1030.67</ele>
        <time>2021-08-15T05:26:33Z</time>
      </trkpt>
      <trkpt lat="45.5427" lon="2.93666">
        <ele>1029.71</ele>
        <time>2021-08-15T05:26:40Z</time>
      </trkpt>
      <trkpt lat="45.54267" lon="2.93659">
        <ele>1029.71</ele>
        <time>2021-08-15T05:26:41Z</time>
      </trkpt>
      <trkpt lat="45.54264" lon="2.93651">
        <ele>1029.23</ele>
        <time>2021-08-15T05:26:42Z</time>
      </trkpt>
      <trkpt lat="45.54256" lon="2.93629">
        <ele>1027.31</ele>
        <time>2021-08-15T05:26:45Z</time>
      </trkpt>
      <trkpt lat="45.54252" lon="2.93622">
        <ele>1026.83</ele>
        <time>2021-08-15T05:26:46Z</time>
      </trkpt>
      <trkpt lat="45.54241" lon="2.93602">
        <ele>1025.38</ele>
        <time>2021-08-15T05:26:49Z</time>
      </trkpt>
      <trkpt lat="45.54238" lon="2.93595">
        <ele>1025.38</ele>
        <time>2021-08-15T05:26:50Z</time>
      </trkpt>
      <trkpt lat="45.54227" lon="2.9356">
        <ele>1022.98</ele>
        <time>2021-08-15T05:26:56Z</time>
      </trkpt>
      <trkpt lat="45.54218" lon="2.93534">
        <ele>1020.58</ele>
        <time>2021-08-15T05:27:01Z</time>
      </trkpt>
      <trkpt lat="45.54213" lon="2.93523">
        <ele>1019.13</ele>
        <time>2021-08-15T05:27:03Z</time>
      </trkpt>
      <trkpt lat="45.54208" lon="2.93509">
        <ele>1018.17</ele>
        <time>2021-08-15T05:27:05Z</time>
      </trkpt>
      <trkpt lat="45.54205" lon="2.93502">
        <ele>1017.69</ele>
        <time>2021-08-15T05:27:06Z</time>
      </trkpt>
      <trkpt lat="45.54202" lon="2.93494">
        <ele>1016.73</ele>
        <time>2021-08-15T05:27:07Z</time>
      </trkpt>
      <trkpt lat="45.54198" lon="2.93479">
        <ele>1015.77</ele>
        <time>2021-08-15T05:27:09Z</time>
      </trkpt>
      <trkpt lat="45.54189" lon="2.93456">
        <ele>1015.29</ele>
        <time>2021-08-15T05:27:12Z</time>
      </trkpt>
      <trkpt lat="45.54187" lon="2.93447">
        <ele>1014.33</ele>
        <time>2021-08-15T05:27:13Z</time>
      </trkpt>
      <trkpt lat="45.54183" lon="2.93421">
        <ele>1013.37</ele>
        <time>2021-08-15T05:27:16Z</time>
      </trkpt>
      <trkpt lat="45.54181" lon="2.93413">
        <ele>1013.37</ele>
        <time>2021-08-15T05:27:17Z</time>
      </trkpt>
      <trkpt lat="45.54177" lon="2.934">
        <ele>1013.85</ele>
        <time>2021-08-15T05:27:21Z</time>
      </trkpt>
      <trkpt lat="45.54174" lon="2.93401">
        <ele>1013.85</ele>
        <time>2021-08-15T05:27:37Z</time>
      </trkpt>
      <trkpt lat="45.54174" lon="2.934">
        <ele>1013.85</ele>
        <time>2021-08-15T05:28:00Z</time>
      </trkpt>
      <trkpt lat="45.54173" lon="2.93399">
        <ele>1013.85</ele>
        <time>2021-08-15T05:28:01Z</time>
      </trkpt>
      <trkpt lat="45.54171" lon="2.93398">
        <ele>1013.85</ele>
        <time>2021-08-15T05:28:02Z</time>
      </trkpt>
      <trkpt lat="45.54169" lon="2.93397">
        <ele>1013.85</ele>
        <time>2021-08-15T05:28:03Z</time>
      </trkpt>
      <trkpt lat="45.54166" lon="2.93396">
        <ele>1014.33</ele>
        <time>2021-08-15T05:28:06Z</time>
      </trkpt>
      <trkpt lat="45.54165" lon="2.93397">
        <ele>1014.33</ele>
        <time>2021-08-15T05:28:07Z</time>
      </trkpt>
      <trkpt lat="45.54164" lon="2.93397">
        <ele>1014.33</ele>
        <time>2021-08-15T05:28:08Z</time>
      </trkpt>
      <trkpt lat="45.54155" lon="2.93398">
        <ele>1014.33</ele>
        <time>2021-08-15T05:28:16Z</time>
      </trkpt>
      <trkpt lat="45.5415" lon="2.93398">
        <ele>1015.29</ele>
        <time>2021-08-15T05:28:19Z</time>
      </trkpt>
      <trkpt lat="45.54142" lon="2.934">
        <ele>1015.77</ele>
        <time>2021-08-15T05:28:25Z</time>
      </trkpt>
      <trkpt lat="45.54135" lon="2.93404">
        <ele>1017.21</ele>
        <time>2021-08-15T05:28:33Z</time>
      </trkpt>
      <trkpt lat="45.54128" lon="2.93407">
        <ele>1018.17</ele>
        <time>2021-08-15T05:28:42Z</time>
      </trkpt>
      <trkpt lat="45.54124" lon="2.93413">
        <ele>1019.62</ele>
        <time>2021-08-15T05:28:51Z</time>
      </trkpt>
      <trkpt lat="45.54121" lon="2.93422">
        <ele>1021.06</ele>
        <time>2021-08-15T05:29:00Z</time>
      </trkpt>
      <trkpt lat="45.54119" lon="2.9343">
        <ele>1022.5</ele>
        <time>2021-08-15T05:29:08Z</time>
      </trkpt>
      <trkpt lat="45.54117" lon="2.93441">
        <ele>1023.46</ele>
        <time>2021-08-15T05:29:17Z</time>
      </trkpt>
      <trkpt lat="45.54116" lon="2.9345">
        <ele>1023.94</ele>
        <time>2021-08-15T05:29:27Z</time>
      </trkpt>
      <trkpt lat="45.54116" lon="2.93457">
        <ele>1024.9</ele>
        <time>2021-08-15T05:29:31Z</time>
      </trkpt>
      <trkpt lat="45.54111" lon="2.93477">
        <ele>1027.31</ele>
        <time>2021-08-15T05:29:40Z</time>
      </trkpt>
      <trkpt lat="45.5411" lon="2.93483">
        <ele>1027.31</ele>
        <time>2021-08-15T05:29:42Z</time>
      </trkpt>
      <trkpt lat="45.54104" lon="2.93505">
        <ele>1028.75</ele>
        <time>2021-08-15T05:29:51Z</time>
      </trkpt>
      <trkpt lat="45.54104" lon="2.93508">
        <ele>1029.23</ele>
        <time>2021-08-15T05:29:52Z</time>
      </trkpt>
      <trkpt lat="45.54104" lon="2.9351">
        <ele>1029.23</ele>
        <time>2021-08-15T05:29:53Z</time>
      </trkpt>
      <trkpt lat="45.54104" lon="2.93513">
        <ele>1029.23</ele>
        <time>2021-08-15T05:29:54Z</time>
      </trkpt>
      <trkpt lat="45.54102" lon="2.93535">
        <ele>1030.19</ele>
        <time>2021-08-15T05:30:03Z</time>
      </trkpt>
      <trkpt lat="45.541" lon="2.93554">
        <ele>1031.15</ele>
        <time>2021-08-15T05:30:11Z</time>
      </trkpt>
      <trkpt lat="45.54098" lon="2.93571">
        <ele>1032.59</ele>
        <time>2021-08-15T05:30:19Z</time>
      </trkpt>
      <trkpt lat="45.54097" lon="2.93585">
        <ele>1033.55</ele>
        <time>2021-08-15T05:30:26Z</time>
      </trkpt>
      <trkpt lat="45.54096" lon="2.93599">
        <ele>1034.52</ele>
        <time>2021-08-15T05:30:34Z</time>
      </trkpt>
      <trkpt lat="45.54095" lon="2.93611">
        <ele>1035.96</ele>
        <time>2021-08-15T05:30:42Z</time>
      </trkpt>
      <trkpt lat="45.54094" lon="2.93624">
        <ele>1037.4</ele>
        <time>2021-08-15T05:30:49Z</time>
      </trkpt>
      <trkpt lat="45.54093" lon="2.93636">
        <ele>1038.36</ele>
        <time>2021-08-15T05:30:56Z</time>
      </trkpt>
      <trkpt lat="45.54091" lon="2.93654">
        <ele>1039.32</ele>
        <time>2021-08-15T05:31:04Z</time>
      </trkpt>
      <trkpt lat="45.54089" lon="2.93671">
        <ele>1039.8</ele>
        <time>2021-08-15T05:31:11Z</time>
      </trkpt>
      <trkpt lat="45.54088" lon="2.93689">
        <ele>1041.25</ele>
        <time>2021-08-15T05:31:18Z</time>
      </trkpt>
      <trkpt lat="45.54086" lon="2.93707">
        <ele>1042.21</ele>
        <time>2021-08-15T05:31:25Z</time>
      </trkpt>
      <trkpt lat="45.54084" lon="2.93718">
        <ele>1043.65</ele>
        <time>2021-08-15T05:31:32Z</time>
      </trkpt>
      <trkpt lat="45.54084" lon="2.93729">
        <ele>1044.61</ele>
        <time>2021-08-15T05:31:39Z</time>
      </trkpt>
      <trkpt lat="45.54083" lon="2.93734">
        <ele>1045.09</ele>
        <time>2021-08-15T05:31:42Z</time>
      </trkpt>
      <trkpt lat="45.54082" lon="2.93738">
        <ele>1045.57</ele>
        <time>2021-08-15T05:31:44Z</time>
      </trkpt>
      <trkpt lat="45.54081" lon="2.93739">
        <ele>1045.57</ele>
        <time>2021-08-15T05:31:45Z</time>
      </trkpt>
      <trkpt lat="45.54078" lon="2.93744">
        <ele>1046.53</ele>
        <time>2021-08-15T05:31:51Z</time>
      </trkpt>
      <trkpt lat="45.54077" lon="2.93743">
        <ele>1046.53</ele>
        <time>2021-08-15T05:31:52Z</time>
      </trkpt>
      <trkpt lat="45.54077" lon="2.93742">
        <ele>1046.53</ele>
        <time>2021-08-15T05:31:53Z</time>
      </trkpt>
      <trkpt lat="45.54077" lon="2.93742">
        <ele>1046.53</ele>
        <time>2021-08-15T05:31:54Z</time>
      </trkpt>
      <trkpt lat="45.54076" lon="2.93741">
        <ele>1047.49</ele>
        <time>2021-08-15T05:31:55Z</time>
      </trkpt>
      <trkpt lat="45.54076" lon="2.9374">
        <ele>1047.49</ele>
        <time>2021-08-15T05:31:56Z</time>
      </trkpt>
      <trkpt lat="45.54076" lon="2.93736">
        <ele>1047.97</ele>
        <time>2021-08-15T05:32:00Z</time>
      </trkpt>
      <trkpt lat="45.54075" lon="2.93734">
        <ele>1047.97</ele>
        <time>2021-08-15T05:32:01Z</time>
      </trkpt>
      <trkpt lat="45.54071" lon="2.93708">
        <ele>1048.45</ele>
        <time>2021-08-15T05:32:10Z</time>
      </trkpt>
      <trkpt lat="45.54069" lon="2.93685">
        <ele>1049.42</ele>
        <time>2021-08-15T05:32:18Z</time>
      </trkpt>
      <trkpt lat="45.54067" lon="2.93664">
        <ele>1049.42</ele>
        <time>2021-08-15T05:32:25Z</time>
      </trkpt>
      <trkpt lat="45.54063" lon="2.93638">
        <ele>1049.9</ele>
        <time>2021-08-15T05:32:33Z</time>
      </trkpt>
      <trkpt lat="45.54059" lon="2.93612">
        <ele>1050.38</ele>
        <time>2021-08-15T05:32:39Z</time>
      </trkpt>
      <trkpt lat="45.54053" lon="2.93586">
        <ele>1050.86</ele>
        <time>2021-08-15T05:32:46Z</time>
      </trkpt>
      <trkpt lat="45.5404" lon="2.93574">
        <ele>1051.82</ele>
        <time>2021-08-15T05:32:52Z</time>
      </trkpt>
      <trkpt lat="45.5403" lon="2.93572">
        <ele>1052.3</ele>
        <time>2021-08-15T05:32:59Z</time>
      </trkpt>
      <trkpt lat="45.5402" lon="2.93571">
        <ele>1053.26</ele>
        <time>2021-08-15T05:33:07Z</time>
      </trkpt>
      <trkpt lat="45.54012" lon="2.93572">
        <ele>1054.22</ele>
        <time>2021-08-15T05:33:14Z</time>
      </trkpt>
      <trkpt lat="45.54" lon="2.93574">
        <ele>1054.7</ele>
        <time>2021-08-15T05:33:24Z</time>
      </trkpt>
      <trkpt lat="45.53992" lon="2.93576">
        <ele>1055.67</ele>
        <time>2021-08-15T05:33:32Z</time>
      </trkpt>
      <trkpt lat="45.53987" lon="2.93577">
        <ele>1056.15</ele>
        <time>2021-08-15T05:33:40Z</time>
      </trkpt>
      <trkpt lat="45.53986" lon="2.93578">
        <ele>1056.15</ele>
        <time>2021-08-15T05:33:41Z</time>
      </trkpt>
      <trkpt lat="45.53985" lon="2.93578">
        <ele>1056.63</ele>
        <time>2021-08-15T05:33:42Z</time>
      </trkpt>
      <trkpt lat="45.53972" lon="2.93582">
        <ele>1057.59</ele>
        <time>2021-08-15T05:33:51Z</time>
      </trkpt>
      <trkpt lat="45.53956" lon="2.93587">
        <ele>1058.55</ele>
        <time>2021-08-15T05:34:02Z</time>
      </trkpt>
      <trkpt lat="45.53947" lon="2.93591">
        <ele>1059.51</ele>
        <time>2021-08-15T05:34:09Z</time>
      </trkpt>
      <trkpt lat="45.53931" lon="2.93595">
        <ele>1060.47</ele>
        <time>2021-08-15T05:34:20Z</time>
      </trkpt>
      <trkpt lat="45.53918" lon="2.93601">
        <ele>1061.91</ele>
        <time>2021-08-15T05:34:30Z</time>
      </trkpt>
      <trkpt lat="45.53917" lon="2.93601">
        <ele>1061.91</ele>
        <time>2021-08-15T05:34:31Z</time>
      </trkpt>
      <trkpt lat="45.53916" lon="2.93602">
        <ele>1061.91</ele>
        <time>2021-08-15T05:34:32Z</time>
      </trkpt>
      <trkpt lat="45.53915" lon="2.93602">
        <ele>1061.91</ele>
        <time>2021-08-15T05:34:33Z</time>
      </trkpt>
      <trkpt lat="45.53914" lon="2.93603">
        <ele>1062.87</ele>
        <time>2021-08-15T05:34:34Z</time>
      </trkpt>
      <trkpt lat="45.53911" lon="2.93604">
        <ele>1062.87</ele>
        <time>2021-08-15T05:34:36Z</time>
      </trkpt>
      <trkpt lat="45.53909" lon="2.93604">
        <ele>1062.87</ele>
        <time>2021-08-15T05:34:37Z</time>
      </trkpt>
      <trkpt lat="45.53908" lon="2.93605">
        <ele>1062.87</ele>
        <time>2021-08-15T05:34:38Z</time>
      </trkpt>
      <trkpt lat="45.53906" lon="2.93606">
        <ele>1062.87</ele>
        <time>2021-08-15T05:34:39Z</time>
      </trkpt>
      <trkpt lat="45.53905" lon="2.93606">
        <ele>1063.36</ele>
        <time>2021-08-15T05:34:40Z</time>
      </trkpt>
      <trkpt lat="45.53903" lon="2.93607">
        <ele>1063.36</ele>
        <time>2021-08-15T05:34:41Z</time>
      </trkpt>
      <trkpt lat="45.53902" lon="2.93607">
        <ele>1062.87</ele>
        <time>2021-08-15T05:34:42Z</time>
      </trkpt>
      <trkpt lat="45.53892" lon="2.93613">
        <ele>1063.84</ele>
        <time>2021-08-15T05:34:49Z</time>
      </trkpt>
      <trkpt lat="45.5389" lon="2.93614">
        <ele>1063.84</ele>
        <time>2021-08-15T05:34:50Z</time>
      </trkpt>
      <trkpt lat="45.53889" lon="2.93614">
        <ele>1063.84</ele>
        <time>2021-08-15T05:34:51Z</time>
      </trkpt>
      <trkpt lat="45.53887" lon="2.93615">
        <ele>1063.84</ele>
        <time>2021-08-15T05:34:52Z</time>
      </trkpt>
      <trkpt lat="45.53886" lon="2.93615">
        <ele>1064.32</ele>
        <time>2021-08-15T05:34:53Z</time>
      </trkpt>
      <trkpt lat="45.53884" lon="2.93616">
        <ele>1064.32</ele>
        <time>2021-08-15T05:34:54Z</time>
      </trkpt>
      <trkpt lat="45.53883" lon="2.93617">
        <ele>1064.32</ele>
        <time>2021-08-15T05:34:55Z</time>
      </trkpt>
      <trkpt lat="45.53874" lon="2.93621">
        <ele>1064.8</ele>
        <time>2021-08-15T05:35:01Z</time>
      </trkpt>
      <trkpt lat="45.53873" lon="2.93622">
        <ele>1064.8</ele>
        <time>2021-08-15T05:35:02Z</time>
      </trkpt>
      <trkpt lat="45.53872" lon="2.93623">
        <ele>1064.8</ele>
        <time>2021-08-15T05:35:03Z</time>
      </trkpt>
      <trkpt lat="45.5387" lon="2.93623">
        <ele>1064.8</ele>
        <time>2021-08-15T05:35:04Z</time>
      </trkpt>
      <trkpt lat="45.53869" lon="2.93624">
        <ele>1065.28</ele>
        <time>2021-08-15T05:35:05Z</time>
      </trkpt>
      <trkpt lat="45.53859" lon="2.9363">
        <ele>1065.76</ele>
        <time>2021-08-15T05:35:12Z</time>
      </trkpt>
      <trkpt lat="45.53858" lon="2.93631">
        <ele>1066.24</ele>
        <time>2021-08-15T05:35:13Z</time>
      </trkpt>
      <trkpt lat="45.53857" lon="2.93632">
        <ele>1066.24</ele>
        <time>2021-08-15T05:35:14Z</time>
      </trkpt>
      <trkpt lat="45.53856" lon="2.93633">
        <ele>1066.24</ele>
        <time>2021-08-15T05:35:15Z</time>
      </trkpt>
      <trkpt lat="45.53854" lon="2.93634">
        <ele>1066.72</ele>
        <time>2021-08-15T05:35:16Z</time>
      </trkpt>
      <trkpt lat="45.53853" lon="2.93635">
        <ele>1066.72</ele>
        <time>2021-08-15T05:35:17Z</time>
      </trkpt>
      <trkpt lat="45.53852" lon="2.93636">
        <ele>1066.72</ele>
        <time>2021-08-15T05:35:18Z</time>
      </trkpt>
      <trkpt lat="45.53851" lon="2.93637">
        <ele>1067.2</ele>
        <time>2021-08-15T05:35:19Z</time>
      </trkpt>
      <trkpt lat="45.53841" lon="2.93645">
        <ele>1067.68</ele>
        <time>2021-08-15T05:35:27Z</time>
      </trkpt>
      <trkpt lat="45.5383" lon="2.9365">
        <ele>1068.64</ele>
        <time>2021-08-15T05:35:35Z</time>
      </trkpt>
      <trkpt lat="45.53827" lon="2.9365">
        <ele>1068.64</ele>
        <time>2021-08-15T05:35:37Z</time>
      </trkpt>
      <trkpt lat="45.53826" lon="2.93651">
        <ele>1068.64</ele>
        <time>2021-08-15T05:35:38Z</time>
      </trkpt>
      <trkpt lat="45.53812" lon="2.93653">
        <ele>1069.6</ele>
        <time>2021-08-15T05:35:47Z</time>
      </trkpt>
      <trkpt lat="45.53798" lon="2.93652">
        <ele>1070.57</ele>
        <time>2021-08-15T05:35:56Z</time>
      </trkpt>
      <trkpt lat="45.53787" lon="2.93652">
        <ele>1071.53</ele>
        <time>2021-08-15T05:36:03Z</time>
      </trkpt>
      <trkpt lat="45.53785" lon="2.93652">
        <ele>1071.53</ele>
        <time>2021-08-15T05:36:04Z</time>
      </trkpt>
      <trkpt lat="45.53784" lon="2.93652">
        <ele>1071.53</ele>
        <time>2021-08-15T05:36:05Z</time>
      </trkpt>
      <trkpt lat="45.53765" lon="2.93657">
        <ele>1072.49</ele>
        <time>2021-08-15T05:36:15Z</time>
      </trkpt>
      <trkpt lat="45.53748" lon="2.93664">
        <ele>1072.97</ele>
        <time>2021-08-15T05:36:23Z</time>
      </trkpt>
      <trkpt lat="45.53728" lon="2.93671">
        <ele>1073.93</ele>
        <time>2021-08-15T05:36:33Z</time>
      </trkpt>
      <trkpt lat="45.53715" lon="2.93675">
        <ele>1074.41</ele>
        <time>2021-08-15T05:36:40Z</time>
      </trkpt>
      <trkpt lat="45.53699" lon="2.93679">
        <ele>1075.37</ele>
        <time>2021-08-15T05:36:48Z</time>
      </trkpt>
      <trkpt lat="45.53685" lon="2.93686">
        <ele>1075.37</ele>
        <time>2021-08-15T05:36:56Z</time>
      </trkpt>
      <trkpt lat="45.53672" lon="2.93691">
        <ele>1076.81</ele>
        <time>2021-08-15T05:37:04Z</time>
      </trkpt>
      <trkpt lat="45.5366" lon="2.93695">
        <ele>1077.29</ele>
        <time>2021-08-15T05:37:11Z</time>
      </trkpt>
      <trkpt lat="45.53647" lon="2.93699">
        <ele>1078.74</ele>
        <time>2021-08-15T05:37:19Z</time>
      </trkpt>
      <trkpt lat="45.53631" lon="2.93703">
        <ele>1079.7</ele>
        <time>2021-08-15T05:37:29Z</time>
      </trkpt>
      <trkpt lat="45.53615" lon="2.9371">
        <ele>1081.62</ele>
        <time>2021-08-15T05:37:39Z</time>
      </trkpt>
      <trkpt lat="45.536" lon="2.93714">
        <ele>1082.58</ele>
        <time>2021-08-15T05:37:50Z</time>
      </trkpt>
      <trkpt lat="45.53587" lon="2.93717">
        <ele>1083.54</ele>
        <time>2021-08-15T05:37:59Z</time>
      </trkpt>
      <trkpt lat="45.53577" lon="2.93719">
        <ele>1084.99</ele>
        <time>2021-08-15T05:38:06Z</time>
      </trkpt>
      <trkpt lat="45.53566" lon="2.93722">
        <ele>1085.95</ele>
        <time>2021-08-15T05:38:14Z</time>
      </trkpt>
      <trkpt lat="45.5355" lon="2.93724">
        <ele>1087.39</ele>
        <time>2021-08-15T05:38:25Z</time>
      </trkpt>
      <trkpt lat="45.53538" lon="2.93727">
        <ele>1088.35</ele>
        <time>2021-08-15T05:38:34Z</time>
      </trkpt>
      <trkpt lat="45.53525" lon="2.9373">
        <ele>1089.79</ele>
        <time>2021-08-15T05:38:43Z</time>
      </trkpt>
      <trkpt lat="45.53512" lon="2.93733">
        <ele>1091.23</ele>
        <time>2021-08-15T05:38:52Z</time>
      </trkpt>
      <trkpt lat="45.53511" lon="2.93733">
        <ele>1091.23</ele>
        <time>2021-08-15T05:38:53Z</time>
      </trkpt>
      <trkpt lat="45.53509" lon="2.93733">
        <ele>1091.23</ele>
        <time>2021-08-15T05:38:54Z</time>
      </trkpt>
      <trkpt lat="45.53493" lon="2.93736">
        <ele>1092.68</ele>
        <time>2021-08-15T05:39:05Z</time>
      </trkpt>
      <trkpt lat="45.53491" lon="2.93736">
        <ele>1092.68</ele>
        <time>2021-08-15T05:39:06Z</time>
      </trkpt>
      <trkpt lat="45.5349" lon="2.93736">
        <ele>1092.68</ele>
        <time>2021-08-15T05:39:07Z</time>
      </trkpt>
      <trkpt lat="45.53488" lon="2.93737">
        <ele>1092.68</ele>
        <time>2021-08-15T05:39:08Z</time>
      </trkpt>
      <trkpt lat="45.53474" lon="2.9374">
        <ele>1094.12</ele>
        <time>2021-08-15T05:39:17Z</time>
      </trkpt>
      <trkpt lat="45.53469" lon="2.9374">
        <ele>1094.12</ele>
        <time>2021-08-15T05:39:20Z</time>
      </trkpt>
      <trkpt lat="45.53467" lon="2.9374">
        <ele>1094.6</ele>
        <time>2021-08-15T05:39:21Z</time>
      </trkpt>
      <trkpt lat="45.53466" lon="2.93741">
        <ele>1094.6</ele>
        <time>2021-08-15T05:39:22Z</time>
      </trkpt>
      <trkpt lat="45.53464" lon="2.93741">
        <ele>1094.6</ele>
        <time>2021-08-15T05:39:23Z</time>
      </trkpt>
      <trkpt lat="45.53463" lon="2.93741">
        <ele>1094.6</ele>
        <time>2021-08-15T05:39:24Z</time>
      </trkpt>
      <trkpt lat="45.53455" lon="2.93742">
        <ele>1095.08</ele>
        <time>2021-08-15T05:39:29Z</time>
      </trkpt>
      <trkpt lat="45.5344" lon="2.93742">
        <ele>1096.52</ele>
        <time>2021-08-15T05:39:38Z</time>
      </trkpt>
      <trkpt lat="45.53427" lon="2.93741">
        <ele>1096.52</ele>
        <time>2021-08-15T05:39:46Z</time>
      </trkpt>
      <trkpt lat="45.53415" lon="2.93739">
        <ele>1097</ele>
        <time>2021-08-15T05:39:53Z</time>
      </trkpt>
      <trkpt lat="45.53416" lon="2.9374">
        <ele>1097</ele>
        <time>2021-08-15T05:40:02Z</time>
      </trkpt>
      <trkpt lat="45.53415" lon="2.93739">
        <ele>1097</ele>
        <time>2021-08-15T05:40:15Z</time>
      </trkpt>
      <trkpt lat="45.53416" lon="2.93739">
        <ele>1097</ele>
        <time>2021-08-15T05:40:32Z</time>
      </trkpt>
      <trkpt lat="45.53416" lon="2.93739">
        <ele>1097</ele>
        <time>2021-08-15T05:40:53Z</time>
      </trkpt>
      <trkpt lat="45.53416" lon="2.93739">
        <ele>1097</ele>
        <time>2021-08-15T05:41:11Z</time>
      </trkpt>
      <trkpt lat="45.53416" lon="2.9374">
        <ele>1097.48</ele>
        <time>2021-08-15T05:41:29Z</time>
      </trkpt>
      <trkpt lat="45.53416" lon="2.93739">
        <ele>1097.48</ele>
        <time>2021-08-15T05:41:47Z</time>
      </trkpt>
      <trkpt lat="45.53416" lon="2.9374">
        <ele>1097.48</ele>
        <time>2021-08-15T05:42:02Z</time>
      </trkpt>
      <trkpt lat="45.53416" lon="2.9374">
        <ele>1097.48</ele>
        <time>2021-08-15T05:42:12Z</time>
      </trkpt>
      <trkpt lat="45.53416" lon="2.9374">
        <ele>1097.48</ele>
        <time>2021-08-15T05:42:37Z</time>
      </trkpt>
      <trkpt lat="45.53416" lon="2.93739">
        <ele>1097.48</ele>
        <time>2021-08-15T05:43:01Z</time>
      </trkpt>
      <trkpt lat="45.53417" lon="2.93739">
        <ele>1097.48</ele>
        <time>2021-08-15T05:43:31Z</time>
      </trkpt>
      <trkpt lat="45.53416" lon="2.93739">
        <ele>1097.48</ele>
        <time>2021-08-15T05:43:57Z</time>
      </trkpt>
      <trkpt lat="45.53416" lon="2.93739">
        <ele>1097.48</ele>
        <time>2021-08-15T05:44:20Z</time>
      </trkpt>
      <trkpt lat="45.53417" lon="2.93739">
        <ele>1097.48</ele>
        <time>2021-08-15T05:44:45Z</time>
      </trkpt>
      <trkpt lat="45.53417" lon="2.93739">
        <ele>1097.48</ele>
        <time>2021-08-15T05:45:04Z</time>
      </trkpt>
      <trkpt lat="45.53417" lon="2.9374">
        <ele>1097.48</ele>
        <time>2021-08-15T05:45:22Z</time>
      </trkpt>
      <trkpt lat="45.53417" lon="2.9374">
        <ele>1097.96</ele>
        <time>2021-08-15T05:45:43Z</time>
      </trkpt>
      <trkpt lat="45.53416" lon="2.93739">
        <ele>1097.96</ele>
        <time>2021-08-15T05:46:02Z</time>
      </trkpt>
      <trkpt lat="45.53416" lon="2.93739">
        <ele>1097</ele>
        <time>2021-08-15T05:46:20Z</time>
      </trkpt>
      <trkpt lat="45.53416" lon="2.9374">
        <ele>1097</ele>
        <time>2021-08-15T05:46:45Z</time>
      </trkpt>
      <trkpt lat="45.53415" lon="2.93738">
        <ele>1097</ele>
        <time>2021-08-15T05:47:01Z</time>
      </trkpt>
      <trkpt lat="45.53416" lon="2.93738">
        <ele>1096.52</ele>
        <time>2021-08-15T05:47:20Z</time>
      </trkpt>
      <trkpt lat="45.53416" lon="2.93739">
        <ele>1096.52</ele>
        <time>2021-08-15T05:47:44Z</time>
      </trkpt>
      <trkpt lat="45.53415" lon="2.9374">
        <ele>1096.52</ele>
        <time>2021-08-15T05:48:06Z</time>
      </trkpt>
      <trkpt lat="45.53416" lon="2.93739">
        <ele>1097.48</ele>
        <time>2021-08-15T05:48:31Z</time>
      </trkpt>
      <trkpt lat="45.53416" lon="2.9374">
        <ele>1097.48</ele>
        <time>2021-08-15T05:48:54Z</time>
      </trkpt>
      <trkpt lat="45.53416" lon="2.93739">
        <ele>1097.48</ele>
        <time>2021-08-15T05:49:21Z</time>
      </trkpt>
      <trkpt lat="45.53416" lon="2.9374">
        <ele>1097.48</ele>
        <time>2021-08-15T05:49:40Z</time>
      </trkpt>
      <trkpt lat="45.53417" lon="2.9374">
        <ele>1097.48</ele>
        <time>2021-08-15T05:49:55Z</time>
      </trkpt>
      <trkpt lat="45.53416" lon="2.9374">
        <ele>1097.96</ele>
        <time>2021-08-15T05:50:15Z</time>
      </trkpt>
      <trkpt lat="45.53415" lon="2.9374">
        <ele>1097.96</ele>
        <time>2021-08-15T05:50:33Z</time>
      </trkpt>
      <trkpt lat="45.53416" lon="2.93739">
        <ele>1097.96</ele>
        <time>2021-08-15T05:50:56Z</time>
      </trkpt>
      <trkpt lat="45.53416" lon="2.93739">
        <ele>1097.96</ele>
        <time>2021-08-15T05:51:11Z</time>
      </trkpt>
      <trkpt lat="45.53416" lon="2.93739">
        <ele>1097.96</ele>
        <time>2021-08-15T05:51:33Z</time>
      </trkpt>
      <trkpt lat="45.53416" lon="2.93739">
        <ele>1097.96</ele>
        <time>2021-08-15T05:51:48Z</time>
      </trkpt>
      <trkpt lat="45.53416" lon="2.93739">
        <ele>1097.96</ele>
        <time>2021-08-15T05:52:00Z</time>
      </trkpt>
      <trkpt lat="45.53415" lon="2.93739">
        <ele>1097.96</ele>
        <time>2021-08-15T05:52:10Z</time>
      </trkpt>
      <trkpt lat="45.53416" lon="2.9374">
        <ele>1097.96</ele>
        <time>2021-08-15T05:52:31Z</time>
      </trkpt>
      <trkpt lat="45.53415" lon="2.9374">
        <ele>1097.96</ele>
        <time>2021-08-15T05:52:45Z</time>
      </trkpt>
      <trkpt lat="45.53416" lon="2.9374">
        <ele>1097.96</ele>
        <time>2021-08-15T05:53:06Z</time>
      </trkpt>
      <trkpt lat="45.53416" lon="2.93739">
        <ele>1097.96</ele>
        <time>2021-08-15T05:53:25Z</time>
      </trkpt>
      <trkpt lat="45.53416" lon="2.93739">
        <ele>1096.52</ele>
        <time>2021-08-15T05:53:27Z</time>
      </trkpt>
      <trkpt lat="45.53415" lon="2.9374">
        <ele>1096.52</ele>
        <time>2021-08-15T05:53:50Z</time>
      </trkpt>
      <trkpt lat="45.53416" lon="2.9374">
        <ele>1096.52</ele>
        <time>2021-08-15T05:54:11Z</time>
      </trkpt>
      <trkpt lat="45.53416" lon="2.9374">
        <ele>1096.52</ele>
        <time>2021-08-15T05:54:28Z</time>
      </trkpt>
      <trkpt lat="45.53416" lon="2.9374">
        <ele>1096.04</ele>
        <time>2021-08-15T05:54:43Z</time>
      </trkpt>
      <trkpt lat="45.53416" lon="2.9374">
        <ele>1096.04</ele>
        <time>2021-08-15T05:54:58Z</time>
      </trkpt>
      <trkpt lat="45.53417" lon="2.93739">
        <ele>1096.04</ele>
        <time>2021-08-15T05:55:10Z</time>
      </trkpt>
      <trkpt lat="45.53417" lon="2.93739">
        <ele>1096.04</ele>
        <time>2021-08-15T05:55:22Z</time>
      </trkpt>
      <trkpt lat="45.53416" lon="2.93739">
        <ele>1095.56</ele>
        <time>2021-08-15T05:55:39Z</time>
      </trkpt>
      <trkpt lat="45.53414" lon="2.93739">
        <ele>1095.56</ele>
        <time>2021-08-15T05:55:42Z</time>
      </trkpt>
      <trkpt lat="45.53412" lon="2.93739">
        <ele>1095.56</ele>
        <time>2021-08-15T05:55:43Z</time>
      </trkpt>
      <trkpt lat="45.53411" lon="2.93739">
        <ele>1095.56</ele>
        <time>2021-08-15T05:55:44Z</time>
      </trkpt>
      <trkpt lat="45.53393" lon="2.93736">
        <ele>1095.56</ele>
        <time>2021-08-15T05:55:52Z</time>
      </trkpt>
      <trkpt lat="45.53369" lon="2.93733">
        <ele>1095.56</ele>
        <time>2021-08-15T05:55:59Z</time>
      </trkpt>
      <trkpt lat="45.53345" lon="2.93728">
        <ele>1095.56</ele>
        <time>2021-08-15T05:56:06Z</time>
      </trkpt>
      <trkpt lat="45.53319" lon="2.93726">
        <ele>1095.08</ele>
        <time>2021-08-15T05:56:13Z</time>
      </trkpt>
      <trkpt lat="45.53301" lon="2.93724">
        <ele>1094.6</ele>
        <time>2021-08-15T05:56:17Z</time>
      </trkpt>
      <trkpt lat="45.53296" lon="2.93723">
        <ele>1094.6</ele>
        <time>2021-08-15T05:56:18Z</time>
      </trkpt>
      <trkpt lat="45.53282" lon="2.9372">
        <ele>1094.12</ele>
        <time>2021-08-15T05:56:21Z</time>
      </trkpt>
      <trkpt lat="45.53277" lon="2.93719">
        <ele>1094.12</ele>
        <time>2021-08-15T05:56:22Z</time>
      </trkpt>
      <trkpt lat="45.53272" lon="2.93718">
        <ele>1094.12</ele>
        <time>2021-08-15T05:56:23Z</time>
      </trkpt>
      <trkpt lat="45.53267" lon="2.93717">
        <ele>1093.64</ele>
        <time>2021-08-15T05:56:24Z</time>
      </trkpt>
      <trkpt lat="45.53262" lon="2.93716">
        <ele>1093.64</ele>
        <time>2021-08-15T05:56:25Z</time>
      </trkpt>
      <trkpt lat="45.53258" lon="2.93715">
        <ele>1093.64</ele>
        <time>2021-08-15T05:56:26Z</time>
      </trkpt>
      <trkpt lat="45.53253" lon="2.93714">
        <ele>1093.64</ele>
        <time>2021-08-15T05:56:27Z</time>
      </trkpt>
      <trkpt lat="45.53249" lon="2.93714">
        <ele>1093.64</ele>
        <time>2021-08-15T05:56:28Z</time>
      </trkpt>
      <trkpt lat="45.53245" lon="2.93714">
        <ele>1093.64</ele>
        <time>2021-08-15T05:56:29Z</time>
      </trkpt>
      <trkpt lat="45.53237" lon="2.93712">
        <ele>1093.64</ele>
        <time>2021-08-15T05:56:31Z</time>
      </trkpt>
      <trkpt lat="45.53233" lon="2.9371">
        <ele>1093.64</ele>
        <time>2021-08-15T05:56:32Z</time>
      </trkpt>
      <trkpt lat="45.53224" lon="2.93705">
        <ele>1093.64</ele>
        <time>2021-08-15T05:56:34Z</time>
      </trkpt>
      <trkpt lat="45.53216" lon="2.93703">
        <ele>1093.16</ele>
        <time>2021-08-15T05:56:36Z</time>
      </trkpt>
      <trkpt lat="45.53212" lon="2.93702">
        <ele>1092.68</ele>
        <time>2021-08-15T05:56:37Z</time>
      </trkpt>
      <trkpt lat="45.53186" lon="2.93686">
        <ele>1089.79</ele>
        <time>2021-08-15T05:56:42Z</time>
      </trkpt>
      <trkpt lat="45.53181" lon="2.93682">
        <ele>1089.79</ele>
        <time>2021-08-15T05:56:43Z</time>
      </trkpt>
      <trkpt lat="45.53175" lon="2.93678">
        <ele>1089.31</ele>
        <time>2021-08-15T05:56:44Z</time>
      </trkpt>
      <trkpt lat="45.53124" lon="2.93655">
        <ele>1087.87</ele>
        <time>2021-08-15T05:56:52Z</time>
      </trkpt>
      <trkpt lat="45.53118" lon="2.93654">
        <ele>1087.87</ele>
        <time>2021-08-15T05:56:53Z</time>
      </trkpt>
      <trkpt lat="45.53111" lon="2.93652">
        <ele>1087.87</ele>
        <time>2021-08-15T05:56:54Z</time>
      </trkpt>
      <trkpt lat="45.53105" lon="2.93651">
        <ele>1087.87</ele>
        <time>2021-08-15T05:56:55Z</time>
      </trkpt>
      <trkpt lat="45.53085" lon="2.9365">
        <ele>1087.87</ele>
        <time>2021-08-15T05:56:59Z</time>
      </trkpt>
      <trkpt lat="45.53082" lon="2.93649">
        <ele>1087.87</ele>
        <time>2021-08-15T05:57:00Z</time>
      </trkpt>
      <trkpt lat="45.53077" lon="2.93648">
        <ele>1087.87</ele>
        <time>2021-08-15T05:57:01Z</time>
      </trkpt>
      <trkpt lat="45.53069" lon="2.93649">
        <ele>1089.31</ele>
        <time>2021-08-15T05:57:03Z</time>
      </trkpt>
      <trkpt lat="45.53039" lon="2.93651">
        <ele>1089.31</ele>
        <time>2021-08-15T05:57:10Z</time>
      </trkpt>
      <trkpt lat="45.53035" lon="2.93651">
        <ele>1089.31</ele>
        <time>2021-08-15T05:57:11Z</time>
      </trkpt>
      <trkpt lat="45.53031" lon="2.9365">
        <ele>1089.31</ele>
        <time>2021-08-15T05:57:12Z</time>
      </trkpt>
      <trkpt lat="45.52998" lon="2.9365">
        <ele>1089.79</ele>
        <time>2021-08-15T05:57:21Z</time>
      </trkpt>
      <trkpt lat="45.52975" lon="2.93649">
        <ele>1089.79</ele>
        <time>2021-08-15T05:57:28Z</time>
      </trkpt>
      <trkpt lat="45.52942" lon="2.93644">
        <ele>1087.87</ele>
        <time>2021-08-15T05:57:35Z</time>
      </trkpt>
      <trkpt lat="45.52936" lon="2.93642">
        <ele>1086.91</ele>
        <time>2021-08-15T05:57:36Z</time>
      </trkpt>
      <trkpt lat="45.52929" lon="2.93641">
        <ele>1086.43</ele>
        <time>2021-08-15T05:57:37Z</time>
      </trkpt>
      <trkpt lat="45.52914" lon="2.93639">
        <ele>1084.99</ele>
        <time>2021-08-15T05:57:39Z</time>
      </trkpt>
      <trkpt lat="45.52906" lon="2.93637">
        <ele>1084.02</ele>
        <time>2021-08-15T05:57:40Z</time>
      </trkpt>
      <trkpt lat="45.52874" lon="2.9363">
        <ele>1081.62</ele>
        <time>2021-08-15T05:57:44Z</time>
      </trkpt>
      <trkpt lat="45.52866" lon="2.93631">
        <ele>1081.14</ele>
        <time>2021-08-15T05:57:45Z</time>
      </trkpt>
      <trkpt lat="45.52835" lon="2.93634">
        <ele>1079.7</ele>
        <time>2021-08-15T05:57:49Z</time>
      </trkpt>
      <trkpt lat="45.52829" lon="2.93632">
        <ele>1079.7</ele>
        <time>2021-08-15T05:57:50Z</time>
      </trkpt>
      <trkpt lat="45.52815" lon="2.93626">
        <ele>1078.26</ele>
        <time>2021-08-15T05:57:52Z</time>
      </trkpt>
      <trkpt lat="45.52809" lon="2.93622">
        <ele>1077.29</ele>
        <time>2021-08-15T05:57:53Z</time>
      </trkpt>
      <trkpt lat="45.52783" lon="2.93599">
        <ele>1075.37</ele>
        <time>2021-08-15T05:57:57Z</time>
      </trkpt>
      <trkpt lat="45.5277" lon="2.93588">
        <ele>1074.89</ele>
        <time>2021-08-15T05:57:59Z</time>
      </trkpt>
      <trkpt lat="45.52764" lon="2.93585">
        <ele>1074.89</ele>
        <time>2021-08-15T05:58:00Z</time>
      </trkpt>
      <trkpt lat="45.52758" lon="2.93584">
        <ele>1074.89</ele>
        <time>2021-08-15T05:58:01Z</time>
      </trkpt>
      <trkpt lat="45.52752" lon="2.93585">
        <ele>1074.89</ele>
        <time>2021-08-15T05:58:02Z</time>
      </trkpt>
      <trkpt lat="45.52746" lon="2.93587">
        <ele>1074.89</ele>
        <time>2021-08-15T05:58:03Z</time>
      </trkpt>
      <trkpt lat="45.52716" lon="2.93596">
        <ele>1074.89</ele>
        <time>2021-08-15T05:58:09Z</time>
      </trkpt>
      <trkpt lat="45.52708" lon="2.936">
        <ele>1076.33</ele>
        <time>2021-08-15T05:58:11Z</time>
      </trkpt>
      <trkpt lat="45.52704" lon="2.93602">
        <ele>1076.33</ele>
        <time>2021-08-15T05:58:12Z</time>
      </trkpt>
      <trkpt lat="45.52684" lon="2.93613">
        <ele>1077.29</ele>
        <time>2021-08-15T05:58:19Z</time>
      </trkpt>
      <trkpt lat="45.52671" lon="2.93623">
        <ele>1079.22</ele>
        <time>2021-08-15T05:58:26Z</time>
      </trkpt>
      <trkpt lat="45.52657" lon="2.9363">
        <ele>1080.18</ele>
        <time>2021-08-15T05:58:34Z</time>
      </trkpt>
      <trkpt lat="45.52644" lon="2.93635">
        <ele>1081.14</ele>
        <time>2021-08-15T05:58:41Z</time>
      </trkpt>
      <trkpt lat="45.52628" lon="2.93639">
        <ele>1081.14</ele>
        <time>2021-08-15T05:58:48Z</time>
      </trkpt>
      <trkpt lat="45.52605" lon="2.93634">
        <ele>1082.1</ele>
        <time>2021-08-15T05:58:56Z</time>
      </trkpt>
      <trkpt lat="45.52577" lon="2.93634">
        <ele>1082.1</ele>
        <time>2021-08-15T05:59:04Z</time>
      </trkpt>
      <trkpt lat="45.52554" lon="2.93637">
        <ele>1082.1</ele>
        <time>2021-08-15T05:59:11Z</time>
      </trkpt>
      <trkpt lat="45.52534" lon="2.93635">
        <ele>1083.06</ele>
        <time>2021-08-15T05:59:19Z</time>
      </trkpt>
      <trkpt lat="45.5252" lon="2.93629">
        <ele>1084.5</ele>
        <time>2021-08-15T05:59:27Z</time>
      </trkpt>
      <trkpt lat="45.52502" lon="2.93628">
        <ele>1085.95</ele>
        <time>2021-08-15T05:59:37Z</time>
      </trkpt>
      <trkpt lat="45.52477" lon="2.93625">
        <ele>1087.87</ele>
        <time>2021-08-15T05:59:49Z</time>
      </trkpt>
      <trkpt lat="45.52452" lon="2.93626">
        <ele>1088.35</ele>
        <time>2021-08-15T06:00:00Z</time>
      </trkpt>
      <trkpt lat="45.52428" lon="2.93627">
        <ele>1089.31</ele>
        <time>2021-08-15T06:00:09Z</time>
      </trkpt>
      <trkpt lat="45.52405" lon="2.93622">
        <ele>1090.27</ele>
        <time>2021-08-15T06:00:17Z</time>
      </trkpt>
      <trkpt lat="45.52396" lon="2.93621">
        <ele>1088.83</ele>
        <time>2021-08-15T06:00:19Z</time>
      </trkpt>
      <trkpt lat="45.52392" lon="2.9362">
        <ele>1088.83</ele>
        <time>2021-08-15T06:00:20Z</time>
      </trkpt>
      <trkpt lat="45.52386" lon="2.93618">
        <ele>1088.35</ele>
        <time>2021-08-15T06:00:21Z</time>
      </trkpt>
      <trkpt lat="45.52336" lon="2.93596">
        <ele>1085.95</ele>
        <time>2021-08-15T06:00:30Z</time>
      </trkpt>
      <trkpt lat="45.52287" lon="2.93576">
        <ele>1084.99</ele>
        <time>2021-08-15T06:00:38Z</time>
      </trkpt>
      <trkpt lat="45.52281" lon="2.93571">
        <ele>1084.99</ele>
        <time>2021-08-15T06:00:39Z</time>
      </trkpt>
      <trkpt lat="45.52276" lon="2.93566">
        <ele>1084.5</ele>
        <time>2021-08-15T06:00:40Z</time>
      </trkpt>
      <trkpt lat="45.5227" lon="2.9356">
        <ele>1083.54</ele>
        <time>2021-08-15T06:00:41Z</time>
      </trkpt>
      <trkpt lat="45.52265" lon="2.93554">
        <ele>1083.06</ele>
        <time>2021-08-15T06:00:42Z</time>
      </trkpt>
      <trkpt lat="45.52261" lon="2.93546">
        <ele>1082.58</ele>
        <time>2021-08-15T06:00:43Z</time>
      </trkpt>
      <trkpt lat="45.52257" lon="2.93538">
        <ele>1082.58</ele>
        <time>2021-08-15T06:00:44Z</time>
      </trkpt>
      <trkpt lat="45.52254" lon="2.93529">
        <ele>1082.58</ele>
        <time>2021-08-15T06:00:45Z</time>
      </trkpt>
      <trkpt lat="45.52252" lon="2.9352">
        <ele>1082.58</ele>
        <time>2021-08-15T06:00:46Z</time>
      </trkpt>
      <trkpt lat="45.5225" lon="2.93512">
        <ele>1082.58</ele>
        <time>2021-08-15T06:00:47Z</time>
      </trkpt>
      <trkpt lat="45.52244" lon="2.93488">
        <ele>1082.58</ele>
        <time>2021-08-15T06:00:50Z</time>
      </trkpt>
      <trkpt lat="45.5224" lon="2.93481">
        <ele>1082.58</ele>
        <time>2021-08-15T06:00:51Z</time>
      </trkpt>
      <trkpt lat="45.52236" lon="2.93474">
        <ele>1082.58</ele>
        <time>2021-08-15T06:00:52Z</time>
      </trkpt>
      <trkpt lat="45.52219" lon="2.9345">
        <ele>1082.58</ele>
        <time>2021-08-15T06:00:56Z</time>
      </trkpt>
      <trkpt lat="45.52215" lon="2.93444">
        <ele>1082.58</ele>
        <time>2021-08-15T06:00:57Z</time>
      </trkpt>
      <trkpt lat="45.52194" lon="2.93415">
        <ele>1082.58</ele>
        <time>2021-08-15T06:01:02Z</time>
      </trkpt>
      <trkpt lat="45.52186" lon="2.93402">
        <ele>1082.58</ele>
        <time>2021-08-15T06:01:04Z</time>
      </trkpt>
      <trkpt lat="45.52182" lon="2.93397">
        <ele>1082.58</ele>
        <time>2021-08-15T06:01:05Z</time>
      </trkpt>
      <trkpt lat="45.52177" lon="2.93392">
        <ele>1082.58</ele>
        <time>2021-08-15T06:01:06Z</time>
      </trkpt>
      <trkpt lat="45.52171" lon="2.93388">
        <ele>1082.58</ele>
        <time>2021-08-15T06:01:07Z</time>
      </trkpt>
      <trkpt lat="45.52165" lon="2.93385">
        <ele>1082.58</ele>
        <time>2021-08-15T06:01:08Z</time>
      </trkpt>
      <trkpt lat="45.52159" lon="2.93383">
        <ele>1082.1</ele>
        <time>2021-08-15T06:01:09Z</time>
      </trkpt>
      <trkpt lat="45.52153" lon="2.93381">
        <ele>1082.1</ele>
        <time>2021-08-15T06:01:10Z</time>
      </trkpt>
      <trkpt lat="45.52146" lon="2.9338">
        <ele>1081.62</ele>
        <time>2021-08-15T06:01:11Z</time>
      </trkpt>
      <trkpt lat="45.52138" lon="2.9338">
        <ele>1081.62</ele>
        <time>2021-08-15T06:01:12Z</time>
      </trkpt>
      <trkpt lat="45.52132" lon="2.93382">
        <ele>1081.14</ele>
        <time>2021-08-15T06:01:13Z</time>
      </trkpt>
      <trkpt lat="45.52125" lon="2.93386">
        <ele>1080.66</ele>
        <time>2021-08-15T06:01:14Z</time>
      </trkpt>
      <trkpt lat="45.52119" lon="2.93392">
        <ele>1080.66</ele>
        <time>2021-08-15T06:01:15Z</time>
      </trkpt>
      <trkpt lat="45.52113" lon="2.93399">
        <ele>1079.7</ele>
        <time>2021-08-15T06:01:16Z</time>
      </trkpt>
      <trkpt lat="45.52109" lon="2.93407">
        <ele>1079.7</ele>
        <time>2021-08-15T06:01:17Z</time>
      </trkpt>
      <trkpt lat="45.52095" lon="2.93437">
        <ele>1079.7</ele>
        <time>2021-08-15T06:01:21Z</time>
      </trkpt>
      <trkpt lat="45.52094" lon="2.93442">
        <ele>1079.7</ele>
        <time>2021-08-15T06:01:22Z</time>
      </trkpt>
      <trkpt lat="45.52093" lon="2.93448">
        <ele>1079.7</ele>
        <time>2021-08-15T06:01:23Z</time>
      </trkpt>
      <trkpt lat="45.52093" lon="2.93453">
        <ele>1079.7</ele>
        <time>2021-08-15T06:01:24Z</time>
      </trkpt>
      <trkpt lat="45.52093" lon="2.93458">
        <ele>1079.22</ele>
        <time>2021-08-15T06:01:25Z</time>
      </trkpt>
      <trkpt lat="45.52093" lon="2.93462">
        <ele>1078.74</ele>
        <time>2021-08-15T06:01:26Z</time>
      </trkpt>
      <trkpt lat="45.52091" lon="2.93465">
        <ele>1077.78</ele>
        <time>2021-08-15T06:01:27Z</time>
      </trkpt>
      <trkpt lat="45.52088" lon="2.93468">
        <ele>1077.78</ele>
        <time>2021-08-15T06:01:28Z</time>
      </trkpt>
      <trkpt lat="45.52085" lon="2.93469">
        <ele>1077.29</ele>
        <time>2021-08-15T06:01:29Z</time>
      </trkpt>
      <trkpt lat="45.52081" lon="2.93468">
        <ele>1076.81</ele>
        <time>2021-08-15T06:01:30Z</time>
      </trkpt>
      <trkpt lat="45.52078" lon="2.93466">
        <ele>1076.33</ele>
        <time>2021-08-15T06:01:31Z</time>
      </trkpt>
      <trkpt lat="45.52075" lon="2.93465">
        <ele>1075.85</ele>
        <time>2021-08-15T06:01:32Z</time>
      </trkpt>
      <trkpt lat="45.52051" lon="2.93463">
        <ele>1072.49</ele>
        <time>2021-08-15T06:01:40Z</time>
      </trkpt>
      <trkpt lat="45.52045" lon="2.93462">
        <ele>1071.53</ele>
        <time>2021-08-15T06:01:42Z</time>
      </trkpt>
      <trkpt lat="45.52025" lon="2.93461">
        <ele>1068.64</ele>
        <time>2021-08-15T06:01:48Z</time>
      </trkpt>
      <trkpt lat="45.51997" lon="2.93456">
        <ele>1066.72</ele>
        <time>2021-08-15T06:01:54Z</time>
      </trkpt>
      <trkpt lat="45.51993" lon="2.93457">
        <ele>1066.72</ele>
        <time>2021-08-15T06:01:55Z</time>
      </trkpt>
      <trkpt lat="45.51989" lon="2.93459">
        <ele>1066.24</ele>
        <time>2021-08-15T06:01:56Z</time>
      </trkpt>
      <trkpt lat="45.51985" lon="2.93463">
        <ele>1066.24</ele>
        <time>2021-08-15T06:01:57Z</time>
      </trkpt>
      <trkpt lat="45.51983" lon="2.93466">
        <ele>1066.24</ele>
        <time>2021-08-15T06:01:58Z</time>
      </trkpt>
      <trkpt lat="45.51981" lon="2.93469">
        <ele>1065.76</ele>
        <time>2021-08-15T06:01:59Z</time>
      </trkpt>
      <trkpt lat="45.51979" lon="2.93472">
        <ele>1065.76</ele>
        <time>2021-08-15T06:02:00Z</time>
      </trkpt>
      <trkpt lat="45.51976" lon="2.93473">
        <ele>1065.76</ele>
        <time>2021-08-15T06:02:01Z</time>
      </trkpt>
      <trkpt lat="45.51973" lon="2.93474">
        <ele>1065.76</ele>
        <time>2021-08-15T06:02:02Z</time>
      </trkpt>
      <trkpt lat="45.51971" lon="2.93473">
        <ele>1064.8</ele>
        <time>2021-08-15T06:02:03Z</time>
      </trkpt>
      <trkpt lat="45.51969" lon="2.9347">
        <ele>1064.8</ele>
        <time>2021-08-15T06:02:04Z</time>
      </trkpt>
      <trkpt lat="45.51967" lon="2.93466">
        <ele>1063.84</ele>
        <time>2021-08-15T06:02:05Z</time>
      </trkpt>
      <trkpt lat="45.51964" lon="2.93461">
        <ele>1063.36</ele>
        <time>2021-08-15T06:02:06Z</time>
      </trkpt>
      <trkpt lat="45.51962" lon="2.93456">
        <ele>1063.36</ele>
        <time>2021-08-15T06:02:07Z</time>
      </trkpt>
      <trkpt lat="45.51961" lon="2.93452">
        <ele>1062.87</ele>
        <time>2021-08-15T06:02:08Z</time>
      </trkpt>
      <trkpt lat="45.51945" lon="2.93425">
        <ele>1059.99</ele>
        <time>2021-08-15T06:02:15Z</time>
      </trkpt>
      <trkpt lat="45.51941" lon="2.93422">
        <ele>1059.51</ele>
        <time>2021-08-15T06:02:16Z</time>
      </trkpt>
      <trkpt lat="45.51938" lon="2.9342">
        <ele>1059.03</ele>
        <time>2021-08-15T06:02:17Z</time>
      </trkpt>
      <trkpt lat="45.51921" lon="2.93409">
        <ele>1056.63</ele>
        <time>2021-08-15T06:02:21Z</time>
      </trkpt>
      <trkpt lat="45.51916" lon="2.93408">
        <ele>1056.15</ele>
        <time>2021-08-15T06:02:22Z</time>
      </trkpt>
      <trkpt lat="45.51901" lon="2.93407">
        <ele>1055.18</ele>
        <time>2021-08-15T06:02:25Z</time>
      </trkpt>
      <trkpt lat="45.51889" lon="2.9341">
        <ele>1054.22</ele>
        <time>2021-08-15T06:02:27Z</time>
      </trkpt>
      <trkpt lat="45.5185" lon="2.93419">
        <ele>1054.22</ele>
        <time>2021-08-15T06:02:34Z</time>
      </trkpt>
      <trkpt lat="45.51827" lon="2.93423">
        <ele>1052.78</ele>
        <time>2021-08-15T06:02:40Z</time>
      </trkpt>
      <trkpt lat="45.51803" lon="2.93428">
        <ele>1049.42</ele>
        <time>2021-08-15T06:02:47Z</time>
      </trkpt>
      <trkpt lat="45.51778" lon="2.9343">
        <ele>1047.49</ele>
        <time>2021-08-15T06:02:54Z</time>
      </trkpt>
      <trkpt lat="45.51762" lon="2.93425">
        <ele>1046.53</ele>
        <time>2021-08-15T06:02:59Z</time>
      </trkpt>
      <trkpt lat="45.51745" lon="2.93412">
        <ele>1045.09</ele>
        <time>2021-08-15T06:03:05Z</time>
      </trkpt>
      <trkpt lat="45.51712" lon="2.93383">
        <ele>1044.13</ele>
        <time>2021-08-15T06:03:13Z</time>
      </trkpt>
      <trkpt lat="45.51676" lon="2.93353">
        <ele>1041.73</ele>
        <time>2021-08-15T06:03:20Z</time>
      </trkpt>
      <trkpt lat="45.51658" lon="2.93335">
        <ele>1041.25</ele>
        <time>2021-08-15T06:03:24Z</time>
      </trkpt>
      <trkpt lat="45.51654" lon="2.9333">
        <ele>1041.25</ele>
        <time>2021-08-15T06:03:25Z</time>
      </trkpt>
      <trkpt lat="45.51651" lon="2.93326">
        <ele>1041.25</ele>
        <time>2021-08-15T06:03:26Z</time>
      </trkpt>
      <trkpt lat="45.51647" lon="2.93324">
        <ele>1043.17</ele>
        <time>2021-08-15T06:03:27Z</time>
      </trkpt>
      <trkpt lat="45.51643" lon="2.93323">
        <ele>1043.17</ele>
        <time>2021-08-15T06:03:28Z</time>
      </trkpt>
      <trkpt lat="45.5164" lon="2.93323">
        <ele>1043.17</ele>
        <time>2021-08-15T06:03:29Z</time>
      </trkpt>
      <trkpt lat="45.51636" lon="2.93323">
        <ele>1043.17</ele>
        <time>2021-08-15T06:03:30Z</time>
      </trkpt>
      <trkpt lat="45.51631" lon="2.93322">
        <ele>1043.17</ele>
        <time>2021-08-15T06:03:31Z</time>
      </trkpt>
      <trkpt lat="45.51626" lon="2.9332">
        <ele>1041.73</ele>
        <time>2021-08-15T06:03:32Z</time>
      </trkpt>
      <trkpt lat="45.51621" lon="2.93318">
        <ele>1041.73</ele>
        <time>2021-08-15T06:03:33Z</time>
      </trkpt>
      <trkpt lat="45.51606" lon="2.93314">
        <ele>1040.76</ele>
        <time>2021-08-15T06:03:37Z</time>
      </trkpt>
      <trkpt lat="45.51591" lon="2.93307">
        <ele>1039.8</ele>
        <time>2021-08-15T06:03:43Z</time>
      </trkpt>
      <trkpt lat="45.51587" lon="2.93303">
        <ele>1039.8</ele>
        <time>2021-08-15T06:03:44Z</time>
      </trkpt>
      <trkpt lat="45.51584" lon="2.93299">
        <ele>1038.84</ele>
        <time>2021-08-15T06:03:45Z</time>
      </trkpt>
      <trkpt lat="45.5158" lon="2.93294">
        <ele>1038.36</ele>
        <time>2021-08-15T06:03:46Z</time>
      </trkpt>
      <trkpt lat="45.51577" lon="2.93288">
        <ele>1038.36</ele>
        <time>2021-08-15T06:03:47Z</time>
      </trkpt>
      <trkpt lat="45.51575" lon="2.93281">
        <ele>1037.4</ele>
        <time>2021-08-15T06:03:48Z</time>
      </trkpt>
      <trkpt lat="45.51573" lon="2.93274">
        <ele>1036.92</ele>
        <time>2021-08-15T06:03:49Z</time>
      </trkpt>
      <trkpt lat="45.51571" lon="2.93266">
        <ele>1036.44</ele>
        <time>2021-08-15T06:03:50Z</time>
      </trkpt>
      <trkpt lat="45.51566" lon="2.9324">
        <ele>1035</ele>
        <time>2021-08-15T06:03:53Z</time>
      </trkpt>
      <trkpt lat="45.51559" lon="2.93199">
        <ele>1031.63</ele>
        <time>2021-08-15T06:03:57Z</time>
      </trkpt>
      <trkpt lat="45.51558" lon="2.93188">
        <ele>1031.63</ele>
        <time>2021-08-15T06:03:58Z</time>
      </trkpt>
      <trkpt lat="45.51553" lon="2.93102">
        <ele>1028.27</ele>
        <time>2021-08-15T06:04:05Z</time>
      </trkpt>
      <trkpt lat="45.51544" lon="2.9305">
        <ele>1025.86</ele>
        <time>2021-08-15T06:04:09Z</time>
      </trkpt>
      <trkpt lat="45.5153" lon="2.92967">
        <ele>1021.54</ele>
        <time>2021-08-15T06:04:15Z</time>
      </trkpt>
      <trkpt lat="45.51527" lon="2.92956">
        <ele>1022.02</ele>
        <time>2021-08-15T06:04:16Z</time>
      </trkpt>
      <trkpt lat="45.51514" lon="2.92918">
        <ele>1021.06</ele>
        <time>2021-08-15T06:04:20Z</time>
      </trkpt>
      <trkpt lat="45.5151" lon="2.92912">
        <ele>1020.58</ele>
        <time>2021-08-15T06:04:21Z</time>
      </trkpt>
      <trkpt lat="45.51505" lon="2.92907">
        <ele>1020.58</ele>
        <time>2021-08-15T06:04:22Z</time>
      </trkpt>
      <trkpt lat="45.515" lon="2.92903">
        <ele>1019.62</ele>
        <time>2021-08-15T06:04:23Z</time>
      </trkpt>
      <trkpt lat="45.51494" lon="2.92899">
        <ele>1019.13</ele>
        <time>2021-08-15T06:04:24Z</time>
      </trkpt>
      <trkpt lat="45.51487" lon="2.92897">
        <ele>1018.65</ele>
        <time>2021-08-15T06:04:25Z</time>
      </trkpt>
      <trkpt lat="45.51479" lon="2.92896">
        <ele>1018.65</ele>
        <time>2021-08-15T06:04:26Z</time>
      </trkpt>
      <trkpt lat="45.51473" lon="2.92898">
        <ele>1018.65</ele>
        <time>2021-08-15T06:04:27Z</time>
      </trkpt>
      <trkpt lat="45.51466" lon="2.929">
        <ele>1018.65</ele>
        <time>2021-08-15T06:04:28Z</time>
      </trkpt>
      <trkpt lat="45.51447" lon="2.92905">
        <ele>1018.65</ele>
        <time>2021-08-15T06:04:31Z</time>
      </trkpt>
      <trkpt lat="45.5144" lon="2.92905">
        <ele>1018.65</ele>
        <time>2021-08-15T06:04:32Z</time>
      </trkpt>
      <trkpt lat="45.51434" lon="2.92904">
        <ele>1018.65</ele>
        <time>2021-08-15T06:04:33Z</time>
      </trkpt>
      <trkpt lat="45.51429" lon="2.92902">
        <ele>1018.17</ele>
        <time>2021-08-15T06:04:34Z</time>
      </trkpt>
      <trkpt lat="45.51423" lon="2.929">
        <ele>1018.17</ele>
        <time>2021-08-15T06:04:35Z</time>
      </trkpt>
      <trkpt lat="45.51418" lon="2.92898">
        <ele>1018.17</ele>
        <time>2021-08-15T06:04:36Z</time>
      </trkpt>
      <trkpt lat="45.51404" lon="2.92893">
        <ele>1018.65</ele>
        <time>2021-08-15T06:04:39Z</time>
      </trkpt>
      <trkpt lat="45.51399" lon="2.92893">
        <ele>1018.65</ele>
        <time>2021-08-15T06:04:40Z</time>
      </trkpt>
      <trkpt lat="45.51395" lon="2.92896">
        <ele>1018.65</ele>
        <time>2021-08-15T06:04:41Z</time>
      </trkpt>
      <trkpt lat="45.51392" lon="2.92902">
        <ele>1018.65</ele>
        <time>2021-08-15T06:04:42Z</time>
      </trkpt>
      <trkpt lat="45.51391" lon="2.92907">
        <ele>1018.65</ele>
        <time>2021-08-15T06:04:43Z</time>
      </trkpt>
      <trkpt lat="45.5139" lon="2.92915">
        <ele>1018.65</ele>
        <time>2021-08-15T06:04:44Z</time>
      </trkpt>
      <trkpt lat="45.51387" lon="2.9294">
        <ele>1018.65</ele>
        <time>2021-08-15T06:04:48Z</time>
      </trkpt>
      <trkpt lat="45.51378" lon="2.92999">
        <ele>1018.65</ele>
        <time>2021-08-15T06:04:58Z</time>
      </trkpt>
      <trkpt lat="45.51377" lon="2.93005">
        <ele>1018.65</ele>
        <time>2021-08-15T06:04:59Z</time>
      </trkpt>
      <trkpt lat="45.51372" lon="2.93045">
        <ele>1018.65</ele>
        <time>2021-08-15T06:05:07Z</time>
      </trkpt>
      <trkpt lat="45.51362" lon="2.93079">
        <ele>1018.65</ele>
        <time>2021-08-15T06:05:14Z</time>
      </trkpt>
      <trkpt lat="45.51356" lon="2.931">
        <ele>1020.58</ele>
        <time>2021-08-15T06:05:20Z</time>
      </trkpt>
      <trkpt lat="45.51349" lon="2.93115">
        <ele>1021.54</ele>
        <time>2021-08-15T06:05:26Z</time>
      </trkpt>
      <trkpt lat="45.51349" lon="2.93118">
        <ele>1021.54</ele>
        <time>2021-08-15T06:05:27Z</time>
      </trkpt>
      <trkpt lat="45.51347" lon="2.93121">
        <ele>1021.54</ele>
        <time>2021-08-15T06:05:28Z</time>
      </trkpt>
      <trkpt lat="45.51346" lon="2.93124">
        <ele>1022.02</ele>
        <time>2021-08-15T06:05:29Z</time>
      </trkpt>
      <trkpt lat="45.51345" lon="2.93126">
        <ele>1022.02</ele>
        <time>2021-08-15T06:05:30Z</time>
      </trkpt>
      <trkpt lat="45.51344" lon="2.93129">
        <ele>1022.5</ele>
        <time>2021-08-15T06:05:31Z</time>
      </trkpt>
      <trkpt lat="45.51342" lon="2.93131">
        <ele>1022.5</ele>
        <time>2021-08-15T06:05:32Z</time>
      </trkpt>
      <trkpt lat="45.51326" lon="2.93145">
        <ele>1023.46</ele>
        <time>2021-08-15T06:05:42Z</time>
      </trkpt>
      <trkpt lat="45.51315" lon="2.93159">
        <ele>1024.42</ele>
        <time>2021-08-15T06:05:49Z</time>
      </trkpt>
      <trkpt lat="45.51314" lon="2.93161">
        <ele>1024.42</ele>
        <time>2021-08-15T06:05:50Z</time>
      </trkpt>
      <trkpt lat="45.51314" lon="2.93163">
        <ele>1024.42</ele>
        <time>2021-08-15T06:05:51Z</time>
      </trkpt>
      <trkpt lat="45.51314" lon="2.93166">
        <ele>1024.42</ele>
        <time>2021-08-15T06:05:52Z</time>
      </trkpt>
      <trkpt lat="45.51313" lon="2.93168">
        <ele>1024.42</ele>
        <time>2021-08-15T06:05:53Z</time>
      </trkpt>
      <trkpt lat="45.5131" lon="2.93183">
        <ele>1024.42</ele>
        <time>2021-08-15T06:06:00Z</time>
      </trkpt>
      <trkpt lat="45.51305" lon="2.93198">
        <ele>1024.9</ele>
        <time>2021-08-15T06:06:07Z</time>
      </trkpt>
      <trkpt lat="45.51299" lon="2.93215">
        <ele>1026.34</ele>
        <time>2021-08-15T06:06:15Z</time>
      </trkpt>
      <trkpt lat="45.51298" lon="2.93217">
        <ele>1026.34</ele>
        <time>2021-08-15T06:06:16Z</time>
      </trkpt>
      <trkpt lat="45.51298" lon="2.93219">
        <ele>1026.83</ele>
        <time>2021-08-15T06:06:17Z</time>
      </trkpt>
      <trkpt lat="45.51297" lon="2.93221">
        <ele>1026.83</ele>
        <time>2021-08-15T06:06:18Z</time>
      </trkpt>
      <trkpt lat="45.51296" lon="2.93223">
        <ele>1026.83</ele>
        <time>2021-08-15T06:06:19Z</time>
      </trkpt>
      <trkpt lat="45.51295" lon="2.93225">
        <ele>1027.31</ele>
        <time>2021-08-15T06:06:20Z</time>
      </trkpt>
      <trkpt lat="45.51293" lon="2.93244">
        <ele>1028.27</ele>
        <time>2021-08-15T06:06:29Z</time>
      </trkpt>
      <trkpt lat="45.51292" lon="2.93249">
        <ele>1029.23</ele>
        <time>2021-08-15T06:06:32Z</time>
      </trkpt>
      <trkpt lat="45.51291" lon="2.9325">
        <ele>1029.23</ele>
        <time>2021-08-15T06:06:33Z</time>
      </trkpt>
      <trkpt lat="45.5129" lon="2.9325">
        <ele>1029.71</ele>
        <time>2021-08-15T06:06:35Z</time>
      </trkpt>
      <trkpt lat="45.51288" lon="2.9325">
        <ele>1029.71</ele>
        <time>2021-08-15T06:06:36Z</time>
      </trkpt>
      <trkpt lat="45.51287" lon="2.93248">
        <ele>1029.71</ele>
        <time>2021-08-15T06:06:37Z</time>
      </trkpt>
      <trkpt lat="45.51286" lon="2.93247">
        <ele>1029.71</ele>
        <time>2021-08-15T06:06:38Z</time>
      </trkpt>
      <trkpt lat="45.51285" lon="2.93246">
        <ele>1029.71</ele>
        <time>2021-08-15T06:06:39Z</time>
      </trkpt>
      <trkpt lat="45.51284" lon="2.93245">
        <ele>1030.19</ele>
        <time>2021-08-15T06:06:40Z</time>
      </trkpt>
      <trkpt lat="45.51283" lon="2.93244">
        <ele>1030.19</ele>
        <time>2021-08-15T06:06:41Z</time>
      </trkpt>
      <trkpt lat="45.51283" lon="2.93242">
        <ele>1030.67</ele>
        <time>2021-08-15T06:06:42Z</time>
      </trkpt>
      <trkpt lat="45.51282" lon="2.93241">
        <ele>1030.67</ele>
        <time>2021-08-15T06:06:43Z</time>
      </trkpt>
      <trkpt lat="45.51281" lon="2.9324">
        <ele>1030.67</ele>
        <time>2021-08-15T06:06:44Z</time>
      </trkpt>
      <trkpt lat="45.5128" lon="2.93239">
        <ele>1030.67</ele>
        <time>2021-08-15T06:06:45Z</time>
      </trkpt>
      <trkpt lat="45.51279" lon="2.93238">
        <ele>1031.15</ele>
        <time>2021-08-15T06:06:46Z</time>
      </trkpt>
      <trkpt lat="45.51278" lon="2.93236">
        <ele>1031.15</ele>
        <time>2021-08-15T06:06:47Z</time>
      </trkpt>
      <trkpt lat="45.51268" lon="2.93231">
        <ele>1032.11</ele>
        <time>2021-08-15T06:06:55Z</time>
      </trkpt>
      <trkpt lat="45.51258" lon="2.93232">
        <ele>1033.55</ele>
        <time>2021-08-15T06:07:02Z</time>
      </trkpt>
      <trkpt lat="45.51246" lon="2.93227">
        <ele>1034.52</ele>
        <time>2021-08-15T06:07:11Z</time>
      </trkpt>
      <trkpt lat="45.51237" lon="2.93224">
        <ele>1035.96</ele>
        <time>2021-08-15T06:07:18Z</time>
      </trkpt>
      <trkpt lat="45.51235" lon="2.93222">
        <ele>1036.44</ele>
        <time>2021-08-15T06:07:22Z</time>
      </trkpt>
      <trkpt lat="45.51233" lon="2.93223">
        <ele>1036.44</ele>
        <time>2021-08-15T06:07:23Z</time>
      </trkpt>
      <trkpt lat="45.51232" lon="2.93226">
        <ele>1036.44</ele>
        <time>2021-08-15T06:07:25Z</time>
      </trkpt>
      <trkpt lat="45.51231" lon="2.93229">
        <ele>1036.44</ele>
        <time>2021-08-15T06:07:26Z</time>
      </trkpt>
      <trkpt lat="45.51231" lon="2.93232">
        <ele>1036.44</ele>
        <time>2021-08-15T06:07:27Z</time>
      </trkpt>
      <trkpt lat="45.5123" lon="2.93234">
        <ele>1036.44</ele>
        <time>2021-08-15T06:07:28Z</time>
      </trkpt>
      <trkpt lat="45.51225" lon="2.93252">
        <ele>1036.92</ele>
        <time>2021-08-15T06:07:35Z</time>
      </trkpt>
      <trkpt lat="45.51221" lon="2.93275">
        <ele>1036.92</ele>
        <time>2021-08-15T06:07:42Z</time>
      </trkpt>
      <trkpt lat="45.5122" lon="2.933">
        <ele>1036.92</ele>
        <time>2021-08-15T06:07:51Z</time>
      </trkpt>
      <trkpt lat="45.5122" lon="2.93303">
        <ele>1036.92</ele>
        <time>2021-08-15T06:07:58Z</time>
      </trkpt>
      <trkpt lat="45.51219" lon="2.93305">
        <ele>1036.92</ele>
        <time>2021-08-15T06:08:01Z</time>
      </trkpt>
      <trkpt lat="45.51221" lon="2.93311">
        <ele>1036.92</ele>
        <time>2021-08-15T06:08:07Z</time>
      </trkpt>
      <trkpt lat="45.51222" lon="2.93315">
        <ele>1037.4</ele>
        <time>2021-08-15T06:08:16Z</time>
      </trkpt>
      <trkpt lat="45.51223" lon="2.9332">
        <ele>1037.4</ele>
        <time>2021-08-15T06:08:25Z</time>
      </trkpt>
      <trkpt lat="45.51228" lon="2.93332">
        <ele>1035.96</ele>
        <time>2021-08-15T06:08:33Z</time>
      </trkpt>
      <trkpt lat="45.51228" lon="2.93335">
        <ele>1035.48</ele>
        <time>2021-08-15T06:08:41Z</time>
      </trkpt>
      <trkpt lat="45.51229" lon="2.93335">
        <ele>1035.96</ele>
        <time>2021-08-15T06:08:52Z</time>
      </trkpt>
      <trkpt lat="45.51228" lon="2.93333">
        <ele>1035.96</ele>
        <time>2021-08-15T06:09:11Z</time>
      </trkpt>
      <trkpt lat="45.51228" lon="2.93332">
        <ele>1035.96</ele>
        <time>2021-08-15T06:09:26Z</time>
      </trkpt>
      <trkpt lat="45.51229" lon="2.93332">
        <ele>1035.96</ele>
        <time>2021-08-15T06:09:39Z</time>
      </trkpt>
      <trkpt lat="45.51229" lon="2.9333">
        <ele>1035.96</ele>
        <time>2021-08-15T06:09:49Z</time>
      </trkpt>
      <trkpt lat="45.51225" lon="2.93327">
        <ele>1035.96</ele>
        <time>2021-08-15T06:10:08Z</time>
      </trkpt>
      <trkpt lat="45.51223" lon="2.93325">
        <ele>1035.96</ele>
        <time>2021-08-15T06:10:22Z</time>
      </trkpt>
      <trkpt lat="45.51222" lon="2.93324">
        <ele>1035.96</ele>
        <time>2021-08-15T06:10:34Z</time>
      </trkpt>
      <trkpt lat="45.51222" lon="2.93327">
        <ele>1036.44</ele>
        <time>2021-08-15T06:10:50Z</time>
      </trkpt>
      <trkpt lat="45.51225" lon="2.93331">
        <ele>1036.44</ele>
        <time>2021-08-15T06:11:08Z</time>
      </trkpt>
      <trkpt lat="45.51227" lon="2.93331">
        <ele>1036.44</ele>
        <time>2021-08-15T06:11:20Z</time>
      </trkpt>
      <trkpt lat="45.51228" lon="2.93331">
        <ele>1036.44</ele>
        <time>2021-08-15T06:11:31Z</time>
      </trkpt>
      <trkpt lat="45.5123" lon="2.9333">
        <ele>1036.44</ele>
        <time>2021-08-15T06:11:42Z</time>
      </trkpt>
      <trkpt lat="45.51231" lon="2.93329">
        <ele>1036.92</ele>
        <time>2021-08-15T06:12:03Z</time>
      </trkpt>
      <trkpt lat="45.51231" lon="2.93329">
        <ele>1036.92</ele>
        <time>2021-08-15T06:12:14Z</time>
      </trkpt>
      <trkpt lat="45.51229" lon="2.93328">
        <ele>1036.92</ele>
        <time>2021-08-15T06:12:26Z</time>
      </trkpt>
      <trkpt lat="45.51227" lon="2.93328">
        <ele>1037.4</ele>
        <time>2021-08-15T06:12:40Z</time>
      </trkpt>
      <trkpt lat="45.51225" lon="2.93323">
        <ele>1037.4</ele>
        <time>2021-08-15T06:12:51Z</time>
      </trkpt>
      <trkpt lat="45.51223" lon="2.93319">
        <ele>1037.4</ele>
        <time>2021-08-15T06:13:11Z</time>
      </trkpt>
      <trkpt lat="45.51223" lon="2.93319">
        <ele>1037.88</ele>
        <time>2021-08-15T06:13:30Z</time>
      </trkpt>
      <trkpt lat="45.51226" lon="2.93322">
        <ele>1037.88</ele>
        <time>2021-08-15T06:13:46Z</time>
      </trkpt>
      <trkpt lat="45.51227" lon="2.93322">
        <ele>1038.36</ele>
        <time>2021-08-15T06:14:01Z</time>
      </trkpt>
      <trkpt lat="45.51227" lon="2.93325">
        <ele>1038.36</ele>
        <time>2021-08-15T06:14:16Z</time>
      </trkpt>
      <trkpt lat="45.51225" lon="2.93327">
        <ele>1038.36</ele>
        <time>2021-08-15T06:14:36Z</time>
      </trkpt>
      <trkpt lat="45.51225" lon="2.93325">
        <ele>1038.84</ele>
        <time>2021-08-15T06:14:50Z</time>
      </trkpt>
      <trkpt lat="45.51224" lon="2.93324">
        <ele>1038.84</ele>
        <time>2021-08-15T06:15:01Z</time>
      </trkpt>
      <trkpt lat="45.51224" lon="2.93323">
        <ele>1038.84</ele>
        <time>2021-08-15T06:15:16Z</time>
      </trkpt>
      <trkpt lat="45.51225" lon="2.93322">
        <ele>1038.84</ele>
        <time>2021-08-15T06:15:29Z</time>
      </trkpt>
      <trkpt lat="45.51225" lon="2.93323">
        <ele>1039.32</ele>
        <time>2021-08-15T06:15:47Z</time>
      </trkpt>
      <trkpt lat="45.51224" lon="2.93319">
        <ele>1039.32</ele>
        <time>2021-08-15T06:15:58Z</time>
      </trkpt>
      <trkpt lat="45.51224" lon="2.93319">
        <ele>1039.32</ele>
        <time>2021-08-15T06:16:06Z</time>
      </trkpt>
      <trkpt lat="45.51227" lon="2.93321">
        <ele>1039.8</ele>
        <time>2021-08-15T06:16:24Z</time>
      </trkpt>
      <trkpt lat="45.51228" lon="2.93325">
        <ele>1039.8</ele>
        <time>2021-08-15T06:16:44Z</time>
      </trkpt>
      <trkpt lat="45.51229" lon="2.93325">
        <ele>1039.8</ele>
        <time>2021-08-15T06:16:54Z</time>
      </trkpt>
      <trkpt lat="45.51229" lon="2.93326">
        <ele>1039.8</ele>
        <time>2021-08-15T06:17:07Z</time>
      </trkpt>
      <trkpt lat="45.51228" lon="2.93325">
        <ele>1040.28</ele>
        <time>2021-08-15T06:17:16Z</time>
      </trkpt>
      <trkpt lat="45.51228" lon="2.93325">
        <ele>1040.28</ele>
        <time>2021-08-15T06:17:31Z</time>
      </trkpt>
      <trkpt lat="45.51228" lon="2.93328">
        <ele>1040.28</ele>
        <time>2021-08-15T06:17:45Z</time>
      </trkpt>
      <trkpt lat="45.51228" lon="2.93329">
        <ele>1040.76</ele>
        <time>2021-08-15T06:18:00Z</time>
      </trkpt>
      <trkpt lat="45.51227" lon="2.93329">
        <ele>1040.76</ele>
        <time>2021-08-15T06:18:11Z</time>
      </trkpt>
      <trkpt lat="45.51227" lon="2.93328">
        <ele>1040.76</ele>
        <time>2021-08-15T06:18:26Z</time>
      </trkpt>
      <trkpt lat="45.51228" lon="2.93328">
        <ele>1040.76</ele>
        <time>2021-08-15T06:18:44Z</time>
      </trkpt>
      <trkpt lat="45.51229" lon="2.9333">
        <ele>1041.25</ele>
        <time>2021-08-15T06:19:02Z</time>
      </trkpt>
      <trkpt lat="45.51229" lon="2.93329">
        <ele>1041.25</ele>
        <time>2021-08-15T06:19:15Z</time>
      </trkpt>
      <trkpt lat="45.51228" lon="2.9333">
        <ele>1041.25</ele>
        <time>2021-08-15T06:19:31Z</time>
      </trkpt>
      <trkpt lat="45.51227" lon="2.93331">
        <ele>1041.73</ele>
        <time>2021-08-15T06:19:48Z</time>
      </trkpt>
      <trkpt lat="45.51227" lon="2.93332">
        <ele>1041.25</ele>
        <time>2021-08-15T06:20:03Z</time>
      </trkpt>
      <trkpt lat="45.51228" lon="2.93332">
        <ele>1041.25</ele>
        <time>2021-08-15T06:20:23Z</time>
      </trkpt>
      <trkpt lat="45.51229" lon="2.93331">
        <ele>1041.73</ele>
        <time>2021-08-15T06:20:34Z</time>
      </trkpt>
      <trkpt lat="45.51229" lon="2.93332">
        <ele>1041.73</ele>
        <time>2021-08-15T06:20:55Z</time>
      </trkpt>
      <trkpt lat="45.51228" lon="2.93333">
        <ele>1041.73</ele>
        <time>2021-08-15T06:21:14Z</time>
      </trkpt>
      <trkpt lat="45.51228" lon="2.93333">
        <ele>1041.73</ele>
        <time>2021-08-15T06:21:31Z</time>
      </trkpt>
      <trkpt lat="45.51227" lon="2.93333">
        <ele>1042.21</ele>
        <time>2021-08-15T06:21:44Z</time>
      </trkpt>
      <trkpt lat="45.51227" lon="2.93334">
        <ele>1042.21</ele>
        <time>2021-08-15T06:21:56Z</time>
      </trkpt>
      <trkpt lat="45.51226" lon="2.93334">
        <ele>1042.21</ele>
        <time>2021-08-15T06:21:59Z</time>
      </trkpt>
      <trkpt lat="45.51226" lon="2.93334">
        <ele>1042.21</ele>
        <time>2021-08-15T06:22:00Z</time>
      </trkpt>
      <trkpt lat="45.51222" lon="2.93333">
        <ele>1042.21</ele>
        <time>2021-08-15T06:22:06Z</time>
      </trkpt>
      <trkpt lat="45.51222" lon="2.93333">
        <ele>1042.21</ele>
        <time>2021-08-15T06:22:13Z</time>
      </trkpt>
      <trkpt lat="45.51226" lon="2.93336">
        <ele>1042.21</ele>
        <time>2021-08-15T06:22:28Z</time>
      </trkpt>
      <trkpt lat="45.51226" lon="2.93334">
        <ele>1042.21</ele>
        <time>2021-08-15T06:22:41Z</time>
      </trkpt>
      <trkpt lat="45.51226" lon="2.93334">
        <ele>1043.65</ele>
        <time>2021-08-15T06:22:47Z</time>
      </trkpt>
      <trkpt lat="45.51227" lon="2.93334">
        <ele>1043.65</ele>
        <time>2021-08-15T06:23:03Z</time>
      </trkpt>
      <trkpt lat="45.51227" lon="2.93335">
        <ele>1044.13</ele>
        <time>2021-08-15T06:23:15Z</time>
      </trkpt>
      <trkpt lat="45.51226" lon="2.93335">
        <ele>1044.13</ele>
        <time>2021-08-15T06:23:36Z</time>
      </trkpt>
      <trkpt lat="45.51225" lon="2.93333">
        <ele>1044.13</ele>
        <time>2021-08-15T06:23:54Z</time>
      </trkpt>
      <trkpt lat="45.51224" lon="2.9333">
        <ele>1044.61</ele>
        <time>2021-08-15T06:24:14Z</time>
      </trkpt>
      <trkpt lat="45.51225" lon="2.93332">
        <ele>1044.61</ele>
        <time>2021-08-15T06:24:32Z</time>
      </trkpt>
      <trkpt lat="45.51226" lon="2.93334">
        <ele>1044.61</ele>
        <time>2021-08-15T06:24:46Z</time>
      </trkpt>
      <trkpt lat="45.51225" lon="2.93334">
        <ele>1045.09</ele>
        <time>2021-08-15T06:25:03Z</time>
      </trkpt>
      <trkpt lat="45.51226" lon="2.93332">
        <ele>1045.09</ele>
        <time>2021-08-15T06:25:18Z</time>
      </trkpt>
      <trkpt lat="45.51225" lon="2.93329">
        <ele>1045.09</ele>
        <time>2021-08-15T06:25:39Z</time>
      </trkpt>
      <trkpt lat="45.51225" lon="2.93327">
        <ele>1045.09</ele>
        <time>2021-08-15T06:25:53Z</time>
      </trkpt>
      <trkpt lat="45.51226" lon="2.93325">
        <ele>1045.09</ele>
        <time>2021-08-15T06:26:08Z</time>
      </trkpt>
      <trkpt lat="45.51227" lon="2.93324">
        <ele>1045.09</ele>
        <time>2021-08-15T06:26:18Z</time>
      </trkpt>
      <trkpt lat="45.51228" lon="2.93324">
        <ele>1045.09</ele>
        <time>2021-08-15T06:26:31Z</time>
      </trkpt>
      <trkpt lat="45.51228" lon="2.93324">
        <ele>1045.57</ele>
        <time>2021-08-15T06:26:42Z</time>
      </trkpt>
      <trkpt lat="45.51227" lon="2.93322">
        <ele>1045.57</ele>
        <time>2021-08-15T06:26:50Z</time>
      </trkpt>
      <trkpt lat="45.51228" lon="2.93322">
        <ele>1045.57</ele>
        <time>2021-08-15T06:27:06Z</time>
      </trkpt>
      <trkpt lat="45.51228" lon="2.93322">
        <ele>1045.57</ele>
        <time>2021-08-15T06:27:16Z</time>
      </trkpt>
      <trkpt lat="45.51227" lon="2.93321">
        <ele>1045.57</ele>
        <time>2021-08-15T06:27:25Z</time>
      </trkpt>
      <trkpt lat="45.51225" lon="2.93316">
        <ele>1045.57</ele>
        <time>2021-08-15T06:27:39Z</time>
      </trkpt>
      <trkpt lat="45.51222" lon="2.93314">
        <ele>1046.05</ele>
        <time>2021-08-15T06:27:56Z</time>
      </trkpt>
      <trkpt lat="45.5122" lon="2.93315">
        <ele>1046.05</ele>
        <time>2021-08-15T06:28:16Z</time>
      </trkpt>
      <trkpt lat="45.5122" lon="2.93316">
        <ele>1046.05</ele>
        <time>2021-08-15T06:28:28Z</time>
      </trkpt>
      <trkpt lat="45.51217" lon="2.93313">
        <ele>1046.53</ele>
        <time>2021-08-15T06:28:41Z</time>
      </trkpt>
      <trkpt lat="45.51217" lon="2.93311">
        <ele>1046.53</ele>
        <time>2021-08-15T06:28:58Z</time>
      </trkpt>
      <trkpt lat="45.51215" lon="2.9331">
        <ele>1047.01</ele>
        <time>2021-08-15T06:29:12Z</time>
      </trkpt>
      <trkpt lat="45.51216" lon="2.9331">
        <ele>1047.01</ele>
        <time>2021-08-15T06:29:25Z</time>
      </trkpt>
      <trkpt lat="45.51218" lon="2.93311">
        <ele>1047.01</ele>
        <time>2021-08-15T06:29:36Z</time>
      </trkpt>
      <trkpt lat="45.51222" lon="2.93315">
        <ele>1047.49</ele>
        <time>2021-08-15T06:29:52Z</time>
      </trkpt>
      <trkpt lat="45.51222" lon="2.93317">
        <ele>1047.49</ele>
        <time>2021-08-15T06:30:02Z</time>
      </trkpt>
      <trkpt lat="45.51224" lon="2.93326">
        <ele>1047.97</ele>
        <time>2021-08-15T06:30:18Z</time>
      </trkpt>
      <trkpt lat="45.51223" lon="2.93325">
        <ele>1047.97</ele>
        <time>2021-08-15T06:30:33Z</time>
      </trkpt>
      <trkpt lat="45.51222" lon="2.93323">
        <ele>1047.97</ele>
        <time>2021-08-15T06:30:48Z</time>
      </trkpt>
      <trkpt lat="45.51222" lon="2.93323">
        <ele>1048.45</ele>
        <time>2021-08-15T06:31:02Z</time>
      </trkpt>
      <trkpt lat="45.51222" lon="2.93324">
        <ele>1048.45</ele>
        <time>2021-08-15T06:31:15Z</time>
      </trkpt>
      <trkpt lat="45.51225" lon="2.93326">
        <ele>1048.45</ele>
        <time>2021-08-15T06:31:31Z</time>
      </trkpt>
      <trkpt lat="45.51226" lon="2.93327">
        <ele>1048.94</ele>
        <time>2021-08-15T06:31:44Z</time>
      </trkpt>
      <trkpt lat="45.51225" lon="2.93327">
        <ele>1048.94</ele>
        <time>2021-08-15T06:31:57Z</time>
      </trkpt>
      <trkpt lat="45.51225" lon="2.93326">
        <ele>1048.94</ele>
        <time>2021-08-15T06:32:09Z</time>
      </trkpt>
      <trkpt lat="45.51225" lon="2.93325">
        <ele>1048.94</ele>
        <time>2021-08-15T06:32:23Z</time>
      </trkpt>
      <trkpt lat="45.51225" lon="2.93325">
        <ele>1049.42</ele>
        <time>2021-08-15T06:32:35Z</time>
      </trkpt>
      <trkpt lat="45.51226" lon="2.93324">
        <ele>1049.42</ele>
        <time>2021-08-15T06:32:48Z</time>
      </trkpt>
      <trkpt lat="45.51226" lon="2.93324">
        <ele>1049.42</ele>
        <time>2021-08-15T06:32:59Z</time>
      </trkpt>
      <trkpt lat="45.51226" lon="2.93324">
        <ele>1049.42</ele>
        <time>2021-08-15T06:33:10Z</time>
      </trkpt>
      <trkpt lat="45.51226" lon="2.93327">
        <ele>1049.9</ele>
        <time>2021-08-15T06:33:28Z</time>
      </trkpt>
      <trkpt lat="45.51226" lon="2.93329">
        <ele>1049.9</ele>
        <time>2021-08-15T06:33:39Z</time>
      </trkpt>
      <trkpt lat="45.51227" lon="2.93332">
        <ele>1049.9</ele>
        <time>2021-08-15T06:33:59Z</time>
      </trkpt>
      <trkpt lat="45.51227" lon="2.93334">
        <ele>1049.9</ele>
        <time>2021-08-15T06:34:15Z</time>
      </trkpt>
      <trkpt lat="45.51228" lon="2.93335">
        <ele>1049.9</ele>
        <time>2021-08-15T06:34:27Z</time>
      </trkpt>
      <trkpt lat="45.51228" lon="2.93336">
        <ele>1049.9</ele>
        <time>2021-08-15T06:34:42Z</time>
      </trkpt>
      <trkpt lat="45.51229" lon="2.93336">
        <ele>1050.38</ele>
        <time>2021-08-15T06:34:54Z</time>
      </trkpt>
      <trkpt lat="45.51228" lon="2.93332">
        <ele>1048.94</ele>
        <time>2021-08-15T06:35:11Z</time>
      </trkpt>
      <trkpt lat="45.51228" lon="2.93329">
        <ele>1048.94</ele>
        <time>2021-08-15T06:35:30Z</time>
      </trkpt>
      <trkpt lat="45.51228" lon="2.93329">
        <ele>1049.42</ele>
        <time>2021-08-15T06:35:47Z</time>
      </trkpt>
      <trkpt lat="45.51226" lon="2.93329">
        <ele>1049.42</ele>
        <time>2021-08-15T06:36:03Z</time>
      </trkpt>
      <trkpt lat="45.51226" lon="2.93333">
        <ele>1049.42</ele>
        <time>2021-08-15T06:36:19Z</time>
      </trkpt>
      <trkpt lat="45.51224" lon="2.93334">
        <ele>1049.9</ele>
        <time>2021-08-15T06:36:33Z</time>
      </trkpt>
      <trkpt lat="45.51222" lon="2.93331">
        <ele>1049.9</ele>
        <time>2021-08-15T06:36:43Z</time>
      </trkpt>
      <trkpt lat="45.51222" lon="2.93332">
        <ele>1049.9</ele>
        <time>2021-08-15T06:36:51Z</time>
      </trkpt>
      <trkpt lat="45.51222" lon="2.93332">
        <ele>1049.9</ele>
        <time>2021-08-15T06:37:01Z</time>
      </trkpt>
      <trkpt lat="45.51221" lon="2.93327">
        <ele>1049.9</ele>
        <time>2021-08-15T06:37:14Z</time>
      </trkpt>
      <trkpt lat="45.51225" lon="2.93325">
        <ele>1049.9</ele>
        <time>2021-08-15T06:37:22Z</time>
      </trkpt>
      <trkpt lat="45.51232" lon="2.93329">
        <ele>1049.9</ele>
        <time>2021-08-15T06:37:27Z</time>
      </trkpt>
      <trkpt lat="45.51233" lon="2.93329">
        <ele>1049.9</ele>
        <time>2021-08-15T06:37:28Z</time>
      </trkpt>
      <trkpt lat="45.51235" lon="2.93329">
        <ele>1050.38</ele>
        <time>2021-08-15T06:37:33Z</time>
      </trkpt>
      <trkpt lat="45.51235" lon="2.93331">
        <ele>1050.38</ele>
        <time>2021-08-15T06:37:34Z</time>
      </trkpt>
      <trkpt lat="45.51233" lon="2.93334">
        <ele>1050.38</ele>
        <time>2021-08-15T06:37:40Z</time>
      </trkpt>
      <trkpt lat="45.51231" lon="2.93329">
        <ele>1050.38</ele>
        <time>2021-08-15T06:37:50Z</time>
      </trkpt>
      <trkpt lat="45.51231" lon="2.93328">
        <ele>1050.38</ele>
        <time>2021-08-15T06:38:05Z</time>
      </trkpt>
      <trkpt lat="45.51231" lon="2.93324">
        <ele>1050.38</ele>
        <time>2021-08-15T06:38:09Z</time>
      </trkpt>
      <trkpt lat="45.51231" lon="2.93322">
        <ele>1050.38</ele>
        <time>2021-08-15T06:38:10Z</time>
      </trkpt>
      <trkpt lat="45.51231" lon="2.9332">
        <ele>1050.38</ele>
        <time>2021-08-15T06:38:11Z</time>
      </trkpt>
      <trkpt lat="45.51231" lon="2.93319">
        <ele>1050.38</ele>
        <time>2021-08-15T06:38:12Z</time>
      </trkpt>
      <trkpt lat="45.51231" lon="2.93318">
        <ele>1050.38</ele>
        <time>2021-08-15T06:38:13Z</time>
      </trkpt>
      <trkpt lat="45.51231" lon="2.93317">
        <ele>1050.38</ele>
        <time>2021-08-15T06:38:14Z</time>
      </trkpt>
      <trkpt lat="45.51231" lon="2.93315">
        <ele>1050.38</ele>
        <time>2021-08-15T06:38:15Z</time>
      </trkpt>
      <trkpt lat="45.5123" lon="2.93314">
        <ele>1050.38</ele>
        <time>2021-08-15T06:38:16Z</time>
      </trkpt>
      <trkpt lat="45.5123" lon="2.93312">
        <ele>1050.38</ele>
        <time>2021-08-15T06:38:17Z</time>
      </trkpt>
      <trkpt lat="45.5123" lon="2.93311">
        <ele>1050.38</ele>
        <time>2021-08-15T06:38:18Z</time>
      </trkpt>
      <trkpt lat="45.5123" lon="2.93305">
        <ele>1051.34</ele>
        <time>2021-08-15T06:38:26Z</time>
      </trkpt>
      <trkpt lat="45.5123" lon="2.93305">
        <ele>1051.34</ele>
        <time>2021-08-15T06:38:27Z</time>
      </trkpt>
      <trkpt lat="45.5123" lon="2.93309">
        <ele>1051.34</ele>
        <time>2021-08-15T06:38:36Z</time>
      </trkpt>
      <trkpt lat="45.51231" lon="2.93318">
        <ele>1051.34</ele>
        <time>2021-08-15T06:38:46Z</time>
      </trkpt>
      <trkpt lat="45.51233" lon="2.93321">
        <ele>1051.34</ele>
        <time>2021-08-15T06:39:02Z</time>
      </trkpt>
      <trkpt lat="45.51233" lon="2.93322">
        <ele>1051.34</ele>
        <time>2021-08-15T06:39:14Z</time>
      </trkpt>
      <trkpt lat="45.51231" lon="2.93316">
        <ele>1051.34</ele>
        <time>2021-08-15T06:39:21Z</time>
      </trkpt>
      <trkpt lat="45.51231" lon="2.93318">
        <ele>1051.34</ele>
        <time>2021-08-15T06:39:23Z</time>
      </trkpt>
      <trkpt lat="45.51232" lon="2.9332">
        <ele>1051.34</ele>
        <time>2021-08-15T06:39:24Z</time>
      </trkpt>
      <trkpt lat="45.51233" lon="2.93323">
        <ele>1051.34</ele>
        <time>2021-08-15T06:39:25Z</time>
      </trkpt>
      <trkpt lat="45.51233" lon="2.93326">
        <ele>1051.34</ele>
        <time>2021-08-15T06:39:26Z</time>
      </trkpt>
      <trkpt lat="45.51234" lon="2.93329">
        <ele>1051.34</ele>
        <time>2021-08-15T06:39:27Z</time>
      </trkpt>
      <trkpt lat="45.51239" lon="2.9335">
        <ele>1049.9</ele>
        <time>2021-08-15T06:39:32Z</time>
      </trkpt>
      <trkpt lat="45.51247" lon="2.93362">
        <ele>1048.94</ele>
        <time>2021-08-15T06:39:35Z</time>
      </trkpt>
      <trkpt lat="45.51252" lon="2.93367">
        <ele>1048.94</ele>
        <time>2021-08-15T06:39:37Z</time>
      </trkpt>
      <trkpt lat="45.51253" lon="2.93372">
        <ele>1048.94</ele>
        <time>2021-08-15T06:39:38Z</time>
      </trkpt>
      <trkpt lat="45.51255" lon="2.93398">
        <ele>1048.45</ele>
        <time>2021-08-15T06:39:44Z</time>
      </trkpt>
      <trkpt lat="45.51254" lon="2.93401">
        <ele>1048.45</ele>
        <time>2021-08-15T06:39:45Z</time>
      </trkpt>
      <trkpt lat="45.51252" lon="2.93401">
        <ele>1048.45</ele>
        <time>2021-08-15T06:39:46Z</time>
      </trkpt>
      <trkpt lat="45.51251" lon="2.93403">
        <ele>1048.45</ele>
        <time>2021-08-15T06:39:48Z</time>
      </trkpt>
      <trkpt lat="45.51252" lon="2.93404">
        <ele>1047.97</ele>
        <time>2021-08-15T06:39:49Z</time>
      </trkpt>
      <trkpt lat="45.51253" lon="2.93403">
        <ele>1047.97</ele>
        <time>2021-08-15T06:39:50Z</time>
      </trkpt>
      <trkpt lat="45.51254" lon="2.93402">
        <ele>1047.97</ele>
        <time>2021-08-15T06:39:51Z</time>
      </trkpt>
      <trkpt lat="45.51255" lon="2.93399">
        <ele>1047.97</ele>
        <time>2021-08-15T06:39:52Z</time>
      </trkpt>
      <trkpt lat="45.51256" lon="2.93398">
        <ele>1047.97</ele>
        <time>2021-08-15T06:39:53Z</time>
      </trkpt>
      <trkpt lat="45.51257" lon="2.93398">
        <ele>1047.97</ele>
        <time>2021-08-15T06:39:54Z</time>
      </trkpt>
      <trkpt lat="45.51257" lon="2.93401">
        <ele>1047.97</ele>
        <time>2021-08-15T06:39:58Z</time>
      </trkpt>
      <trkpt lat="45.51256" lon="2.93402">
        <ele>1047.97</ele>
        <time>2021-08-15T06:39:59Z</time>
      </trkpt>
      <trkpt lat="45.51255" lon="2.93403">
        <ele>1047.97</ele>
        <time>2021-08-15T06:40:00Z</time>
      </trkpt>
      <trkpt lat="45.51253" lon="2.93404">
        <ele>1047.97</ele>
        <time>2021-08-15T06:40:01Z</time>
      </trkpt>
      <trkpt lat="45.51252" lon="2.93404">
        <ele>1047.97</ele>
        <time>2021-08-15T06:40:02Z</time>
      </trkpt>
      <trkpt lat="45.51239" lon="2.93407">
        <ele>1047.01</ele>
        <time>2021-08-15T06:40:10Z</time>
      </trkpt>
      <trkpt lat="45.51237" lon="2.93407">
        <ele>1047.01</ele>
        <time>2021-08-15T06:40:13Z</time>
      </trkpt>
      <trkpt lat="45.51237" lon="2.93409">
        <ele>1047.01</ele>
        <time>2021-08-15T06:40:14Z</time>
      </trkpt>
      <trkpt lat="45.51239" lon="2.9341">
        <ele>1047.01</ele>
        <time>2021-08-15T06:40:15Z</time>
      </trkpt>
      <trkpt lat="45.51241" lon="2.9341">
        <ele>1047.01</ele>
        <time>2021-08-15T06:40:16Z</time>
      </trkpt>
      <trkpt lat="45.51243" lon="2.93409">
        <ele>1047.01</ele>
        <time>2021-08-15T06:40:17Z</time>
      </trkpt>
      <trkpt lat="45.51246" lon="2.93407">
        <ele>1047.01</ele>
        <time>2021-08-15T06:40:18Z</time>
      </trkpt>
      <trkpt lat="45.51248" lon="2.93405">
        <ele>1047.01</ele>
        <time>2021-08-15T06:40:20Z</time>
      </trkpt>
      <trkpt lat="45.51256" lon="2.93401">
        <ele>1048.45</ele>
        <time>2021-08-15T06:40:24Z</time>
      </trkpt>
      <trkpt lat="45.51257" lon="2.93398">
        <ele>1048.45</ele>
        <time>2021-08-15T06:40:25Z</time>
      </trkpt>
      <trkpt lat="45.51258" lon="2.93396">
        <ele>1048.45</ele>
        <time>2021-08-15T06:40:26Z</time>
      </trkpt>
      <trkpt lat="45.51259" lon="2.93394">
        <ele>1048.45</ele>
        <time>2021-08-15T06:40:27Z</time>
      </trkpt>
      <trkpt lat="45.5126" lon="2.93392">
        <ele>1048.45</ele>
        <time>2021-08-15T06:40:28Z</time>
      </trkpt>
      <trkpt lat="45.51261" lon="2.93389">
        <ele>1048.94</ele>
        <time>2021-08-15T06:40:34Z</time>
      </trkpt>
      <trkpt lat="45.5126" lon="2.93385">
        <ele>1048.94</ele>
        <time>2021-08-15T06:40:48Z</time>
      </trkpt>
      <trkpt lat="45.51261" lon="2.93383">
        <ele>1048.45</ele>
        <time>2021-08-15T06:41:00Z</time>
      </trkpt>
      <trkpt lat="45.51261" lon="2.93382">
        <ele>1048.45</ele>
        <time>2021-08-15T06:41:13Z</time>
      </trkpt>
      <trkpt lat="45.51261" lon="2.93383">
        <ele>1048.45</ele>
        <time>2021-08-15T06:41:25Z</time>
      </trkpt>
      <trkpt lat="45.51261" lon="2.93384">
        <ele>1048.45</ele>
        <time>2021-08-15T06:41:39Z</time>
      </trkpt>
      <trkpt lat="45.51262" lon="2.93385">
        <ele>1048.45</ele>
        <time>2021-08-15T06:41:54Z</time>
      </trkpt>
      <trkpt lat="45.51262" lon="2.93386">
        <ele>1048.45</ele>
        <time>2021-08-15T06:42:11Z</time>
      </trkpt>
      <trkpt lat="45.5126" lon="2.93384">
        <ele>1048.45</ele>
        <time>2021-08-15T06:42:21Z</time>
      </trkpt>
      <trkpt lat="45.51261" lon="2.93386">
        <ele>1048.45</ele>
        <time>2021-08-15T06:42:34Z</time>
      </trkpt>
      <trkpt lat="45.5126" lon="2.93386">
        <ele>1048.45</ele>
        <time>2021-08-15T06:42:52Z</time>
      </trkpt>
      <trkpt lat="45.51258" lon="2.93386">
        <ele>1048.45</ele>
        <time>2021-08-15T06:43:01Z</time>
      </trkpt>
      <trkpt lat="45.51256" lon="2.93384">
        <ele>1048.45</ele>
        <time>2021-08-15T06:43:10Z</time>
      </trkpt>
      <trkpt lat="45.51255" lon="2.93384">
        <ele>1048.45</ele>
        <time>2021-08-15T06:43:11Z</time>
      </trkpt>
      <trkpt lat="45.51254" lon="2.93384">
        <ele>1048.45</ele>
        <time>2021-08-15T06:43:12Z</time>
      </trkpt>
      <trkpt lat="45.51253" lon="2.93383">
        <ele>1048.45</ele>
        <time>2021-08-15T06:43:13Z</time>
      </trkpt>
      <trkpt lat="45.51252" lon="2.93382">
        <ele>1048.45</ele>
        <time>2021-08-15T06:43:14Z</time>
      </trkpt>
      <trkpt lat="45.51251" lon="2.93379">
        <ele>1048.45</ele>
        <time>2021-08-15T06:43:15Z</time>
      </trkpt>
      <trkpt lat="45.51251" lon="2.93378">
        <ele>1048.45</ele>
        <time>2021-08-15T06:43:16Z</time>
      </trkpt>
      <trkpt lat="45.5125" lon="2.93376">
        <ele>1048.45</ele>
        <time>2021-08-15T06:43:17Z</time>
      </trkpt>
      <trkpt lat="45.5125" lon="2.93374">
        <ele>1048.45</ele>
        <time>2021-08-15T06:43:18Z</time>
      </trkpt>
      <trkpt lat="45.51249" lon="2.93372">
        <ele>1048.45</ele>
        <time>2021-08-15T06:43:19Z</time>
      </trkpt>
      <trkpt lat="45.51248" lon="2.9337">
        <ele>1048.45</ele>
        <time>2021-08-15T06:43:20Z</time>
      </trkpt>
      <trkpt lat="45.51248" lon="2.93367">
        <ele>1048.45</ele>
        <time>2021-08-15T06:43:21Z</time>
      </trkpt>
      <trkpt lat="45.51247" lon="2.93366">
        <ele>1048.45</ele>
        <time>2021-08-15T06:43:22Z</time>
      </trkpt>
      <trkpt lat="45.51245" lon="2.93364">
        <ele>1048.45</ele>
        <time>2021-08-15T06:43:24Z</time>
      </trkpt>
      <trkpt lat="45.51244" lon="2.93364">
        <ele>1048.45</ele>
        <time>2021-08-15T06:43:25Z</time>
      </trkpt>
      <trkpt lat="45.51242" lon="2.93363">
        <ele>1048.45</ele>
        <time>2021-08-15T06:43:26Z</time>
      </trkpt>
      <trkpt lat="45.5124" lon="2.93358">
        <ele>1048.94</ele>
        <time>2021-08-15T06:43:30Z</time>
      </trkpt>
      <trkpt lat="45.5124" lon="2.93355">
        <ele>1048.94</ele>
        <time>2021-08-15T06:43:31Z</time>
      </trkpt>
      <trkpt lat="45.51238" lon="2.93337">
        <ele>1049.9</ele>
        <time>2021-08-15T06:43:40Z</time>
      </trkpt>
      <trkpt lat="45.51234" lon="2.93326">
        <ele>1050.38</ele>
        <time>2021-08-15T06:43:43Z</time>
      </trkpt>
      <trkpt lat="45.51227" lon="2.93305">
        <ele>1050.86</ele>
        <time>2021-08-15T06:43:52Z</time>
      </trkpt>
      <trkpt lat="45.51217" lon="2.93295">
        <ele>1051.82</ele>
        <time>2021-08-15T06:43:59Z</time>
      </trkpt>
      <trkpt lat="45.51204" lon="2.93293">
        <ele>1051.82</ele>
        <time>2021-08-15T06:44:06Z</time>
      </trkpt>
      <trkpt lat="45.51203" lon="2.93292">
        <ele>1051.82</ele>
        <time>2021-08-15T06:44:07Z</time>
      </trkpt>
      <trkpt lat="45.51193" lon="2.93275">
        <ele>1052.78</ele>
        <time>2021-08-15T06:44:17Z</time>
      </trkpt>
      <trkpt lat="45.51182" lon="2.93271">
        <ele>1052.78</ele>
        <time>2021-08-15T06:44:24Z</time>
      </trkpt>
      <trkpt lat="45.51181" lon="2.93268">
        <ele>1052.78</ele>
        <time>2021-08-15T06:44:26Z</time>
      </trkpt>
      <trkpt lat="45.51181" lon="2.9327">
        <ele>1052.78</ele>
        <time>2021-08-15T06:44:31Z</time>
      </trkpt>
      <trkpt lat="45.51181" lon="2.93272">
        <ele>1052.78</ele>
        <time>2021-08-15T06:44:32Z</time>
      </trkpt>
      <trkpt lat="45.51177" lon="2.93276">
        <ele>1052.78</ele>
        <time>2021-08-15T06:44:38Z</time>
      </trkpt>
      <trkpt lat="45.51176" lon="2.93277">
        <ele>1052.78</ele>
        <time>2021-08-15T06:44:39Z</time>
      </trkpt>
      <trkpt lat="45.51175" lon="2.93278">
        <ele>1052.78</ele>
        <time>2021-08-15T06:44:40Z</time>
      </trkpt>
      <trkpt lat="45.51173" lon="2.93279">
        <ele>1052.78</ele>
        <time>2021-08-15T06:44:41Z</time>
      </trkpt>
      <trkpt lat="45.51172" lon="2.9328">
        <ele>1052.78</ele>
        <time>2021-08-15T06:44:42Z</time>
      </trkpt>
      <trkpt lat="45.5117" lon="2.93281">
        <ele>1052.78</ele>
        <time>2021-08-15T06:44:43Z</time>
      </trkpt>
      <trkpt lat="45.51161" lon="2.93285">
        <ele>1051.34</ele>
        <time>2021-08-15T06:44:50Z</time>
      </trkpt>
      <trkpt lat="45.51157" lon="2.93287">
        <ele>1051.34</ele>
        <time>2021-08-15T06:44:58Z</time>
      </trkpt>
      <trkpt lat="45.51155" lon="2.93291">
        <ele>1051.34</ele>
        <time>2021-08-15T06:45:05Z</time>
      </trkpt>
      <trkpt lat="45.51155" lon="2.93295">
        <ele>1051.34</ele>
        <time>2021-08-15T06:45:09Z</time>
      </trkpt>
      <trkpt lat="45.51156" lon="2.93296">
        <ele>1051.34</ele>
        <time>2021-08-15T06:45:10Z</time>
      </trkpt>
      <trkpt lat="45.51164" lon="2.93308">
        <ele>1050.86</ele>
        <time>2021-08-15T06:45:17Z</time>
      </trkpt>
      <trkpt lat="45.51167" lon="2.93313">
        <ele>1050.86</ele>
        <time>2021-08-15T06:45:23Z</time>
      </trkpt>
      <trkpt lat="45.51167" lon="2.93316">
        <ele>1050.86</ele>
        <time>2021-08-15T06:45:38Z</time>
      </trkpt>
      <trkpt lat="45.51166" lon="2.93315">
        <ele>1050.86</ele>
        <time>2021-08-15T06:45:52Z</time>
      </trkpt>
      <trkpt lat="45.51164" lon="2.93317">
        <ele>1050.86</ele>
        <time>2021-08-15T06:46:09Z</time>
      </trkpt>
      <trkpt lat="45.51163" lon="2.93321">
        <ele>1050.86</ele>
        <time>2021-08-15T06:46:26Z</time>
      </trkpt>
      <trkpt lat="45.51162" lon="2.93325">
        <ele>1051.82</ele>
        <time>2021-08-15T06:46:45Z</time>
      </trkpt>
      <trkpt lat="45.51162" lon="2.93324">
        <ele>1051.82</ele>
        <time>2021-08-15T06:47:03Z</time>
      </trkpt>
      <trkpt lat="45.51161" lon="2.93324">
        <ele>1051.82</ele>
        <time>2021-08-15T06:47:07Z</time>
      </trkpt>
      <trkpt lat="45.51161" lon="2.9332">
        <ele>1051.82</ele>
        <time>2021-08-15T06:47:19Z</time>
      </trkpt>
      <trkpt lat="45.51159" lon="2.93318">
        <ele>1051.82</ele>
        <time>2021-08-15T06:47:34Z</time>
      </trkpt>
      <trkpt lat="45.51158" lon="2.93319">
        <ele>1051.82</ele>
        <time>2021-08-15T06:47:49Z</time>
      </trkpt>
      <trkpt lat="45.51158" lon="2.93319">
        <ele>1051.82</ele>
        <time>2021-08-15T06:48:00Z</time>
      </trkpt>
      <trkpt lat="45.51158" lon="2.93319">
        <ele>1051.82</ele>
        <time>2021-08-15T06:48:12Z</time>
      </trkpt>
      <trkpt lat="45.51157" lon="2.93318">
        <ele>1051.82</ele>
        <time>2021-08-15T06:48:13Z</time>
      </trkpt>
      <trkpt lat="45.51159" lon="2.93319">
        <ele>1051.82</ele>
        <time>2021-08-15T06:48:17Z</time>
      </trkpt>
      <trkpt lat="45.51168" lon="2.93329">
        <ele>1051.82</ele>
        <time>2021-08-15T06:48:26Z</time>
      </trkpt>
      <trkpt lat="45.51173" lon="2.93339">
        <ele>1050.86</ele>
        <time>2021-08-15T06:48:34Z</time>
      </trkpt>
      <trkpt lat="45.51175" lon="2.93343">
        <ele>1050.38</ele>
        <time>2021-08-15T06:48:47Z</time>
      </trkpt>
      <trkpt lat="45.51174" lon="2.93342">
        <ele>1050.38</ele>
        <time>2021-08-15T06:48:51Z</time>
      </trkpt>
      <trkpt lat="45.51173" lon="2.93341">
        <ele>1050.38</ele>
        <time>2021-08-15T06:48:52Z</time>
      </trkpt>
      <trkpt lat="45.51172" lon="2.9334">
        <ele>1050.38</ele>
        <time>2021-08-15T06:48:53Z</time>
      </trkpt>
      <trkpt lat="45.51162" lon="2.93322">
        <ele>1051.34</ele>
        <time>2021-08-15T06:49:03Z</time>
      </trkpt>
      <trkpt lat="45.51158" lon="2.93306">
        <ele>1051.34</ele>
        <time>2021-08-15T06:49:10Z</time>
      </trkpt>
      <trkpt lat="45.51147" lon="2.93296">
        <ele>1051.34</ele>
        <time>2021-08-15T06:49:18Z</time>
      </trkpt>
      <trkpt lat="45.51147" lon="2.93293">
        <ele>1051.34</ele>
        <time>2021-08-15T06:49:19Z</time>
      </trkpt>
      <trkpt lat="45.51146" lon="2.93291">
        <ele>1051.34</ele>
        <time>2021-08-15T06:49:20Z</time>
      </trkpt>
      <trkpt lat="45.51146" lon="2.93289">
        <ele>1051.34</ele>
        <time>2021-08-15T06:49:21Z</time>
      </trkpt>
      <trkpt lat="45.51145" lon="2.93286">
        <ele>1051.82</ele>
        <time>2021-08-15T06:49:22Z</time>
      </trkpt>
      <trkpt lat="45.51144" lon="2.93285">
        <ele>1051.82</ele>
        <time>2021-08-15T06:49:23Z</time>
      </trkpt>
      <trkpt lat="45.51142" lon="2.93284">
        <ele>1051.82</ele>
        <time>2021-08-15T06:49:24Z</time>
      </trkpt>
      <trkpt lat="45.51141" lon="2.93283">
        <ele>1051.82</ele>
        <time>2021-08-15T06:49:25Z</time>
      </trkpt>
      <trkpt lat="45.51139" lon="2.93282">
        <ele>1052.3</ele>
        <time>2021-08-15T06:49:26Z</time>
      </trkpt>
      <trkpt lat="45.51125" lon="2.93276">
        <ele>1054.22</ele>
        <time>2021-08-15T06:49:36Z</time>
      </trkpt>
      <trkpt lat="45.51118" lon="2.93274">
        <ele>1054.7</ele>
        <time>2021-08-15T06:49:44Z</time>
      </trkpt>
      <trkpt lat="45.51115" lon="2.93269">
        <ele>1055.67</ele>
        <time>2021-08-15T06:49:48Z</time>
      </trkpt>
      <trkpt lat="45.51112" lon="2.93266">
        <ele>1056.15</ele>
        <time>2021-08-15T06:49:49Z</time>
      </trkpt>
      <trkpt lat="45.5111" lon="2.93262">
        <ele>1056.15</ele>
        <time>2021-08-15T06:49:50Z</time>
      </trkpt>
      <trkpt lat="45.51108" lon="2.93257">
        <ele>1055.67</ele>
        <time>2021-08-15T06:49:51Z</time>
      </trkpt>
      <trkpt lat="45.51108" lon="2.93254">
        <ele>1055.67</ele>
        <time>2021-08-15T06:49:52Z</time>
      </trkpt>
      <trkpt lat="45.51107" lon="2.93252">
        <ele>1056.15</ele>
        <time>2021-08-15T06:49:53Z</time>
      </trkpt>
      <trkpt lat="45.51105" lon="2.93246">
        <ele>1056.63</ele>
        <time>2021-08-15T06:49:55Z</time>
      </trkpt>
      <trkpt lat="45.51104" lon="2.93246">
        <ele>1057.11</ele>
        <time>2021-08-15T06:49:56Z</time>
      </trkpt>
      <trkpt lat="45.51101" lon="2.93247">
        <ele>1057.59</ele>
        <time>2021-08-15T06:50:00Z</time>
      </trkpt>
      <trkpt lat="45.511" lon="2.93247">
        <ele>1057.59</ele>
        <time>2021-08-15T06:50:01Z</time>
      </trkpt>
      <trkpt lat="45.51099" lon="2.93246">
        <ele>1057.59</ele>
        <time>2021-08-15T06:50:02Z</time>
      </trkpt>
      <trkpt lat="45.51098" lon="2.93245">
        <ele>1057.59</ele>
        <time>2021-08-15T06:50:03Z</time>
      </trkpt>
      <trkpt lat="45.51097" lon="2.93245">
        <ele>1057.59</ele>
        <time>2021-08-15T06:50:04Z</time>
      </trkpt>
      <trkpt lat="45.51097" lon="2.93245">
        <ele>1057.59</ele>
        <time>2021-08-15T06:50:05Z</time>
      </trkpt>
      <trkpt lat="45.51083" lon="2.93234">
        <ele>1058.55</ele>
        <time>2021-08-15T06:50:18Z</time>
      </trkpt>
      <trkpt lat="45.51073" lon="2.93219">
        <ele>1059.99</ele>
        <time>2021-08-15T06:50:28Z</time>
      </trkpt>
      <trkpt lat="45.51064" lon="2.93204">
        <ele>1060.95</ele>
        <time>2021-08-15T06:50:38Z</time>
      </trkpt>
      <trkpt lat="45.51061" lon="2.93201">
        <ele>1061.91</ele>
        <time>2021-08-15T06:50:41Z</time>
      </trkpt>
      <trkpt lat="45.51054" lon="2.93192">
        <ele>1062.87</ele>
        <time>2021-08-15T06:50:50Z</time>
      </trkpt>
      <trkpt lat="45.51051" lon="2.93191">
        <ele>1063.36</ele>
        <time>2021-08-15T06:50:53Z</time>
      </trkpt>
      <trkpt lat="45.51048" lon="2.93186">
        <ele>1064.32</ele>
        <time>2021-08-15T06:50:57Z</time>
      </trkpt>
      <trkpt lat="45.51036" lon="2.93168">
        <ele>1064.8</ele>
        <time>2021-08-15T06:51:06Z</time>
      </trkpt>
      <trkpt lat="45.51031" lon="2.93168">
        <ele>1064.8</ele>
        <time>2021-08-15T06:51:08Z</time>
      </trkpt>
      <trkpt lat="45.51029" lon="2.9317">
        <ele>1064.8</ele>
        <time>2021-08-15T06:51:09Z</time>
      </trkpt>
      <trkpt lat="45.51027" lon="2.93172">
        <ele>1064.8</ele>
        <time>2021-08-15T06:51:10Z</time>
      </trkpt>
      <trkpt lat="45.51026" lon="2.93175">
        <ele>1064.8</ele>
        <time>2021-08-15T06:51:11Z</time>
      </trkpt>
      <trkpt lat="45.51024" lon="2.93179">
        <ele>1064.8</ele>
        <time>2021-08-15T06:51:12Z</time>
      </trkpt>
      <trkpt lat="45.51023" lon="2.93183">
        <ele>1064.8</ele>
        <time>2021-08-15T06:51:13Z</time>
      </trkpt>
      <trkpt lat="45.51011" lon="2.93217">
        <ele>1063.36</ele>
        <time>2021-08-15T06:51:21Z</time>
      </trkpt>
      <trkpt lat="45.50995" lon="2.93253">
        <ele>1061.91</ele>
        <time>2021-08-15T06:51:28Z</time>
      </trkpt>
      <trkpt lat="45.50988" lon="2.93273">
        <ele>1061.43</ele>
        <time>2021-08-15T06:51:31Z</time>
      </trkpt>
      <trkpt lat="45.50986" lon="2.93281">
        <ele>1060.95</ele>
        <time>2021-08-15T06:51:32Z</time>
      </trkpt>
      <trkpt lat="45.50984" lon="2.9329">
        <ele>1060.47</ele>
        <time>2021-08-15T06:51:33Z</time>
      </trkpt>
      <trkpt lat="45.50974" lon="2.93364">
        <ele>1057.59</ele>
        <time>2021-08-15T06:51:42Z</time>
      </trkpt>
      <trkpt lat="45.50967" lon="2.93421">
        <ele>1055.67</ele>
        <time>2021-08-15T06:51:50Z</time>
      </trkpt>
      <trkpt lat="45.50965" lon="2.93427">
        <ele>1054.7</ele>
        <time>2021-08-15T06:51:51Z</time>
      </trkpt>
      <trkpt lat="45.50962" lon="2.93432">
        <ele>1054.22</ele>
        <time>2021-08-15T06:51:52Z</time>
      </trkpt>
      <trkpt lat="45.5096" lon="2.93439">
        <ele>1053.74</ele>
        <time>2021-08-15T06:51:53Z</time>
      </trkpt>
      <trkpt lat="45.5096" lon="2.93446">
        <ele>1054.22</ele>
        <time>2021-08-15T06:51:54Z</time>
      </trkpt>
      <trkpt lat="45.50961" lon="2.93451">
        <ele>1054.22</ele>
        <time>2021-08-15T06:51:55Z</time>
      </trkpt>
      <trkpt lat="45.50961" lon="2.93456">
        <ele>1054.22</ele>
        <time>2021-08-15T06:51:56Z</time>
      </trkpt>
      <trkpt lat="45.50962" lon="2.93467">
        <ele>1053.74</ele>
        <time>2021-08-15T06:51:58Z</time>
      </trkpt>
      <trkpt lat="45.50961" lon="2.93528">
        <ele>1050.86</ele>
        <time>2021-08-15T06:52:06Z</time>
      </trkpt>
      <trkpt lat="45.50964" lon="2.93572">
        <ele>1049.9</ele>
        <time>2021-08-15T06:52:12Z</time>
      </trkpt>
      <trkpt lat="45.50967" lon="2.93582">
        <ele>1049.42</ele>
        <time>2021-08-15T06:52:14Z</time>
      </trkpt>
      <trkpt lat="45.5097" lon="2.93584">
        <ele>1049.42</ele>
        <time>2021-08-15T06:52:15Z</time>
      </trkpt>
      <trkpt lat="45.50973" lon="2.93583">
        <ele>1048.94</ele>
        <time>2021-08-15T06:52:16Z</time>
      </trkpt>
      <trkpt lat="45.50976" lon="2.93579">
        <ele>1048.94</ele>
        <time>2021-08-15T06:52:17Z</time>
      </trkpt>
      <trkpt lat="45.50977" lon="2.93575">
        <ele>1048.94</ele>
        <time>2021-08-15T06:52:18Z</time>
      </trkpt>
      <trkpt lat="45.50991" lon="2.93566">
        <ele>1048.94</ele>
        <time>2021-08-15T06:52:23Z</time>
      </trkpt>
      <trkpt lat="45.50999" lon="2.93556">
        <ele>1048.94</ele>
        <time>2021-08-15T06:52:26Z</time>
      </trkpt>
      <trkpt lat="45.51" lon="2.93552">
        <ele>1048.94</ele>
        <time>2021-08-15T06:52:27Z</time>
      </trkpt>
      <trkpt lat="45.51002" lon="2.93547">
        <ele>1048.94</ele>
        <time>2021-08-15T06:52:28Z</time>
      </trkpt>
      <trkpt lat="45.51002" lon="2.93542">
        <ele>1048.94</ele>
        <time>2021-08-15T06:52:29Z</time>
      </trkpt>
      <trkpt lat="45.51002" lon="2.93538">
        <ele>1048.94</ele>
        <time>2021-08-15T06:52:30Z</time>
      </trkpt>
      <trkpt lat="45.51003" lon="2.9353">
        <ele>1050.86</ele>
        <time>2021-08-15T06:52:33Z</time>
      </trkpt>
      <trkpt lat="45.51004" lon="2.93526">
        <ele>1050.86</ele>
        <time>2021-08-15T06:52:36Z</time>
      </trkpt>
      <trkpt lat="45.51003" lon="2.93521">
        <ele>1051.34</ele>
        <time>2021-08-15T06:52:44Z</time>
      </trkpt>
      <trkpt lat="45.51002" lon="2.93525">
        <ele>1051.34</ele>
        <time>2021-08-15T06:52:59Z</time>
      </trkpt>
      <trkpt lat="45.51002" lon="2.93526">
        <ele>1051.34</ele>
        <time>2021-08-15T06:53:15Z</time>
      </trkpt>
      <trkpt lat="45.51" lon="2.93527">
        <ele>1051.34</ele>
        <time>2021-08-15T06:53:28Z</time>
      </trkpt>
      <trkpt lat="45.50998" lon="2.93528">
        <ele>1051.34</ele>
        <time>2021-08-15T06:53:42Z</time>
      </trkpt>
      <trkpt lat="45.50997" lon="2.9353">
        <ele>1050.86</ele>
        <time>2021-08-15T06:53:58Z</time>
      </trkpt>
      <trkpt lat="45.50999" lon="2.93528">
        <ele>1050.86</ele>
        <time>2021-08-15T06:54:14Z</time>
      </trkpt>
      <trkpt lat="45.50998" lon="2.93527">
        <ele>1050.38</ele>
        <time>2021-08-15T06:54:31Z</time>
      </trkpt>
      <trkpt lat="45.50998" lon="2.93528">
        <ele>1050.38</ele>
        <time>2021-08-15T06:54:51Z</time>
      </trkpt>
      <trkpt lat="45.50995" lon="2.93531">
        <ele>1049.9</ele>
        <time>2021-08-15T06:55:03Z</time>
      </trkpt>
      <trkpt lat="45.50993" lon="2.93533">
        <ele>1049.9</ele>
        <time>2021-08-15T06:55:14Z</time>
      </trkpt>
      <trkpt lat="45.50996" lon="2.93531">
        <ele>1049.9</ele>
        <time>2021-08-15T06:55:28Z</time>
      </trkpt>
      <trkpt lat="45.50998" lon="2.93529">
        <ele>1049.42</ele>
        <time>2021-08-15T06:55:45Z</time>
      </trkpt>
      <trkpt lat="45.50999" lon="2.93528">
        <ele>1049.42</ele>
        <time>2021-08-15T06:56:00Z</time>
      </trkpt>
      <trkpt lat="45.50997" lon="2.93529">
        <ele>1048.94</ele>
        <time>2021-08-15T06:56:13Z</time>
      </trkpt>
      <trkpt lat="45.50998" lon="2.93527">
        <ele>1048.94</ele>
        <time>2021-08-15T06:56:25Z</time>
      </trkpt>
      <trkpt lat="45.50997" lon="2.93529">
        <ele>1048.45</ele>
        <time>2021-08-15T06:56:38Z</time>
      </trkpt>
      <trkpt lat="45.50998" lon="2.93527">
        <ele>1048.45</ele>
        <time>2021-08-15T06:56:55Z</time>
      </trkpt>
      <trkpt lat="45.50995" lon="2.93531">
        <ele>1047.97</ele>
        <time>2021-08-15T06:57:13Z</time>
      </trkpt>
      <trkpt lat="45.50992" lon="2.93534">
        <ele>1047.97</ele>
        <time>2021-08-15T06:57:29Z</time>
      </trkpt>
      <trkpt lat="45.50989" lon="2.93535">
        <ele>1047.49</ele>
        <time>2021-08-15T06:57:45Z</time>
      </trkpt>
      <trkpt lat="45.5099" lon="2.93534">
        <ele>1047.49</ele>
        <time>2021-08-15T06:57:58Z</time>
      </trkpt>
      <trkpt lat="45.50992" lon="2.93532">
        <ele>1047.01</ele>
        <time>2021-08-15T06:58:10Z</time>
      </trkpt>
      <trkpt lat="45.50993" lon="2.93532">
        <ele>1047.01</ele>
        <time>2021-08-15T06:58:19Z</time>
      </trkpt>
      <trkpt lat="45.50995" lon="2.9353">
        <ele>1046.53</ele>
        <time>2021-08-15T06:58:30Z</time>
      </trkpt>
      <trkpt lat="45.50996" lon="2.9353">
        <ele>1046.53</ele>
        <time>2021-08-15T06:58:43Z</time>
      </trkpt>
      <trkpt lat="45.50996" lon="2.9353">
        <ele>1046.53</ele>
        <time>2021-08-15T06:59:01Z</time>
      </trkpt>
      <trkpt lat="45.50996" lon="2.93529">
        <ele>1046.05</ele>
        <time>2021-08-15T06:59:19Z</time>
      </trkpt>
      <trkpt lat="45.50997" lon="2.93528">
        <ele>1046.05</ele>
        <time>2021-08-15T06:59:39Z</time>
      </trkpt>
      <trkpt lat="45.50999" lon="2.93525">
        <ele>1045.57</ele>
        <time>2021-08-15T06:59:53Z</time>
      </trkpt>
      <trkpt lat="45.50998" lon="2.93527">
        <ele>1045.57</ele>
        <time>2021-08-15T07:00:08Z</time>
      </trkpt>
      <trkpt lat="45.50992" lon="2.93534">
        <ele>1045.09</ele>
        <time>2021-08-15T07:00:27Z</time>
      </trkpt>
      <trkpt lat="45.50987" lon="2.9354">
        <ele>1045.09</ele>
        <time>2021-08-15T07:00:46Z</time>
      </trkpt>
      <trkpt lat="45.50988" lon="2.93539">
        <ele>1044.61</ele>
        <time>2021-08-15T07:01:09Z</time>
      </trkpt>
      <trkpt lat="45.5099" lon="2.93537">
        <ele>1044.61</ele>
        <time>2021-08-15T07:01:22Z</time>
      </trkpt>
      <trkpt lat="45.50992" lon="2.93535">
        <ele>1044.61</ele>
        <time>2021-08-15T07:01:41Z</time>
      </trkpt>
      <trkpt lat="45.50993" lon="2.93532">
        <ele>1044.13</ele>
        <time>2021-08-15T07:01:53Z</time>
      </trkpt>
      <trkpt lat="45.50993" lon="2.93533">
        <ele>1044.13</ele>
        <time>2021-08-15T07:02:07Z</time>
      </trkpt>
      <trkpt lat="45.50992" lon="2.93536">
        <ele>1044.13</ele>
        <time>2021-08-15T07:02:23Z</time>
      </trkpt>
      <trkpt lat="45.50993" lon="2.93536">
        <ele>1043.65</ele>
        <time>2021-08-15T07:02:38Z</time>
      </trkpt>
      <trkpt lat="45.50992" lon="2.93543">
        <ele>1043.65</ele>
        <time>2021-08-15T07:02:55Z</time>
      </trkpt>
      <trkpt lat="45.50991" lon="2.93544">
        <ele>1043.65</ele>
        <time>2021-08-15T07:03:14Z</time>
      </trkpt>
      <trkpt lat="45.50987" lon="2.93542">
        <ele>1043.65</ele>
        <time>2021-08-15T07:03:18Z</time>
      </trkpt>
      <trkpt lat="45.50988" lon="2.93544">
        <ele>1043.65</ele>
        <time>2021-08-15T07:03:21Z</time>
      </trkpt>
      <trkpt lat="45.50988" lon="2.93544">
        <ele>1043.65</ele>
        <time>2021-08-15T07:03:22Z</time>
      </trkpt>
      <trkpt lat="45.50994" lon="2.93542">
        <ele>1043.17</ele>
        <time>2021-08-15T07:03:27Z</time>
      </trkpt>
      <trkpt lat="45.50996" lon="2.93538">
        <ele>1043.17</ele>
        <time>2021-08-15T07:03:40Z</time>
      </trkpt>
      <trkpt lat="45.50997" lon="2.93534">
        <ele>1043.17</ele>
        <time>2021-08-15T07:03:57Z</time>
      </trkpt>
      <trkpt lat="45.50997" lon="2.93534">
        <ele>1043.17</ele>
        <time>2021-08-15T07:04:08Z</time>
      </trkpt>
      <trkpt lat="45.50999" lon="2.93537">
        <ele>1043.17</ele>
        <time>2021-08-15T07:04:26Z</time>
      </trkpt>
      <trkpt lat="45.50998" lon="2.9354">
        <ele>1043.17</ele>
        <time>2021-08-15T07:04:37Z</time>
      </trkpt>
      <trkpt lat="45.50997" lon="2.93543">
        <ele>1043.17</ele>
        <time>2021-08-15T07:04:47Z</time>
      </trkpt>
      <trkpt lat="45.50995" lon="2.93547">
        <ele>1043.17</ele>
        <time>2021-08-15T07:04:59Z</time>
      </trkpt>
      <trkpt lat="45.50995" lon="2.93546">
        <ele>1043.17</ele>
        <time>2021-08-15T07:05:12Z</time>
      </trkpt>
      <trkpt lat="45.50998" lon="2.93539">
        <ele>1042.69</ele>
        <time>2021-08-15T07:05:29Z</time>
      </trkpt>
      <trkpt lat="45.50999" lon="2.93535">
        <ele>1042.69</ele>
        <time>2021-08-15T07:05:45Z</time>
      </trkpt>
      <trkpt lat="45.50998" lon="2.93538">
        <ele>1042.69</ele>
        <time>2021-08-15T07:05:59Z</time>
      </trkpt>
      <trkpt lat="45.50998" lon="2.93535">
        <ele>1042.69</ele>
        <time>2021-08-15T07:06:10Z</time>
      </trkpt>
      <trkpt lat="45.50998" lon="2.93535">
        <ele>1042.69</ele>
        <time>2021-08-15T07:06:21Z</time>
      </trkpt>
      <trkpt lat="45.50999" lon="2.93532">
        <ele>1042.69</ele>
        <time>2021-08-15T07:06:35Z</time>
      </trkpt>
      <trkpt lat="45.50999" lon="2.93533">
        <ele>1042.69</ele>
        <time>2021-08-15T07:06:49Z</time>
      </trkpt>
      <trkpt lat="45.50998" lon="2.93537">
        <ele>1042.69</ele>
        <time>2021-08-15T07:07:00Z</time>
      </trkpt>
      <trkpt lat="45.51" lon="2.93538">
        <ele>1042.21</ele>
        <time>2021-08-15T07:07:15Z</time>
      </trkpt>
      <trkpt lat="45.51001" lon="2.93542">
        <ele>1042.21</ele>
        <time>2021-08-15T07:07:28Z</time>
      </trkpt>
      <trkpt lat="45.51001" lon="2.93542">
        <ele>1042.21</ele>
        <time>2021-08-15T07:07:41Z</time>
      </trkpt>
      <trkpt lat="45.51002" lon="2.93543">
        <ele>1042.21</ele>
        <time>2021-08-15T07:07:54Z</time>
      </trkpt>
      <trkpt lat="45.51002" lon="2.93545">
        <ele>1042.21</ele>
        <time>2021-08-15T07:08:07Z</time>
      </trkpt>
      <trkpt lat="45.51001" lon="2.93547">
        <ele>1042.21</ele>
        <time>2021-08-15T07:08:20Z</time>
      </trkpt>
      <trkpt lat="45.51001" lon="2.93548">
        <ele>1041.73</ele>
        <time>2021-08-15T07:08:36Z</time>
      </trkpt>
      <trkpt lat="45.51" lon="2.93545">
        <ele>1042.21</ele>
        <time>2021-08-15T07:08:50Z</time>
      </trkpt>
      <trkpt lat="45.50999" lon="2.93543">
        <ele>1042.21</ele>
        <time>2021-08-15T07:09:06Z</time>
      </trkpt>
      <trkpt lat="45.50994" lon="2.93549">
        <ele>1042.21</ele>
        <time>2021-08-15T07:09:23Z</time>
      </trkpt>
      <trkpt lat="45.50998" lon="2.93539">
        <ele>1042.69</ele>
        <time>2021-08-15T07:09:38Z</time>
      </trkpt>
      <trkpt lat="45.50997" lon="2.93542">
        <ele>1042.21</ele>
        <time>2021-08-15T07:09:48Z</time>
      </trkpt>
      <trkpt lat="45.50998" lon="2.93538">
        <ele>1042.21</ele>
        <time>2021-08-15T07:10:04Z</time>
      </trkpt>
      <trkpt lat="45.50999" lon="2.93533">
        <ele>1042.21</ele>
        <time>2021-08-15T07:10:19Z</time>
      </trkpt>
      <trkpt lat="45.51" lon="2.93532">
        <ele>1042.21</ele>
        <time>2021-08-15T07:10:29Z</time>
      </trkpt>
      <trkpt lat="45.51001" lon="2.93532">
        <ele>1041.73</ele>
        <time>2021-08-15T07:10:45Z</time>
      </trkpt>
      <trkpt lat="45.51001" lon="2.93531">
        <ele>1041.73</ele>
        <time>2021-08-15T07:11:01Z</time>
      </trkpt>
      <trkpt lat="45.51" lon="2.9353">
        <ele>1041.73</ele>
        <time>2021-08-15T07:11:16Z</time>
      </trkpt>
      <trkpt lat="45.51" lon="2.93529">
        <ele>1041.73</ele>
        <time>2021-08-15T07:11:25Z</time>
      </trkpt>
      <trkpt lat="45.50998" lon="2.9353">
        <ele>1041.25</ele>
        <time>2021-08-15T07:11:33Z</time>
      </trkpt>
      <trkpt lat="45.50998" lon="2.93528">
        <ele>1041.25</ele>
        <time>2021-08-15T07:11:50Z</time>
      </trkpt>
      <trkpt lat="45.50996" lon="2.93531">
        <ele>1041.25</ele>
        <time>2021-08-15T07:12:05Z</time>
      </trkpt>
      <trkpt lat="45.50995" lon="2.93533">
        <ele>1040.76</ele>
        <time>2021-08-15T07:12:20Z</time>
      </trkpt>
      <trkpt lat="45.50997" lon="2.93532">
        <ele>1040.76</ele>
        <time>2021-08-15T07:12:35Z</time>
      </trkpt>
      <trkpt lat="45.50998" lon="2.93528">
        <ele>1040.76</ele>
        <time>2021-08-15T07:12:42Z</time>
      </trkpt>
      <trkpt lat="45.51002" lon="2.93513">
        <ele>1040.76</ele>
        <time>2021-08-15T07:12:50Z</time>
      </trkpt>
      <trkpt lat="45.51" lon="2.93512">
        <ele>1040.76</ele>
        <time>2021-08-15T07:12:52Z</time>
      </trkpt>
      <trkpt lat="45.50999" lon="2.93508">
        <ele>1039.32</ele>
        <time>2021-08-15T07:12:54Z</time>
      </trkpt>
      <trkpt lat="45.50997" lon="2.935">
        <ele>1039.32</ele>
        <time>2021-08-15T07:12:57Z</time>
      </trkpt>
      <trkpt lat="45.50991" lon="2.93497">
        <ele>1039.32</ele>
        <time>2021-08-15T07:13:00Z</time>
      </trkpt>
      <trkpt lat="45.50989" lon="2.93497">
        <ele>1039.32</ele>
        <time>2021-08-15T07:13:01Z</time>
      </trkpt>
      <trkpt lat="45.50987" lon="2.93497">
        <ele>1039.32</ele>
        <time>2021-08-15T07:13:02Z</time>
      </trkpt>
      <trkpt lat="45.50985" lon="2.93496">
        <ele>1039.32</ele>
        <time>2021-08-15T07:13:03Z</time>
      </trkpt>
      <trkpt lat="45.50983" lon="2.93495">
        <ele>1040.76</ele>
        <time>2021-08-15T07:13:04Z</time>
      </trkpt>
      <trkpt lat="45.50982" lon="2.93493">
        <ele>1040.76</ele>
        <time>2021-08-15T07:13:05Z</time>
      </trkpt>
      <trkpt lat="45.50981" lon="2.93492">
        <ele>1040.76</ele>
        <time>2021-08-15T07:13:06Z</time>
      </trkpt>
      <trkpt lat="45.50977" lon="2.93475">
        <ele>1041.73</ele>
        <time>2021-08-15T07:13:14Z</time>
      </trkpt>
      <trkpt lat="45.5098" lon="2.93461">
        <ele>1042.21</ele>
        <time>2021-08-15T07:13:22Z</time>
      </trkpt>
      <trkpt lat="45.50976" lon="2.93451">
        <ele>1042.21</ele>
        <time>2021-08-15T07:13:28Z</time>
      </trkpt>
      <trkpt lat="45.50976" lon="2.93449">
        <ele>1042.69</ele>
        <time>2021-08-15T07:13:29Z</time>
      </trkpt>
      <trkpt lat="45.5097" lon="2.93432">
        <ele>1044.13</ele>
        <time>2021-08-15T07:13:37Z</time>
      </trkpt>
      <trkpt lat="45.50959" lon="2.93434">
        <ele>1043.17</ele>
        <time>2021-08-15T07:13:43Z</time>
      </trkpt>
      <trkpt lat="45.50956" lon="2.93436">
        <ele>1043.17</ele>
        <time>2021-08-15T07:13:44Z</time>
      </trkpt>
      <trkpt lat="45.50954" lon="2.93439">
        <ele>1043.17</ele>
        <time>2021-08-15T07:13:45Z</time>
      </trkpt>
      <trkpt lat="45.50952" lon="2.93441">
        <ele>1043.17</ele>
        <time>2021-08-15T07:13:46Z</time>
      </trkpt>
      <trkpt lat="45.5094" lon="2.93451">
        <ele>1044.13</ele>
        <time>2021-08-15T07:13:53Z</time>
      </trkpt>
      <trkpt lat="45.50929" lon="2.93453">
        <ele>1045.57</ele>
        <time>2021-08-15T07:14:02Z</time>
      </trkpt>
      <trkpt lat="45.50919" lon="2.93459">
        <ele>1046.05</ele>
        <time>2021-08-15T07:14:09Z</time>
      </trkpt>
      <trkpt lat="45.50917" lon="2.93459">
        <ele>1046.53</ele>
        <time>2021-08-15T07:14:10Z</time>
      </trkpt>
      <trkpt lat="45.50916" lon="2.93459">
        <ele>1043.17</ele>
        <time>2021-08-15T07:14:11Z</time>
      </trkpt>
      <trkpt lat="45.50914" lon="2.9346">
        <ele>1050.38</ele>
        <time>2021-08-15T07:14:12Z</time>
      </trkpt>
      <trkpt lat="45.50913" lon="2.93461">
        <ele>1047.01</ele>
        <time>2021-08-15T07:14:13Z</time>
      </trkpt>
      <trkpt lat="45.50911" lon="2.93461">
        <ele>1047.01</ele>
        <time>2021-08-15T07:14:15Z</time>
      </trkpt>
      <trkpt lat="45.50909" lon="2.93462">
        <ele>1047.01</ele>
        <time>2021-08-15T07:14:16Z</time>
      </trkpt>
      <trkpt lat="45.50899" lon="2.93471">
        <ele>1048.45</ele>
        <time>2021-08-15T07:14:25Z</time>
      </trkpt>
      <trkpt lat="45.50897" lon="2.93473">
        <ele>1048.94</ele>
        <time>2021-08-15T07:14:27Z</time>
      </trkpt>
      <trkpt lat="45.50896" lon="2.93473">
        <ele>1048.94</ele>
        <time>2021-08-15T07:14:28Z</time>
      </trkpt>
      <trkpt lat="45.50893" lon="2.93474">
        <ele>1049.42</ele>
        <time>2021-08-15T07:14:30Z</time>
      </trkpt>
      <trkpt lat="45.50892" lon="2.93475">
        <ele>1049.42</ele>
        <time>2021-08-15T07:14:31Z</time>
      </trkpt>
      <trkpt lat="45.50891" lon="2.93476">
        <ele>1049.9</ele>
        <time>2021-08-15T07:14:32Z</time>
      </trkpt>
      <trkpt lat="45.50885" lon="2.9348">
        <ele>1050.38</ele>
        <time>2021-08-15T07:14:37Z</time>
      </trkpt>
      <trkpt lat="45.50884" lon="2.93481">
        <ele>1050.86</ele>
        <time>2021-08-15T07:14:38Z</time>
      </trkpt>
      <trkpt lat="45.50882" lon="2.93482">
        <ele>1050.86</ele>
        <time>2021-08-15T07:14:39Z</time>
      </trkpt>
      <trkpt lat="45.50881" lon="2.93483">
        <ele>1051.34</ele>
        <time>2021-08-15T07:14:40Z</time>
      </trkpt>
      <trkpt lat="45.50881" lon="2.93484">
        <ele>1051.34</ele>
        <time>2021-08-15T07:14:41Z</time>
      </trkpt>
      <trkpt lat="45.50879" lon="2.93484">
        <ele>1051.34</ele>
        <time>2021-08-15T07:14:42Z</time>
      </trkpt>
      <trkpt lat="45.50878" lon="2.93485">
        <ele>1051.82</ele>
        <time>2021-08-15T07:14:43Z</time>
      </trkpt>
      <trkpt lat="45.50877" lon="2.93486">
        <ele>1051.82</ele>
        <time>2021-08-15T07:14:44Z</time>
      </trkpt>
      <trkpt lat="45.50876" lon="2.93487">
        <ele>1051.82</ele>
        <time>2021-08-15T07:14:45Z</time>
      </trkpt>
      <trkpt lat="45.50875" lon="2.93488">
        <ele>1051.82</ele>
        <time>2021-08-15T07:14:46Z</time>
      </trkpt>
      <trkpt lat="45.50863" lon="2.93497">
        <ele>1053.74</ele>
        <time>2021-08-15T07:14:57Z</time>
      </trkpt>
      <trkpt lat="45.50853" lon="2.93503">
        <ele>1054.7</ele>
        <time>2021-08-15T07:15:06Z</time>
      </trkpt>
      <trkpt lat="45.50848" lon="2.93506">
        <ele>1055.67</ele>
        <time>2021-08-15T07:15:11Z</time>
      </trkpt>
      <trkpt lat="45.50846" lon="2.93506">
        <ele>1055.67</ele>
        <time>2021-08-15T07:15:12Z</time>
      </trkpt>
      <trkpt lat="45.50845" lon="2.93505">
        <ele>1055.67</ele>
        <time>2021-08-15T07:15:13Z</time>
      </trkpt>
      <trkpt lat="45.50844" lon="2.93506">
        <ele>1056.15</ele>
        <time>2021-08-15T07:15:14Z</time>
      </trkpt>
      <trkpt lat="45.50843" lon="2.93506">
        <ele>1056.15</ele>
        <time>2021-08-15T07:15:15Z</time>
      </trkpt>
      <trkpt lat="45.50842" lon="2.93507">
        <ele>1056.15</ele>
        <time>2021-08-15T07:15:16Z</time>
      </trkpt>
      <trkpt lat="45.50841" lon="2.93508">
        <ele>1056.15</ele>
        <time>2021-08-15T07:15:17Z</time>
      </trkpt>
      <trkpt lat="45.5084" lon="2.93509">
        <ele>1057.11</ele>
        <time>2021-08-15T07:15:18Z</time>
      </trkpt>
      <trkpt lat="45.5084" lon="2.9351">
        <ele>1057.11</ele>
        <time>2021-08-15T07:15:19Z</time>
      </trkpt>
      <trkpt lat="45.50839" lon="2.93511">
        <ele>1057.11</ele>
        <time>2021-08-15T07:15:20Z</time>
      </trkpt>
      <trkpt lat="45.5083" lon="2.93513">
        <ele>1058.07</ele>
        <time>2021-08-15T07:15:28Z</time>
      </trkpt>
      <trkpt lat="45.50825" lon="2.93516">
        <ele>1058.55</ele>
        <time>2021-08-15T07:15:33Z</time>
      </trkpt>
      <trkpt lat="45.50815" lon="2.93519">
        <ele>1060.47</ele>
        <time>2021-08-15T07:15:42Z</time>
      </trkpt>
      <trkpt lat="45.50813" lon="2.93519">
        <ele>1060.95</ele>
        <time>2021-08-15T07:15:44Z</time>
      </trkpt>
      <trkpt lat="45.50811" lon="2.93519">
        <ele>1060.95</ele>
        <time>2021-08-15T07:15:45Z</time>
      </trkpt>
      <trkpt lat="45.5081" lon="2.93518">
        <ele>1060.95</ele>
        <time>2021-08-15T07:15:46Z</time>
      </trkpt>
      <trkpt lat="45.5081" lon="2.93517">
        <ele>1060.95</ele>
        <time>2021-08-15T07:15:47Z</time>
      </trkpt>
      <trkpt lat="45.50809" lon="2.93515">
        <ele>1060.95</ele>
        <time>2021-08-15T07:15:48Z</time>
      </trkpt>
      <trkpt lat="45.50808" lon="2.93514">
        <ele>1060.95</ele>
        <time>2021-08-15T07:15:49Z</time>
      </trkpt>
      <trkpt lat="45.50803" lon="2.93502">
        <ele>1061.91</ele>
        <time>2021-08-15T07:15:56Z</time>
      </trkpt>
      <trkpt lat="45.50796" lon="2.93482">
        <ele>1061.91</ele>
        <time>2021-08-15T07:16:06Z</time>
      </trkpt>
      <trkpt lat="45.50794" lon="2.93466">
        <ele>1062.87</ele>
        <time>2021-08-15T07:16:14Z</time>
      </trkpt>
      <trkpt lat="45.50788" lon="2.93444">
        <ele>1063.84</ele>
        <time>2021-08-15T07:16:25Z</time>
      </trkpt>
      <trkpt lat="45.50782" lon="2.93418">
        <ele>1065.28</ele>
        <time>2021-08-15T07:16:37Z</time>
      </trkpt>
      <trkpt lat="45.50777" lon="2.93404">
        <ele>1065.76</ele>
        <time>2021-08-15T07:16:44Z</time>
      </trkpt>
      <trkpt lat="45.50773" lon="2.93385">
        <ele>1066.24</ele>
        <time>2021-08-15T07:16:53Z</time>
      </trkpt>
      <trkpt lat="45.50771" lon="2.9337">
        <ele>1067.2</ele>
        <time>2021-08-15T07:17:00Z</time>
      </trkpt>
      <trkpt lat="45.50771" lon="2.93368">
        <ele>1067.2</ele>
        <time>2021-08-15T07:17:01Z</time>
      </trkpt>
      <trkpt lat="45.5077" lon="2.93366">
        <ele>1067.2</ele>
        <time>2021-08-15T07:17:02Z</time>
      </trkpt>
      <trkpt lat="45.5077" lon="2.93364">
        <ele>1067.2</ele>
        <time>2021-08-15T07:17:03Z</time>
      </trkpt>
      <trkpt lat="45.50769" lon="2.93362">
        <ele>1067.2</ele>
        <time>2021-08-15T07:17:04Z</time>
      </trkpt>
      <trkpt lat="45.50769" lon="2.9336">
        <ele>1067.2</ele>
        <time>2021-08-15T07:17:05Z</time>
      </trkpt>
      <trkpt lat="45.50765" lon="2.93345">
        <ele>1068.16</ele>
        <time>2021-08-15T07:17:13Z</time>
      </trkpt>
      <trkpt lat="45.50758" lon="2.93322">
        <ele>1069.12</ele>
        <time>2021-08-15T07:17:23Z</time>
      </trkpt>
      <trkpt lat="45.50751" lon="2.93293">
        <ele>1070.57</ele>
        <time>2021-08-15T07:17:35Z</time>
      </trkpt>
      <trkpt lat="45.50745" lon="2.93273">
        <ele>1071.05</ele>
        <time>2021-08-15T07:17:44Z</time>
      </trkpt>
      <trkpt lat="45.50739" lon="2.93252">
        <ele>1072.49</ele>
        <time>2021-08-15T07:17:54Z</time>
      </trkpt>
      <trkpt lat="45.50736" lon="2.93244">
        <ele>1072.97</ele>
        <time>2021-08-15T07:17:58Z</time>
      </trkpt>
      <trkpt lat="45.5073" lon="2.93226">
        <ele>1073.45</ele>
        <time>2021-08-15T07:18:07Z</time>
      </trkpt>
      <trkpt lat="45.50719" lon="2.93206">
        <ele>1074.89</ele>
        <time>2021-08-15T07:18:18Z</time>
      </trkpt>
      <trkpt lat="45.50714" lon="2.932">
        <ele>1075.85</ele>
        <time>2021-08-15T07:18:22Z</time>
      </trkpt>
      <trkpt lat="45.50713" lon="2.93199">
        <ele>1075.85</ele>
        <time>2021-08-15T07:18:23Z</time>
      </trkpt>
      <trkpt lat="45.50711" lon="2.93198">
        <ele>1075.85</ele>
        <time>2021-08-15T07:18:24Z</time>
      </trkpt>
      <trkpt lat="45.5071" lon="2.93197">
        <ele>1075.85</ele>
        <time>2021-08-15T07:18:25Z</time>
      </trkpt>
      <trkpt lat="45.50708" lon="2.93196">
        <ele>1075.85</ele>
        <time>2021-08-15T07:18:26Z</time>
      </trkpt>
      <trkpt lat="45.50697" lon="2.93185">
        <ele>1076.81</ele>
        <time>2021-08-15T07:18:34Z</time>
      </trkpt>
      <trkpt lat="45.5068" lon="2.93178">
        <ele>1078.74</ele>
        <time>2021-08-15T07:18:45Z</time>
      </trkpt>
      <trkpt lat="45.50664" lon="2.93173">
        <ele>1080.18</ele>
        <time>2021-08-15T07:18:55Z</time>
      </trkpt>
      <trkpt lat="45.50652" lon="2.93178">
        <ele>1080.66</ele>
        <time>2021-08-15T07:19:03Z</time>
      </trkpt>
      <trkpt lat="45.50637" lon="2.93187">
        <ele>1080.66</ele>
        <time>2021-08-15T07:19:11Z</time>
      </trkpt>
      <trkpt lat="45.5062" lon="2.93184">
        <ele>1080.66</ele>
        <time>2021-08-15T07:19:17Z</time>
      </trkpt>
      <trkpt lat="45.50615" lon="2.93181">
        <ele>1080.66</ele>
        <time>2021-08-15T07:19:18Z</time>
      </trkpt>
      <trkpt lat="45.50603" lon="2.9317">
        <ele>1078.26</ele>
        <time>2021-08-15T07:19:21Z</time>
      </trkpt>
      <trkpt lat="45.50597" lon="2.93161">
        <ele>1078.26</ele>
        <time>2021-08-15T07:19:23Z</time>
      </trkpt>
      <trkpt lat="45.50587" lon="2.93141">
        <ele>1077.78</ele>
        <time>2021-08-15T07:19:26Z</time>
      </trkpt>
      <trkpt lat="45.50586" lon="2.93136">
        <ele>1077.78</ele>
        <time>2021-08-15T07:19:27Z</time>
      </trkpt>
      <trkpt lat="45.50585" lon="2.93131">
        <ele>1077.78</ele>
        <time>2021-08-15T07:19:28Z</time>
      </trkpt>
      <trkpt lat="45.50586" lon="2.93127">
        <ele>1078.74</ele>
        <time>2021-08-15T07:19:29Z</time>
      </trkpt>
      <trkpt lat="45.50586" lon="2.93124">
        <ele>1078.74</ele>
        <time>2021-08-15T07:19:30Z</time>
      </trkpt>
      <trkpt lat="45.50585" lon="2.93122">
        <ele>1079.22</ele>
        <time>2021-08-15T07:19:31Z</time>
      </trkpt>
      <trkpt lat="45.50584" lon="2.93121">
        <ele>1080.18</ele>
        <time>2021-08-15T07:19:32Z</time>
      </trkpt>
      <trkpt lat="45.50582" lon="2.93118">
        <ele>1081.14</ele>
        <time>2021-08-15T07:19:35Z</time>
      </trkpt>
      <trkpt lat="45.50581" lon="2.93116">
        <ele>1080.66</ele>
        <time>2021-08-15T07:19:36Z</time>
      </trkpt>
      <trkpt lat="45.5058" lon="2.93115">
        <ele>1081.14</ele>
        <time>2021-08-15T07:19:37Z</time>
      </trkpt>
      <trkpt lat="45.5058" lon="2.93113">
        <ele>1081.14</ele>
        <time>2021-08-15T07:19:38Z</time>
      </trkpt>
      <trkpt lat="45.50579" lon="2.93112">
        <ele>1081.62</ele>
        <time>2021-08-15T07:19:39Z</time>
      </trkpt>
      <trkpt lat="45.50576" lon="2.93099">
        <ele>1082.58</ele>
        <time>2021-08-15T07:19:47Z</time>
      </trkpt>
      <trkpt lat="45.50579" lon="2.93087">
        <ele>1084.02</ele>
        <time>2021-08-15T07:19:54Z</time>
      </trkpt>
      <trkpt lat="45.50578" lon="2.93085">
        <ele>1084.5</ele>
        <time>2021-08-15T07:19:55Z</time>
      </trkpt>
      <trkpt lat="45.50577" lon="2.93084">
        <ele>1084.5</ele>
        <time>2021-08-15T07:19:56Z</time>
      </trkpt>
      <trkpt lat="45.50576" lon="2.93083">
        <ele>1084.02</ele>
        <time>2021-08-15T07:19:57Z</time>
      </trkpt>
      <trkpt lat="45.50575" lon="2.93082">
        <ele>1084.5</ele>
        <time>2021-08-15T07:19:58Z</time>
      </trkpt>
      <trkpt lat="45.50574" lon="2.93082">
        <ele>1084.02</ele>
        <time>2021-08-15T07:19:59Z</time>
      </trkpt>
      <trkpt lat="45.50572" lon="2.93081">
        <ele>1084.5</ele>
        <time>2021-08-15T07:20:00Z</time>
      </trkpt>
      <trkpt lat="45.50571" lon="2.9308">
        <ele>1084.99</ele>
        <time>2021-08-15T07:20:01Z</time>
      </trkpt>
      <trkpt lat="45.5057" lon="2.93078">
        <ele>1084.99</ele>
        <time>2021-08-15T07:20:02Z</time>
      </trkpt>
      <trkpt lat="45.50569" lon="2.93077">
        <ele>1084.99</ele>
        <time>2021-08-15T07:20:03Z</time>
      </trkpt>
      <trkpt lat="45.50569" lon="2.93076">
        <ele>1084.99</ele>
        <time>2021-08-15T07:20:04Z</time>
      </trkpt>
      <trkpt lat="45.50568" lon="2.93074">
        <ele>1085.47</ele>
        <time>2021-08-15T07:20:05Z</time>
      </trkpt>
      <trkpt lat="45.5056" lon="2.93061">
        <ele>1086.91</ele>
        <time>2021-08-15T07:20:15Z</time>
      </trkpt>
      <trkpt lat="45.50552" lon="2.93048">
        <ele>1088.35</ele>
        <time>2021-08-15T07:20:26Z</time>
      </trkpt>
      <trkpt lat="45.50542" lon="2.93033">
        <ele>1090.75</ele>
        <time>2021-08-15T07:20:38Z</time>
      </trkpt>
      <trkpt lat="45.50533" lon="2.93027">
        <ele>1091.23</ele>
        <time>2021-08-15T07:20:47Z</time>
      </trkpt>
      <trkpt lat="45.50521" lon="2.93021">
        <ele>1092.68</ele>
        <time>2021-08-15T07:20:57Z</time>
      </trkpt>
      <trkpt lat="45.5051" lon="2.93018">
        <ele>1094.12</ele>
        <time>2021-08-15T07:21:07Z</time>
      </trkpt>
      <trkpt lat="45.505" lon="2.93019">
        <ele>1096.04</ele>
        <time>2021-08-15T07:21:16Z</time>
      </trkpt>
      <trkpt lat="45.50499" lon="2.93018">
        <ele>1096.04</ele>
        <time>2021-08-15T07:21:17Z</time>
      </trkpt>
      <trkpt lat="45.50495" lon="2.93016">
        <ele>1096.52</ele>
        <time>2021-08-15T07:21:21Z</time>
      </trkpt>
      <trkpt lat="45.50489" lon="2.93014">
        <ele>1097.96</ele>
        <time>2021-08-15T07:21:29Z</time>
      </trkpt>
      <trkpt lat="45.50479" lon="2.93014">
        <ele>1099.89</ele>
        <time>2021-08-15T07:21:39Z</time>
      </trkpt>
      <trkpt lat="45.5047" lon="2.93013">
        <ele>1100.85</ele>
        <time>2021-08-15T07:21:49Z</time>
      </trkpt>
      <trkpt lat="45.50468" lon="2.93012">
        <ele>1101.81</ele>
        <time>2021-08-15T07:21:57Z</time>
      </trkpt>
      <trkpt lat="45.50463" lon="2.93011">
        <ele>1102.29</ele>
        <time>2021-08-15T07:22:04Z</time>
      </trkpt>
      <trkpt lat="45.50454" lon="2.93009">
        <ele>1103.25</ele>
        <time>2021-08-15T07:22:14Z</time>
      </trkpt>
      <trkpt lat="45.50444" lon="2.93005">
        <ele>1104.69</ele>
        <time>2021-08-15T07:22:24Z</time>
      </trkpt>
      <trkpt lat="45.50437" lon="2.93001">
        <ele>1106.61</ele>
        <time>2021-08-15T07:22:33Z</time>
      </trkpt>
      <trkpt lat="45.50431" lon="2.92996">
        <ele>1107.58</ele>
        <time>2021-08-15T07:22:42Z</time>
      </trkpt>
      <trkpt lat="45.50425" lon="2.92991">
        <ele>1109.02</ele>
        <time>2021-08-15T07:22:51Z</time>
      </trkpt>
      <trkpt lat="45.50418" lon="2.92984">
        <ele>1110.46</ele>
        <time>2021-08-15T07:23:01Z</time>
      </trkpt>
      <trkpt lat="45.5041" lon="2.92974">
        <ele>1112.38</ele>
        <time>2021-08-15T07:23:14Z</time>
      </trkpt>
      <trkpt lat="45.50408" lon="2.92971">
        <ele>1112.86</ele>
        <time>2021-08-15T07:23:17Z</time>
      </trkpt>
      <trkpt lat="45.50403" lon="2.92967">
        <ele>1113.34</ele>
        <time>2021-08-15T07:23:23Z</time>
      </trkpt>
      <trkpt lat="45.504" lon="2.92964">
        <ele>1113.34</ele>
        <time>2021-08-15T07:23:27Z</time>
      </trkpt>
      <trkpt lat="45.50391" lon="2.92957">
        <ele>1115.27</ele>
        <time>2021-08-15T07:23:38Z</time>
      </trkpt>
      <trkpt lat="45.50391" lon="2.92957">
        <ele>1115.27</ele>
        <time>2021-08-15T07:23:45Z</time>
      </trkpt>
      <trkpt lat="45.50385" lon="2.92951">
        <ele>1115.27</ele>
        <time>2021-08-15T07:23:51Z</time>
      </trkpt>
      <trkpt lat="45.50371" lon="2.92936">
        <ele>1116.71</ele>
        <time>2021-08-15T07:24:02Z</time>
      </trkpt>
      <trkpt lat="45.50358" lon="2.92918">
        <ele>1117.19</ele>
        <time>2021-08-15T07:24:12Z</time>
      </trkpt>
      <trkpt lat="45.5035" lon="2.92902">
        <ele>1116.23</ele>
        <time>2021-08-15T07:24:20Z</time>
      </trkpt>
      <trkpt lat="45.50349" lon="2.929">
        <ele>1116.23</ele>
        <time>2021-08-15T07:24:21Z</time>
      </trkpt>
      <trkpt lat="45.50341" lon="2.92885">
        <ele>1117.67</ele>
        <time>2021-08-15T07:24:28Z</time>
      </trkpt>
      <trkpt lat="45.5033" lon="2.92865">
        <ele>1118.63</ele>
        <time>2021-08-15T07:24:36Z</time>
      </trkpt>
      <trkpt lat="45.50319" lon="2.92842">
        <ele>1118.63</ele>
        <time>2021-08-15T07:24:45Z</time>
      </trkpt>
      <trkpt lat="45.50311" lon="2.92824">
        <ele>1115.27</ele>
        <time>2021-08-15T07:24:51Z</time>
      </trkpt>
      <trkpt lat="45.5031" lon="2.9282">
        <ele>1115.27</ele>
        <time>2021-08-15T07:24:52Z</time>
      </trkpt>
      <trkpt lat="45.50305" lon="2.92814">
        <ele>1117.19</ele>
        <time>2021-08-15T07:24:55Z</time>
      </trkpt>
      <trkpt lat="45.50304" lon="2.92814">
        <ele>1117.67</ele>
        <time>2021-08-15T07:24:56Z</time>
      </trkpt>
      <trkpt lat="45.50302" lon="2.92814">
        <ele>1117.67</ele>
        <time>2021-08-15T07:24:57Z</time>
      </trkpt>
      <trkpt lat="45.50291" lon="2.92807">
        <ele>1119.59</ele>
        <time>2021-08-15T07:25:06Z</time>
      </trkpt>
      <trkpt lat="45.50281" lon="2.92797">
        <ele>1120.55</ele>
        <time>2021-08-15T07:25:15Z</time>
      </trkpt>
      <trkpt lat="45.50272" lon="2.92784">
        <ele>1119.11</ele>
        <time>2021-08-15T07:25:23Z</time>
      </trkpt>
      <trkpt lat="45.5027" lon="2.92783">
        <ele>1119.11</ele>
        <time>2021-08-15T07:25:24Z</time>
      </trkpt>
      <trkpt lat="45.50269" lon="2.92782">
        <ele>1119.11</ele>
        <time>2021-08-15T07:25:25Z</time>
      </trkpt>
      <trkpt lat="45.50262" lon="2.92774">
        <ele>1120.55</ele>
        <time>2021-08-15T07:25:31Z</time>
      </trkpt>
      <trkpt lat="45.50262" lon="2.92772">
        <ele>1120.55</ele>
        <time>2021-08-15T07:25:32Z</time>
      </trkpt>
      <trkpt lat="45.50261" lon="2.9277">
        <ele>1120.55</ele>
        <time>2021-08-15T07:25:33Z</time>
      </trkpt>
      <trkpt lat="45.5026" lon="2.92768">
        <ele>1120.55</ele>
        <time>2021-08-15T07:25:34Z</time>
      </trkpt>
      <trkpt lat="45.50259" lon="2.92767">
        <ele>1120.55</ele>
        <time>2021-08-15T07:25:35Z</time>
      </trkpt>
      <trkpt lat="45.50259" lon="2.92765">
        <ele>1120.55</ele>
        <time>2021-08-15T07:25:36Z</time>
      </trkpt>
      <trkpt lat="45.5025" lon="2.92757">
        <ele>1122</ele>
        <time>2021-08-15T07:25:45Z</time>
      </trkpt>
      <trkpt lat="45.50248" lon="2.92755">
        <ele>1122.96</ele>
        <time>2021-08-15T07:25:47Z</time>
      </trkpt>
      <trkpt lat="45.50247" lon="2.92754">
        <ele>1122.96</ele>
        <time>2021-08-15T07:25:48Z</time>
      </trkpt>
      <trkpt lat="45.50245" lon="2.92754">
        <ele>1123.92</ele>
        <time>2021-08-15T07:25:49Z</time>
      </trkpt>
      <trkpt lat="45.50244" lon="2.92753">
        <ele>1124.4</ele>
        <time>2021-08-15T07:25:50Z</time>
      </trkpt>
      <trkpt lat="45.50243" lon="2.92753">
        <ele>1124.4</ele>
        <time>2021-08-15T07:25:51Z</time>
      </trkpt>
      <trkpt lat="45.50235" lon="2.92751">
        <ele>1124.88</ele>
        <time>2021-08-15T07:25:59Z</time>
      </trkpt>
      <trkpt lat="45.50233" lon="2.92749">
        <ele>1124.88</ele>
        <time>2021-08-15T07:26:01Z</time>
      </trkpt>
      <trkpt lat="45.50228" lon="2.92743">
        <ele>1125.84</ele>
        <time>2021-08-15T07:26:07Z</time>
      </trkpt>
      <trkpt lat="45.50227" lon="2.92741">
        <ele>1125.84</ele>
        <time>2021-08-15T07:26:08Z</time>
      </trkpt>
      <trkpt lat="45.50227" lon="2.9274">
        <ele>1125.84</ele>
        <time>2021-08-15T07:26:09Z</time>
      </trkpt>
      <trkpt lat="45.50226" lon="2.92738">
        <ele>1126.32</ele>
        <time>2021-08-15T07:26:10Z</time>
      </trkpt>
      <trkpt lat="45.50225" lon="2.92737">
        <ele>1126.32</ele>
        <time>2021-08-15T07:26:11Z</time>
      </trkpt>
      <trkpt lat="45.50225" lon="2.92736">
        <ele>1126.32</ele>
        <time>2021-08-15T07:26:12Z</time>
      </trkpt>
      <trkpt lat="45.50224" lon="2.92734">
        <ele>1126.32</ele>
        <time>2021-08-15T07:26:13Z</time>
      </trkpt>
      <trkpt lat="45.50223" lon="2.9273">
        <ele>1127.76</ele>
        <time>2021-08-15T07:26:16Z</time>
      </trkpt>
      <trkpt lat="45.50223" lon="2.92729">
        <ele>1127.76</ele>
        <time>2021-08-15T07:26:17Z</time>
      </trkpt>
      <trkpt lat="45.50223" lon="2.92727">
        <ele>1128.24</ele>
        <time>2021-08-15T07:26:18Z</time>
      </trkpt>
      <trkpt lat="45.50222" lon="2.92726">
        <ele>1128.24</ele>
        <time>2021-08-15T07:26:19Z</time>
      </trkpt>
      <trkpt lat="45.50222" lon="2.92724">
        <ele>1128.24</ele>
        <time>2021-08-15T07:26:20Z</time>
      </trkpt>
      <trkpt lat="45.50222" lon="2.92723">
        <ele>1128.24</ele>
        <time>2021-08-15T07:26:21Z</time>
      </trkpt>
      <trkpt lat="45.50222" lon="2.92721">
        <ele>1128.24</ele>
        <time>2021-08-15T07:26:22Z</time>
      </trkpt>
      <trkpt lat="45.50222" lon="2.9272">
        <ele>1128.73</ele>
        <time>2021-08-15T07:26:23Z</time>
      </trkpt>
      <trkpt lat="45.50222" lon="2.92718">
        <ele>1128.73</ele>
        <time>2021-08-15T07:26:24Z</time>
      </trkpt>
      <trkpt lat="45.50222" lon="2.92716">
        <ele>1128.73</ele>
        <time>2021-08-15T07:26:25Z</time>
      </trkpt>
      <trkpt lat="45.50222" lon="2.92715">
        <ele>1128.73</ele>
        <time>2021-08-15T07:26:26Z</time>
      </trkpt>
      <trkpt lat="45.50222" lon="2.92713">
        <ele>1129.21</ele>
        <time>2021-08-15T07:26:27Z</time>
      </trkpt>
      <trkpt lat="45.50221" lon="2.92712">
        <ele>1129.21</ele>
        <time>2021-08-15T07:26:28Z</time>
      </trkpt>
      <trkpt lat="45.50221" lon="2.9271">
        <ele>1129.21</ele>
        <time>2021-08-15T07:26:29Z</time>
      </trkpt>
      <trkpt lat="45.50221" lon="2.92708">
        <ele>1130.17</ele>
        <time>2021-08-15T07:26:30Z</time>
      </trkpt>
      <trkpt lat="45.50221" lon="2.92707">
        <ele>1130.17</ele>
        <time>2021-08-15T07:26:31Z</time>
      </trkpt>
      <trkpt lat="45.50221" lon="2.92705">
        <ele>1130.17</ele>
        <time>2021-08-15T07:26:32Z</time>
      </trkpt>
      <trkpt lat="45.50221" lon="2.92704">
        <ele>1130.17</ele>
        <time>2021-08-15T07:26:33Z</time>
      </trkpt>
      <trkpt lat="45.50221" lon="2.92702">
        <ele>1130.17</ele>
        <time>2021-08-15T07:26:34Z</time>
      </trkpt>
      <trkpt lat="45.50221" lon="2.92699">
        <ele>1130.65</ele>
        <time>2021-08-15T07:26:36Z</time>
      </trkpt>
      <trkpt lat="45.50221" lon="2.92689">
        <ele>1131.61</ele>
        <time>2021-08-15T07:26:42Z</time>
      </trkpt>
      <trkpt lat="45.50221" lon="2.92688">
        <ele>1131.61</ele>
        <time>2021-08-15T07:26:43Z</time>
      </trkpt>
      <trkpt lat="45.5022" lon="2.92686">
        <ele>1131.61</ele>
        <time>2021-08-15T07:26:44Z</time>
      </trkpt>
      <trkpt lat="45.5022" lon="2.92685">
        <ele>1132.09</ele>
        <time>2021-08-15T07:26:45Z</time>
      </trkpt>
      <trkpt lat="45.50219" lon="2.92684">
        <ele>1132.57</ele>
        <time>2021-08-15T07:26:46Z</time>
      </trkpt>
      <trkpt lat="45.50219" lon="2.92682">
        <ele>1132.09</ele>
        <time>2021-08-15T07:26:47Z</time>
      </trkpt>
      <trkpt lat="45.50213" lon="2.92671">
        <ele>1133.05</ele>
        <time>2021-08-15T07:26:55Z</time>
      </trkpt>
      <trkpt lat="45.50208" lon="2.92661">
        <ele>1134.49</ele>
        <time>2021-08-15T07:27:03Z</time>
      </trkpt>
      <trkpt lat="45.50207" lon="2.9266">
        <ele>1134.49</ele>
        <time>2021-08-15T07:27:04Z</time>
      </trkpt>
      <trkpt lat="45.50206" lon="2.92659">
        <ele>1134.97</ele>
        <time>2021-08-15T07:27:05Z</time>
      </trkpt>
      <trkpt lat="45.50205" lon="2.92658">
        <ele>1134.97</ele>
        <time>2021-08-15T07:27:06Z</time>
      </trkpt>
      <trkpt lat="45.50204" lon="2.92656">
        <ele>1134.97</ele>
        <time>2021-08-15T07:27:07Z</time>
      </trkpt>
      <trkpt lat="45.50203" lon="2.92655">
        <ele>1134.97</ele>
        <time>2021-08-15T07:27:08Z</time>
      </trkpt>
      <trkpt lat="45.50202" lon="2.92654">
        <ele>1134.97</ele>
        <time>2021-08-15T07:27:09Z</time>
      </trkpt>
      <trkpt lat="45.50201" lon="2.92653">
        <ele>1134.97</ele>
        <time>2021-08-15T07:27:10Z</time>
      </trkpt>
      <trkpt lat="45.502" lon="2.92652">
        <ele>1134.97</ele>
        <time>2021-08-15T07:27:11Z</time>
      </trkpt>
      <trkpt lat="45.502" lon="2.9265">
        <ele>1134.97</ele>
        <time>2021-08-15T07:27:12Z</time>
      </trkpt>
      <trkpt lat="45.502" lon="2.92649">
        <ele>1134.97</ele>
        <time>2021-08-15T07:27:13Z</time>
      </trkpt>
      <trkpt lat="45.50199" lon="2.92648">
        <ele>1134.97</ele>
        <time>2021-08-15T07:27:14Z</time>
      </trkpt>
      <trkpt lat="45.50198" lon="2.92646">
        <ele>1135.94</ele>
        <time>2021-08-15T07:27:15Z</time>
      </trkpt>
      <trkpt lat="45.50196" lon="2.92643">
        <ele>1136.42</ele>
        <time>2021-08-15T07:27:18Z</time>
      </trkpt>
      <trkpt lat="45.50195" lon="2.92642">
        <ele>1136.42</ele>
        <time>2021-08-15T07:27:19Z</time>
      </trkpt>
      <trkpt lat="45.50194" lon="2.92641">
        <ele>1136.9</ele>
        <time>2021-08-15T07:27:20Z</time>
      </trkpt>
      <trkpt lat="45.50185" lon="2.92628">
        <ele>1138.34</ele>
        <time>2021-08-15T07:27:30Z</time>
      </trkpt>
      <trkpt lat="45.50184" lon="2.92626">
        <ele>1137.86</ele>
        <time>2021-08-15T07:27:32Z</time>
      </trkpt>
      <trkpt lat="45.50179" lon="2.92615">
        <ele>1138.82</ele>
        <time>2021-08-15T07:27:40Z</time>
      </trkpt>
      <trkpt lat="45.50174" lon="2.92605">
        <ele>1140.74</ele>
        <time>2021-08-15T07:27:49Z</time>
      </trkpt>
      <trkpt lat="45.50173" lon="2.92604">
        <ele>1140.74</ele>
        <time>2021-08-15T07:27:50Z</time>
      </trkpt>
      <trkpt lat="45.50173" lon="2.92602">
        <ele>1140.74</ele>
        <time>2021-08-15T07:27:51Z</time>
      </trkpt>
      <trkpt lat="45.50173" lon="2.926">
        <ele>1141.7</ele>
        <time>2021-08-15T07:27:52Z</time>
      </trkpt>
      <trkpt lat="45.50172" lon="2.92599">
        <ele>1141.7</ele>
        <time>2021-08-15T07:27:53Z</time>
      </trkpt>
      <trkpt lat="45.50172" lon="2.92597">
        <ele>1141.7</ele>
        <time>2021-08-15T07:27:54Z</time>
      </trkpt>
      <trkpt lat="45.50167" lon="2.92583">
        <ele>1142.66</ele>
        <time>2021-08-15T07:28:04Z</time>
      </trkpt>
      <trkpt lat="45.50162" lon="2.92573">
        <ele>1144.11</ele>
        <time>2021-08-15T07:28:11Z</time>
      </trkpt>
      <trkpt lat="45.50162" lon="2.92572">
        <ele>1144.59</ele>
        <time>2021-08-15T07:28:12Z</time>
      </trkpt>
      <trkpt lat="45.50161" lon="2.9257">
        <ele>1145.07</ele>
        <time>2021-08-15T07:28:13Z</time>
      </trkpt>
      <trkpt lat="45.5016" lon="2.92569">
        <ele>1145.07</ele>
        <time>2021-08-15T07:28:14Z</time>
      </trkpt>
      <trkpt lat="45.50159" lon="2.92568">
        <ele>1144.11</ele>
        <time>2021-08-15T07:28:15Z</time>
      </trkpt>
      <trkpt lat="45.50158" lon="2.92567">
        <ele>1144.11</ele>
        <time>2021-08-15T07:28:16Z</time>
      </trkpt>
      <trkpt lat="45.50158" lon="2.92566">
        <ele>1144.11</ele>
        <time>2021-08-15T07:28:17Z</time>
      </trkpt>
      <trkpt lat="45.50154" lon="2.92558">
        <ele>1145.07</ele>
        <time>2021-08-15T07:28:22Z</time>
      </trkpt>
      <trkpt lat="45.50147" lon="2.92545">
        <ele>1145.07</ele>
        <time>2021-08-15T07:28:31Z</time>
      </trkpt>
      <trkpt lat="45.5014" lon="2.9253">
        <ele>1146.03</ele>
        <time>2021-08-15T07:28:40Z</time>
      </trkpt>
      <trkpt lat="45.50137" lon="2.92526">
        <ele>1146.03</ele>
        <time>2021-08-15T07:28:43Z</time>
      </trkpt>
      <trkpt lat="45.50136" lon="2.92524">
        <ele>1146.99</ele>
        <time>2021-08-15T07:28:44Z</time>
      </trkpt>
      <trkpt lat="45.50128" lon="2.92509">
        <ele>1147.47</ele>
        <time>2021-08-15T07:28:54Z</time>
      </trkpt>
      <trkpt lat="45.50126" lon="2.92506">
        <ele>1147.47</ele>
        <time>2021-08-15T07:28:56Z</time>
      </trkpt>
      <trkpt lat="45.50125" lon="2.92505">
        <ele>1147.47</ele>
        <time>2021-08-15T07:28:57Z</time>
      </trkpt>
      <trkpt lat="45.50125" lon="2.92504">
        <ele>1147.47</ele>
        <time>2021-08-15T07:28:58Z</time>
      </trkpt>
      <trkpt lat="45.50124" lon="2.92502">
        <ele>1148.43</ele>
        <time>2021-08-15T07:28:59Z</time>
      </trkpt>
      <trkpt lat="45.50123" lon="2.925">
        <ele>1148.43</ele>
        <time>2021-08-15T07:29:00Z</time>
      </trkpt>
      <trkpt lat="45.50123" lon="2.92499">
        <ele>1148.43</ele>
        <time>2021-08-15T07:29:01Z</time>
      </trkpt>
      <trkpt lat="45.50122" lon="2.92497">
        <ele>1148.43</ele>
        <time>2021-08-15T07:29:02Z</time>
      </trkpt>
      <trkpt lat="45.50121" lon="2.92496">
        <ele>1148.43</ele>
        <time>2021-08-15T07:29:03Z</time>
      </trkpt>
      <trkpt lat="45.5012" lon="2.92495">
        <ele>1148.43</ele>
        <time>2021-08-15T07:29:04Z</time>
      </trkpt>
      <trkpt lat="45.50119" lon="2.92494">
        <ele>1148.91</ele>
        <time>2021-08-15T07:29:05Z</time>
      </trkpt>
      <trkpt lat="45.50118" lon="2.92492">
        <ele>1148.91</ele>
        <time>2021-08-15T07:29:06Z</time>
      </trkpt>
      <trkpt lat="45.50114" lon="2.92485">
        <ele>1147.95</ele>
        <time>2021-08-15T07:29:11Z</time>
      </trkpt>
      <trkpt lat="45.50113" lon="2.92484">
        <ele>1147.95</ele>
        <time>2021-08-15T07:29:12Z</time>
      </trkpt>
      <trkpt lat="45.5011" lon="2.9248">
        <ele>1146.99</ele>
        <time>2021-08-15T07:29:15Z</time>
      </trkpt>
      <trkpt lat="45.5011" lon="2.92478">
        <ele>1149.39</ele>
        <time>2021-08-15T07:29:16Z</time>
      </trkpt>
      <trkpt lat="45.50109" lon="2.92477">
        <ele>1149.39</ele>
        <time>2021-08-15T07:29:17Z</time>
      </trkpt>
      <trkpt lat="45.50109" lon="2.92475">
        <ele>1149.87</ele>
        <time>2021-08-15T07:29:18Z</time>
      </trkpt>
      <trkpt lat="45.50108" lon="2.92474">
        <ele>1150.35</ele>
        <time>2021-08-15T07:29:19Z</time>
      </trkpt>
      <trkpt lat="45.50107" lon="2.92473">
        <ele>1149.87</ele>
        <time>2021-08-15T07:29:20Z</time>
      </trkpt>
      <trkpt lat="45.50106" lon="2.92471">
        <ele>1149.87</ele>
        <time>2021-08-15T07:29:21Z</time>
      </trkpt>
      <trkpt lat="45.50105" lon="2.9247">
        <ele>1149.87</ele>
        <time>2021-08-15T07:29:22Z</time>
      </trkpt>
      <trkpt lat="45.50105" lon="2.92469">
        <ele>1149.87</ele>
        <time>2021-08-15T07:29:23Z</time>
      </trkpt>
      <trkpt lat="45.50101" lon="2.9246">
        <ele>1151.32</ele>
        <time>2021-08-15T07:29:29Z</time>
      </trkpt>
      <trkpt lat="45.50095" lon="2.92449">
        <ele>1152.28</ele>
        <time>2021-08-15T07:29:37Z</time>
      </trkpt>
      <trkpt lat="45.50087" lon="2.92433">
        <ele>1153.24</ele>
        <time>2021-08-15T07:29:49Z</time>
      </trkpt>
      <trkpt lat="45.5008" lon="2.9242">
        <ele>1153.72</ele>
        <time>2021-08-15T07:29:57Z</time>
      </trkpt>
      <trkpt lat="45.5007" lon="2.92403">
        <ele>1155.16</ele>
        <time>2021-08-15T07:30:07Z</time>
      </trkpt>
      <trkpt lat="45.5006" lon="2.92388">
        <ele>1155.64</ele>
        <time>2021-08-15T07:30:16Z</time>
      </trkpt>
      <trkpt lat="45.50053" lon="2.92377">
        <ele>1157.08</ele>
        <time>2021-08-15T07:30:23Z</time>
      </trkpt>
      <trkpt lat="45.50044" lon="2.92364">
        <ele>1158.05</ele>
        <time>2021-08-15T07:30:32Z</time>
      </trkpt>
      <trkpt lat="45.50038" lon="2.92353">
        <ele>1159.49</ele>
        <time>2021-08-15T07:30:40Z</time>
      </trkpt>
      <trkpt lat="45.5003" lon="2.92342">
        <ele>1160.45</ele>
        <time>2021-08-15T07:30:50Z</time>
      </trkpt>
      <trkpt lat="45.50028" lon="2.9234">
        <ele>1160.93</ele>
        <time>2021-08-15T07:30:52Z</time>
      </trkpt>
      <trkpt lat="45.50028" lon="2.92339">
        <ele>1160.93</ele>
        <time>2021-08-15T07:30:53Z</time>
      </trkpt>
      <trkpt lat="45.50023" lon="2.9233">
        <ele>1162.37</ele>
        <time>2021-08-15T07:31:00Z</time>
      </trkpt>
      <trkpt lat="45.50022" lon="2.92329">
        <ele>1162.37</ele>
        <time>2021-08-15T07:31:01Z</time>
      </trkpt>
      <trkpt lat="45.50021" lon="2.92328">
        <ele>1162.37</ele>
        <time>2021-08-15T07:31:02Z</time>
      </trkpt>
      <trkpt lat="45.5002" lon="2.92327">
        <ele>1162.37</ele>
        <time>2021-08-15T07:31:03Z</time>
      </trkpt>
      <trkpt lat="45.5002" lon="2.92326">
        <ele>1162.37</ele>
        <time>2021-08-15T07:31:04Z</time>
      </trkpt>
      <trkpt lat="45.50019" lon="2.92324">
        <ele>1162.37</ele>
        <time>2021-08-15T07:31:05Z</time>
      </trkpt>
      <trkpt lat="45.50019" lon="2.92323">
        <ele>1162.37</ele>
        <time>2021-08-15T07:31:06Z</time>
      </trkpt>
      <trkpt lat="45.50018" lon="2.92321">
        <ele>1162.37</ele>
        <time>2021-08-15T07:31:07Z</time>
      </trkpt>
      <trkpt lat="45.50017" lon="2.9232">
        <ele>1162.85</ele>
        <time>2021-08-15T07:31:08Z</time>
      </trkpt>
      <trkpt lat="45.50016" lon="2.92319">
        <ele>1162.85</ele>
        <time>2021-08-15T07:31:09Z</time>
      </trkpt>
      <trkpt lat="45.50015" lon="2.92318">
        <ele>1162.85</ele>
        <time>2021-08-15T07:31:10Z</time>
      </trkpt>
      <trkpt lat="45.50015" lon="2.92316">
        <ele>1162.85</ele>
        <time>2021-08-15T07:31:11Z</time>
      </trkpt>
      <trkpt lat="45.50014" lon="2.92315">
        <ele>1163.33</ele>
        <time>2021-08-15T07:31:12Z</time>
      </trkpt>
      <trkpt lat="45.50013" lon="2.92314">
        <ele>1163.33</ele>
        <time>2021-08-15T07:31:13Z</time>
      </trkpt>
      <trkpt lat="45.50013" lon="2.92312">
        <ele>1163.33</ele>
        <time>2021-08-15T07:31:14Z</time>
      </trkpt>
      <trkpt lat="45.50012" lon="2.92311">
        <ele>1163.33</ele>
        <time>2021-08-15T07:31:15Z</time>
      </trkpt>
      <trkpt lat="45.50012" lon="2.9231">
        <ele>1163.81</ele>
        <time>2021-08-15T07:31:16Z</time>
      </trkpt>
      <trkpt lat="45.50012" lon="2.92308">
        <ele>1163.81</ele>
        <time>2021-08-15T07:31:17Z</time>
      </trkpt>
      <trkpt lat="45.50011" lon="2.92307">
        <ele>1163.81</ele>
        <time>2021-08-15T07:31:18Z</time>
      </trkpt>
      <trkpt lat="45.50011" lon="2.92305">
        <ele>1163.81</ele>
        <time>2021-08-15T07:31:19Z</time>
      </trkpt>
      <trkpt lat="45.5001" lon="2.92304">
        <ele>1163.81</ele>
        <time>2021-08-15T07:31:20Z</time>
      </trkpt>
      <trkpt lat="45.50008" lon="2.923">
        <ele>1164.77</ele>
        <time>2021-08-15T07:31:23Z</time>
      </trkpt>
      <trkpt lat="45.50008" lon="2.92299">
        <ele>1164.77</ele>
        <time>2021-08-15T07:31:24Z</time>
      </trkpt>
      <trkpt lat="45.50007" lon="2.92297">
        <ele>1164.77</ele>
        <time>2021-08-15T07:31:25Z</time>
      </trkpt>
      <trkpt lat="45.50002" lon="2.92287">
        <ele>1165.74</ele>
        <time>2021-08-15T07:31:33Z</time>
      </trkpt>
      <trkpt lat="45.50001" lon="2.92284">
        <ele>1164.29</ele>
        <time>2021-08-15T07:31:35Z</time>
      </trkpt>
      <trkpt lat="45.50001" lon="2.92282">
        <ele>1164.29</ele>
        <time>2021-08-15T07:31:36Z</time>
      </trkpt>
      <trkpt lat="45.5" lon="2.92281">
        <ele>1165.74</ele>
        <time>2021-08-15T07:31:37Z</time>
      </trkpt>
      <trkpt lat="45.5" lon="2.9228">
        <ele>1165.74</ele>
        <time>2021-08-15T07:31:38Z</time>
      </trkpt>
      <trkpt lat="45.49999" lon="2.92278">
        <ele>1165.74</ele>
        <time>2021-08-15T07:31:39Z</time>
      </trkpt>
      <trkpt lat="45.49999" lon="2.92277">
        <ele>1166.22</ele>
        <time>2021-08-15T07:31:40Z</time>
      </trkpt>
      <trkpt lat="45.49998" lon="2.92275">
        <ele>1166.22</ele>
        <time>2021-08-15T07:31:41Z</time>
      </trkpt>
      <trkpt lat="45.49992" lon="2.92265">
        <ele>1167.66</ele>
        <time>2021-08-15T07:31:50Z</time>
      </trkpt>
      <trkpt lat="45.49991" lon="2.92262">
        <ele>1168.62</ele>
        <time>2021-08-15T07:31:52Z</time>
      </trkpt>
      <trkpt lat="45.49991" lon="2.92261">
        <ele>1168.62</ele>
        <time>2021-08-15T07:31:53Z</time>
      </trkpt>
      <trkpt lat="45.49991" lon="2.92259">
        <ele>1168.62</ele>
        <time>2021-08-15T07:31:54Z</time>
      </trkpt>
      <trkpt lat="45.4999" lon="2.92253">
        <ele>1169.1</ele>
        <time>2021-08-15T07:31:58Z</time>
      </trkpt>
      <trkpt lat="45.4999" lon="2.92251">
        <ele>1169.1</ele>
        <time>2021-08-15T07:31:59Z</time>
      </trkpt>
      <trkpt lat="45.4999" lon="2.9225">
        <ele>1169.1</ele>
        <time>2021-08-15T07:32:00Z</time>
      </trkpt>
      <trkpt lat="45.49989" lon="2.92248">
        <ele>1168.62</ele>
        <time>2021-08-15T07:32:01Z</time>
      </trkpt>
      <trkpt lat="45.49989" lon="2.92247">
        <ele>1170.06</ele>
        <time>2021-08-15T07:32:02Z</time>
      </trkpt>
      <trkpt lat="45.49989" lon="2.92245">
        <ele>1170.06</ele>
        <time>2021-08-15T07:32:03Z</time>
      </trkpt>
      <trkpt lat="45.49989" lon="2.92244">
        <ele>1169.58</ele>
        <time>2021-08-15T07:32:04Z</time>
      </trkpt>
      <trkpt lat="45.49988" lon="2.92243">
        <ele>1169.58</ele>
        <time>2021-08-15T07:32:05Z</time>
      </trkpt>
      <trkpt lat="45.49988" lon="2.92241">
        <ele>1169.58</ele>
        <time>2021-08-15T07:32:06Z</time>
      </trkpt>
      <trkpt lat="45.49988" lon="2.9224">
        <ele>1169.58</ele>
        <time>2021-08-15T07:32:07Z</time>
      </trkpt>
      <trkpt lat="45.49986" lon="2.92236">
        <ele>1171.02</ele>
        <time>2021-08-15T07:32:10Z</time>
      </trkpt>
      <trkpt lat="45.49985" lon="2.92235">
        <ele>1171.02</ele>
        <time>2021-08-15T07:32:11Z</time>
      </trkpt>
      <trkpt lat="45.49985" lon="2.92234">
        <ele>1171.02</ele>
        <time>2021-08-15T07:32:12Z</time>
      </trkpt>
      <trkpt lat="45.49984" lon="2.92233">
        <ele>1171.02</ele>
        <time>2021-08-15T07:32:13Z</time>
      </trkpt>
      <trkpt lat="45.49983" lon="2.92231">
        <ele>1171.5</ele>
        <time>2021-08-15T07:32:14Z</time>
      </trkpt>
      <trkpt lat="45.49983" lon="2.9223">
        <ele>1171.5</ele>
        <time>2021-08-15T07:32:15Z</time>
      </trkpt>
      <trkpt lat="45.49982" lon="2.92229">
        <ele>1171.5</ele>
        <time>2021-08-15T07:32:16Z</time>
      </trkpt>
      <trkpt lat="45.49982" lon="2.92227">
        <ele>1171.5</ele>
        <time>2021-08-15T07:32:17Z</time>
      </trkpt>
      <trkpt lat="45.49982" lon="2.92225">
        <ele>1171.5</ele>
        <time>2021-08-15T07:32:18Z</time>
      </trkpt>
      <trkpt lat="45.49982" lon="2.92224">
        <ele>1172.47</ele>
        <time>2021-08-15T07:32:19Z</time>
      </trkpt>
      <trkpt lat="45.49982" lon="2.92222">
        <ele>1172.47</ele>
        <time>2021-08-15T07:32:20Z</time>
      </trkpt>
      <trkpt lat="45.49982" lon="2.9222">
        <ele>1172.95</ele>
        <time>2021-08-15T07:32:21Z</time>
      </trkpt>
      <trkpt lat="45.49982" lon="2.92219">
        <ele>1172.47</ele>
        <time>2021-08-15T07:32:22Z</time>
      </trkpt>
      <trkpt lat="45.49981" lon="2.92217">
        <ele>1172.95</ele>
        <time>2021-08-15T07:32:23Z</time>
      </trkpt>
      <trkpt lat="45.4998" lon="2.92216">
        <ele>1173.43</ele>
        <time>2021-08-15T07:32:24Z</time>
      </trkpt>
      <trkpt lat="45.4998" lon="2.92214">
        <ele>1173.43</ele>
        <time>2021-08-15T07:32:25Z</time>
      </trkpt>
      <trkpt lat="45.4998" lon="2.92213">
        <ele>1173.43</ele>
        <time>2021-08-15T07:32:26Z</time>
      </trkpt>
      <trkpt lat="45.49979" lon="2.92211">
        <ele>1173.43</ele>
        <time>2021-08-15T07:32:27Z</time>
      </trkpt>
      <trkpt lat="45.49979" lon="2.92209">
        <ele>1172.95</ele>
        <time>2021-08-15T07:32:28Z</time>
      </trkpt>
      <trkpt lat="45.49978" lon="2.92208">
        <ele>1172.95</ele>
        <time>2021-08-15T07:32:29Z</time>
      </trkpt>
      <trkpt lat="45.49978" lon="2.92206">
        <ele>1172.95</ele>
        <time>2021-08-15T07:32:30Z</time>
      </trkpt>
      <trkpt lat="45.49977" lon="2.92205">
        <ele>1172.95</ele>
        <time>2021-08-15T07:32:31Z</time>
      </trkpt>
      <trkpt lat="45.49976" lon="2.92203">
        <ele>1173.91</ele>
        <time>2021-08-15T07:32:32Z</time>
      </trkpt>
      <trkpt lat="45.49975" lon="2.92202">
        <ele>1173.91</ele>
        <time>2021-08-15T07:32:33Z</time>
      </trkpt>
      <trkpt lat="45.49975" lon="2.92201">
        <ele>1174.39</ele>
        <time>2021-08-15T07:32:34Z</time>
      </trkpt>
      <trkpt lat="45.49974" lon="2.92199">
        <ele>1174.39</ele>
        <time>2021-08-15T07:32:35Z</time>
      </trkpt>
      <trkpt lat="45.49974" lon="2.92197">
        <ele>1174.39</ele>
        <time>2021-08-15T07:32:36Z</time>
      </trkpt>
      <trkpt lat="45.49973" lon="2.92196">
        <ele>1174.39</ele>
        <time>2021-08-15T07:32:37Z</time>
      </trkpt>
      <trkpt lat="45.49965" lon="2.92181">
        <ele>1174.87</ele>
        <time>2021-08-15T07:32:47Z</time>
      </trkpt>
      <trkpt lat="45.49956" lon="2.92166">
        <ele>1174.87</ele>
        <time>2021-08-15T07:32:56Z</time>
      </trkpt>
      <trkpt lat="45.49943" lon="2.92147">
        <ele>1174.87</ele>
        <time>2021-08-15T07:33:06Z</time>
      </trkpt>
      <trkpt lat="45.49927" lon="2.9213">
        <ele>1174.87</ele>
        <time>2021-08-15T07:33:14Z</time>
      </trkpt>
      <trkpt lat="45.49922" lon="2.92127">
        <ele>1174.87</ele>
        <time>2021-08-15T07:33:17Z</time>
      </trkpt>
      <trkpt lat="45.49921" lon="2.92126">
        <ele>1174.87</ele>
        <time>2021-08-15T07:33:18Z</time>
      </trkpt>
      <trkpt lat="45.4992" lon="2.92124">
        <ele>1174.87</ele>
        <time>2021-08-15T07:33:19Z</time>
      </trkpt>
      <trkpt lat="45.49919" lon="2.92122">
        <ele>1174.87</ele>
        <time>2021-08-15T07:33:20Z</time>
      </trkpt>
      <trkpt lat="45.49918" lon="2.92121">
        <ele>1174.87</ele>
        <time>2021-08-15T07:33:21Z</time>
      </trkpt>
      <trkpt lat="45.49916" lon="2.9212">
        <ele>1174.87</ele>
        <time>2021-08-15T07:33:22Z</time>
      </trkpt>
      <trkpt lat="45.49915" lon="2.92118">
        <ele>1174.87</ele>
        <time>2021-08-15T07:33:23Z</time>
      </trkpt>
      <trkpt lat="45.49903" lon="2.92103">
        <ele>1175.35</ele>
        <time>2021-08-15T07:33:31Z</time>
      </trkpt>
      <trkpt lat="45.49894" lon="2.92085">
        <ele>1176.31</ele>
        <time>2021-08-15T07:33:39Z</time>
      </trkpt>
      <trkpt lat="45.49888" lon="2.92057">
        <ele>1176.31</ele>
        <time>2021-08-15T07:33:48Z</time>
      </trkpt>
      <trkpt lat="45.4989" lon="2.92026">
        <ele>1176.79</ele>
        <time>2021-08-15T07:33:57Z</time>
      </trkpt>
      <trkpt lat="45.49894" lon="2.91997">
        <ele>1177.75</ele>
        <time>2021-08-15T07:34:07Z</time>
      </trkpt>
      <trkpt lat="45.49897" lon="2.91982">
        <ele>1178.71</ele>
        <time>2021-08-15T07:34:13Z</time>
      </trkpt>
      <trkpt lat="45.499" lon="2.91957">
        <ele>1179.19</ele>
        <time>2021-08-15T07:34:23Z</time>
      </trkpt>
      <trkpt lat="45.49904" lon="2.9194">
        <ele>1180.16</ele>
        <time>2021-08-15T07:34:31Z</time>
      </trkpt>
      <trkpt lat="45.49909" lon="2.9192">
        <ele>1182.08</ele>
        <time>2021-08-15T07:34:41Z</time>
      </trkpt>
      <trkpt lat="45.4991" lon="2.91918">
        <ele>1182.08</ele>
        <time>2021-08-15T07:34:42Z</time>
      </trkpt>
      <trkpt lat="45.4991" lon="2.91917">
        <ele>1182.08</ele>
        <time>2021-08-15T07:34:43Z</time>
      </trkpt>
      <trkpt lat="45.49912" lon="2.91908">
        <ele>1182.56</ele>
        <time>2021-08-15T07:34:48Z</time>
      </trkpt>
      <trkpt lat="45.49913" lon="2.91907">
        <ele>1182.56</ele>
        <time>2021-08-15T07:34:49Z</time>
      </trkpt>
      <trkpt lat="45.49915" lon="2.91903">
        <ele>1183.52</ele>
        <time>2021-08-15T07:34:52Z</time>
      </trkpt>
      <trkpt lat="45.49916" lon="2.91901">
        <ele>1183.52</ele>
        <time>2021-08-15T07:34:53Z</time>
      </trkpt>
      <trkpt lat="45.49916" lon="2.919">
        <ele>1183.52</ele>
        <time>2021-08-15T07:34:54Z</time>
      </trkpt>
      <trkpt lat="45.49917" lon="2.91898">
        <ele>1183.52</ele>
        <time>2021-08-15T07:34:55Z</time>
      </trkpt>
      <trkpt lat="45.49918" lon="2.91897">
        <ele>1184</ele>
        <time>2021-08-15T07:34:56Z</time>
      </trkpt>
      <trkpt lat="45.49919" lon="2.91895">
        <ele>1184</ele>
        <time>2021-08-15T07:34:57Z</time>
      </trkpt>
      <trkpt lat="45.49919" lon="2.91894">
        <ele>1184</ele>
        <time>2021-08-15T07:34:58Z</time>
      </trkpt>
      <trkpt lat="45.4992" lon="2.91892">
        <ele>1184</ele>
        <time>2021-08-15T07:34:59Z</time>
      </trkpt>
      <trkpt lat="45.49921" lon="2.91891">
        <ele>1184</ele>
        <time>2021-08-15T07:35:00Z</time>
      </trkpt>
      <trkpt lat="45.49921" lon="2.91889">
        <ele>1184.96</ele>
        <time>2021-08-15T07:35:01Z</time>
      </trkpt>
      <trkpt lat="45.49922" lon="2.91888">
        <ele>1185.44</ele>
        <time>2021-08-15T07:35:02Z</time>
      </trkpt>
      <trkpt lat="45.49922" lon="2.91886">
        <ele>1185.44</ele>
        <time>2021-08-15T07:35:03Z</time>
      </trkpt>
      <trkpt lat="45.49922" lon="2.91884">
        <ele>1185.44</ele>
        <time>2021-08-15T07:35:04Z</time>
      </trkpt>
      <trkpt lat="45.49923" lon="2.91883">
        <ele>1185.44</ele>
        <time>2021-08-15T07:35:05Z</time>
      </trkpt>
      <trkpt lat="45.49923" lon="2.91881">
        <ele>1185.44</ele>
        <time>2021-08-15T07:35:06Z</time>
      </trkpt>
      <trkpt lat="45.49923" lon="2.9188">
        <ele>1185.92</ele>
        <time>2021-08-15T07:35:07Z</time>
      </trkpt>
      <trkpt lat="45.49923" lon="2.91878">
        <ele>1185.92</ele>
        <time>2021-08-15T07:35:08Z</time>
      </trkpt>
      <trkpt lat="45.49923" lon="2.91876">
        <ele>1185.92</ele>
        <time>2021-08-15T07:35:09Z</time>
      </trkpt>
      <trkpt lat="45.49923" lon="2.91875">
        <ele>1186.4</ele>
        <time>2021-08-15T07:35:10Z</time>
      </trkpt>
      <trkpt lat="45.49924" lon="2.91873">
        <ele>1186.4</ele>
        <time>2021-08-15T07:35:11Z</time>
      </trkpt>
      <trkpt lat="45.49924" lon="2.91871">
        <ele>1186.4</ele>
        <time>2021-08-15T07:35:12Z</time>
      </trkpt>
      <trkpt lat="45.49926" lon="2.91866">
        <ele>1186.88</ele>
        <time>2021-08-15T07:35:15Z</time>
      </trkpt>
      <trkpt lat="45.49926" lon="2.91864">
        <ele>1186.88</ele>
        <time>2021-08-15T07:35:16Z</time>
      </trkpt>
      <trkpt lat="45.49927" lon="2.91863">
        <ele>1186.88</ele>
        <time>2021-08-15T07:35:17Z</time>
      </trkpt>
      <trkpt lat="45.49928" lon="2.91861">
        <ele>1187.37</ele>
        <time>2021-08-15T07:35:18Z</time>
      </trkpt>
      <trkpt lat="45.49928" lon="2.91859">
        <ele>1187.37</ele>
        <time>2021-08-15T07:35:19Z</time>
      </trkpt>
      <trkpt lat="45.49929" lon="2.91858">
        <ele>1187.37</ele>
        <time>2021-08-15T07:35:20Z</time>
      </trkpt>
      <trkpt lat="45.49933" lon="2.91844">
        <ele>1188.33</ele>
        <time>2021-08-15T07:35:27Z</time>
      </trkpt>
      <trkpt lat="45.49939" lon="2.91825">
        <ele>1189.29</ele>
        <time>2021-08-15T07:35:36Z</time>
      </trkpt>
      <trkpt lat="45.49943" lon="2.91811">
        <ele>1190.25</ele>
        <time>2021-08-15T07:35:43Z</time>
      </trkpt>
      <trkpt lat="45.49948" lon="2.91796">
        <ele>1191.21</ele>
        <time>2021-08-15T07:35:51Z</time>
      </trkpt>
      <trkpt lat="45.49956" lon="2.91772">
        <ele>1192.17</ele>
        <time>2021-08-15T07:36:01Z</time>
      </trkpt>
      <trkpt lat="45.4996" lon="2.91755">
        <ele>1193.13</ele>
        <time>2021-08-15T07:36:09Z</time>
      </trkpt>
      <trkpt lat="45.49961" lon="2.91753">
        <ele>1192.65</ele>
        <time>2021-08-15T07:36:10Z</time>
      </trkpt>
      <trkpt lat="45.49969" lon="2.91732">
        <ele>1193.61</ele>
        <time>2021-08-15T07:36:20Z</time>
      </trkpt>
      <trkpt lat="45.49977" lon="2.9171">
        <ele>1195.06</ele>
        <time>2021-08-15T07:36:30Z</time>
      </trkpt>
      <trkpt lat="45.49983" lon="2.91694">
        <ele>1194.58</ele>
        <time>2021-08-15T07:36:37Z</time>
      </trkpt>
      <trkpt lat="45.49989" lon="2.91675">
        <ele>1196.02</ele>
        <time>2021-08-15T07:36:46Z</time>
      </trkpt>
      <trkpt lat="45.4999" lon="2.91674">
        <ele>1196.02</ele>
        <time>2021-08-15T07:36:47Z</time>
      </trkpt>
      <trkpt lat="45.49991" lon="2.91672">
        <ele>1197.46</ele>
        <time>2021-08-15T07:36:48Z</time>
      </trkpt>
      <trkpt lat="45.49992" lon="2.9167">
        <ele>1197.46</ele>
        <time>2021-08-15T07:36:49Z</time>
      </trkpt>
      <trkpt lat="45.49993" lon="2.91668">
        <ele>1197.46</ele>
        <time>2021-08-15T07:36:50Z</time>
      </trkpt>
      <trkpt lat="45.49994" lon="2.91667">
        <ele>1197.46</ele>
        <time>2021-08-15T07:36:51Z</time>
      </trkpt>
      <trkpt lat="45.49994" lon="2.91665">
        <ele>1198.42</ele>
        <time>2021-08-15T07:36:52Z</time>
      </trkpt>
      <trkpt lat="45.49995" lon="2.91663">
        <ele>1198.42</ele>
        <time>2021-08-15T07:36:53Z</time>
      </trkpt>
      <trkpt lat="45.49995" lon="2.91661">
        <ele>1198.42</ele>
        <time>2021-08-15T07:36:54Z</time>
      </trkpt>
      <trkpt lat="45.49995" lon="2.91659">
        <ele>1198.42</ele>
        <time>2021-08-15T07:36:55Z</time>
      </trkpt>
      <trkpt lat="45.49996" lon="2.91657">
        <ele>1198.42</ele>
        <time>2021-08-15T07:36:56Z</time>
      </trkpt>
      <trkpt lat="45.50001" lon="2.91647">
        <ele>1196.02</ele>
        <time>2021-08-15T07:37:00Z</time>
      </trkpt>
      <trkpt lat="45.50012" lon="2.91605">
        <ele>1194.09</ele>
        <time>2021-08-15T07:37:09Z</time>
      </trkpt>
      <trkpt lat="45.50017" lon="2.9158">
        <ele>1195.54</ele>
        <time>2021-08-15T07:37:15Z</time>
      </trkpt>
      <trkpt lat="45.50016" lon="2.91551">
        <ele>1195.54</ele>
        <time>2021-08-15T07:37:24Z</time>
      </trkpt>
      <trkpt lat="45.50012" lon="2.91525">
        <ele>1197.46</ele>
        <time>2021-08-15T07:37:33Z</time>
      </trkpt>
      <trkpt lat="45.5001" lon="2.9152">
        <ele>1195.54</ele>
        <time>2021-08-15T07:37:35Z</time>
      </trkpt>
      <trkpt lat="45.50007" lon="2.91498">
        <ele>1195.06</ele>
        <time>2021-08-15T07:37:41Z</time>
      </trkpt>
      <trkpt lat="45.50004" lon="2.91477">
        <ele>1193.13</ele>
        <time>2021-08-15T07:37:45Z</time>
      </trkpt>
      <trkpt lat="45.5" lon="2.91453">
        <ele>1194.58</ele>
        <time>2021-08-15T07:37:50Z</time>
      </trkpt>
      <trkpt lat="45.5" lon="2.91449">
        <ele>1194.58</ele>
        <time>2021-08-15T07:37:51Z</time>
      </trkpt>
      <trkpt lat="45.49997" lon="2.91423">
        <ele>1195.06</ele>
        <time>2021-08-15T07:37:58Z</time>
      </trkpt>
      <trkpt lat="45.49992" lon="2.91391">
        <ele>1193.61</ele>
        <time>2021-08-15T07:38:06Z</time>
      </trkpt>
      <trkpt lat="45.49988" lon="2.91375">
        <ele>1195.06</ele>
        <time>2021-08-15T07:38:10Z</time>
      </trkpt>
      <trkpt lat="45.49985" lon="2.91355">
        <ele>1195.54</ele>
        <time>2021-08-15T07:38:16Z</time>
      </trkpt>
      <trkpt lat="45.49984" lon="2.91342">
        <ele>1195.54</ele>
        <time>2021-08-15T07:38:21Z</time>
      </trkpt>
      <trkpt lat="45.4998" lon="2.91312">
        <ele>1196.98</ele>
        <time>2021-08-15T07:38:31Z</time>
      </trkpt>
      <trkpt lat="45.49977" lon="2.91287">
        <ele>1197.46</ele>
        <time>2021-08-15T07:38:38Z</time>
      </trkpt>
      <trkpt lat="45.49973" lon="2.91263">
        <ele>1197.46</ele>
        <time>2021-08-15T07:38:46Z</time>
      </trkpt>
      <trkpt lat="45.49971" lon="2.91251">
        <ele>1198.9</ele>
        <time>2021-08-15T07:38:52Z</time>
      </trkpt>
      <trkpt lat="45.49968" lon="2.91234">
        <ele>1199.38</ele>
        <time>2021-08-15T07:39:00Z</time>
      </trkpt>
      <trkpt lat="45.49964" lon="2.91219">
        <ele>1199.86</ele>
        <time>2021-08-15T07:39:07Z</time>
      </trkpt>
      <trkpt lat="45.49962" lon="2.912">
        <ele>1200.82</ele>
        <time>2021-08-15T07:39:15Z</time>
      </trkpt>
      <trkpt lat="45.49959" lon="2.91188">
        <ele>1201.79</ele>
        <time>2021-08-15T07:39:20Z</time>
      </trkpt>
      <trkpt lat="45.49958" lon="2.91179">
        <ele>1199.38</ele>
        <time>2021-08-15T07:39:24Z</time>
      </trkpt>
      <trkpt lat="45.49956" lon="2.91173">
        <ele>1201.3</ele>
        <time>2021-08-15T07:39:27Z</time>
      </trkpt>
      <trkpt lat="45.49955" lon="2.91169">
        <ele>1202.27</ele>
        <time>2021-08-15T07:39:29Z</time>
      </trkpt>
      <trkpt lat="45.49955" lon="2.91167">
        <ele>1202.27</ele>
        <time>2021-08-15T07:39:30Z</time>
      </trkpt>
      <trkpt lat="45.49954" lon="2.91157">
        <ele>1202.75</ele>
        <time>2021-08-15T07:39:35Z</time>
      </trkpt>
      <trkpt lat="45.49954" lon="2.91155">
        <ele>1202.75</ele>
        <time>2021-08-15T07:39:36Z</time>
      </trkpt>
      <trkpt lat="45.49953" lon="2.91153">
        <ele>1202.75</ele>
        <time>2021-08-15T07:39:37Z</time>
      </trkpt>
      <trkpt lat="45.49949" lon="2.91127">
        <ele>1203.71</ele>
        <time>2021-08-15T07:39:48Z</time>
      </trkpt>
      <trkpt lat="45.49945" lon="2.91099">
        <ele>1202.27</ele>
        <time>2021-08-15T07:39:56Z</time>
      </trkpt>
      <trkpt lat="45.49944" lon="2.9109">
        <ele>1201.3</ele>
        <time>2021-08-15T07:39:58Z</time>
      </trkpt>
      <trkpt lat="45.49938" lon="2.91062">
        <ele>1199.38</ele>
        <time>2021-08-15T07:40:03Z</time>
      </trkpt>
      <trkpt lat="45.49937" lon="2.91056">
        <ele>1199.38</ele>
        <time>2021-08-15T07:40:04Z</time>
      </trkpt>
      <trkpt lat="45.49934" lon="2.91038">
        <ele>1200.82</ele>
        <time>2021-08-15T07:40:07Z</time>
      </trkpt>
      <trkpt lat="45.49933" lon="2.91033">
        <ele>1200.82</ele>
        <time>2021-08-15T07:40:08Z</time>
      </trkpt>
      <trkpt lat="45.4993" lon="2.91014">
        <ele>1199.38</ele>
        <time>2021-08-15T07:40:11Z</time>
      </trkpt>
      <trkpt lat="45.49928" lon="2.90997">
        <ele>1200.82</ele>
        <time>2021-08-15T07:40:15Z</time>
      </trkpt>
      <trkpt lat="45.49927" lon="2.90972">
        <ele>1201.3</ele>
        <time>2021-08-15T07:40:24Z</time>
      </trkpt>
      <trkpt lat="45.49927" lon="2.9097">
        <ele>1202.27</ele>
        <time>2021-08-15T07:40:25Z</time>
      </trkpt>
      <trkpt lat="45.49934" lon="2.90948">
        <ele>1202.27</ele>
        <time>2021-08-15T07:40:33Z</time>
      </trkpt>
      <trkpt lat="45.49935" lon="2.90946">
        <ele>1202.27</ele>
        <time>2021-08-15T07:40:34Z</time>
      </trkpt>
      <trkpt lat="45.49941" lon="2.90937">
        <ele>1202.75</ele>
        <time>2021-08-15T07:40:41Z</time>
      </trkpt>
      <trkpt lat="45.49945" lon="2.90928">
        <ele>1204.19</ele>
        <time>2021-08-15T07:40:51Z</time>
      </trkpt>
      <trkpt lat="45.49948" lon="2.90919">
        <ele>1205.15</ele>
        <time>2021-08-15T07:41:01Z</time>
      </trkpt>
      <trkpt lat="45.49949" lon="2.90913">
        <ele>1206.59</ele>
        <time>2021-08-15T07:41:07Z</time>
      </trkpt>
      <trkpt lat="45.4995" lon="2.90906">
        <ele>1207.07</ele>
        <time>2021-08-15T07:41:12Z</time>
      </trkpt>
      <trkpt lat="45.49954" lon="2.90897">
        <ele>1208.03</ele>
        <time>2021-08-15T07:41:20Z</time>
      </trkpt>
      <trkpt lat="45.49955" lon="2.90896">
        <ele>1208.51</ele>
        <time>2021-08-15T07:41:22Z</time>
      </trkpt>
      <trkpt lat="45.49958" lon="2.90892">
        <ele>1209</ele>
        <time>2021-08-15T07:41:27Z</time>
      </trkpt>
      <trkpt lat="45.49959" lon="2.90891">
        <ele>1209.96</ele>
        <time>2021-08-15T07:41:28Z</time>
      </trkpt>
      <trkpt lat="45.4996" lon="2.9089">
        <ele>1209.96</ele>
        <time>2021-08-15T07:41:29Z</time>
      </trkpt>
      <trkpt lat="45.49962" lon="2.90889">
        <ele>1210.44</ele>
        <time>2021-08-15T07:41:30Z</time>
      </trkpt>
      <trkpt lat="45.49963" lon="2.90888">
        <ele>1210.44</ele>
        <time>2021-08-15T07:41:31Z</time>
      </trkpt>
      <trkpt lat="45.49964" lon="2.90887">
        <ele>1210.44</ele>
        <time>2021-08-15T07:41:32Z</time>
      </trkpt>
      <trkpt lat="45.49968" lon="2.90879">
        <ele>1209</ele>
        <time>2021-08-15T07:41:39Z</time>
      </trkpt>
      <trkpt lat="45.49968" lon="2.90878">
        <ele>1209</ele>
        <time>2021-08-15T07:41:40Z</time>
      </trkpt>
      <trkpt lat="45.49966" lon="2.90874">
        <ele>1209.96</ele>
        <time>2021-08-15T07:41:44Z</time>
      </trkpt>
      <trkpt lat="45.4996" lon="2.90869">
        <ele>1210.44</ele>
        <time>2021-08-15T07:41:54Z</time>
      </trkpt>
      <trkpt lat="45.49959" lon="2.90871">
        <ele>1210.44</ele>
        <time>2021-08-15T07:42:07Z</time>
      </trkpt>
      <trkpt lat="45.4996" lon="2.9087">
        <ele>1210.92</ele>
        <time>2021-08-15T07:42:21Z</time>
      </trkpt>
      <trkpt lat="45.4996" lon="2.9087">
        <ele>1210.92</ele>
        <time>2021-08-15T07:42:33Z</time>
      </trkpt>
      <trkpt lat="45.4996" lon="2.90871">
        <ele>1211.4</ele>
        <time>2021-08-15T07:42:43Z</time>
      </trkpt>
      <trkpt lat="45.49959" lon="2.90869">
        <ele>1211.88</ele>
        <time>2021-08-15T07:42:51Z</time>
      </trkpt>
      <trkpt lat="45.49958" lon="2.90869">
        <ele>1211.88</ele>
        <time>2021-08-15T07:43:04Z</time>
      </trkpt>
      <trkpt lat="45.49957" lon="2.90868">
        <ele>1209.96</ele>
        <time>2021-08-15T07:43:06Z</time>
      </trkpt>
      <trkpt lat="45.49955" lon="2.90867">
        <ele>1209.96</ele>
        <time>2021-08-15T07:43:08Z</time>
      </trkpt>
      <trkpt lat="45.49954" lon="2.90866">
        <ele>1211.4</ele>
        <time>2021-08-15T07:43:09Z</time>
      </trkpt>
      <trkpt lat="45.49953" lon="2.90866">
        <ele>1211.4</ele>
        <time>2021-08-15T07:43:10Z</time>
      </trkpt>
      <trkpt lat="45.49952" lon="2.90865">
        <ele>1211.4</ele>
        <time>2021-08-15T07:43:11Z</time>
      </trkpt>
      <trkpt lat="45.4995" lon="2.90862">
        <ele>1211.4</ele>
        <time>2021-08-15T07:43:13Z</time>
      </trkpt>
      <trkpt lat="45.49949" lon="2.90861">
        <ele>1211.88</ele>
        <time>2021-08-15T07:43:14Z</time>
      </trkpt>
      <trkpt lat="45.49948" lon="2.90861">
        <ele>1211.88</ele>
        <time>2021-08-15T07:43:15Z</time>
      </trkpt>
      <trkpt lat="45.49947" lon="2.90861">
        <ele>1212.84</ele>
        <time>2021-08-15T07:43:16Z</time>
      </trkpt>
      <trkpt lat="45.49946" lon="2.90861">
        <ele>1212.84</ele>
        <time>2021-08-15T07:43:17Z</time>
      </trkpt>
      <trkpt lat="45.49945" lon="2.9086">
        <ele>1212.84</ele>
        <time>2021-08-15T07:43:18Z</time>
      </trkpt>
      <trkpt lat="45.49943" lon="2.9086">
        <ele>1213.32</ele>
        <time>2021-08-15T07:43:24Z</time>
      </trkpt>
      <trkpt lat="45.49939" lon="2.90857">
        <ele>1213.32</ele>
        <time>2021-08-15T07:43:32Z</time>
      </trkpt>
      <trkpt lat="45.49938" lon="2.90857">
        <ele>1213.32</ele>
        <time>2021-08-15T07:43:33Z</time>
      </trkpt>
      <trkpt lat="45.49929" lon="2.90851">
        <ele>1214.28</ele>
        <time>2021-08-15T07:43:40Z</time>
      </trkpt>
      <trkpt lat="45.49918" lon="2.90841">
        <ele>1214.28</ele>
        <time>2021-08-15T07:43:49Z</time>
      </trkpt>
      <trkpt lat="45.49907" lon="2.90826">
        <ele>1215.72</ele>
        <time>2021-08-15T07:43:58Z</time>
      </trkpt>
      <trkpt lat="45.49905" lon="2.90822">
        <ele>1216.69</ele>
        <time>2021-08-15T07:44:00Z</time>
      </trkpt>
      <trkpt lat="45.49896" lon="2.90805">
        <ele>1215.72</ele>
        <time>2021-08-15T07:44:09Z</time>
      </trkpt>
      <trkpt lat="45.4989" lon="2.90792">
        <ele>1217.17</ele>
        <time>2021-08-15T07:44:15Z</time>
      </trkpt>
      <trkpt lat="45.49886" lon="2.90778">
        <ele>1217.65</ele>
        <time>2021-08-15T07:44:21Z</time>
      </trkpt>
      <trkpt lat="45.49885" lon="2.90775">
        <ele>1217.65</ele>
        <time>2021-08-15T07:44:22Z</time>
      </trkpt>
      <trkpt lat="45.49884" lon="2.90773">
        <ele>1217.65</ele>
        <time>2021-08-15T07:44:23Z</time>
      </trkpt>
      <trkpt lat="45.49883" lon="2.90771">
        <ele>1217.65</ele>
        <time>2021-08-15T07:44:24Z</time>
      </trkpt>
      <trkpt lat="45.49882" lon="2.90769">
        <ele>1217.65</ele>
        <time>2021-08-15T07:44:25Z</time>
      </trkpt>
      <trkpt lat="45.49881" lon="2.90767">
        <ele>1217.65</ele>
        <time>2021-08-15T07:44:26Z</time>
      </trkpt>
      <trkpt lat="45.49881" lon="2.90765">
        <ele>1217.65</ele>
        <time>2021-08-15T07:44:27Z</time>
      </trkpt>
      <trkpt lat="45.49877" lon="2.90756">
        <ele>1217.65</ele>
        <time>2021-08-15T07:44:31Z</time>
      </trkpt>
      <trkpt lat="45.49875" lon="2.9075">
        <ele>1218.13</ele>
        <time>2021-08-15T07:44:34Z</time>
      </trkpt>
      <trkpt lat="45.49874" lon="2.90748">
        <ele>1218.13</ele>
        <time>2021-08-15T07:44:35Z</time>
      </trkpt>
      <trkpt lat="45.49866" lon="2.90729">
        <ele>1219.09</ele>
        <time>2021-08-15T07:44:44Z</time>
      </trkpt>
      <trkpt lat="45.49854" lon="2.90707">
        <ele>1219.57</ele>
        <time>2021-08-15T07:44:55Z</time>
      </trkpt>
      <trkpt lat="45.49853" lon="2.90706">
        <ele>1219.57</ele>
        <time>2021-08-15T07:44:56Z</time>
      </trkpt>
      <trkpt lat="45.49848" lon="2.90702">
        <ele>1221.01</ele>
        <time>2021-08-15T07:44:59Z</time>
      </trkpt>
      <trkpt lat="45.4983" lon="2.90682">
        <ele>1221.49</ele>
        <time>2021-08-15T07:45:12Z</time>
      </trkpt>
      <trkpt lat="45.49815" lon="2.90665">
        <ele>1221.01</ele>
        <time>2021-08-15T07:45:21Z</time>
      </trkpt>
      <trkpt lat="45.49812" lon="2.90662">
        <ele>1221.97</ele>
        <time>2021-08-15T07:45:23Z</time>
      </trkpt>
      <trkpt lat="45.49795" lon="2.90651">
        <ele>1222.93</ele>
        <time>2021-08-15T07:45:30Z</time>
      </trkpt>
      <trkpt lat="45.49778" lon="2.90641">
        <ele>1219.09</ele>
        <time>2021-08-15T07:45:36Z</time>
      </trkpt>
      <trkpt lat="45.49752" lon="2.90626">
        <ele>1221.49</ele>
        <time>2021-08-15T07:45:46Z</time>
      </trkpt>
      <trkpt lat="45.49731" lon="2.90613">
        <ele>1222.45</ele>
        <time>2021-08-15T07:45:55Z</time>
      </trkpt>
      <trkpt lat="45.49707" lon="2.90597">
        <ele>1223.42</ele>
        <time>2021-08-15T07:46:06Z</time>
      </trkpt>
      <trkpt lat="45.49685" lon="2.90583">
        <ele>1223.9</ele>
        <time>2021-08-15T07:46:16Z</time>
      </trkpt>
      <trkpt lat="45.49671" lon="2.90574">
        <ele>1222.93</ele>
        <time>2021-08-15T07:46:23Z</time>
      </trkpt>
      <trkpt lat="45.49667" lon="2.90572">
        <ele>1224.38</ele>
        <time>2021-08-15T07:46:25Z</time>
      </trkpt>
      <trkpt lat="45.49649" lon="2.90559">
        <ele>1225.34</ele>
        <time>2021-08-15T07:46:34Z</time>
      </trkpt>
      <trkpt lat="45.49632" lon="2.90543">
        <ele>1226.3</ele>
        <time>2021-08-15T07:46:43Z</time>
      </trkpt>
      <trkpt lat="45.49618" lon="2.90523">
        <ele>1226.78</ele>
        <time>2021-08-15T07:46:52Z</time>
      </trkpt>
      <trkpt lat="45.4961" lon="2.90511">
        <ele>1227.74</ele>
        <time>2021-08-15T07:46:59Z</time>
      </trkpt>
      <trkpt lat="45.49609" lon="2.90509">
        <ele>1227.74</ele>
        <time>2021-08-15T07:47:00Z</time>
      </trkpt>
      <trkpt lat="45.49608" lon="2.90508">
        <ele>1227.74</ele>
        <time>2021-08-15T07:47:01Z</time>
      </trkpt>
      <trkpt lat="45.49607" lon="2.90506">
        <ele>1227.74</ele>
        <time>2021-08-15T07:47:02Z</time>
      </trkpt>
      <trkpt lat="45.49605" lon="2.90504">
        <ele>1227.74</ele>
        <time>2021-08-15T07:47:03Z</time>
      </trkpt>
      <trkpt lat="45.49604" lon="2.90503">
        <ele>1228.7</ele>
        <time>2021-08-15T07:47:04Z</time>
      </trkpt>
      <trkpt lat="45.49597" lon="2.90493">
        <ele>1229.18</ele>
        <time>2021-08-15T07:47:10Z</time>
      </trkpt>
      <trkpt lat="45.49585" lon="2.90476">
        <ele>1229.66</ele>
        <time>2021-08-15T07:47:22Z</time>
      </trkpt>
      <trkpt lat="45.49577" lon="2.90465">
        <ele>1232.07</ele>
        <time>2021-08-15T07:47:30Z</time>
      </trkpt>
      <trkpt lat="45.49576" lon="2.90462">
        <ele>1232.07</ele>
        <time>2021-08-15T07:47:32Z</time>
      </trkpt>
      <trkpt lat="45.49575" lon="2.9046">
        <ele>1232.07</ele>
        <time>2021-08-15T07:47:33Z</time>
      </trkpt>
      <trkpt lat="45.49568" lon="2.90452">
        <ele>1232.55</ele>
        <time>2021-08-15T07:47:40Z</time>
      </trkpt>
      <trkpt lat="45.49568" lon="2.9045">
        <ele>1232.55</ele>
        <time>2021-08-15T07:47:41Z</time>
      </trkpt>
      <trkpt lat="45.49567" lon="2.90449">
        <ele>1233.03</ele>
        <time>2021-08-15T07:47:42Z</time>
      </trkpt>
      <trkpt lat="45.49566" lon="2.90448">
        <ele>1233.99</ele>
        <time>2021-08-15T07:47:43Z</time>
      </trkpt>
      <trkpt lat="45.49565" lon="2.90447">
        <ele>1233.99</ele>
        <time>2021-08-15T07:47:44Z</time>
      </trkpt>
      <trkpt lat="45.49561" lon="2.90439">
        <ele>1234.47</ele>
        <time>2021-08-15T07:47:50Z</time>
      </trkpt>
      <trkpt lat="45.4956" lon="2.90437">
        <ele>1234.95</ele>
        <time>2021-08-15T07:47:51Z</time>
      </trkpt>
      <trkpt lat="45.49559" lon="2.90436">
        <ele>1234.95</ele>
        <time>2021-08-15T07:47:52Z</time>
      </trkpt>
      <trkpt lat="45.49558" lon="2.90434">
        <ele>1234.95</ele>
        <time>2021-08-15T07:47:53Z</time>
      </trkpt>
      <trkpt lat="45.49552" lon="2.90424">
        <ele>1235.91</ele>
        <time>2021-08-15T07:48:01Z</time>
      </trkpt>
      <trkpt lat="45.49548" lon="2.90419">
        <ele>1237.35</ele>
        <time>2021-08-15T07:48:07Z</time>
      </trkpt>
      <trkpt lat="45.49544" lon="2.90411">
        <ele>1238.32</ele>
        <time>2021-08-15T07:48:15Z</time>
      </trkpt>
      <trkpt lat="45.49538" lon="2.90404">
        <ele>1239.28</ele>
        <time>2021-08-15T07:48:23Z</time>
      </trkpt>
      <trkpt lat="45.49532" lon="2.90396">
        <ele>1240.24</ele>
        <time>2021-08-15T07:48:30Z</time>
      </trkpt>
      <trkpt lat="45.49525" lon="2.90386">
        <ele>1241.2</ele>
        <time>2021-08-15T07:48:39Z</time>
      </trkpt>
      <trkpt lat="45.49517" lon="2.90374">
        <ele>1242.64</ele>
        <time>2021-08-15T07:48:48Z</time>
      </trkpt>
      <trkpt lat="45.49512" lon="2.90367">
        <ele>1243.6</ele>
        <time>2021-08-15T07:48:54Z</time>
      </trkpt>
      <trkpt lat="45.49505" lon="2.90355">
        <ele>1244.56</ele>
        <time>2021-08-15T07:49:04Z</time>
      </trkpt>
      <trkpt lat="45.49505" lon="2.90354">
        <ele>1245.04</ele>
        <time>2021-08-15T07:49:05Z</time>
      </trkpt>
      <trkpt lat="45.49504" lon="2.90353">
        <ele>1245.04</ele>
        <time>2021-08-15T07:49:06Z</time>
      </trkpt>
      <trkpt lat="45.49496" lon="2.90343">
        <ele>1246.97</ele>
        <time>2021-08-15T07:49:16Z</time>
      </trkpt>
      <trkpt lat="45.49495" lon="2.90342">
        <ele>1246.97</ele>
        <time>2021-08-15T07:49:17Z</time>
      </trkpt>
      <trkpt lat="45.4949" lon="2.90333">
        <ele>1247.93</ele>
        <time>2021-08-15T07:49:24Z</time>
      </trkpt>
      <trkpt lat="45.49485" lon="2.90326">
        <ele>1248.89</ele>
        <time>2021-08-15T07:49:31Z</time>
      </trkpt>
      <trkpt lat="45.49478" lon="2.90319">
        <ele>1249.85</ele>
        <time>2021-08-15T07:49:39Z</time>
      </trkpt>
      <trkpt lat="45.49473" lon="2.90312">
        <ele>1251.29</ele>
        <time>2021-08-15T07:49:47Z</time>
      </trkpt>
      <trkpt lat="45.49467" lon="2.90305">
        <ele>1250.81</ele>
        <time>2021-08-15T07:49:53Z</time>
      </trkpt>
      <trkpt lat="45.49463" lon="2.90301">
        <ele>1251.77</ele>
        <time>2021-08-15T07:49:57Z</time>
      </trkpt>
      <trkpt lat="45.4946" lon="2.90298">
        <ele>1253.22</ele>
        <time>2021-08-15T07:50:00Z</time>
      </trkpt>
      <trkpt lat="45.49452" lon="2.90291">
        <ele>1254.66</ele>
        <time>2021-08-15T07:50:08Z</time>
      </trkpt>
      <trkpt lat="45.49449" lon="2.90289">
        <ele>1254.66</ele>
        <time>2021-08-15T07:50:10Z</time>
      </trkpt>
      <trkpt lat="45.49448" lon="2.90288">
        <ele>1254.66</ele>
        <time>2021-08-15T07:50:11Z</time>
      </trkpt>
      <trkpt lat="45.49435" lon="2.90283">
        <ele>1255.14</ele>
        <time>2021-08-15T07:50:20Z</time>
      </trkpt>
      <trkpt lat="45.49423" lon="2.90281">
        <ele>1255.14</ele>
        <time>2021-08-15T07:50:26Z</time>
      </trkpt>
      <trkpt lat="45.49422" lon="2.9028">
        <ele>1255.14</ele>
        <time>2021-08-15T07:50:27Z</time>
      </trkpt>
      <trkpt lat="45.4942" lon="2.9028">
        <ele>1255.62</ele>
        <time>2021-08-15T07:50:28Z</time>
      </trkpt>
      <trkpt lat="45.49417" lon="2.9028">
        <ele>1255.62</ele>
        <time>2021-08-15T07:50:29Z</time>
      </trkpt>
      <trkpt lat="45.49415" lon="2.90279">
        <ele>1255.62</ele>
        <time>2021-08-15T07:50:30Z</time>
      </trkpt>
      <trkpt lat="45.49412" lon="2.90279">
        <ele>1255.62</ele>
        <time>2021-08-15T07:50:31Z</time>
      </trkpt>
      <trkpt lat="45.4939" lon="2.90277">
        <ele>1252.25</ele>
        <time>2021-08-15T07:50:38Z</time>
      </trkpt>
      <trkpt lat="45.49365" lon="2.90273">
        <ele>1251.77</ele>
        <time>2021-08-15T07:50:44Z</time>
      </trkpt>
      <trkpt lat="45.49356" lon="2.90272">
        <ele>1250.81</ele>
        <time>2021-08-15T07:50:46Z</time>
      </trkpt>
      <trkpt lat="45.49311" lon="2.9026">
        <ele>1248.41</ele>
        <time>2021-08-15T07:50:54Z</time>
      </trkpt>
      <trkpt lat="45.49293" lon="2.90254">
        <ele>1246.97</ele>
        <time>2021-08-15T07:50:57Z</time>
      </trkpt>
      <trkpt lat="45.49279" lon="2.90252">
        <ele>1245.53</ele>
        <time>2021-08-15T07:50:59Z</time>
      </trkpt>
      <trkpt lat="45.49227" lon="2.90249">
        <ele>1243.6</ele>
        <time>2021-08-15T07:51:06Z</time>
      </trkpt>
      <trkpt lat="45.49161" lon="2.90249">
        <ele>1242.16</ele>
        <time>2021-08-15T07:51:15Z</time>
      </trkpt>
      <trkpt lat="45.49116" lon="2.9025">
        <ele>1241.2</ele>
        <time>2021-08-15T07:51:22Z</time>
      </trkpt>
      <trkpt lat="45.49067" lon="2.9025">
        <ele>1240.24</ele>
        <time>2021-08-15T07:51:31Z</time>
      </trkpt>
      <trkpt lat="45.49037" lon="2.9025">
        <ele>1239.76</ele>
        <time>2021-08-15T07:51:37Z</time>
      </trkpt>
      <trkpt lat="45.49032" lon="2.90249">
        <ele>1239.76</ele>
        <time>2021-08-15T07:51:38Z</time>
      </trkpt>
      <trkpt lat="45.49027" lon="2.90248">
        <ele>1239.76</ele>
        <time>2021-08-15T07:51:39Z</time>
      </trkpt>
      <trkpt lat="45.4901" lon="2.9024">
        <ele>1240.72</ele>
        <time>2021-08-15T07:51:43Z</time>
      </trkpt>
      <trkpt lat="45.48987" lon="2.90223">
        <ele>1243.6</ele>
        <time>2021-08-15T07:51:51Z</time>
      </trkpt>
      <trkpt lat="45.48969" lon="2.90209">
        <ele>1245.53</ele>
        <time>2021-08-15T07:51:59Z</time>
      </trkpt>
      <trkpt lat="45.48956" lon="2.90199">
        <ele>1246.49</ele>
        <time>2021-08-15T07:52:05Z</time>
      </trkpt>
      <trkpt lat="45.48954" lon="2.90197">
        <ele>1246.49</ele>
        <time>2021-08-15T07:52:06Z</time>
      </trkpt>
      <trkpt lat="45.48953" lon="2.90196">
        <ele>1246.49</ele>
        <time>2021-08-15T07:52:07Z</time>
      </trkpt>
      <trkpt lat="45.4893" lon="2.90182">
        <ele>1247.93</ele>
        <time>2021-08-15T07:52:17Z</time>
      </trkpt>
      <trkpt lat="45.48915" lon="2.90173">
        <ele>1245.53</ele>
        <time>2021-08-15T07:52:22Z</time>
      </trkpt>
      <trkpt lat="45.48881" lon="2.90158">
        <ele>1243.12</ele>
        <time>2021-08-15T07:52:29Z</time>
      </trkpt>
      <trkpt lat="45.48827" lon="2.90134">
        <ele>1240.24</ele>
        <time>2021-08-15T07:52:38Z</time>
      </trkpt>
      <trkpt lat="45.48764" lon="2.90105">
        <ele>1239.76</ele>
        <time>2021-08-15T07:52:49Z</time>
      </trkpt>
      <trkpt lat="45.48698" lon="2.90076">
        <ele>1238.8</ele>
        <time>2021-08-15T07:53:01Z</time>
      </trkpt>
      <trkpt lat="45.48692" lon="2.90073">
        <ele>1238.8</ele>
        <time>2021-08-15T07:53:02Z</time>
      </trkpt>
      <trkpt lat="45.48682" lon="2.90065">
        <ele>1236.39</ele>
        <time>2021-08-15T07:53:04Z</time>
      </trkpt>
      <trkpt lat="45.48678" lon="2.90061">
        <ele>1235.91</ele>
        <time>2021-08-15T07:53:05Z</time>
      </trkpt>
      <trkpt lat="45.48675" lon="2.90054">
        <ele>1235.43</ele>
        <time>2021-08-15T07:53:06Z</time>
      </trkpt>
      <trkpt lat="45.48675" lon="2.90048">
        <ele>1235.43</ele>
        <time>2021-08-15T07:53:07Z</time>
      </trkpt>
      <trkpt lat="45.48675" lon="2.90044">
        <ele>1235.43</ele>
        <time>2021-08-15T07:53:08Z</time>
      </trkpt>
      <trkpt lat="45.48677" lon="2.90039">
        <ele>1235.43</ele>
        <time>2021-08-15T07:53:09Z</time>
      </trkpt>
      <trkpt lat="45.48679" lon="2.90035">
        <ele>1235.43</ele>
        <time>2021-08-15T07:53:10Z</time>
      </trkpt>
      <trkpt lat="45.48681" lon="2.90031">
        <ele>1235.43</ele>
        <time>2021-08-15T07:53:11Z</time>
      </trkpt>
      <trkpt lat="45.48705" lon="2.89985">
        <ele>1236.87</ele>
        <time>2021-08-15T07:53:22Z</time>
      </trkpt>
      <trkpt lat="45.48725" lon="2.89948">
        <ele>1238.8</ele>
        <time>2021-08-15T07:53:32Z</time>
      </trkpt>
      <trkpt lat="45.48736" lon="2.89924">
        <ele>1239.28</ele>
        <time>2021-08-15T07:53:40Z</time>
      </trkpt>
      <trkpt lat="45.48748" lon="2.89902">
        <ele>1238.32</ele>
        <time>2021-08-15T07:53:49Z</time>
      </trkpt>
      <trkpt lat="45.48755" lon="2.89887">
        <ele>1240.24</ele>
        <time>2021-08-15T07:53:55Z</time>
      </trkpt>
      <trkpt lat="45.48756" lon="2.89885">
        <ele>1241.2</ele>
        <time>2021-08-15T07:53:56Z</time>
      </trkpt>
      <trkpt lat="45.48757" lon="2.89882">
        <ele>1241.2</ele>
        <time>2021-08-15T07:53:57Z</time>
      </trkpt>
      <trkpt lat="45.48758" lon="2.8988">
        <ele>1241.2</ele>
        <time>2021-08-15T07:53:58Z</time>
      </trkpt>
      <trkpt lat="45.48767" lon="2.89862">
        <ele>1242.16</ele>
        <time>2021-08-15T07:54:06Z</time>
      </trkpt>
      <trkpt lat="45.48776" lon="2.89844">
        <ele>1243.12</ele>
        <time>2021-08-15T07:54:14Z</time>
      </trkpt>
      <trkpt lat="45.48785" lon="2.89825">
        <ele>1243.6</ele>
        <time>2021-08-15T07:54:23Z</time>
      </trkpt>
      <trkpt lat="45.48796" lon="2.89804">
        <ele>1245.04</ele>
        <time>2021-08-15T07:54:32Z</time>
      </trkpt>
      <trkpt lat="45.48808" lon="2.89781">
        <ele>1245.53</ele>
        <time>2021-08-15T07:54:42Z</time>
      </trkpt>
      <trkpt lat="45.48818" lon="2.89763">
        <ele>1246.49</ele>
        <time>2021-08-15T07:54:50Z</time>
      </trkpt>
      <trkpt lat="45.48829" lon="2.89743">
        <ele>1247.45</ele>
        <time>2021-08-15T07:54:59Z</time>
      </trkpt>
      <trkpt lat="45.48844" lon="2.89716">
        <ele>1247.93</ele>
        <time>2021-08-15T07:55:10Z</time>
      </trkpt>
      <trkpt lat="45.48859" lon="2.89688">
        <ele>1249.37</ele>
        <time>2021-08-15T07:55:21Z</time>
      </trkpt>
      <trkpt lat="45.4887" lon="2.89666">
        <ele>1249.85</ele>
        <time>2021-08-15T07:55:29Z</time>
      </trkpt>
      <trkpt lat="45.48885" lon="2.89636">
        <ele>1250.81</ele>
        <time>2021-08-15T07:55:40Z</time>
      </trkpt>
      <trkpt lat="45.48899" lon="2.8961">
        <ele>1251.77</ele>
        <time>2021-08-15T07:55:50Z</time>
      </trkpt>
      <trkpt lat="45.4891" lon="2.8959">
        <ele>1252.74</ele>
        <time>2021-08-15T07:55:58Z</time>
      </trkpt>
      <trkpt lat="45.48921" lon="2.89568">
        <ele>1253.7</ele>
        <time>2021-08-15T07:56:06Z</time>
      </trkpt>
      <trkpt lat="45.48937" lon="2.89539">
        <ele>1254.66</ele>
        <time>2021-08-15T07:56:16Z</time>
      </trkpt>
      <trkpt lat="45.48945" lon="2.8952">
        <ele>1255.14</ele>
        <time>2021-08-15T07:56:22Z</time>
      </trkpt>
      <trkpt lat="45.48945" lon="2.89516">
        <ele>1255.14</ele>
        <time>2021-08-15T07:56:23Z</time>
      </trkpt>
      <trkpt lat="45.48945" lon="2.89512">
        <ele>1256.1</ele>
        <time>2021-08-15T07:56:24Z</time>
      </trkpt>
      <trkpt lat="45.48944" lon="2.89508">
        <ele>1256.1</ele>
        <time>2021-08-15T07:56:25Z</time>
      </trkpt>
      <trkpt lat="45.48933" lon="2.89475">
        <ele>1256.1</ele>
        <time>2021-08-15T07:56:33Z</time>
      </trkpt>
      <trkpt lat="45.48919" lon="2.89439">
        <ele>1256.58</ele>
        <time>2021-08-15T07:56:41Z</time>
      </trkpt>
      <trkpt lat="45.48897" lon="2.89385">
        <ele>1256.58</ele>
        <time>2021-08-15T07:56:53Z</time>
      </trkpt>
      <trkpt lat="45.48875" lon="2.89332">
        <ele>1256.58</ele>
        <time>2021-08-15T07:57:05Z</time>
      </trkpt>
      <trkpt lat="45.48858" lon="2.89299">
        <ele>1256.58</ele>
        <time>2021-08-15T07:57:13Z</time>
      </trkpt>
      <trkpt lat="45.48838" lon="2.89286">
        <ele>1257.06</ele>
        <time>2021-08-15T07:57:20Z</time>
      </trkpt>
      <trkpt lat="45.48817" lon="2.89283">
        <ele>1258.98</ele>
        <time>2021-08-15T07:57:29Z</time>
      </trkpt>
      <trkpt lat="45.48803" lon="2.89286">
        <ele>1259.94</ele>
        <time>2021-08-15T07:57:37Z</time>
      </trkpt>
      <trkpt lat="45.4879" lon="2.89286">
        <ele>1260.91</ele>
        <time>2021-08-15T07:57:45Z</time>
      </trkpt>
      <trkpt lat="45.48781" lon="2.89287">
        <ele>1261.87</ele>
        <time>2021-08-15T07:57:51Z</time>
      </trkpt>
      <trkpt lat="45.4877" lon="2.89287">
        <ele>1262.83</ele>
        <time>2021-08-15T07:57:58Z</time>
      </trkpt>
      <trkpt lat="45.48758" lon="2.89289">
        <ele>1263.79</ele>
        <time>2021-08-15T07:58:06Z</time>
      </trkpt>
      <trkpt lat="45.48747" lon="2.8929">
        <ele>1264.75</ele>
        <time>2021-08-15T07:58:14Z</time>
      </trkpt>
      <trkpt lat="45.48745" lon="2.89288">
        <ele>1264.75</ele>
        <time>2021-08-15T07:58:16Z</time>
      </trkpt>
      <trkpt lat="45.48742" lon="2.89288">
        <ele>1265.23</ele>
        <time>2021-08-15T07:58:18Z</time>
      </trkpt>
      <trkpt lat="45.48741" lon="2.89288">
        <ele>1265.23</ele>
        <time>2021-08-15T07:58:19Z</time>
      </trkpt>
      <trkpt lat="45.4874" lon="2.89289">
        <ele>1265.23</ele>
        <time>2021-08-15T07:58:20Z</time>
      </trkpt>
      <trkpt lat="45.48738" lon="2.8929">
        <ele>1265.23</ele>
        <time>2021-08-15T07:58:21Z</time>
      </trkpt>
      <trkpt lat="45.48737" lon="2.89291">
        <ele>1265.23</ele>
        <time>2021-08-15T07:58:22Z</time>
      </trkpt>
      <trkpt lat="45.48736" lon="2.89291">
        <ele>1265.23</ele>
        <time>2021-08-15T07:58:23Z</time>
      </trkpt>
      <trkpt lat="45.4873" lon="2.8929">
        <ele>1266.19</ele>
        <time>2021-08-15T07:58:28Z</time>
      </trkpt>
      <trkpt lat="45.48729" lon="2.89291">
        <ele>1266.67</ele>
        <time>2021-08-15T07:58:29Z</time>
      </trkpt>
      <trkpt lat="45.48728" lon="2.89291">
        <ele>1266.19</ele>
        <time>2021-08-15T07:58:30Z</time>
      </trkpt>
      <trkpt lat="45.48724" lon="2.8929">
        <ele>1267.16</ele>
        <time>2021-08-15T07:58:34Z</time>
      </trkpt>
      <trkpt lat="45.48718" lon="2.89288">
        <ele>1267.64</ele>
        <time>2021-08-15T07:58:40Z</time>
      </trkpt>
      <trkpt lat="45.48717" lon="2.89287">
        <ele>1268.12</ele>
        <time>2021-08-15T07:58:41Z</time>
      </trkpt>
      <trkpt lat="45.48716" lon="2.89287">
        <ele>1268.12</ele>
        <time>2021-08-15T07:58:42Z</time>
      </trkpt>
      <trkpt lat="45.48714" lon="2.89287">
        <ele>1268.12</ele>
        <time>2021-08-15T07:58:43Z</time>
      </trkpt>
      <trkpt lat="45.48713" lon="2.89287">
        <ele>1268.6</ele>
        <time>2021-08-15T07:58:44Z</time>
      </trkpt>
      <trkpt lat="45.48707" lon="2.89282">
        <ele>1269.08</ele>
        <time>2021-08-15T07:58:50Z</time>
      </trkpt>
      <trkpt lat="45.48705" lon="2.89281">
        <ele>1269.08</ele>
        <time>2021-08-15T07:58:51Z</time>
      </trkpt>
      <trkpt lat="45.48704" lon="2.89281">
        <ele>1269.56</ele>
        <time>2021-08-15T07:58:52Z</time>
      </trkpt>
      <trkpt lat="45.48701" lon="2.89277">
        <ele>1270.04</ele>
        <time>2021-08-15T07:58:56Z</time>
      </trkpt>
      <trkpt lat="45.487" lon="2.89275">
        <ele>1270.04</ele>
        <time>2021-08-15T07:58:57Z</time>
      </trkpt>
      <trkpt lat="45.48699" lon="2.89274">
        <ele>1270.04</ele>
        <time>2021-08-15T07:58:58Z</time>
      </trkpt>
      <trkpt lat="45.48697" lon="2.89273">
        <ele>1270.04</ele>
        <time>2021-08-15T07:58:59Z</time>
      </trkpt>
      <trkpt lat="45.48696" lon="2.89272">
        <ele>1270.04</ele>
        <time>2021-08-15T07:59:00Z</time>
      </trkpt>
      <trkpt lat="45.48694" lon="2.89271">
        <ele>1270.04</ele>
        <time>2021-08-15T07:59:01Z</time>
      </trkpt>
      <trkpt lat="45.48692" lon="2.89269">
        <ele>1270.52</ele>
        <time>2021-08-15T07:59:03Z</time>
      </trkpt>
      <trkpt lat="45.48691" lon="2.89267">
        <ele>1270.52</ele>
        <time>2021-08-15T07:59:04Z</time>
      </trkpt>
      <trkpt lat="45.4869" lon="2.89265">
        <ele>1270.52</ele>
        <time>2021-08-15T07:59:05Z</time>
      </trkpt>
      <trkpt lat="45.48688" lon="2.89264">
        <ele>1271</ele>
        <time>2021-08-15T07:59:06Z</time>
      </trkpt>
      <trkpt lat="45.48687" lon="2.89262">
        <ele>1271</ele>
        <time>2021-08-15T07:59:07Z</time>
      </trkpt>
      <trkpt lat="45.48686" lon="2.8926">
        <ele>1271.48</ele>
        <time>2021-08-15T07:59:08Z</time>
      </trkpt>
      <trkpt lat="45.48676" lon="2.89249">
        <ele>1272.44</ele>
        <time>2021-08-15T07:59:15Z</time>
      </trkpt>
      <trkpt lat="45.48675" lon="2.89248">
        <ele>1272.44</ele>
        <time>2021-08-15T07:59:16Z</time>
      </trkpt>
      <trkpt lat="45.48674" lon="2.89246">
        <ele>1272.44</ele>
        <time>2021-08-15T07:59:17Z</time>
      </trkpt>
      <trkpt lat="45.48673" lon="2.89244">
        <ele>1271.96</ele>
        <time>2021-08-15T07:59:18Z</time>
      </trkpt>
      <trkpt lat="45.48671" lon="2.89243">
        <ele>1272.44</ele>
        <time>2021-08-15T07:59:19Z</time>
      </trkpt>
      <trkpt lat="45.4867" lon="2.89241">
        <ele>1272.44</ele>
        <time>2021-08-15T07:59:20Z</time>
      </trkpt>
      <trkpt lat="45.48657" lon="2.89223">
        <ele>1272.92</ele>
        <time>2021-08-15T07:59:29Z</time>
      </trkpt>
      <trkpt lat="45.48647" lon="2.89209">
        <ele>1272.92</ele>
        <time>2021-08-15T07:59:35Z</time>
      </trkpt>
      <trkpt lat="45.48631" lon="2.89187">
        <ele>1272.92</ele>
        <time>2021-08-15T07:59:44Z</time>
      </trkpt>
      <trkpt lat="45.48613" lon="2.89165">
        <ele>1271.96</ele>
        <time>2021-08-15T07:59:52Z</time>
      </trkpt>
      <trkpt lat="45.4859" lon="2.8913">
        <ele>1270.04</ele>
        <time>2021-08-15T08:00:00Z</time>
      </trkpt>
      <trkpt lat="45.48581" lon="2.89113">
        <ele>1270.04</ele>
        <time>2021-08-15T08:00:03Z</time>
      </trkpt>
      <trkpt lat="45.48558" lon="2.89061">
        <ele>1269.56</ele>
        <time>2021-08-15T08:00:11Z</time>
      </trkpt>
      <trkpt lat="45.48536" lon="2.89">
        <ele>1268.6</ele>
        <time>2021-08-15T08:00:20Z</time>
      </trkpt>
      <trkpt lat="45.48527" lon="2.88981">
        <ele>1268.6</ele>
        <time>2021-08-15T08:00:23Z</time>
      </trkpt>
      <trkpt lat="45.48515" lon="2.88962">
        <ele>1268.12</ele>
        <time>2021-08-15T08:00:26Z</time>
      </trkpt>
      <trkpt lat="45.4851" lon="2.88955">
        <ele>1268.12</ele>
        <time>2021-08-15T08:00:27Z</time>
      </trkpt>
      <trkpt lat="45.48505" lon="2.8895">
        <ele>1267.64</ele>
        <time>2021-08-15T08:00:28Z</time>
      </trkpt>
      <trkpt lat="45.48501" lon="2.88946">
        <ele>1267.64</ele>
        <time>2021-08-15T08:00:29Z</time>
      </trkpt>
      <trkpt lat="45.48496" lon="2.88943">
        <ele>1267.64</ele>
        <time>2021-08-15T08:00:30Z</time>
      </trkpt>
      <trkpt lat="45.48475" lon="2.8893">
        <ele>1269.08</ele>
        <time>2021-08-15T08:00:36Z</time>
      </trkpt>
      <trkpt lat="45.48462" lon="2.88922">
        <ele>1270.52</ele>
        <time>2021-08-15T08:00:43Z</time>
      </trkpt>
      <trkpt lat="45.48459" lon="2.88919">
        <ele>1271</ele>
        <time>2021-08-15T08:00:45Z</time>
      </trkpt>
      <trkpt lat="45.48457" lon="2.88918">
        <ele>1271</ele>
        <time>2021-08-15T08:00:46Z</time>
      </trkpt>
      <trkpt lat="45.48443" lon="2.88911">
        <ele>1272.44</ele>
        <time>2021-08-15T08:00:53Z</time>
      </trkpt>
      <trkpt lat="45.48435" lon="2.88904">
        <ele>1273.88</ele>
        <time>2021-08-15T08:00:59Z</time>
      </trkpt>
      <trkpt lat="45.48426" lon="2.88896">
        <ele>1274.85</ele>
        <time>2021-08-15T08:01:05Z</time>
      </trkpt>
      <trkpt lat="45.4842" lon="2.88887">
        <ele>1274.85</ele>
        <time>2021-08-15T08:01:11Z</time>
      </trkpt>
      <trkpt lat="45.48419" lon="2.88886">
        <ele>1274.85</ele>
        <time>2021-08-15T08:01:12Z</time>
      </trkpt>
      <trkpt lat="45.48418" lon="2.88885">
        <ele>1275.33</ele>
        <time>2021-08-15T08:01:13Z</time>
      </trkpt>
      <trkpt lat="45.48416" lon="2.88884">
        <ele>1275.33</ele>
        <time>2021-08-15T08:01:14Z</time>
      </trkpt>
      <trkpt lat="45.48415" lon="2.88883">
        <ele>1275.33</ele>
        <time>2021-08-15T08:01:15Z</time>
      </trkpt>
      <trkpt lat="45.48414" lon="2.88882">
        <ele>1275.81</ele>
        <time>2021-08-15T08:01:16Z</time>
      </trkpt>
      <trkpt lat="45.48413" lon="2.8888">
        <ele>1275.81</ele>
        <time>2021-08-15T08:01:17Z</time>
      </trkpt>
      <trkpt lat="45.48406" lon="2.88866">
        <ele>1277.25</ele>
        <time>2021-08-15T08:01:25Z</time>
      </trkpt>
      <trkpt lat="45.48403" lon="2.88861">
        <ele>1277.73</ele>
        <time>2021-08-15T08:01:28Z</time>
      </trkpt>
      <trkpt lat="45.48402" lon="2.88859">
        <ele>1277.73</ele>
        <time>2021-08-15T08:01:29Z</time>
      </trkpt>
      <trkpt lat="45.48401" lon="2.88857">
        <ele>1277.73</ele>
        <time>2021-08-15T08:01:30Z</time>
      </trkpt>
      <trkpt lat="45.484" lon="2.88855">
        <ele>1277.73</ele>
        <time>2021-08-15T08:01:31Z</time>
      </trkpt>
      <trkpt lat="45.48399" lon="2.88853">
        <ele>1278.69</ele>
        <time>2021-08-15T08:01:32Z</time>
      </trkpt>
      <trkpt lat="45.48395" lon="2.88838">
        <ele>1278.69</ele>
        <time>2021-08-15T08:01:40Z</time>
      </trkpt>
      <trkpt lat="45.48388" lon="2.88821">
        <ele>1279.65</ele>
        <time>2021-08-15T08:01:49Z</time>
      </trkpt>
      <trkpt lat="45.48374" lon="2.88801">
        <ele>1280.13</ele>
        <time>2021-08-15T08:01:59Z</time>
      </trkpt>
      <trkpt lat="45.48352" lon="2.88787">
        <ele>1280.13</ele>
        <time>2021-08-15T08:02:09Z</time>
      </trkpt>
      <trkpt lat="45.48328" lon="2.88783">
        <ele>1280.61</ele>
        <time>2021-08-15T08:02:17Z</time>
      </trkpt>
      <trkpt lat="45.48298" lon="2.88782">
        <ele>1278.69</ele>
        <time>2021-08-15T08:02:25Z</time>
      </trkpt>
      <trkpt lat="45.48257" lon="2.88779">
        <ele>1277.25</ele>
        <time>2021-08-15T08:02:34Z</time>
      </trkpt>
      <trkpt lat="45.48253" lon="2.88779">
        <ele>1277.25</ele>
        <time>2021-08-15T08:02:35Z</time>
      </trkpt>
      <trkpt lat="45.48222" lon="2.88781">
        <ele>1276.77</ele>
        <time>2021-08-15T08:02:41Z</time>
      </trkpt>
      <trkpt lat="45.48216" lon="2.88783">
        <ele>1275.81</ele>
        <time>2021-08-15T08:02:42Z</time>
      </trkpt>
      <trkpt lat="45.48211" lon="2.88786">
        <ele>1275.33</ele>
        <time>2021-08-15T08:02:43Z</time>
      </trkpt>
      <trkpt lat="45.48205" lon="2.88791">
        <ele>1275.33</ele>
        <time>2021-08-15T08:02:44Z</time>
      </trkpt>
      <trkpt lat="45.482" lon="2.88797">
        <ele>1274.36</ele>
        <time>2021-08-15T08:02:45Z</time>
      </trkpt>
      <trkpt lat="45.48196" lon="2.88804">
        <ele>1273.88</ele>
        <time>2021-08-15T08:02:46Z</time>
      </trkpt>
      <trkpt lat="45.48191" lon="2.88811">
        <ele>1272.92</ele>
        <time>2021-08-15T08:02:47Z</time>
      </trkpt>
      <trkpt lat="45.48185" lon="2.88817">
        <ele>1272.44</ele>
        <time>2021-08-15T08:02:48Z</time>
      </trkpt>
      <trkpt lat="45.48179" lon="2.88821">
        <ele>1271.48</ele>
        <time>2021-08-15T08:02:49Z</time>
      </trkpt>
      <trkpt lat="45.48172" lon="2.88823">
        <ele>1270.04</ele>
        <time>2021-08-15T08:02:50Z</time>
      </trkpt>
      <trkpt lat="45.48164" lon="2.88824">
        <ele>1269.08</ele>
        <time>2021-08-15T08:02:51Z</time>
      </trkpt>
      <trkpt lat="45.48156" lon="2.88824">
        <ele>1269.08</ele>
        <time>2021-08-15T08:02:52Z</time>
      </trkpt>
      <trkpt lat="45.48121" lon="2.88827">
        <ele>1265.71</ele>
        <time>2021-08-15T08:02:56Z</time>
      </trkpt>
      <trkpt lat="45.48071" lon="2.88839">
        <ele>1264.75</ele>
        <time>2021-08-15T08:03:02Z</time>
      </trkpt>
      <trkpt lat="45.48033" lon="2.8885">
        <ele>1264.75</ele>
        <time>2021-08-15T08:03:07Z</time>
      </trkpt>
      <trkpt lat="45.48027" lon="2.88855">
        <ele>1264.75</ele>
        <time>2021-08-15T08:03:08Z</time>
      </trkpt>
      <trkpt lat="45.48022" lon="2.88862">
        <ele>1264.75</ele>
        <time>2021-08-15T08:03:09Z</time>
      </trkpt>
      <trkpt lat="45.48017" lon="2.88869">
        <ele>1264.75</ele>
        <time>2021-08-15T08:03:10Z</time>
      </trkpt>
      <trkpt lat="45.48013" lon="2.88877">
        <ele>1264.75</ele>
        <time>2021-08-15T08:03:11Z</time>
      </trkpt>
      <trkpt lat="45.4801" lon="2.88886">
        <ele>1264.27</ele>
        <time>2021-08-15T08:03:12Z</time>
      </trkpt>
      <trkpt lat="45.48007" lon="2.88896">
        <ele>1264.27</ele>
        <time>2021-08-15T08:03:13Z</time>
      </trkpt>
      <trkpt lat="45.48005" lon="2.88908">
        <ele>1263.79</ele>
        <time>2021-08-15T08:03:14Z</time>
      </trkpt>
      <trkpt lat="45.48003" lon="2.88918">
        <ele>1262.83</ele>
        <time>2021-08-15T08:03:15Z</time>
      </trkpt>
      <trkpt lat="45.47996" lon="2.88954">
        <ele>1259.94</ele>
        <time>2021-08-15T08:03:18Z</time>
      </trkpt>
      <trkpt lat="45.47993" lon="2.88967">
        <ele>1258.98</ele>
        <time>2021-08-15T08:03:19Z</time>
      </trkpt>
      <trkpt lat="45.47988" lon="2.88979">
        <ele>1258.02</ele>
        <time>2021-08-15T08:03:20Z</time>
      </trkpt>
      <trkpt lat="45.47981" lon="2.88991">
        <ele>1256.1</ele>
        <time>2021-08-15T08:03:21Z</time>
      </trkpt>
      <trkpt lat="45.47973" lon="2.89002">
        <ele>1255.14</ele>
        <time>2021-08-15T08:03:22Z</time>
      </trkpt>
      <trkpt lat="45.47965" lon="2.89011">
        <ele>1254.66</ele>
        <time>2021-08-15T08:03:23Z</time>
      </trkpt>
      <trkpt lat="45.47948" lon="2.8903">
        <ele>1253.7</ele>
        <time>2021-08-15T08:03:25Z</time>
      </trkpt>
      <trkpt lat="45.47895" lon="2.8909">
        <ele>1252.74</ele>
        <time>2021-08-15T08:03:31Z</time>
      </trkpt>
      <trkpt lat="45.47878" lon="2.89105">
        <ele>1251.29</ele>
        <time>2021-08-15T08:03:33Z</time>
      </trkpt>
      <trkpt lat="45.47871" lon="2.89116">
        <ele>1251.29</ele>
        <time>2021-08-15T08:03:34Z</time>
      </trkpt>
      <trkpt lat="45.47866" lon="2.89127">
        <ele>1251.29</ele>
        <time>2021-08-15T08:03:35Z</time>
      </trkpt>
      <trkpt lat="45.47861" lon="2.89142">
        <ele>1250.81</ele>
        <time>2021-08-15T08:03:36Z</time>
      </trkpt>
      <trkpt lat="45.47859" lon="2.89155">
        <ele>1250.33</ele>
        <time>2021-08-15T08:03:37Z</time>
      </trkpt>
      <trkpt lat="45.47857" lon="2.89166">
        <ele>1249.85</ele>
        <time>2021-08-15T08:03:38Z</time>
      </trkpt>
      <trkpt lat="45.47852" lon="2.89192">
        <ele>1249.37</ele>
        <time>2021-08-15T08:03:40Z</time>
      </trkpt>
      <trkpt lat="45.47848" lon="2.89203">
        <ele>1249.37</ele>
        <time>2021-08-15T08:03:41Z</time>
      </trkpt>
      <trkpt lat="45.47843" lon="2.89214">
        <ele>1249.37</ele>
        <time>2021-08-15T08:03:42Z</time>
      </trkpt>
      <trkpt lat="45.47831" lon="2.89235">
        <ele>1248.89</ele>
        <time>2021-08-15T08:03:44Z</time>
      </trkpt>
      <trkpt lat="45.47827" lon="2.89246">
        <ele>1248.89</ele>
        <time>2021-08-15T08:03:45Z</time>
      </trkpt>
      <trkpt lat="45.47826" lon="2.89257">
        <ele>1248.89</ele>
        <time>2021-08-15T08:03:46Z</time>
      </trkpt>
      <trkpt lat="45.47829" lon="2.89269">
        <ele>1248.41</ele>
        <time>2021-08-15T08:03:47Z</time>
      </trkpt>
      <trkpt lat="45.47835" lon="2.8928">
        <ele>1248.89</ele>
        <time>2021-08-15T08:03:48Z</time>
      </trkpt>
      <trkpt lat="45.47839" lon="2.89285">
        <ele>1248.41</ele>
        <time>2021-08-15T08:03:49Z</time>
      </trkpt>
      <trkpt lat="45.47844" lon="2.89293">
        <ele>1248.41</ele>
        <time>2021-08-15T08:03:50Z</time>
      </trkpt>
      <trkpt lat="45.47849" lon="2.89299">
        <ele>1248.41</ele>
        <time>2021-08-15T08:03:51Z</time>
      </trkpt>
      <trkpt lat="45.47858" lon="2.89311">
        <ele>1250.33</ele>
        <time>2021-08-15T08:03:53Z</time>
      </trkpt>
      <trkpt lat="45.47868" lon="2.89328">
        <ele>1251.77</ele>
        <time>2021-08-15T08:03:57Z</time>
      </trkpt>
      <trkpt lat="45.47869" lon="2.8933">
        <ele>1252.25</ele>
        <time>2021-08-15T08:03:58Z</time>
      </trkpt>
      <trkpt lat="45.47869" lon="2.89331">
        <ele>1252.25</ele>
        <time>2021-08-15T08:04:00Z</time>
      </trkpt>
      <trkpt lat="45.47864" lon="2.8932">
        <ele>1252.74</ele>
        <time>2021-08-15T08:04:04Z</time>
      </trkpt>
      <trkpt lat="45.47848" lon="2.89293">
        <ele>1250.81</ele>
        <time>2021-08-15T08:04:11Z</time>
      </trkpt>
      <trkpt lat="45.47833" lon="2.89269">
        <ele>1250.33</ele>
        <time>2021-08-15T08:04:16Z</time>
      </trkpt>
      <trkpt lat="45.47831" lon="2.89265">
        <ele>1250.33</ele>
        <time>2021-08-15T08:04:17Z</time>
      </trkpt>
      <trkpt lat="45.47828" lon="2.89262">
        <ele>1250.33</ele>
        <time>2021-08-15T08:04:18Z</time>
      </trkpt>
      <trkpt lat="45.47825" lon="2.8926">
        <ele>1250.33</ele>
        <time>2021-08-15T08:04:19Z</time>
      </trkpt>
      <trkpt lat="45.47823" lon="2.89259">
        <ele>1249.85</ele>
        <time>2021-08-15T08:04:20Z</time>
      </trkpt>
      <trkpt lat="45.47821" lon="2.89258">
        <ele>1249.85</ele>
        <time>2021-08-15T08:04:21Z</time>
      </trkpt>
      <trkpt lat="45.4782" lon="2.89258">
        <ele>1249.85</ele>
        <time>2021-08-15T08:04:22Z</time>
      </trkpt>
      <trkpt lat="45.47818" lon="2.8926">
        <ele>1249.85</ele>
        <time>2021-08-15T08:04:25Z</time>
      </trkpt>
      <trkpt lat="45.47817" lon="2.89261">
        <ele>1249.85</ele>
        <time>2021-08-15T08:04:26Z</time>
      </trkpt>
      <trkpt lat="45.47817" lon="2.89263">
        <ele>1249.85</ele>
        <time>2021-08-15T08:04:27Z</time>
      </trkpt>
      <trkpt lat="45.47816" lon="2.89264">
        <ele>1249.85</ele>
        <time>2021-08-15T08:04:28Z</time>
      </trkpt>
      <trkpt lat="45.47815" lon="2.89266">
        <ele>1249.85</ele>
        <time>2021-08-15T08:04:29Z</time>
      </trkpt>
      <trkpt lat="45.47806" lon="2.89281">
        <ele>1248.89</ele>
        <time>2021-08-15T08:04:35Z</time>
      </trkpt>
      <trkpt lat="45.47797" lon="2.89311">
        <ele>1246.01</ele>
        <time>2021-08-15T08:04:41Z</time>
      </trkpt>
      <trkpt lat="45.4779" lon="2.89341">
        <ele>1245.53</ele>
        <time>2021-08-15T08:04:46Z</time>
      </trkpt>
      <trkpt lat="45.47787" lon="2.89347">
        <ele>1245.04</ele>
        <time>2021-08-15T08:04:47Z</time>
      </trkpt>
      <trkpt lat="45.47784" lon="2.89353">
        <ele>1244.56</ele>
        <time>2021-08-15T08:04:48Z</time>
      </trkpt>
      <trkpt lat="45.47758" lon="2.89402">
        <ele>1242.64</ele>
        <time>2021-08-15T08:04:55Z</time>
      </trkpt>
      <trkpt lat="45.47756" lon="2.8941">
        <ele>1242.16</ele>
        <time>2021-08-15T08:04:56Z</time>
      </trkpt>
      <trkpt lat="45.47752" lon="2.89434">
        <ele>1241.68</ele>
        <time>2021-08-15T08:04:59Z</time>
      </trkpt>
      <trkpt lat="45.47748" lon="2.8944">
        <ele>1241.68</ele>
        <time>2021-08-15T08:05:00Z</time>
      </trkpt>
      <trkpt lat="45.47742" lon="2.89445">
        <ele>1240.24</ele>
        <time>2021-08-15T08:05:01Z</time>
      </trkpt>
      <trkpt lat="45.47736" lon="2.89449">
        <ele>1239.28</ele>
        <time>2021-08-15T08:05:02Z</time>
      </trkpt>
      <trkpt lat="45.4773" lon="2.89452">
        <ele>1238.8</ele>
        <time>2021-08-15T08:05:03Z</time>
      </trkpt>
      <trkpt lat="45.47723" lon="2.89456">
        <ele>1238.32</ele>
        <time>2021-08-15T08:05:04Z</time>
      </trkpt>
      <trkpt lat="45.47717" lon="2.89462">
        <ele>1238.8</ele>
        <time>2021-08-15T08:05:05Z</time>
      </trkpt>
      <trkpt lat="45.47711" lon="2.89468">
        <ele>1238.8</ele>
        <time>2021-08-15T08:05:06Z</time>
      </trkpt>
      <trkpt lat="45.47693" lon="2.89498">
        <ele>1236.87</ele>
        <time>2021-08-15T08:05:10Z</time>
      </trkpt>
      <trkpt lat="45.47688" lon="2.89504">
        <ele>1236.87</ele>
        <time>2021-08-15T08:05:11Z</time>
      </trkpt>
      <trkpt lat="45.47683" lon="2.89509">
        <ele>1236.87</ele>
        <time>2021-08-15T08:05:12Z</time>
      </trkpt>
      <trkpt lat="45.47677" lon="2.89514">
        <ele>1236.39</ele>
        <time>2021-08-15T08:05:13Z</time>
      </trkpt>
      <trkpt lat="45.47671" lon="2.89518">
        <ele>1235.91</ele>
        <time>2021-08-15T08:05:14Z</time>
      </trkpt>
      <trkpt lat="45.47665" lon="2.89523">
        <ele>1235.43</ele>
        <time>2021-08-15T08:05:15Z</time>
      </trkpt>
      <trkpt lat="45.47654" lon="2.89537">
        <ele>1234.47</ele>
        <time>2021-08-15T08:05:17Z</time>
      </trkpt>
      <trkpt lat="45.4765" lon="2.89546">
        <ele>1233.51</ele>
        <time>2021-08-15T08:05:18Z</time>
      </trkpt>
      <trkpt lat="45.47646" lon="2.89556">
        <ele>1233.51</ele>
        <time>2021-08-15T08:05:19Z</time>
      </trkpt>
      <trkpt lat="45.47638" lon="2.89585">
        <ele>1233.03</ele>
        <time>2021-08-15T08:05:22Z</time>
      </trkpt>
      <trkpt lat="45.47634" lon="2.89593">
        <ele>1233.03</ele>
        <time>2021-08-15T08:05:23Z</time>
      </trkpt>
      <trkpt lat="45.47622" lon="2.89617">
        <ele>1231.59</ele>
        <time>2021-08-15T08:05:26Z</time>
      </trkpt>
      <trkpt lat="45.47619" lon="2.89625">
        <ele>1231.59</ele>
        <time>2021-08-15T08:05:27Z</time>
      </trkpt>
      <trkpt lat="45.47617" lon="2.89632">
        <ele>1231.59</ele>
        <time>2021-08-15T08:05:28Z</time>
      </trkpt>
      <trkpt lat="45.47616" lon="2.89638">
        <ele>1231.59</ele>
        <time>2021-08-15T08:05:29Z</time>
      </trkpt>
      <trkpt lat="45.47614" lon="2.89643">
        <ele>1231.59</ele>
        <time>2021-08-15T08:05:30Z</time>
      </trkpt>
      <trkpt lat="45.47614" lon="2.89649">
        <ele>1231.59</ele>
        <time>2021-08-15T08:05:31Z</time>
      </trkpt>
      <trkpt lat="45.47614" lon="2.89655">
        <ele>1231.59</ele>
        <time>2021-08-15T08:05:32Z</time>
      </trkpt>
      <trkpt lat="45.47615" lon="2.89662">
        <ele>1231.11</ele>
        <time>2021-08-15T08:05:33Z</time>
      </trkpt>
      <trkpt lat="45.47613" lon="2.89676">
        <ele>1231.11</ele>
        <time>2021-08-15T08:05:37Z</time>
      </trkpt>
      <trkpt lat="45.47612" lon="2.89682">
        <ele>1231.11</ele>
        <time>2021-08-15T08:05:43Z</time>
      </trkpt>
      <trkpt lat="45.47612" lon="2.89685">
        <ele>1231.11</ele>
        <time>2021-08-15T08:05:51Z</time>
      </trkpt>
      <trkpt lat="45.47609" lon="2.89688">
        <ele>1231.11</ele>
        <time>2021-08-15T08:06:02Z</time>
      </trkpt>
      <trkpt lat="45.47607" lon="2.89689">
        <ele>1232.07</ele>
        <time>2021-08-15T08:06:07Z</time>
      </trkpt>
      <trkpt lat="45.47605" lon="2.89688">
        <ele>1232.07</ele>
        <time>2021-08-15T08:06:08Z</time>
      </trkpt>
      <trkpt lat="45.47604" lon="2.89688">
        <ele>1232.07</ele>
        <time>2021-08-15T08:06:09Z</time>
      </trkpt>
      <trkpt lat="45.47603" lon="2.89687">
        <ele>1232.07</ele>
        <time>2021-08-15T08:06:10Z</time>
      </trkpt>
      <trkpt lat="45.47602" lon="2.89685">
        <ele>1232.07</ele>
        <time>2021-08-15T08:06:11Z</time>
      </trkpt>
      <trkpt lat="45.47601" lon="2.89684">
        <ele>1232.07</ele>
        <time>2021-08-15T08:06:12Z</time>
      </trkpt>
      <trkpt lat="45.476" lon="2.89683">
        <ele>1232.07</ele>
        <time>2021-08-15T08:06:13Z</time>
      </trkpt>
      <trkpt lat="45.47599" lon="2.89681">
        <ele>1232.07</ele>
        <time>2021-08-15T08:06:14Z</time>
      </trkpt>
      <trkpt lat="45.47588" lon="2.89666">
        <ele>1232.07</ele>
        <time>2021-08-15T08:06:22Z</time>
      </trkpt>
      <trkpt lat="45.47566" lon="2.89634">
        <ele>1231.11</ele>
        <time>2021-08-15T08:06:33Z</time>
      </trkpt>
      <trkpt lat="45.47558" lon="2.89624">
        <ele>1231.11</ele>
        <time>2021-08-15T08:06:37Z</time>
      </trkpt>
      <trkpt lat="45.47555" lon="2.89625">
        <ele>1231.11</ele>
        <time>2021-08-15T08:06:38Z</time>
      </trkpt>
      <trkpt lat="45.47553" lon="2.89628">
        <ele>1231.11</ele>
        <time>2021-08-15T08:06:39Z</time>
      </trkpt>
      <trkpt lat="45.47551" lon="2.8963">
        <ele>1231.11</ele>
        <time>2021-08-15T08:06:40Z</time>
      </trkpt>
      <trkpt lat="45.47549" lon="2.8963">
        <ele>1231.11</ele>
        <time>2021-08-15T08:06:41Z</time>
      </trkpt>
      <trkpt lat="45.47547" lon="2.89629">
        <ele>1229.66</ele>
        <time>2021-08-15T08:06:42Z</time>
      </trkpt>
      <trkpt lat="45.47545" lon="2.89627">
        <ele>1229.66</ele>
        <time>2021-08-15T08:06:43Z</time>
      </trkpt>
      <trkpt lat="45.47544" lon="2.89625">
        <ele>1229.66</ele>
        <time>2021-08-15T08:06:44Z</time>
      </trkpt>
      <trkpt lat="45.47542" lon="2.89624">
        <ele>1229.66</ele>
        <time>2021-08-15T08:06:45Z</time>
      </trkpt>
      <trkpt lat="45.4754" lon="2.89624">
        <ele>1229.66</ele>
        <time>2021-08-15T08:06:46Z</time>
      </trkpt>
      <trkpt lat="45.47519" lon="2.89623">
        <ele>1228.7</ele>
        <time>2021-08-15T08:06:53Z</time>
      </trkpt>
      <trkpt lat="45.47505" lon="2.89611">
        <ele>1228.22</ele>
        <time>2021-08-15T08:06:59Z</time>
      </trkpt>
      <trkpt lat="45.475" lon="2.89612">
        <ele>1228.22</ele>
        <time>2021-08-15T08:07:01Z</time>
      </trkpt>
      <trkpt lat="45.47495" lon="2.89616">
        <ele>1229.66</ele>
        <time>2021-08-15T08:07:03Z</time>
      </trkpt>
      <trkpt lat="45.47482" lon="2.8962">
        <ele>1230.14</ele>
        <time>2021-08-15T08:07:09Z</time>
      </trkpt>
      <trkpt lat="45.4746" lon="2.89621">
        <ele>1230.14</ele>
        <time>2021-08-15T08:07:17Z</time>
      </trkpt>
      <trkpt lat="45.4743" lon="2.89619">
        <ele>1230.62</ele>
        <time>2021-08-15T08:07:27Z</time>
      </trkpt>
      <trkpt lat="45.47404" lon="2.89615">
        <ele>1231.11</ele>
        <time>2021-08-15T08:07:36Z</time>
      </trkpt>
      <trkpt lat="45.47379" lon="2.89607">
        <ele>1232.07</ele>
        <time>2021-08-15T08:07:46Z</time>
      </trkpt>
      <trkpt lat="45.47361" lon="2.89604">
        <ele>1233.51</ele>
        <time>2021-08-15T08:07:55Z</time>
      </trkpt>
      <trkpt lat="45.47342" lon="2.89602">
        <ele>1233.51</ele>
        <time>2021-08-15T08:08:03Z</time>
      </trkpt>
      <trkpt lat="45.47339" lon="2.89601">
        <ele>1232.07</ele>
        <time>2021-08-15T08:08:04Z</time>
      </trkpt>
      <trkpt lat="45.47337" lon="2.896">
        <ele>1232.07</ele>
        <time>2021-08-15T08:08:05Z</time>
      </trkpt>
      <trkpt lat="45.47335" lon="2.896">
        <ele>1233.99</ele>
        <time>2021-08-15T08:08:06Z</time>
      </trkpt>
      <trkpt lat="45.47332" lon="2.89601">
        <ele>1234.47</ele>
        <time>2021-08-15T08:08:07Z</time>
      </trkpt>
      <trkpt lat="45.47329" lon="2.89602">
        <ele>1234.47</ele>
        <time>2021-08-15T08:08:08Z</time>
      </trkpt>
      <trkpt lat="45.47308" lon="2.896">
        <ele>1234.47</ele>
        <time>2021-08-15T08:08:16Z</time>
      </trkpt>
      <trkpt lat="45.47286" lon="2.89594">
        <ele>1234.95</ele>
        <time>2021-08-15T08:08:24Z</time>
      </trkpt>
      <trkpt lat="45.47278" lon="2.89591">
        <ele>1233.99</ele>
        <time>2021-08-15T08:08:26Z</time>
      </trkpt>
      <trkpt lat="45.47264" lon="2.89586">
        <ele>1233.99</ele>
        <time>2021-08-15T08:08:30Z</time>
      </trkpt>
      <trkpt lat="45.47259" lon="2.89585">
        <ele>1233.99</ele>
        <time>2021-08-15T08:08:31Z</time>
      </trkpt>
      <trkpt lat="45.47254" lon="2.89585">
        <ele>1233.03</ele>
        <time>2021-08-15T08:08:32Z</time>
      </trkpt>
      <trkpt lat="45.47226" lon="2.8959">
        <ele>1231.59</ele>
        <time>2021-08-15T08:08:38Z</time>
      </trkpt>
      <trkpt lat="45.47221" lon="2.89589">
        <ele>1231.11</ele>
        <time>2021-08-15T08:08:39Z</time>
      </trkpt>
      <trkpt lat="45.47216" lon="2.89589">
        <ele>1230.62</ele>
        <time>2021-08-15T08:08:40Z</time>
      </trkpt>
      <trkpt lat="45.47211" lon="2.89589">
        <ele>1232.07</ele>
        <time>2021-08-15T08:08:41Z</time>
      </trkpt>
      <trkpt lat="45.47206" lon="2.89589">
        <ele>1232.07</ele>
        <time>2021-08-15T08:08:42Z</time>
      </trkpt>
      <trkpt lat="45.47201" lon="2.89591">
        <ele>1233.03</ele>
        <time>2021-08-15T08:08:43Z</time>
      </trkpt>
      <trkpt lat="45.47196" lon="2.89594">
        <ele>1233.03</ele>
        <time>2021-08-15T08:08:44Z</time>
      </trkpt>
      <trkpt lat="45.47192" lon="2.89598">
        <ele>1233.03</ele>
        <time>2021-08-15T08:08:45Z</time>
      </trkpt>
      <trkpt lat="45.47187" lon="2.89601">
        <ele>1231.59</ele>
        <time>2021-08-15T08:08:46Z</time>
      </trkpt>
      <trkpt lat="45.47183" lon="2.89603">
        <ele>1231.59</ele>
        <time>2021-08-15T08:08:47Z</time>
      </trkpt>
      <trkpt lat="45.47155" lon="2.89622">
        <ele>1230.14</ele>
        <time>2021-08-15T08:08:53Z</time>
      </trkpt>
      <trkpt lat="45.4715" lon="2.89626">
        <ele>1229.18</ele>
        <time>2021-08-15T08:08:54Z</time>
      </trkpt>
      <trkpt lat="45.47141" lon="2.89634">
        <ele>1229.18</ele>
        <time>2021-08-15T08:08:56Z</time>
      </trkpt>
      <trkpt lat="45.47137" lon="2.89638">
        <ele>1229.18</ele>
        <time>2021-08-15T08:08:57Z</time>
      </trkpt>
      <trkpt lat="45.47128" lon="2.89646">
        <ele>1228.22</ele>
        <time>2021-08-15T08:08:59Z</time>
      </trkpt>
      <trkpt lat="45.47123" lon="2.8965">
        <ele>1227.74</ele>
        <time>2021-08-15T08:09:00Z</time>
      </trkpt>
      <trkpt lat="45.47119" lon="2.89653">
        <ele>1226.78</ele>
        <time>2021-08-15T08:09:01Z</time>
      </trkpt>
      <trkpt lat="45.47109" lon="2.8966">
        <ele>1225.34</ele>
        <time>2021-08-15T08:09:03Z</time>
      </trkpt>
      <trkpt lat="45.47104" lon="2.89665">
        <ele>1224.86</ele>
        <time>2021-08-15T08:09:04Z</time>
      </trkpt>
      <trkpt lat="45.471" lon="2.89671">
        <ele>1224.86</ele>
        <time>2021-08-15T08:09:05Z</time>
      </trkpt>
      <trkpt lat="45.47092" lon="2.89684">
        <ele>1224.86</ele>
        <time>2021-08-15T08:09:07Z</time>
      </trkpt>
      <trkpt lat="45.47089" lon="2.89687">
        <ele>1224.38</ele>
        <time>2021-08-15T08:09:08Z</time>
      </trkpt>
      <trkpt lat="45.47085" lon="2.89689">
        <ele>1224.38</ele>
        <time>2021-08-15T08:09:09Z</time>
      </trkpt>
      <trkpt lat="45.47083" lon="2.8969">
        <ele>1224.38</ele>
        <time>2021-08-15T08:09:10Z</time>
      </trkpt>
      <trkpt lat="45.4708" lon="2.8969">
        <ele>1224.38</ele>
        <time>2021-08-15T08:09:11Z</time>
      </trkpt>
      <trkpt lat="45.47077" lon="2.89691">
        <ele>1224.38</ele>
        <time>2021-08-15T08:09:12Z</time>
      </trkpt>
      <trkpt lat="45.47063" lon="2.89691">
        <ele>1223.9</ele>
        <time>2021-08-15T08:09:17Z</time>
      </trkpt>
      <trkpt lat="45.4705" lon="2.89699">
        <ele>1222.93</ele>
        <time>2021-08-15T08:09:22Z</time>
      </trkpt>
      <trkpt lat="45.47026" lon="2.89707">
        <ele>1221.49</ele>
        <time>2021-08-15T08:09:29Z</time>
      </trkpt>
      <trkpt lat="45.47007" lon="2.89715">
        <ele>1219.09</ele>
        <time>2021-08-15T08:09:33Z</time>
      </trkpt>
      <trkpt lat="45.47003" lon="2.89716">
        <ele>1218.61</ele>
        <time>2021-08-15T08:09:34Z</time>
      </trkpt>
      <trkpt lat="45.46998" lon="2.89718">
        <ele>1218.61</ele>
        <time>2021-08-15T08:09:35Z</time>
      </trkpt>
      <trkpt lat="45.46972" lon="2.89728">
        <ele>1215.72</ele>
        <time>2021-08-15T08:09:41Z</time>
      </trkpt>
      <trkpt lat="45.46968" lon="2.89729">
        <ele>1214.76</ele>
        <time>2021-08-15T08:09:42Z</time>
      </trkpt>
      <trkpt lat="45.46964" lon="2.89731">
        <ele>1214.76</ele>
        <time>2021-08-15T08:09:43Z</time>
      </trkpt>
      <trkpt lat="45.46954" lon="2.89734">
        <ele>1212.36</ele>
        <time>2021-08-15T08:09:45Z</time>
      </trkpt>
      <trkpt lat="45.46949" lon="2.89735">
        <ele>1211.88</ele>
        <time>2021-08-15T08:09:46Z</time>
      </trkpt>
      <trkpt lat="45.46939" lon="2.89739">
        <ele>1210.44</ele>
        <time>2021-08-15T08:09:48Z</time>
      </trkpt>
      <trkpt lat="45.46934" lon="2.8974">
        <ele>1210.44</ele>
        <time>2021-08-15T08:09:49Z</time>
      </trkpt>
      <trkpt lat="45.46929" lon="2.8974">
        <ele>1209</ele>
        <time>2021-08-15T08:09:50Z</time>
      </trkpt>
      <trkpt lat="45.46907" lon="2.89742">
        <ele>1207.07</ele>
        <time>2021-08-15T08:09:54Z</time>
      </trkpt>
      <trkpt lat="45.46882" lon="2.89749">
        <ele>1203.71</ele>
        <time>2021-08-15T08:09:58Z</time>
      </trkpt>
      <trkpt lat="45.46875" lon="2.89752">
        <ele>1203.71</ele>
        <time>2021-08-15T08:09:59Z</time>
      </trkpt>
      <trkpt lat="45.46858" lon="2.89758">
        <ele>1203.23</ele>
        <time>2021-08-15T08:10:02Z</time>
      </trkpt>
      <trkpt lat="45.46852" lon="2.8976">
        <ele>1203.23</ele>
        <time>2021-08-15T08:10:03Z</time>
      </trkpt>
      <trkpt lat="45.4684" lon="2.89763">
        <ele>1200.82</ele>
        <time>2021-08-15T08:10:05Z</time>
      </trkpt>
      <trkpt lat="45.46833" lon="2.89764">
        <ele>1200.82</ele>
        <time>2021-08-15T08:10:06Z</time>
      </trkpt>
      <trkpt lat="45.46822" lon="2.89767">
        <ele>1198.9</ele>
        <time>2021-08-15T08:10:08Z</time>
      </trkpt>
      <trkpt lat="45.46816" lon="2.89768">
        <ele>1198.9</ele>
        <time>2021-08-15T08:10:09Z</time>
      </trkpt>
      <trkpt lat="45.46805" lon="2.89771">
        <ele>1197.46</ele>
        <time>2021-08-15T08:10:11Z</time>
      </trkpt>
      <trkpt lat="45.468" lon="2.89773">
        <ele>1197.46</ele>
        <time>2021-08-15T08:10:12Z</time>
      </trkpt>
      <trkpt lat="45.46782" lon="2.8978">
        <ele>1195.06</ele>
        <time>2021-08-15T08:10:15Z</time>
      </trkpt>
      <trkpt lat="45.46775" lon="2.89782">
        <ele>1195.06</ele>
        <time>2021-08-15T08:10:16Z</time>
      </trkpt>
      <trkpt lat="45.46759" lon="2.8979">
        <ele>1194.58</ele>
        <time>2021-08-15T08:10:20Z</time>
      </trkpt>
      <trkpt lat="45.46755" lon="2.89789">
        <ele>1194.58</ele>
        <time>2021-08-15T08:10:24Z</time>
      </trkpt>
      <trkpt lat="45.4675" lon="2.89789">
        <ele>1193.61</ele>
        <time>2021-08-15T08:10:27Z</time>
      </trkpt>
      <trkpt lat="45.46748" lon="2.8979">
        <ele>1193.61</ele>
        <time>2021-08-15T08:10:28Z</time>
      </trkpt>
      <trkpt lat="45.46745" lon="2.89792">
        <ele>1193.61</ele>
        <time>2021-08-15T08:10:29Z</time>
      </trkpt>
      <trkpt lat="45.46742" lon="2.89794">
        <ele>1192.65</ele>
        <time>2021-08-15T08:10:30Z</time>
      </trkpt>
      <trkpt lat="45.46738" lon="2.89796">
        <ele>1192.17</ele>
        <time>2021-08-15T08:10:31Z</time>
      </trkpt>
      <trkpt lat="45.46735" lon="2.89798">
        <ele>1192.17</ele>
        <time>2021-08-15T08:10:32Z</time>
      </trkpt>
      <trkpt lat="45.46731" lon="2.89801">
        <ele>1190.73</ele>
        <time>2021-08-15T08:10:33Z</time>
      </trkpt>
      <trkpt lat="45.46728" lon="2.89803">
        <ele>1190.73</ele>
        <time>2021-08-15T08:10:34Z</time>
      </trkpt>
      <trkpt lat="45.46699" lon="2.8983">
        <ele>1188.33</ele>
        <time>2021-08-15T08:10:42Z</time>
      </trkpt>
      <trkpt lat="45.46696" lon="2.89834">
        <ele>1188.33</ele>
        <time>2021-08-15T08:10:43Z</time>
      </trkpt>
      <trkpt lat="45.46693" lon="2.89838">
        <ele>1187.85</ele>
        <time>2021-08-15T08:10:44Z</time>
      </trkpt>
      <trkpt lat="45.46689" lon="2.89841">
        <ele>1187.37</ele>
        <time>2021-08-15T08:10:45Z</time>
      </trkpt>
      <trkpt lat="45.46686" lon="2.89843">
        <ele>1187.85</ele>
        <time>2021-08-15T08:10:46Z</time>
      </trkpt>
      <trkpt lat="45.46683" lon="2.89845">
        <ele>1187.37</ele>
        <time>2021-08-15T08:10:47Z</time>
      </trkpt>
      <trkpt lat="45.4668" lon="2.89846">
        <ele>1186.4</ele>
        <time>2021-08-15T08:10:48Z</time>
      </trkpt>
      <trkpt lat="45.46678" lon="2.89848">
        <ele>1186.4</ele>
        <time>2021-08-15T08:10:49Z</time>
      </trkpt>
      <trkpt lat="45.46678" lon="2.8985">
        <ele>1186.88</ele>
        <time>2021-08-15T08:10:54Z</time>
      </trkpt>
      <trkpt lat="45.46676" lon="2.89851">
        <ele>1185.92</ele>
        <time>2021-08-15T08:11:00Z</time>
      </trkpt>
      <trkpt lat="45.46668" lon="2.8986">
        <ele>1185.92</ele>
        <time>2021-08-15T08:11:07Z</time>
      </trkpt>
      <trkpt lat="45.46655" lon="2.89874">
        <ele>1185.92</ele>
        <time>2021-08-15T08:11:14Z</time>
      </trkpt>
      <trkpt lat="45.46644" lon="2.89879">
        <ele>1185.92</ele>
        <time>2021-08-15T08:11:19Z</time>
      </trkpt>
      <trkpt lat="45.46642" lon="2.89879">
        <ele>1185.92</ele>
        <time>2021-08-15T08:11:20Z</time>
      </trkpt>
      <trkpt lat="45.4664" lon="2.89878">
        <ele>1185.92</ele>
        <time>2021-08-15T08:11:21Z</time>
      </trkpt>
      <trkpt lat="45.4663" lon="2.89874">
        <ele>1184.96</ele>
        <time>2021-08-15T08:11:24Z</time>
      </trkpt>
      <trkpt lat="45.46602" lon="2.89867">
        <ele>1184.48</ele>
        <time>2021-08-15T08:11:30Z</time>
      </trkpt>
      <trkpt lat="45.46597" lon="2.89867">
        <ele>1184.48</ele>
        <time>2021-08-15T08:11:31Z</time>
      </trkpt>
      <trkpt lat="45.46578" lon="2.8987">
        <ele>1185.44</ele>
        <time>2021-08-15T08:11:36Z</time>
      </trkpt>
      <trkpt lat="45.46552" lon="2.89876">
        <ele>1185.44</ele>
        <time>2021-08-15T08:11:43Z</time>
      </trkpt>
      <trkpt lat="45.46548" lon="2.89878">
        <ele>1185.44</ele>
        <time>2021-08-15T08:11:44Z</time>
      </trkpt>
      <trkpt lat="45.46544" lon="2.89879">
        <ele>1185.44</ele>
        <time>2021-08-15T08:11:45Z</time>
      </trkpt>
      <trkpt lat="45.46511" lon="2.8989">
        <ele>1186.4</ele>
        <time>2021-08-15T08:11:53Z</time>
      </trkpt>
      <trkpt lat="45.46495" lon="2.899">
        <ele>1187.85</ele>
        <time>2021-08-15T08:11:59Z</time>
      </trkpt>
      <trkpt lat="45.46478" lon="2.89913">
        <ele>1189.29</ele>
        <time>2021-08-15T08:12:08Z</time>
      </trkpt>
      <trkpt lat="45.46459" lon="2.89927">
        <ele>1190.25</ele>
        <time>2021-08-15T08:12:18Z</time>
      </trkpt>
      <trkpt lat="45.4644" lon="2.89941">
        <ele>1190.25</ele>
        <time>2021-08-15T08:12:26Z</time>
      </trkpt>
      <trkpt lat="45.46414" lon="2.89963">
        <ele>1189.29</ele>
        <time>2021-08-15T08:12:35Z</time>
      </trkpt>
      <trkpt lat="45.4639" lon="2.89991">
        <ele>1188.81</ele>
        <time>2021-08-15T08:12:44Z</time>
      </trkpt>
      <trkpt lat="45.46377" lon="2.90019">
        <ele>1190.25</ele>
        <time>2021-08-15T08:12:53Z</time>
      </trkpt>
      <trkpt lat="45.46375" lon="2.90022">
        <ele>1190.25</ele>
        <time>2021-08-15T08:12:54Z</time>
      </trkpt>
      <trkpt lat="45.46357" lon="2.90058">
        <ele>1191.21</ele>
        <time>2021-08-15T08:13:05Z</time>
      </trkpt>
      <trkpt lat="45.46344" lon="2.90095">
        <ele>1191.69</ele>
        <time>2021-08-15T08:13:14Z</time>
      </trkpt>
      <trkpt lat="45.46335" lon="2.90129">
        <ele>1192.17</ele>
        <time>2021-08-15T08:13:21Z</time>
      </trkpt>
      <trkpt lat="45.46332" lon="2.9014">
        <ele>1192.17</ele>
        <time>2021-08-15T08:13:23Z</time>
      </trkpt>
      <trkpt lat="45.4633" lon="2.90147">
        <ele>1192.17</ele>
        <time>2021-08-15T08:13:24Z</time>
      </trkpt>
      <trkpt lat="45.46328" lon="2.90152">
        <ele>1192.17</ele>
        <time>2021-08-15T08:13:25Z</time>
      </trkpt>
      <trkpt lat="45.46326" lon="2.90158">
        <ele>1192.17</ele>
        <time>2021-08-15T08:13:26Z</time>
      </trkpt>
      <trkpt lat="45.46325" lon="2.90164">
        <ele>1192.17</ele>
        <time>2021-08-15T08:13:27Z</time>
      </trkpt>
      <trkpt lat="45.46323" lon="2.9017">
        <ele>1192.17</ele>
        <time>2021-08-15T08:13:28Z</time>
      </trkpt>
      <trkpt lat="45.46321" lon="2.90176">
        <ele>1192.17</ele>
        <time>2021-08-15T08:13:29Z</time>
      </trkpt>
      <trkpt lat="45.46319" lon="2.90183">
        <ele>1192.17</ele>
        <time>2021-08-15T08:13:30Z</time>
      </trkpt>
      <trkpt lat="45.46315" lon="2.90196">
        <ele>1192.17</ele>
        <time>2021-08-15T08:13:32Z</time>
      </trkpt>
      <trkpt lat="45.46312" lon="2.90202">
        <ele>1192.17</ele>
        <time>2021-08-15T08:13:33Z</time>
      </trkpt>
      <trkpt lat="45.46293" lon="2.90246">
        <ele>1190.25</ele>
        <time>2021-08-15T08:13:40Z</time>
      </trkpt>
      <trkpt lat="45.4629" lon="2.90252">
        <ele>1190.25</ele>
        <time>2021-08-15T08:13:41Z</time>
      </trkpt>
      <trkpt lat="45.46286" lon="2.90257">
        <ele>1190.25</ele>
        <time>2021-08-15T08:13:42Z</time>
      </trkpt>
      <trkpt lat="45.46283" lon="2.90263">
        <ele>1189.77</ele>
        <time>2021-08-15T08:13:43Z</time>
      </trkpt>
      <trkpt lat="45.46279" lon="2.90268">
        <ele>1189.77</ele>
        <time>2021-08-15T08:13:44Z</time>
      </trkpt>
      <trkpt lat="45.46272" lon="2.9028">
        <ele>1189.77</ele>
        <time>2021-08-15T08:13:46Z</time>
      </trkpt>
      <trkpt lat="45.46261" lon="2.90294">
        <ele>1189.77</ele>
        <time>2021-08-15T08:13:49Z</time>
      </trkpt>
      <trkpt lat="45.46257" lon="2.90297">
        <ele>1189.77</ele>
        <time>2021-08-15T08:13:50Z</time>
      </trkpt>
      <trkpt lat="45.46252" lon="2.903">
        <ele>1189.77</ele>
        <time>2021-08-15T08:13:51Z</time>
      </trkpt>
      <trkpt lat="45.46247" lon="2.90302">
        <ele>1189.77</ele>
        <time>2021-08-15T08:13:52Z</time>
      </trkpt>
      <trkpt lat="45.46243" lon="2.90304">
        <ele>1189.77</ele>
        <time>2021-08-15T08:13:53Z</time>
      </trkpt>
      <trkpt lat="45.46207" lon="2.90313">
        <ele>1188.81</ele>
        <time>2021-08-15T08:14:00Z</time>
      </trkpt>
      <trkpt lat="45.46202" lon="2.90312">
        <ele>1187.85</ele>
        <time>2021-08-15T08:14:01Z</time>
      </trkpt>
      <trkpt lat="45.46197" lon="2.90311">
        <ele>1187.85</ele>
        <time>2021-08-15T08:14:02Z</time>
      </trkpt>
      <trkpt lat="45.46192" lon="2.90309">
        <ele>1186.88</ele>
        <time>2021-08-15T08:14:03Z</time>
      </trkpt>
      <trkpt lat="45.46172" lon="2.90297">
        <ele>1185.92</ele>
        <time>2021-08-15T08:14:08Z</time>
      </trkpt>
      <trkpt lat="45.46169" lon="2.90295">
        <ele>1185.92</ele>
        <time>2021-08-15T08:14:09Z</time>
      </trkpt>
      <trkpt lat="45.4615" lon="2.90283">
        <ele>1184.96</ele>
        <time>2021-08-15T08:14:16Z</time>
      </trkpt>
      <trkpt lat="45.46145" lon="2.90284">
        <ele>1187.37</ele>
        <time>2021-08-15T08:14:18Z</time>
      </trkpt>
      <trkpt lat="45.46144" lon="2.90286">
        <ele>1187.85</ele>
        <time>2021-08-15T08:14:19Z</time>
      </trkpt>
      <trkpt lat="45.46138" lon="2.90305">
        <ele>1188.33</ele>
        <time>2021-08-15T08:14:26Z</time>
      </trkpt>
      <trkpt lat="45.46139" lon="2.90328">
        <ele>1190.25</ele>
        <time>2021-08-15T08:14:34Z</time>
      </trkpt>
      <trkpt lat="45.46143" lon="2.90349">
        <ele>1191.21</ele>
        <time>2021-08-15T08:14:41Z</time>
      </trkpt>
      <trkpt lat="45.46144" lon="2.90351">
        <ele>1191.21</ele>
        <time>2021-08-15T08:14:42Z</time>
      </trkpt>
      <trkpt lat="45.46144" lon="2.90353">
        <ele>1191.21</ele>
        <time>2021-08-15T08:14:43Z</time>
      </trkpt>
      <trkpt lat="45.46145" lon="2.90356">
        <ele>1191.69</ele>
        <time>2021-08-15T08:14:44Z</time>
      </trkpt>
      <trkpt lat="45.46146" lon="2.90358">
        <ele>1191.69</ele>
        <time>2021-08-15T08:14:45Z</time>
      </trkpt>
      <trkpt lat="45.46149" lon="2.90374">
        <ele>1192.65</ele>
        <time>2021-08-15T08:14:51Z</time>
      </trkpt>
      <trkpt lat="45.4615" lon="2.90401">
        <ele>1192.65</ele>
        <time>2021-08-15T08:14:58Z</time>
      </trkpt>
      <trkpt lat="45.4615" lon="2.90412">
        <ele>1191.21</ele>
        <time>2021-08-15T08:15:00Z</time>
      </trkpt>
      <trkpt lat="45.46152" lon="2.90444">
        <ele>1188.81</ele>
        <time>2021-08-15T08:15:06Z</time>
      </trkpt>
      <trkpt lat="45.46154" lon="2.90488">
        <ele>1185.44</ele>
        <time>2021-08-15T08:15:14Z</time>
      </trkpt>
      <trkpt lat="45.46154" lon="2.90494">
        <ele>1185.44</ele>
        <time>2021-08-15T08:15:15Z</time>
      </trkpt>
      <trkpt lat="45.46154" lon="2.905">
        <ele>1184</ele>
        <time>2021-08-15T08:15:16Z</time>
      </trkpt>
      <trkpt lat="45.46155" lon="2.90507">
        <ele>1183.04</ele>
        <time>2021-08-15T08:15:17Z</time>
      </trkpt>
      <trkpt lat="45.46156" lon="2.90513">
        <ele>1182.08</ele>
        <time>2021-08-15T08:15:18Z</time>
      </trkpt>
      <trkpt lat="45.46157" lon="2.9052">
        <ele>1181.6</ele>
        <time>2021-08-15T08:15:19Z</time>
      </trkpt>
      <trkpt lat="45.46157" lon="2.90527">
        <ele>1180.64</ele>
        <time>2021-08-15T08:15:20Z</time>
      </trkpt>
      <trkpt lat="45.46158" lon="2.90538">
        <ele>1179.19</ele>
        <time>2021-08-15T08:15:21Z</time>
      </trkpt>
      <trkpt lat="45.46157" lon="2.90573">
        <ele>1175.83</ele>
        <time>2021-08-15T08:15:25Z</time>
      </trkpt>
      <trkpt lat="45.46155" lon="2.90599">
        <ele>1171.98</ele>
        <time>2021-08-15T08:15:28Z</time>
      </trkpt>
      <trkpt lat="45.46153" lon="2.9064">
        <ele>1169.1</ele>
        <time>2021-08-15T08:15:32Z</time>
      </trkpt>
      <trkpt lat="45.46149" lon="2.90693">
        <ele>1165.26</ele>
        <time>2021-08-15T08:15:37Z</time>
      </trkpt>
      <trkpt lat="45.46149" lon="2.90702">
        <ele>1165.26</ele>
        <time>2021-08-15T08:15:38Z</time>
      </trkpt>
      <trkpt lat="45.46151" lon="2.90712">
        <ele>1164.29</ele>
        <time>2021-08-15T08:15:39Z</time>
      </trkpt>
      <trkpt lat="45.46154" lon="2.90721">
        <ele>1163.81</ele>
        <time>2021-08-15T08:15:40Z</time>
      </trkpt>
      <trkpt lat="45.46158" lon="2.90731">
        <ele>1163.81</ele>
        <time>2021-08-15T08:15:41Z</time>
      </trkpt>
      <trkpt lat="45.46163" lon="2.90738">
        <ele>1163.81</ele>
        <time>2021-08-15T08:15:42Z</time>
      </trkpt>
      <trkpt lat="45.46169" lon="2.90744">
        <ele>1163.81</ele>
        <time>2021-08-15T08:15:43Z</time>
      </trkpt>
      <trkpt lat="45.46175" lon="2.90747">
        <ele>1162.85</ele>
        <time>2021-08-15T08:15:44Z</time>
      </trkpt>
      <trkpt lat="45.4618" lon="2.90749">
        <ele>1161.41</ele>
        <time>2021-08-15T08:15:45Z</time>
      </trkpt>
      <trkpt lat="45.46186" lon="2.9075">
        <ele>1160.45</ele>
        <time>2021-08-15T08:15:46Z</time>
      </trkpt>
      <trkpt lat="45.46196" lon="2.90753">
        <ele>1160.45</ele>
        <time>2021-08-15T08:15:48Z</time>
      </trkpt>
      <trkpt lat="45.46198" lon="2.90755">
        <ele>1161.89</ele>
        <time>2021-08-15T08:15:49Z</time>
      </trkpt>
      <trkpt lat="45.46199" lon="2.90755">
        <ele>1161.89</ele>
        <time>2021-08-15T08:15:50Z</time>
      </trkpt>
      <trkpt lat="45.462" lon="2.90754">
        <ele>1160.93</ele>
        <time>2021-08-15T08:15:51Z</time>
      </trkpt>
      <trkpt lat="45.46195" lon="2.90751">
        <ele>1161.89</ele>
        <time>2021-08-15T08:15:55Z</time>
      </trkpt>
      <trkpt lat="45.46193" lon="2.90752">
        <ele>1161.89</ele>
        <time>2021-08-15T08:15:56Z</time>
      </trkpt>
      <trkpt lat="45.4619" lon="2.90751">
        <ele>1161.89</ele>
        <time>2021-08-15T08:15:57Z</time>
      </trkpt>
      <trkpt lat="45.46188" lon="2.90751">
        <ele>1161.89</ele>
        <time>2021-08-15T08:15:58Z</time>
      </trkpt>
      <trkpt lat="45.46166" lon="2.90753">
        <ele>1163.33</ele>
        <time>2021-08-15T08:16:08Z</time>
      </trkpt>
      <trkpt lat="45.46151" lon="2.90762">
        <ele>1164.77</ele>
        <time>2021-08-15T08:16:16Z</time>
      </trkpt>
      <trkpt lat="45.46149" lon="2.90766">
        <ele>1165.26</ele>
        <time>2021-08-15T08:16:18Z</time>
      </trkpt>
      <trkpt lat="45.46143" lon="2.90778">
        <ele>1166.7</ele>
        <time>2021-08-15T08:16:25Z</time>
      </trkpt>
      <trkpt lat="45.46134" lon="2.90793">
        <ele>1168.14</ele>
        <time>2021-08-15T08:16:34Z</time>
      </trkpt>
      <trkpt lat="45.4613" lon="2.908">
        <ele>1167.66</ele>
        <time>2021-08-15T08:16:40Z</time>
      </trkpt>
      <trkpt lat="45.46129" lon="2.90801">
        <ele>1167.66</ele>
        <time>2021-08-15T08:16:41Z</time>
      </trkpt>
      <trkpt lat="45.4612" lon="2.90816">
        <ele>1169.58</ele>
        <time>2021-08-15T08:16:53Z</time>
      </trkpt>
      <trkpt lat="45.46115" lon="2.90824">
        <ele>1170.54</ele>
        <time>2021-08-15T08:17:01Z</time>
      </trkpt>
      <trkpt lat="45.4611" lon="2.90832">
        <ele>1171.02</ele>
        <time>2021-08-15T08:17:09Z</time>
      </trkpt>
      <trkpt lat="45.46105" lon="2.9084">
        <ele>1171.5</ele>
        <time>2021-08-15T08:17:17Z</time>
      </trkpt>
      <trkpt lat="45.461" lon="2.90851">
        <ele>1173.43</ele>
        <time>2021-08-15T08:17:28Z</time>
      </trkpt>
      <trkpt lat="45.46094" lon="2.9086">
        <ele>1174.39</ele>
        <time>2021-08-15T08:17:37Z</time>
      </trkpt>
      <trkpt lat="45.4609" lon="2.90867">
        <ele>1174.87</ele>
        <time>2021-08-15T08:17:45Z</time>
      </trkpt>
      <trkpt lat="45.46084" lon="2.90878">
        <ele>1175.83</ele>
        <time>2021-08-15T08:17:55Z</time>
      </trkpt>
      <trkpt lat="45.46081" lon="2.90883">
        <ele>1176.31</ele>
        <time>2021-08-15T08:18:01Z</time>
      </trkpt>
      <trkpt lat="45.46078" lon="2.90889">
        <ele>1177.27</ele>
        <time>2021-08-15T08:18:06Z</time>
      </trkpt>
      <trkpt lat="45.46072" lon="2.90899">
        <ele>1178.23</ele>
        <time>2021-08-15T08:18:16Z</time>
      </trkpt>
      <trkpt lat="45.46067" lon="2.90909">
        <ele>1179.19</ele>
        <time>2021-08-15T08:18:25Z</time>
      </trkpt>
      <trkpt lat="45.46062" lon="2.90919">
        <ele>1180.16</ele>
        <time>2021-08-15T08:18:34Z</time>
      </trkpt>
      <trkpt lat="45.46056" lon="2.90929">
        <ele>1181.12</ele>
        <time>2021-08-15T08:18:43Z</time>
      </trkpt>
      <trkpt lat="45.46048" lon="2.90939">
        <ele>1182.08</ele>
        <time>2021-08-15T08:18:53Z</time>
      </trkpt>
      <trkpt lat="45.46038" lon="2.90947">
        <ele>1182.56</ele>
        <time>2021-08-15T08:19:03Z</time>
      </trkpt>
      <trkpt lat="45.46028" lon="2.90954">
        <ele>1183.52</ele>
        <time>2021-08-15T08:19:13Z</time>
      </trkpt>
      <trkpt lat="45.46021" lon="2.90958">
        <ele>1184</ele>
        <time>2021-08-15T08:19:20Z</time>
      </trkpt>
      <trkpt lat="45.4602" lon="2.90959">
        <ele>1184</ele>
        <time>2021-08-15T08:19:21Z</time>
      </trkpt>
      <trkpt lat="45.46019" lon="2.90959">
        <ele>1184</ele>
        <time>2021-08-15T08:19:22Z</time>
      </trkpt>
      <trkpt lat="45.46016" lon="2.90961">
        <ele>1184.48</ele>
        <time>2021-08-15T08:19:25Z</time>
      </trkpt>
      <trkpt lat="45.46015" lon="2.90962">
        <ele>1184.48</ele>
        <time>2021-08-15T08:19:26Z</time>
      </trkpt>
      <trkpt lat="45.46014" lon="2.90962">
        <ele>1184.48</ele>
        <time>2021-08-15T08:19:27Z</time>
      </trkpt>
      <trkpt lat="45.46013" lon="2.90963">
        <ele>1184.96</ele>
        <time>2021-08-15T08:19:28Z</time>
      </trkpt>
      <trkpt lat="45.46012" lon="2.90964">
        <ele>1184.96</ele>
        <time>2021-08-15T08:19:29Z</time>
      </trkpt>
      <trkpt lat="45.46007" lon="2.90967">
        <ele>1185.44</ele>
        <time>2021-08-15T08:19:36Z</time>
      </trkpt>
      <trkpt lat="45.46001" lon="2.90971">
        <ele>1185.92</ele>
        <time>2021-08-15T08:19:42Z</time>
      </trkpt>
      <trkpt lat="45.45996" lon="2.90974">
        <ele>1186.4</ele>
        <time>2021-08-15T08:19:46Z</time>
      </trkpt>
      <trkpt lat="45.45995" lon="2.90975">
        <ele>1186.4</ele>
        <time>2021-08-15T08:19:47Z</time>
      </trkpt>
      <trkpt lat="45.45993" lon="2.90976">
        <ele>1186.4</ele>
        <time>2021-08-15T08:19:48Z</time>
      </trkpt>
      <trkpt lat="45.45992" lon="2.90977">
        <ele>1186.4</ele>
        <time>2021-08-15T08:19:49Z</time>
      </trkpt>
      <trkpt lat="45.45991" lon="2.90979">
        <ele>1186.88</ele>
        <time>2021-08-15T08:19:50Z</time>
      </trkpt>
      <trkpt lat="45.4599" lon="2.9098">
        <ele>1186.88</ele>
        <time>2021-08-15T08:19:51Z</time>
      </trkpt>
      <trkpt lat="45.45981" lon="2.90988">
        <ele>1187.37</ele>
        <time>2021-08-15T08:19:58Z</time>
      </trkpt>
      <trkpt lat="45.45979" lon="2.90989">
        <ele>1186.88</ele>
        <time>2021-08-15T08:19:59Z</time>
      </trkpt>
      <trkpt lat="45.45978" lon="2.9099">
        <ele>1186.88</ele>
        <time>2021-08-15T08:20:00Z</time>
      </trkpt>
      <trkpt lat="45.45959" lon="2.90999">
        <ele>1187.85</ele>
        <time>2021-08-15T08:20:11Z</time>
      </trkpt>
      <trkpt lat="45.45944" lon="2.91003">
        <ele>1188.33</ele>
        <time>2021-08-15T08:20:20Z</time>
      </trkpt>
      <trkpt lat="45.45929" lon="2.91005">
        <ele>1189.29</ele>
        <time>2021-08-15T08:20:29Z</time>
      </trkpt>
      <trkpt lat="45.45913" lon="2.91007">
        <ele>1190.25</ele>
        <time>2021-08-15T08:20:39Z</time>
      </trkpt>
      <trkpt lat="45.45902" lon="2.91009">
        <ele>1190.73</ele>
        <time>2021-08-15T08:20:46Z</time>
      </trkpt>
      <trkpt lat="45.459" lon="2.91009">
        <ele>1190.73</ele>
        <time>2021-08-15T08:20:47Z</time>
      </trkpt>
      <trkpt lat="45.45884" lon="2.9101">
        <ele>1192.17</ele>
        <time>2021-08-15T08:20:57Z</time>
      </trkpt>
      <trkpt lat="45.4587" lon="2.91011">
        <ele>1193.13</ele>
        <time>2021-08-15T08:21:06Z</time>
      </trkpt>
      <trkpt lat="45.45868" lon="2.91011">
        <ele>1193.61</ele>
        <time>2021-08-15T08:21:07Z</time>
      </trkpt>
      <trkpt lat="45.45866" lon="2.91011">
        <ele>1193.61</ele>
        <time>2021-08-15T08:21:08Z</time>
      </trkpt>
      <trkpt lat="45.45865" lon="2.91011">
        <ele>1193.61</ele>
        <time>2021-08-15T08:21:09Z</time>
      </trkpt>
      <trkpt lat="45.45863" lon="2.91011">
        <ele>1194.09</ele>
        <time>2021-08-15T08:21:10Z</time>
      </trkpt>
      <trkpt lat="45.45862" lon="2.91011">
        <ele>1194.09</ele>
        <time>2021-08-15T08:21:11Z</time>
      </trkpt>
      <trkpt lat="45.4586" lon="2.91012">
        <ele>1194.58</ele>
        <time>2021-08-15T08:21:12Z</time>
      </trkpt>
      <trkpt lat="45.45848" lon="2.91015">
        <ele>1195.54</ele>
        <time>2021-08-15T08:21:21Z</time>
      </trkpt>
      <trkpt lat="45.45847" lon="2.91017">
        <ele>1195.54</ele>
        <time>2021-08-15T08:21:22Z</time>
      </trkpt>
      <trkpt lat="45.45847" lon="2.91018">
        <ele>1195.54</ele>
        <time>2021-08-15T08:21:23Z</time>
      </trkpt>
      <trkpt lat="45.45847" lon="2.9102">
        <ele>1195.54</ele>
        <time>2021-08-15T08:21:24Z</time>
      </trkpt>
      <trkpt lat="45.45847" lon="2.91022">
        <ele>1195.54</ele>
        <time>2021-08-15T08:21:25Z</time>
      </trkpt>
      <trkpt lat="45.45845" lon="2.91024">
        <ele>1195.54</ele>
        <time>2021-08-15T08:21:26Z</time>
      </trkpt>
      <trkpt lat="45.45843" lon="2.91027">
        <ele>1194.09</ele>
        <time>2021-08-15T08:21:27Z</time>
      </trkpt>
      <trkpt lat="45.45841" lon="2.9103">
        <ele>1194.09</ele>
        <time>2021-08-15T08:21:28Z</time>
      </trkpt>
      <trkpt lat="45.45836" lon="2.91036">
        <ele>1192.65</ele>
        <time>2021-08-15T08:21:30Z</time>
      </trkpt>
      <trkpt lat="45.45832" lon="2.9104">
        <ele>1192.17</ele>
        <time>2021-08-15T08:21:31Z</time>
      </trkpt>
      <trkpt lat="45.45827" lon="2.91042">
        <ele>1191.21</ele>
        <time>2021-08-15T08:21:32Z</time>
      </trkpt>
      <trkpt lat="45.4582" lon="2.91045">
        <ele>1190.73</ele>
        <time>2021-08-15T08:21:33Z</time>
      </trkpt>
      <trkpt lat="45.45816" lon="2.91047">
        <ele>1189.77</ele>
        <time>2021-08-15T08:21:34Z</time>
      </trkpt>
      <trkpt lat="45.4581" lon="2.91048">
        <ele>1188.81</ele>
        <time>2021-08-15T08:21:35Z</time>
      </trkpt>
      <trkpt lat="45.45803" lon="2.91049">
        <ele>1188.81</ele>
        <time>2021-08-15T08:21:36Z</time>
      </trkpt>
      <trkpt lat="45.45797" lon="2.91049">
        <ele>1188.81</ele>
        <time>2021-08-15T08:21:37Z</time>
      </trkpt>
      <trkpt lat="45.4579" lon="2.91049">
        <ele>1189.29</ele>
        <time>2021-08-15T08:21:38Z</time>
      </trkpt>
      <trkpt lat="45.45785" lon="2.91049">
        <ele>1188.81</ele>
        <time>2021-08-15T08:21:39Z</time>
      </trkpt>
      <trkpt lat="45.45779" lon="2.91049">
        <ele>1189.29</ele>
        <time>2021-08-15T08:21:40Z</time>
      </trkpt>
      <trkpt lat="45.45774" lon="2.91051">
        <ele>1188.33</ele>
        <time>2021-08-15T08:21:41Z</time>
      </trkpt>
      <trkpt lat="45.4577" lon="2.91053">
        <ele>1187.37</ele>
        <time>2021-08-15T08:21:42Z</time>
      </trkpt>
      <trkpt lat="45.45762" lon="2.91059">
        <ele>1184</ele>
        <time>2021-08-15T08:21:45Z</time>
      </trkpt>
      <trkpt lat="45.45755" lon="2.91066">
        <ele>1181.12</ele>
        <time>2021-08-15T08:21:49Z</time>
      </trkpt>
      <trkpt lat="45.45753" lon="2.91068">
        <ele>1179.67</ele>
        <time>2021-08-15T08:21:50Z</time>
      </trkpt>
      <trkpt lat="45.45746" lon="2.91076">
        <ele>1176.31</ele>
        <time>2021-08-15T08:21:54Z</time>
      </trkpt>
      <trkpt lat="45.45735" lon="2.9109">
        <ele>1172.95</ele>
        <time>2021-08-15T08:21:58Z</time>
      </trkpt>
      <trkpt lat="45.45719" lon="2.91109">
        <ele>1173.43</ele>
        <time>2021-08-15T08:22:03Z</time>
      </trkpt>
      <trkpt lat="45.4571" lon="2.91122">
        <ele>1175.35</ele>
        <time>2021-08-15T08:22:10Z</time>
      </trkpt>
      <trkpt lat="45.45698" lon="2.91141">
        <ele>1172.95</ele>
        <time>2021-08-15T08:22:16Z</time>
      </trkpt>
      <trkpt lat="45.4569" lon="2.91153">
        <ele>1174.39</ele>
        <time>2021-08-15T08:22:21Z</time>
      </trkpt>
      <trkpt lat="45.45681" lon="2.91167">
        <ele>1176.31</ele>
        <time>2021-08-15T08:22:29Z</time>
      </trkpt>
      <trkpt lat="45.45678" lon="2.91173">
        <ele>1176.79</ele>
        <time>2021-08-15T08:22:32Z</time>
      </trkpt>
      <trkpt lat="45.45669" lon="2.91187">
        <ele>1177.27</ele>
        <time>2021-08-15T08:22:39Z</time>
      </trkpt>
      <trkpt lat="45.45664" lon="2.91193">
        <ele>1175.35</ele>
        <time>2021-08-15T08:22:42Z</time>
      </trkpt>
      <trkpt lat="45.45661" lon="2.91196">
        <ele>1174.39</ele>
        <time>2021-08-15T08:22:43Z</time>
      </trkpt>
      <trkpt lat="45.45659" lon="2.912">
        <ele>1173.91</ele>
        <time>2021-08-15T08:22:44Z</time>
      </trkpt>
      <trkpt lat="45.45656" lon="2.91205">
        <ele>1173.43</ele>
        <time>2021-08-15T08:22:45Z</time>
      </trkpt>
      <trkpt lat="45.45654" lon="2.91211">
        <ele>1172.95</ele>
        <time>2021-08-15T08:22:46Z</time>
      </trkpt>
      <trkpt lat="45.45651" lon="2.91217">
        <ele>1172.95</ele>
        <time>2021-08-15T08:22:47Z</time>
      </trkpt>
      <trkpt lat="45.45645" lon="2.91228">
        <ele>1172.95</ele>
        <time>2021-08-15T08:22:49Z</time>
      </trkpt>
      <trkpt lat="45.45628" lon="2.91251">
        <ele>1173.91</ele>
        <time>2021-08-15T08:22:55Z</time>
      </trkpt>
      <trkpt lat="45.45626" lon="2.91254">
        <ele>1173.91</ele>
        <time>2021-08-15T08:22:56Z</time>
      </trkpt>
      <trkpt lat="45.45616" lon="2.91268">
        <ele>1175.83</ele>
        <time>2021-08-15T08:23:05Z</time>
      </trkpt>
      <trkpt lat="45.45616" lon="2.9127">
        <ele>1175.83</ele>
        <time>2021-08-15T08:23:06Z</time>
      </trkpt>
      <trkpt lat="45.45613" lon="2.9128">
        <ele>1177.27</ele>
        <time>2021-08-15T08:23:11Z</time>
      </trkpt>
      <trkpt lat="45.45612" lon="2.91282">
        <ele>1177.75</ele>
        <time>2021-08-15T08:23:12Z</time>
      </trkpt>
      <trkpt lat="45.45611" lon="2.91283">
        <ele>1177.75</ele>
        <time>2021-08-15T08:23:13Z</time>
      </trkpt>
      <trkpt lat="45.45609" lon="2.91285">
        <ele>1177.75</ele>
        <time>2021-08-15T08:23:14Z</time>
      </trkpt>
      <trkpt lat="45.45607" lon="2.91287">
        <ele>1177.75</ele>
        <time>2021-08-15T08:23:15Z</time>
      </trkpt>
      <trkpt lat="45.456" lon="2.91301">
        <ele>1178.23</ele>
        <time>2021-08-15T08:23:22Z</time>
      </trkpt>
      <trkpt lat="45.45594" lon="2.91317">
        <ele>1179.19</ele>
        <time>2021-08-15T08:23:29Z</time>
      </trkpt>
      <trkpt lat="45.45581" lon="2.91338">
        <ele>1179.19</ele>
        <time>2021-08-15T08:23:36Z</time>
      </trkpt>
      <trkpt lat="45.45569" lon="2.91358">
        <ele>1176.79</ele>
        <time>2021-08-15T08:23:42Z</time>
      </trkpt>
      <trkpt lat="45.45563" lon="2.91371">
        <ele>1174.39</ele>
        <time>2021-08-15T08:23:45Z</time>
      </trkpt>
      <trkpt lat="45.45561" lon="2.91377">
        <ele>1173.43</ele>
        <time>2021-08-15T08:23:46Z</time>
      </trkpt>
      <trkpt lat="45.45559" lon="2.91384">
        <ele>1173.43</ele>
        <time>2021-08-15T08:23:47Z</time>
      </trkpt>
      <trkpt lat="45.45556" lon="2.9139">
        <ele>1173.43</ele>
        <time>2021-08-15T08:23:48Z</time>
      </trkpt>
      <trkpt lat="45.45555" lon="2.91396">
        <ele>1173.43</ele>
        <time>2021-08-15T08:23:49Z</time>
      </trkpt>
      <trkpt lat="45.45551" lon="2.91406">
        <ele>1175.83</ele>
        <time>2021-08-15T08:23:52Z</time>
      </trkpt>
      <trkpt lat="45.45547" lon="2.91413">
        <ele>1177.75</ele>
        <time>2021-08-15T08:23:57Z</time>
      </trkpt>
      <trkpt lat="45.45546" lon="2.91416">
        <ele>1178.23</ele>
        <time>2021-08-15T08:23:58Z</time>
      </trkpt>
      <trkpt lat="45.45545" lon="2.91418">
        <ele>1178.23</ele>
        <time>2021-08-15T08:23:59Z</time>
      </trkpt>
      <trkpt lat="45.45544" lon="2.9142">
        <ele>1178.23</ele>
        <time>2021-08-15T08:24:00Z</time>
      </trkpt>
      <trkpt lat="45.45542" lon="2.91423">
        <ele>1178.23</ele>
        <time>2021-08-15T08:24:01Z</time>
      </trkpt>
      <trkpt lat="45.45541" lon="2.91425">
        <ele>1178.23</ele>
        <time>2021-08-15T08:24:02Z</time>
      </trkpt>
      <trkpt lat="45.4554" lon="2.91428">
        <ele>1178.23</ele>
        <time>2021-08-15T08:24:03Z</time>
      </trkpt>
      <trkpt lat="45.45539" lon="2.91431">
        <ele>1176.31</ele>
        <time>2021-08-15T08:24:04Z</time>
      </trkpt>
      <trkpt lat="45.45538" lon="2.91435">
        <ele>1175.35</ele>
        <time>2021-08-15T08:24:05Z</time>
      </trkpt>
      <trkpt lat="45.45536" lon="2.91439">
        <ele>1174.39</ele>
        <time>2021-08-15T08:24:06Z</time>
      </trkpt>
      <trkpt lat="45.45534" lon="2.91443">
        <ele>1173.91</ele>
        <time>2021-08-15T08:24:07Z</time>
      </trkpt>
      <trkpt lat="45.45531" lon="2.91446">
        <ele>1173.43</ele>
        <time>2021-08-15T08:24:08Z</time>
      </trkpt>
      <trkpt lat="45.45528" lon="2.91448">
        <ele>1173.43</ele>
        <time>2021-08-15T08:24:09Z</time>
      </trkpt>
      <trkpt lat="45.45526" lon="2.9145">
        <ele>1173.43</ele>
        <time>2021-08-15T08:24:10Z</time>
      </trkpt>
      <trkpt lat="45.45517" lon="2.91463">
        <ele>1175.35</ele>
        <time>2021-08-15T08:24:16Z</time>
      </trkpt>
      <trkpt lat="45.45515" lon="2.91468">
        <ele>1175.35</ele>
        <time>2021-08-15T08:24:19Z</time>
      </trkpt>
      <trkpt lat="45.45514" lon="2.91471">
        <ele>1175.35</ele>
        <time>2021-08-15T08:24:20Z</time>
      </trkpt>
      <trkpt lat="45.45514" lon="2.91476">
        <ele>1175.35</ele>
        <time>2021-08-15T08:24:22Z</time>
      </trkpt>
      <trkpt lat="45.45515" lon="2.91478">
        <ele>1175.35</ele>
        <time>2021-08-15T08:24:23Z</time>
      </trkpt>
      <trkpt lat="45.45516" lon="2.91481">
        <ele>1175.35</ele>
        <time>2021-08-15T08:24:24Z</time>
      </trkpt>
      <trkpt lat="45.45518" lon="2.91483">
        <ele>1175.35</ele>
        <time>2021-08-15T08:24:25Z</time>
      </trkpt>
      <trkpt lat="45.4552" lon="2.91485">
        <ele>1173.43</ele>
        <time>2021-08-15T08:24:26Z</time>
      </trkpt>
      <trkpt lat="45.45521" lon="2.91487">
        <ele>1173.43</ele>
        <time>2021-08-15T08:24:27Z</time>
      </trkpt>
      <trkpt lat="45.45523" lon="2.9149">
        <ele>1172.47</ele>
        <time>2021-08-15T08:24:29Z</time>
      </trkpt>
      <trkpt lat="45.45524" lon="2.91492">
        <ele>1171.98</ele>
        <time>2021-08-15T08:24:30Z</time>
      </trkpt>
      <trkpt lat="45.45525" lon="2.91495">
        <ele>1171.5</ele>
        <time>2021-08-15T08:24:31Z</time>
      </trkpt>
      <trkpt lat="45.45526" lon="2.91496">
        <ele>1171.5</ele>
        <time>2021-08-15T08:24:32Z</time>
      </trkpt>
      <trkpt lat="45.45526" lon="2.91498">
        <ele>1171.02</ele>
        <time>2021-08-15T08:24:33Z</time>
      </trkpt>
      <trkpt lat="45.45525" lon="2.915">
        <ele>1171.02</ele>
        <time>2021-08-15T08:24:34Z</time>
      </trkpt>
      <trkpt lat="45.45522" lon="2.91503">
        <ele>1171.02</ele>
        <time>2021-08-15T08:24:37Z</time>
      </trkpt>
      <trkpt lat="45.45521" lon="2.91503">
        <ele>1171.02</ele>
        <time>2021-08-15T08:24:38Z</time>
      </trkpt>
      <trkpt lat="45.4552" lon="2.91504">
        <ele>1171.02</ele>
        <time>2021-08-15T08:24:39Z</time>
      </trkpt>
      <trkpt lat="45.45519" lon="2.91504">
        <ele>1171.02</ele>
        <time>2021-08-15T08:24:40Z</time>
      </trkpt>
      <trkpt lat="45.45517" lon="2.91505">
        <ele>1171.02</ele>
        <time>2021-08-15T08:24:41Z</time>
      </trkpt>
      <trkpt lat="45.45514" lon="2.91507">
        <ele>1171.98</ele>
        <time>2021-08-15T08:24:46Z</time>
      </trkpt>
      <trkpt lat="45.45502" lon="2.91508">
        <ele>1173.43</ele>
        <time>2021-08-15T08:24:54Z</time>
      </trkpt>
      <trkpt lat="45.45483" lon="2.9151">
        <ele>1171.5</ele>
        <time>2021-08-15T08:25:00Z</time>
      </trkpt>
      <trkpt lat="45.45466" lon="2.91508">
        <ele>1170.54</ele>
        <time>2021-08-15T08:25:05Z</time>
      </trkpt>
      <trkpt lat="45.45462" lon="2.91505">
        <ele>1170.06</ele>
        <time>2021-08-15T08:25:09Z</time>
      </trkpt>
      <trkpt lat="45.45459" lon="2.91505">
        <ele>1169.58</ele>
        <time>2021-08-15T08:25:16Z</time>
      </trkpt>
      <trkpt lat="45.4546" lon="2.91503">
        <ele>1169.58</ele>
        <time>2021-08-15T08:25:24Z</time>
      </trkpt>
      <trkpt lat="45.45459" lon="2.91496">
        <ele>1169.58</ele>
        <time>2021-08-15T08:25:32Z</time>
      </trkpt>
      <trkpt lat="45.4546" lon="2.91494">
        <ele>1169.58</ele>
        <time>2021-08-15T08:25:33Z</time>
      </trkpt>
      <trkpt lat="45.4546" lon="2.91492">
        <ele>1169.58</ele>
        <time>2021-08-15T08:25:34Z</time>
      </trkpt>
      <trkpt lat="45.45459" lon="2.91491">
        <ele>1169.58</ele>
        <time>2021-08-15T08:25:35Z</time>
      </trkpt>
      <trkpt lat="45.45458" lon="2.9149">
        <ele>1169.58</ele>
        <time>2021-08-15T08:25:36Z</time>
      </trkpt>
      <trkpt lat="45.45457" lon="2.91489">
        <ele>1169.58</ele>
        <time>2021-08-15T08:25:37Z</time>
      </trkpt>
      <trkpt lat="45.45456" lon="2.91488">
        <ele>1169.58</ele>
        <time>2021-08-15T08:25:38Z</time>
      </trkpt>
      <trkpt lat="45.45455" lon="2.91488">
        <ele>1169.58</ele>
        <time>2021-08-15T08:25:40Z</time>
      </trkpt>
      <trkpt lat="45.45444" lon="2.91493">
        <ele>1167.18</ele>
        <time>2021-08-15T08:25:46Z</time>
      </trkpt>
      <trkpt lat="45.45442" lon="2.91492">
        <ele>1167.18</ele>
        <time>2021-08-15T08:25:47Z</time>
      </trkpt>
      <trkpt lat="45.45439" lon="2.9149">
        <ele>1167.18</ele>
        <time>2021-08-15T08:25:48Z</time>
      </trkpt>
      <trkpt lat="45.45436" lon="2.91489">
        <ele>1167.18</ele>
        <time>2021-08-15T08:25:49Z</time>
      </trkpt>
      <trkpt lat="45.45433" lon="2.91489">
        <ele>1167.18</ele>
        <time>2021-08-15T08:25:50Z</time>
      </trkpt>
      <trkpt lat="45.45429" lon="2.91489">
        <ele>1166.7</ele>
        <time>2021-08-15T08:25:51Z</time>
      </trkpt>
      <trkpt lat="45.45426" lon="2.91489">
        <ele>1166.7</ele>
        <time>2021-08-15T08:25:52Z</time>
      </trkpt>
      <trkpt lat="45.45402" lon="2.91489">
        <ele>1166.7</ele>
        <time>2021-08-15T08:25:59Z</time>
      </trkpt>
      <trkpt lat="45.45392" lon="2.91488">
        <ele>1166.7</ele>
        <time>2021-08-15T08:26:02Z</time>
      </trkpt>
      <trkpt lat="45.45389" lon="2.91487">
        <ele>1166.7</ele>
        <time>2021-08-15T08:26:03Z</time>
      </trkpt>
      <trkpt lat="45.45386" lon="2.91486">
        <ele>1166.7</ele>
        <time>2021-08-15T08:26:04Z</time>
      </trkpt>
      <trkpt lat="45.45382" lon="2.91486">
        <ele>1166.7</ele>
        <time>2021-08-15T08:26:05Z</time>
      </trkpt>
      <trkpt lat="45.45379" lon="2.91485">
        <ele>1166.22</ele>
        <time>2021-08-15T08:26:06Z</time>
      </trkpt>
      <trkpt lat="45.45364" lon="2.91473">
        <ele>1166.22</ele>
        <time>2021-08-15T08:26:11Z</time>
      </trkpt>
      <trkpt lat="45.45353" lon="2.91466">
        <ele>1165.74</ele>
        <time>2021-08-15T08:26:16Z</time>
      </trkpt>
      <trkpt lat="45.45344" lon="2.91457">
        <ele>1166.7</ele>
        <time>2021-08-15T08:26:22Z</time>
      </trkpt>
      <trkpt lat="45.45341" lon="2.91453">
        <ele>1166.7</ele>
        <time>2021-08-15T08:26:24Z</time>
      </trkpt>
      <trkpt lat="45.45339" lon="2.91451">
        <ele>1166.7</ele>
        <time>2021-08-15T08:26:25Z</time>
      </trkpt>
      <trkpt lat="45.45336" lon="2.9145">
        <ele>1166.7</ele>
        <time>2021-08-15T08:26:26Z</time>
      </trkpt>
      <trkpt lat="45.45317" lon="2.91448">
        <ele>1166.7</ele>
        <time>2021-08-15T08:26:33Z</time>
      </trkpt>
      <trkpt lat="45.45314" lon="2.91447">
        <ele>1166.7</ele>
        <time>2021-08-15T08:26:34Z</time>
      </trkpt>
      <trkpt lat="45.45312" lon="2.91447">
        <ele>1166.7</ele>
        <time>2021-08-15T08:26:35Z</time>
      </trkpt>
      <trkpt lat="45.45309" lon="2.91447">
        <ele>1166.7</ele>
        <time>2021-08-15T08:26:36Z</time>
      </trkpt>
      <trkpt lat="45.45306" lon="2.91446">
        <ele>1166.7</ele>
        <time>2021-08-15T08:26:37Z</time>
      </trkpt>
      <trkpt lat="45.45303" lon="2.91446">
        <ele>1165.26</ele>
        <time>2021-08-15T08:26:38Z</time>
      </trkpt>
      <trkpt lat="45.453" lon="2.91445">
        <ele>1165.26</ele>
        <time>2021-08-15T08:26:39Z</time>
      </trkpt>
      <trkpt lat="45.4528" lon="2.91447">
        <ele>1165.26</ele>
        <time>2021-08-15T08:26:46Z</time>
      </trkpt>
      <trkpt lat="45.45266" lon="2.91444">
        <ele>1166.7</ele>
        <time>2021-08-15T08:26:54Z</time>
      </trkpt>
      <trkpt lat="45.45254" lon="2.91442">
        <ele>1167.66</ele>
        <time>2021-08-15T08:27:02Z</time>
      </trkpt>
      <trkpt lat="45.45242" lon="2.91435">
        <ele>1168.62</ele>
        <time>2021-08-15T08:27:12Z</time>
      </trkpt>
      <trkpt lat="45.45237" lon="2.91431">
        <ele>1168.62</ele>
        <time>2021-08-15T08:27:16Z</time>
      </trkpt>
      <trkpt lat="45.45235" lon="2.9143">
        <ele>1168.62</ele>
        <time>2021-08-15T08:27:17Z</time>
      </trkpt>
      <trkpt lat="45.45234" lon="2.91428">
        <ele>1169.1</ele>
        <time>2021-08-15T08:27:18Z</time>
      </trkpt>
      <trkpt lat="45.45232" lon="2.91427">
        <ele>1169.1</ele>
        <time>2021-08-15T08:27:19Z</time>
      </trkpt>
      <trkpt lat="45.45231" lon="2.91426">
        <ele>1169.1</ele>
        <time>2021-08-15T08:27:20Z</time>
      </trkpt>
      <trkpt lat="45.4523" lon="2.91425">
        <ele>1169.1</ele>
        <time>2021-08-15T08:27:21Z</time>
      </trkpt>
      <trkpt lat="45.45228" lon="2.91423">
        <ele>1169.58</ele>
        <time>2021-08-15T08:27:23Z</time>
      </trkpt>
      <trkpt lat="45.45226" lon="2.91422">
        <ele>1169.58</ele>
        <time>2021-08-15T08:27:24Z</time>
      </trkpt>
      <trkpt lat="45.45225" lon="2.91422">
        <ele>1169.58</ele>
        <time>2021-08-15T08:27:25Z</time>
      </trkpt>
      <trkpt lat="45.45224" lon="2.9142">
        <ele>1169.58</ele>
        <time>2021-08-15T08:27:26Z</time>
      </trkpt>
      <trkpt lat="45.45222" lon="2.91419">
        <ele>1169.58</ele>
        <time>2021-08-15T08:27:27Z</time>
      </trkpt>
      <trkpt lat="45.45219" lon="2.91415">
        <ele>1168.14</ele>
        <time>2021-08-15T08:27:29Z</time>
      </trkpt>
      <trkpt lat="45.45206" lon="2.91398">
        <ele>1166.22</ele>
        <time>2021-08-15T08:27:35Z</time>
      </trkpt>
      <trkpt lat="45.45188" lon="2.9138">
        <ele>1164.77</ele>
        <time>2021-08-15T08:27:41Z</time>
      </trkpt>
      <trkpt lat="45.45168" lon="2.91372">
        <ele>1164.77</ele>
        <time>2021-08-15T08:27:47Z</time>
      </trkpt>
      <trkpt lat="45.45158" lon="2.91366">
        <ele>1164.77</ele>
        <time>2021-08-15T08:27:52Z</time>
      </trkpt>
      <trkpt lat="45.4515" lon="2.91365">
        <ele>1164.77</ele>
        <time>2021-08-15T08:28:00Z</time>
      </trkpt>
      <trkpt lat="45.45141" lon="2.91363">
        <ele>1166.7</ele>
        <time>2021-08-15T08:28:09Z</time>
      </trkpt>
      <trkpt lat="45.4514" lon="2.91361">
        <ele>1166.7</ele>
        <time>2021-08-15T08:28:19Z</time>
      </trkpt>
      <trkpt lat="45.45138" lon="2.91364">
        <ele>1167.66</ele>
        <time>2021-08-15T08:28:26Z</time>
      </trkpt>
      <trkpt lat="45.4513" lon="2.91369">
        <ele>1168.14</ele>
        <time>2021-08-15T08:28:33Z</time>
      </trkpt>
      <trkpt lat="45.45118" lon="2.91376">
        <ele>1168.14</ele>
        <time>2021-08-15T08:28:41Z</time>
      </trkpt>
      <trkpt lat="45.45113" lon="2.9138">
        <ele>1168.14</ele>
        <time>2021-08-15T08:28:49Z</time>
      </trkpt>
      <trkpt lat="45.45112" lon="2.91379">
        <ele>1168.14</ele>
        <time>2021-08-15T08:28:51Z</time>
      </trkpt>
      <trkpt lat="45.45111" lon="2.91378">
        <ele>1167.18</ele>
        <time>2021-08-15T08:28:52Z</time>
      </trkpt>
      <trkpt lat="45.4511" lon="2.91377">
        <ele>1167.18</ele>
        <time>2021-08-15T08:28:53Z</time>
      </trkpt>
      <trkpt lat="45.45103" lon="2.91376">
        <ele>1167.18</ele>
        <time>2021-08-15T08:28:57Z</time>
      </trkpt>
      <trkpt lat="45.45102" lon="2.91377">
        <ele>1167.18</ele>
        <time>2021-08-15T08:28:58Z</time>
      </trkpt>
      <trkpt lat="45.45097" lon="2.91379">
        <ele>1167.18</ele>
        <time>2021-08-15T08:29:02Z</time>
      </trkpt>
      <trkpt lat="45.45096" lon="2.9138">
        <ele>1167.18</ele>
        <time>2021-08-15T08:29:03Z</time>
      </trkpt>
      <trkpt lat="45.4509" lon="2.91386">
        <ele>1167.18</ele>
        <time>2021-08-15T08:29:10Z</time>
      </trkpt>
      <trkpt lat="45.4508" lon="2.91392">
        <ele>1167.18</ele>
        <time>2021-08-15T08:29:17Z</time>
      </trkpt>
      <trkpt lat="45.45066" lon="2.91408">
        <ele>1166.22</ele>
        <time>2021-08-15T08:29:23Z</time>
      </trkpt>
      <trkpt lat="45.45052" lon="2.91427">
        <ele>1164.77</ele>
        <time>2021-08-15T08:29:28Z</time>
      </trkpt>
      <trkpt lat="45.45045" lon="2.91434">
        <ele>1165.26</ele>
        <time>2021-08-15T08:29:33Z</time>
      </trkpt>
      <trkpt lat="45.45042" lon="2.91436">
        <ele>1165.26</ele>
        <time>2021-08-15T08:29:35Z</time>
      </trkpt>
      <trkpt lat="45.45031" lon="2.91445">
        <ele>1165.26</ele>
        <time>2021-08-15T08:29:42Z</time>
      </trkpt>
      <trkpt lat="45.45018" lon="2.91453">
        <ele>1164.77</ele>
        <time>2021-08-15T08:29:48Z</time>
      </trkpt>
      <trkpt lat="45.45003" lon="2.91467">
        <ele>1163.81</ele>
        <time>2021-08-15T08:29:54Z</time>
      </trkpt>
      <trkpt lat="45.4498" lon="2.91495">
        <ele>1161.41</ele>
        <time>2021-08-15T08:30:02Z</time>
      </trkpt>
      <trkpt lat="45.44968" lon="2.91502">
        <ele>1160.45</ele>
        <time>2021-08-15T08:30:05Z</time>
      </trkpt>
      <trkpt lat="45.44958" lon="2.91506">
        <ele>1159.01</ele>
        <time>2021-08-15T08:30:07Z</time>
      </trkpt>
      <trkpt lat="45.44948" lon="2.9151">
        <ele>1158.05</ele>
        <time>2021-08-15T08:30:09Z</time>
      </trkpt>
      <trkpt lat="45.44944" lon="2.91513">
        <ele>1157.56</ele>
        <time>2021-08-15T08:30:10Z</time>
      </trkpt>
      <trkpt lat="45.4494" lon="2.91518">
        <ele>1157.56</ele>
        <time>2021-08-15T08:30:11Z</time>
      </trkpt>
      <trkpt lat="45.44933" lon="2.9153">
        <ele>1157.56</ele>
        <time>2021-08-15T08:30:13Z</time>
      </trkpt>
      <trkpt lat="45.44914" lon="2.91553">
        <ele>1156.12</ele>
        <time>2021-08-15T08:30:18Z</time>
      </trkpt>
      <trkpt lat="45.44904" lon="2.91562">
        <ele>1154.68</ele>
        <time>2021-08-15T08:30:20Z</time>
      </trkpt>
      <trkpt lat="45.44899" lon="2.91567">
        <ele>1154.2</ele>
        <time>2021-08-15T08:30:21Z</time>
      </trkpt>
      <trkpt lat="45.44879" lon="2.91592">
        <ele>1150.35</ele>
        <time>2021-08-15T08:30:25Z</time>
      </trkpt>
      <trkpt lat="45.44863" lon="2.91613">
        <ele>1146.99</ele>
        <time>2021-08-15T08:30:28Z</time>
      </trkpt>
      <trkpt lat="45.44858" lon="2.91619">
        <ele>1146.99</ele>
        <time>2021-08-15T08:30:29Z</time>
      </trkpt>
      <trkpt lat="45.44852" lon="2.91624">
        <ele>1146.51</ele>
        <time>2021-08-15T08:30:30Z</time>
      </trkpt>
      <trkpt lat="45.44846" lon="2.91627">
        <ele>1146.51</ele>
        <time>2021-08-15T08:30:31Z</time>
      </trkpt>
      <trkpt lat="45.44842" lon="2.91628">
        <ele>1146.51</ele>
        <time>2021-08-15T08:30:32Z</time>
      </trkpt>
      <trkpt lat="45.44837" lon="2.91628">
        <ele>1146.51</ele>
        <time>2021-08-15T08:30:33Z</time>
      </trkpt>
      <trkpt lat="45.44832" lon="2.91627">
        <ele>1146.03</ele>
        <time>2021-08-15T08:30:34Z</time>
      </trkpt>
      <trkpt lat="45.44828" lon="2.91624">
        <ele>1146.03</ele>
        <time>2021-08-15T08:30:35Z</time>
      </trkpt>
      <trkpt lat="45.44823" lon="2.91621">
        <ele>1146.03</ele>
        <time>2021-08-15T08:30:36Z</time>
      </trkpt>
      <trkpt lat="45.44818" lon="2.91616">
        <ele>1145.07</ele>
        <time>2021-08-15T08:30:37Z</time>
      </trkpt>
      <trkpt lat="45.44796" lon="2.91596">
        <ele>1141.22</ele>
        <time>2021-08-15T08:30:41Z</time>
      </trkpt>
      <trkpt lat="45.44775" lon="2.91579">
        <ele>1137.38</ele>
        <time>2021-08-15T08:30:44Z</time>
      </trkpt>
      <trkpt lat="45.44757" lon="2.9157">
        <ele>1136.42</ele>
        <time>2021-08-15T08:30:46Z</time>
      </trkpt>
      <trkpt lat="45.44749" lon="2.91567">
        <ele>1136.42</ele>
        <time>2021-08-15T08:30:47Z</time>
      </trkpt>
      <trkpt lat="45.44716" lon="2.91556">
        <ele>1136.42</ele>
        <time>2021-08-15T08:30:51Z</time>
      </trkpt>
      <trkpt lat="45.44709" lon="2.91551">
        <ele>1136.42</ele>
        <time>2021-08-15T08:30:52Z</time>
      </trkpt>
      <trkpt lat="45.44704" lon="2.91545">
        <ele>1136.42</ele>
        <time>2021-08-15T08:30:53Z</time>
      </trkpt>
      <trkpt lat="45.44698" lon="2.91538">
        <ele>1136.42</ele>
        <time>2021-08-15T08:30:54Z</time>
      </trkpt>
      <trkpt lat="45.44693" lon="2.91531">
        <ele>1136.42</ele>
        <time>2021-08-15T08:30:55Z</time>
      </trkpt>
      <trkpt lat="45.44689" lon="2.91525">
        <ele>1136.42</ele>
        <time>2021-08-15T08:30:56Z</time>
      </trkpt>
      <trkpt lat="45.44675" lon="2.91508">
        <ele>1136.42</ele>
        <time>2021-08-15T08:30:59Z</time>
      </trkpt>
      <trkpt lat="45.44671" lon="2.91502">
        <ele>1136.42</ele>
        <time>2021-08-15T08:31:00Z</time>
      </trkpt>
      <trkpt lat="45.44665" lon="2.91491">
        <ele>1134.97</ele>
        <time>2021-08-15T08:31:02Z</time>
      </trkpt>
      <trkpt lat="45.44658" lon="2.91482">
        <ele>1133.53</ele>
        <time>2021-08-15T08:31:04Z</time>
      </trkpt>
      <trkpt lat="45.4464" lon="2.9146">
        <ele>1129.69</ele>
        <time>2021-08-15T08:31:08Z</time>
      </trkpt>
      <trkpt lat="45.44627" lon="2.91442">
        <ele>1127.76</ele>
        <time>2021-08-15T08:31:11Z</time>
      </trkpt>
      <trkpt lat="45.44621" lon="2.91437">
        <ele>1126.8</ele>
        <time>2021-08-15T08:31:12Z</time>
      </trkpt>
      <trkpt lat="45.44614" lon="2.91434">
        <ele>1125.84</ele>
        <time>2021-08-15T08:31:13Z</time>
      </trkpt>
      <trkpt lat="45.44606" lon="2.91434">
        <ele>1124.88</ele>
        <time>2021-08-15T08:31:14Z</time>
      </trkpt>
      <trkpt lat="45.44598" lon="2.91435">
        <ele>1123.92</ele>
        <time>2021-08-15T08:31:15Z</time>
      </trkpt>
      <trkpt lat="45.4459" lon="2.91438">
        <ele>1122.96</ele>
        <time>2021-08-15T08:31:16Z</time>
      </trkpt>
      <trkpt lat="45.44583" lon="2.91442">
        <ele>1121.52</ele>
        <time>2021-08-15T08:31:17Z</time>
      </trkpt>
      <trkpt lat="45.44576" lon="2.91448">
        <ele>1121.03</ele>
        <time>2021-08-15T08:31:18Z</time>
      </trkpt>
      <trkpt lat="45.4457" lon="2.91455">
        <ele>1119.59</ele>
        <time>2021-08-15T08:31:19Z</time>
      </trkpt>
      <trkpt lat="45.44566" lon="2.91462">
        <ele>1119.59</ele>
        <time>2021-08-15T08:31:20Z</time>
      </trkpt>
      <trkpt lat="45.44561" lon="2.91468">
        <ele>1119.59</ele>
        <time>2021-08-15T08:31:21Z</time>
      </trkpt>
      <trkpt lat="45.44556" lon="2.91473">
        <ele>1119.59</ele>
        <time>2021-08-15T08:31:22Z</time>
      </trkpt>
      <trkpt lat="45.4455" lon="2.91475">
        <ele>1118.15</ele>
        <time>2021-08-15T08:31:23Z</time>
      </trkpt>
      <trkpt lat="45.44544" lon="2.91473">
        <ele>1117.67</ele>
        <time>2021-08-15T08:31:24Z</time>
      </trkpt>
      <trkpt lat="45.44538" lon="2.9147">
        <ele>1117.67</ele>
        <time>2021-08-15T08:31:25Z</time>
      </trkpt>
      <trkpt lat="45.44531" lon="2.91467">
        <ele>1116.71</ele>
        <time>2021-08-15T08:31:26Z</time>
      </trkpt>
      <trkpt lat="45.44524" lon="2.91465">
        <ele>1115.75</ele>
        <time>2021-08-15T08:31:27Z</time>
      </trkpt>
      <trkpt lat="45.44516" lon="2.91465">
        <ele>1114.79</ele>
        <time>2021-08-15T08:31:28Z</time>
      </trkpt>
      <trkpt lat="45.44507" lon="2.91465">
        <ele>1112.86</ele>
        <time>2021-08-15T08:31:29Z</time>
      </trkpt>
      <trkpt lat="45.44461" lon="2.91471">
        <ele>1110.94</ele>
        <time>2021-08-15T08:31:35Z</time>
      </trkpt>
      <trkpt lat="45.44454" lon="2.91472">
        <ele>1109.98</ele>
        <time>2021-08-15T08:31:36Z</time>
      </trkpt>
      <trkpt lat="45.44448" lon="2.91475">
        <ele>1109.5</ele>
        <time>2021-08-15T08:31:37Z</time>
      </trkpt>
      <trkpt lat="45.44441" lon="2.9148">
        <ele>1109.02</ele>
        <time>2021-08-15T08:31:38Z</time>
      </trkpt>
      <trkpt lat="45.44435" lon="2.91486">
        <ele>1108.54</ele>
        <time>2021-08-15T08:31:39Z</time>
      </trkpt>
      <trkpt lat="45.44432" lon="2.91494">
        <ele>1108.54</ele>
        <time>2021-08-15T08:31:40Z</time>
      </trkpt>
      <trkpt lat="45.44429" lon="2.91503">
        <ele>1108.54</ele>
        <time>2021-08-15T08:31:41Z</time>
      </trkpt>
      <trkpt lat="45.44428" lon="2.91512">
        <ele>1108.54</ele>
        <time>2021-08-15T08:31:42Z</time>
      </trkpt>
      <trkpt lat="45.44428" lon="2.91521">
        <ele>1108.54</ele>
        <time>2021-08-15T08:31:43Z</time>
      </trkpt>
      <trkpt lat="45.44428" lon="2.91528">
        <ele>1109.98</ele>
        <time>2021-08-15T08:31:44Z</time>
      </trkpt>
      <trkpt lat="45.44427" lon="2.91535">
        <ele>1109.98</ele>
        <time>2021-08-15T08:31:45Z</time>
      </trkpt>
      <trkpt lat="45.44425" lon="2.9154">
        <ele>1110.94</ele>
        <time>2021-08-15T08:31:46Z</time>
      </trkpt>
      <trkpt lat="45.44423" lon="2.91544">
        <ele>1110.94</ele>
        <time>2021-08-15T08:31:47Z</time>
      </trkpt>
      <trkpt lat="45.44421" lon="2.91547">
        <ele>1111.42</ele>
        <time>2021-08-15T08:31:48Z</time>
      </trkpt>
      <trkpt lat="45.44419" lon="2.9155">
        <ele>1111.42</ele>
        <time>2021-08-15T08:31:49Z</time>
      </trkpt>
      <trkpt lat="45.44398" lon="2.91573">
        <ele>1111.9</ele>
        <time>2021-08-15T08:31:58Z</time>
      </trkpt>
      <trkpt lat="45.44386" lon="2.91583">
        <ele>1113.34</ele>
        <time>2021-08-15T08:32:07Z</time>
      </trkpt>
      <trkpt lat="45.44373" lon="2.91591">
        <ele>1113.82</ele>
        <time>2021-08-15T08:32:16Z</time>
      </trkpt>
      <trkpt lat="45.44358" lon="2.91597">
        <ele>1114.31</ele>
        <time>2021-08-15T08:32:25Z</time>
      </trkpt>
      <trkpt lat="45.44357" lon="2.916">
        <ele>1114.31</ele>
        <time>2021-08-15T08:32:26Z</time>
      </trkpt>
      <trkpt lat="45.44357" lon="2.91602">
        <ele>1114.31</ele>
        <time>2021-08-15T08:32:27Z</time>
      </trkpt>
      <trkpt lat="45.44355" lon="2.91603">
        <ele>1114.31</ele>
        <time>2021-08-15T08:32:28Z</time>
      </trkpt>
      <trkpt lat="45.44354" lon="2.91603">
        <ele>1114.31</ele>
        <time>2021-08-15T08:32:34Z</time>
      </trkpt>
      <trkpt lat="45.44353" lon="2.91602">
        <ele>1114.31</ele>
        <time>2021-08-15T08:32:50Z</time>
      </trkpt>
      <trkpt lat="45.44352" lon="2.91602">
        <ele>1114.31</ele>
        <time>2021-08-15T08:32:56Z</time>
      </trkpt>
      <trkpt lat="45.44354" lon="2.91603">
        <ele>1114.31</ele>
        <time>2021-08-15T08:33:03Z</time>
      </trkpt>
      <trkpt lat="45.44356" lon="2.91604">
        <ele>1114.31</ele>
        <time>2021-08-15T08:33:18Z</time>
      </trkpt>
      <trkpt lat="45.44356" lon="2.91604">
        <ele>1114.31</ele>
        <time>2021-08-15T08:33:33Z</time>
      </trkpt>
      <trkpt lat="45.44355" lon="2.91604">
        <ele>1114.31</ele>
        <time>2021-08-15T08:33:52Z</time>
      </trkpt>
      <trkpt lat="45.44356" lon="2.91604">
        <ele>1114.31</ele>
        <time>2021-08-15T08:34:11Z</time>
      </trkpt>
      <trkpt lat="45.44355" lon="2.91604">
        <ele>1114.31</ele>
        <time>2021-08-15T08:34:33Z</time>
      </trkpt>
      <trkpt lat="45.44354" lon="2.91601">
        <ele>1114.31</ele>
        <time>2021-08-15T08:34:50Z</time>
      </trkpt>
      <trkpt lat="45.44353" lon="2.916">
        <ele>1114.31</ele>
        <time>2021-08-15T08:35:04Z</time>
      </trkpt>
      <trkpt lat="45.44352" lon="2.91601">
        <ele>1114.31</ele>
        <time>2021-08-15T08:35:15Z</time>
      </trkpt>
      <trkpt lat="45.44353" lon="2.91602">
        <ele>1114.31</ele>
        <time>2021-08-15T08:35:28Z</time>
      </trkpt>
      <trkpt lat="45.44354" lon="2.91604">
        <ele>1112.38</ele>
        <time>2021-08-15T08:35:58Z</time>
      </trkpt>
      <trkpt lat="45.44355" lon="2.91605">
        <ele>1113.82</ele>
        <time>2021-08-15T08:36:20Z</time>
      </trkpt>
      <trkpt lat="45.44353" lon="2.91605">
        <ele>1113.82</ele>
        <time>2021-08-15T08:36:35Z</time>
      </trkpt>
      <trkpt lat="45.44352" lon="2.91605">
        <ele>1113.82</ele>
        <time>2021-08-15T08:36:52Z</time>
      </trkpt>
      <trkpt lat="45.4435" lon="2.91605">
        <ele>1113.82</ele>
        <time>2021-08-15T08:37:01Z</time>
      </trkpt>
      <trkpt lat="45.44352" lon="2.91606">
        <ele>1113.82</ele>
        <time>2021-08-15T08:37:09Z</time>
      </trkpt>
      <trkpt lat="45.44353" lon="2.91607">
        <ele>1113.82</ele>
        <time>2021-08-15T08:37:19Z</time>
      </trkpt>
      <trkpt lat="45.44355" lon="2.91605">
        <ele>1113.82</ele>
        <time>2021-08-15T08:37:26Z</time>
      </trkpt>
      <trkpt lat="45.44355" lon="2.91604">
        <ele>1113.82</ele>
        <time>2021-08-15T08:37:37Z</time>
      </trkpt>
      <trkpt lat="45.44356" lon="2.91603">
        <ele>1112.38</ele>
        <time>2021-08-15T08:37:41Z</time>
      </trkpt>
      <trkpt lat="45.44356" lon="2.91604">
        <ele>1112.38</ele>
        <time>2021-08-15T08:37:57Z</time>
      </trkpt>
      <trkpt lat="45.44354" lon="2.91604">
        <ele>1112.38</ele>
        <time>2021-08-15T08:38:21Z</time>
      </trkpt>
      <trkpt lat="45.44353" lon="2.91605">
        <ele>1112.38</ele>
        <time>2021-08-15T08:38:44Z</time>
      </trkpt>
      <trkpt lat="45.44355" lon="2.91604">
        <ele>1111.9</ele>
        <time>2021-08-15T08:39:05Z</time>
      </trkpt>
      <trkpt lat="45.44359" lon="2.91607">
        <ele>1111.9</ele>
        <time>2021-08-15T08:39:26Z</time>
      </trkpt>
      <trkpt lat="45.44359" lon="2.91605">
        <ele>1111.9</ele>
        <time>2021-08-15T08:39:46Z</time>
      </trkpt>
      <trkpt lat="45.44357" lon="2.91601">
        <ele>1111.9</ele>
        <time>2021-08-15T08:40:07Z</time>
      </trkpt>
      <trkpt lat="45.44359" lon="2.91604">
        <ele>1111.9</ele>
        <time>2021-08-15T08:40:27Z</time>
      </trkpt>
      <trkpt lat="45.4436" lon="2.91609">
        <ele>1111.9</ele>
        <time>2021-08-15T08:40:55Z</time>
      </trkpt>
      <trkpt lat="45.44361" lon="2.91613">
        <ele>1112.38</ele>
        <time>2021-08-15T08:41:13Z</time>
      </trkpt>
      <trkpt lat="45.44361" lon="2.91613">
        <ele>1111.9</ele>
        <time>2021-08-15T08:41:33Z</time>
      </trkpt>
      <trkpt lat="45.44359" lon="2.91612">
        <ele>1111.9</ele>
        <time>2021-08-15T08:41:51Z</time>
      </trkpt>
      <trkpt lat="45.44358" lon="2.91609">
        <ele>1111.9</ele>
        <time>2021-08-15T08:42:09Z</time>
      </trkpt>
      <trkpt lat="45.44359" lon="2.91607">
        <ele>1111.9</ele>
        <time>2021-08-15T08:42:28Z</time>
      </trkpt>
      <trkpt lat="45.4436" lon="2.91606">
        <ele>1112.38</ele>
        <time>2021-08-15T08:42:45Z</time>
      </trkpt>
      <trkpt lat="45.44359" lon="2.91606">
        <ele>1112.38</ele>
        <time>2021-08-15T08:42:55Z</time>
      </trkpt>
      <trkpt lat="45.44358" lon="2.91605">
        <ele>1112.38</ele>
        <time>2021-08-15T08:43:04Z</time>
      </trkpt>
      <trkpt lat="45.4436" lon="2.91604">
        <ele>1112.38</ele>
        <time>2021-08-15T08:43:20Z</time>
      </trkpt>
      <trkpt lat="45.44359" lon="2.91603">
        <ele>1112.38</ele>
        <time>2021-08-15T08:43:41Z</time>
      </trkpt>
      <trkpt lat="45.44361" lon="2.91601">
        <ele>1112.38</ele>
        <time>2021-08-15T08:43:59Z</time>
      </trkpt>
      <trkpt lat="45.44362" lon="2.91603">
        <ele>1112.38</ele>
        <time>2021-08-15T08:44:22Z</time>
      </trkpt>
      <trkpt lat="45.4436" lon="2.91604">
        <ele>1112.86</ele>
        <time>2021-08-15T08:44:42Z</time>
      </trkpt>
      <trkpt lat="45.44358" lon="2.91604">
        <ele>1112.86</ele>
        <time>2021-08-15T08:44:55Z</time>
      </trkpt>
      <trkpt lat="45.44356" lon="2.91605">
        <ele>1112.86</ele>
        <time>2021-08-15T08:45:09Z</time>
      </trkpt>
      <trkpt lat="45.44355" lon="2.91607">
        <ele>1112.86</ele>
        <time>2021-08-15T08:45:28Z</time>
      </trkpt>
      <trkpt lat="45.44354" lon="2.91607">
        <ele>1112.86</ele>
        <time>2021-08-15T08:45:43Z</time>
      </trkpt>
      <trkpt lat="45.44354" lon="2.91607">
        <ele>1112.86</ele>
        <time>2021-08-15T08:45:59Z</time>
      </trkpt>
      <trkpt lat="45.44354" lon="2.91607">
        <ele>1112.86</ele>
        <time>2021-08-15T08:46:20Z</time>
      </trkpt>
      <trkpt lat="45.44354" lon="2.91606">
        <ele>1113.34</ele>
        <time>2021-08-15T08:46:37Z</time>
      </trkpt>
      <trkpt lat="45.44354" lon="2.91604">
        <ele>1113.34</ele>
        <time>2021-08-15T08:46:44Z</time>
      </trkpt>
      <trkpt lat="45.44353" lon="2.91603">
        <ele>1114.31</ele>
        <time>2021-08-15T08:47:02Z</time>
      </trkpt>
      <trkpt lat="45.44354" lon="2.91604">
        <ele>1114.79</ele>
        <time>2021-08-15T08:47:19Z</time>
      </trkpt>
      <trkpt lat="45.44352" lon="2.91601">
        <ele>1114.79</ele>
        <time>2021-08-15T08:47:31Z</time>
      </trkpt>
      <trkpt lat="45.4435" lon="2.91603">
        <ele>1114.79</ele>
        <time>2021-08-15T08:47:38Z</time>
      </trkpt>
      <trkpt lat="45.44349" lon="2.91606">
        <ele>1114.79</ele>
        <time>2021-08-15T08:47:46Z</time>
      </trkpt>
      <trkpt lat="45.44351" lon="2.91608">
        <ele>1114.79</ele>
        <time>2021-08-15T08:47:54Z</time>
      </trkpt>
      <trkpt lat="45.44352" lon="2.91612">
        <ele>1114.79</ele>
        <time>2021-08-15T08:47:55Z</time>
      </trkpt>
      <trkpt lat="45.44351" lon="2.91614">
        <ele>1114.79</ele>
        <time>2021-08-15T08:47:57Z</time>
      </trkpt>
      <trkpt lat="45.44349" lon="2.91615">
        <ele>1114.79</ele>
        <time>2021-08-15T08:47:58Z</time>
      </trkpt>
      <trkpt lat="45.44348" lon="2.91617">
        <ele>1113.34</ele>
        <time>2021-08-15T08:47:59Z</time>
      </trkpt>
      <trkpt lat="45.44346" lon="2.91618">
        <ele>1113.82</ele>
        <time>2021-08-15T08:48:00Z</time>
      </trkpt>
      <trkpt lat="45.44344" lon="2.9162">
        <ele>1113.34</ele>
        <time>2021-08-15T08:48:01Z</time>
      </trkpt>
      <trkpt lat="45.44342" lon="2.91622">
        <ele>1113.82</ele>
        <time>2021-08-15T08:48:02Z</time>
      </trkpt>
      <trkpt lat="45.44341" lon="2.91624">
        <ele>1113.34</ele>
        <time>2021-08-15T08:48:03Z</time>
      </trkpt>
      <trkpt lat="45.44339" lon="2.91625">
        <ele>1113.34</ele>
        <time>2021-08-15T08:48:04Z</time>
      </trkpt>
      <trkpt lat="45.44336" lon="2.91627">
        <ele>1113.34</ele>
        <time>2021-08-15T08:48:05Z</time>
      </trkpt>
      <trkpt lat="45.44336" lon="2.91628">
        <ele>1113.34</ele>
        <time>2021-08-15T08:48:08Z</time>
      </trkpt>
      <trkpt lat="45.44337" lon="2.91627">
        <ele>1113.34</ele>
        <time>2021-08-15T08:48:09Z</time>
      </trkpt>
      <trkpt lat="45.44337" lon="2.91625">
        <ele>1113.34</ele>
        <time>2021-08-15T08:48:10Z</time>
      </trkpt>
      <trkpt lat="45.4434" lon="2.91617">
        <ele>1113.34</ele>
        <time>2021-08-15T08:48:15Z</time>
      </trkpt>
      <trkpt lat="45.44341" lon="2.91616">
        <ele>1113.34</ele>
        <time>2021-08-15T08:48:16Z</time>
      </trkpt>
      <trkpt lat="45.44342" lon="2.91614">
        <ele>1113.34</ele>
        <time>2021-08-15T08:48:17Z</time>
      </trkpt>
      <trkpt lat="45.44343" lon="2.91613">
        <ele>1113.34</ele>
        <time>2021-08-15T08:48:18Z</time>
      </trkpt>
      <trkpt lat="45.44345" lon="2.9161">
        <ele>1113.34</ele>
        <time>2021-08-15T08:48:24Z</time>
      </trkpt>
      <trkpt lat="45.44344" lon="2.91612">
        <ele>1112.86</ele>
        <time>2021-08-15T08:48:25Z</time>
      </trkpt>
      <trkpt lat="45.44343" lon="2.91613">
        <ele>1113.34</ele>
        <time>2021-08-15T08:48:26Z</time>
      </trkpt>
      <trkpt lat="45.44342" lon="2.91615">
        <ele>1112.86</ele>
        <time>2021-08-15T08:48:27Z</time>
      </trkpt>
      <trkpt lat="45.4434" lon="2.91617">
        <ele>1112.86</ele>
        <time>2021-08-15T08:48:28Z</time>
      </trkpt>
      <trkpt lat="45.44338" lon="2.9162">
        <ele>1112.86</ele>
        <time>2021-08-15T08:48:29Z</time>
      </trkpt>
      <trkpt lat="45.44336" lon="2.91622">
        <ele>1112.86</ele>
        <time>2021-08-15T08:48:30Z</time>
      </trkpt>
      <trkpt lat="45.44335" lon="2.91625">
        <ele>1112.86</ele>
        <time>2021-08-15T08:48:31Z</time>
      </trkpt>
      <trkpt lat="45.4432" lon="2.91638">
        <ele>1112.38</ele>
        <time>2021-08-15T08:48:36Z</time>
      </trkpt>
      <trkpt lat="45.44315" lon="2.91639">
        <ele>1111.42</ele>
        <time>2021-08-15T08:48:37Z</time>
      </trkpt>
      <trkpt lat="45.4431" lon="2.91639">
        <ele>1111.42</ele>
        <time>2021-08-15T08:48:38Z</time>
      </trkpt>
      <trkpt lat="45.44265" lon="2.91644">
        <ele>1109.02</ele>
        <time>2021-08-15T08:48:45Z</time>
      </trkpt>
      <trkpt lat="45.44258" lon="2.91648">
        <ele>1109.02</ele>
        <time>2021-08-15T08:48:46Z</time>
      </trkpt>
      <trkpt lat="45.44251" lon="2.91652">
        <ele>1108.54</ele>
        <time>2021-08-15T08:48:47Z</time>
      </trkpt>
      <trkpt lat="45.44244" lon="2.91657">
        <ele>1107.58</ele>
        <time>2021-08-15T08:48:48Z</time>
      </trkpt>
      <trkpt lat="45.44238" lon="2.91663">
        <ele>1107.58</ele>
        <time>2021-08-15T08:48:49Z</time>
      </trkpt>
      <trkpt lat="45.4422" lon="2.91679">
        <ele>1104.69</ele>
        <time>2021-08-15T08:48:52Z</time>
      </trkpt>
      <trkpt lat="45.44212" lon="2.91683">
        <ele>1104.69</ele>
        <time>2021-08-15T08:48:53Z</time>
      </trkpt>
      <trkpt lat="45.44205" lon="2.91685">
        <ele>1104.21</ele>
        <time>2021-08-15T08:48:54Z</time>
      </trkpt>
      <trkpt lat="45.44196" lon="2.91686">
        <ele>1103.25</ele>
        <time>2021-08-15T08:48:55Z</time>
      </trkpt>
      <trkpt lat="45.44189" lon="2.91687">
        <ele>1102.29</ele>
        <time>2021-08-15T08:48:56Z</time>
      </trkpt>
      <trkpt lat="45.44163" lon="2.91693">
        <ele>1098.92</ele>
        <time>2021-08-15T08:48:59Z</time>
      </trkpt>
      <trkpt lat="45.44145" lon="2.91696">
        <ele>1096.52</ele>
        <time>2021-08-15T08:49:01Z</time>
      </trkpt>
      <trkpt lat="45.44118" lon="2.91694">
        <ele>1092.68</ele>
        <time>2021-08-15T08:49:04Z</time>
      </trkpt>
      <trkpt lat="45.44089" lon="2.91686">
        <ele>1089.31</ele>
        <time>2021-08-15T08:49:07Z</time>
      </trkpt>
      <trkpt lat="45.44071" lon="2.91679">
        <ele>1085.95</ele>
        <time>2021-08-15T08:49:09Z</time>
      </trkpt>
      <trkpt lat="45.44047" lon="2.91669">
        <ele>1083.06</ele>
        <time>2021-08-15T08:49:12Z</time>
      </trkpt>
      <trkpt lat="45.44018" lon="2.91655">
        <ele>1078.26</ele>
        <time>2021-08-15T08:49:15Z</time>
      </trkpt>
      <trkpt lat="45.43996" lon="2.91641">
        <ele>1074.89</ele>
        <time>2021-08-15T08:49:17Z</time>
      </trkpt>
      <trkpt lat="45.43973" lon="2.91627">
        <ele>1071.05</ele>
        <time>2021-08-15T08:49:19Z</time>
      </trkpt>
      <trkpt lat="45.43951" lon="2.91612">
        <ele>1067.2</ele>
        <time>2021-08-15T08:49:21Z</time>
      </trkpt>
      <trkpt lat="45.43927" lon="2.91598">
        <ele>1063.84</ele>
        <time>2021-08-15T08:49:23Z</time>
      </trkpt>
      <trkpt lat="45.43904" lon="2.91583">
        <ele>1060.47</ele>
        <time>2021-08-15T08:49:25Z</time>
      </trkpt>
      <trkpt lat="45.43882" lon="2.91569">
        <ele>1059.03</ele>
        <time>2021-08-15T08:49:27Z</time>
      </trkpt>
      <trkpt lat="45.43851" lon="2.91554">
        <ele>1056.63</ele>
        <time>2021-08-15T08:49:30Z</time>
      </trkpt>
      <trkpt lat="45.43819" lon="2.91543">
        <ele>1057.11</ele>
        <time>2021-08-15T08:49:34Z</time>
      </trkpt>
      <trkpt lat="45.43813" lon="2.91542">
        <ele>1057.11</ele>
        <time>2021-08-15T08:49:35Z</time>
      </trkpt>
      <trkpt lat="45.43807" lon="2.91545">
        <ele>1054.22</ele>
        <time>2021-08-15T08:49:36Z</time>
      </trkpt>
      <trkpt lat="45.43803" lon="2.91551">
        <ele>1053.74</ele>
        <time>2021-08-15T08:49:37Z</time>
      </trkpt>
      <trkpt lat="45.43802" lon="2.91559">
        <ele>1053.26</ele>
        <time>2021-08-15T08:49:38Z</time>
      </trkpt>
      <trkpt lat="45.43804" lon="2.91566">
        <ele>1053.26</ele>
        <time>2021-08-15T08:49:39Z</time>
      </trkpt>
      <trkpt lat="45.43809" lon="2.91572">
        <ele>1053.26</ele>
        <time>2021-08-15T08:49:40Z</time>
      </trkpt>
      <trkpt lat="45.43817" lon="2.91575">
        <ele>1052.3</ele>
        <time>2021-08-15T08:49:41Z</time>
      </trkpt>
      <trkpt lat="45.43824" lon="2.91579">
        <ele>1051.34</ele>
        <time>2021-08-15T08:49:42Z</time>
      </trkpt>
      <trkpt lat="45.4383" lon="2.91583">
        <ele>1050.86</ele>
        <time>2021-08-15T08:49:43Z</time>
      </trkpt>
      <trkpt lat="45.43835" lon="2.91589">
        <ele>1048.94</ele>
        <time>2021-08-15T08:49:44Z</time>
      </trkpt>
      <trkpt lat="45.43839" lon="2.91596">
        <ele>1047.97</ele>
        <time>2021-08-15T08:49:45Z</time>
      </trkpt>
      <trkpt lat="45.43841" lon="2.91601">
        <ele>1047.49</ele>
        <time>2021-08-15T08:49:46Z</time>
      </trkpt>
      <trkpt lat="45.43841" lon="2.91605">
        <ele>1046.05</ele>
        <time>2021-08-15T08:49:47Z</time>
      </trkpt>
      <trkpt lat="45.43839" lon="2.91607">
        <ele>1044.61</ele>
        <time>2021-08-15T08:49:48Z</time>
      </trkpt>
      <trkpt lat="45.43835" lon="2.91606">
        <ele>1045.57</ele>
        <time>2021-08-15T08:49:49Z</time>
      </trkpt>
      <trkpt lat="45.43833" lon="2.91605">
        <ele>1047.01</ele>
        <time>2021-08-15T08:49:50Z</time>
      </trkpt>
      <trkpt lat="45.43831" lon="2.91604">
        <ele>1047.01</ele>
        <time>2021-08-15T08:49:51Z</time>
      </trkpt>
      <trkpt lat="45.43818" lon="2.91601">
        <ele>1047.01</ele>
        <time>2021-08-15T08:49:57Z</time>
      </trkpt>
      <trkpt lat="45.43802" lon="2.91602">
        <ele>1047.97</ele>
        <time>2021-08-15T08:50:04Z</time>
      </trkpt>
      <trkpt lat="45.43788" lon="2.9161">
        <ele>1049.42</ele>
        <time>2021-08-15T08:50:12Z</time>
      </trkpt>
      <trkpt lat="45.43767" lon="2.91621">
        <ele>1049.9</ele>
        <time>2021-08-15T08:50:22Z</time>
      </trkpt>
      <trkpt lat="45.43746" lon="2.91624">
        <ele>1051.34</ele>
        <time>2021-08-15T08:50:32Z</time>
      </trkpt>
      <trkpt lat="45.4373" lon="2.91622">
        <ele>1052.3</ele>
        <time>2021-08-15T08:50:40Z</time>
      </trkpt>
      <trkpt lat="45.43716" lon="2.91613">
        <ele>1053.74</ele>
        <time>2021-08-15T08:50:48Z</time>
      </trkpt>
      <trkpt lat="45.43702" lon="2.916">
        <ele>1054.22</ele>
        <time>2021-08-15T08:50:56Z</time>
      </trkpt>
      <trkpt lat="45.43688" lon="2.91583">
        <ele>1055.18</ele>
        <time>2021-08-15T08:51:05Z</time>
      </trkpt>
      <trkpt lat="45.43674" lon="2.91568">
        <ele>1056.15</ele>
        <time>2021-08-15T08:51:13Z</time>
      </trkpt>
      <trkpt lat="45.4366" lon="2.91552">
        <ele>1056.63</ele>
        <time>2021-08-15T08:51:21Z</time>
      </trkpt>
      <trkpt lat="45.43643" lon="2.91533">
        <ele>1058.07</ele>
        <time>2021-08-15T08:51:31Z</time>
      </trkpt>
      <trkpt lat="45.43625" lon="2.91513">
        <ele>1059.99</ele>
        <time>2021-08-15T08:51:41Z</time>
      </trkpt>
      <trkpt lat="45.43607" lon="2.91493">
        <ele>1061.91</ele>
        <time>2021-08-15T08:51:51Z</time>
      </trkpt>
      <trkpt lat="45.4359" lon="2.91474">
        <ele>1062.39</ele>
        <time>2021-08-15T08:52:01Z</time>
      </trkpt>
      <trkpt lat="45.43575" lon="2.91456">
        <ele>1063.36</ele>
        <time>2021-08-15T08:52:10Z</time>
      </trkpt>
      <trkpt lat="45.43556" lon="2.91435">
        <ele>1064.32</ele>
        <time>2021-08-15T08:52:21Z</time>
      </trkpt>
      <trkpt lat="45.43536" lon="2.91414">
        <ele>1065.76</ele>
        <time>2021-08-15T08:52:32Z</time>
      </trkpt>
      <trkpt lat="45.4352" lon="2.91399">
        <ele>1066.24</ele>
        <time>2021-08-15T08:52:40Z</time>
      </trkpt>
      <trkpt lat="45.43498" lon="2.91388">
        <ele>1066.72</ele>
        <time>2021-08-15T08:52:49Z</time>
      </trkpt>
      <trkpt lat="45.43481" lon="2.91389">
        <ele>1068.16</ele>
        <time>2021-08-15T08:52:56Z</time>
      </trkpt>
      <trkpt lat="45.43456" lon="2.91391">
        <ele>1069.12</ele>
        <time>2021-08-15T08:53:07Z</time>
      </trkpt>
      <trkpt lat="45.43434" lon="2.91391">
        <ele>1071.05</ele>
        <time>2021-08-15T08:53:17Z</time>
      </trkpt>
      <trkpt lat="45.43416" lon="2.91389">
        <ele>1071.53</ele>
        <time>2021-08-15T08:53:25Z</time>
      </trkpt>
      <trkpt lat="45.43399" lon="2.91387">
        <ele>1072.49</ele>
        <time>2021-08-15T08:53:33Z</time>
      </trkpt>
      <trkpt lat="45.43382" lon="2.91384">
        <ele>1073.45</ele>
        <time>2021-08-15T08:53:41Z</time>
      </trkpt>
      <trkpt lat="45.43359" lon="2.91377">
        <ele>1074.41</ele>
        <time>2021-08-15T08:53:50Z</time>
      </trkpt>
      <trkpt lat="45.4334" lon="2.91363">
        <ele>1075.37</ele>
        <time>2021-08-15T08:53:59Z</time>
      </trkpt>
      <trkpt lat="45.43322" lon="2.91345">
        <ele>1076.33</ele>
        <time>2021-08-15T08:54:08Z</time>
      </trkpt>
      <trkpt lat="45.43308" lon="2.91333">
        <ele>1077.29</ele>
        <time>2021-08-15T08:54:16Z</time>
      </trkpt>
      <trkpt lat="45.4329" lon="2.91317">
        <ele>1079.22</ele>
        <time>2021-08-15T08:54:27Z</time>
      </trkpt>
      <trkpt lat="45.43271" lon="2.91299">
        <ele>1079.22</ele>
        <time>2021-08-15T08:54:37Z</time>
      </trkpt>
      <trkpt lat="45.43253" lon="2.91298">
        <ele>1080.66</ele>
        <time>2021-08-15T08:54:44Z</time>
      </trkpt>
      <trkpt lat="45.43241" lon="2.91301">
        <ele>1079.22</ele>
        <time>2021-08-15T08:54:47Z</time>
      </trkpt>
      <trkpt lat="45.43204" lon="2.91313">
        <ele>1077.78</ele>
        <time>2021-08-15T08:54:54Z</time>
      </trkpt>
      <trkpt lat="45.43175" lon="2.91322">
        <ele>1077.78</ele>
        <time>2021-08-15T08:55:01Z</time>
      </trkpt>
      <trkpt lat="45.43147" lon="2.91331">
        <ele>1078.74</ele>
        <time>2021-08-15T08:55:10Z</time>
      </trkpt>
      <trkpt lat="45.43119" lon="2.91338">
        <ele>1080.18</ele>
        <time>2021-08-15T08:55:20Z</time>
      </trkpt>
      <trkpt lat="45.43098" lon="2.91343">
        <ele>1081.62</ele>
        <time>2021-08-15T08:55:30Z</time>
      </trkpt>
      <trkpt lat="45.43071" lon="2.9135">
        <ele>1084.02</ele>
        <time>2021-08-15T08:55:43Z</time>
      </trkpt>
      <trkpt lat="45.43055" lon="2.91355">
        <ele>1085.47</ele>
        <time>2021-08-15T08:55:52Z</time>
      </trkpt>
      <trkpt lat="45.43041" lon="2.91359">
        <ele>1085.95</ele>
        <time>2021-08-15T08:56:01Z</time>
      </trkpt>
      <trkpt lat="45.4303" lon="2.91362">
        <ele>1087.39</ele>
        <time>2021-08-15T08:56:09Z</time>
      </trkpt>
      <trkpt lat="45.43015" lon="2.91373">
        <ele>1089.79</ele>
        <time>2021-08-15T08:56:20Z</time>
      </trkpt>
      <trkpt lat="45.43007" lon="2.9139">
        <ele>1091.71</ele>
        <time>2021-08-15T08:56:30Z</time>
      </trkpt>
      <trkpt lat="45.43001" lon="2.91407">
        <ele>1093.16</ele>
        <time>2021-08-15T08:56:39Z</time>
      </trkpt>
      <trkpt lat="45.42989" lon="2.91413">
        <ele>1094.6</ele>
        <time>2021-08-15T08:56:48Z</time>
      </trkpt>
      <trkpt lat="45.42983" lon="2.91414">
        <ele>1096.52</ele>
        <time>2021-08-15T08:56:52Z</time>
      </trkpt>
      <trkpt lat="45.42968" lon="2.91409">
        <ele>1097</ele>
        <time>2021-08-15T08:57:04Z</time>
      </trkpt>
      <trkpt lat="45.42958" lon="2.914">
        <ele>1097.96</ele>
        <time>2021-08-15T08:57:13Z</time>
      </trkpt>
      <trkpt lat="45.42948" lon="2.91388">
        <ele>1099.89</ele>
        <time>2021-08-15T08:57:22Z</time>
      </trkpt>
      <trkpt lat="45.42947" lon="2.91387">
        <ele>1099.89</ele>
        <time>2021-08-15T08:57:23Z</time>
      </trkpt>
      <trkpt lat="45.42946" lon="2.91386">
        <ele>1100.37</ele>
        <time>2021-08-15T08:57:24Z</time>
      </trkpt>
      <trkpt lat="45.42946" lon="2.91384">
        <ele>1100.37</ele>
        <time>2021-08-15T08:57:25Z</time>
      </trkpt>
      <trkpt lat="45.42945" lon="2.91383">
        <ele>1100.37</ele>
        <time>2021-08-15T08:57:26Z</time>
      </trkpt>
      <trkpt lat="45.42944" lon="2.91381">
        <ele>1100.37</ele>
        <time>2021-08-15T08:57:27Z</time>
      </trkpt>
      <trkpt lat="45.42944" lon="2.91379">
        <ele>1100.85</ele>
        <time>2021-08-15T08:57:28Z</time>
      </trkpt>
      <trkpt lat="45.42943" lon="2.91377">
        <ele>1100.85</ele>
        <time>2021-08-15T08:57:29Z</time>
      </trkpt>
      <trkpt lat="45.42942" lon="2.91376">
        <ele>1100.85</ele>
        <time>2021-08-15T08:57:30Z</time>
      </trkpt>
      <trkpt lat="45.42935" lon="2.91359">
        <ele>1103.25</ele>
        <time>2021-08-15T08:57:40Z</time>
      </trkpt>
      <trkpt lat="45.4293" lon="2.91352">
        <ele>1103.73</ele>
        <time>2021-08-15T08:57:45Z</time>
      </trkpt>
      <trkpt lat="45.4293" lon="2.91349">
        <ele>1103.73</ele>
        <time>2021-08-15T08:57:46Z</time>
      </trkpt>
      <trkpt lat="45.42929" lon="2.91347">
        <ele>1104.21</ele>
        <time>2021-08-15T08:57:47Z</time>
      </trkpt>
      <trkpt lat="45.42926" lon="2.91338">
        <ele>1104.69</ele>
        <time>2021-08-15T08:57:53Z</time>
      </trkpt>
      <trkpt lat="45.42925" lon="2.91338">
        <ele>1105.17</ele>
        <time>2021-08-15T08:57:54Z</time>
      </trkpt>
      <trkpt lat="45.42924" lon="2.91337">
        <ele>1105.65</ele>
        <time>2021-08-15T08:57:55Z</time>
      </trkpt>
      <trkpt lat="45.42922" lon="2.91337">
        <ele>1105.65</ele>
        <time>2021-08-15T08:57:56Z</time>
      </trkpt>
      <trkpt lat="45.42921" lon="2.91337">
        <ele>1107.1</ele>
        <time>2021-08-15T08:57:57Z</time>
      </trkpt>
      <trkpt lat="45.42919" lon="2.91337">
        <ele>1107.1</ele>
        <time>2021-08-15T08:57:58Z</time>
      </trkpt>
      <trkpt lat="45.42908" lon="2.9133">
        <ele>1108.06</ele>
        <time>2021-08-15T08:58:07Z</time>
      </trkpt>
      <trkpt lat="45.42896" lon="2.91328">
        <ele>1109.98</ele>
        <time>2021-08-15T08:58:16Z</time>
      </trkpt>
      <trkpt lat="45.42883" lon="2.91328">
        <ele>1110.94</ele>
        <time>2021-08-15T08:58:25Z</time>
      </trkpt>
      <trkpt lat="45.42865" lon="2.91325">
        <ele>1112.86</ele>
        <time>2021-08-15T08:58:37Z</time>
      </trkpt>
      <trkpt lat="45.42847" lon="2.91323">
        <ele>1115.27</ele>
        <time>2021-08-15T08:58:48Z</time>
      </trkpt>
      <trkpt lat="45.42833" lon="2.91325">
        <ele>1116.71</ele>
        <time>2021-08-15T08:58:58Z</time>
      </trkpt>
      <trkpt lat="45.42823" lon="2.91327">
        <ele>1117.67</ele>
        <time>2021-08-15T08:59:05Z</time>
      </trkpt>
      <trkpt lat="45.42811" lon="2.91335">
        <ele>1119.11</ele>
        <time>2021-08-15T08:59:15Z</time>
      </trkpt>
      <trkpt lat="45.428" lon="2.91341">
        <ele>1121.03</ele>
        <time>2021-08-15T08:59:24Z</time>
      </trkpt>
      <trkpt lat="45.42791" lon="2.91347">
        <ele>1122.48</ele>
        <time>2021-08-15T08:59:32Z</time>
      </trkpt>
      <trkpt lat="45.4278" lon="2.91352">
        <ele>1123.92</ele>
        <time>2021-08-15T08:59:41Z</time>
      </trkpt>
      <trkpt lat="45.42768" lon="2.91354">
        <ele>1126.32</ele>
        <time>2021-08-15T08:59:50Z</time>
      </trkpt>
      <trkpt lat="45.42754" lon="2.91355">
        <ele>1127.28</ele>
        <time>2021-08-15T08:59:59Z</time>
      </trkpt>
      <trkpt lat="45.42751" lon="2.91357">
        <ele>1127.28</ele>
        <time>2021-08-15T09:00:01Z</time>
      </trkpt>
      <trkpt lat="45.4275" lon="2.91359">
        <ele>1127.28</ele>
        <time>2021-08-15T09:00:02Z</time>
      </trkpt>
      <trkpt lat="45.42748" lon="2.91361">
        <ele>1127.28</ele>
        <time>2021-08-15T09:00:03Z</time>
      </trkpt>
      <trkpt lat="45.42747" lon="2.91363">
        <ele>1127.28</ele>
        <time>2021-08-15T09:00:04Z</time>
      </trkpt>
      <trkpt lat="45.42746" lon="2.91365">
        <ele>1127.28</ele>
        <time>2021-08-15T09:00:05Z</time>
      </trkpt>
      <trkpt lat="45.42745" lon="2.91367">
        <ele>1127.28</ele>
        <time>2021-08-15T09:00:06Z</time>
      </trkpt>
      <trkpt lat="45.42735" lon="2.91387">
        <ele>1127.28</ele>
        <time>2021-08-15T09:00:14Z</time>
      </trkpt>
      <trkpt lat="45.42728" lon="2.91412">
        <ele>1128.73</ele>
        <time>2021-08-15T09:00:23Z</time>
      </trkpt>
      <trkpt lat="45.42724" lon="2.91442">
        <ele>1130.17</ele>
        <time>2021-08-15T09:00:34Z</time>
      </trkpt>
      <trkpt lat="45.42724" lon="2.9146">
        <ele>1131.61</ele>
        <time>2021-08-15T09:00:42Z</time>
      </trkpt>
      <trkpt lat="45.42724" lon="2.91483">
        <ele>1133.05</ele>
        <time>2021-08-15T09:00:52Z</time>
      </trkpt>
      <trkpt lat="45.42722" lon="2.9151">
        <ele>1135.45</ele>
        <time>2021-08-15T09:01:05Z</time>
      </trkpt>
      <trkpt lat="45.42719" lon="2.91527">
        <ele>1137.38</ele>
        <time>2021-08-15T09:01:15Z</time>
      </trkpt>
      <trkpt lat="45.42718" lon="2.91529">
        <ele>1137.38</ele>
        <time>2021-08-15T09:01:16Z</time>
      </trkpt>
      <trkpt lat="45.42718" lon="2.91531">
        <ele>1137.86</ele>
        <time>2021-08-15T09:01:17Z</time>
      </trkpt>
      <trkpt lat="45.42717" lon="2.91533">
        <ele>1137.86</ele>
        <time>2021-08-15T09:01:18Z</time>
      </trkpt>
      <trkpt lat="45.42717" lon="2.91535">
        <ele>1137.86</ele>
        <time>2021-08-15T09:01:19Z</time>
      </trkpt>
      <trkpt lat="45.42716" lon="2.91536">
        <ele>1137.86</ele>
        <time>2021-08-15T09:01:20Z</time>
      </trkpt>
      <trkpt lat="45.42715" lon="2.91539">
        <ele>1138.34</ele>
        <time>2021-08-15T09:01:21Z</time>
      </trkpt>
      <trkpt lat="45.42712" lon="2.91558">
        <ele>1139.78</ele>
        <time>2021-08-15T09:01:31Z</time>
      </trkpt>
      <trkpt lat="45.42705" lon="2.91575">
        <ele>1141.22</ele>
        <time>2021-08-15T09:01:41Z</time>
      </trkpt>
      <trkpt lat="45.42698" lon="2.91584">
        <ele>1142.66</ele>
        <time>2021-08-15T09:01:47Z</time>
      </trkpt>
      <trkpt lat="45.42697" lon="2.91585">
        <ele>1143.14</ele>
        <time>2021-08-15T09:01:48Z</time>
      </trkpt>
      <trkpt lat="45.42696" lon="2.91586">
        <ele>1143.14</ele>
        <time>2021-08-15T09:01:49Z</time>
      </trkpt>
      <trkpt lat="45.42681" lon="2.91594">
        <ele>1144.59</ele>
        <time>2021-08-15T09:02:00Z</time>
      </trkpt>
      <trkpt lat="45.42668" lon="2.91596">
        <ele>1146.03</ele>
        <time>2021-08-15T09:02:10Z</time>
      </trkpt>
      <trkpt lat="45.42655" lon="2.91597">
        <ele>1147.95</ele>
        <time>2021-08-15T09:02:20Z</time>
      </trkpt>
      <trkpt lat="45.42644" lon="2.91597">
        <ele>1149.39</ele>
        <time>2021-08-15T09:02:29Z</time>
      </trkpt>
      <trkpt lat="45.4263" lon="2.91593">
        <ele>1151.32</ele>
        <time>2021-08-15T09:02:39Z</time>
      </trkpt>
      <trkpt lat="45.42621" lon="2.91591">
        <ele>1151.8</ele>
        <time>2021-08-15T09:02:45Z</time>
      </trkpt>
      <trkpt lat="45.4262" lon="2.91591">
        <ele>1151.8</ele>
        <time>2021-08-15T09:02:46Z</time>
      </trkpt>
      <trkpt lat="45.42608" lon="2.91589">
        <ele>1152.76</ele>
        <time>2021-08-15T09:02:54Z</time>
      </trkpt>
      <trkpt lat="45.42595" lon="2.91587">
        <ele>1154.2</ele>
        <time>2021-08-15T09:03:02Z</time>
      </trkpt>
      <trkpt lat="45.4258" lon="2.91583">
        <ele>1156.6</ele>
        <time>2021-08-15T09:03:10Z</time>
      </trkpt>
      <trkpt lat="45.42558" lon="2.9158">
        <ele>1157.56</ele>
        <time>2021-08-15T09:03:21Z</time>
      </trkpt>
      <trkpt lat="45.42537" lon="2.91576">
        <ele>1159.49</ele>
        <time>2021-08-15T09:03:31Z</time>
      </trkpt>
      <trkpt lat="45.42509" lon="2.91572">
        <ele>1160.45</ele>
        <time>2021-08-15T09:03:42Z</time>
      </trkpt>
      <trkpt lat="45.42485" lon="2.9157">
        <ele>1161.89</ele>
        <time>2021-08-15T09:03:51Z</time>
      </trkpt>
      <trkpt lat="45.42457" lon="2.91564">
        <ele>1163.33</ele>
        <time>2021-08-15T09:04:02Z</time>
      </trkpt>
      <trkpt lat="45.4245" lon="2.91563">
        <ele>1164.77</ele>
        <time>2021-08-15T09:04:05Z</time>
      </trkpt>
      <trkpt lat="45.42427" lon="2.91562">
        <ele>1165.26</ele>
        <time>2021-08-15T09:04:15Z</time>
      </trkpt>
      <trkpt lat="45.42405" lon="2.91564">
        <ele>1167.66</ele>
        <time>2021-08-15T09:04:26Z</time>
      </trkpt>
      <trkpt lat="45.4239" lon="2.91563">
        <ele>1170.06</ele>
        <time>2021-08-15T09:04:36Z</time>
      </trkpt>
      <trkpt lat="45.42371" lon="2.91566">
        <ele>1171.02</ele>
        <time>2021-08-15T09:04:48Z</time>
      </trkpt>
      <trkpt lat="45.42358" lon="2.91567">
        <ele>1172.47</ele>
        <time>2021-08-15T09:04:56Z</time>
      </trkpt>
      <trkpt lat="45.42339" lon="2.91575">
        <ele>1172.95</ele>
        <time>2021-08-15T09:05:06Z</time>
      </trkpt>
      <trkpt lat="45.42336" lon="2.91593">
        <ele>1173.43</ele>
        <time>2021-08-15T09:05:12Z</time>
      </trkpt>
      <trkpt lat="45.42344" lon="2.91613">
        <ele>1173.91</ele>
        <time>2021-08-15T09:05:17Z</time>
      </trkpt>
      <trkpt lat="45.42346" lon="2.91619">
        <ele>1173.91</ele>
        <time>2021-08-15T09:05:18Z</time>
      </trkpt>
      <trkpt lat="45.42357" lon="2.9164">
        <ele>1173.91</ele>
        <time>2021-08-15T09:05:22Z</time>
      </trkpt>
      <trkpt lat="45.42359" lon="2.91645">
        <ele>1173.91</ele>
        <time>2021-08-15T09:05:23Z</time>
      </trkpt>
      <trkpt lat="45.42363" lon="2.91652">
        <ele>1173.91</ele>
        <time>2021-08-15T09:05:24Z</time>
      </trkpt>
      <trkpt lat="45.42387" lon="2.917">
        <ele>1174.39</ele>
        <time>2021-08-15T09:05:32Z</time>
      </trkpt>
      <trkpt lat="45.4239" lon="2.91704">
        <ele>1174.39</ele>
        <time>2021-08-15T09:05:33Z</time>
      </trkpt>
      <trkpt lat="45.42394" lon="2.91709">
        <ele>1174.39</ele>
        <time>2021-08-15T09:05:34Z</time>
      </trkpt>
      <trkpt lat="45.42397" lon="2.91713">
        <ele>1174.87</ele>
        <time>2021-08-15T09:05:35Z</time>
      </trkpt>
      <trkpt lat="45.42402" lon="2.91719">
        <ele>1174.87</ele>
        <time>2021-08-15T09:05:36Z</time>
      </trkpt>
      <trkpt lat="45.42414" lon="2.91731">
        <ele>1175.35</ele>
        <time>2021-08-15T09:05:39Z</time>
      </trkpt>
      <trkpt lat="45.42417" lon="2.91737">
        <ele>1176.31</ele>
        <time>2021-08-15T09:05:40Z</time>
      </trkpt>
      <trkpt lat="45.42427" lon="2.91753">
        <ele>1176.79</ele>
        <time>2021-08-15T09:05:43Z</time>
      </trkpt>
      <trkpt lat="45.42434" lon="2.91764">
        <ele>1177.27</ele>
        <time>2021-08-15T09:05:45Z</time>
      </trkpt>
      <trkpt lat="45.4246" lon="2.91809">
        <ele>1177.27</ele>
        <time>2021-08-15T09:05:52Z</time>
      </trkpt>
      <trkpt lat="45.4247" lon="2.91832">
        <ele>1175.83</ele>
        <time>2021-08-15T09:05:55Z</time>
      </trkpt>
      <trkpt lat="45.42495" lon="2.91894">
        <ele>1174.87</ele>
        <time>2021-08-15T09:06:02Z</time>
      </trkpt>
      <trkpt lat="45.42498" lon="2.91903">
        <ele>1174.87</ele>
        <time>2021-08-15T09:06:03Z</time>
      </trkpt>
      <trkpt lat="45.42528" lon="2.91975">
        <ele>1173.43</ele>
        <time>2021-08-15T09:06:11Z</time>
      </trkpt>
      <trkpt lat="45.42557" lon="2.92061">
        <ele>1170.06</ele>
        <time>2021-08-15T09:06:19Z</time>
      </trkpt>
      <trkpt lat="45.42561" lon="2.92073">
        <ele>1170.06</ele>
        <time>2021-08-15T09:06:20Z</time>
      </trkpt>
      <trkpt lat="45.42591" lon="2.92169">
        <ele>1166.7</ele>
        <time>2021-08-15T09:06:28Z</time>
      </trkpt>
      <trkpt lat="45.42623" lon="2.92266">
        <ele>1164.29</ele>
        <time>2021-08-15T09:06:36Z</time>
      </trkpt>
      <trkpt lat="45.42655" lon="2.92374">
        <ele>1163.33</ele>
        <time>2021-08-15T09:06:45Z</time>
      </trkpt>
      <trkpt lat="45.42656" lon="2.92384">
        <ele>1163.33</ele>
        <time>2021-08-15T09:06:46Z</time>
      </trkpt>
      <trkpt lat="45.42658" lon="2.92407">
        <ele>1163.33</ele>
        <time>2021-08-15T09:06:48Z</time>
      </trkpt>
      <trkpt lat="45.42658" lon="2.92418">
        <ele>1163.33</ele>
        <time>2021-08-15T09:06:49Z</time>
      </trkpt>
      <trkpt lat="45.42656" lon="2.92491">
        <ele>1166.22</ele>
        <time>2021-08-15T09:06:56Z</time>
      </trkpt>
      <trkpt lat="45.42665" lon="2.92553">
        <ele>1168.14</ele>
        <time>2021-08-15T09:07:03Z</time>
      </trkpt>
      <trkpt lat="45.42673" lon="2.926">
        <ele>1169.58</ele>
        <time>2021-08-15T09:07:09Z</time>
      </trkpt>
      <trkpt lat="45.42674" lon="2.92614">
        <ele>1170.06</ele>
        <time>2021-08-15T09:07:11Z</time>
      </trkpt>
      <trkpt lat="45.42674" lon="2.9262">
        <ele>1170.54</ele>
        <time>2021-08-15T09:07:12Z</time>
      </trkpt>
      <trkpt lat="45.42677" lon="2.92654">
        <ele>1171.02</ele>
        <time>2021-08-15T09:07:19Z</time>
      </trkpt>
      <trkpt lat="45.42678" lon="2.92677">
        <ele>1171.02</ele>
        <time>2021-08-15T09:07:26Z</time>
      </trkpt>
      <trkpt lat="45.42681" lon="2.9271">
        <ele>1171.02</ele>
        <time>2021-08-15T09:07:34Z</time>
      </trkpt>
      <trkpt lat="45.42683" lon="2.92727">
        <ele>1171.02</ele>
        <time>2021-08-15T09:07:37Z</time>
      </trkpt>
      <trkpt lat="45.42684" lon="2.92756">
        <ele>1171.02</ele>
        <time>2021-08-15T09:07:42Z</time>
      </trkpt>
      <trkpt lat="45.42682" lon="2.92765">
        <ele>1171.02</ele>
        <time>2021-08-15T09:07:44Z</time>
      </trkpt>
      <trkpt lat="45.42687" lon="2.92787">
        <ele>1171.02</ele>
        <time>2021-08-15T09:07:48Z</time>
      </trkpt>
      <trkpt lat="45.42691" lon="2.92791">
        <ele>1171.02</ele>
        <time>2021-08-15T09:07:49Z</time>
      </trkpt>
      <trkpt lat="45.42693" lon="2.92796">
        <ele>1171.02</ele>
        <time>2021-08-15T09:07:50Z</time>
      </trkpt>
      <trkpt lat="45.42695" lon="2.92834">
        <ele>1171.02</ele>
        <time>2021-08-15T09:07:57Z</time>
      </trkpt>
      <trkpt lat="45.427" lon="2.92876">
        <ele>1170.54</ele>
        <time>2021-08-15T09:08:05Z</time>
      </trkpt>
      <trkpt lat="45.42706" lon="2.92929">
        <ele>1171.5</ele>
        <time>2021-08-15T09:08:15Z</time>
      </trkpt>
      <trkpt lat="45.42708" lon="2.92951">
        <ele>1171.5</ele>
        <time>2021-08-15T09:08:19Z</time>
      </trkpt>
      <trkpt lat="45.42709" lon="2.93006">
        <ele>1171.5</ele>
        <time>2021-08-15T09:08:28Z</time>
      </trkpt>
      <trkpt lat="45.42709" lon="2.93035">
        <ele>1171.5</ele>
        <time>2021-08-15T09:08:33Z</time>
      </trkpt>
      <trkpt lat="45.42708" lon="2.93041">
        <ele>1171.5</ele>
        <time>2021-08-15T09:08:34Z</time>
      </trkpt>
      <trkpt lat="45.42708" lon="2.93047">
        <ele>1171.5</ele>
        <time>2021-08-15T09:08:35Z</time>
      </trkpt>
      <trkpt lat="45.42708" lon="2.93053">
        <ele>1171.5</ele>
        <time>2021-08-15T09:08:36Z</time>
      </trkpt>
      <trkpt lat="45.42709" lon="2.93059">
        <ele>1171.5</ele>
        <time>2021-08-15T09:08:37Z</time>
      </trkpt>
      <trkpt lat="45.42709" lon="2.93065">
        <ele>1171.5</ele>
        <time>2021-08-15T09:08:38Z</time>
      </trkpt>
      <trkpt lat="45.4271" lon="2.93072">
        <ele>1171.5</ele>
        <time>2021-08-15T09:08:39Z</time>
      </trkpt>
      <trkpt lat="45.42711" lon="2.93078">
        <ele>1171.5</ele>
        <time>2021-08-15T09:08:40Z</time>
      </trkpt>
      <trkpt lat="45.42714" lon="2.93091">
        <ele>1171.5</ele>
        <time>2021-08-15T09:08:42Z</time>
      </trkpt>
      <trkpt lat="45.42731" lon="2.93156">
        <ele>1170.06</ele>
        <time>2021-08-15T09:08:52Z</time>
      </trkpt>
      <trkpt lat="45.42738" lon="2.93182">
        <ele>1170.06</ele>
        <time>2021-08-15T09:08:56Z</time>
      </trkpt>
      <trkpt lat="45.42749" lon="2.93226">
        <ele>1171.5</ele>
        <time>2021-08-15T09:09:04Z</time>
      </trkpt>
      <trkpt lat="45.42759" lon="2.93264">
        <ele>1172.47</ele>
        <time>2021-08-15T09:09:12Z</time>
      </trkpt>
      <trkpt lat="45.42774" lon="2.93317">
        <ele>1172.95</ele>
        <time>2021-08-15T09:09:22Z</time>
      </trkpt>
      <trkpt lat="45.42777" lon="2.93328">
        <ele>1172.95</ele>
        <time>2021-08-15T09:09:24Z</time>
      </trkpt>
      <trkpt lat="45.42778" lon="2.93334">
        <ele>1172.95</ele>
        <time>2021-08-15T09:09:25Z</time>
      </trkpt>
      <trkpt lat="45.42777" lon="2.9334">
        <ele>1172.95</ele>
        <time>2021-08-15T09:09:26Z</time>
      </trkpt>
      <trkpt lat="45.42775" lon="2.93345">
        <ele>1172.95</ele>
        <time>2021-08-15T09:09:27Z</time>
      </trkpt>
      <trkpt lat="45.42772" lon="2.93349">
        <ele>1172.95</ele>
        <time>2021-08-15T09:09:28Z</time>
      </trkpt>
      <trkpt lat="45.42769" lon="2.93351">
        <ele>1172.95</ele>
        <time>2021-08-15T09:09:29Z</time>
      </trkpt>
      <trkpt lat="45.42753" lon="2.93365">
        <ele>1174.87</ele>
        <time>2021-08-15T09:09:36Z</time>
      </trkpt>
      <trkpt lat="45.42737" lon="2.93378">
        <ele>1175.83</ele>
        <time>2021-08-15T09:09:43Z</time>
      </trkpt>
      <trkpt lat="45.42724" lon="2.9339">
        <ele>1177.75</ele>
        <time>2021-08-15T09:09:49Z</time>
      </trkpt>
      <trkpt lat="45.42712" lon="2.93406">
        <ele>1179.67</ele>
        <time>2021-08-15T09:09:57Z</time>
      </trkpt>
      <trkpt lat="45.4271" lon="2.93408">
        <ele>1179.67</ele>
        <time>2021-08-15T09:09:58Z</time>
      </trkpt>
      <trkpt lat="45.42701" lon="2.93435">
        <ele>1180.16</ele>
        <time>2021-08-15T09:10:08Z</time>
      </trkpt>
      <trkpt lat="45.42692" lon="2.93467">
        <ele>1181.12</ele>
        <time>2021-08-15T09:10:17Z</time>
      </trkpt>
      <trkpt lat="45.4268" lon="2.9351">
        <ele>1181.6</ele>
        <time>2021-08-15T09:10:25Z</time>
      </trkpt>
      <trkpt lat="45.42673" lon="2.93536">
        <ele>1180.16</ele>
        <time>2021-08-15T09:10:29Z</time>
      </trkpt>
      <trkpt lat="45.42671" lon="2.93542">
        <ele>1180.16</ele>
        <time>2021-08-15T09:10:30Z</time>
      </trkpt>
      <trkpt lat="45.42665" lon="2.93558">
        <ele>1180.16</ele>
        <time>2021-08-15T09:10:33Z</time>
      </trkpt>
      <trkpt lat="45.42664" lon="2.93563">
        <ele>1180.16</ele>
        <time>2021-08-15T09:10:34Z</time>
      </trkpt>
      <trkpt lat="45.42663" lon="2.93569">
        <ele>1180.16</ele>
        <time>2021-08-15T09:10:35Z</time>
      </trkpt>
      <trkpt lat="45.42662" lon="2.93574">
        <ele>1180.16</ele>
        <time>2021-08-15T09:10:36Z</time>
      </trkpt>
      <trkpt lat="45.4266" lon="2.9358">
        <ele>1181.6</ele>
        <time>2021-08-15T09:10:37Z</time>
      </trkpt>
      <trkpt lat="45.42659" lon="2.93585">
        <ele>1181.6</ele>
        <time>2021-08-15T09:10:38Z</time>
      </trkpt>
      <trkpt lat="45.42652" lon="2.93616">
        <ele>1183.52</ele>
        <time>2021-08-15T09:10:46Z</time>
      </trkpt>
      <trkpt lat="45.42646" lon="2.9364">
        <ele>1184</ele>
        <time>2021-08-15T09:10:53Z</time>
      </trkpt>
      <trkpt lat="45.42637" lon="2.93677">
        <ele>1184.48</ele>
        <time>2021-08-15T09:11:02Z</time>
      </trkpt>
      <trkpt lat="45.42629" lon="2.93702">
        <ele>1184.48</ele>
        <time>2021-08-15T09:11:07Z</time>
      </trkpt>
      <trkpt lat="45.42625" lon="2.93714">
        <ele>1184.48</ele>
        <time>2021-08-15T09:11:09Z</time>
      </trkpt>
      <trkpt lat="45.42624" lon="2.93721">
        <ele>1184.48</ele>
        <time>2021-08-15T09:11:10Z</time>
      </trkpt>
      <trkpt lat="45.42622" lon="2.93728">
        <ele>1183.04</ele>
        <time>2021-08-15T09:11:11Z</time>
      </trkpt>
      <trkpt lat="45.42619" lon="2.93735">
        <ele>1183.04</ele>
        <time>2021-08-15T09:11:12Z</time>
      </trkpt>
      <trkpt lat="45.42617" lon="2.93743">
        <ele>1183.04</ele>
        <time>2021-08-15T09:11:13Z</time>
      </trkpt>
      <trkpt lat="45.42611" lon="2.93759">
        <ele>1182.56</ele>
        <time>2021-08-15T09:11:15Z</time>
      </trkpt>
      <trkpt lat="45.42597" lon="2.93793">
        <ele>1181.6</ele>
        <time>2021-08-15T09:11:19Z</time>
      </trkpt>
      <trkpt lat="45.42581" lon="2.93822">
        <ele>1181.6</ele>
        <time>2021-08-15T09:11:23Z</time>
      </trkpt>
      <trkpt lat="45.42569" lon="2.9384">
        <ele>1183.04</ele>
        <time>2021-08-15T09:11:26Z</time>
      </trkpt>
      <trkpt lat="45.42555" lon="2.9386">
        <ele>1184</ele>
        <time>2021-08-15T09:11:30Z</time>
      </trkpt>
      <trkpt lat="45.42551" lon="2.93864">
        <ele>1184.48</ele>
        <time>2021-08-15T09:11:31Z</time>
      </trkpt>
      <trkpt lat="45.42518" lon="2.93885">
        <ele>1184.96</ele>
        <time>2021-08-15T09:11:39Z</time>
      </trkpt>
      <trkpt lat="45.42476" lon="2.93916">
        <ele>1182.08</ele>
        <time>2021-08-15T09:11:47Z</time>
      </trkpt>
      <trkpt lat="45.42455" lon="2.93936">
        <ele>1182.08</ele>
        <time>2021-08-15T09:11:51Z</time>
      </trkpt>
      <trkpt lat="45.42423" lon="2.93977">
        <ele>1183.52</ele>
        <time>2021-08-15T09:11:59Z</time>
      </trkpt>
      <trkpt lat="45.42405" lon="2.93999">
        <ele>1185.44</ele>
        <time>2021-08-15T09:12:06Z</time>
      </trkpt>
      <trkpt lat="45.42382" lon="2.94025">
        <ele>1186.88</ele>
        <time>2021-08-15T09:12:16Z</time>
      </trkpt>
      <trkpt lat="45.42356" lon="2.94052">
        <ele>1185.44</ele>
        <time>2021-08-15T09:12:23Z</time>
      </trkpt>
      <trkpt lat="45.42342" lon="2.94067">
        <ele>1184.48</ele>
        <time>2021-08-15T09:12:26Z</time>
      </trkpt>
      <trkpt lat="45.42337" lon="2.94072">
        <ele>1184.48</ele>
        <time>2021-08-15T09:12:27Z</time>
      </trkpt>
      <trkpt lat="45.4231" lon="2.941">
        <ele>1184</ele>
        <time>2021-08-15T09:12:33Z</time>
      </trkpt>
      <trkpt lat="45.42305" lon="2.94105">
        <ele>1184</ele>
        <time>2021-08-15T09:12:34Z</time>
      </trkpt>
      <trkpt lat="45.42261" lon="2.94153">
        <ele>1183.04</ele>
        <time>2021-08-15T09:12:44Z</time>
      </trkpt>
      <trkpt lat="45.4224" lon="2.94183">
        <ele>1183.04</ele>
        <time>2021-08-15T09:12:49Z</time>
      </trkpt>
      <trkpt lat="45.42236" lon="2.9419">
        <ele>1184.48</ele>
        <time>2021-08-15T09:12:50Z</time>
      </trkpt>
      <trkpt lat="45.42233" lon="2.94196">
        <ele>1184.48</ele>
        <time>2021-08-15T09:12:51Z</time>
      </trkpt>
      <trkpt lat="45.42191" lon="2.94258">
        <ele>1185.44</ele>
        <time>2021-08-15T09:13:02Z</time>
      </trkpt>
      <trkpt lat="45.4216" lon="2.94306">
        <ele>1185.92</ele>
        <time>2021-08-15T09:13:11Z</time>
      </trkpt>
      <trkpt lat="45.4215" lon="2.94322">
        <ele>1185.92</ele>
        <time>2021-08-15T09:13:14Z</time>
      </trkpt>
      <trkpt lat="45.42147" lon="2.94326">
        <ele>1185.92</ele>
        <time>2021-08-15T09:13:15Z</time>
      </trkpt>
      <trkpt lat="45.42126" lon="2.94359">
        <ele>1186.88</ele>
        <time>2021-08-15T09:13:22Z</time>
      </trkpt>
      <trkpt lat="45.42123" lon="2.94364">
        <ele>1187.37</ele>
        <time>2021-08-15T09:13:23Z</time>
      </trkpt>
      <trkpt lat="45.42121" lon="2.9437">
        <ele>1187.37</ele>
        <time>2021-08-15T09:13:24Z</time>
      </trkpt>
      <trkpt lat="45.42098" lon="2.94424">
        <ele>1186.4</ele>
        <time>2021-08-15T09:13:32Z</time>
      </trkpt>
      <trkpt lat="45.42084" lon="2.94464">
        <ele>1183.04</ele>
        <time>2021-08-15T09:13:36Z</time>
      </trkpt>
      <trkpt lat="45.42083" lon="2.94477">
        <ele>1182.08</ele>
        <time>2021-08-15T09:13:37Z</time>
      </trkpt>
      <trkpt lat="45.42083" lon="2.94491">
        <ele>1180.64</ele>
        <time>2021-08-15T09:13:38Z</time>
      </trkpt>
      <trkpt lat="45.42084" lon="2.94505">
        <ele>1179.67</ele>
        <time>2021-08-15T09:13:39Z</time>
      </trkpt>
      <trkpt lat="45.42086" lon="2.9452">
        <ele>1178.71</ele>
        <time>2021-08-15T09:13:40Z</time>
      </trkpt>
      <trkpt lat="45.42087" lon="2.94549">
        <ele>1177.75</ele>
        <time>2021-08-15T09:13:42Z</time>
      </trkpt>
      <trkpt lat="45.42086" lon="2.94566">
        <ele>1177.27</ele>
        <time>2021-08-15T09:13:43Z</time>
      </trkpt>
      <trkpt lat="45.42085" lon="2.94597">
        <ele>1176.31</ele>
        <time>2021-08-15T09:13:45Z</time>
      </trkpt>
      <trkpt lat="45.42086" lon="2.94613">
        <ele>1175.35</ele>
        <time>2021-08-15T09:13:46Z</time>
      </trkpt>
      <trkpt lat="45.42088" lon="2.94629">
        <ele>1174.39</ele>
        <time>2021-08-15T09:13:47Z</time>
      </trkpt>
      <trkpt lat="45.42089" lon="2.94646">
        <ele>1172.47</ele>
        <time>2021-08-15T09:13:48Z</time>
      </trkpt>
      <trkpt lat="45.42088" lon="2.94663">
        <ele>1171.5</ele>
        <time>2021-08-15T09:13:49Z</time>
      </trkpt>
      <trkpt lat="45.42087" lon="2.94681">
        <ele>1170.54</ele>
        <time>2021-08-15T09:13:50Z</time>
      </trkpt>
      <trkpt lat="45.42084" lon="2.94701">
        <ele>1169.58</ele>
        <time>2021-08-15T09:13:51Z</time>
      </trkpt>
      <trkpt lat="45.4208" lon="2.94717">
        <ele>1168.62</ele>
        <time>2021-08-15T09:13:52Z</time>
      </trkpt>
      <trkpt lat="45.42067" lon="2.94776">
        <ele>1163.81</ele>
        <time>2021-08-15T09:13:55Z</time>
      </trkpt>
      <trkpt lat="45.42052" lon="2.94853">
        <ele>1159.01</ele>
        <time>2021-08-15T09:13:59Z</time>
      </trkpt>
      <trkpt lat="45.42036" lon="2.94912">
        <ele>1155.64</ele>
        <time>2021-08-15T09:14:02Z</time>
      </trkpt>
      <trkpt lat="45.42026" lon="2.94947">
        <ele>1155.16</ele>
        <time>2021-08-15T09:14:04Z</time>
      </trkpt>
      <trkpt lat="45.4202" lon="2.94959">
        <ele>1155.16</ele>
        <time>2021-08-15T09:14:05Z</time>
      </trkpt>
      <trkpt lat="45.42013" lon="2.94968">
        <ele>1157.56</ele>
        <time>2021-08-15T09:14:06Z</time>
      </trkpt>
      <trkpt lat="45.42005" lon="2.94974">
        <ele>1158.53</ele>
        <time>2021-08-15T09:14:07Z</time>
      </trkpt>
      <trkpt lat="45.41982" lon="2.94989">
        <ele>1162.85</ele>
        <time>2021-08-15T09:14:11Z</time>
      </trkpt>
      <trkpt lat="45.41978" lon="2.94992">
        <ele>1163.81</ele>
        <time>2021-08-15T09:14:12Z</time>
      </trkpt>
      <trkpt lat="45.41965" lon="2.95008">
        <ele>1166.7</ele>
        <time>2021-08-15T09:14:18Z</time>
      </trkpt>
      <trkpt lat="45.41955" lon="2.95027">
        <ele>1168.14</ele>
        <time>2021-08-15T09:14:27Z</time>
      </trkpt>
      <trkpt lat="45.41945" lon="2.95049">
        <ele>1170.54</ele>
        <time>2021-08-15T09:14:37Z</time>
      </trkpt>
      <trkpt lat="45.41941" lon="2.95072">
        <ele>1171.98</ele>
        <time>2021-08-15T09:14:46Z</time>
      </trkpt>
      <trkpt lat="45.41941" lon="2.95078">
        <ele>1172.47</ele>
        <time>2021-08-15T09:14:48Z</time>
      </trkpt>
      <trkpt lat="45.4194" lon="2.9508">
        <ele>1172.95</ele>
        <time>2021-08-15T09:14:49Z</time>
      </trkpt>
      <trkpt lat="45.41938" lon="2.95083">
        <ele>1172.95</ele>
        <time>2021-08-15T09:14:50Z</time>
      </trkpt>
      <trkpt lat="45.41926" lon="2.95109">
        <ele>1173.91</ele>
        <time>2021-08-15T09:14:59Z</time>
      </trkpt>
      <trkpt lat="45.41908" lon="2.95145">
        <ele>1176.31</ele>
        <time>2021-08-15T09:15:12Z</time>
      </trkpt>
      <trkpt lat="45.41897" lon="2.95178">
        <ele>1178.23</ele>
        <time>2021-08-15T09:15:23Z</time>
      </trkpt>
      <trkpt lat="45.4189" lon="2.95217">
        <ele>1179.19</ele>
        <time>2021-08-15T09:15:34Z</time>
      </trkpt>
      <trkpt lat="45.41884" lon="2.95256">
        <ele>1181.12</ele>
        <time>2021-08-15T09:15:45Z</time>
      </trkpt>
      <trkpt lat="45.41875" lon="2.95291">
        <ele>1183.04</ele>
        <time>2021-08-15T09:15:55Z</time>
      </trkpt>
      <trkpt lat="45.4186" lon="2.95324">
        <ele>1184.48</ele>
        <time>2021-08-15T09:16:06Z</time>
      </trkpt>
      <trkpt lat="45.41848" lon="2.95355">
        <ele>1185.44</ele>
        <time>2021-08-15T09:16:16Z</time>
      </trkpt>
      <trkpt lat="45.4184" lon="2.9539">
        <ele>1187.37</ele>
        <time>2021-08-15T09:16:26Z</time>
      </trkpt>
      <trkpt lat="45.41833" lon="2.95416">
        <ele>1188.81</ele>
        <time>2021-08-15T09:16:34Z</time>
      </trkpt>
      <trkpt lat="45.41818" lon="2.95442">
        <ele>1190.25</ele>
        <time>2021-08-15T09:16:43Z</time>
      </trkpt>
      <trkpt lat="45.41798" lon="2.95458">
        <ele>1191.21</ele>
        <time>2021-08-15T09:16:53Z</time>
      </trkpt>
      <trkpt lat="45.4178" lon="2.95461">
        <ele>1192.17</ele>
        <time>2021-08-15T09:17:01Z</time>
      </trkpt>
      <trkpt lat="45.41756" lon="2.95465">
        <ele>1194.09</ele>
        <time>2021-08-15T09:17:12Z</time>
      </trkpt>
      <trkpt lat="45.4173" lon="2.95477">
        <ele>1196.02</ele>
        <time>2021-08-15T09:17:24Z</time>
      </trkpt>
      <trkpt lat="45.4171" lon="2.9549">
        <ele>1197.46</ele>
        <time>2021-08-15T09:17:34Z</time>
      </trkpt>
      <trkpt lat="45.41692" lon="2.95499">
        <ele>1197.94</ele>
        <time>2021-08-15T09:17:42Z</time>
      </trkpt>
      <trkpt lat="45.41674" lon="2.95515">
        <ele>1199.38</ele>
        <time>2021-08-15T09:17:50Z</time>
      </trkpt>
      <trkpt lat="45.41656" lon="2.95535">
        <ele>1200.34</ele>
        <time>2021-08-15T09:17:58Z</time>
      </trkpt>
      <trkpt lat="45.41637" lon="2.95544">
        <ele>1201.3</ele>
        <time>2021-08-15T09:18:06Z</time>
      </trkpt>
      <trkpt lat="45.41618" lon="2.95548">
        <ele>1201.79</ele>
        <time>2021-08-15T09:18:15Z</time>
      </trkpt>
      <trkpt lat="45.41594" lon="2.95555">
        <ele>1203.71</ele>
        <time>2021-08-15T09:18:26Z</time>
      </trkpt>
      <trkpt lat="45.41574" lon="2.95566">
        <ele>1205.15</ele>
        <time>2021-08-15T09:18:36Z</time>
      </trkpt>
      <trkpt lat="45.41556" lon="2.95591">
        <ele>1207.07</ele>
        <time>2021-08-15T09:18:47Z</time>
      </trkpt>
      <trkpt lat="45.41542" lon="2.95627">
        <ele>1209.48</ele>
        <time>2021-08-15T09:19:00Z</time>
      </trkpt>
      <trkpt lat="45.41533" lon="2.95643">
        <ele>1210.92</ele>
        <time>2021-08-15T09:19:08Z</time>
      </trkpt>
      <trkpt lat="45.41532" lon="2.95643">
        <ele>1210.44</ele>
        <time>2021-08-15T09:19:09Z</time>
      </trkpt>
      <trkpt lat="45.4153" lon="2.95644">
        <ele>1210.92</ele>
        <time>2021-08-15T09:19:10Z</time>
      </trkpt>
      <trkpt lat="45.41529" lon="2.95644">
        <ele>1210.92</ele>
        <time>2021-08-15T09:19:11Z</time>
      </trkpt>
      <trkpt lat="45.41528" lon="2.95644">
        <ele>1210.92</ele>
        <time>2021-08-15T09:19:12Z</time>
      </trkpt>
      <trkpt lat="45.41526" lon="2.95644">
        <ele>1211.88</ele>
        <time>2021-08-15T09:19:13Z</time>
      </trkpt>
      <trkpt lat="45.41525" lon="2.95644">
        <ele>1211.88</ele>
        <time>2021-08-15T09:19:14Z</time>
      </trkpt>
      <trkpt lat="45.41524" lon="2.95644">
        <ele>1211.88</ele>
        <time>2021-08-15T09:19:15Z</time>
      </trkpt>
      <trkpt lat="45.41522" lon="2.95643">
        <ele>1211.88</ele>
        <time>2021-08-15T09:19:16Z</time>
      </trkpt>
      <trkpt lat="45.41521" lon="2.95642">
        <ele>1211.88</ele>
        <time>2021-08-15T09:19:17Z</time>
      </trkpt>
      <trkpt lat="45.41519" lon="2.95642">
        <ele>1211.88</ele>
        <time>2021-08-15T09:19:18Z</time>
      </trkpt>
      <trkpt lat="45.41518" lon="2.9564">
        <ele>1211.88</ele>
        <time>2021-08-15T09:19:19Z</time>
      </trkpt>
      <trkpt lat="45.41516" lon="2.95639">
        <ele>1211.88</ele>
        <time>2021-08-15T09:19:20Z</time>
      </trkpt>
      <trkpt lat="45.41514" lon="2.95638">
        <ele>1211.88</ele>
        <time>2021-08-15T09:19:21Z</time>
      </trkpt>
      <trkpt lat="45.41505" lon="2.95626">
        <ele>1212.36</ele>
        <time>2021-08-15T09:19:28Z</time>
      </trkpt>
      <trkpt lat="45.41491" lon="2.9561">
        <ele>1213.32</ele>
        <time>2021-08-15T09:19:37Z</time>
      </trkpt>
      <trkpt lat="45.41476" lon="2.95592">
        <ele>1214.28</ele>
        <time>2021-08-15T09:19:46Z</time>
      </trkpt>
      <trkpt lat="45.41456" lon="2.95569">
        <ele>1215.72</ele>
        <time>2021-08-15T09:19:56Z</time>
      </trkpt>
      <trkpt lat="45.4144" lon="2.9555">
        <ele>1217.17</ele>
        <time>2021-08-15T09:20:04Z</time>
      </trkpt>
      <trkpt lat="45.41422" lon="2.9553">
        <ele>1218.61</ele>
        <time>2021-08-15T09:20:13Z</time>
      </trkpt>
      <trkpt lat="45.41407" lon="2.95504">
        <ele>1219.09</ele>
        <time>2021-08-15T09:20:22Z</time>
      </trkpt>
      <trkpt lat="45.4139" lon="2.95467">
        <ele>1220.53</ele>
        <time>2021-08-15T09:20:33Z</time>
      </trkpt>
      <trkpt lat="45.41374" lon="2.95436">
        <ele>1221.49</ele>
        <time>2021-08-15T09:20:42Z</time>
      </trkpt>
      <trkpt lat="45.41366" lon="2.95418">
        <ele>1222.93</ele>
        <time>2021-08-15T09:20:48Z</time>
      </trkpt>
      <trkpt lat="45.41356" lon="2.95402">
        <ele>1222.93</ele>
        <time>2021-08-15T09:20:54Z</time>
      </trkpt>
      <trkpt lat="45.41339" lon="2.95374">
        <ele>1224.38</ele>
        <time>2021-08-15T09:21:02Z</time>
      </trkpt>
      <trkpt lat="45.41317" lon="2.95331">
        <ele>1224.86</ele>
        <time>2021-08-15T09:21:13Z</time>
      </trkpt>
      <trkpt lat="45.4131" lon="2.95319">
        <ele>1223.42</ele>
        <time>2021-08-15T09:21:16Z</time>
      </trkpt>
      <trkpt lat="45.41294" lon="2.9529">
        <ele>1221.49</ele>
        <time>2021-08-15T09:21:22Z</time>
      </trkpt>
      <trkpt lat="45.41288" lon="2.95281">
        <ele>1222.93</ele>
        <time>2021-08-15T09:21:24Z</time>
      </trkpt>
      <trkpt lat="45.41277" lon="2.95266">
        <ele>1221.01</ele>
        <time>2021-08-15T09:21:27Z</time>
      </trkpt>
      <trkpt lat="45.4125" lon="2.95236">
        <ele>1220.05</ele>
        <time>2021-08-15T09:21:33Z</time>
      </trkpt>
      <trkpt lat="45.41245" lon="2.95231">
        <ele>1220.05</ele>
        <time>2021-08-15T09:21:34Z</time>
      </trkpt>
      <trkpt lat="45.41241" lon="2.95226">
        <ele>1220.05</ele>
        <time>2021-08-15T09:21:35Z</time>
      </trkpt>
      <trkpt lat="45.41237" lon="2.95221">
        <ele>1220.05</ele>
        <time>2021-08-15T09:21:36Z</time>
      </trkpt>
      <trkpt lat="45.41234" lon="2.95216">
        <ele>1220.05</ele>
        <time>2021-08-15T09:21:37Z</time>
      </trkpt>
      <trkpt lat="45.4123" lon="2.95212">
        <ele>1220.05</ele>
        <time>2021-08-15T09:21:38Z</time>
      </trkpt>
      <trkpt lat="45.41226" lon="2.95208">
        <ele>1220.05</ele>
        <time>2021-08-15T09:21:39Z</time>
      </trkpt>
      <trkpt lat="45.41223" lon="2.95204">
        <ele>1220.05</ele>
        <time>2021-08-15T09:21:40Z</time>
      </trkpt>
      <trkpt lat="45.41216" lon="2.95199">
        <ele>1222.45</ele>
        <time>2021-08-15T09:21:42Z</time>
      </trkpt>
      <trkpt lat="45.41206" lon="2.95191">
        <ele>1223.42</ele>
        <time>2021-08-15T09:21:45Z</time>
      </trkpt>
      <trkpt lat="45.41177" lon="2.95163">
        <ele>1224.38</ele>
        <time>2021-08-15T09:21:53Z</time>
      </trkpt>
      <trkpt lat="45.41175" lon="2.95159">
        <ele>1222.93</ele>
        <time>2021-08-15T09:21:54Z</time>
      </trkpt>
      <trkpt lat="45.41172" lon="2.95153">
        <ele>1222.93</ele>
        <time>2021-08-15T09:21:55Z</time>
      </trkpt>
      <trkpt lat="45.4117" lon="2.95147">
        <ele>1221.97</ele>
        <time>2021-08-15T09:21:56Z</time>
      </trkpt>
      <trkpt lat="45.41168" lon="2.95141">
        <ele>1221.49</ele>
        <time>2021-08-15T09:21:57Z</time>
      </trkpt>
      <trkpt lat="45.41167" lon="2.95134">
        <ele>1221.49</ele>
        <time>2021-08-15T09:21:58Z</time>
      </trkpt>
      <trkpt lat="45.41166" lon="2.95127">
        <ele>1220.53</ele>
        <time>2021-08-15T09:21:59Z</time>
      </trkpt>
      <trkpt lat="45.41164" lon="2.95112">
        <ele>1219.57</ele>
        <time>2021-08-15T09:22:01Z</time>
      </trkpt>
      <trkpt lat="45.4116" lon="2.95087">
        <ele>1216.21</ele>
        <time>2021-08-15T09:22:04Z</time>
      </trkpt>
      <trkpt lat="45.41155" lon="2.95059">
        <ele>1212.36</ele>
        <time>2021-08-15T09:22:07Z</time>
      </trkpt>
      <trkpt lat="45.41151" lon="2.95028">
        <ele>1208.03</ele>
        <time>2021-08-15T09:22:10Z</time>
      </trkpt>
      <trkpt lat="45.41146" lon="2.94997">
        <ele>1206.11</ele>
        <time>2021-08-15T09:22:13Z</time>
      </trkpt>
      <trkpt lat="45.41139" lon="2.94951">
        <ele>1206.11</ele>
        <time>2021-08-15T09:22:18Z</time>
      </trkpt>
      <trkpt lat="45.41139" lon="2.94942">
        <ele>1206.11</ele>
        <time>2021-08-15T09:22:19Z</time>
      </trkpt>
      <trkpt lat="45.41139" lon="2.94933">
        <ele>1207.07</ele>
        <time>2021-08-15T09:22:20Z</time>
      </trkpt>
      <trkpt lat="45.4114" lon="2.94924">
        <ele>1207.55</ele>
        <time>2021-08-15T09:22:21Z</time>
      </trkpt>
      <trkpt lat="45.41142" lon="2.94916">
        <ele>1207.55</ele>
        <time>2021-08-15T09:22:22Z</time>
      </trkpt>
      <trkpt lat="45.41145" lon="2.94908">
        <ele>1207.55</ele>
        <time>2021-08-15T09:22:23Z</time>
      </trkpt>
      <trkpt lat="45.41147" lon="2.94901">
        <ele>1207.55</ele>
        <time>2021-08-15T09:22:24Z</time>
      </trkpt>
      <trkpt lat="45.41149" lon="2.94894">
        <ele>1207.55</ele>
        <time>2021-08-15T09:22:25Z</time>
      </trkpt>
      <trkpt lat="45.41167" lon="2.94837">
        <ele>1208.03</ele>
        <time>2021-08-15T09:22:34Z</time>
      </trkpt>
      <trkpt lat="45.41173" lon="2.94809">
        <ele>1208.03</ele>
        <time>2021-08-15T09:22:38Z</time>
      </trkpt>
      <trkpt lat="45.41174" lon="2.94803">
        <ele>1208.03</ele>
        <time>2021-08-15T09:22:39Z</time>
      </trkpt>
      <trkpt lat="45.41179" lon="2.94783">
        <ele>1208.03</ele>
        <time>2021-08-15T09:22:42Z</time>
      </trkpt>
      <trkpt lat="45.4118" lon="2.94776">
        <ele>1208.51</ele>
        <time>2021-08-15T09:22:43Z</time>
      </trkpt>
      <trkpt lat="45.41182" lon="2.94768">
        <ele>1208.51</ele>
        <time>2021-08-15T09:22:44Z</time>
      </trkpt>
      <trkpt lat="45.41183" lon="2.94762">
        <ele>1208.51</ele>
        <time>2021-08-15T09:22:45Z</time>
      </trkpt>
      <trkpt lat="45.41185" lon="2.94756">
        <ele>1208.51</ele>
        <time>2021-08-15T09:22:46Z</time>
      </trkpt>
      <trkpt lat="45.41197" lon="2.94719">
        <ele>1208.51</ele>
        <time>2021-08-15T09:22:51Z</time>
      </trkpt>
      <trkpt lat="45.41199" lon="2.94714">
        <ele>1208.51</ele>
        <time>2021-08-15T09:22:52Z</time>
      </trkpt>
      <trkpt lat="45.41201" lon="2.94708">
        <ele>1208.51</ele>
        <time>2021-08-15T09:22:53Z</time>
      </trkpt>
      <trkpt lat="45.41202" lon="2.94701">
        <ele>1208.51</ele>
        <time>2021-08-15T09:22:54Z</time>
      </trkpt>
      <trkpt lat="45.41204" lon="2.94694">
        <ele>1208.51</ele>
        <time>2021-08-15T09:22:55Z</time>
      </trkpt>
      <trkpt lat="45.41204" lon="2.94688">
        <ele>1208.51</ele>
        <time>2021-08-15T09:22:56Z</time>
      </trkpt>
      <trkpt lat="45.41204" lon="2.94682">
        <ele>1208.51</ele>
        <time>2021-08-15T09:22:57Z</time>
      </trkpt>
      <trkpt lat="45.41203" lon="2.94677">
        <ele>1209</ele>
        <time>2021-08-15T09:22:58Z</time>
      </trkpt>
      <trkpt lat="45.41201" lon="2.94674">
        <ele>1209.48</ele>
        <time>2021-08-15T09:22:59Z</time>
      </trkpt>
      <trkpt lat="45.412" lon="2.94671">
        <ele>1209.48</ele>
        <time>2021-08-15T09:23:00Z</time>
      </trkpt>
      <trkpt lat="45.41198" lon="2.94669">
        <ele>1209.48</ele>
        <time>2021-08-15T09:23:01Z</time>
      </trkpt>
      <trkpt lat="45.41196" lon="2.94668">
        <ele>1210.44</ele>
        <time>2021-08-15T09:23:02Z</time>
      </trkpt>
      <trkpt lat="45.41195" lon="2.94667">
        <ele>1210.44</ele>
        <time>2021-08-15T09:23:03Z</time>
      </trkpt>
      <trkpt lat="45.41193" lon="2.94665">
        <ele>1210.44</ele>
        <time>2021-08-15T09:23:04Z</time>
      </trkpt>
      <trkpt lat="45.41191" lon="2.94663">
        <ele>1210.44</ele>
        <time>2021-08-15T09:23:05Z</time>
      </trkpt>
      <trkpt lat="45.4119" lon="2.94662">
        <ele>1210.44</ele>
        <time>2021-08-15T09:23:06Z</time>
      </trkpt>
      <trkpt lat="45.41189" lon="2.94661">
        <ele>1210.44</ele>
        <time>2021-08-15T09:23:07Z</time>
      </trkpt>
      <trkpt lat="45.41178" lon="2.94651">
        <ele>1212.36</ele>
        <time>2021-08-15T09:23:16Z</time>
      </trkpt>
      <trkpt lat="45.41166" lon="2.94641">
        <ele>1214.76</ele>
        <time>2021-08-15T09:23:27Z</time>
      </trkpt>
      <trkpt lat="45.41162" lon="2.94638">
        <ele>1215.24</ele>
        <time>2021-08-15T09:23:30Z</time>
      </trkpt>
      <trkpt lat="45.41161" lon="2.94637">
        <ele>1215.24</ele>
        <time>2021-08-15T09:23:31Z</time>
      </trkpt>
      <trkpt lat="45.4116" lon="2.94636">
        <ele>1215.24</ele>
        <time>2021-08-15T09:23:32Z</time>
      </trkpt>
      <trkpt lat="45.41159" lon="2.94635">
        <ele>1216.21</ele>
        <time>2021-08-15T09:23:33Z</time>
      </trkpt>
      <trkpt lat="45.41158" lon="2.94634">
        <ele>1216.21</ele>
        <time>2021-08-15T09:23:34Z</time>
      </trkpt>
      <trkpt lat="45.41157" lon="2.94633">
        <ele>1216.21</ele>
        <time>2021-08-15T09:23:35Z</time>
      </trkpt>
      <trkpt lat="45.41156" lon="2.94632">
        <ele>1216.69</ele>
        <time>2021-08-15T09:23:36Z</time>
      </trkpt>
      <trkpt lat="45.41146" lon="2.94624">
        <ele>1218.13</ele>
        <time>2021-08-15T09:23:45Z</time>
      </trkpt>
      <trkpt lat="45.41143" lon="2.94622">
        <ele>1218.61</ele>
        <time>2021-08-15T09:23:48Z</time>
      </trkpt>
      <trkpt lat="45.4114" lon="2.9462">
        <ele>1219.09</ele>
        <time>2021-08-15T09:23:52Z</time>
      </trkpt>
      <trkpt lat="45.41132" lon="2.94614">
        <ele>1220.05</ele>
        <time>2021-08-15T09:24:00Z</time>
      </trkpt>
      <trkpt lat="45.41124" lon="2.94609">
        <ele>1221.97</ele>
        <time>2021-08-15T09:24:08Z</time>
      </trkpt>
      <trkpt lat="45.41113" lon="2.94601">
        <ele>1223.42</ele>
        <time>2021-08-15T09:24:19Z</time>
      </trkpt>
      <trkpt lat="45.41103" lon="2.94594">
        <ele>1225.34</ele>
        <time>2021-08-15T09:24:29Z</time>
      </trkpt>
      <trkpt lat="45.41094" lon="2.94587">
        <ele>1226.78</ele>
        <time>2021-08-15T09:24:38Z</time>
      </trkpt>
      <trkpt lat="45.41085" lon="2.94579">
        <ele>1227.74</ele>
        <time>2021-08-15T09:24:47Z</time>
      </trkpt>
      <trkpt lat="45.41072" lon="2.94571">
        <ele>1231.11</ele>
        <time>2021-08-15T09:24:59Z</time>
      </trkpt>
      <trkpt lat="45.4106" lon="2.94561">
        <ele>1233.03</ele>
        <time>2021-08-15T09:25:11Z</time>
      </trkpt>
      <trkpt lat="45.41058" lon="2.94559">
        <ele>1233.03</ele>
        <time>2021-08-15T09:25:17Z</time>
      </trkpt>
      <trkpt lat="45.41049" lon="2.94552">
        <ele>1233.99</ele>
        <time>2021-08-15T09:25:24Z</time>
      </trkpt>
      <trkpt lat="45.41033" lon="2.94542">
        <ele>1235.43</ele>
        <time>2021-08-15T09:25:33Z</time>
      </trkpt>
      <trkpt lat="45.41014" lon="2.94528">
        <ele>1235.43</ele>
        <time>2021-08-15T09:25:43Z</time>
      </trkpt>
      <trkpt lat="45.40996" lon="2.94515">
        <ele>1235.43</ele>
        <time>2021-08-15T09:25:52Z</time>
      </trkpt>
      <trkpt lat="45.40992" lon="2.94512">
        <ele>1236.39</ele>
        <time>2021-08-15T09:25:54Z</time>
      </trkpt>
      <trkpt lat="45.40978" lon="2.94503">
        <ele>1238.32</ele>
        <time>2021-08-15T09:26:01Z</time>
      </trkpt>
      <trkpt lat="45.40962" lon="2.9449">
        <ele>1239.28</ele>
        <time>2021-08-15T09:26:10Z</time>
      </trkpt>
      <trkpt lat="45.40938" lon="2.94473">
        <ele>1241.2</ele>
        <time>2021-08-15T09:26:22Z</time>
      </trkpt>
      <trkpt lat="45.40921" lon="2.94461">
        <ele>1241.68</ele>
        <time>2021-08-15T09:26:31Z</time>
      </trkpt>
      <trkpt lat="45.40898" lon="2.94445">
        <ele>1242.16</ele>
        <time>2021-08-15T09:26:40Z</time>
      </trkpt>
      <trkpt lat="45.40874" lon="2.94427">
        <ele>1242.64</ele>
        <time>2021-08-15T09:26:49Z</time>
      </trkpt>
      <trkpt lat="45.40844" lon="2.94407">
        <ele>1244.08</ele>
        <time>2021-08-15T09:27:00Z</time>
      </trkpt>
      <trkpt lat="45.40818" lon="2.94387">
        <ele>1245.04</ele>
        <time>2021-08-15T09:27:09Z</time>
      </trkpt>
      <trkpt lat="45.40798" lon="2.94372">
        <ele>1246.49</ele>
        <time>2021-08-15T09:27:19Z</time>
      </trkpt>
      <trkpt lat="45.40779" lon="2.94359">
        <ele>1247.45</ele>
        <time>2021-08-15T09:27:29Z</time>
      </trkpt>
      <trkpt lat="45.4076" lon="2.94345">
        <ele>1248.41</ele>
        <time>2021-08-15T09:27:39Z</time>
      </trkpt>
      <trkpt lat="45.40746" lon="2.94333">
        <ele>1249.37</ele>
        <time>2021-08-15T09:27:46Z</time>
      </trkpt>
      <trkpt lat="45.40731" lon="2.94324">
        <ele>1251.29</ele>
        <time>2021-08-15T09:27:55Z</time>
      </trkpt>
      <trkpt lat="45.40717" lon="2.94312">
        <ele>1252.74</ele>
        <time>2021-08-15T09:28:05Z</time>
      </trkpt>
      <trkpt lat="45.40716" lon="2.94312">
        <ele>1252.74</ele>
        <time>2021-08-15T09:28:06Z</time>
      </trkpt>
      <trkpt lat="45.40715" lon="2.94311">
        <ele>1253.22</ele>
        <time>2021-08-15T09:28:07Z</time>
      </trkpt>
      <trkpt lat="45.40702" lon="2.94302">
        <ele>1254.66</ele>
        <time>2021-08-15T09:28:17Z</time>
      </trkpt>
      <trkpt lat="45.4069" lon="2.94294">
        <ele>1255.62</ele>
        <time>2021-08-15T09:28:26Z</time>
      </trkpt>
      <trkpt lat="45.4068" lon="2.94286">
        <ele>1257.06</ele>
        <time>2021-08-15T09:28:34Z</time>
      </trkpt>
      <trkpt lat="45.40668" lon="2.94278">
        <ele>1258.5</ele>
        <time>2021-08-15T09:28:43Z</time>
      </trkpt>
      <trkpt lat="45.4065" lon="2.94265">
        <ele>1259.46</ele>
        <time>2021-08-15T09:28:53Z</time>
      </trkpt>
      <trkpt lat="45.40627" lon="2.94249">
        <ele>1260.43</ele>
        <time>2021-08-15T09:29:02Z</time>
      </trkpt>
      <trkpt lat="45.40608" lon="2.94236">
        <ele>1261.39</ele>
        <time>2021-08-15T09:29:09Z</time>
      </trkpt>
      <trkpt lat="45.4059" lon="2.94224">
        <ele>1262.83</ele>
        <time>2021-08-15T09:29:16Z</time>
      </trkpt>
      <trkpt lat="45.40568" lon="2.94206">
        <ele>1263.79</ele>
        <time>2021-08-15T09:29:24Z</time>
      </trkpt>
      <trkpt lat="45.40535" lon="2.94182">
        <ele>1263.79</ele>
        <time>2021-08-15T09:29:34Z</time>
      </trkpt>
      <trkpt lat="45.40517" lon="2.94168">
        <ele>1262.35</ele>
        <time>2021-08-15T09:29:39Z</time>
      </trkpt>
      <trkpt lat="45.40505" lon="2.94166">
        <ele>1261.87</ele>
        <time>2021-08-15T09:29:44Z</time>
      </trkpt>
      <trkpt lat="45.40503" lon="2.94163">
        <ele>1261.39</ele>
        <time>2021-08-15T09:29:49Z</time>
      </trkpt>
      <trkpt lat="45.40502" lon="2.94161">
        <ele>1261.39</ele>
        <time>2021-08-15T09:29:56Z</time>
      </trkpt>
      <trkpt lat="45.40502" lon="2.94161">
        <ele>1262.83</ele>
        <time>2021-08-15T09:30:02Z</time>
      </trkpt>
      <trkpt lat="45.40502" lon="2.94159">
        <ele>1262.83</ele>
        <time>2021-08-15T09:30:05Z</time>
      </trkpt>
      <trkpt lat="45.40503" lon="2.94158">
        <ele>1262.83</ele>
        <time>2021-08-15T09:30:12Z</time>
      </trkpt>
      <trkpt lat="45.40501" lon="2.94158">
        <ele>1264.27</ele>
        <time>2021-08-15T09:30:19Z</time>
      </trkpt>
      <trkpt lat="45.40501" lon="2.94158">
        <ele>1264.27</ele>
        <time>2021-08-15T09:30:26Z</time>
      </trkpt>
      <trkpt lat="45.40501" lon="2.94157">
        <ele>1262.83</ele>
        <time>2021-08-15T09:30:44Z</time>
      </trkpt>
      <trkpt lat="45.405" lon="2.94158">
        <ele>1262.83</ele>
        <time>2021-08-15T09:30:47Z</time>
      </trkpt>
      <trkpt lat="45.40498" lon="2.94158">
        <ele>1262.35</ele>
        <time>2021-08-15T09:30:48Z</time>
      </trkpt>
      <trkpt lat="45.40495" lon="2.9416">
        <ele>1262.35</ele>
        <time>2021-08-15T09:30:53Z</time>
      </trkpt>
      <trkpt lat="45.40483" lon="2.94171">
        <ele>1261.39</ele>
        <time>2021-08-15T09:30:58Z</time>
      </trkpt>
      <trkpt lat="45.40462" lon="2.94193">
        <ele>1259.46</ele>
        <time>2021-08-15T09:31:03Z</time>
      </trkpt>
      <trkpt lat="45.40453" lon="2.94203">
        <ele>1257.54</ele>
        <time>2021-08-15T09:31:05Z</time>
      </trkpt>
      <trkpt lat="45.40449" lon="2.9421">
        <ele>1257.54</ele>
        <time>2021-08-15T09:31:06Z</time>
      </trkpt>
      <trkpt lat="45.40439" lon="2.94224">
        <ele>1253.7</ele>
        <time>2021-08-15T09:31:08Z</time>
      </trkpt>
      <trkpt lat="45.40433" lon="2.94232">
        <ele>1253.7</ele>
        <time>2021-08-15T09:31:09Z</time>
      </trkpt>
      <trkpt lat="45.40411" lon="2.94263">
        <ele>1250.81</ele>
        <time>2021-08-15T09:31:13Z</time>
      </trkpt>
      <trkpt lat="45.40388" lon="2.94293">
        <ele>1246.97</ele>
        <time>2021-08-15T09:31:17Z</time>
      </trkpt>
      <trkpt lat="45.40378" lon="2.94307">
        <ele>1245.53</ele>
        <time>2021-08-15T09:31:19Z</time>
      </trkpt>
      <trkpt lat="45.40373" lon="2.94312">
        <ele>1244.56</ele>
        <time>2021-08-15T09:31:20Z</time>
      </trkpt>
      <trkpt lat="45.40368" lon="2.94315">
        <ele>1244.56</ele>
        <time>2021-08-15T09:31:21Z</time>
      </trkpt>
      <trkpt lat="45.40361" lon="2.94315">
        <ele>1243.12</ele>
        <time>2021-08-15T09:31:22Z</time>
      </trkpt>
      <trkpt lat="45.40357" lon="2.94313">
        <ele>1243.12</ele>
        <time>2021-08-15T09:31:23Z</time>
      </trkpt>
      <trkpt lat="45.40352" lon="2.94307">
        <ele>1243.12</ele>
        <time>2021-08-15T09:31:24Z</time>
      </trkpt>
      <trkpt lat="45.40349" lon="2.94302">
        <ele>1242.16</ele>
        <time>2021-08-15T09:31:25Z</time>
      </trkpt>
      <trkpt lat="45.40346" lon="2.94296">
        <ele>1243.12</ele>
        <time>2021-08-15T09:31:26Z</time>
      </trkpt>
      <trkpt lat="45.40344" lon="2.9429">
        <ele>1243.6</ele>
        <time>2021-08-15T09:31:27Z</time>
      </trkpt>
      <trkpt lat="45.40322" lon="2.94236">
        <ele>1244.08</ele>
        <time>2021-08-15T09:31:36Z</time>
      </trkpt>
      <trkpt lat="45.40298" lon="2.94178">
        <ele>1244.56</ele>
        <time>2021-08-15T09:31:46Z</time>
      </trkpt>
      <trkpt lat="45.40271" lon="2.94116">
        <ele>1244.56</ele>
        <time>2021-08-15T09:31:57Z</time>
      </trkpt>
      <trkpt lat="45.40254" lon="2.94073">
        <ele>1244.56</ele>
        <time>2021-08-15T09:32:05Z</time>
      </trkpt>
      <trkpt lat="45.40246" lon="2.94049">
        <ele>1242.64</ele>
        <time>2021-08-15T09:32:09Z</time>
      </trkpt>
      <trkpt lat="45.4023" lon="2.94003">
        <ele>1241.2</ele>
        <time>2021-08-15T09:32:15Z</time>
      </trkpt>
      <trkpt lat="45.40219" lon="2.93975">
        <ele>1239.28</ele>
        <time>2021-08-15T09:32:18Z</time>
      </trkpt>
      <trkpt lat="45.40207" lon="2.93945">
        <ele>1237.35</ele>
        <time>2021-08-15T09:32:21Z</time>
      </trkpt>
      <trkpt lat="45.4019" lon="2.939">
        <ele>1236.87</ele>
        <time>2021-08-15T09:32:26Z</time>
      </trkpt>
      <trkpt lat="45.40187" lon="2.93895">
        <ele>1236.87</ele>
        <time>2021-08-15T09:32:27Z</time>
      </trkpt>
      <trkpt lat="45.40184" lon="2.93889">
        <ele>1235.91</ele>
        <time>2021-08-15T09:32:28Z</time>
      </trkpt>
      <trkpt lat="45.40182" lon="2.93884">
        <ele>1235.91</ele>
        <time>2021-08-15T09:32:29Z</time>
      </trkpt>
      <trkpt lat="45.40181" lon="2.93877">
        <ele>1234.95</ele>
        <time>2021-08-15T09:32:30Z</time>
      </trkpt>
      <trkpt lat="45.40179" lon="2.93871">
        <ele>1234.47</ele>
        <time>2021-08-15T09:32:31Z</time>
      </trkpt>
      <trkpt lat="45.40178" lon="2.93866">
        <ele>1233.99</ele>
        <time>2021-08-15T09:32:32Z</time>
      </trkpt>
      <trkpt lat="45.40176" lon="2.93861">
        <ele>1234.47</ele>
        <time>2021-08-15T09:32:33Z</time>
      </trkpt>
      <trkpt lat="45.40163" lon="2.93836">
        <ele>1234.47</ele>
        <time>2021-08-15T09:32:39Z</time>
      </trkpt>
      <trkpt lat="45.40157" lon="2.93822">
        <ele>1233.51</ele>
        <time>2021-08-15T09:32:42Z</time>
      </trkpt>
      <trkpt lat="45.40156" lon="2.93814">
        <ele>1233.51</ele>
        <time>2021-08-15T09:32:43Z</time>
      </trkpt>
      <trkpt lat="45.4015" lon="2.93778">
        <ele>1230.62</ele>
        <time>2021-08-15T09:32:47Z</time>
      </trkpt>
      <trkpt lat="45.40148" lon="2.93769">
        <ele>1230.62</ele>
        <time>2021-08-15T09:32:48Z</time>
      </trkpt>
      <trkpt lat="45.40144" lon="2.9375">
        <ele>1228.7</ele>
        <time>2021-08-15T09:32:50Z</time>
      </trkpt>
      <trkpt lat="45.40142" lon="2.93739">
        <ele>1227.26</ele>
        <time>2021-08-15T09:32:51Z</time>
      </trkpt>
      <trkpt lat="45.40137" lon="2.93706">
        <ele>1225.82</ele>
        <time>2021-08-15T09:32:54Z</time>
      </trkpt>
      <trkpt lat="45.4013" lon="2.93672">
        <ele>1221.97</ele>
        <time>2021-08-15T09:32:58Z</time>
      </trkpt>
      <trkpt lat="45.40125" lon="2.93652">
        <ele>1220.05</ele>
        <time>2021-08-15T09:33:01Z</time>
      </trkpt>
      <trkpt lat="45.40121" lon="2.93636">
        <ele>1220.05</ele>
        <time>2021-08-15T09:33:04Z</time>
      </trkpt>
      <trkpt lat="45.4012" lon="2.93632">
        <ele>1220.05</ele>
        <time>2021-08-15T09:33:05Z</time>
      </trkpt>
      <trkpt lat="45.4012" lon="2.93629">
        <ele>1220.05</ele>
        <time>2021-08-15T09:33:06Z</time>
      </trkpt>
      <trkpt lat="45.40118" lon="2.93623">
        <ele>1220.05</ele>
        <time>2021-08-15T09:33:08Z</time>
      </trkpt>
      <trkpt lat="45.40105" lon="2.93607">
        <ele>1220.05</ele>
        <time>2021-08-15T09:33:15Z</time>
      </trkpt>
      <trkpt lat="45.40095" lon="2.93599">
        <ele>1218.61</ele>
        <time>2021-08-15T09:33:21Z</time>
      </trkpt>
      <trkpt lat="45.40093" lon="2.93598">
        <ele>1218.13</ele>
        <time>2021-08-15T09:33:22Z</time>
      </trkpt>
      <trkpt lat="45.40089" lon="2.93601">
        <ele>1217.17</ele>
        <time>2021-08-15T09:33:25Z</time>
      </trkpt>
      <trkpt lat="45.40087" lon="2.93602">
        <ele>1216.21</ele>
        <time>2021-08-15T09:33:26Z</time>
      </trkpt>
      <trkpt lat="45.40085" lon="2.93602">
        <ele>1215.72</ele>
        <time>2021-08-15T09:33:27Z</time>
      </trkpt>
      <trkpt lat="45.40082" lon="2.93602">
        <ele>1215.72</ele>
        <time>2021-08-15T09:33:28Z</time>
      </trkpt>
      <trkpt lat="45.40079" lon="2.93602">
        <ele>1215.72</ele>
        <time>2021-08-15T09:33:29Z</time>
      </trkpt>
      <trkpt lat="45.40077" lon="2.93601">
        <ele>1215.72</ele>
        <time>2021-08-15T09:33:30Z</time>
      </trkpt>
      <trkpt lat="45.40074" lon="2.93599">
        <ele>1215.72</ele>
        <time>2021-08-15T09:33:31Z</time>
      </trkpt>
      <trkpt lat="45.40072" lon="2.93598">
        <ele>1214.76</ele>
        <time>2021-08-15T09:33:32Z</time>
      </trkpt>
      <trkpt lat="45.4007" lon="2.93596">
        <ele>1214.76</ele>
        <time>2021-08-15T09:33:33Z</time>
      </trkpt>
      <trkpt lat="45.40069" lon="2.93593">
        <ele>1213.8</ele>
        <time>2021-08-15T09:33:34Z</time>
      </trkpt>
      <trkpt lat="45.40068" lon="2.93591">
        <ele>1213.8</ele>
        <time>2021-08-15T09:33:35Z</time>
      </trkpt>
      <trkpt lat="45.40061" lon="2.93581">
        <ele>1212.36</ele>
        <time>2021-08-15T09:33:41Z</time>
      </trkpt>
      <trkpt lat="45.4006" lon="2.93575">
        <ele>1209.96</ele>
        <time>2021-08-15T09:33:43Z</time>
      </trkpt>
      <trkpt lat="45.40057" lon="2.93572">
        <ele>1209.48</ele>
        <time>2021-08-15T09:33:44Z</time>
      </trkpt>
      <trkpt lat="45.40054" lon="2.93569">
        <ele>1208.51</ele>
        <time>2021-08-15T09:33:45Z</time>
      </trkpt>
      <trkpt lat="45.4005" lon="2.93567">
        <ele>1207.55</ele>
        <time>2021-08-15T09:33:46Z</time>
      </trkpt>
      <trkpt lat="45.40046" lon="2.93566">
        <ele>1207.07</ele>
        <time>2021-08-15T09:33:47Z</time>
      </trkpt>
      <trkpt lat="45.40041" lon="2.93566">
        <ele>1206.59</ele>
        <time>2021-08-15T09:33:48Z</time>
      </trkpt>
      <trkpt lat="45.40036" lon="2.93566">
        <ele>1206.11</ele>
        <time>2021-08-15T09:33:49Z</time>
      </trkpt>
      <trkpt lat="45.40032" lon="2.93566">
        <ele>1205.15</ele>
        <time>2021-08-15T09:33:50Z</time>
      </trkpt>
      <trkpt lat="45.40028" lon="2.93564">
        <ele>1205.15</ele>
        <time>2021-08-15T09:33:51Z</time>
      </trkpt>
      <trkpt lat="45.40025" lon="2.93559">
        <ele>1204.67</ele>
        <time>2021-08-15T09:33:52Z</time>
      </trkpt>
      <trkpt lat="45.40024" lon="2.93554">
        <ele>1204.67</ele>
        <time>2021-08-15T09:33:53Z</time>
      </trkpt>
      <trkpt lat="45.40022" lon="2.93547">
        <ele>1204.19</ele>
        <time>2021-08-15T09:33:54Z</time>
      </trkpt>
      <trkpt lat="45.40022" lon="2.93541">
        <ele>1203.71</ele>
        <time>2021-08-15T09:33:55Z</time>
      </trkpt>
      <trkpt lat="45.40021" lon="2.93536">
        <ele>1203.23</ele>
        <time>2021-08-15T09:33:56Z</time>
      </trkpt>
      <trkpt lat="45.40019" lon="2.93527">
        <ele>1202.75</ele>
        <time>2021-08-15T09:33:58Z</time>
      </trkpt>
      <trkpt lat="45.40019" lon="2.93523">
        <ele>1202.27</ele>
        <time>2021-08-15T09:33:59Z</time>
      </trkpt>
      <trkpt lat="45.4002" lon="2.93518">
        <ele>1202.27</ele>
        <time>2021-08-15T09:34:00Z</time>
      </trkpt>
      <trkpt lat="45.40027" lon="2.93502">
        <ele>1200.82</ele>
        <time>2021-08-15T09:34:03Z</time>
      </trkpt>
      <trkpt lat="45.40029" lon="2.93495">
        <ele>1200.34</ele>
        <time>2021-08-15T09:34:04Z</time>
      </trkpt>
      <trkpt lat="45.4003" lon="2.93487">
        <ele>1200.34</ele>
        <time>2021-08-15T09:34:05Z</time>
      </trkpt>
      <trkpt lat="45.40031" lon="2.93471">
        <ele>1199.38</ele>
        <time>2021-08-15T09:34:07Z</time>
      </trkpt>
      <trkpt lat="45.40031" lon="2.93461">
        <ele>1199.38</ele>
        <time>2021-08-15T09:34:08Z</time>
      </trkpt>
      <trkpt lat="45.4003" lon="2.93453">
        <ele>1198.42</ele>
        <time>2021-08-15T09:34:09Z</time>
      </trkpt>
      <trkpt lat="45.40027" lon="2.93446">
        <ele>1198.42</ele>
        <time>2021-08-15T09:34:10Z</time>
      </trkpt>
      <trkpt lat="45.40024" lon="2.93441">
        <ele>1198.42</ele>
        <time>2021-08-15T09:34:11Z</time>
      </trkpt>
      <trkpt lat="45.4002" lon="2.93437">
        <ele>1198.9</ele>
        <time>2021-08-15T09:34:12Z</time>
      </trkpt>
      <trkpt lat="45.40016" lon="2.93433">
        <ele>1198.9</ele>
        <time>2021-08-15T09:34:13Z</time>
      </trkpt>
      <trkpt lat="45.40011" lon="2.93428">
        <ele>1198.42</ele>
        <time>2021-08-15T09:34:14Z</time>
      </trkpt>
      <trkpt lat="45.39986" lon="2.93406">
        <ele>1199.38</ele>
        <time>2021-08-15T09:34:21Z</time>
      </trkpt>
      <trkpt lat="45.39958" lon="2.93392">
        <ele>1200.34</ele>
        <time>2021-08-15T09:34:28Z</time>
      </trkpt>
      <trkpt lat="45.39931" lon="2.93386">
        <ele>1201.79</ele>
        <time>2021-08-15T09:34:35Z</time>
      </trkpt>
      <trkpt lat="45.39908" lon="2.93382">
        <ele>1203.23</ele>
        <time>2021-08-15T09:34:42Z</time>
      </trkpt>
      <trkpt lat="45.39889" lon="2.93369">
        <ele>1204.19</ele>
        <time>2021-08-15T09:34:49Z</time>
      </trkpt>
      <trkpt lat="45.39871" lon="2.93346">
        <ele>1203.23</ele>
        <time>2021-08-15T09:34:56Z</time>
      </trkpt>
      <trkpt lat="45.39849" lon="2.93319">
        <ele>1202.27</ele>
        <time>2021-08-15T09:35:04Z</time>
      </trkpt>
      <trkpt lat="45.3984" lon="2.93306">
        <ele>1203.23</ele>
        <time>2021-08-15T09:35:08Z</time>
      </trkpt>
      <trkpt lat="45.39829" lon="2.93293">
        <ele>1204.19</ele>
        <time>2021-08-15T09:35:14Z</time>
      </trkpt>
      <trkpt lat="45.39818" lon="2.93277">
        <ele>1205.63</ele>
        <time>2021-08-15T09:35:22Z</time>
      </trkpt>
      <trkpt lat="45.398" lon="2.93254">
        <ele>1205.15</ele>
        <time>2021-08-15T09:35:31Z</time>
      </trkpt>
      <trkpt lat="45.39775" lon="2.93222">
        <ele>1205.15</ele>
        <time>2021-08-15T09:35:41Z</time>
      </trkpt>
      <trkpt lat="45.39751" lon="2.93191">
        <ele>1204.67</ele>
        <time>2021-08-15T09:35:50Z</time>
      </trkpt>
      <trkpt lat="45.39734" lon="2.93173">
        <ele>1204.67</ele>
        <time>2021-08-15T09:35:56Z</time>
      </trkpt>
      <trkpt lat="45.39727" lon="2.93167">
        <ele>1206.11</ele>
        <time>2021-08-15T09:35:59Z</time>
      </trkpt>
      <trkpt lat="45.3971" lon="2.93149">
        <ele>1207.07</ele>
        <time>2021-08-15T09:36:07Z</time>
      </trkpt>
      <trkpt lat="45.39702" lon="2.93143">
        <ele>1209</ele>
        <time>2021-08-15T09:36:13Z</time>
      </trkpt>
      <trkpt lat="45.39695" lon="2.93137">
        <ele>1210.44</ele>
        <time>2021-08-15T09:36:21Z</time>
      </trkpt>
      <trkpt lat="45.39686" lon="2.93127">
        <ele>1211.88</ele>
        <time>2021-08-15T09:36:31Z</time>
      </trkpt>
      <trkpt lat="45.39677" lon="2.93115">
        <ele>1212.36</ele>
        <time>2021-08-15T09:36:41Z</time>
      </trkpt>
      <trkpt lat="45.39666" lon="2.93105">
        <ele>1213.8</ele>
        <time>2021-08-15T09:36:51Z</time>
      </trkpt>
      <trkpt lat="45.39655" lon="2.93101">
        <ele>1214.76</ele>
        <time>2021-08-15T09:37:00Z</time>
      </trkpt>
      <trkpt lat="45.39653" lon="2.931">
        <ele>1214.76</ele>
        <time>2021-08-15T09:37:03Z</time>
      </trkpt>
      <trkpt lat="45.39651" lon="2.93099">
        <ele>1214.76</ele>
        <time>2021-08-15T09:37:04Z</time>
      </trkpt>
      <trkpt lat="45.39629" lon="2.9309">
        <ele>1215.24</ele>
        <time>2021-08-15T09:37:12Z</time>
      </trkpt>
      <trkpt lat="45.39592" lon="2.93078">
        <ele>1215.24</ele>
        <time>2021-08-15T09:37:22Z</time>
      </trkpt>
      <trkpt lat="45.39566" lon="2.93067">
        <ele>1216.21</ele>
        <time>2021-08-15T09:37:29Z</time>
      </trkpt>
      <trkpt lat="45.39542" lon="2.93049">
        <ele>1214.76</ele>
        <time>2021-08-15T09:37:36Z</time>
      </trkpt>
      <trkpt lat="45.39531" lon="2.93029">
        <ele>1214.28</ele>
        <time>2021-08-15T09:37:41Z</time>
      </trkpt>
      <trkpt lat="45.39518" lon="2.92997">
        <ele>1210.92</ele>
        <time>2021-08-15T09:37:47Z</time>
      </trkpt>
      <trkpt lat="45.39515" lon="2.9299">
        <ele>1209.48</ele>
        <time>2021-08-15T09:37:48Z</time>
      </trkpt>
      <trkpt lat="45.39511" lon="2.92985">
        <ele>1209.48</ele>
        <time>2021-08-15T09:37:49Z</time>
      </trkpt>
      <trkpt lat="45.39507" lon="2.92982">
        <ele>1209.48</ele>
        <time>2021-08-15T09:37:50Z</time>
      </trkpt>
      <trkpt lat="45.39502" lon="2.92982">
        <ele>1210.92</ele>
        <time>2021-08-15T09:37:51Z</time>
      </trkpt>
      <trkpt lat="45.39498" lon="2.92982">
        <ele>1210.92</ele>
        <time>2021-08-15T09:37:52Z</time>
      </trkpt>
      <trkpt lat="45.39495" lon="2.92981">
        <ele>1211.88</ele>
        <time>2021-08-15T09:37:53Z</time>
      </trkpt>
      <trkpt lat="45.39493" lon="2.92982">
        <ele>1212.36</ele>
        <time>2021-08-15T09:37:54Z</time>
      </trkpt>
      <trkpt lat="45.3949" lon="2.92982">
        <ele>1212.84</ele>
        <time>2021-08-15T09:37:55Z</time>
      </trkpt>
      <trkpt lat="45.39488" lon="2.92981">
        <ele>1213.8</ele>
        <time>2021-08-15T09:37:56Z</time>
      </trkpt>
      <trkpt lat="45.39486" lon="2.92981">
        <ele>1214.76</ele>
        <time>2021-08-15T09:37:57Z</time>
      </trkpt>
      <trkpt lat="45.39484" lon="2.92981">
        <ele>1214.76</ele>
        <time>2021-08-15T09:37:58Z</time>
      </trkpt>
      <trkpt lat="45.39466" lon="2.92979">
        <ele>1216.21</ele>
        <time>2021-08-15T09:38:06Z</time>
      </trkpt>
      <trkpt lat="45.39441" lon="2.92968">
        <ele>1216.21</ele>
        <time>2021-08-15T09:38:13Z</time>
      </trkpt>
      <trkpt lat="45.39421" lon="2.92958">
        <ele>1216.21</ele>
        <time>2021-08-15T09:38:20Z</time>
      </trkpt>
      <trkpt lat="45.39393" lon="2.92945">
        <ele>1217.17</ele>
        <time>2021-08-15T09:38:30Z</time>
      </trkpt>
      <trkpt lat="45.39383" lon="2.92951">
        <ele>1217.17</ele>
        <time>2021-08-15T09:38:35Z</time>
      </trkpt>
      <trkpt lat="45.39384" lon="2.92954">
        <ele>1217.17</ele>
        <time>2021-08-15T09:38:36Z</time>
      </trkpt>
      <trkpt lat="45.39385" lon="2.92956">
        <ele>1217.17</ele>
        <time>2021-08-15T09:38:37Z</time>
      </trkpt>
      <trkpt lat="45.39387" lon="2.92959">
        <ele>1217.65</ele>
        <time>2021-08-15T09:38:38Z</time>
      </trkpt>
      <trkpt lat="45.39389" lon="2.92962">
        <ele>1217.65</ele>
        <time>2021-08-15T09:38:39Z</time>
      </trkpt>
      <trkpt lat="45.39391" lon="2.92965">
        <ele>1217.65</ele>
        <time>2021-08-15T09:38:40Z</time>
      </trkpt>
      <trkpt lat="45.39393" lon="2.92967">
        <ele>1217.65</ele>
        <time>2021-08-15T09:38:41Z</time>
      </trkpt>
      <trkpt lat="45.39396" lon="2.9297">
        <ele>1218.13</ele>
        <time>2021-08-15T09:38:42Z</time>
      </trkpt>
      <trkpt lat="45.39398" lon="2.92974">
        <ele>1218.13</ele>
        <time>2021-08-15T09:38:43Z</time>
      </trkpt>
      <trkpt lat="45.39417" lon="2.93002">
        <ele>1218.61</ele>
        <time>2021-08-15T09:38:51Z</time>
      </trkpt>
      <trkpt lat="45.39446" lon="2.93053">
        <ele>1220.53</ele>
        <time>2021-08-15T09:39:04Z</time>
      </trkpt>
      <trkpt lat="45.39474" lon="2.93104">
        <ele>1221.97</ele>
        <time>2021-08-15T09:39:16Z</time>
      </trkpt>
      <trkpt lat="45.39495" lon="2.93152">
        <ele>1222.45</ele>
        <time>2021-08-15T09:39:25Z</time>
      </trkpt>
      <trkpt lat="45.39502" lon="2.93188">
        <ele>1222.45</ele>
        <time>2021-08-15T09:39:30Z</time>
      </trkpt>
      <trkpt lat="45.39505" lon="2.93197">
        <ele>1221.49</ele>
        <time>2021-08-15T09:39:31Z</time>
      </trkpt>
      <trkpt lat="45.39508" lon="2.93203">
        <ele>1221.01</ele>
        <time>2021-08-15T09:39:32Z</time>
      </trkpt>
      <trkpt lat="45.39518" lon="2.93225">
        <ele>1221.01</ele>
        <time>2021-08-15T09:39:35Z</time>
      </trkpt>
      <trkpt lat="45.39537" lon="2.93279">
        <ele>1220.05</ele>
        <time>2021-08-15T09:39:41Z</time>
      </trkpt>
      <trkpt lat="45.39539" lon="2.93291">
        <ele>1220.05</ele>
        <time>2021-08-15T09:39:42Z</time>
      </trkpt>
      <trkpt lat="45.3954" lon="2.933">
        <ele>1220.05</ele>
        <time>2021-08-15T09:39:43Z</time>
      </trkpt>
      <trkpt lat="45.39541" lon="2.9331">
        <ele>1219.57</ele>
        <time>2021-08-15T09:39:44Z</time>
      </trkpt>
      <trkpt lat="45.39541" lon="2.93321">
        <ele>1219.57</ele>
        <time>2021-08-15T09:39:45Z</time>
      </trkpt>
      <trkpt lat="45.39544" lon="2.93344">
        <ele>1219.09</ele>
        <time>2021-08-15T09:39:47Z</time>
      </trkpt>
      <trkpt lat="45.39557" lon="2.93426">
        <ele>1218.13</ele>
        <time>2021-08-15T09:39:54Z</time>
      </trkpt>
      <trkpt lat="45.39552" lon="2.93504">
        <ele>1215.72</ele>
        <time>2021-08-15T09:40:00Z</time>
      </trkpt>
      <trkpt lat="45.39551" lon="2.9353">
        <ele>1215.72</ele>
        <time>2021-08-15T09:40:02Z</time>
      </trkpt>
      <trkpt lat="45.39552" lon="2.93543">
        <ele>1215.72</ele>
        <time>2021-08-15T09:40:03Z</time>
      </trkpt>
      <trkpt lat="45.39554" lon="2.93556">
        <ele>1215.72</ele>
        <time>2021-08-15T09:40:04Z</time>
      </trkpt>
      <trkpt lat="45.39561" lon="2.93592">
        <ele>1215.72</ele>
        <time>2021-08-15T09:40:07Z</time>
      </trkpt>
      <trkpt lat="45.39561" lon="2.93605">
        <ele>1216.69</ele>
        <time>2021-08-15T09:40:08Z</time>
      </trkpt>
      <trkpt lat="45.39561" lon="2.93617">
        <ele>1216.69</ele>
        <time>2021-08-15T09:40:09Z</time>
      </trkpt>
      <trkpt lat="45.3956" lon="2.93688">
        <ele>1217.17</ele>
        <time>2021-08-15T09:40:15Z</time>
      </trkpt>
      <trkpt lat="45.39562" lon="2.937">
        <ele>1217.17</ele>
        <time>2021-08-15T09:40:16Z</time>
      </trkpt>
      <trkpt lat="45.39565" lon="2.9371">
        <ele>1217.17</ele>
        <time>2021-08-15T09:40:17Z</time>
      </trkpt>
      <trkpt lat="45.3957" lon="2.9372">
        <ele>1217.17</ele>
        <time>2021-08-15T09:40:18Z</time>
      </trkpt>
      <trkpt lat="45.39575" lon="2.93729">
        <ele>1217.65</ele>
        <time>2021-08-15T09:40:19Z</time>
      </trkpt>
      <trkpt lat="45.39579" lon="2.93738">
        <ele>1217.65</ele>
        <time>2021-08-15T09:40:20Z</time>
      </trkpt>
      <trkpt lat="45.39608" lon="2.93804">
        <ele>1217.65</ele>
        <time>2021-08-15T09:40:27Z</time>
      </trkpt>
      <trkpt lat="45.39638" lon="2.93865">
        <ele>1218.61</ele>
        <time>2021-08-15T09:40:34Z</time>
      </trkpt>
      <trkpt lat="45.39654" lon="2.93921">
        <ele>1219.09</ele>
        <time>2021-08-15T09:40:40Z</time>
      </trkpt>
      <trkpt lat="45.39682" lon="2.93991">
        <ele>1219.57</ele>
        <time>2021-08-15T09:40:48Z</time>
      </trkpt>
      <trkpt lat="45.39697" lon="2.94023">
        <ele>1220.05</ele>
        <time>2021-08-15T09:40:52Z</time>
      </trkpt>
      <trkpt lat="45.39701" lon="2.94032">
        <ele>1220.05</ele>
        <time>2021-08-15T09:40:53Z</time>
      </trkpt>
      <trkpt lat="45.39729" lon="2.94098">
        <ele>1221.01</ele>
        <time>2021-08-15T09:41:01Z</time>
      </trkpt>
      <trkpt lat="45.39756" lon="2.94173">
        <ele>1221.49</ele>
        <time>2021-08-15T09:41:10Z</time>
      </trkpt>
      <trkpt lat="45.39757" lon="2.94183">
        <ele>1221.49</ele>
        <time>2021-08-15T09:41:11Z</time>
      </trkpt>
      <trkpt lat="45.39758" lon="2.94192">
        <ele>1221.49</ele>
        <time>2021-08-15T09:41:12Z</time>
      </trkpt>
      <trkpt lat="45.39758" lon="2.94201">
        <ele>1221.49</ele>
        <time>2021-08-15T09:41:13Z</time>
      </trkpt>
      <trkpt lat="45.39757" lon="2.94211">
        <ele>1221.49</ele>
        <time>2021-08-15T09:41:14Z</time>
      </trkpt>
      <trkpt lat="45.39756" lon="2.9422">
        <ele>1221.49</ele>
        <time>2021-08-15T09:41:15Z</time>
      </trkpt>
      <trkpt lat="45.39754" lon="2.94228">
        <ele>1221.49</ele>
        <time>2021-08-15T09:41:16Z</time>
      </trkpt>
      <trkpt lat="45.39752" lon="2.94237">
        <ele>1221.49</ele>
        <time>2021-08-15T09:41:17Z</time>
      </trkpt>
      <trkpt lat="45.39749" lon="2.94246">
        <ele>1221.49</ele>
        <time>2021-08-15T09:41:18Z</time>
      </trkpt>
      <trkpt lat="45.39744" lon="2.94264">
        <ele>1221.49</ele>
        <time>2021-08-15T09:41:20Z</time>
      </trkpt>
      <trkpt lat="45.39743" lon="2.94273">
        <ele>1221.49</ele>
        <time>2021-08-15T09:41:21Z</time>
      </trkpt>
      <trkpt lat="45.39743" lon="2.94282">
        <ele>1221.49</ele>
        <time>2021-08-15T09:41:22Z</time>
      </trkpt>
      <trkpt lat="45.39743" lon="2.94291">
        <ele>1221.49</ele>
        <time>2021-08-15T09:41:23Z</time>
      </trkpt>
      <trkpt lat="45.39745" lon="2.94301">
        <ele>1221.49</ele>
        <time>2021-08-15T09:41:24Z</time>
      </trkpt>
      <trkpt lat="45.39747" lon="2.9431">
        <ele>1221.49</ele>
        <time>2021-08-15T09:41:25Z</time>
      </trkpt>
      <trkpt lat="45.3975" lon="2.94318">
        <ele>1221.49</ele>
        <time>2021-08-15T09:41:26Z</time>
      </trkpt>
      <trkpt lat="45.39755" lon="2.94336">
        <ele>1221.49</ele>
        <time>2021-08-15T09:41:28Z</time>
      </trkpt>
      <trkpt lat="45.39756" lon="2.94345">
        <ele>1221.49</ele>
        <time>2021-08-15T09:41:29Z</time>
      </trkpt>
      <trkpt lat="45.39756" lon="2.94355">
        <ele>1221.49</ele>
        <time>2021-08-15T09:41:30Z</time>
      </trkpt>
      <trkpt lat="45.39754" lon="2.94364">
        <ele>1221.49</ele>
        <time>2021-08-15T09:41:31Z</time>
      </trkpt>
      <trkpt lat="45.39751" lon="2.94373">
        <ele>1221.49</ele>
        <time>2021-08-15T09:41:32Z</time>
      </trkpt>
      <trkpt lat="45.39747" lon="2.9438">
        <ele>1221.49</ele>
        <time>2021-08-15T09:41:33Z</time>
      </trkpt>
      <trkpt lat="45.39742" lon="2.94387">
        <ele>1221.49</ele>
        <time>2021-08-15T09:41:34Z</time>
      </trkpt>
      <trkpt lat="45.39687" lon="2.94469">
        <ele>1220.53</ele>
        <time>2021-08-15T09:41:45Z</time>
      </trkpt>
      <trkpt lat="45.39684" lon="2.94479">
        <ele>1220.53</ele>
        <time>2021-08-15T09:41:46Z</time>
      </trkpt>
      <trkpt lat="45.39683" lon="2.94489">
        <ele>1220.53</ele>
        <time>2021-08-15T09:41:47Z</time>
      </trkpt>
      <trkpt lat="45.39684" lon="2.94499">
        <ele>1220.53</ele>
        <time>2021-08-15T09:41:48Z</time>
      </trkpt>
      <trkpt lat="45.39686" lon="2.9451">
        <ele>1220.53</ele>
        <time>2021-08-15T09:41:49Z</time>
      </trkpt>
      <trkpt lat="45.39689" lon="2.9452">
        <ele>1220.53</ele>
        <time>2021-08-15T09:41:50Z</time>
      </trkpt>
      <trkpt lat="45.39693" lon="2.94529">
        <ele>1220.05</ele>
        <time>2021-08-15T09:41:51Z</time>
      </trkpt>
      <trkpt lat="45.39698" lon="2.94538">
        <ele>1220.05</ele>
        <time>2021-08-15T09:41:52Z</time>
      </trkpt>
      <trkpt lat="45.39726" lon="2.94601">
        <ele>1220.05</ele>
        <time>2021-08-15T09:41:59Z</time>
      </trkpt>
      <trkpt lat="45.39749" lon="2.94657">
        <ele>1221.49</ele>
        <time>2021-08-15T09:42:05Z</time>
      </trkpt>
      <trkpt lat="45.39751" lon="2.94667">
        <ele>1221.01</ele>
        <time>2021-08-15T09:42:06Z</time>
      </trkpt>
      <trkpt lat="45.39752" lon="2.94677">
        <ele>1221.01</ele>
        <time>2021-08-15T09:42:07Z</time>
      </trkpt>
      <trkpt lat="45.39752" lon="2.94687">
        <ele>1221.01</ele>
        <time>2021-08-15T09:42:08Z</time>
      </trkpt>
      <trkpt lat="45.39751" lon="2.94697">
        <ele>1221.01</ele>
        <time>2021-08-15T09:42:09Z</time>
      </trkpt>
      <trkpt lat="45.39749" lon="2.94706">
        <ele>1221.01</ele>
        <time>2021-08-15T09:42:10Z</time>
      </trkpt>
      <trkpt lat="45.39739" lon="2.94763">
        <ele>1221.97</ele>
        <time>2021-08-15T09:42:16Z</time>
      </trkpt>
      <trkpt lat="45.39736" lon="2.9477">
        <ele>1221.97</ele>
        <time>2021-08-15T09:42:17Z</time>
      </trkpt>
      <trkpt lat="45.39732" lon="2.94777">
        <ele>1221.97</ele>
        <time>2021-08-15T09:42:18Z</time>
      </trkpt>
      <trkpt lat="45.39726" lon="2.94784">
        <ele>1221.97</ele>
        <time>2021-08-15T09:42:19Z</time>
      </trkpt>
      <trkpt lat="45.39721" lon="2.94789">
        <ele>1220.05</ele>
        <time>2021-08-15T09:42:20Z</time>
      </trkpt>
      <trkpt lat="45.39715" lon="2.94795">
        <ele>1220.05</ele>
        <time>2021-08-15T09:42:21Z</time>
      </trkpt>
      <trkpt lat="45.39709" lon="2.948">
        <ele>1220.05</ele>
        <time>2021-08-15T09:42:22Z</time>
      </trkpt>
      <trkpt lat="45.39678" lon="2.94831">
        <ele>1219.57</ele>
        <time>2021-08-15T09:42:27Z</time>
      </trkpt>
      <trkpt lat="45.39674" lon="2.94838">
        <ele>1219.57</ele>
        <time>2021-08-15T09:42:28Z</time>
      </trkpt>
      <trkpt lat="45.3967" lon="2.94848">
        <ele>1219.57</ele>
        <time>2021-08-15T09:42:29Z</time>
      </trkpt>
      <trkpt lat="45.39656" lon="2.94897">
        <ele>1221.01</ele>
        <time>2021-08-15T09:42:34Z</time>
      </trkpt>
      <trkpt lat="45.39652" lon="2.94906">
        <ele>1221.01</ele>
        <time>2021-08-15T09:42:35Z</time>
      </trkpt>
      <trkpt lat="45.39646" lon="2.94913">
        <ele>1221.01</ele>
        <time>2021-08-15T09:42:36Z</time>
      </trkpt>
      <trkpt lat="45.39638" lon="2.94918">
        <ele>1219.57</ele>
        <time>2021-08-15T09:42:37Z</time>
      </trkpt>
      <trkpt lat="45.39631" lon="2.94921">
        <ele>1218.61</ele>
        <time>2021-08-15T09:42:38Z</time>
      </trkpt>
      <trkpt lat="45.39622" lon="2.94921">
        <ele>1218.13</ele>
        <time>2021-08-15T09:42:39Z</time>
      </trkpt>
      <trkpt lat="45.39615" lon="2.94921">
        <ele>1217.65</ele>
        <time>2021-08-15T09:42:40Z</time>
      </trkpt>
      <trkpt lat="45.39607" lon="2.94922">
        <ele>1217.65</ele>
        <time>2021-08-15T09:42:41Z</time>
      </trkpt>
      <trkpt lat="45.39599" lon="2.94925">
        <ele>1217.65</ele>
        <time>2021-08-15T09:42:42Z</time>
      </trkpt>
      <trkpt lat="45.39594" lon="2.94931">
        <ele>1220.05</ele>
        <time>2021-08-15T09:42:43Z</time>
      </trkpt>
      <trkpt lat="45.39589" lon="2.9494">
        <ele>1221.01</ele>
        <time>2021-08-15T09:42:44Z</time>
      </trkpt>
      <trkpt lat="45.39587" lon="2.94948">
        <ele>1221.01</ele>
        <time>2021-08-15T09:42:45Z</time>
      </trkpt>
      <trkpt lat="45.39585" lon="2.94959">
        <ele>1221.01</ele>
        <time>2021-08-15T09:42:46Z</time>
      </trkpt>
      <trkpt lat="45.39584" lon="2.94968">
        <ele>1221.01</ele>
        <time>2021-08-15T09:42:47Z</time>
      </trkpt>
      <trkpt lat="45.39581" lon="2.94996">
        <ele>1221.01</ele>
        <time>2021-08-15T09:42:50Z</time>
      </trkpt>
      <trkpt lat="45.39579" lon="2.95004">
        <ele>1221.01</ele>
        <time>2021-08-15T09:42:51Z</time>
      </trkpt>
      <trkpt lat="45.39568" lon="2.95053">
        <ele>1221.01</ele>
        <time>2021-08-15T09:42:56Z</time>
      </trkpt>
      <trkpt lat="45.39567" lon="2.95062">
        <ele>1219.57</ele>
        <time>2021-08-15T09:42:57Z</time>
      </trkpt>
      <trkpt lat="45.39567" lon="2.95074">
        <ele>1219.57</ele>
        <time>2021-08-15T09:42:58Z</time>
      </trkpt>
      <trkpt lat="45.39568" lon="2.95084">
        <ele>1219.57</ele>
        <time>2021-08-15T09:42:59Z</time>
      </trkpt>
      <trkpt lat="45.3957" lon="2.95095">
        <ele>1219.57</ele>
        <time>2021-08-15T09:43:00Z</time>
      </trkpt>
      <trkpt lat="45.39573" lon="2.95107">
        <ele>1219.57</ele>
        <time>2021-08-15T09:43:01Z</time>
      </trkpt>
      <trkpt lat="45.39591" lon="2.95203">
        <ele>1218.13</ele>
        <time>2021-08-15T09:43:09Z</time>
      </trkpt>
      <trkpt lat="45.39609" lon="2.953">
        <ele>1216.69</ele>
        <time>2021-08-15T09:43:16Z</time>
      </trkpt>
      <trkpt lat="45.39635" lon="2.95399">
        <ele>1214.76</ele>
        <time>2021-08-15T09:43:24Z</time>
      </trkpt>
      <trkpt lat="45.39662" lon="2.95474">
        <ele>1213.8</ele>
        <time>2021-08-15T09:43:30Z</time>
      </trkpt>
      <trkpt lat="45.39678" lon="2.9551">
        <ele>1212.36</ele>
        <time>2021-08-15T09:43:33Z</time>
      </trkpt>
      <trkpt lat="45.39683" lon="2.95523">
        <ele>1212.36</ele>
        <time>2021-08-15T09:43:34Z</time>
      </trkpt>
      <trkpt lat="45.39685" lon="2.95537">
        <ele>1212.36</ele>
        <time>2021-08-15T09:43:35Z</time>
      </trkpt>
      <trkpt lat="45.39686" lon="2.95551">
        <ele>1212.36</ele>
        <time>2021-08-15T09:43:36Z</time>
      </trkpt>
      <trkpt lat="45.39684" lon="2.95565">
        <ele>1212.36</ele>
        <time>2021-08-15T09:43:37Z</time>
      </trkpt>
      <trkpt lat="45.39681" lon="2.95577">
        <ele>1211.4</ele>
        <time>2021-08-15T09:43:38Z</time>
      </trkpt>
      <trkpt lat="45.39677" lon="2.9559">
        <ele>1210.44</ele>
        <time>2021-08-15T09:43:39Z</time>
      </trkpt>
      <trkpt lat="45.39675" lon="2.95604">
        <ele>1210.44</ele>
        <time>2021-08-15T09:43:40Z</time>
      </trkpt>
      <trkpt lat="45.39674" lon="2.95616">
        <ele>1210.44</ele>
        <time>2021-08-15T09:43:41Z</time>
      </trkpt>
      <trkpt lat="45.39675" lon="2.95629">
        <ele>1210.92</ele>
        <time>2021-08-15T09:43:42Z</time>
      </trkpt>
      <trkpt lat="45.39677" lon="2.9564">
        <ele>1210.44</ele>
        <time>2021-08-15T09:43:43Z</time>
      </trkpt>
      <trkpt lat="45.39681" lon="2.95652">
        <ele>1212.36</ele>
        <time>2021-08-15T09:43:44Z</time>
      </trkpt>
      <trkpt lat="45.39684" lon="2.95661">
        <ele>1211.88</ele>
        <time>2021-08-15T09:43:45Z</time>
      </trkpt>
      <trkpt lat="45.39689" lon="2.95672">
        <ele>1213.32</ele>
        <time>2021-08-15T09:43:46Z</time>
      </trkpt>
      <trkpt lat="45.39715" lon="2.9574">
        <ele>1216.21</ele>
        <time>2021-08-15T09:43:54Z</time>
      </trkpt>
      <trkpt lat="45.39718" lon="2.95749">
        <ele>1216.21</ele>
        <time>2021-08-15T09:43:55Z</time>
      </trkpt>
      <trkpt lat="45.39719" lon="2.95757">
        <ele>1216.21</ele>
        <time>2021-08-15T09:43:56Z</time>
      </trkpt>
      <trkpt lat="45.3972" lon="2.95765">
        <ele>1216.69</ele>
        <time>2021-08-15T09:43:57Z</time>
      </trkpt>
      <trkpt lat="45.3972" lon="2.95838">
        <ele>1218.61</ele>
        <time>2021-08-15T09:44:07Z</time>
      </trkpt>
      <trkpt lat="45.3972" lon="2.95897">
        <ele>1219.57</ele>
        <time>2021-08-15T09:44:16Z</time>
      </trkpt>
      <trkpt lat="45.39721" lon="2.95911">
        <ele>1220.05</ele>
        <time>2021-08-15T09:44:18Z</time>
      </trkpt>
      <trkpt lat="45.39723" lon="2.95923">
        <ele>1220.05</ele>
        <time>2021-08-15T09:44:20Z</time>
      </trkpt>
      <trkpt lat="45.39725" lon="2.9593">
        <ele>1220.05</ele>
        <time>2021-08-15T09:44:21Z</time>
      </trkpt>
      <trkpt lat="45.39734" lon="2.95953">
        <ele>1221.97</ele>
        <time>2021-08-15T09:44:25Z</time>
      </trkpt>
      <trkpt lat="45.39737" lon="2.95958">
        <ele>1221.97</ele>
        <time>2021-08-15T09:44:26Z</time>
      </trkpt>
      <trkpt lat="45.39766" lon="2.96004">
        <ele>1221.49</ele>
        <time>2021-08-15T09:44:34Z</time>
      </trkpt>
      <trkpt lat="45.39799" lon="2.96052">
        <ele>1219.09</ele>
        <time>2021-08-15T09:44:42Z</time>
      </trkpt>
      <trkpt lat="45.39823" lon="2.96086">
        <ele>1219.09</ele>
        <time>2021-08-15T09:44:48Z</time>
      </trkpt>
      <trkpt lat="45.39825" lon="2.96093">
        <ele>1219.09</ele>
        <time>2021-08-15T09:44:49Z</time>
      </trkpt>
      <trkpt lat="45.39825" lon="2.96098">
        <ele>1219.09</ele>
        <time>2021-08-15T09:44:50Z</time>
      </trkpt>
      <trkpt lat="45.39823" lon="2.96102">
        <ele>1219.09</ele>
        <time>2021-08-15T09:44:51Z</time>
      </trkpt>
      <trkpt lat="45.3982" lon="2.96105">
        <ele>1219.09</ele>
        <time>2021-08-15T09:44:52Z</time>
      </trkpt>
      <trkpt lat="45.39817" lon="2.96106">
        <ele>1219.09</ele>
        <time>2021-08-15T09:44:53Z</time>
      </trkpt>
      <trkpt lat="45.39813" lon="2.96107">
        <ele>1219.09</ele>
        <time>2021-08-15T09:44:54Z</time>
      </trkpt>
      <trkpt lat="45.3981" lon="2.96108">
        <ele>1219.09</ele>
        <time>2021-08-15T09:44:55Z</time>
      </trkpt>
      <trkpt lat="45.39804" lon="2.96109">
        <ele>1220.53</ele>
        <time>2021-08-15T09:44:57Z</time>
      </trkpt>
      <trkpt lat="45.39797" lon="2.96111">
        <ele>1221.97</ele>
        <time>2021-08-15T09:45:00Z</time>
      </trkpt>
      <trkpt lat="45.39784" lon="2.96125">
        <ele>1223.42</ele>
        <time>2021-08-15T09:45:08Z</time>
      </trkpt>
      <trkpt lat="45.39772" lon="2.96145">
        <ele>1225.34</ele>
        <time>2021-08-15T09:45:17Z</time>
      </trkpt>
      <trkpt lat="45.39766" lon="2.96167">
        <ele>1226.3</ele>
        <time>2021-08-15T09:45:25Z</time>
      </trkpt>
      <trkpt lat="45.39757" lon="2.96206">
        <ele>1227.74</ele>
        <time>2021-08-15T09:45:37Z</time>
      </trkpt>
      <trkpt lat="45.39738" lon="2.96235">
        <ele>1227.74</ele>
        <time>2021-08-15T09:45:45Z</time>
      </trkpt>
      <trkpt lat="45.3972" lon="2.96257">
        <ele>1229.18</ele>
        <time>2021-08-15T09:45:53Z</time>
      </trkpt>
      <trkpt lat="45.39701" lon="2.96268">
        <ele>1230.62</ele>
        <time>2021-08-15T09:46:00Z</time>
      </trkpt>
      <trkpt lat="45.39687" lon="2.96263">
        <ele>1230.62</ele>
        <time>2021-08-15T09:46:04Z</time>
      </trkpt>
      <trkpt lat="45.39649" lon="2.96245">
        <ele>1230.62</ele>
        <time>2021-08-15T09:46:12Z</time>
      </trkpt>
      <trkpt lat="45.39626" lon="2.96236">
        <ele>1229.18</ele>
        <time>2021-08-15T09:46:17Z</time>
      </trkpt>
      <trkpt lat="45.39614" lon="2.96228">
        <ele>1230.14</ele>
        <time>2021-08-15T09:46:20Z</time>
      </trkpt>
      <trkpt lat="45.39611" lon="2.96224">
        <ele>1230.14</ele>
        <time>2021-08-15T09:46:21Z</time>
      </trkpt>
      <trkpt lat="45.39608" lon="2.96221">
        <ele>1231.11</ele>
        <time>2021-08-15T09:46:22Z</time>
      </trkpt>
      <trkpt lat="45.39594" lon="2.96198">
        <ele>1232.55</ele>
        <time>2021-08-15T09:46:29Z</time>
      </trkpt>
      <trkpt lat="45.39589" lon="2.96181">
        <ele>1233.99</ele>
        <time>2021-08-15T09:46:37Z</time>
      </trkpt>
      <trkpt lat="45.39582" lon="2.96166">
        <ele>1236.87</ele>
        <time>2021-08-15T09:46:46Z</time>
      </trkpt>
      <trkpt lat="45.39579" lon="2.96164">
        <ele>1237.35</ele>
        <time>2021-08-15T09:46:48Z</time>
      </trkpt>
      <trkpt lat="45.39563" lon="2.96163">
        <ele>1237.83</ele>
        <time>2021-08-15T09:46:55Z</time>
      </trkpt>
      <trkpt lat="45.39535" lon="2.96168">
        <ele>1237.83</ele>
        <time>2021-08-15T09:47:03Z</time>
      </trkpt>
      <trkpt lat="45.3951" lon="2.96172">
        <ele>1236.39</ele>
        <time>2021-08-15T09:47:09Z</time>
      </trkpt>
      <trkpt lat="45.39476" lon="2.96177">
        <ele>1233.03</ele>
        <time>2021-08-15T09:47:14Z</time>
      </trkpt>
      <trkpt lat="45.39468" lon="2.96178">
        <ele>1233.03</ele>
        <time>2021-08-15T09:47:15Z</time>
      </trkpt>
      <trkpt lat="45.39452" lon="2.9618">
        <ele>1231.59</ele>
        <time>2021-08-15T09:47:17Z</time>
      </trkpt>
      <trkpt lat="45.3942" lon="2.96185">
        <ele>1229.66</ele>
        <time>2021-08-15T09:47:21Z</time>
      </trkpt>
      <trkpt lat="45.39371" lon="2.96191">
        <ele>1231.11</ele>
        <time>2021-08-15T09:47:28Z</time>
      </trkpt>
      <trkpt lat="45.39362" lon="2.96192">
        <ele>1232.55</ele>
        <time>2021-08-15T09:47:30Z</time>
      </trkpt>
      <trkpt lat="45.39354" lon="2.96193">
        <ele>1234.47</ele>
        <time>2021-08-15T09:47:32Z</time>
      </trkpt>
      <trkpt lat="45.39326" lon="2.96198">
        <ele>1234.95</ele>
        <time>2021-08-15T09:47:39Z</time>
      </trkpt>
      <trkpt lat="45.39312" lon="2.96201">
        <ele>1233.51</ele>
        <time>2021-08-15T09:47:42Z</time>
      </trkpt>
      <trkpt lat="45.39271" lon="2.96214">
        <ele>1231.11</ele>
        <time>2021-08-15T09:47:49Z</time>
      </trkpt>
      <trkpt lat="45.39248" lon="2.96221">
        <ele>1227.74</ele>
        <time>2021-08-15T09:47:52Z</time>
      </trkpt>
      <trkpt lat="45.3922" lon="2.9623">
        <ele>1222.93</ele>
        <time>2021-08-15T09:47:55Z</time>
      </trkpt>
      <trkpt lat="45.39201" lon="2.96236">
        <ele>1221.49</ele>
        <time>2021-08-15T09:47:57Z</time>
      </trkpt>
      <trkpt lat="45.39163" lon="2.96241">
        <ele>1221.01</ele>
        <time>2021-08-15T09:48:01Z</time>
      </trkpt>
      <trkpt lat="45.39154" lon="2.9624">
        <ele>1220.53</ele>
        <time>2021-08-15T09:48:02Z</time>
      </trkpt>
      <trkpt lat="45.39137" lon="2.96237">
        <ele>1219.57</ele>
        <time>2021-08-15T09:48:04Z</time>
      </trkpt>
      <trkpt lat="45.39092" lon="2.96215">
        <ele>1219.09</ele>
        <time>2021-08-15T09:48:10Z</time>
      </trkpt>
      <trkpt lat="45.39035" lon="2.96189">
        <ele>1218.61</ele>
        <time>2021-08-15T09:48:18Z</time>
      </trkpt>
      <trkpt lat="45.38983" lon="2.96174">
        <ele>1215.24</ele>
        <time>2021-08-15T09:48:25Z</time>
      </trkpt>
      <trkpt lat="45.38954" lon="2.96161">
        <ele>1213.32</ele>
        <time>2021-08-15T09:48:29Z</time>
      </trkpt>
      <trkpt lat="45.38918" lon="2.96147">
        <ele>1210.44</ele>
        <time>2021-08-15T09:48:33Z</time>
      </trkpt>
      <trkpt lat="45.38892" lon="2.96138">
        <ele>1206.59</ele>
        <time>2021-08-15T09:48:36Z</time>
      </trkpt>
      <trkpt lat="45.38875" lon="2.96135">
        <ele>1206.11</ele>
        <time>2021-08-15T09:48:38Z</time>
      </trkpt>
      <trkpt lat="45.38868" lon="2.96135">
        <ele>1205.15</ele>
        <time>2021-08-15T09:48:39Z</time>
      </trkpt>
      <trkpt lat="45.38841" lon="2.96139">
        <ele>1202.27</ele>
        <time>2021-08-15T09:48:42Z</time>
      </trkpt>
      <trkpt lat="45.38813" lon="2.96143">
        <ele>1200.34</ele>
        <time>2021-08-15T09:48:45Z</time>
      </trkpt>
      <trkpt lat="45.38783" lon="2.9615">
        <ele>1198.9</ele>
        <time>2021-08-15T09:48:49Z</time>
      </trkpt>
      <trkpt lat="45.38776" lon="2.96154">
        <ele>1197.94</ele>
        <time>2021-08-15T09:48:50Z</time>
      </trkpt>
      <trkpt lat="45.38772" lon="2.96158">
        <ele>1197.94</ele>
        <time>2021-08-15T09:48:51Z</time>
      </trkpt>
      <trkpt lat="45.38748" lon="2.96182">
        <ele>1194.09</ele>
        <time>2021-08-15T09:48:55Z</time>
      </trkpt>
      <trkpt lat="45.38743" lon="2.96189">
        <ele>1193.61</ele>
        <time>2021-08-15T09:48:56Z</time>
      </trkpt>
      <trkpt lat="45.3874" lon="2.96197">
        <ele>1193.61</ele>
        <time>2021-08-15T09:48:57Z</time>
      </trkpt>
      <trkpt lat="45.38739" lon="2.96207">
        <ele>1192.65</ele>
        <time>2021-08-15T09:48:58Z</time>
      </trkpt>
      <trkpt lat="45.3874" lon="2.96214">
        <ele>1193.13</ele>
        <time>2021-08-15T09:48:59Z</time>
      </trkpt>
      <trkpt lat="45.38741" lon="2.96223">
        <ele>1192.65</ele>
        <time>2021-08-15T09:49:00Z</time>
      </trkpt>
      <trkpt lat="45.38747" lon="2.96263">
        <ele>1192.17</ele>
        <time>2021-08-15T09:49:04Z</time>
      </trkpt>
      <trkpt lat="45.38747" lon="2.96274">
        <ele>1191.69</ele>
        <time>2021-08-15T09:49:05Z</time>
      </trkpt>
      <trkpt lat="45.38746" lon="2.96286">
        <ele>1190.25</ele>
        <time>2021-08-15T09:49:06Z</time>
      </trkpt>
      <trkpt lat="45.38744" lon="2.96298">
        <ele>1189.29</ele>
        <time>2021-08-15T09:49:07Z</time>
      </trkpt>
      <trkpt lat="45.38742" lon="2.96312">
        <ele>1187.37</ele>
        <time>2021-08-15T09:49:08Z</time>
      </trkpt>
      <trkpt lat="45.38737" lon="2.9634">
        <ele>1184.96</ele>
        <time>2021-08-15T09:49:10Z</time>
      </trkpt>
      <trkpt lat="45.38733" lon="2.96362">
        <ele>1184.96</ele>
        <time>2021-08-15T09:49:12Z</time>
      </trkpt>
      <trkpt lat="45.38728" lon="2.9637">
        <ele>1184.96</ele>
        <time>2021-08-15T09:49:13Z</time>
      </trkpt>
      <trkpt lat="45.38722" lon="2.96377">
        <ele>1184.48</ele>
        <time>2021-08-15T09:49:14Z</time>
      </trkpt>
      <trkpt lat="45.38716" lon="2.9638">
        <ele>1183.52</ele>
        <time>2021-08-15T09:49:15Z</time>
      </trkpt>
      <trkpt lat="45.38709" lon="2.96383">
        <ele>1183.52</ele>
        <time>2021-08-15T09:49:16Z</time>
      </trkpt>
      <trkpt lat="45.38701" lon="2.96385">
        <ele>1183.04</ele>
        <time>2021-08-15T09:49:17Z</time>
      </trkpt>
      <trkpt lat="45.38657" lon="2.96398">
        <ele>1185.44</ele>
        <time>2021-08-15T09:49:23Z</time>
      </trkpt>
      <trkpt lat="45.38608" lon="2.96416">
        <ele>1185.44</ele>
        <time>2021-08-15T09:49:31Z</time>
      </trkpt>
      <trkpt lat="45.38602" lon="2.96419">
        <ele>1185.44</ele>
        <time>2021-08-15T09:49:32Z</time>
      </trkpt>
      <trkpt lat="45.38564" lon="2.96433">
        <ele>1184.96</ele>
        <time>2021-08-15T09:49:38Z</time>
      </trkpt>
      <trkpt lat="45.38557" lon="2.96433">
        <ele>1184</ele>
        <time>2021-08-15T09:49:39Z</time>
      </trkpt>
      <trkpt lat="45.38542" lon="2.96431">
        <ele>1182.56</ele>
        <time>2021-08-15T09:49:41Z</time>
      </trkpt>
      <trkpt lat="45.38535" lon="2.96428">
        <ele>1182.08</ele>
        <time>2021-08-15T09:49:42Z</time>
      </trkpt>
      <trkpt lat="45.38527" lon="2.96425">
        <ele>1181.6</ele>
        <time>2021-08-15T09:49:43Z</time>
      </trkpt>
      <trkpt lat="45.38521" lon="2.96421">
        <ele>1181.6</ele>
        <time>2021-08-15T09:49:44Z</time>
      </trkpt>
      <trkpt lat="45.38514" lon="2.96416">
        <ele>1181.12</ele>
        <time>2021-08-15T09:49:45Z</time>
      </trkpt>
      <trkpt lat="45.38507" lon="2.96412">
        <ele>1181.12</ele>
        <time>2021-08-15T09:49:46Z</time>
      </trkpt>
      <trkpt lat="45.38457" lon="2.96397">
        <ele>1181.12</ele>
        <time>2021-08-15T09:49:54Z</time>
      </trkpt>
      <trkpt lat="45.38433" lon="2.96397">
        <ele>1181.12</ele>
        <time>2021-08-15T09:49:58Z</time>
      </trkpt>
      <trkpt lat="45.38428" lon="2.96395">
        <ele>1181.12</ele>
        <time>2021-08-15T09:49:59Z</time>
      </trkpt>
      <trkpt lat="45.38423" lon="2.96391">
        <ele>1180.16</ele>
        <time>2021-08-15T09:50:00Z</time>
      </trkpt>
      <trkpt lat="45.38412" lon="2.96384">
        <ele>1179.19</ele>
        <time>2021-08-15T09:50:02Z</time>
      </trkpt>
      <trkpt lat="45.38407" lon="2.96382">
        <ele>1178.23</ele>
        <time>2021-08-15T09:50:03Z</time>
      </trkpt>
      <trkpt lat="45.38401" lon="2.96381">
        <ele>1177.27</ele>
        <time>2021-08-15T09:50:04Z</time>
      </trkpt>
      <trkpt lat="45.38396" lon="2.96382">
        <ele>1177.27</ele>
        <time>2021-08-15T09:50:05Z</time>
      </trkpt>
      <trkpt lat="45.38391" lon="2.96384">
        <ele>1177.27</ele>
        <time>2021-08-15T09:50:06Z</time>
      </trkpt>
      <trkpt lat="45.38386" lon="2.96388">
        <ele>1176.79</ele>
        <time>2021-08-15T09:50:07Z</time>
      </trkpt>
      <trkpt lat="45.38382" lon="2.96393">
        <ele>1176.79</ele>
        <time>2021-08-15T09:50:08Z</time>
      </trkpt>
      <trkpt lat="45.38377" lon="2.96399">
        <ele>1176.31</ele>
        <time>2021-08-15T09:50:09Z</time>
      </trkpt>
      <trkpt lat="45.38373" lon="2.96405">
        <ele>1176.31</ele>
        <time>2021-08-15T09:50:10Z</time>
      </trkpt>
      <trkpt lat="45.38369" lon="2.96412">
        <ele>1176.31</ele>
        <time>2021-08-15T09:50:11Z</time>
      </trkpt>
      <trkpt lat="45.38366" lon="2.96419">
        <ele>1176.31</ele>
        <time>2021-08-15T09:50:12Z</time>
      </trkpt>
      <trkpt lat="45.3836" lon="2.96433">
        <ele>1176.31</ele>
        <time>2021-08-15T09:50:14Z</time>
      </trkpt>
      <trkpt lat="45.38357" lon="2.9644">
        <ele>1176.31</ele>
        <time>2021-08-15T09:50:15Z</time>
      </trkpt>
      <trkpt lat="45.38323" lon="2.96493">
        <ele>1175.35</ele>
        <time>2021-08-15T09:50:23Z</time>
      </trkpt>
      <trkpt lat="45.38286" lon="2.96551">
        <ele>1173.43</ele>
        <time>2021-08-15T09:50:31Z</time>
      </trkpt>
      <trkpt lat="45.38247" lon="2.96626">
        <ele>1171.5</ele>
        <time>2021-08-15T09:50:40Z</time>
      </trkpt>
      <trkpt lat="45.38222" lon="2.96667">
        <ele>1170.54</ele>
        <time>2021-08-15T09:50:45Z</time>
      </trkpt>
      <trkpt lat="45.382" lon="2.967">
        <ele>1166.7</ele>
        <time>2021-08-15T09:50:49Z</time>
      </trkpt>
      <trkpt lat="45.38194" lon="2.96709">
        <ele>1166.7</ele>
        <time>2021-08-15T09:50:50Z</time>
      </trkpt>
      <trkpt lat="45.38173" lon="2.96734">
        <ele>1165.26</ele>
        <time>2021-08-15T09:50:53Z</time>
      </trkpt>
      <trkpt lat="45.38141" lon="2.96762">
        <ele>1166.7</ele>
        <time>2021-08-15T09:50:58Z</time>
      </trkpt>
      <trkpt lat="45.38128" lon="2.96768">
        <ele>1166.7</ele>
        <time>2021-08-15T09:51:00Z</time>
      </trkpt>
      <trkpt lat="45.3811" lon="2.9678">
        <ele>1164.77</ele>
        <time>2021-08-15T09:51:03Z</time>
      </trkpt>
      <trkpt lat="45.38104" lon="2.96786">
        <ele>1164.77</ele>
        <time>2021-08-15T09:51:04Z</time>
      </trkpt>
      <trkpt lat="45.38099" lon="2.96793">
        <ele>1163.81</ele>
        <time>2021-08-15T09:51:05Z</time>
      </trkpt>
      <trkpt lat="45.3806" lon="2.96859">
        <ele>1161.41</ele>
        <time>2021-08-15T09:51:13Z</time>
      </trkpt>
      <trkpt lat="45.38052" lon="2.96878">
        <ele>1159.97</ele>
        <time>2021-08-15T09:51:15Z</time>
      </trkpt>
      <trkpt lat="45.3804" lon="2.96911">
        <ele>1159.49</ele>
        <time>2021-08-15T09:51:20Z</time>
      </trkpt>
      <trkpt lat="45.38036" lon="2.96914">
        <ele>1158.05</ele>
        <time>2021-08-15T09:51:21Z</time>
      </trkpt>
      <trkpt lat="45.38032" lon="2.96916">
        <ele>1157.08</ele>
        <time>2021-08-15T09:51:22Z</time>
      </trkpt>
      <trkpt lat="45.38027" lon="2.96915">
        <ele>1157.08</ele>
        <time>2021-08-15T09:51:23Z</time>
      </trkpt>
      <trkpt lat="45.38022" lon="2.96913">
        <ele>1156.12</ele>
        <time>2021-08-15T09:51:24Z</time>
      </trkpt>
      <trkpt lat="45.38019" lon="2.96911">
        <ele>1155.64</ele>
        <time>2021-08-15T09:51:25Z</time>
      </trkpt>
      <trkpt lat="45.38015" lon="2.96908">
        <ele>1155.64</ele>
        <time>2021-08-15T09:51:26Z</time>
      </trkpt>
      <trkpt lat="45.38" lon="2.96899">
        <ele>1156.6</ele>
        <time>2021-08-15T09:51:30Z</time>
      </trkpt>
      <trkpt lat="45.37954" lon="2.96882">
        <ele>1157.08</ele>
        <time>2021-08-15T09:51:42Z</time>
      </trkpt>
      <trkpt lat="45.37935" lon="2.9688">
        <ele>1158.53</ele>
        <time>2021-08-15T09:51:47Z</time>
      </trkpt>
      <trkpt lat="45.3792" lon="2.96888">
        <ele>1159.49</ele>
        <time>2021-08-15T09:51:51Z</time>
      </trkpt>
      <trkpt lat="45.37917" lon="2.96891">
        <ele>1159.97</ele>
        <time>2021-08-15T09:51:52Z</time>
      </trkpt>
      <trkpt lat="45.37914" lon="2.96895">
        <ele>1159.97</ele>
        <time>2021-08-15T09:51:53Z</time>
      </trkpt>
      <trkpt lat="45.37911" lon="2.969">
        <ele>1160.45</ele>
        <time>2021-08-15T09:51:54Z</time>
      </trkpt>
      <trkpt lat="45.37908" lon="2.96905">
        <ele>1160.45</ele>
        <time>2021-08-15T09:51:55Z</time>
      </trkpt>
      <trkpt lat="45.37906" lon="2.9691">
        <ele>1160.45</ele>
        <time>2021-08-15T09:51:56Z</time>
      </trkpt>
      <trkpt lat="45.37886" lon="2.96964">
        <ele>1160.45</ele>
        <time>2021-08-15T09:52:06Z</time>
      </trkpt>
      <trkpt lat="45.37866" lon="2.97008">
        <ele>1163.81</ele>
        <time>2021-08-15T09:52:15Z</time>
      </trkpt>
      <trkpt lat="45.37848" lon="2.97032">
        <ele>1161.41</ele>
        <time>2021-08-15T09:52:21Z</time>
      </trkpt>
      <trkpt lat="45.37841" lon="2.9704">
        <ele>1162.85</ele>
        <time>2021-08-15T09:52:24Z</time>
      </trkpt>
      <trkpt lat="45.37828" lon="2.97054">
        <ele>1163.81</ele>
        <time>2021-08-15T09:52:31Z</time>
      </trkpt>
      <trkpt lat="45.37814" lon="2.97073">
        <ele>1164.29</ele>
        <time>2021-08-15T09:52:38Z</time>
      </trkpt>
      <trkpt lat="45.37791" lon="2.97103">
        <ele>1164.77</ele>
        <time>2021-08-15T09:52:48Z</time>
      </trkpt>
      <trkpt lat="45.37776" lon="2.97133">
        <ele>1166.7</ele>
        <time>2021-08-15T09:52:57Z</time>
      </trkpt>
      <trkpt lat="45.3777" lon="2.97158">
        <ele>1167.66</ele>
        <time>2021-08-15T09:53:05Z</time>
      </trkpt>
      <trkpt lat="45.37766" lon="2.97189">
        <ele>1169.58</ele>
        <time>2021-08-15T09:53:16Z</time>
      </trkpt>
      <trkpt lat="45.37762" lon="2.97222">
        <ele>1170.06</ele>
        <time>2021-08-15T09:53:27Z</time>
      </trkpt>
      <trkpt lat="45.37758" lon="2.97247">
        <ele>1171.5</ele>
        <time>2021-08-15T09:53:34Z</time>
      </trkpt>
      <trkpt lat="45.37754" lon="2.97276">
        <ele>1171.98</ele>
        <time>2021-08-15T09:53:41Z</time>
      </trkpt>
      <trkpt lat="45.37742" lon="2.97313">
        <ele>1173.91</ele>
        <time>2021-08-15T09:53:51Z</time>
      </trkpt>
      <trkpt lat="45.37729" lon="2.97336">
        <ele>1175.35</ele>
        <time>2021-08-15T09:53:59Z</time>
      </trkpt>
      <trkpt lat="45.37716" lon="2.97341">
        <ele>1175.83</ele>
        <time>2021-08-15T09:54:05Z</time>
      </trkpt>
      <trkpt lat="45.37696" lon="2.97331">
        <ele>1176.31</ele>
        <time>2021-08-15T09:54:12Z</time>
      </trkpt>
      <trkpt lat="45.37672" lon="2.97313">
        <ele>1176.79</ele>
        <time>2021-08-15T09:54:21Z</time>
      </trkpt>
      <trkpt lat="45.37649" lon="2.97298">
        <ele>1177.75</ele>
        <time>2021-08-15T09:54:29Z</time>
      </trkpt>
      <trkpt lat="45.37627" lon="2.97296">
        <ele>1178.71</ele>
        <time>2021-08-15T09:54:37Z</time>
      </trkpt>
      <trkpt lat="45.37603" lon="2.973">
        <ele>1180.16</ele>
        <time>2021-08-15T09:54:46Z</time>
      </trkpt>
      <trkpt lat="45.37575" lon="2.97316">
        <ele>1181.12</ele>
        <time>2021-08-15T09:54:56Z</time>
      </trkpt>
      <trkpt lat="45.37561" lon="2.97326">
        <ele>1182.56</ele>
        <time>2021-08-15T09:55:03Z</time>
      </trkpt>
      <trkpt lat="45.37547" lon="2.97337">
        <ele>1183.52</ele>
        <time>2021-08-15T09:55:12Z</time>
      </trkpt>
      <trkpt lat="45.37532" lon="2.97338">
        <ele>1184</ele>
        <time>2021-08-15T09:55:19Z</time>
      </trkpt>
      <trkpt lat="45.37516" lon="2.97326">
        <ele>1183.52</ele>
        <time>2021-08-15T09:55:24Z</time>
      </trkpt>
      <trkpt lat="45.37486" lon="2.97286">
        <ele>1183.52</ele>
        <time>2021-08-15T09:55:34Z</time>
      </trkpt>
      <trkpt lat="45.37469" lon="2.97256">
        <ele>1182.56</ele>
        <time>2021-08-15T09:55:40Z</time>
      </trkpt>
      <trkpt lat="45.37463" lon="2.97247">
        <ele>1182.56</ele>
        <time>2021-08-15T09:55:42Z</time>
      </trkpt>
      <trkpt lat="45.37459" lon="2.97242">
        <ele>1182.56</ele>
        <time>2021-08-15T09:55:43Z</time>
      </trkpt>
      <trkpt lat="45.37455" lon="2.97238">
        <ele>1181.6</ele>
        <time>2021-08-15T09:55:44Z</time>
      </trkpt>
      <trkpt lat="45.37428" lon="2.97219">
        <ele>1180.64</ele>
        <time>2021-08-15T09:55:49Z</time>
      </trkpt>
      <trkpt lat="45.37422" lon="2.97218">
        <ele>1180.64</ele>
        <time>2021-08-15T09:55:50Z</time>
      </trkpt>
      <trkpt lat="45.37417" lon="2.97218">
        <ele>1180.64</ele>
        <time>2021-08-15T09:55:51Z</time>
      </trkpt>
      <trkpt lat="45.3741" lon="2.9722">
        <ele>1180.64</ele>
        <time>2021-08-15T09:55:52Z</time>
      </trkpt>
      <trkpt lat="45.37404" lon="2.97223">
        <ele>1180.16</ele>
        <time>2021-08-15T09:55:53Z</time>
      </trkpt>
      <trkpt lat="45.37398" lon="2.97226">
        <ele>1180.16</ele>
        <time>2021-08-15T09:55:54Z</time>
      </trkpt>
      <trkpt lat="45.37387" lon="2.97231">
        <ele>1180.16</ele>
        <time>2021-08-15T09:55:56Z</time>
      </trkpt>
      <trkpt lat="45.37375" lon="2.97234">
        <ele>1180.16</ele>
        <time>2021-08-15T09:55:58Z</time>
      </trkpt>
      <trkpt lat="45.3737" lon="2.97234">
        <ele>1179.67</ele>
        <time>2021-08-15T09:55:59Z</time>
      </trkpt>
      <trkpt lat="45.37364" lon="2.97231">
        <ele>1179.67</ele>
        <time>2021-08-15T09:56:00Z</time>
      </trkpt>
      <trkpt lat="45.37361" lon="2.97229">
        <ele>1179.67</ele>
        <time>2021-08-15T09:56:01Z</time>
      </trkpt>
      <trkpt lat="45.37358" lon="2.97227">
        <ele>1179.67</ele>
        <time>2021-08-15T09:56:02Z</time>
      </trkpt>
      <trkpt lat="45.37356" lon="2.97226">
        <ele>1179.67</ele>
        <time>2021-08-15T09:56:03Z</time>
      </trkpt>
      <trkpt lat="45.37355" lon="2.97228">
        <ele>1179.67</ele>
        <time>2021-08-15T09:56:04Z</time>
      </trkpt>
      <trkpt lat="45.37357" lon="2.97231">
        <ele>1181.12</ele>
        <time>2021-08-15T09:56:06Z</time>
      </trkpt>
      <trkpt lat="45.37359" lon="2.97232">
        <ele>1181.12</ele>
        <time>2021-08-15T09:56:07Z</time>
      </trkpt>
      <trkpt lat="45.37361" lon="2.97233">
        <ele>1181.12</ele>
        <time>2021-08-15T09:56:08Z</time>
      </trkpt>
      <trkpt lat="45.37372" lon="2.97237">
        <ele>1181.12</ele>
        <time>2021-08-15T09:56:11Z</time>
      </trkpt>
      <trkpt lat="45.37377" lon="2.97235">
        <ele>1181.12</ele>
        <time>2021-08-15T09:56:12Z</time>
      </trkpt>
      <trkpt lat="45.3738" lon="2.97232">
        <ele>1181.12</ele>
        <time>2021-08-15T09:56:13Z</time>
      </trkpt>
      <trkpt lat="45.37382" lon="2.97227">
        <ele>1181.12</ele>
        <time>2021-08-15T09:56:14Z</time>
      </trkpt>
      <trkpt lat="45.37383" lon="2.97221">
        <ele>1181.12</ele>
        <time>2021-08-15T09:56:15Z</time>
      </trkpt>
      <trkpt lat="45.37382" lon="2.97217">
        <ele>1181.12</ele>
        <time>2021-08-15T09:56:16Z</time>
      </trkpt>
      <trkpt lat="45.3738" lon="2.97213">
        <ele>1181.12</ele>
        <time>2021-08-15T09:56:17Z</time>
      </trkpt>
      <trkpt lat="45.37371" lon="2.97191">
        <ele>1183.04</ele>
        <time>2021-08-15T09:56:25Z</time>
      </trkpt>
      <trkpt lat="45.37364" lon="2.97178">
        <ele>1184.96</ele>
        <time>2021-08-15T09:56:31Z</time>
      </trkpt>
      <trkpt lat="45.37361" lon="2.97178">
        <ele>1186.4</ele>
        <time>2021-08-15T09:56:36Z</time>
      </trkpt>
      <trkpt lat="45.37361" lon="2.9718">
        <ele>1186.4</ele>
        <time>2021-08-15T09:56:37Z</time>
      </trkpt>
      <trkpt lat="45.37363" lon="2.97184">
        <ele>1186.4</ele>
        <time>2021-08-15T09:56:38Z</time>
      </trkpt>
      <trkpt lat="45.37365" lon="2.97186">
        <ele>1184.96</ele>
        <time>2021-08-15T09:56:39Z</time>
      </trkpt>
      <trkpt lat="45.37368" lon="2.9719">
        <ele>1184.96</ele>
        <time>2021-08-15T09:56:40Z</time>
      </trkpt>
      <trkpt lat="45.37371" lon="2.97194">
        <ele>1184</ele>
        <time>2021-08-15T09:56:41Z</time>
      </trkpt>
      <trkpt lat="45.37374" lon="2.972">
        <ele>1183.52</ele>
        <time>2021-08-15T09:56:42Z</time>
      </trkpt>
      <trkpt lat="45.37377" lon="2.97206">
        <ele>1183.04</ele>
        <time>2021-08-15T09:56:43Z</time>
      </trkpt>
      <trkpt lat="45.3738" lon="2.97214">
        <ele>1182.08</ele>
        <time>2021-08-15T09:56:44Z</time>
      </trkpt>
      <trkpt lat="45.37382" lon="2.97221">
        <ele>1181.6</ele>
        <time>2021-08-15T09:56:45Z</time>
      </trkpt>
      <trkpt lat="45.37382" lon="2.97229">
        <ele>1181.6</ele>
        <time>2021-08-15T09:56:46Z</time>
      </trkpt>
      <trkpt lat="45.3738" lon="2.97232">
        <ele>1180.64</ele>
        <time>2021-08-15T09:56:47Z</time>
      </trkpt>
      <trkpt lat="45.37375" lon="2.97234">
        <ele>1180.16</ele>
        <time>2021-08-15T09:56:48Z</time>
      </trkpt>
      <trkpt lat="45.37371" lon="2.97233">
        <ele>1180.16</ele>
        <time>2021-08-15T09:56:49Z</time>
      </trkpt>
      <trkpt lat="45.37366" lon="2.97231">
        <ele>1179.19</ele>
        <time>2021-08-15T09:56:50Z</time>
      </trkpt>
      <trkpt lat="45.37362" lon="2.97229">
        <ele>1179.19</ele>
        <time>2021-08-15T09:56:51Z</time>
      </trkpt>
      <trkpt lat="45.37354" lon="2.97224">
        <ele>1179.19</ele>
        <time>2021-08-15T09:56:53Z</time>
      </trkpt>
      <trkpt lat="45.37313" lon="2.97182">
        <ele>1178.71</ele>
        <time>2021-08-15T09:57:03Z</time>
      </trkpt>
      <trkpt lat="45.37309" lon="2.97177">
        <ele>1178.71</ele>
        <time>2021-08-15T09:57:04Z</time>
      </trkpt>
      <trkpt lat="45.37306" lon="2.97171">
        <ele>1178.71</ele>
        <time>2021-08-15T09:57:05Z</time>
      </trkpt>
      <trkpt lat="45.37279" lon="2.97131">
        <ele>1177.75</ele>
        <time>2021-08-15T09:57:12Z</time>
      </trkpt>
      <trkpt lat="45.37274" lon="2.97128">
        <ele>1177.75</ele>
        <time>2021-08-15T09:57:13Z</time>
      </trkpt>
      <trkpt lat="45.37268" lon="2.97127">
        <ele>1177.75</ele>
        <time>2021-08-15T09:57:14Z</time>
      </trkpt>
      <trkpt lat="45.37263" lon="2.97127">
        <ele>1177.75</ele>
        <time>2021-08-15T09:57:15Z</time>
      </trkpt>
      <trkpt lat="45.37257" lon="2.97127">
        <ele>1177.75</ele>
        <time>2021-08-15T09:57:16Z</time>
      </trkpt>
      <trkpt lat="45.37251" lon="2.97128">
        <ele>1179.19</ele>
        <time>2021-08-15T09:57:17Z</time>
      </trkpt>
      <trkpt lat="45.37246" lon="2.9713">
        <ele>1179.19</ele>
        <time>2021-08-15T09:57:18Z</time>
      </trkpt>
      <trkpt lat="45.37241" lon="2.97133">
        <ele>1179.19</ele>
        <time>2021-08-15T09:57:19Z</time>
      </trkpt>
      <trkpt lat="45.37236" lon="2.97136">
        <ele>1179.67</ele>
        <time>2021-08-15T09:57:20Z</time>
      </trkpt>
      <trkpt lat="45.3721" lon="2.97156">
        <ele>1181.12</ele>
        <time>2021-08-15T09:57:27Z</time>
      </trkpt>
      <trkpt lat="45.37191" lon="2.97173">
        <ele>1182.56</ele>
        <time>2021-08-15T09:57:34Z</time>
      </trkpt>
      <trkpt lat="45.37178" lon="2.97181">
        <ele>1183.52</ele>
        <time>2021-08-15T09:57:39Z</time>
      </trkpt>
      <trkpt lat="45.37149" lon="2.97193">
        <ele>1183.52</ele>
        <time>2021-08-15T09:57:47Z</time>
      </trkpt>
      <trkpt lat="45.37128" lon="2.97202">
        <ele>1183.52</ele>
        <time>2021-08-15T09:57:52Z</time>
      </trkpt>
      <trkpt lat="45.37081" lon="2.97223">
        <ele>1183.52</ele>
        <time>2021-08-15T09:58:02Z</time>
      </trkpt>
      <trkpt lat="45.37059" lon="2.9723">
        <ele>1183.52</ele>
        <time>2021-08-15T09:58:07Z</time>
      </trkpt>
      <trkpt lat="45.3703" lon="2.97224">
        <ele>1185.44</ele>
        <time>2021-08-15T09:58:15Z</time>
      </trkpt>
      <trkpt lat="45.37013" lon="2.97217">
        <ele>1185.92</ele>
        <time>2021-08-15T09:58:22Z</time>
      </trkpt>
      <trkpt lat="45.36989" lon="2.97202">
        <ele>1187.37</ele>
        <time>2021-08-15T09:58:31Z</time>
      </trkpt>
      <trkpt lat="45.36966" lon="2.97185">
        <ele>1188.33</ele>
        <time>2021-08-15T09:58:40Z</time>
      </trkpt>
      <trkpt lat="45.36949" lon="2.97178">
        <ele>1189.77</ele>
        <time>2021-08-15T09:58:47Z</time>
      </trkpt>
      <trkpt lat="45.3693" lon="2.9717">
        <ele>1190.73</ele>
        <time>2021-08-15T09:58:55Z</time>
      </trkpt>
      <trkpt lat="45.36909" lon="2.97164">
        <ele>1192.17</ele>
        <time>2021-08-15T09:59:04Z</time>
      </trkpt>
      <trkpt lat="45.36891" lon="2.97162">
        <ele>1193.13</ele>
        <time>2021-08-15T09:59:12Z</time>
      </trkpt>
      <trkpt lat="45.36875" lon="2.9716">
        <ele>1194.09</ele>
        <time>2021-08-15T09:59:20Z</time>
      </trkpt>
      <trkpt lat="45.36855" lon="2.97163">
        <ele>1196.02</ele>
        <time>2021-08-15T09:59:29Z</time>
      </trkpt>
      <trkpt lat="45.36838" lon="2.97164">
        <ele>1197.94</ele>
        <time>2021-08-15T09:59:37Z</time>
      </trkpt>
      <trkpt lat="45.36823" lon="2.97162">
        <ele>1198.42</ele>
        <time>2021-08-15T09:59:44Z</time>
      </trkpt>
      <trkpt lat="45.36802" lon="2.97162">
        <ele>1200.34</ele>
        <time>2021-08-15T09:59:54Z</time>
      </trkpt>
      <trkpt lat="45.36785" lon="2.97161">
        <ele>1199.86</ele>
        <time>2021-08-15T10:00:02Z</time>
      </trkpt>
      <trkpt lat="45.36766" lon="2.97156">
        <ele>1200.82</ele>
        <time>2021-08-15T10:00:11Z</time>
      </trkpt>
      <trkpt lat="45.36741" lon="2.97146">
        <ele>1202.27</ele>
        <time>2021-08-15T10:00:22Z</time>
      </trkpt>
      <trkpt lat="45.3672" lon="2.97143">
        <ele>1203.23</ele>
        <time>2021-08-15T10:00:31Z</time>
      </trkpt>
      <trkpt lat="45.36717" lon="2.97141">
        <ele>1203.23</ele>
        <time>2021-08-15T10:00:32Z</time>
      </trkpt>
      <trkpt lat="45.36687" lon="2.97125">
        <ele>1203.71</ele>
        <time>2021-08-15T10:00:42Z</time>
      </trkpt>
      <trkpt lat="45.36667" lon="2.97103">
        <ele>1203.71</ele>
        <time>2021-08-15T10:00:49Z</time>
      </trkpt>
      <trkpt lat="45.36641" lon="2.9707">
        <ele>1203.71</ele>
        <time>2021-08-15T10:00:58Z</time>
      </trkpt>
      <trkpt lat="45.3662" lon="2.97056">
        <ele>1204.19</ele>
        <time>2021-08-15T10:01:05Z</time>
      </trkpt>
      <trkpt lat="45.36596" lon="2.97053">
        <ele>1205.63</ele>
        <time>2021-08-15T10:01:12Z</time>
      </trkpt>
      <trkpt lat="45.36573" lon="2.97054">
        <ele>1207.07</ele>
        <time>2021-08-15T10:01:20Z</time>
      </trkpt>
      <trkpt lat="45.36547" lon="2.97049">
        <ele>1207.07</ele>
        <time>2021-08-15T10:01:29Z</time>
      </trkpt>
      <trkpt lat="45.36539" lon="2.9705">
        <ele>1207.55</ele>
        <time>2021-08-15T10:01:33Z</time>
      </trkpt>
      <trkpt lat="45.36522" lon="2.97059">
        <ele>1208.03</ele>
        <time>2021-08-15T10:01:39Z</time>
      </trkpt>
      <trkpt lat="45.36498" lon="2.97064">
        <ele>1208.03</ele>
        <time>2021-08-15T10:01:46Z</time>
      </trkpt>
      <trkpt lat="45.36477" lon="2.97072">
        <ele>1208.03</ele>
        <time>2021-08-15T10:01:52Z</time>
      </trkpt>
      <trkpt lat="45.36459" lon="2.9708">
        <ele>1208.51</ele>
        <time>2021-08-15T10:01:57Z</time>
      </trkpt>
      <trkpt lat="45.36455" lon="2.97083">
        <ele>1208.51</ele>
        <time>2021-08-15T10:01:58Z</time>
      </trkpt>
      <trkpt lat="45.36452" lon="2.97088">
        <ele>1208.51</ele>
        <time>2021-08-15T10:01:59Z</time>
      </trkpt>
      <trkpt lat="45.36432" lon="2.97125">
        <ele>1209.48</ele>
        <time>2021-08-15T10:02:08Z</time>
      </trkpt>
      <trkpt lat="45.36413" lon="2.97147">
        <ele>1210.44</ele>
        <time>2021-08-15T10:02:16Z</time>
      </trkpt>
      <trkpt lat="45.36392" lon="2.97164">
        <ele>1211.88</ele>
        <time>2021-08-15T10:02:26Z</time>
      </trkpt>
      <trkpt lat="45.3639" lon="2.97166">
        <ele>1211.88</ele>
        <time>2021-08-15T10:02:29Z</time>
      </trkpt>
      <trkpt lat="45.36392" lon="2.97164">
        <ele>1211.88</ele>
        <time>2021-08-15T10:02:30Z</time>
      </trkpt>
      <trkpt lat="45.36394" lon="2.97162">
        <ele>1211.88</ele>
        <time>2021-08-15T10:02:31Z</time>
      </trkpt>
      <trkpt lat="45.36396" lon="2.9716">
        <ele>1211.88</ele>
        <time>2021-08-15T10:02:32Z</time>
      </trkpt>
      <trkpt lat="45.36398" lon="2.97158">
        <ele>1211.88</ele>
        <time>2021-08-15T10:02:33Z</time>
      </trkpt>
      <trkpt lat="45.36403" lon="2.97155">
        <ele>1211.88</ele>
        <time>2021-08-15T10:02:37Z</time>
      </trkpt>
      <trkpt lat="45.36404" lon="2.97154">
        <ele>1211.88</ele>
        <time>2021-08-15T10:02:43Z</time>
      </trkpt>
      <trkpt lat="45.36404" lon="2.97154">
        <ele>1211.88</ele>
        <time>2021-08-15T10:02:45Z</time>
      </trkpt>
      <trkpt lat="45.36403" lon="2.97155">
        <ele>1211.88</ele>
        <time>2021-08-15T10:02:46Z</time>
      </trkpt>
      <trkpt lat="45.36402" lon="2.97157">
        <ele>1211.88</ele>
        <time>2021-08-15T10:02:47Z</time>
      </trkpt>
      <trkpt lat="45.36401" lon="2.97159">
        <ele>1211.88</ele>
        <time>2021-08-15T10:02:48Z</time>
      </trkpt>
      <trkpt lat="45.36399" lon="2.9716">
        <ele>1211.88</ele>
        <time>2021-08-15T10:02:49Z</time>
      </trkpt>
      <trkpt lat="45.36397" lon="2.97162">
        <ele>1211.88</ele>
        <time>2021-08-15T10:02:50Z</time>
      </trkpt>
      <trkpt lat="45.36395" lon="2.97164">
        <ele>1211.88</ele>
        <time>2021-08-15T10:02:51Z</time>
      </trkpt>
      <trkpt lat="45.36389" lon="2.97168">
        <ele>1211.88</ele>
        <time>2021-08-15T10:02:54Z</time>
      </trkpt>
      <trkpt lat="45.36387" lon="2.97171">
        <ele>1211.88</ele>
        <time>2021-08-15T10:02:55Z</time>
      </trkpt>
      <trkpt lat="45.36385" lon="2.97174">
        <ele>1212.36</ele>
        <time>2021-08-15T10:02:56Z</time>
      </trkpt>
      <trkpt lat="45.36381" lon="2.97187">
        <ele>1212.36</ele>
        <time>2021-08-15T10:03:00Z</time>
      </trkpt>
      <trkpt lat="45.36382" lon="2.97192">
        <ele>1212.84</ele>
        <time>2021-08-15T10:03:05Z</time>
      </trkpt>
      <trkpt lat="45.36381" lon="2.97192">
        <ele>1213.8</ele>
        <time>2021-08-15T10:03:24Z</time>
      </trkpt>
      <trkpt lat="45.36382" lon="2.9719">
        <ele>1213.8</ele>
        <time>2021-08-15T10:03:52Z</time>
      </trkpt>
      <trkpt lat="45.3638" lon="2.9719">
        <ele>1213.8</ele>
        <time>2021-08-15T10:04:14Z</time>
      </trkpt>
      <trkpt lat="45.36381" lon="2.9719">
        <ele>1213.8</ele>
        <time>2021-08-15T10:04:26Z</time>
      </trkpt>
      <trkpt lat="45.36381" lon="2.97191">
        <ele>1213.8</ele>
        <time>2021-08-15T10:04:33Z</time>
      </trkpt>
      <trkpt lat="45.36382" lon="2.9719">
        <ele>1213.8</ele>
        <time>2021-08-15T10:04:42Z</time>
      </trkpt>
      <trkpt lat="45.36383" lon="2.97187">
        <ele>1213.8</ele>
        <time>2021-08-15T10:04:58Z</time>
      </trkpt>
      <trkpt lat="45.36383" lon="2.9719">
        <ele>1214.28</ele>
        <time>2021-08-15T10:05:15Z</time>
      </trkpt>
      <trkpt lat="45.36382" lon="2.97191">
        <ele>1214.28</ele>
        <time>2021-08-15T10:05:27Z</time>
      </trkpt>
      <trkpt lat="45.36383" lon="2.9719">
        <ele>1214.28</ele>
        <time>2021-08-15T10:05:41Z</time>
      </trkpt>
      <trkpt lat="45.36383" lon="2.97189">
        <ele>1214.28</ele>
        <time>2021-08-15T10:05:54Z</time>
      </trkpt>
      <trkpt lat="45.36385" lon="2.97188">
        <ele>1214.28</ele>
        <time>2021-08-15T10:06:06Z</time>
      </trkpt>
      <trkpt lat="45.36385" lon="2.97187">
        <ele>1214.28</ele>
        <time>2021-08-15T10:06:19Z</time>
      </trkpt>
      <trkpt lat="45.36383" lon="2.97186">
        <ele>1214.76</ele>
        <time>2021-08-15T10:06:26Z</time>
      </trkpt>
      <trkpt lat="45.36381" lon="2.97186">
        <ele>1214.76</ele>
        <time>2021-08-15T10:06:28Z</time>
      </trkpt>
      <trkpt lat="45.36379" lon="2.97186">
        <ele>1214.76</ele>
        <time>2021-08-15T10:06:29Z</time>
      </trkpt>
      <trkpt lat="45.36378" lon="2.97186">
        <ele>1214.76</ele>
        <time>2021-08-15T10:06:30Z</time>
      </trkpt>
      <trkpt lat="45.36361" lon="2.9718">
        <ele>1215.24</ele>
        <time>2021-08-15T10:06:38Z</time>
      </trkpt>
      <trkpt lat="45.36346" lon="2.97163">
        <ele>1216.21</ele>
        <time>2021-08-15T10:06:47Z</time>
      </trkpt>
      <trkpt lat="45.36338" lon="2.97142">
        <ele>1218.13</ele>
        <time>2021-08-15T10:06:57Z</time>
      </trkpt>
      <trkpt lat="45.36333" lon="2.97129">
        <ele>1218.13</ele>
        <time>2021-08-15T10:07:03Z</time>
      </trkpt>
      <trkpt lat="45.36331" lon="2.97127">
        <ele>1218.61</ele>
        <time>2021-08-15T10:07:04Z</time>
      </trkpt>
      <trkpt lat="45.36319" lon="2.97112">
        <ele>1221.01</ele>
        <time>2021-08-15T10:07:13Z</time>
      </trkpt>
      <trkpt lat="45.36305" lon="2.97102">
        <ele>1221.49</ele>
        <time>2021-08-15T10:07:22Z</time>
      </trkpt>
      <trkpt lat="45.36292" lon="2.9709">
        <ele>1222.93</ele>
        <time>2021-08-15T10:07:30Z</time>
      </trkpt>
      <trkpt lat="45.36282" lon="2.97078">
        <ele>1222.93</ele>
        <time>2021-08-15T10:07:37Z</time>
      </trkpt>
      <trkpt lat="45.36272" lon="2.97062">
        <ele>1223.9</ele>
        <time>2021-08-15T10:07:45Z</time>
      </trkpt>
      <trkpt lat="45.36258" lon="2.9704">
        <ele>1224.86</ele>
        <time>2021-08-15T10:07:55Z</time>
      </trkpt>
      <trkpt lat="45.36248" lon="2.97033">
        <ele>1224.86</ele>
        <time>2021-08-15T10:08:00Z</time>
      </trkpt>
      <trkpt lat="45.36247" lon="2.9703">
        <ele>1225.34</ele>
        <time>2021-08-15T10:08:01Z</time>
      </trkpt>
      <trkpt lat="45.36246" lon="2.97028">
        <ele>1225.34</ele>
        <time>2021-08-15T10:08:02Z</time>
      </trkpt>
      <trkpt lat="45.36243" lon="2.97025">
        <ele>1225.34</ele>
        <time>2021-08-15T10:08:03Z</time>
      </trkpt>
      <trkpt lat="45.36241" lon="2.97023">
        <ele>1225.34</ele>
        <time>2021-08-15T10:08:04Z</time>
      </trkpt>
      <trkpt lat="45.36239" lon="2.9702">
        <ele>1225.34</ele>
        <time>2021-08-15T10:08:05Z</time>
      </trkpt>
      <trkpt lat="45.36237" lon="2.97017">
        <ele>1225.34</ele>
        <time>2021-08-15T10:08:06Z</time>
      </trkpt>
      <trkpt lat="45.36205" lon="2.9698">
        <ele>1226.3</ele>
        <time>2021-08-15T10:08:19Z</time>
      </trkpt>
      <trkpt lat="45.36185" lon="2.96961">
        <ele>1227.26</ele>
        <time>2021-08-15T10:08:27Z</time>
      </trkpt>
      <trkpt lat="45.36171" lon="2.96949">
        <ele>1228.7</ele>
        <time>2021-08-15T10:08:35Z</time>
      </trkpt>
      <trkpt lat="45.36157" lon="2.96938">
        <ele>1229.66</ele>
        <time>2021-08-15T10:08:43Z</time>
      </trkpt>
      <trkpt lat="45.36141" lon="2.96924">
        <ele>1230.14</ele>
        <time>2021-08-15T10:08:51Z</time>
      </trkpt>
      <trkpt lat="45.36124" lon="2.96896">
        <ele>1230.14</ele>
        <time>2021-08-15T10:08:59Z</time>
      </trkpt>
      <trkpt lat="45.36117" lon="2.96849">
        <ele>1230.14</ele>
        <time>2021-08-15T10:09:09Z</time>
      </trkpt>
      <trkpt lat="45.36112" lon="2.96811">
        <ele>1230.62</ele>
        <time>2021-08-15T10:09:19Z</time>
      </trkpt>
      <trkpt lat="45.36109" lon="2.9678">
        <ele>1231.11</ele>
        <time>2021-08-15T10:09:27Z</time>
      </trkpt>
      <trkpt lat="45.36101" lon="2.96746">
        <ele>1232.55</ele>
        <time>2021-08-15T10:09:36Z</time>
      </trkpt>
      <trkpt lat="45.36091" lon="2.96707">
        <ele>1233.51</ele>
        <time>2021-08-15T10:09:46Z</time>
      </trkpt>
      <trkpt lat="45.36079" lon="2.96668">
        <ele>1234.47</ele>
        <time>2021-08-15T10:09:57Z</time>
      </trkpt>
      <trkpt lat="45.36067" lon="2.9664">
        <ele>1235.43</ele>
        <time>2021-08-15T10:10:07Z</time>
      </trkpt>
      <trkpt lat="45.36052" lon="2.96621">
        <ele>1237.35</ele>
        <time>2021-08-15T10:10:16Z</time>
      </trkpt>
      <trkpt lat="45.36042" lon="2.96605">
        <ele>1237.35</ele>
        <time>2021-08-15T10:10:23Z</time>
      </trkpt>
      <trkpt lat="45.36032" lon="2.96587">
        <ele>1238.8</ele>
        <time>2021-08-15T10:10:31Z</time>
      </trkpt>
      <trkpt lat="45.36022" lon="2.96562">
        <ele>1240.24</ele>
        <time>2021-08-15T10:10:41Z</time>
      </trkpt>
      <trkpt lat="45.36019" lon="2.96535">
        <ele>1241.68</ele>
        <time>2021-08-15T10:10:50Z</time>
      </trkpt>
      <trkpt lat="45.36012" lon="2.96511">
        <ele>1243.12</ele>
        <time>2021-08-15T10:10:59Z</time>
      </trkpt>
      <trkpt lat="45.36006" lon="2.96491">
        <ele>1243.6</ele>
        <time>2021-08-15T10:11:06Z</time>
      </trkpt>
      <trkpt lat="45.35997" lon="2.96469">
        <ele>1244.56</ele>
        <time>2021-08-15T10:11:14Z</time>
      </trkpt>
      <trkpt lat="45.35982" lon="2.9644">
        <ele>1246.01</ele>
        <time>2021-08-15T10:11:24Z</time>
      </trkpt>
      <trkpt lat="45.35964" lon="2.96409">
        <ele>1246.97</ele>
        <time>2021-08-15T10:11:35Z</time>
      </trkpt>
      <trkpt lat="45.35952" lon="2.96385">
        <ele>1247.45</ele>
        <time>2021-08-15T10:11:42Z</time>
      </trkpt>
      <trkpt lat="45.35939" lon="2.96353">
        <ele>1244.56</ele>
        <time>2021-08-15T10:11:48Z</time>
      </trkpt>
      <trkpt lat="45.35924" lon="2.96309">
        <ele>1240.72</ele>
        <time>2021-08-15T10:11:54Z</time>
      </trkpt>
      <trkpt lat="45.35922" lon="2.96301">
        <ele>1240.72</ele>
        <time>2021-08-15T10:11:55Z</time>
      </trkpt>
      <trkpt lat="45.35912" lon="2.96257">
        <ele>1238.32</ele>
        <time>2021-08-15T10:12:00Z</time>
      </trkpt>
      <trkpt lat="45.35909" lon="2.96248">
        <ele>1238.32</ele>
        <time>2021-08-15T10:12:01Z</time>
      </trkpt>
      <trkpt lat="45.35905" lon="2.9624">
        <ele>1237.35</ele>
        <time>2021-08-15T10:12:02Z</time>
      </trkpt>
      <trkpt lat="45.359" lon="2.96235">
        <ele>1236.39</ele>
        <time>2021-08-15T10:12:03Z</time>
      </trkpt>
      <trkpt lat="45.35893" lon="2.96232">
        <ele>1236.39</ele>
        <time>2021-08-15T10:12:04Z</time>
      </trkpt>
      <trkpt lat="45.35886" lon="2.96232">
        <ele>1236.39</ele>
        <time>2021-08-15T10:12:05Z</time>
      </trkpt>
      <trkpt lat="45.35878" lon="2.96235">
        <ele>1236.39</ele>
        <time>2021-08-15T10:12:06Z</time>
      </trkpt>
      <trkpt lat="45.35871" lon="2.9624">
        <ele>1235.91</ele>
        <time>2021-08-15T10:12:07Z</time>
      </trkpt>
      <trkpt lat="45.35864" lon="2.96245">
        <ele>1235.43</ele>
        <time>2021-08-15T10:12:08Z</time>
      </trkpt>
      <trkpt lat="45.35857" lon="2.96253">
        <ele>1234.95</ele>
        <time>2021-08-15T10:12:09Z</time>
      </trkpt>
      <trkpt lat="45.3585" lon="2.96261">
        <ele>1233.99</ele>
        <time>2021-08-15T10:12:10Z</time>
      </trkpt>
      <trkpt lat="45.35843" lon="2.96268">
        <ele>1233.51</ele>
        <time>2021-08-15T10:12:11Z</time>
      </trkpt>
      <trkpt lat="45.35835" lon="2.96272">
        <ele>1232.55</ele>
        <time>2021-08-15T10:12:12Z</time>
      </trkpt>
      <trkpt lat="45.35827" lon="2.96272">
        <ele>1231.59</ele>
        <time>2021-08-15T10:12:13Z</time>
      </trkpt>
      <trkpt lat="45.35818" lon="2.96269">
        <ele>1230.14</ele>
        <time>2021-08-15T10:12:14Z</time>
      </trkpt>
      <trkpt lat="45.35811" lon="2.96263">
        <ele>1229.18</ele>
        <time>2021-08-15T10:12:15Z</time>
      </trkpt>
      <trkpt lat="45.35803" lon="2.96255">
        <ele>1227.74</ele>
        <time>2021-08-15T10:12:16Z</time>
      </trkpt>
      <trkpt lat="45.35796" lon="2.96247">
        <ele>1227.26</ele>
        <time>2021-08-15T10:12:17Z</time>
      </trkpt>
      <trkpt lat="45.35773" lon="2.96226">
        <ele>1225.82</ele>
        <time>2021-08-15T10:12:20Z</time>
      </trkpt>
      <trkpt lat="45.35737" lon="2.96198">
        <ele>1227.74</ele>
        <time>2021-08-15T10:12:25Z</time>
      </trkpt>
      <trkpt lat="45.35706" lon="2.96174">
        <ele>1225.82</ele>
        <time>2021-08-15T10:12:30Z</time>
      </trkpt>
      <trkpt lat="45.35671" lon="2.96141">
        <ele>1226.78</ele>
        <time>2021-08-15T10:12:37Z</time>
      </trkpt>
      <trkpt lat="45.35663" lon="2.96131">
        <ele>1225.34</ele>
        <time>2021-08-15T10:12:39Z</time>
      </trkpt>
      <trkpt lat="45.35649" lon="2.9611">
        <ele>1227.26</ele>
        <time>2021-08-15T10:12:43Z</time>
      </trkpt>
      <trkpt lat="45.35622" lon="2.96065">
        <ele>1228.22</ele>
        <time>2021-08-15T10:12:52Z</time>
      </trkpt>
      <trkpt lat="45.35591" lon="2.96012">
        <ele>1228.7</ele>
        <time>2021-08-15T10:13:03Z</time>
      </trkpt>
      <trkpt lat="45.35585" lon="2.96002">
        <ele>1228.7</ele>
        <time>2021-08-15T10:13:05Z</time>
      </trkpt>
      <trkpt lat="45.35567" lon="2.95961">
        <ele>1228.7</ele>
        <time>2021-08-15T10:13:12Z</time>
      </trkpt>
      <trkpt lat="45.35553" lon="2.95921">
        <ele>1228.7</ele>
        <time>2021-08-15T10:13:19Z</time>
      </trkpt>
      <trkpt lat="45.35547" lon="2.95897">
        <ele>1229.18</ele>
        <time>2021-08-15T10:13:23Z</time>
      </trkpt>
      <trkpt lat="45.35545" lon="2.95892">
        <ele>1229.18</ele>
        <time>2021-08-15T10:13:24Z</time>
      </trkpt>
      <trkpt lat="45.35542" lon="2.95887">
        <ele>1229.18</ele>
        <time>2021-08-15T10:13:25Z</time>
      </trkpt>
      <trkpt lat="45.35538" lon="2.95882">
        <ele>1229.18</ele>
        <time>2021-08-15T10:13:26Z</time>
      </trkpt>
      <trkpt lat="45.35535" lon="2.95878">
        <ele>1229.18</ele>
        <time>2021-08-15T10:13:27Z</time>
      </trkpt>
      <trkpt lat="45.35531" lon="2.95875">
        <ele>1229.18</ele>
        <time>2021-08-15T10:13:28Z</time>
      </trkpt>
      <trkpt lat="45.35528" lon="2.95872">
        <ele>1229.18</ele>
        <time>2021-08-15T10:13:29Z</time>
      </trkpt>
      <trkpt lat="45.35524" lon="2.95869">
        <ele>1229.66</ele>
        <time>2021-08-15T10:13:30Z</time>
      </trkpt>
      <trkpt lat="45.35501" lon="2.95851">
        <ele>1231.11</ele>
        <time>2021-08-15T10:13:36Z</time>
      </trkpt>
      <trkpt lat="45.35495" lon="2.95844">
        <ele>1231.11</ele>
        <time>2021-08-15T10:13:38Z</time>
      </trkpt>
      <trkpt lat="45.35492" lon="2.95838">
        <ele>1231.11</ele>
        <time>2021-08-15T10:13:39Z</time>
      </trkpt>
      <trkpt lat="45.3549" lon="2.95833">
        <ele>1231.11</ele>
        <time>2021-08-15T10:13:40Z</time>
      </trkpt>
      <trkpt lat="45.35488" lon="2.95827">
        <ele>1231.11</ele>
        <time>2021-08-15T10:13:41Z</time>
      </trkpt>
      <trkpt lat="45.35486" lon="2.95821">
        <ele>1231.11</ele>
        <time>2021-08-15T10:13:42Z</time>
      </trkpt>
      <trkpt lat="45.35485" lon="2.95815">
        <ele>1229.66</ele>
        <time>2021-08-15T10:13:43Z</time>
      </trkpt>
      <trkpt lat="45.35483" lon="2.9581">
        <ele>1229.66</ele>
        <time>2021-08-15T10:13:44Z</time>
      </trkpt>
      <trkpt lat="45.35472" lon="2.95783">
        <ele>1229.66</ele>
        <time>2021-08-15T10:13:49Z</time>
      </trkpt>
      <trkpt lat="45.35461" lon="2.95766">
        <ele>1231.11</ele>
        <time>2021-08-15T10:13:53Z</time>
      </trkpt>
      <trkpt lat="45.35433" lon="2.95735">
        <ele>1231.59</ele>
        <time>2021-08-15T10:14:02Z</time>
      </trkpt>
      <trkpt lat="45.35405" lon="2.957">
        <ele>1231.59</ele>
        <time>2021-08-15T10:14:12Z</time>
      </trkpt>
      <trkpt lat="45.35373" lon="2.95653">
        <ele>1233.03</ele>
        <time>2021-08-15T10:14:24Z</time>
      </trkpt>
      <trkpt lat="45.35368" lon="2.95644">
        <ele>1233.03</ele>
        <time>2021-08-15T10:14:26Z</time>
      </trkpt>
      <trkpt lat="45.35351" lon="2.95594">
        <ele>1233.51</ele>
        <time>2021-08-15T10:14:36Z</time>
      </trkpt>
      <trkpt lat="45.35344" lon="2.95579">
        <ele>1233.51</ele>
        <time>2021-08-15T10:14:39Z</time>
      </trkpt>
      <trkpt lat="45.35342" lon="2.95575">
        <ele>1233.99</ele>
        <time>2021-08-15T10:14:40Z</time>
      </trkpt>
      <trkpt lat="45.35339" lon="2.95572">
        <ele>1233.99</ele>
        <time>2021-08-15T10:14:41Z</time>
      </trkpt>
      <trkpt lat="45.35335" lon="2.95568">
        <ele>1233.99</ele>
        <time>2021-08-15T10:14:42Z</time>
      </trkpt>
      <trkpt lat="45.35332" lon="2.95565">
        <ele>1233.99</ele>
        <time>2021-08-15T10:14:43Z</time>
      </trkpt>
      <trkpt lat="45.35312" lon="2.95546">
        <ele>1233.99</ele>
        <time>2021-08-15T10:14:49Z</time>
      </trkpt>
      <trkpt lat="45.35308" lon="2.95542">
        <ele>1233.99</ele>
        <time>2021-08-15T10:14:50Z</time>
      </trkpt>
      <trkpt lat="45.35306" lon="2.95537">
        <ele>1233.99</ele>
        <time>2021-08-15T10:14:51Z</time>
      </trkpt>
      <trkpt lat="45.35304" lon="2.95532">
        <ele>1233.99</ele>
        <time>2021-08-15T10:14:52Z</time>
      </trkpt>
      <trkpt lat="45.35302" lon="2.95527">
        <ele>1233.99</ele>
        <time>2021-08-15T10:14:53Z</time>
      </trkpt>
      <trkpt lat="45.35301" lon="2.95521">
        <ele>1233.99</ele>
        <time>2021-08-15T10:14:54Z</time>
      </trkpt>
      <trkpt lat="45.353" lon="2.95515">
        <ele>1233.99</ele>
        <time>2021-08-15T10:14:55Z</time>
      </trkpt>
      <trkpt lat="45.35299" lon="2.9551">
        <ele>1233.99</ele>
        <time>2021-08-15T10:14:56Z</time>
      </trkpt>
      <trkpt lat="45.35299" lon="2.95504">
        <ele>1233.99</ele>
        <time>2021-08-15T10:14:57Z</time>
      </trkpt>
      <trkpt lat="45.35299" lon="2.95499">
        <ele>1233.99</ele>
        <time>2021-08-15T10:14:58Z</time>
      </trkpt>
      <trkpt lat="45.353" lon="2.95493">
        <ele>1233.99</ele>
        <time>2021-08-15T10:14:59Z</time>
      </trkpt>
      <trkpt lat="45.35299" lon="2.95488">
        <ele>1233.99</ele>
        <time>2021-08-15T10:15:00Z</time>
      </trkpt>
      <trkpt lat="45.35299" lon="2.95443">
        <ele>1234.47</ele>
        <time>2021-08-15T10:15:08Z</time>
      </trkpt>
      <trkpt lat="45.35286" lon="2.95389">
        <ele>1235.43</ele>
        <time>2021-08-15T10:15:18Z</time>
      </trkpt>
      <trkpt lat="45.35268" lon="2.95357">
        <ele>1235.91</ele>
        <time>2021-08-15T10:15:25Z</time>
      </trkpt>
      <trkpt lat="45.35265" lon="2.95352">
        <ele>1235.91</ele>
        <time>2021-08-15T10:15:26Z</time>
      </trkpt>
      <trkpt lat="45.35264" lon="2.95346">
        <ele>1235.91</ele>
        <time>2021-08-15T10:15:27Z</time>
      </trkpt>
      <trkpt lat="45.35263" lon="2.95341">
        <ele>1235.91</ele>
        <time>2021-08-15T10:15:28Z</time>
      </trkpt>
      <trkpt lat="45.35263" lon="2.95336">
        <ele>1236.39</ele>
        <time>2021-08-15T10:15:29Z</time>
      </trkpt>
      <trkpt lat="45.35262" lon="2.9533">
        <ele>1236.87</ele>
        <time>2021-08-15T10:15:30Z</time>
      </trkpt>
      <trkpt lat="45.35261" lon="2.95294">
        <ele>1238.32</ele>
        <time>2021-08-15T10:15:39Z</time>
      </trkpt>
      <trkpt lat="45.35256" lon="2.95268">
        <ele>1239.28</ele>
        <time>2021-08-15T10:15:46Z</time>
      </trkpt>
      <trkpt lat="45.35246" lon="2.95247">
        <ele>1240.24</ele>
        <time>2021-08-15T10:15:53Z</time>
      </trkpt>
      <trkpt lat="45.35233" lon="2.95222">
        <ele>1241.2</ele>
        <time>2021-08-15T10:16:01Z</time>
      </trkpt>
      <trkpt lat="45.35216" lon="2.95199">
        <ele>1243.12</ele>
        <time>2021-08-15T10:16:10Z</time>
      </trkpt>
      <trkpt lat="45.35196" lon="2.95172">
        <ele>1245.04</ele>
        <time>2021-08-15T10:16:20Z</time>
      </trkpt>
      <trkpt lat="45.35179" lon="2.95138">
        <ele>1246.01</ele>
        <time>2021-08-15T10:16:31Z</time>
      </trkpt>
      <trkpt lat="45.35164" lon="2.95119">
        <ele>1246.97</ele>
        <time>2021-08-15T10:16:39Z</time>
      </trkpt>
      <trkpt lat="45.3514" lon="2.95107">
        <ele>1248.89</ele>
        <time>2021-08-15T10:16:49Z</time>
      </trkpt>
      <trkpt lat="45.3511" lon="2.95104">
        <ele>1250.81</ele>
        <time>2021-08-15T10:17:00Z</time>
      </trkpt>
      <trkpt lat="45.35088" lon="2.9509">
        <ele>1250.81</ele>
        <time>2021-08-15T10:17:10Z</time>
      </trkpt>
      <trkpt lat="45.35074" lon="2.9507">
        <ele>1252.25</ele>
        <time>2021-08-15T10:17:19Z</time>
      </trkpt>
      <trkpt lat="45.35066" lon="2.95058">
        <ele>1253.22</ele>
        <time>2021-08-15T10:17:24Z</time>
      </trkpt>
      <trkpt lat="45.35051" lon="2.95046">
        <ele>1253.7</ele>
        <time>2021-08-15T10:17:32Z</time>
      </trkpt>
      <trkpt lat="45.35034" lon="2.9503">
        <ele>1255.14</ele>
        <time>2021-08-15T10:17:41Z</time>
      </trkpt>
      <trkpt lat="45.3501" lon="2.9501">
        <ele>1256.1</ele>
        <time>2021-08-15T10:17:52Z</time>
      </trkpt>
      <trkpt lat="45.3499" lon="2.94993">
        <ele>1257.06</ele>
        <time>2021-08-15T10:18:01Z</time>
      </trkpt>
      <trkpt lat="45.34968" lon="2.94972">
        <ele>1258.5</ele>
        <time>2021-08-15T10:18:11Z</time>
      </trkpt>
      <trkpt lat="45.34953" lon="2.94944">
        <ele>1259.46</ele>
        <time>2021-08-15T10:18:21Z</time>
      </trkpt>
      <trkpt lat="45.34934" lon="2.94915">
        <ele>1260.43</ele>
        <time>2021-08-15T10:18:31Z</time>
      </trkpt>
      <trkpt lat="45.34914" lon="2.94883">
        <ele>1260.91</ele>
        <time>2021-08-15T10:18:41Z</time>
      </trkpt>
      <trkpt lat="45.3489" lon="2.94848">
        <ele>1261.87</ele>
        <time>2021-08-15T10:18:52Z</time>
      </trkpt>
      <trkpt lat="45.34863" lon="2.94823">
        <ele>1263.31</ele>
        <time>2021-08-15T10:19:02Z</time>
      </trkpt>
      <trkpt lat="45.34835" lon="2.9481">
        <ele>1263.31</ele>
        <time>2021-08-15T10:19:11Z</time>
      </trkpt>
      <trkpt lat="45.34803" lon="2.94803">
        <ele>1264.27</ele>
        <time>2021-08-15T10:19:20Z</time>
      </trkpt>
      <trkpt lat="45.34774" lon="2.9479">
        <ele>1264.75</ele>
        <time>2021-08-15T10:19:28Z</time>
      </trkpt>
      <trkpt lat="45.3474" lon="2.9477">
        <ele>1266.19</ele>
        <time>2021-08-15T10:19:38Z</time>
      </trkpt>
      <trkpt lat="45.34709" lon="2.94756">
        <ele>1266.19</ele>
        <time>2021-08-15T10:19:47Z</time>
      </trkpt>
      <trkpt lat="45.34683" lon="2.94744">
        <ele>1267.16</ele>
        <time>2021-08-15T10:19:55Z</time>
      </trkpt>
      <trkpt lat="45.34648" lon="2.94734">
        <ele>1267.64</ele>
        <time>2021-08-15T10:20:05Z</time>
      </trkpt>
      <trkpt lat="45.34616" lon="2.94721">
        <ele>1267.64</ele>
        <time>2021-08-15T10:20:14Z</time>
      </trkpt>
      <trkpt lat="45.34585" lon="2.94704">
        <ele>1269.56</ele>
        <time>2021-08-15T10:20:23Z</time>
      </trkpt>
      <trkpt lat="45.34556" lon="2.94681">
        <ele>1270.04</ele>
        <time>2021-08-15T10:20:32Z</time>
      </trkpt>
      <trkpt lat="45.34513" lon="2.9466">
        <ele>1270.04</ele>
        <time>2021-08-15T10:20:44Z</time>
      </trkpt>
      <trkpt lat="45.34476" lon="2.94639">
        <ele>1271</ele>
        <time>2021-08-15T10:20:54Z</time>
      </trkpt>
      <trkpt lat="45.34445" lon="2.9461">
        <ele>1272.44</ele>
        <time>2021-08-15T10:21:04Z</time>
      </trkpt>
      <trkpt lat="45.34415" lon="2.94587">
        <ele>1273.4</ele>
        <time>2021-08-15T10:21:13Z</time>
      </trkpt>
      <trkpt lat="45.34392" lon="2.94573">
        <ele>1274.85</ele>
        <time>2021-08-15T10:21:20Z</time>
      </trkpt>
      <trkpt lat="45.34367" lon="2.94567">
        <ele>1275.33</ele>
        <time>2021-08-15T10:21:27Z</time>
      </trkpt>
      <trkpt lat="45.34335" lon="2.94572">
        <ele>1275.81</ele>
        <time>2021-08-15T10:21:36Z</time>
      </trkpt>
      <trkpt lat="45.34303" lon="2.94569">
        <ele>1276.29</ele>
        <time>2021-08-15T10:21:45Z</time>
      </trkpt>
      <trkpt lat="45.34274" lon="2.94548">
        <ele>1277.25</ele>
        <time>2021-08-15T10:21:54Z</time>
      </trkpt>
      <trkpt lat="45.34244" lon="2.94529">
        <ele>1278.21</ele>
        <time>2021-08-15T10:22:03Z</time>
      </trkpt>
      <trkpt lat="45.34224" lon="2.94505">
        <ele>1279.17</ele>
        <time>2021-08-15T10:22:10Z</time>
      </trkpt>
      <trkpt lat="45.34202" lon="2.94488">
        <ele>1279.17</ele>
        <time>2021-08-15T10:22:17Z</time>
      </trkpt>
      <trkpt lat="45.34172" lon="2.9448">
        <ele>1279.65</ele>
        <time>2021-08-15T10:22:25Z</time>
      </trkpt>
      <trkpt lat="45.34153" lon="2.94465">
        <ele>1280.13</ele>
        <time>2021-08-15T10:22:31Z</time>
      </trkpt>
      <trkpt lat="45.34132" lon="2.94438">
        <ele>1280.61</ele>
        <time>2021-08-15T10:22:39Z</time>
      </trkpt>
      <trkpt lat="45.34114" lon="2.94422">
        <ele>1281.57</ele>
        <time>2021-08-15T10:22:45Z</time>
      </trkpt>
      <trkpt lat="45.3411" lon="2.94412">
        <ele>1281.57</ele>
        <time>2021-08-15T10:22:47Z</time>
      </trkpt>
      <trkpt lat="45.34108" lon="2.94407">
        <ele>1281.57</ele>
        <time>2021-08-15T10:22:48Z</time>
      </trkpt>
      <trkpt lat="45.34107" lon="2.94401">
        <ele>1281.57</ele>
        <time>2021-08-15T10:22:49Z</time>
      </trkpt>
      <trkpt lat="45.34106" lon="2.94396">
        <ele>1281.57</ele>
        <time>2021-08-15T10:22:50Z</time>
      </trkpt>
      <trkpt lat="45.34106" lon="2.94391">
        <ele>1282.54</ele>
        <time>2021-08-15T10:22:51Z</time>
      </trkpt>
      <trkpt lat="45.34096" lon="2.94355">
        <ele>1283.02</ele>
        <time>2021-08-15T10:22:59Z</time>
      </trkpt>
      <trkpt lat="45.34077" lon="2.94331">
        <ele>1283.98</ele>
        <time>2021-08-15T10:23:06Z</time>
      </trkpt>
      <trkpt lat="45.34049" lon="2.943">
        <ele>1284.46</ele>
        <time>2021-08-15T10:23:16Z</time>
      </trkpt>
      <trkpt lat="45.34025" lon="2.94298">
        <ele>1285.42</ele>
        <time>2021-08-15T10:23:23Z</time>
      </trkpt>
      <trkpt lat="45.34001" lon="2.94293">
        <ele>1285.42</ele>
        <time>2021-08-15T10:23:30Z</time>
      </trkpt>
      <trkpt lat="45.3399" lon="2.94269">
        <ele>1286.38</ele>
        <time>2021-08-15T10:23:36Z</time>
      </trkpt>
      <trkpt lat="45.33989" lon="2.94225">
        <ele>1286.38</ele>
        <time>2021-08-15T10:23:45Z</time>
      </trkpt>
      <trkpt lat="45.33983" lon="2.9421">
        <ele>1286.38</ele>
        <time>2021-08-15T10:23:49Z</time>
      </trkpt>
      <trkpt lat="45.33979" lon="2.94208">
        <ele>1286.38</ele>
        <time>2021-08-15T10:23:50Z</time>
      </trkpt>
      <trkpt lat="45.33977" lon="2.94208">
        <ele>1286.38</ele>
        <time>2021-08-15T10:23:51Z</time>
      </trkpt>
      <trkpt lat="45.33962" lon="2.94212">
        <ele>1287.82</ele>
        <time>2021-08-15T10:23:58Z</time>
      </trkpt>
      <trkpt lat="45.33962" lon="2.94212">
        <ele>1288.78</ele>
        <time>2021-08-15T10:24:05Z</time>
      </trkpt>
      <trkpt lat="45.3396" lon="2.94212">
        <ele>1288.78</ele>
        <time>2021-08-15T10:24:15Z</time>
      </trkpt>
      <trkpt lat="45.3396" lon="2.94211">
        <ele>1288.78</ele>
        <time>2021-08-15T10:24:31Z</time>
      </trkpt>
      <trkpt lat="45.3396" lon="2.94211">
        <ele>1288.78</ele>
        <time>2021-08-15T10:24:43Z</time>
      </trkpt>
      <trkpt lat="45.33952" lon="2.94208">
        <ele>1288.78</ele>
        <time>2021-08-15T10:24:48Z</time>
      </trkpt>
      <trkpt lat="45.33949" lon="2.94208">
        <ele>1288.78</ele>
        <time>2021-08-15T10:24:49Z</time>
      </trkpt>
      <trkpt lat="45.33947" lon="2.94207">
        <ele>1288.78</ele>
        <time>2021-08-15T10:24:50Z</time>
      </trkpt>
      <trkpt lat="45.33922" lon="2.94198">
        <ele>1288.78</ele>
        <time>2021-08-15T10:24:58Z</time>
      </trkpt>
      <trkpt lat="45.33895" lon="2.94188">
        <ele>1289.27</ele>
        <time>2021-08-15T10:25:06Z</time>
      </trkpt>
      <trkpt lat="45.33873" lon="2.94179">
        <ele>1290.23</ele>
        <time>2021-08-15T10:25:14Z</time>
      </trkpt>
      <trkpt lat="45.33868" lon="2.94178">
        <ele>1290.71</ele>
        <time>2021-08-15T10:25:17Z</time>
      </trkpt>
      <trkpt lat="45.33867" lon="2.94177">
        <ele>1290.71</ele>
        <time>2021-08-15T10:25:18Z</time>
      </trkpt>
      <trkpt lat="45.33865" lon="2.94177">
        <ele>1290.71</ele>
        <time>2021-08-15T10:25:19Z</time>
      </trkpt>
      <trkpt lat="45.33864" lon="2.94176">
        <ele>1290.71</ele>
        <time>2021-08-15T10:25:20Z</time>
      </trkpt>
      <trkpt lat="45.33862" lon="2.94176">
        <ele>1291.19</ele>
        <time>2021-08-15T10:25:21Z</time>
      </trkpt>
      <trkpt lat="45.3385" lon="2.94173">
        <ele>1292.15</ele>
        <time>2021-08-15T10:25:28Z</time>
      </trkpt>
      <trkpt lat="45.33842" lon="2.94183">
        <ele>1293.59</ele>
        <time>2021-08-15T10:25:35Z</time>
      </trkpt>
      <trkpt lat="45.33842" lon="2.94185">
        <ele>1293.11</ele>
        <time>2021-08-15T10:25:36Z</time>
      </trkpt>
      <trkpt lat="45.33846" lon="2.94201">
        <ele>1294.55</ele>
        <time>2021-08-15T10:25:44Z</time>
      </trkpt>
      <trkpt lat="45.33855" lon="2.94217">
        <ele>1295.99</ele>
        <time>2021-08-15T10:25:54Z</time>
      </trkpt>
      <trkpt lat="45.33857" lon="2.94222">
        <ele>1296.48</ele>
        <time>2021-08-15T10:25:57Z</time>
      </trkpt>
      <trkpt lat="45.33857" lon="2.94223">
        <ele>1296.48</ele>
        <time>2021-08-15T10:25:58Z</time>
      </trkpt>
      <trkpt lat="45.33861" lon="2.9424">
        <ele>1297.92</ele>
        <time>2021-08-15T10:26:08Z</time>
      </trkpt>
      <trkpt lat="45.33863" lon="2.94253">
        <ele>1299.36</ele>
        <time>2021-08-15T10:26:15Z</time>
      </trkpt>
      <trkpt lat="45.33863" lon="2.94255">
        <ele>1299.84</ele>
        <time>2021-08-15T10:26:16Z</time>
      </trkpt>
      <trkpt lat="45.33864" lon="2.94266">
        <ele>1300.8</ele>
        <time>2021-08-15T10:26:22Z</time>
      </trkpt>
      <trkpt lat="45.33862" lon="2.94283">
        <ele>1301.76</ele>
        <time>2021-08-15T10:26:31Z</time>
      </trkpt>
      <trkpt lat="45.33858" lon="2.94297">
        <ele>1302.72</ele>
        <time>2021-08-15T10:26:39Z</time>
      </trkpt>
      <trkpt lat="45.33854" lon="2.94312">
        <ele>1303.69</ele>
        <time>2021-08-15T10:26:48Z</time>
      </trkpt>
      <trkpt lat="45.33852" lon="2.94319">
        <ele>1303.69</ele>
        <time>2021-08-15T10:26:52Z</time>
      </trkpt>
      <trkpt lat="45.33852" lon="2.94321">
        <ele>1304.17</ele>
        <time>2021-08-15T10:26:53Z</time>
      </trkpt>
      <trkpt lat="45.33853" lon="2.94323">
        <ele>1304.65</ele>
        <time>2021-08-15T10:26:54Z</time>
      </trkpt>
      <trkpt lat="45.33853" lon="2.94325">
        <ele>1304.65</ele>
        <time>2021-08-15T10:26:55Z</time>
      </trkpt>
      <trkpt lat="45.33853" lon="2.94327">
        <ele>1304.65</ele>
        <time>2021-08-15T10:26:56Z</time>
      </trkpt>
      <trkpt lat="45.33852" lon="2.94329">
        <ele>1305.13</ele>
        <time>2021-08-15T10:26:57Z</time>
      </trkpt>
      <trkpt lat="45.33852" lon="2.9433">
        <ele>1305.13</ele>
        <time>2021-08-15T10:26:58Z</time>
      </trkpt>
      <trkpt lat="45.33852" lon="2.94332">
        <ele>1305.13</ele>
        <time>2021-08-15T10:26:59Z</time>
      </trkpt>
      <trkpt lat="45.3385" lon="2.94347">
        <ele>1306.09</ele>
        <time>2021-08-15T10:27:07Z</time>
      </trkpt>
      <trkpt lat="45.33848" lon="2.94363">
        <ele>1307.53</ele>
        <time>2021-08-15T10:27:17Z</time>
      </trkpt>
      <trkpt lat="45.33847" lon="2.94365">
        <ele>1307.53</ele>
        <time>2021-08-15T10:27:18Z</time>
      </trkpt>
      <trkpt lat="45.33846" lon="2.94366">
        <ele>1308.01</ele>
        <time>2021-08-15T10:27:19Z</time>
      </trkpt>
      <trkpt lat="45.33846" lon="2.94371">
        <ele>1308.49</ele>
        <time>2021-08-15T10:27:22Z</time>
      </trkpt>
      <trkpt lat="45.33845" lon="2.94372">
        <ele>1308.49</ele>
        <time>2021-08-15T10:27:23Z</time>
      </trkpt>
      <trkpt lat="45.33844" lon="2.94374">
        <ele>1308.49</ele>
        <time>2021-08-15T10:27:24Z</time>
      </trkpt>
      <trkpt lat="45.33839" lon="2.94384">
        <ele>1309.45</ele>
        <time>2021-08-15T10:27:30Z</time>
      </trkpt>
      <trkpt lat="45.3383" lon="2.94394">
        <ele>1310.41</ele>
        <time>2021-08-15T10:27:39Z</time>
      </trkpt>
      <trkpt lat="45.33825" lon="2.944">
        <ele>1311.38</ele>
        <time>2021-08-15T10:27:45Z</time>
      </trkpt>
      <trkpt lat="45.33824" lon="2.944">
        <ele>1311.38</ele>
        <time>2021-08-15T10:27:46Z</time>
      </trkpt>
      <trkpt lat="45.33818" lon="2.94402">
        <ele>1311.86</ele>
        <time>2021-08-15T10:27:51Z</time>
      </trkpt>
      <trkpt lat="45.33817" lon="2.94403">
        <ele>1312.34</ele>
        <time>2021-08-15T10:27:52Z</time>
      </trkpt>
      <trkpt lat="45.33816" lon="2.94403">
        <ele>1312.34</ele>
        <time>2021-08-15T10:27:53Z</time>
      </trkpt>
      <trkpt lat="45.33815" lon="2.94404">
        <ele>1313.3</ele>
        <time>2021-08-15T10:27:54Z</time>
      </trkpt>
      <trkpt lat="45.33813" lon="2.94404">
        <ele>1313.3</ele>
        <time>2021-08-15T10:27:55Z</time>
      </trkpt>
      <trkpt lat="45.33812" lon="2.94405">
        <ele>1313.3</ele>
        <time>2021-08-15T10:27:56Z</time>
      </trkpt>
      <trkpt lat="45.3381" lon="2.94405">
        <ele>1313.3</ele>
        <time>2021-08-15T10:27:57Z</time>
      </trkpt>
      <trkpt lat="45.33803" lon="2.94405">
        <ele>1314.26</ele>
        <time>2021-08-15T10:28:03Z</time>
      </trkpt>
      <trkpt lat="45.33801" lon="2.94405">
        <ele>1314.26</ele>
        <time>2021-08-15T10:28:04Z</time>
      </trkpt>
      <trkpt lat="45.338" lon="2.94406">
        <ele>1314.26</ele>
        <time>2021-08-15T10:28:05Z</time>
      </trkpt>
      <trkpt lat="45.33799" lon="2.94406">
        <ele>1314.26</ele>
        <time>2021-08-15T10:28:06Z</time>
      </trkpt>
      <trkpt lat="45.33797" lon="2.94406">
        <ele>1314.26</ele>
        <time>2021-08-15T10:28:07Z</time>
      </trkpt>
      <trkpt lat="45.33796" lon="2.94406">
        <ele>1314.74</ele>
        <time>2021-08-15T10:28:08Z</time>
      </trkpt>
      <trkpt lat="45.33794" lon="2.94406">
        <ele>1314.74</ele>
        <time>2021-08-15T10:28:09Z</time>
      </trkpt>
      <trkpt lat="45.33793" lon="2.94406">
        <ele>1314.74</ele>
        <time>2021-08-15T10:28:10Z</time>
      </trkpt>
      <trkpt lat="45.33792" lon="2.94406">
        <ele>1315.22</ele>
        <time>2021-08-15T10:28:11Z</time>
      </trkpt>
      <trkpt lat="45.3379" lon="2.94406">
        <ele>1315.22</ele>
        <time>2021-08-15T10:28:12Z</time>
      </trkpt>
      <trkpt lat="45.33789" lon="2.94406">
        <ele>1315.22</ele>
        <time>2021-08-15T10:28:13Z</time>
      </trkpt>
      <trkpt lat="45.33788" lon="2.94406">
        <ele>1315.22</ele>
        <time>2021-08-15T10:28:14Z</time>
      </trkpt>
      <trkpt lat="45.33779" lon="2.94403">
        <ele>1316.18</ele>
        <time>2021-08-15T10:28:21Z</time>
      </trkpt>
      <trkpt lat="45.33777" lon="2.94403">
        <ele>1316.18</ele>
        <time>2021-08-15T10:28:22Z</time>
      </trkpt>
      <trkpt lat="45.3376" lon="2.94399">
        <ele>1317.62</ele>
        <time>2021-08-15T10:28:34Z</time>
      </trkpt>
      <trkpt lat="45.33749" lon="2.94395">
        <ele>1319.07</ele>
        <time>2021-08-15T10:28:42Z</time>
      </trkpt>
      <trkpt lat="45.33737" lon="2.94394">
        <ele>1319.55</ele>
        <time>2021-08-15T10:28:50Z</time>
      </trkpt>
      <trkpt lat="45.33726" lon="2.94392">
        <ele>1320.51</ele>
        <time>2021-08-15T10:28:58Z</time>
      </trkpt>
      <trkpt lat="45.33714" lon="2.9439">
        <ele>1321.47</ele>
        <time>2021-08-15T10:29:06Z</time>
      </trkpt>
      <trkpt lat="45.33713" lon="2.9439">
        <ele>1321.47</ele>
        <time>2021-08-15T10:29:07Z</time>
      </trkpt>
      <trkpt lat="45.33711" lon="2.94389">
        <ele>1321.47</ele>
        <time>2021-08-15T10:29:08Z</time>
      </trkpt>
      <trkpt lat="45.337" lon="2.94388">
        <ele>1322.91</ele>
        <time>2021-08-15T10:29:16Z</time>
      </trkpt>
      <trkpt lat="45.33698" lon="2.94387">
        <ele>1322.91</ele>
        <time>2021-08-15T10:29:17Z</time>
      </trkpt>
      <trkpt lat="45.33685" lon="2.94385">
        <ele>1323.87</ele>
        <time>2021-08-15T10:29:26Z</time>
      </trkpt>
      <trkpt lat="45.3367" lon="2.9438">
        <ele>1324.83</ele>
        <time>2021-08-15T10:29:37Z</time>
      </trkpt>
      <trkpt lat="45.33655" lon="2.94376">
        <ele>1326.76</ele>
        <time>2021-08-15T10:29:47Z</time>
      </trkpt>
      <trkpt lat="45.33644" lon="2.94372">
        <ele>1327.72</ele>
        <time>2021-08-15T10:29:55Z</time>
      </trkpt>
      <trkpt lat="45.33643" lon="2.94371">
        <ele>1327.72</ele>
        <time>2021-08-15T10:29:56Z</time>
      </trkpt>
      <trkpt lat="45.33641" lon="2.94371">
        <ele>1327.72</ele>
        <time>2021-08-15T10:29:57Z</time>
      </trkpt>
      <trkpt lat="45.3364" lon="2.94371">
        <ele>1328.2</ele>
        <time>2021-08-15T10:29:58Z</time>
      </trkpt>
      <trkpt lat="45.33638" lon="2.94371">
        <ele>1328.2</ele>
        <time>2021-08-15T10:29:59Z</time>
      </trkpt>
      <trkpt lat="45.33632" lon="2.94369">
        <ele>1328.68</ele>
        <time>2021-08-15T10:30:03Z</time>
      </trkpt>
      <trkpt lat="45.33617" lon="2.94367">
        <ele>1330.12</ele>
        <time>2021-08-15T10:30:12Z</time>
      </trkpt>
      <trkpt lat="45.33612" lon="2.94363">
        <ele>1331.08</ele>
        <time>2021-08-15T10:30:16Z</time>
      </trkpt>
      <trkpt lat="45.3361" lon="2.94362">
        <ele>1331.08</ele>
        <time>2021-08-15T10:30:17Z</time>
      </trkpt>
      <trkpt lat="45.33609" lon="2.94362">
        <ele>1331.08</ele>
        <time>2021-08-15T10:30:18Z</time>
      </trkpt>
      <trkpt lat="45.33607" lon="2.94362">
        <ele>1331.08</ele>
        <time>2021-08-15T10:30:19Z</time>
      </trkpt>
      <trkpt lat="45.33606" lon="2.94363">
        <ele>1331.08</ele>
        <time>2021-08-15T10:30:20Z</time>
      </trkpt>
      <trkpt lat="45.33594" lon="2.94366">
        <ele>1332.52</ele>
        <time>2021-08-15T10:30:27Z</time>
      </trkpt>
      <trkpt lat="45.33592" lon="2.94367">
        <ele>1332.52</ele>
        <time>2021-08-15T10:30:28Z</time>
      </trkpt>
      <trkpt lat="45.33591" lon="2.94367">
        <ele>1332.52</ele>
        <time>2021-08-15T10:30:29Z</time>
      </trkpt>
      <trkpt lat="45.33589" lon="2.94367">
        <ele>1332.52</ele>
        <time>2021-08-15T10:30:30Z</time>
      </trkpt>
      <trkpt lat="45.33588" lon="2.94367">
        <ele>1332.52</ele>
        <time>2021-08-15T10:30:31Z</time>
      </trkpt>
      <trkpt lat="45.33586" lon="2.94368">
        <ele>1332.52</ele>
        <time>2021-08-15T10:30:32Z</time>
      </trkpt>
      <trkpt lat="45.33584" lon="2.94368">
        <ele>1332.52</ele>
        <time>2021-08-15T10:30:33Z</time>
      </trkpt>
      <trkpt lat="45.33572" lon="2.94366">
        <ele>1334.45</ele>
        <time>2021-08-15T10:30:41Z</time>
      </trkpt>
      <trkpt lat="45.3356" lon="2.94362">
        <ele>1335.41</ele>
        <time>2021-08-15T10:30:49Z</time>
      </trkpt>
      <trkpt lat="45.33551" lon="2.94362">
        <ele>1336.37</ele>
        <time>2021-08-15T10:30:56Z</time>
      </trkpt>
      <trkpt lat="45.33533" lon="2.94358">
        <ele>1337.33</ele>
        <time>2021-08-15T10:31:07Z</time>
      </trkpt>
      <trkpt lat="45.33521" lon="2.94353">
        <ele>1338.77</ele>
        <time>2021-08-15T10:31:15Z</time>
      </trkpt>
      <trkpt lat="45.33512" lon="2.94346">
        <ele>1340.22</ele>
        <time>2021-08-15T10:31:23Z</time>
      </trkpt>
      <trkpt lat="45.33504" lon="2.94332">
        <ele>1340.7</ele>
        <time>2021-08-15T10:31:32Z</time>
      </trkpt>
      <trkpt lat="45.33498" lon="2.94317">
        <ele>1342.14</ele>
        <time>2021-08-15T10:31:39Z</time>
      </trkpt>
      <trkpt lat="45.33494" lon="2.943">
        <ele>1342.62</ele>
        <time>2021-08-15T10:31:47Z</time>
      </trkpt>
      <trkpt lat="45.33491" lon="2.94289">
        <ele>1344.06</ele>
        <time>2021-08-15T10:31:52Z</time>
      </trkpt>
      <trkpt lat="45.3349" lon="2.94287">
        <ele>1344.06</ele>
        <time>2021-08-15T10:31:53Z</time>
      </trkpt>
      <trkpt lat="45.3349" lon="2.94285">
        <ele>1344.06</ele>
        <time>2021-08-15T10:31:54Z</time>
      </trkpt>
      <trkpt lat="45.33489" lon="2.94282">
        <ele>1344.06</ele>
        <time>2021-08-15T10:31:55Z</time>
      </trkpt>
      <trkpt lat="45.33488" lon="2.9428">
        <ele>1344.54</ele>
        <time>2021-08-15T10:31:56Z</time>
      </trkpt>
      <trkpt lat="45.33487" lon="2.94278">
        <ele>1344.54</ele>
        <time>2021-08-15T10:31:57Z</time>
      </trkpt>
      <trkpt lat="45.33477" lon="2.94269">
        <ele>1345.5</ele>
        <time>2021-08-15T10:32:04Z</time>
      </trkpt>
      <trkpt lat="45.33463" lon="2.94267">
        <ele>1346.46</ele>
        <time>2021-08-15T10:32:12Z</time>
      </trkpt>
      <trkpt lat="45.33461" lon="2.94267">
        <ele>1346.46</ele>
        <time>2021-08-15T10:32:13Z</time>
      </trkpt>
      <trkpt lat="45.33449" lon="2.94268">
        <ele>1346.94</ele>
        <time>2021-08-15T10:32:20Z</time>
      </trkpt>
      <trkpt lat="45.33439" lon="2.94267">
        <ele>1347.91</ele>
        <time>2021-08-15T10:32:25Z</time>
      </trkpt>
      <trkpt lat="45.33427" lon="2.94265">
        <ele>1348.39</ele>
        <time>2021-08-15T10:32:33Z</time>
      </trkpt>
      <trkpt lat="45.33413" lon="2.94265">
        <ele>1350.31</ele>
        <time>2021-08-15T10:32:42Z</time>
      </trkpt>
      <trkpt lat="45.33395" lon="2.94266">
        <ele>1351.27</ele>
        <time>2021-08-15T10:32:53Z</time>
      </trkpt>
      <trkpt lat="45.33379" lon="2.9427">
        <ele>1352.71</ele>
        <time>2021-08-15T10:33:03Z</time>
      </trkpt>
      <trkpt lat="45.33378" lon="2.94271">
        <ele>1352.71</ele>
        <time>2021-08-15T10:33:04Z</time>
      </trkpt>
      <trkpt lat="45.3336" lon="2.94275">
        <ele>1353.67</ele>
        <time>2021-08-15T10:33:14Z</time>
      </trkpt>
      <trkpt lat="45.33347" lon="2.9428">
        <ele>1354.63</ele>
        <time>2021-08-15T10:33:21Z</time>
      </trkpt>
      <trkpt lat="45.33345" lon="2.9428">
        <ele>1354.63</ele>
        <time>2021-08-15T10:33:22Z</time>
      </trkpt>
      <trkpt lat="45.33343" lon="2.9428">
        <ele>1354.63</ele>
        <time>2021-08-15T10:33:23Z</time>
      </trkpt>
      <trkpt lat="45.33342" lon="2.94281">
        <ele>1355.12</ele>
        <time>2021-08-15T10:33:24Z</time>
      </trkpt>
      <trkpt lat="45.3334" lon="2.94281">
        <ele>1355.6</ele>
        <time>2021-08-15T10:33:25Z</time>
      </trkpt>
      <trkpt lat="45.33338" lon="2.94282">
        <ele>1356.08</ele>
        <time>2021-08-15T10:33:26Z</time>
      </trkpt>
      <trkpt lat="45.33336" lon="2.94283">
        <ele>1356.08</ele>
        <time>2021-08-15T10:33:27Z</time>
      </trkpt>
      <trkpt lat="45.33322" lon="2.94296">
        <ele>1357.04</ele>
        <time>2021-08-15T10:33:37Z</time>
      </trkpt>
      <trkpt lat="45.3332" lon="2.94298">
        <ele>1357.52</ele>
        <time>2021-08-15T10:33:39Z</time>
      </trkpt>
      <trkpt lat="45.33319" lon="2.94299">
        <ele>1357.52</ele>
        <time>2021-08-15T10:33:40Z</time>
      </trkpt>
      <trkpt lat="45.33318" lon="2.943">
        <ele>1357.52</ele>
        <time>2021-08-15T10:33:41Z</time>
      </trkpt>
      <trkpt lat="45.33316" lon="2.94301">
        <ele>1358</ele>
        <time>2021-08-15T10:33:42Z</time>
      </trkpt>
      <trkpt lat="45.33315" lon="2.94302">
        <ele>1358</ele>
        <time>2021-08-15T10:33:43Z</time>
      </trkpt>
      <trkpt lat="45.33307" lon="2.94311">
        <ele>1359.44</ele>
        <time>2021-08-15T10:33:50Z</time>
      </trkpt>
      <trkpt lat="45.33297" lon="2.94321">
        <ele>1360.4</ele>
        <time>2021-08-15T10:33:58Z</time>
      </trkpt>
      <trkpt lat="45.33295" lon="2.94322">
        <ele>1360.4</ele>
        <time>2021-08-15T10:33:59Z</time>
      </trkpt>
      <trkpt lat="45.33294" lon="2.94324">
        <ele>1360.4</ele>
        <time>2021-08-15T10:34:00Z</time>
      </trkpt>
      <trkpt lat="45.33294" lon="2.94326">
        <ele>1360.4</ele>
        <time>2021-08-15T10:34:01Z</time>
      </trkpt>
      <trkpt lat="45.33292" lon="2.94326">
        <ele>1360.4</ele>
        <time>2021-08-15T10:34:02Z</time>
      </trkpt>
      <trkpt lat="45.33291" lon="2.94325">
        <ele>1360.4</ele>
        <time>2021-08-15T10:34:03Z</time>
      </trkpt>
      <trkpt lat="45.3329" lon="2.94326">
        <ele>1361.36</ele>
        <time>2021-08-15T10:34:04Z</time>
      </trkpt>
      <trkpt lat="45.33289" lon="2.94327">
        <ele>1361.36</ele>
        <time>2021-08-15T10:34:05Z</time>
      </trkpt>
      <trkpt lat="45.33287" lon="2.94327">
        <ele>1361.36</ele>
        <time>2021-08-15T10:34:06Z</time>
      </trkpt>
      <trkpt lat="45.33286" lon="2.94328">
        <ele>1361.36</ele>
        <time>2021-08-15T10:34:07Z</time>
      </trkpt>
      <trkpt lat="45.33286" lon="2.94328">
        <ele>1361.84</ele>
        <time>2021-08-15T10:34:13Z</time>
      </trkpt>
      <trkpt lat="45.33286" lon="2.94328">
        <ele>1361.84</ele>
        <time>2021-08-15T10:34:26Z</time>
      </trkpt>
      <trkpt lat="45.33285" lon="2.94327">
        <ele>1361.84</ele>
        <time>2021-08-15T10:34:37Z</time>
      </trkpt>
      <trkpt lat="45.33285" lon="2.94327">
        <ele>1361.84</ele>
        <time>2021-08-15T10:34:52Z</time>
      </trkpt>
      <trkpt lat="45.33285" lon="2.94329">
        <ele>1361.84</ele>
        <time>2021-08-15T10:34:56Z</time>
      </trkpt>
      <trkpt lat="45.33278" lon="2.94337">
        <ele>1361.84</ele>
        <time>2021-08-15T10:35:02Z</time>
      </trkpt>
      <trkpt lat="45.33263" lon="2.94349">
        <ele>1362.81</ele>
        <time>2021-08-15T10:35:12Z</time>
      </trkpt>
      <trkpt lat="45.33251" lon="2.94359">
        <ele>1364.25</ele>
        <time>2021-08-15T10:35:21Z</time>
      </trkpt>
      <trkpt lat="45.33243" lon="2.94369">
        <ele>1365.21</ele>
        <time>2021-08-15T10:35:29Z</time>
      </trkpt>
      <trkpt lat="45.33237" lon="2.94379">
        <ele>1366.17</ele>
        <time>2021-08-15T10:35:37Z</time>
      </trkpt>
      <trkpt lat="45.33236" lon="2.94381">
        <ele>1366.17</ele>
        <time>2021-08-15T10:35:38Z</time>
      </trkpt>
      <trkpt lat="45.33231" lon="2.94393">
        <ele>1367.13</ele>
        <time>2021-08-15T10:35:46Z</time>
      </trkpt>
      <trkpt lat="45.33227" lon="2.94408">
        <ele>1368.09</ele>
        <time>2021-08-15T10:35:55Z</time>
      </trkpt>
      <trkpt lat="45.33226" lon="2.9441">
        <ele>1368.57</ele>
        <time>2021-08-15T10:35:56Z</time>
      </trkpt>
      <trkpt lat="45.33225" lon="2.94412">
        <ele>1368.57</ele>
        <time>2021-08-15T10:35:57Z</time>
      </trkpt>
      <trkpt lat="45.33219" lon="2.94431">
        <ele>1369.54</ele>
        <time>2021-08-15T10:36:08Z</time>
      </trkpt>
      <trkpt lat="45.33216" lon="2.94438">
        <ele>1370.5</ele>
        <time>2021-08-15T10:36:12Z</time>
      </trkpt>
      <trkpt lat="45.33215" lon="2.94439">
        <ele>1370.5</ele>
        <time>2021-08-15T10:36:13Z</time>
      </trkpt>
      <trkpt lat="45.33214" lon="2.9444">
        <ele>1370.5</ele>
        <time>2021-08-15T10:36:14Z</time>
      </trkpt>
      <trkpt lat="45.33213" lon="2.94441">
        <ele>1370.98</ele>
        <time>2021-08-15T10:36:15Z</time>
      </trkpt>
      <trkpt lat="45.33212" lon="2.94442">
        <ele>1370.98</ele>
        <time>2021-08-15T10:36:16Z</time>
      </trkpt>
      <trkpt lat="45.33211" lon="2.94444">
        <ele>1370.98</ele>
        <time>2021-08-15T10:36:17Z</time>
      </trkpt>
      <trkpt lat="45.33211" lon="2.94445">
        <ele>1370.98</ele>
        <time>2021-08-15T10:36:18Z</time>
      </trkpt>
      <trkpt lat="45.3321" lon="2.94446">
        <ele>1370.98</ele>
        <time>2021-08-15T10:36:19Z</time>
      </trkpt>
      <trkpt lat="45.33209" lon="2.94448">
        <ele>1370.98</ele>
        <time>2021-08-15T10:36:20Z</time>
      </trkpt>
      <trkpt lat="45.33208" lon="2.94449">
        <ele>1371.46</ele>
        <time>2021-08-15T10:36:21Z</time>
      </trkpt>
      <trkpt lat="45.33207" lon="2.9445">
        <ele>1371.46</ele>
        <time>2021-08-15T10:36:22Z</time>
      </trkpt>
      <trkpt lat="45.33206" lon="2.94452">
        <ele>1371.46</ele>
        <time>2021-08-15T10:36:23Z</time>
      </trkpt>
      <trkpt lat="45.33204" lon="2.94453">
        <ele>1371.46</ele>
        <time>2021-08-15T10:36:24Z</time>
      </trkpt>
      <trkpt lat="45.33203" lon="2.94453">
        <ele>1371.94</ele>
        <time>2021-08-15T10:36:25Z</time>
      </trkpt>
      <trkpt lat="45.33202" lon="2.94454">
        <ele>1371.94</ele>
        <time>2021-08-15T10:36:26Z</time>
      </trkpt>
      <trkpt lat="45.332" lon="2.94456">
        <ele>1372.42</ele>
        <time>2021-08-15T10:36:28Z</time>
      </trkpt>
      <trkpt lat="45.33199" lon="2.94457">
        <ele>1372.42</ele>
        <time>2021-08-15T10:36:29Z</time>
      </trkpt>
      <trkpt lat="45.33198" lon="2.94458">
        <ele>1372.42</ele>
        <time>2021-08-15T10:36:30Z</time>
      </trkpt>
      <trkpt lat="45.33197" lon="2.94459">
        <ele>1372.9</ele>
        <time>2021-08-15T10:36:31Z</time>
      </trkpt>
      <trkpt lat="45.33195" lon="2.9446">
        <ele>1372.9</ele>
        <time>2021-08-15T10:36:32Z</time>
      </trkpt>
      <trkpt lat="45.33193" lon="2.94462">
        <ele>1373.38</ele>
        <time>2021-08-15T10:36:34Z</time>
      </trkpt>
      <trkpt lat="45.33192" lon="2.94463">
        <ele>1373.86</ele>
        <time>2021-08-15T10:36:35Z</time>
      </trkpt>
      <trkpt lat="45.33191" lon="2.94464">
        <ele>1373.86</ele>
        <time>2021-08-15T10:36:36Z</time>
      </trkpt>
      <trkpt lat="45.3319" lon="2.94464">
        <ele>1373.86</ele>
        <time>2021-08-15T10:36:37Z</time>
      </trkpt>
      <trkpt lat="45.33188" lon="2.94466">
        <ele>1373.86</ele>
        <time>2021-08-15T10:36:38Z</time>
      </trkpt>
      <trkpt lat="45.33188" lon="2.94467">
        <ele>1374.34</ele>
        <time>2021-08-15T10:36:39Z</time>
      </trkpt>
      <trkpt lat="45.33187" lon="2.94468">
        <ele>1374.34</ele>
        <time>2021-08-15T10:36:40Z</time>
      </trkpt>
      <trkpt lat="45.33186" lon="2.94469">
        <ele>1374.34</ele>
        <time>2021-08-15T10:36:41Z</time>
      </trkpt>
      <trkpt lat="45.33175" lon="2.94476">
        <ele>1375.78</ele>
        <time>2021-08-15T10:36:50Z</time>
      </trkpt>
      <trkpt lat="45.33174" lon="2.94476">
        <ele>1375.78</ele>
        <time>2021-08-15T10:36:51Z</time>
      </trkpt>
      <trkpt lat="45.33165" lon="2.94483">
        <ele>1377.23</ele>
        <time>2021-08-15T10:36:59Z</time>
      </trkpt>
      <trkpt lat="45.33161" lon="2.94487">
        <ele>1377.71</ele>
        <time>2021-08-15T10:37:03Z</time>
      </trkpt>
      <trkpt lat="45.3316" lon="2.94487">
        <ele>1377.71</ele>
        <time>2021-08-15T10:37:04Z</time>
      </trkpt>
      <trkpt lat="45.33158" lon="2.94488">
        <ele>1378.19</ele>
        <time>2021-08-15T10:37:05Z</time>
      </trkpt>
      <trkpt lat="45.33157" lon="2.94489">
        <ele>1378.19</ele>
        <time>2021-08-15T10:37:06Z</time>
      </trkpt>
      <trkpt lat="45.33156" lon="2.9449">
        <ele>1378.19</ele>
        <time>2021-08-15T10:37:07Z</time>
      </trkpt>
      <trkpt lat="45.33143" lon="2.945">
        <ele>1379.15</ele>
        <time>2021-08-15T10:37:18Z</time>
      </trkpt>
      <trkpt lat="45.33135" lon="2.94504">
        <ele>1380.59</ele>
        <time>2021-08-15T10:37:25Z</time>
      </trkpt>
      <trkpt lat="45.33125" lon="2.94511">
        <ele>1381.55</ele>
        <time>2021-08-15T10:37:33Z</time>
      </trkpt>
      <trkpt lat="45.33124" lon="2.94511">
        <ele>1381.55</ele>
        <time>2021-08-15T10:37:34Z</time>
      </trkpt>
      <trkpt lat="45.33123" lon="2.94512">
        <ele>1382.03</ele>
        <time>2021-08-15T10:37:35Z</time>
      </trkpt>
      <trkpt lat="45.33122" lon="2.94513">
        <ele>1382.03</ele>
        <time>2021-08-15T10:37:36Z</time>
      </trkpt>
      <trkpt lat="45.33121" lon="2.94514">
        <ele>1382.03</ele>
        <time>2021-08-15T10:37:37Z</time>
      </trkpt>
      <trkpt lat="45.33119" lon="2.94514">
        <ele>1382.03</ele>
        <time>2021-08-15T10:37:38Z</time>
      </trkpt>
      <trkpt lat="45.33118" lon="2.94515">
        <ele>1382.51</ele>
        <time>2021-08-15T10:37:39Z</time>
      </trkpt>
      <trkpt lat="45.33117" lon="2.94515">
        <ele>1382.51</ele>
        <time>2021-08-15T10:37:40Z</time>
      </trkpt>
      <trkpt lat="45.33106" lon="2.94523">
        <ele>1383.96</ele>
        <time>2021-08-15T10:37:50Z</time>
      </trkpt>
      <trkpt lat="45.33096" lon="2.94532">
        <ele>1384.92</ele>
        <time>2021-08-15T10:37:59Z</time>
      </trkpt>
      <trkpt lat="45.33087" lon="2.94539">
        <ele>1385.88</ele>
        <time>2021-08-15T10:38:07Z</time>
      </trkpt>
      <trkpt lat="45.33079" lon="2.94545">
        <ele>1386.84</ele>
        <time>2021-08-15T10:38:14Z</time>
      </trkpt>
      <trkpt lat="45.3307" lon="2.94555">
        <ele>1387.8</ele>
        <time>2021-08-15T10:38:22Z</time>
      </trkpt>
      <trkpt lat="45.3306" lon="2.94564">
        <ele>1389.72</ele>
        <time>2021-08-15T10:38:30Z</time>
      </trkpt>
      <trkpt lat="45.33049" lon="2.94572">
        <ele>1390.68</ele>
        <time>2021-08-15T10:38:38Z</time>
      </trkpt>
      <trkpt lat="45.33037" lon="2.94581">
        <ele>1391.65</ele>
        <time>2021-08-15T10:38:46Z</time>
      </trkpt>
      <trkpt lat="45.33027" lon="2.94588">
        <ele>1392.61</ele>
        <time>2021-08-15T10:38:53Z</time>
      </trkpt>
      <trkpt lat="45.33016" lon="2.94602">
        <ele>1394.05</ele>
        <time>2021-08-15T10:39:02Z</time>
      </trkpt>
      <trkpt lat="45.33007" lon="2.94616">
        <ele>1395.01</ele>
        <time>2021-08-15T10:39:10Z</time>
      </trkpt>
      <trkpt lat="45.32998" lon="2.94628">
        <ele>1395.97</ele>
        <time>2021-08-15T10:39:18Z</time>
      </trkpt>
      <trkpt lat="45.32988" lon="2.94643">
        <ele>1397.41</ele>
        <time>2021-08-15T10:39:26Z</time>
      </trkpt>
      <trkpt lat="45.3298" lon="2.94653">
        <ele>1398.86</ele>
        <time>2021-08-15T10:39:34Z</time>
      </trkpt>
      <trkpt lat="45.32973" lon="2.94663">
        <ele>1399.82</ele>
        <time>2021-08-15T10:39:41Z</time>
      </trkpt>
      <trkpt lat="45.32964" lon="2.94676">
        <ele>1401.26</ele>
        <time>2021-08-15T10:39:51Z</time>
      </trkpt>
      <trkpt lat="45.32953" lon="2.94688">
        <ele>1402.7</ele>
        <time>2021-08-15T10:40:01Z</time>
      </trkpt>
      <trkpt lat="45.32952" lon="2.9469">
        <ele>1402.22</ele>
        <time>2021-08-15T10:40:02Z</time>
      </trkpt>
      <trkpt lat="45.32951" lon="2.94691">
        <ele>1402.22</ele>
        <time>2021-08-15T10:40:03Z</time>
      </trkpt>
      <trkpt lat="45.3295" lon="2.94693">
        <ele>1402.22</ele>
        <time>2021-08-15T10:40:04Z</time>
      </trkpt>
      <trkpt lat="45.32946" lon="2.94701">
        <ele>1403.66</ele>
        <time>2021-08-15T10:40:09Z</time>
      </trkpt>
      <trkpt lat="45.32946" lon="2.94702">
        <ele>1403.66</ele>
        <time>2021-08-15T10:40:10Z</time>
      </trkpt>
      <trkpt lat="45.32939" lon="2.94718">
        <ele>1404.62</ele>
        <time>2021-08-15T10:40:20Z</time>
      </trkpt>
      <trkpt lat="45.32932" lon="2.94739">
        <ele>1406.55</ele>
        <time>2021-08-15T10:40:32Z</time>
      </trkpt>
      <trkpt lat="45.32925" lon="2.94752">
        <ele>1407.99</ele>
        <time>2021-08-15T10:40:41Z</time>
      </trkpt>
      <trkpt lat="45.32921" lon="2.94759">
        <ele>1408.47</ele>
        <time>2021-08-15T10:40:46Z</time>
      </trkpt>
      <trkpt lat="45.3292" lon="2.9476">
        <ele>1408.47</ele>
        <time>2021-08-15T10:40:47Z</time>
      </trkpt>
      <trkpt lat="45.32919" lon="2.94761">
        <ele>1408.95</ele>
        <time>2021-08-15T10:40:48Z</time>
      </trkpt>
      <trkpt lat="45.32919" lon="2.94763">
        <ele>1408.95</ele>
        <time>2021-08-15T10:40:49Z</time>
      </trkpt>
      <trkpt lat="45.32918" lon="2.94764">
        <ele>1408.95</ele>
        <time>2021-08-15T10:40:50Z</time>
      </trkpt>
      <trkpt lat="45.32916" lon="2.94765">
        <ele>1409.43</ele>
        <time>2021-08-15T10:40:51Z</time>
      </trkpt>
      <trkpt lat="45.32915" lon="2.94767">
        <ele>1409.43</ele>
        <time>2021-08-15T10:40:52Z</time>
      </trkpt>
      <trkpt lat="45.32914" lon="2.94768">
        <ele>1409.91</ele>
        <time>2021-08-15T10:40:53Z</time>
      </trkpt>
      <trkpt lat="45.32913" lon="2.94769">
        <ele>1409.91</ele>
        <time>2021-08-15T10:40:54Z</time>
      </trkpt>
      <trkpt lat="45.32912" lon="2.94771">
        <ele>1409.91</ele>
        <time>2021-08-15T10:40:55Z</time>
      </trkpt>
      <trkpt lat="45.32911" lon="2.94772">
        <ele>1410.39</ele>
        <time>2021-08-15T10:40:56Z</time>
      </trkpt>
      <trkpt lat="45.3291" lon="2.94773">
        <ele>1410.39</ele>
        <time>2021-08-15T10:40:57Z</time>
      </trkpt>
      <trkpt lat="45.32909" lon="2.94774">
        <ele>1410.39</ele>
        <time>2021-08-15T10:40:58Z</time>
      </trkpt>
      <trkpt lat="45.32908" lon="2.94776">
        <ele>1410.87</ele>
        <time>2021-08-15T10:40:59Z</time>
      </trkpt>
      <trkpt lat="45.32908" lon="2.94778">
        <ele>1410.87</ele>
        <time>2021-08-15T10:41:00Z</time>
      </trkpt>
      <trkpt lat="45.32907" lon="2.94779">
        <ele>1410.87</ele>
        <time>2021-08-15T10:41:01Z</time>
      </trkpt>
      <trkpt lat="45.32904" lon="2.94784">
        <ele>1410.87</ele>
        <time>2021-08-15T10:41:05Z</time>
      </trkpt>
      <trkpt lat="45.32903" lon="2.94786">
        <ele>1410.87</ele>
        <time>2021-08-15T10:41:06Z</time>
      </trkpt>
      <trkpt lat="45.32902" lon="2.94787">
        <ele>1410.87</ele>
        <time>2021-08-15T10:41:07Z</time>
      </trkpt>
      <trkpt lat="45.32901" lon="2.94788">
        <ele>1410.87</ele>
        <time>2021-08-15T10:41:08Z</time>
      </trkpt>
      <trkpt lat="45.329" lon="2.94789">
        <ele>1410.87</ele>
        <time>2021-08-15T10:41:09Z</time>
      </trkpt>
      <trkpt lat="45.32899" lon="2.94791">
        <ele>1411.35</ele>
        <time>2021-08-15T10:41:10Z</time>
      </trkpt>
      <trkpt lat="45.3289" lon="2.94802">
        <ele>1412.79</ele>
        <time>2021-08-15T10:41:19Z</time>
      </trkpt>
      <trkpt lat="45.32888" lon="2.94805">
        <ele>1412.79</ele>
        <time>2021-08-15T10:41:21Z</time>
      </trkpt>
      <trkpt lat="45.32885" lon="2.9481">
        <ele>1413.28</ele>
        <time>2021-08-15T10:41:25Z</time>
      </trkpt>
      <trkpt lat="45.32884" lon="2.94812">
        <ele>1413.28</ele>
        <time>2021-08-15T10:41:26Z</time>
      </trkpt>
      <trkpt lat="45.32874" lon="2.94826">
        <ele>1414.72</ele>
        <time>2021-08-15T10:41:36Z</time>
      </trkpt>
      <trkpt lat="45.32868" lon="2.94839">
        <ele>1415.68</ele>
        <time>2021-08-15T10:41:44Z</time>
      </trkpt>
      <trkpt lat="45.32861" lon="2.94853">
        <ele>1416.64</ele>
        <time>2021-08-15T10:41:53Z</time>
      </trkpt>
      <trkpt lat="45.32856" lon="2.94867">
        <ele>1417.6</ele>
        <time>2021-08-15T10:42:01Z</time>
      </trkpt>
      <trkpt lat="45.32853" lon="2.94881">
        <ele>1418.56</ele>
        <time>2021-08-15T10:42:09Z</time>
      </trkpt>
      <trkpt lat="45.3285" lon="2.94889">
        <ele>1419.52</ele>
        <time>2021-08-15T10:42:14Z</time>
      </trkpt>
      <trkpt lat="45.3285" lon="2.94891">
        <ele>1419.52</ele>
        <time>2021-08-15T10:42:15Z</time>
      </trkpt>
      <trkpt lat="45.32849" lon="2.94894">
        <ele>1420</ele>
        <time>2021-08-15T10:42:17Z</time>
      </trkpt>
      <trkpt lat="45.32848" lon="2.94895">
        <ele>1420</ele>
        <time>2021-08-15T10:42:18Z</time>
      </trkpt>
      <trkpt lat="45.32847" lon="2.94896">
        <ele>1420</ele>
        <time>2021-08-15T10:42:19Z</time>
      </trkpt>
      <trkpt lat="45.32847" lon="2.94898">
        <ele>1420.49</ele>
        <time>2021-08-15T10:42:20Z</time>
      </trkpt>
      <trkpt lat="45.32846" lon="2.94899">
        <ele>1420.49</ele>
        <time>2021-08-15T10:42:21Z</time>
      </trkpt>
      <trkpt lat="45.32845" lon="2.949">
        <ele>1420.49</ele>
        <time>2021-08-15T10:42:22Z</time>
      </trkpt>
      <trkpt lat="45.32844" lon="2.94906">
        <ele>1420.49</ele>
        <time>2021-08-15T10:42:25Z</time>
      </trkpt>
      <trkpt lat="45.32842" lon="2.94908">
        <ele>1420.49</ele>
        <time>2021-08-15T10:42:26Z</time>
      </trkpt>
      <trkpt lat="45.32841" lon="2.94909">
        <ele>1420.49</ele>
        <time>2021-08-15T10:42:27Z</time>
      </trkpt>
      <trkpt lat="45.3284" lon="2.9491">
        <ele>1420.97</ele>
        <time>2021-08-15T10:42:28Z</time>
      </trkpt>
      <trkpt lat="45.32839" lon="2.94911">
        <ele>1420.97</ele>
        <time>2021-08-15T10:42:29Z</time>
      </trkpt>
      <trkpt lat="45.32837" lon="2.94912">
        <ele>1420.97</ele>
        <time>2021-08-15T10:42:30Z</time>
      </trkpt>
      <trkpt lat="45.32836" lon="2.94913">
        <ele>1420.97</ele>
        <time>2021-08-15T10:42:31Z</time>
      </trkpt>
      <trkpt lat="45.32835" lon="2.94915">
        <ele>1420.97</ele>
        <time>2021-08-15T10:42:32Z</time>
      </trkpt>
      <trkpt lat="45.32834" lon="2.94916">
        <ele>1421.45</ele>
        <time>2021-08-15T10:42:33Z</time>
      </trkpt>
      <trkpt lat="45.32833" lon="2.94917">
        <ele>1421.45</ele>
        <time>2021-08-15T10:42:34Z</time>
      </trkpt>
      <trkpt lat="45.32831" lon="2.94918">
        <ele>1421.45</ele>
        <time>2021-08-15T10:42:35Z</time>
      </trkpt>
      <trkpt lat="45.3283" lon="2.94918">
        <ele>1421.45</ele>
        <time>2021-08-15T10:42:36Z</time>
      </trkpt>
      <trkpt lat="45.32828" lon="2.94919">
        <ele>1421.45</ele>
        <time>2021-08-15T10:42:37Z</time>
      </trkpt>
      <trkpt lat="45.32827" lon="2.9492">
        <ele>1421.93</ele>
        <time>2021-08-15T10:42:38Z</time>
      </trkpt>
      <trkpt lat="45.32825" lon="2.94921">
        <ele>1422.41</ele>
        <time>2021-08-15T10:42:39Z</time>
      </trkpt>
      <trkpt lat="45.32824" lon="2.94922">
        <ele>1422.41</ele>
        <time>2021-08-15T10:42:40Z</time>
      </trkpt>
      <trkpt lat="45.32822" lon="2.94922">
        <ele>1422.41</ele>
        <time>2021-08-15T10:42:41Z</time>
      </trkpt>
      <trkpt lat="45.32821" lon="2.94922">
        <ele>1422.41</ele>
        <time>2021-08-15T10:42:42Z</time>
      </trkpt>
      <trkpt lat="45.3282" lon="2.94923">
        <ele>1422.41</ele>
        <time>2021-08-15T10:42:43Z</time>
      </trkpt>
      <trkpt lat="45.32818" lon="2.94923">
        <ele>1422.41</ele>
        <time>2021-08-15T10:42:44Z</time>
      </trkpt>
      <trkpt lat="45.32817" lon="2.94922">
        <ele>1422.89</ele>
        <time>2021-08-15T10:42:45Z</time>
      </trkpt>
      <trkpt lat="45.32805" lon="2.94921">
        <ele>1424.33</ele>
        <time>2021-08-15T10:42:53Z</time>
      </trkpt>
      <trkpt lat="45.32787" lon="2.94922">
        <ele>1425.29</ele>
        <time>2021-08-15T10:43:03Z</time>
      </trkpt>
      <trkpt lat="45.32773" lon="2.94926">
        <ele>1425.77</ele>
        <time>2021-08-15T10:43:11Z</time>
      </trkpt>
      <trkpt lat="45.32752" lon="2.94931">
        <ele>1426.25</ele>
        <time>2021-08-15T10:43:20Z</time>
      </trkpt>
      <trkpt lat="45.32727" lon="2.94927">
        <ele>1427.7</ele>
        <time>2021-08-15T10:43:30Z</time>
      </trkpt>
      <trkpt lat="45.3271" lon="2.94922">
        <ele>1429.14</ele>
        <time>2021-08-15T10:43:40Z</time>
      </trkpt>
      <trkpt lat="45.32692" lon="2.94915">
        <ele>1430.58</ele>
        <time>2021-08-15T10:43:50Z</time>
      </trkpt>
      <trkpt lat="45.32676" lon="2.94905">
        <ele>1431.54</ele>
        <time>2021-08-15T10:43:58Z</time>
      </trkpt>
      <trkpt lat="45.32662" lon="2.94899">
        <ele>1432.5</ele>
        <time>2021-08-15T10:44:05Z</time>
      </trkpt>
      <trkpt lat="45.32642" lon="2.94892">
        <ele>1432.98</ele>
        <time>2021-08-15T10:44:14Z</time>
      </trkpt>
      <trkpt lat="45.32621" lon="2.94893">
        <ele>1434.91</ele>
        <time>2021-08-15T10:44:23Z</time>
      </trkpt>
      <trkpt lat="45.32602" lon="2.94894">
        <ele>1436.35</ele>
        <time>2021-08-15T10:44:31Z</time>
      </trkpt>
      <trkpt lat="45.32589" lon="2.94895">
        <ele>1436.83</ele>
        <time>2021-08-15T10:44:38Z</time>
      </trkpt>
      <trkpt lat="45.32574" lon="2.94897">
        <ele>1439.23</ele>
        <time>2021-08-15T10:44:47Z</time>
      </trkpt>
      <trkpt lat="45.32562" lon="2.94898">
        <ele>1440.19</ele>
        <time>2021-08-15T10:44:56Z</time>
      </trkpt>
      <trkpt lat="45.32552" lon="2.94899">
        <ele>1441.63</ele>
        <time>2021-08-15T10:45:04Z</time>
      </trkpt>
      <trkpt lat="45.3254" lon="2.949">
        <ele>1442.6</ele>
        <time>2021-08-15T10:45:13Z</time>
      </trkpt>
      <trkpt lat="45.32529" lon="2.94901">
        <ele>1443.56</ele>
        <time>2021-08-15T10:45:21Z</time>
      </trkpt>
      <trkpt lat="45.32516" lon="2.94902">
        <ele>1445</ele>
        <time>2021-08-15T10:45:30Z</time>
      </trkpt>
      <trkpt lat="45.32502" lon="2.94901">
        <ele>1445.96</ele>
        <time>2021-08-15T10:45:39Z</time>
      </trkpt>
      <trkpt lat="45.32501" lon="2.94901">
        <ele>1445.96</ele>
        <time>2021-08-15T10:45:44Z</time>
      </trkpt>
      <trkpt lat="45.32501" lon="2.949">
        <ele>1445.96</ele>
        <time>2021-08-15T10:45:51Z</time>
      </trkpt>
      <trkpt lat="45.32499" lon="2.94901">
        <ele>1446.44</ele>
        <time>2021-08-15T10:46:02Z</time>
      </trkpt>
      <trkpt lat="45.32498" lon="2.94901">
        <ele>1446.44</ele>
        <time>2021-08-15T10:46:05Z</time>
      </trkpt>
      <trkpt lat="45.32497" lon="2.94902">
        <ele>1446.44</ele>
        <time>2021-08-15T10:46:06Z</time>
      </trkpt>
      <trkpt lat="45.32496" lon="2.94902">
        <ele>1446.44</ele>
        <time>2021-08-15T10:46:07Z</time>
      </trkpt>
      <trkpt lat="45.32495" lon="2.94902">
        <ele>1446.44</ele>
        <time>2021-08-15T10:46:08Z</time>
      </trkpt>
      <trkpt lat="45.32493" lon="2.94902">
        <ele>1446.44</ele>
        <time>2021-08-15T10:46:09Z</time>
      </trkpt>
      <trkpt lat="45.32492" lon="2.94901">
        <ele>1446.44</ele>
        <time>2021-08-15T10:46:10Z</time>
      </trkpt>
      <trkpt lat="45.3249" lon="2.94901">
        <ele>1446.44</ele>
        <time>2021-08-15T10:46:11Z</time>
      </trkpt>
      <trkpt lat="45.32477" lon="2.94905">
        <ele>1447.4</ele>
        <time>2021-08-15T10:46:19Z</time>
      </trkpt>
      <trkpt lat="45.32463" lon="2.94906">
        <ele>1448.84</ele>
        <time>2021-08-15T10:46:27Z</time>
      </trkpt>
      <trkpt lat="45.32448" lon="2.94908">
        <ele>1449.32</ele>
        <time>2021-08-15T10:46:36Z</time>
      </trkpt>
      <trkpt lat="45.32429" lon="2.9491">
        <ele>1450.29</ele>
        <time>2021-08-15T10:46:46Z</time>
      </trkpt>
      <trkpt lat="45.32411" lon="2.94912">
        <ele>1450.77</ele>
        <time>2021-08-15T10:46:53Z</time>
      </trkpt>
      <trkpt lat="45.32379" lon="2.94916">
        <ele>1450.77</ele>
        <time>2021-08-15T10:47:02Z</time>
      </trkpt>
      <trkpt lat="45.32341" lon="2.9492">
        <ele>1448.84</ele>
        <time>2021-08-15T10:47:09Z</time>
      </trkpt>
      <trkpt lat="45.32305" lon="2.94924">
        <ele>1445.96</ele>
        <time>2021-08-15T10:47:14Z</time>
      </trkpt>
      <trkpt lat="45.32297" lon="2.94925">
        <ele>1445.48</ele>
        <time>2021-08-15T10:47:15Z</time>
      </trkpt>
      <trkpt lat="45.3229" lon="2.94926">
        <ele>1445.48</ele>
        <time>2021-08-15T10:47:16Z</time>
      </trkpt>
      <trkpt lat="45.32277" lon="2.94928">
        <ele>1446.44</ele>
        <time>2021-08-15T10:47:18Z</time>
      </trkpt>
      <trkpt lat="45.32261" lon="2.94929">
        <ele>1447.88</ele>
        <time>2021-08-15T10:47:21Z</time>
      </trkpt>
      <trkpt lat="45.32256" lon="2.94929">
        <ele>1448.36</ele>
        <time>2021-08-15T10:47:22Z</time>
      </trkpt>
      <trkpt lat="45.32239" lon="2.94932">
        <ele>1449.81</ele>
        <time>2021-08-15T10:47:26Z</time>
      </trkpt>
      <trkpt lat="45.32202" lon="2.94935">
        <ele>1450.77</ele>
        <time>2021-08-15T10:47:35Z</time>
      </trkpt>
      <trkpt lat="45.32157" lon="2.9494">
        <ele>1453.17</ele>
        <time>2021-08-15T10:47:46Z</time>
      </trkpt>
      <trkpt lat="45.32133" lon="2.94941">
        <ele>1452.69</ele>
        <time>2021-08-15T10:47:53Z</time>
      </trkpt>
      <trkpt lat="45.32106" lon="2.94931">
        <ele>1451.25</ele>
        <time>2021-08-15T10:48:02Z</time>
      </trkpt>
      <trkpt lat="45.3209" lon="2.94923">
        <ele>1450.29</ele>
        <time>2021-08-15T10:48:07Z</time>
      </trkpt>
      <trkpt lat="45.32086" lon="2.94921">
        <ele>1450.29</ele>
        <time>2021-08-15T10:48:08Z</time>
      </trkpt>
      <trkpt lat="45.32081" lon="2.9492">
        <ele>1449.32</ele>
        <time>2021-08-15T10:48:09Z</time>
      </trkpt>
      <trkpt lat="45.32077" lon="2.94918">
        <ele>1449.32</ele>
        <time>2021-08-15T10:48:10Z</time>
      </trkpt>
      <trkpt lat="45.32072" lon="2.94915">
        <ele>1448.36</ele>
        <time>2021-08-15T10:48:11Z</time>
      </trkpt>
      <trkpt lat="45.32067" lon="2.94914">
        <ele>1447.88</ele>
        <time>2021-08-15T10:48:12Z</time>
      </trkpt>
      <trkpt lat="45.32061" lon="2.94913">
        <ele>1447.4</ele>
        <time>2021-08-15T10:48:13Z</time>
      </trkpt>
      <trkpt lat="45.32019" lon="2.94918">
        <ele>1444.52</ele>
        <time>2021-08-15T10:48:20Z</time>
      </trkpt>
      <trkpt lat="45.32007" lon="2.94924">
        <ele>1443.56</ele>
        <time>2021-08-15T10:48:22Z</time>
      </trkpt>
      <trkpt lat="45.31971" lon="2.94941">
        <ele>1441.63</ele>
        <time>2021-08-15T10:48:28Z</time>
      </trkpt>
      <trkpt lat="45.31965" lon="2.94945">
        <ele>1441.63</ele>
        <time>2021-08-15T10:48:29Z</time>
      </trkpt>
      <trkpt lat="45.31959" lon="2.94951">
        <ele>1441.63</ele>
        <time>2021-08-15T10:48:30Z</time>
      </trkpt>
      <trkpt lat="45.31955" lon="2.94958">
        <ele>1441.63</ele>
        <time>2021-08-15T10:48:31Z</time>
      </trkpt>
      <trkpt lat="45.31952" lon="2.94965">
        <ele>1441.15</ele>
        <time>2021-08-15T10:48:32Z</time>
      </trkpt>
      <trkpt lat="45.31949" lon="2.94974">
        <ele>1441.15</ele>
        <time>2021-08-15T10:48:33Z</time>
      </trkpt>
      <trkpt lat="45.31948" lon="2.94985">
        <ele>1439.71</ele>
        <time>2021-08-15T10:48:34Z</time>
      </trkpt>
      <trkpt lat="45.31947" lon="2.94995">
        <ele>1439.71</ele>
        <time>2021-08-15T10:48:35Z</time>
      </trkpt>
      <trkpt lat="45.31946" lon="2.95006">
        <ele>1439.23</ele>
        <time>2021-08-15T10:48:36Z</time>
      </trkpt>
      <trkpt lat="45.31945" lon="2.95017">
        <ele>1439.23</ele>
        <time>2021-08-15T10:48:37Z</time>
      </trkpt>
      <trkpt lat="45.31946" lon="2.95039">
        <ele>1439.23</ele>
        <time>2021-08-15T10:48:39Z</time>
      </trkpt>
      <trkpt lat="45.31948" lon="2.95049">
        <ele>1438.75</ele>
        <time>2021-08-15T10:48:40Z</time>
      </trkpt>
      <trkpt lat="45.3195" lon="2.9506">
        <ele>1438.75</ele>
        <time>2021-08-15T10:48:41Z</time>
      </trkpt>
      <trkpt lat="45.31965" lon="2.95114">
        <ele>1436.35</ele>
        <time>2021-08-15T10:48:46Z</time>
      </trkpt>
      <trkpt lat="45.31971" lon="2.9517">
        <ele>1434.91</ele>
        <time>2021-08-15T10:48:51Z</time>
      </trkpt>
      <trkpt lat="45.31971" lon="2.95191">
        <ele>1433.46</ele>
        <time>2021-08-15T10:48:53Z</time>
      </trkpt>
      <trkpt lat="45.31969" lon="2.95202">
        <ele>1432.98</ele>
        <time>2021-08-15T10:48:54Z</time>
      </trkpt>
      <trkpt lat="45.31966" lon="2.95211">
        <ele>1432.98</ele>
        <time>2021-08-15T10:48:55Z</time>
      </trkpt>
      <trkpt lat="45.3196" lon="2.95219">
        <ele>1431.54</ele>
        <time>2021-08-15T10:48:56Z</time>
      </trkpt>
      <trkpt lat="45.31954" lon="2.95225">
        <ele>1430.58</ele>
        <time>2021-08-15T10:48:57Z</time>
      </trkpt>
      <trkpt lat="45.31947" lon="2.95228">
        <ele>1430.1</ele>
        <time>2021-08-15T10:48:58Z</time>
      </trkpt>
      <trkpt lat="45.31939" lon="2.95229">
        <ele>1429.14</ele>
        <time>2021-08-15T10:48:59Z</time>
      </trkpt>
      <trkpt lat="45.31932" lon="2.95228">
        <ele>1429.14</ele>
        <time>2021-08-15T10:49:00Z</time>
      </trkpt>
      <trkpt lat="45.31923" lon="2.95228">
        <ele>1428.66</ele>
        <time>2021-08-15T10:49:01Z</time>
      </trkpt>
      <trkpt lat="45.31916" lon="2.95229">
        <ele>1427.7</ele>
        <time>2021-08-15T10:49:02Z</time>
      </trkpt>
      <trkpt lat="45.31907" lon="2.95231">
        <ele>1426.73</ele>
        <time>2021-08-15T10:49:03Z</time>
      </trkpt>
      <trkpt lat="45.319" lon="2.95234">
        <ele>1426.73</ele>
        <time>2021-08-15T10:49:04Z</time>
      </trkpt>
      <trkpt lat="45.31892" lon="2.95238">
        <ele>1426.73</ele>
        <time>2021-08-15T10:49:05Z</time>
      </trkpt>
      <trkpt lat="45.31885" lon="2.95243">
        <ele>1426.73</ele>
        <time>2021-08-15T10:49:06Z</time>
      </trkpt>
      <trkpt lat="45.31878" lon="2.9525">
        <ele>1426.25</ele>
        <time>2021-08-15T10:49:07Z</time>
      </trkpt>
      <trkpt lat="45.31871" lon="2.95259">
        <ele>1424.81</ele>
        <time>2021-08-15T10:49:08Z</time>
      </trkpt>
      <trkpt lat="45.31866" lon="2.95268">
        <ele>1424.81</ele>
        <time>2021-08-15T10:49:09Z</time>
      </trkpt>
      <trkpt lat="45.31861" lon="2.95279">
        <ele>1424.33</ele>
        <time>2021-08-15T10:49:10Z</time>
      </trkpt>
      <trkpt lat="45.31858" lon="2.9529">
        <ele>1424.33</ele>
        <time>2021-08-15T10:49:11Z</time>
      </trkpt>
      <trkpt lat="45.31856" lon="2.95303">
        <ele>1423.85</ele>
        <time>2021-08-15T10:49:12Z</time>
      </trkpt>
      <trkpt lat="45.31854" lon="2.95315">
        <ele>1423.37</ele>
        <time>2021-08-15T10:49:13Z</time>
      </trkpt>
      <trkpt lat="45.31853" lon="2.95328">
        <ele>1422.89</ele>
        <time>2021-08-15T10:49:14Z</time>
      </trkpt>
      <trkpt lat="45.31853" lon="2.95342">
        <ele>1422.41</ele>
        <time>2021-08-15T10:49:15Z</time>
      </trkpt>
      <trkpt lat="45.31852" lon="2.95354">
        <ele>1421.93</ele>
        <time>2021-08-15T10:49:16Z</time>
      </trkpt>
      <trkpt lat="45.3185" lon="2.95366">
        <ele>1421.45</ele>
        <time>2021-08-15T10:49:17Z</time>
      </trkpt>
      <trkpt lat="45.31846" lon="2.95379">
        <ele>1420.49</ele>
        <time>2021-08-15T10:49:18Z</time>
      </trkpt>
      <trkpt lat="45.31843" lon="2.95389">
        <ele>1420</ele>
        <time>2021-08-15T10:49:19Z</time>
      </trkpt>
      <trkpt lat="45.31838" lon="2.954">
        <ele>1420</ele>
        <time>2021-08-15T10:49:20Z</time>
      </trkpt>
      <trkpt lat="45.31832" lon="2.95409">
        <ele>1420</ele>
        <time>2021-08-15T10:49:21Z</time>
      </trkpt>
      <trkpt lat="45.31826" lon="2.95416">
        <ele>1419.04</ele>
        <time>2021-08-15T10:49:22Z</time>
      </trkpt>
      <trkpt lat="45.31818" lon="2.9542">
        <ele>1417.6</ele>
        <time>2021-08-15T10:49:23Z</time>
      </trkpt>
      <trkpt lat="45.3181" lon="2.95423">
        <ele>1416.64</ele>
        <time>2021-08-15T10:49:24Z</time>
      </trkpt>
      <trkpt lat="45.31802" lon="2.95424">
        <ele>1416.16</ele>
        <time>2021-08-15T10:49:25Z</time>
      </trkpt>
      <trkpt lat="45.31794" lon="2.95424">
        <ele>1416.16</ele>
        <time>2021-08-15T10:49:26Z</time>
      </trkpt>
      <trkpt lat="45.31786" lon="2.95423">
        <ele>1416.16</ele>
        <time>2021-08-15T10:49:27Z</time>
      </trkpt>
      <trkpt lat="45.31778" lon="2.95421">
        <ele>1415.68</ele>
        <time>2021-08-15T10:49:28Z</time>
      </trkpt>
      <trkpt lat="45.31754" lon="2.95415">
        <ele>1414.72</ele>
        <time>2021-08-15T10:49:31Z</time>
      </trkpt>
      <trkpt lat="45.31706" lon="2.95403">
        <ele>1411.83</ele>
        <time>2021-08-15T10:49:37Z</time>
      </trkpt>
      <trkpt lat="45.31654" lon="2.95392">
        <ele>1410.39</ele>
        <time>2021-08-15T10:49:44Z</time>
      </trkpt>
      <trkpt lat="45.31647" lon="2.95388">
        <ele>1409.91</ele>
        <time>2021-08-15T10:49:45Z</time>
      </trkpt>
      <trkpt lat="45.3164" lon="2.95383">
        <ele>1408.95</ele>
        <time>2021-08-15T10:49:46Z</time>
      </trkpt>
      <trkpt lat="45.31634" lon="2.95378">
        <ele>1408.95</ele>
        <time>2021-08-15T10:49:47Z</time>
      </trkpt>
      <trkpt lat="45.31629" lon="2.95372">
        <ele>1408.47</ele>
        <time>2021-08-15T10:49:48Z</time>
      </trkpt>
      <trkpt lat="45.31618" lon="2.95361">
        <ele>1407.51</ele>
        <time>2021-08-15T10:49:50Z</time>
      </trkpt>
      <trkpt lat="45.31601" lon="2.95345">
        <ele>1406.07</ele>
        <time>2021-08-15T10:49:53Z</time>
      </trkpt>
      <trkpt lat="45.31569" lon="2.95316">
        <ele>1402.7</ele>
        <time>2021-08-15T10:49:58Z</time>
      </trkpt>
      <trkpt lat="45.31528" lon="2.95279">
        <ele>1399.34</ele>
        <time>2021-08-15T10:50:04Z</time>
      </trkpt>
      <trkpt lat="45.3152" lon="2.95277">
        <ele>1399.34</ele>
        <time>2021-08-15T10:50:05Z</time>
      </trkpt>
      <trkpt lat="45.31512" lon="2.95277">
        <ele>1398.37</ele>
        <time>2021-08-15T10:50:06Z</time>
      </trkpt>
      <trkpt lat="45.31504" lon="2.95279">
        <ele>1398.37</ele>
        <time>2021-08-15T10:50:07Z</time>
      </trkpt>
      <trkpt lat="45.31496" lon="2.9528">
        <ele>1397.89</ele>
        <time>2021-08-15T10:50:08Z</time>
      </trkpt>
      <trkpt lat="45.31487" lon="2.95279">
        <ele>1396.93</ele>
        <time>2021-08-15T10:50:09Z</time>
      </trkpt>
      <trkpt lat="45.31479" lon="2.95278">
        <ele>1396.93</ele>
        <time>2021-08-15T10:50:10Z</time>
      </trkpt>
      <trkpt lat="45.31453" lon="2.95275">
        <ele>1395.01</ele>
        <time>2021-08-15T10:50:13Z</time>
      </trkpt>
      <trkpt lat="45.31432" lon="2.95272">
        <ele>1393.57</ele>
        <time>2021-08-15T10:50:16Z</time>
      </trkpt>
      <trkpt lat="45.31426" lon="2.95268">
        <ele>1392.61</ele>
        <time>2021-08-15T10:50:17Z</time>
      </trkpt>
      <trkpt lat="45.31407" lon="2.95257">
        <ele>1390.68</ele>
        <time>2021-08-15T10:50:20Z</time>
      </trkpt>
      <trkpt lat="45.31393" lon="2.95252">
        <ele>1387.8</ele>
        <time>2021-08-15T10:50:22Z</time>
      </trkpt>
      <trkpt lat="45.31362" lon="2.95236">
        <ele>1384.92</ele>
        <time>2021-08-15T10:50:27Z</time>
      </trkpt>
      <trkpt lat="45.31356" lon="2.95232">
        <ele>1384.92</ele>
        <time>2021-08-15T10:50:28Z</time>
      </trkpt>
      <trkpt lat="45.31337" lon="2.95219">
        <ele>1383.47</ele>
        <time>2021-08-15T10:50:32Z</time>
      </trkpt>
      <trkpt lat="45.31319" lon="2.95204">
        <ele>1382.51</ele>
        <time>2021-08-15T10:50:39Z</time>
      </trkpt>
      <trkpt lat="45.3131" lon="2.95196">
        <ele>1382.03</ele>
        <time>2021-08-15T10:50:46Z</time>
      </trkpt>
      <trkpt lat="45.31307" lon="2.95193">
        <ele>1381.55</ele>
        <time>2021-08-15T10:50:48Z</time>
      </trkpt>
      <trkpt lat="45.31305" lon="2.95192">
        <ele>1381.55</ele>
        <time>2021-08-15T10:50:49Z</time>
      </trkpt>
      <trkpt lat="45.31303" lon="2.95189">
        <ele>1381.55</ele>
        <time>2021-08-15T10:50:50Z</time>
      </trkpt>
      <trkpt lat="45.313" lon="2.95187">
        <ele>1381.55</ele>
        <time>2021-08-15T10:50:51Z</time>
      </trkpt>
      <trkpt lat="45.31297" lon="2.95184">
        <ele>1381.55</ele>
        <time>2021-08-15T10:50:52Z</time>
      </trkpt>
      <trkpt lat="45.31293" lon="2.95181">
        <ele>1381.07</ele>
        <time>2021-08-15T10:50:53Z</time>
      </trkpt>
      <trkpt lat="45.31289" lon="2.95179">
        <ele>1380.59</ele>
        <time>2021-08-15T10:50:54Z</time>
      </trkpt>
      <trkpt lat="45.31284" lon="2.95176">
        <ele>1380.11</ele>
        <time>2021-08-15T10:50:55Z</time>
      </trkpt>
      <trkpt lat="45.31274" lon="2.95172">
        <ele>1380.11</ele>
        <time>2021-08-15T10:50:57Z</time>
      </trkpt>
      <trkpt lat="45.3121" lon="2.95164">
        <ele>1379.15</ele>
        <time>2021-08-15T10:51:08Z</time>
      </trkpt>
      <trkpt lat="45.31165" lon="2.95163">
        <ele>1377.71</ele>
        <time>2021-08-15T10:51:15Z</time>
      </trkpt>
      <trkpt lat="45.31158" lon="2.95165">
        <ele>1377.71</ele>
        <time>2021-08-15T10:51:16Z</time>
      </trkpt>
      <trkpt lat="45.31152" lon="2.95168">
        <ele>1376.75</ele>
        <time>2021-08-15T10:51:17Z</time>
      </trkpt>
      <trkpt lat="45.31139" lon="2.95176">
        <ele>1375.3</ele>
        <time>2021-08-15T10:51:19Z</time>
      </trkpt>
      <trkpt lat="45.31131" lon="2.95181">
        <ele>1375.3</ele>
        <time>2021-08-15T10:51:20Z</time>
      </trkpt>
      <trkpt lat="45.31125" lon="2.95182">
        <ele>1373.86</ele>
        <time>2021-08-15T10:51:21Z</time>
      </trkpt>
      <trkpt lat="45.31112" lon="2.95175">
        <ele>1370.98</ele>
        <time>2021-08-15T10:51:23Z</time>
      </trkpt>
      <trkpt lat="45.31103" lon="2.95153">
        <ele>1369.05</ele>
        <time>2021-08-15T10:51:26Z</time>
      </trkpt>
      <trkpt lat="45.31102" lon="2.95139">
        <ele>1368.57</ele>
        <time>2021-08-15T10:51:27Z</time>
      </trkpt>
      <trkpt lat="45.31102" lon="2.9513">
        <ele>1368.09</ele>
        <time>2021-08-15T10:51:28Z</time>
      </trkpt>
      <trkpt lat="45.31098" lon="2.95101">
        <ele>1368.09</ele>
        <time>2021-08-15T10:51:31Z</time>
      </trkpt>
      <trkpt lat="45.31094" lon="2.95092">
        <ele>1367.61</ele>
        <time>2021-08-15T10:51:32Z</time>
      </trkpt>
      <trkpt lat="45.31091" lon="2.95086">
        <ele>1367.61</ele>
        <time>2021-08-15T10:51:33Z</time>
      </trkpt>
      <trkpt lat="45.31086" lon="2.95079">
        <ele>1369.05</ele>
        <time>2021-08-15T10:51:34Z</time>
      </trkpt>
      <trkpt lat="45.31072" lon="2.95064">
        <ele>1369.05</ele>
        <time>2021-08-15T10:51:37Z</time>
      </trkpt>
      <trkpt lat="45.31067" lon="2.95059">
        <ele>1369.05</ele>
        <time>2021-08-15T10:51:38Z</time>
      </trkpt>
      <trkpt lat="45.31045" lon="2.95041">
        <ele>1367.61</ele>
        <time>2021-08-15T10:51:43Z</time>
      </trkpt>
      <trkpt lat="45.31033" lon="2.9503">
        <ele>1369.05</ele>
        <time>2021-08-15T10:51:46Z</time>
      </trkpt>
      <trkpt lat="45.31005" lon="2.95002">
        <ele>1370.02</ele>
        <time>2021-08-15T10:51:55Z</time>
      </trkpt>
      <trkpt lat="45.30966" lon="2.94967">
        <ele>1370.5</ele>
        <time>2021-08-15T10:52:07Z</time>
      </trkpt>
      <trkpt lat="45.30957" lon="2.9496">
        <ele>1370.5</ele>
        <time>2021-08-15T10:52:09Z</time>
      </trkpt>
      <trkpt lat="45.30953" lon="2.94958">
        <ele>1370.5</ele>
        <time>2021-08-15T10:52:10Z</time>
      </trkpt>
      <trkpt lat="45.30945" lon="2.94953">
        <ele>1370.5</ele>
        <time>2021-08-15T10:52:12Z</time>
      </trkpt>
      <trkpt lat="45.30938" lon="2.94947">
        <ele>1370.5</ele>
        <time>2021-08-15T10:52:14Z</time>
      </trkpt>
      <trkpt lat="45.30935" lon="2.94945">
        <ele>1370.5</ele>
        <time>2021-08-15T10:52:15Z</time>
      </trkpt>
      <trkpt lat="45.30928" lon="2.9494">
        <ele>1369.05</ele>
        <time>2021-08-15T10:52:17Z</time>
      </trkpt>
      <trkpt lat="45.30922" lon="2.94935">
        <ele>1369.05</ele>
        <time>2021-08-15T10:52:19Z</time>
      </trkpt>
      <trkpt lat="45.30903" lon="2.94922">
        <ele>1368.09</ele>
        <time>2021-08-15T10:52:26Z</time>
      </trkpt>
      <trkpt lat="45.309" lon="2.94922">
        <ele>1368.09</ele>
        <time>2021-08-15T10:52:33Z</time>
      </trkpt>
      <trkpt lat="45.30899" lon="2.94921">
        <ele>1367.13</ele>
        <time>2021-08-15T10:52:43Z</time>
      </trkpt>
      <trkpt lat="45.30899" lon="2.94921">
        <ele>1367.13</ele>
        <time>2021-08-15T10:52:56Z</time>
      </trkpt>
      <trkpt lat="45.30899" lon="2.94919">
        <ele>1367.13</ele>
        <time>2021-08-15T10:53:05Z</time>
      </trkpt>
      <trkpt lat="45.30897" lon="2.94917">
        <ele>1367.13</ele>
        <time>2021-08-15T10:53:06Z</time>
      </trkpt>
      <trkpt lat="45.30895" lon="2.94915">
        <ele>1367.13</ele>
        <time>2021-08-15T10:53:07Z</time>
      </trkpt>
      <trkpt lat="45.30876" lon="2.94897">
        <ele>1365.69</ele>
        <time>2021-08-15T10:53:13Z</time>
      </trkpt>
      <trkpt lat="45.30868" lon="2.94887">
        <ele>1364.73</ele>
        <time>2021-08-15T10:53:15Z</time>
      </trkpt>
      <trkpt lat="45.30866" lon="2.94881">
        <ele>1364.25</ele>
        <time>2021-08-15T10:53:16Z</time>
      </trkpt>
      <trkpt lat="45.30864" lon="2.94875">
        <ele>1364.25</ele>
        <time>2021-08-15T10:53:17Z</time>
      </trkpt>
      <trkpt lat="45.30861" lon="2.9487">
        <ele>1364.25</ele>
        <time>2021-08-15T10:53:18Z</time>
      </trkpt>
      <trkpt lat="45.30859" lon="2.94865">
        <ele>1364.25</ele>
        <time>2021-08-15T10:53:19Z</time>
      </trkpt>
      <trkpt lat="45.30858" lon="2.94861">
        <ele>1366.17</ele>
        <time>2021-08-15T10:53:20Z</time>
      </trkpt>
      <trkpt lat="45.30856" lon="2.94857">
        <ele>1366.17</ele>
        <time>2021-08-15T10:53:21Z</time>
      </trkpt>
      <trkpt lat="45.30855" lon="2.94854">
        <ele>1366.65</ele>
        <time>2021-08-15T10:53:22Z</time>
      </trkpt>
      <trkpt lat="45.30853" lon="2.94851">
        <ele>1366.65</ele>
        <time>2021-08-15T10:53:23Z</time>
      </trkpt>
      <trkpt lat="45.30853" lon="2.94849">
        <ele>1367.13</ele>
        <time>2021-08-15T10:53:24Z</time>
      </trkpt>
      <trkpt lat="45.30841" lon="2.9483">
        <ele>1369.05</ele>
        <time>2021-08-15T10:53:34Z</time>
      </trkpt>
      <trkpt lat="45.3083" lon="2.9481">
        <ele>1370.02</ele>
        <time>2021-08-15T10:53:42Z</time>
      </trkpt>
      <trkpt lat="45.30818" lon="2.94791">
        <ele>1370.5</ele>
        <time>2021-08-15T10:53:50Z</time>
      </trkpt>
      <trkpt lat="45.30807" lon="2.9477">
        <ele>1370.5</ele>
        <time>2021-08-15T10:53:58Z</time>
      </trkpt>
      <trkpt lat="45.30795" lon="2.94745">
        <ele>1371.94</ele>
        <time>2021-08-15T10:54:09Z</time>
      </trkpt>
      <trkpt lat="45.30786" lon="2.9473">
        <ele>1372.9</ele>
        <time>2021-08-15T10:54:18Z</time>
      </trkpt>
      <trkpt lat="45.30776" lon="2.94709">
        <ele>1372.9</ele>
        <time>2021-08-15T10:54:28Z</time>
      </trkpt>
      <trkpt lat="45.30764" lon="2.94677">
        <ele>1373.86</ele>
        <time>2021-08-15T10:54:40Z</time>
      </trkpt>
      <trkpt lat="45.30753" lon="2.94647">
        <ele>1374.82</ele>
        <time>2021-08-15T10:54:51Z</time>
      </trkpt>
      <trkpt lat="45.30742" lon="2.9462">
        <ele>1375.78</ele>
        <time>2021-08-15T10:55:01Z</time>
      </trkpt>
      <trkpt lat="45.30729" lon="2.94594">
        <ele>1377.23</ele>
        <time>2021-08-15T10:55:12Z</time>
      </trkpt>
      <trkpt lat="45.30721" lon="2.9458">
        <ele>1378.19</ele>
        <time>2021-08-15T10:55:21Z</time>
      </trkpt>
      <trkpt lat="45.30717" lon="2.94572">
        <ele>1378.67</ele>
        <time>2021-08-15T10:55:26Z</time>
      </trkpt>
      <trkpt lat="45.30716" lon="2.9457">
        <ele>1378.67</ele>
        <time>2021-08-15T10:55:27Z</time>
      </trkpt>
      <trkpt lat="45.30708" lon="2.94557">
        <ele>1379.63</ele>
        <time>2021-08-15T10:55:36Z</time>
      </trkpt>
      <trkpt lat="45.30697" lon="2.94544">
        <ele>1381.07</ele>
        <time>2021-08-15T10:55:45Z</time>
      </trkpt>
      <trkpt lat="45.30684" lon="2.94528">
        <ele>1381.55</ele>
        <time>2021-08-15T10:55:55Z</time>
      </trkpt>
      <trkpt lat="45.30669" lon="2.94508">
        <ele>1382.03</ele>
        <time>2021-08-15T10:56:04Z</time>
      </trkpt>
      <trkpt lat="45.30655" lon="2.94486">
        <ele>1383.96</ele>
        <time>2021-08-15T10:56:14Z</time>
      </trkpt>
      <trkpt lat="45.30645" lon="2.9447">
        <ele>1383.96</ele>
        <time>2021-08-15T10:56:21Z</time>
      </trkpt>
      <trkpt lat="45.30642" lon="2.94463">
        <ele>1384.44</ele>
        <time>2021-08-15T10:56:24Z</time>
      </trkpt>
      <trkpt lat="45.30641" lon="2.9446">
        <ele>1383.96</ele>
        <time>2021-08-15T10:56:25Z</time>
      </trkpt>
      <trkpt lat="45.3064" lon="2.94458">
        <ele>1383.96</ele>
        <time>2021-08-15T10:56:26Z</time>
      </trkpt>
      <trkpt lat="45.30639" lon="2.94456">
        <ele>1383.96</ele>
        <time>2021-08-15T10:56:27Z</time>
      </trkpt>
      <trkpt lat="45.30638" lon="2.94454">
        <ele>1384.92</ele>
        <time>2021-08-15T10:56:28Z</time>
      </trkpt>
      <trkpt lat="45.30637" lon="2.94452">
        <ele>1385.4</ele>
        <time>2021-08-15T10:56:29Z</time>
      </trkpt>
      <trkpt lat="45.30627" lon="2.94428">
        <ele>1386.36</ele>
        <time>2021-08-15T10:56:39Z</time>
      </trkpt>
      <trkpt lat="45.30618" lon="2.94404">
        <ele>1387.32</ele>
        <time>2021-08-15T10:56:48Z</time>
      </trkpt>
      <trkpt lat="45.30608" lon="2.94378">
        <ele>1387.8</ele>
        <time>2021-08-15T10:56:55Z</time>
      </trkpt>
      <trkpt lat="45.30583" lon="2.94333">
        <ele>1387.8</ele>
        <time>2021-08-15T10:57:06Z</time>
      </trkpt>
      <trkpt lat="45.30561" lon="2.94299">
        <ele>1388.28</ele>
        <time>2021-08-15T10:57:15Z</time>
      </trkpt>
      <trkpt lat="45.30546" lon="2.94274">
        <ele>1388.28</ele>
        <time>2021-08-15T10:57:22Z</time>
      </trkpt>
      <trkpt lat="45.30535" lon="2.94256">
        <ele>1389.24</ele>
        <time>2021-08-15T10:57:29Z</time>
      </trkpt>
      <trkpt lat="45.30525" lon="2.94239">
        <ele>1390.2</ele>
        <time>2021-08-15T10:57:36Z</time>
      </trkpt>
      <trkpt lat="45.30509" lon="2.94215">
        <ele>1392.61</ele>
        <time>2021-08-15T10:57:46Z</time>
      </trkpt>
      <trkpt lat="45.30508" lon="2.94212">
        <ele>1392.61</ele>
        <time>2021-08-15T10:57:47Z</time>
      </trkpt>
      <trkpt lat="45.30497" lon="2.94193">
        <ele>1394.05</ele>
        <time>2021-08-15T10:57:55Z</time>
      </trkpt>
      <trkpt lat="45.30481" lon="2.9417">
        <ele>1395.01</ele>
        <time>2021-08-15T10:58:05Z</time>
      </trkpt>
      <trkpt lat="45.30462" lon="2.94137">
        <ele>1395.97</ele>
        <time>2021-08-15T10:58:18Z</time>
      </trkpt>
      <trkpt lat="45.30443" lon="2.94109">
        <ele>1395.97</ele>
        <time>2021-08-15T10:58:28Z</time>
      </trkpt>
      <trkpt lat="45.30427" lon="2.94084">
        <ele>1395.97</ele>
        <time>2021-08-15T10:58:34Z</time>
      </trkpt>
      <trkpt lat="45.30424" lon="2.94079">
        <ele>1394.53</ele>
        <time>2021-08-15T10:58:35Z</time>
      </trkpt>
      <trkpt lat="45.30422" lon="2.94074">
        <ele>1394.05</ele>
        <time>2021-08-15T10:58:36Z</time>
      </trkpt>
      <trkpt lat="45.30394" lon="2.94031">
        <ele>1390.68</ele>
        <time>2021-08-15T10:58:44Z</time>
      </trkpt>
      <trkpt lat="45.3039" lon="2.94024">
        <ele>1390.68</ele>
        <time>2021-08-15T10:58:45Z</time>
      </trkpt>
      <trkpt lat="45.30376" lon="2.94003">
        <ele>1388.76</ele>
        <time>2021-08-15T10:58:48Z</time>
      </trkpt>
      <trkpt lat="45.30356" lon="2.9397">
        <ele>1384.44</ele>
        <time>2021-08-15T10:58:52Z</time>
      </trkpt>
      <trkpt lat="45.30351" lon="2.93962">
        <ele>1384.44</ele>
        <time>2021-08-15T10:58:53Z</time>
      </trkpt>
      <trkpt lat="45.30311" lon="2.93894">
        <ele>1380.59</ele>
        <time>2021-08-15T10:59:01Z</time>
      </trkpt>
      <trkpt lat="45.30307" lon="2.93886">
        <ele>1380.59</ele>
        <time>2021-08-15T10:59:02Z</time>
      </trkpt>
      <trkpt lat="45.30291" lon="2.93858">
        <ele>1377.23</ele>
        <time>2021-08-15T10:59:05Z</time>
      </trkpt>
      <trkpt lat="45.30272" lon="2.93833">
        <ele>1374.34</ele>
        <time>2021-08-15T10:59:08Z</time>
      </trkpt>
      <trkpt lat="45.30259" lon="2.93815">
        <ele>1373.38</ele>
        <time>2021-08-15T10:59:10Z</time>
      </trkpt>
      <trkpt lat="45.30226" lon="2.93778">
        <ele>1368.57</ele>
        <time>2021-08-15T10:59:14Z</time>
      </trkpt>
      <trkpt lat="45.30197" lon="2.93748">
        <ele>1363.77</ele>
        <time>2021-08-15T10:59:17Z</time>
      </trkpt>
      <trkpt lat="45.30177" lon="2.93726">
        <ele>1359.92</ele>
        <time>2021-08-15T10:59:19Z</time>
      </trkpt>
      <trkpt lat="45.30158" lon="2.93702">
        <ele>1358.96</ele>
        <time>2021-08-15T10:59:21Z</time>
      </trkpt>
      <trkpt lat="45.3014" lon="2.93681">
        <ele>1358.48</ele>
        <time>2021-08-15T10:59:23Z</time>
      </trkpt>
      <trkpt lat="45.3013" lon="2.93672">
        <ele>1357.04</ele>
        <time>2021-08-15T10:59:24Z</time>
      </trkpt>
      <trkpt lat="45.30097" lon="2.9365">
        <ele>1353.19</ele>
        <time>2021-08-15T10:59:27Z</time>
      </trkpt>
      <trkpt lat="45.30085" lon="2.93644">
        <ele>1351.27</ele>
        <time>2021-08-15T10:59:28Z</time>
      </trkpt>
      <trkpt lat="45.30071" lon="2.9364">
        <ele>1349.83</ele>
        <time>2021-08-15T10:59:29Z</time>
      </trkpt>
      <trkpt lat="45.30059" lon="2.93636">
        <ele>1349.83</ele>
        <time>2021-08-15T10:59:30Z</time>
      </trkpt>
      <trkpt lat="45.30022" lon="2.93631">
        <ele>1349.35</ele>
        <time>2021-08-15T10:59:33Z</time>
      </trkpt>
      <trkpt lat="45.3" lon="2.93633">
        <ele>1350.79</ele>
        <time>2021-08-15T10:59:35Z</time>
      </trkpt>
      <trkpt lat="45.29957" lon="2.93631">
        <ele>1353.67</ele>
        <time>2021-08-15T10:59:40Z</time>
      </trkpt>
      <trkpt lat="45.29913" lon="2.93626">
        <ele>1353.67</ele>
        <time>2021-08-15T10:59:46Z</time>
      </trkpt>
      <trkpt lat="45.29906" lon="2.93626">
        <ele>1351.75</ele>
        <time>2021-08-15T10:59:47Z</time>
      </trkpt>
      <trkpt lat="45.29898" lon="2.93628">
        <ele>1351.75</ele>
        <time>2021-08-15T10:59:48Z</time>
      </trkpt>
      <trkpt lat="45.29891" lon="2.93631">
        <ele>1350.79</ele>
        <time>2021-08-15T10:59:49Z</time>
      </trkpt>
      <trkpt lat="45.29884" lon="2.93635">
        <ele>1350.79</ele>
        <time>2021-08-15T10:59:50Z</time>
      </trkpt>
      <trkpt lat="45.29836" lon="2.93656">
        <ele>1346.94</ele>
        <time>2021-08-15T10:59:56Z</time>
      </trkpt>
      <trkpt lat="45.298" lon="2.93671">
        <ele>1343.1</ele>
        <time>2021-08-15T11:00:00Z</time>
      </trkpt>
      <trkpt lat="45.29759" lon="2.93689">
        <ele>1338.77</ele>
        <time>2021-08-15T11:00:04Z</time>
      </trkpt>
      <trkpt lat="45.29716" lon="2.93708">
        <ele>1336.37</ele>
        <time>2021-08-15T11:00:08Z</time>
      </trkpt>
      <trkpt lat="45.2961" lon="2.93753">
        <ele>1333.01</ele>
        <time>2021-08-15T11:00:18Z</time>
      </trkpt>
      <trkpt lat="45.29575" lon="2.93768">
        <ele>1328.68</ele>
        <time>2021-08-15T11:00:21Z</time>
      </trkpt>
      <trkpt lat="45.29539" lon="2.93785">
        <ele>1325.31</ele>
        <time>2021-08-15T11:00:24Z</time>
      </trkpt>
      <trkpt lat="45.29499" lon="2.93803">
        <ele>1320.99</ele>
        <time>2021-08-15T11:00:27Z</time>
      </trkpt>
      <trkpt lat="45.29472" lon="2.93815">
        <ele>1317.62</ele>
        <time>2021-08-15T11:00:29Z</time>
      </trkpt>
      <trkpt lat="45.29443" lon="2.93827">
        <ele>1313.78</ele>
        <time>2021-08-15T11:00:31Z</time>
      </trkpt>
      <trkpt lat="45.29411" lon="2.9384">
        <ele>1309.93</ele>
        <time>2021-08-15T11:00:33Z</time>
      </trkpt>
      <trkpt lat="45.29381" lon="2.93853">
        <ele>1306.09</ele>
        <time>2021-08-15T11:00:35Z</time>
      </trkpt>
      <trkpt lat="45.29349" lon="2.93867">
        <ele>1302.72</ele>
        <time>2021-08-15T11:00:37Z</time>
      </trkpt>
      <trkpt lat="45.29303" lon="2.93886">
        <ele>1298.88</ele>
        <time>2021-08-15T11:00:40Z</time>
      </trkpt>
      <trkpt lat="45.29245" lon="2.93911">
        <ele>1295.51</ele>
        <time>2021-08-15T11:00:44Z</time>
      </trkpt>
      <trkpt lat="45.29231" lon="2.93916">
        <ele>1295.51</ele>
        <time>2021-08-15T11:00:45Z</time>
      </trkpt>
      <trkpt lat="45.29165" lon="2.9393">
        <ele>1293.11</ele>
        <time>2021-08-15T11:00:50Z</time>
      </trkpt>
      <trkpt lat="45.29097" lon="2.93935">
        <ele>1293.11</ele>
        <time>2021-08-15T11:00:56Z</time>
      </trkpt>
      <trkpt lat="45.29052" lon="2.93938">
        <ele>1294.55</ele>
        <time>2021-08-15T11:01:01Z</time>
      </trkpt>
      <trkpt lat="45.29011" lon="2.93941">
        <ele>1297.44</ele>
        <time>2021-08-15T11:01:07Z</time>
      </trkpt>
      <trkpt lat="45.28964" lon="2.93944">
        <ele>1298.88</ele>
        <time>2021-08-15T11:01:17Z</time>
      </trkpt>
      <trkpt lat="45.28959" lon="2.93944">
        <ele>1298.88</ele>
        <time>2021-08-15T11:01:18Z</time>
      </trkpt>
      <trkpt lat="45.28916" lon="2.93946">
        <ele>1298.88</ele>
        <time>2021-08-15T11:01:27Z</time>
      </trkpt>
      <trkpt lat="45.28914" lon="2.93946">
        <ele>1298.4</ele>
        <time>2021-08-15T11:01:31Z</time>
      </trkpt>
      <trkpt lat="45.28915" lon="2.93946">
        <ele>1298.4</ele>
        <time>2021-08-15T11:01:47Z</time>
      </trkpt>
      <trkpt lat="45.28915" lon="2.93946">
        <ele>1298.4</ele>
        <time>2021-08-15T11:02:10Z</time>
      </trkpt>
      <trkpt lat="45.28917" lon="2.93946">
        <ele>1298.4</ele>
        <time>2021-08-15T11:02:18Z</time>
      </trkpt>
      <trkpt lat="45.28917" lon="2.93946">
        <ele>1298.4</ele>
        <time>2021-08-15T11:02:33Z</time>
      </trkpt>
      <trkpt lat="45.28914" lon="2.93946">
        <ele>1298.4</ele>
        <time>2021-08-15T11:02:47Z</time>
      </trkpt>
      <trkpt lat="45.28904" lon="2.93948">
        <ele>1296.96</ele>
        <time>2021-08-15T11:02:51Z</time>
      </trkpt>
      <trkpt lat="45.28882" lon="2.9395">
        <ele>1296.48</ele>
        <time>2021-08-15T11:02:56Z</time>
      </trkpt>
      <trkpt lat="45.28868" lon="2.93951">
        <ele>1295.51</ele>
        <time>2021-08-15T11:02:59Z</time>
      </trkpt>
      <trkpt lat="45.28863" lon="2.93951">
        <ele>1295.51</ele>
        <time>2021-08-15T11:03:00Z</time>
      </trkpt>
      <trkpt lat="45.28858" lon="2.93952">
        <ele>1295.51</ele>
        <time>2021-08-15T11:03:01Z</time>
      </trkpt>
      <trkpt lat="45.28814" lon="2.93961">
        <ele>1293.59</ele>
        <time>2021-08-15T11:03:09Z</time>
      </trkpt>
      <trkpt lat="45.2876" lon="2.93974">
        <ele>1289.75</ele>
        <time>2021-08-15T11:03:17Z</time>
      </trkpt>
      <trkpt lat="45.28736" lon="2.93978">
        <ele>1287.82</ele>
        <time>2021-08-15T11:03:20Z</time>
      </trkpt>
      <trkpt lat="45.2871" lon="2.93984">
        <ele>1286.38</ele>
        <time>2021-08-15T11:03:23Z</time>
      </trkpt>
      <trkpt lat="45.28648" lon="2.93996">
        <ele>1286.38</ele>
        <time>2021-08-15T11:03:31Z</time>
      </trkpt>
      <trkpt lat="45.28623" lon="2.94001">
        <ele>1287.34</ele>
        <time>2021-08-15T11:03:35Z</time>
      </trkpt>
      <trkpt lat="45.28619" lon="2.94002">
        <ele>1287.82</ele>
        <time>2021-08-15T11:03:36Z</time>
      </trkpt>
      <trkpt lat="45.28614" lon="2.94002">
        <ele>1287.82</ele>
        <time>2021-08-15T11:03:37Z</time>
      </trkpt>
      <trkpt lat="45.2861" lon="2.94004">
        <ele>1288.3</ele>
        <time>2021-08-15T11:03:38Z</time>
      </trkpt>
      <trkpt lat="45.28606" lon="2.94005">
        <ele>1289.27</ele>
        <time>2021-08-15T11:03:39Z</time>
      </trkpt>
      <trkpt lat="45.28602" lon="2.94006">
        <ele>1289.27</ele>
        <time>2021-08-15T11:03:40Z</time>
      </trkpt>
      <trkpt lat="45.28581" lon="2.94015">
        <ele>1290.23</ele>
        <time>2021-08-15T11:03:47Z</time>
      </trkpt>
      <trkpt lat="45.28551" lon="2.9402">
        <ele>1291.19</ele>
        <time>2021-08-15T11:03:56Z</time>
      </trkpt>
      <trkpt lat="45.28513" lon="2.94031">
        <ele>1291.67</ele>
        <time>2021-08-15T11:04:06Z</time>
      </trkpt>
      <trkpt lat="45.28491" lon="2.94039">
        <ele>1289.75</ele>
        <time>2021-08-15T11:04:10Z</time>
      </trkpt>
      <trkpt lat="45.2847" lon="2.94045">
        <ele>1287.82</ele>
        <time>2021-08-15T11:04:13Z</time>
      </trkpt>
      <trkpt lat="45.28412" lon="2.94066">
        <ele>1285.42</ele>
        <time>2021-08-15T11:04:21Z</time>
      </trkpt>
      <trkpt lat="45.28344" lon="2.94091">
        <ele>1283.02</ele>
        <time>2021-08-15T11:04:30Z</time>
      </trkpt>
      <trkpt lat="45.28295" lon="2.94111">
        <ele>1279.65</ele>
        <time>2021-08-15T11:04:36Z</time>
      </trkpt>
      <trkpt lat="45.28217" lon="2.94144">
        <ele>1277.73</ele>
        <time>2021-08-15T11:04:46Z</time>
      </trkpt>
      <trkpt lat="45.28152" lon="2.94171">
        <ele>1276.77</ele>
        <time>2021-08-15T11:04:55Z</time>
      </trkpt>
      <trkpt lat="45.28108" lon="2.9419">
        <ele>1277.73</ele>
        <time>2021-08-15T11:05:03Z</time>
      </trkpt>
      <trkpt lat="45.28086" lon="2.94201">
        <ele>1279.65</ele>
        <time>2021-08-15T11:05:09Z</time>
      </trkpt>
      <trkpt lat="45.28057" lon="2.94212">
        <ele>1281.09</ele>
        <time>2021-08-15T11:05:19Z</time>
      </trkpt>
      <trkpt lat="45.28036" lon="2.94218">
        <ele>1281.09</ele>
        <time>2021-08-15T11:05:24Z</time>
      </trkpt>
      <trkpt lat="45.28032" lon="2.94219">
        <ele>1281.09</ele>
        <time>2021-08-15T11:05:25Z</time>
      </trkpt>
      <trkpt lat="45.28028" lon="2.9422">
        <ele>1281.09</ele>
        <time>2021-08-15T11:05:26Z</time>
      </trkpt>
      <trkpt lat="45.28024" lon="2.94222">
        <ele>1281.09</ele>
        <time>2021-08-15T11:05:27Z</time>
      </trkpt>
      <trkpt lat="45.28019" lon="2.94223">
        <ele>1280.61</ele>
        <time>2021-08-15T11:05:28Z</time>
      </trkpt>
      <trkpt lat="45.28003" lon="2.9423">
        <ele>1280.61</ele>
        <time>2021-08-15T11:05:32Z</time>
      </trkpt>
      <trkpt lat="45.27998" lon="2.94232">
        <ele>1280.61</ele>
        <time>2021-08-15T11:05:33Z</time>
      </trkpt>
      <trkpt lat="45.27964" lon="2.94245">
        <ele>1281.57</ele>
        <time>2021-08-15T11:05:42Z</time>
      </trkpt>
      <trkpt lat="45.27949" lon="2.94251">
        <ele>1281.57</ele>
        <time>2021-08-15T11:05:46Z</time>
      </trkpt>
      <trkpt lat="45.27944" lon="2.94252">
        <ele>1281.09</ele>
        <time>2021-08-15T11:05:47Z</time>
      </trkpt>
      <trkpt lat="45.2794" lon="2.94252">
        <ele>1281.09</ele>
        <time>2021-08-15T11:05:48Z</time>
      </trkpt>
      <trkpt lat="45.27936" lon="2.94252">
        <ele>1281.09</ele>
        <time>2021-08-15T11:05:49Z</time>
      </trkpt>
      <trkpt lat="45.27931" lon="2.9425">
        <ele>1281.09</ele>
        <time>2021-08-15T11:05:50Z</time>
      </trkpt>
      <trkpt lat="45.27928" lon="2.94246">
        <ele>1281.09</ele>
        <time>2021-08-15T11:05:51Z</time>
      </trkpt>
      <trkpt lat="45.27926" lon="2.94243">
        <ele>1281.09</ele>
        <time>2021-08-15T11:05:52Z</time>
      </trkpt>
      <trkpt lat="45.27923" lon="2.94238">
        <ele>1281.09</ele>
        <time>2021-08-15T11:05:53Z</time>
      </trkpt>
      <trkpt lat="45.27916" lon="2.94228">
        <ele>1280.13</ele>
        <time>2021-08-15T11:05:55Z</time>
      </trkpt>
      <trkpt lat="45.2788" lon="2.9418">
        <ele>1278.21</ele>
        <time>2021-08-15T11:06:04Z</time>
      </trkpt>
      <trkpt lat="45.27858" lon="2.94155">
        <ele>1276.29</ele>
        <time>2021-08-15T11:06:09Z</time>
      </trkpt>
      <trkpt lat="45.27817" lon="2.94105">
        <ele>1275.81</ele>
        <time>2021-08-15T11:06:18Z</time>
      </trkpt>
      <trkpt lat="45.27773" lon="2.94054">
        <ele>1273.4</ele>
        <time>2021-08-15T11:06:27Z</time>
      </trkpt>
      <trkpt lat="45.27767" lon="2.9405">
        <ele>1273.4</ele>
        <time>2021-08-15T11:06:28Z</time>
      </trkpt>
      <trkpt lat="45.27761" lon="2.94045">
        <ele>1273.4</ele>
        <time>2021-08-15T11:06:29Z</time>
      </trkpt>
      <trkpt lat="45.27726" lon="2.94029">
        <ele>1270.52</ele>
        <time>2021-08-15T11:06:34Z</time>
      </trkpt>
      <trkpt lat="45.27687" lon="2.9401">
        <ele>1268.6</ele>
        <time>2021-08-15T11:06:39Z</time>
      </trkpt>
      <trkpt lat="45.2768" lon="2.94004">
        <ele>1267.64</ele>
        <time>2021-08-15T11:06:40Z</time>
      </trkpt>
      <trkpt lat="45.27673" lon="2.93998">
        <ele>1267.64</ele>
        <time>2021-08-15T11:06:41Z</time>
      </trkpt>
      <trkpt lat="45.27666" lon="2.9399">
        <ele>1266.67</ele>
        <time>2021-08-15T11:06:42Z</time>
      </trkpt>
      <trkpt lat="45.2766" lon="2.93981">
        <ele>1265.23</ele>
        <time>2021-08-15T11:06:43Z</time>
      </trkpt>
      <trkpt lat="45.27655" lon="2.93972">
        <ele>1265.23</ele>
        <time>2021-08-15T11:06:44Z</time>
      </trkpt>
      <trkpt lat="45.27649" lon="2.93962">
        <ele>1264.27</ele>
        <time>2021-08-15T11:06:45Z</time>
      </trkpt>
      <trkpt lat="45.27637" lon="2.93942">
        <ele>1263.79</ele>
        <time>2021-08-15T11:06:47Z</time>
      </trkpt>
      <trkpt lat="45.27615" lon="2.93904">
        <ele>1261.87</ele>
        <time>2021-08-15T11:06:51Z</time>
      </trkpt>
      <trkpt lat="45.27574" lon="2.93835">
        <ele>1258.5</ele>
        <time>2021-08-15T11:06:58Z</time>
      </trkpt>
      <trkpt lat="45.27528" lon="2.93772">
        <ele>1255.62</ele>
        <time>2021-08-15T11:07:05Z</time>
      </trkpt>
      <trkpt lat="45.27501" lon="2.93732">
        <ele>1253.22</ele>
        <time>2021-08-15T11:07:09Z</time>
      </trkpt>
      <trkpt lat="45.27496" lon="2.93721">
        <ele>1252.25</ele>
        <time>2021-08-15T11:07:10Z</time>
      </trkpt>
      <trkpt lat="45.27491" lon="2.93709">
        <ele>1251.77</ele>
        <time>2021-08-15T11:07:11Z</time>
      </trkpt>
      <trkpt lat="45.27472" lon="2.93642">
        <ele>1249.37</ele>
        <time>2021-08-15T11:07:16Z</time>
      </trkpt>
      <trkpt lat="45.27461" lon="2.93602">
        <ele>1247.45</ele>
        <time>2021-08-15T11:07:19Z</time>
      </trkpt>
      <trkpt lat="45.27456" lon="2.9359">
        <ele>1247.45</ele>
        <time>2021-08-15T11:07:20Z</time>
      </trkpt>
      <trkpt lat="45.2745" lon="2.93579">
        <ele>1246.97</ele>
        <time>2021-08-15T11:07:21Z</time>
      </trkpt>
      <trkpt lat="45.27444" lon="2.93569">
        <ele>1246.49</ele>
        <time>2021-08-15T11:07:22Z</time>
      </trkpt>
      <trkpt lat="45.27436" lon="2.93559">
        <ele>1246.01</ele>
        <time>2021-08-15T11:07:23Z</time>
      </trkpt>
      <trkpt lat="45.27428" lon="2.93549">
        <ele>1245.53</ele>
        <time>2021-08-15T11:07:24Z</time>
      </trkpt>
      <trkpt lat="45.27381" lon="2.93499">
        <ele>1241.68</ele>
        <time>2021-08-15T11:07:30Z</time>
      </trkpt>
      <trkpt lat="45.27374" lon="2.93489">
        <ele>1241.2</ele>
        <time>2021-08-15T11:07:31Z</time>
      </trkpt>
      <trkpt lat="45.27369" lon="2.93477">
        <ele>1240.72</ele>
        <time>2021-08-15T11:07:32Z</time>
      </trkpt>
      <trkpt lat="45.27364" lon="2.93464">
        <ele>1240.72</ele>
        <time>2021-08-15T11:07:33Z</time>
      </trkpt>
      <trkpt lat="45.27361" lon="2.93451">
        <ele>1239.76</ele>
        <time>2021-08-15T11:07:34Z</time>
      </trkpt>
      <trkpt lat="45.27358" lon="2.93437">
        <ele>1238.8</ele>
        <time>2021-08-15T11:07:35Z</time>
      </trkpt>
      <trkpt lat="45.27355" lon="2.93423">
        <ele>1238.8</ele>
        <time>2021-08-15T11:07:36Z</time>
      </trkpt>
      <trkpt lat="45.27352" lon="2.93409">
        <ele>1237.35</ele>
        <time>2021-08-15T11:07:37Z</time>
      </trkpt>
      <trkpt lat="45.27347" lon="2.93396">
        <ele>1236.87</ele>
        <time>2021-08-15T11:07:38Z</time>
      </trkpt>
      <trkpt lat="45.27342" lon="2.93385">
        <ele>1236.87</ele>
        <time>2021-08-15T11:07:39Z</time>
      </trkpt>
      <trkpt lat="45.27336" lon="2.93373">
        <ele>1236.87</ele>
        <time>2021-08-15T11:07:40Z</time>
      </trkpt>
      <trkpt lat="45.2733" lon="2.93362">
        <ele>1236.39</ele>
        <time>2021-08-15T11:07:41Z</time>
      </trkpt>
      <trkpt lat="45.27317" lon="2.93339">
        <ele>1234.95</ele>
        <time>2021-08-15T11:07:43Z</time>
      </trkpt>
      <trkpt lat="45.27298" lon="2.93289">
        <ele>1231.59</ele>
        <time>2021-08-15T11:07:47Z</time>
      </trkpt>
      <trkpt lat="45.2729" lon="2.93263">
        <ele>1230.62</ele>
        <time>2021-08-15T11:07:49Z</time>
      </trkpt>
      <trkpt lat="45.27269" lon="2.932">
        <ele>1227.74</ele>
        <time>2021-08-15T11:07:54Z</time>
      </trkpt>
      <trkpt lat="45.27266" lon="2.93183">
        <ele>1227.74</ele>
        <time>2021-08-15T11:07:55Z</time>
      </trkpt>
      <trkpt lat="45.27264" lon="2.93171">
        <ele>1227.26</ele>
        <time>2021-08-15T11:07:56Z</time>
      </trkpt>
      <trkpt lat="45.27263" lon="2.93159">
        <ele>1226.3</ele>
        <time>2021-08-15T11:07:57Z</time>
      </trkpt>
      <trkpt lat="45.27263" lon="2.93143">
        <ele>1225.82</ele>
        <time>2021-08-15T11:07:58Z</time>
      </trkpt>
      <trkpt lat="45.27264" lon="2.9313">
        <ele>1225.82</ele>
        <time>2021-08-15T11:07:59Z</time>
      </trkpt>
      <trkpt lat="45.27264" lon="2.93117">
        <ele>1225.34</ele>
        <time>2021-08-15T11:08:00Z</time>
      </trkpt>
      <trkpt lat="45.27264" lon="2.93091">
        <ele>1224.38</ele>
        <time>2021-08-15T11:08:02Z</time>
      </trkpt>
      <trkpt lat="45.27263" lon="2.93077">
        <ele>1223.9</ele>
        <time>2021-08-15T11:08:03Z</time>
      </trkpt>
      <trkpt lat="45.27261" lon="2.93063">
        <ele>1223.9</ele>
        <time>2021-08-15T11:08:04Z</time>
      </trkpt>
      <trkpt lat="45.27258" lon="2.9305">
        <ele>1223.42</ele>
        <time>2021-08-15T11:08:05Z</time>
      </trkpt>
      <trkpt lat="45.27256" lon="2.93037">
        <ele>1222.93</ele>
        <time>2021-08-15T11:08:06Z</time>
      </trkpt>
      <trkpt lat="45.27246" lon="2.92998">
        <ele>1220.53</ele>
        <time>2021-08-15T11:08:09Z</time>
      </trkpt>
      <trkpt lat="45.27239" lon="2.92957">
        <ele>1217.65</ele>
        <time>2021-08-15T11:08:12Z</time>
      </trkpt>
      <trkpt lat="45.27238" lon="2.92944">
        <ele>1217.65</ele>
        <time>2021-08-15T11:08:13Z</time>
      </trkpt>
      <trkpt lat="45.27239" lon="2.92928">
        <ele>1216.69</ele>
        <time>2021-08-15T11:08:14Z</time>
      </trkpt>
      <trkpt lat="45.2724" lon="2.92913">
        <ele>1214.76</ele>
        <time>2021-08-15T11:08:15Z</time>
      </trkpt>
      <trkpt lat="45.27242" lon="2.92896">
        <ele>1213.32</ele>
        <time>2021-08-15T11:08:16Z</time>
      </trkpt>
      <trkpt lat="45.27246" lon="2.92851">
        <ele>1210.44</ele>
        <time>2021-08-15T11:08:19Z</time>
      </trkpt>
      <trkpt lat="45.27249" lon="2.92803">
        <ele>1208.03</ele>
        <time>2021-08-15T11:08:22Z</time>
      </trkpt>
      <trkpt lat="45.27248" lon="2.92787">
        <ele>1207.07</ele>
        <time>2021-08-15T11:08:23Z</time>
      </trkpt>
      <trkpt lat="45.27245" lon="2.92771">
        <ele>1206.59</ele>
        <time>2021-08-15T11:08:24Z</time>
      </trkpt>
      <trkpt lat="45.27242" lon="2.92756">
        <ele>1205.15</ele>
        <time>2021-08-15T11:08:25Z</time>
      </trkpt>
      <trkpt lat="45.27238" lon="2.92742">
        <ele>1204.19</ele>
        <time>2021-08-15T11:08:26Z</time>
      </trkpt>
      <trkpt lat="45.27229" lon="2.92716">
        <ele>1202.27</ele>
        <time>2021-08-15T11:08:28Z</time>
      </trkpt>
      <trkpt lat="45.27222" lon="2.92703">
        <ele>1201.3</ele>
        <time>2021-08-15T11:08:29Z</time>
      </trkpt>
      <trkpt lat="45.27215" lon="2.92692">
        <ele>1200.34</ele>
        <time>2021-08-15T11:08:30Z</time>
      </trkpt>
      <trkpt lat="45.27207" lon="2.92681">
        <ele>1198.9</ele>
        <time>2021-08-15T11:08:31Z</time>
      </trkpt>
      <trkpt lat="45.27198" lon="2.92671">
        <ele>1197.94</ele>
        <time>2021-08-15T11:08:32Z</time>
      </trkpt>
      <trkpt lat="45.2717" lon="2.92639">
        <ele>1194.09</ele>
        <time>2021-08-15T11:08:35Z</time>
      </trkpt>
      <trkpt lat="45.27141" lon="2.92609">
        <ele>1191.21</ele>
        <time>2021-08-15T11:08:38Z</time>
      </trkpt>
      <trkpt lat="45.27113" lon="2.92579">
        <ele>1187.37</ele>
        <time>2021-08-15T11:08:41Z</time>
      </trkpt>
      <trkpt lat="45.27078" lon="2.92537">
        <ele>1184.48</ele>
        <time>2021-08-15T11:08:45Z</time>
      </trkpt>
      <trkpt lat="45.27046" lon="2.92501">
        <ele>1181.12</ele>
        <time>2021-08-15T11:08:49Z</time>
      </trkpt>
      <trkpt lat="45.27029" lon="2.92485">
        <ele>1179.19</ele>
        <time>2021-08-15T11:08:51Z</time>
      </trkpt>
      <trkpt lat="45.26989" lon="2.92461">
        <ele>1178.23</ele>
        <time>2021-08-15T11:08:56Z</time>
      </trkpt>
      <trkpt lat="45.26983" lon="2.92459">
        <ele>1179.67</ele>
        <time>2021-08-15T11:08:57Z</time>
      </trkpt>
      <trkpt lat="45.26936" lon="2.9245">
        <ele>1179.67</ele>
        <time>2021-08-15T11:09:05Z</time>
      </trkpt>
      <trkpt lat="45.2693" lon="2.92449">
        <ele>1179.67</ele>
        <time>2021-08-15T11:09:06Z</time>
      </trkpt>
      <trkpt lat="45.26913" lon="2.92445">
        <ele>1180.64</ele>
        <time>2021-08-15T11:09:10Z</time>
      </trkpt>
      <trkpt lat="45.26909" lon="2.92445">
        <ele>1180.64</ele>
        <time>2021-08-15T11:09:11Z</time>
      </trkpt>
      <trkpt lat="45.26905" lon="2.92446">
        <ele>1180.64</ele>
        <time>2021-08-15T11:09:12Z</time>
      </trkpt>
      <trkpt lat="45.26902" lon="2.92447">
        <ele>1180.64</ele>
        <time>2021-08-15T11:09:13Z</time>
      </trkpt>
      <trkpt lat="45.26899" lon="2.92449">
        <ele>1180.64</ele>
        <time>2021-08-15T11:09:14Z</time>
      </trkpt>
      <trkpt lat="45.26896" lon="2.9245">
        <ele>1180.64</ele>
        <time>2021-08-15T11:09:15Z</time>
      </trkpt>
      <trkpt lat="45.26881" lon="2.92457">
        <ele>1181.6</ele>
        <time>2021-08-15T11:09:22Z</time>
      </trkpt>
      <trkpt lat="45.26862" lon="2.92465">
        <ele>1182.56</ele>
        <time>2021-08-15T11:09:31Z</time>
      </trkpt>
      <trkpt lat="45.26844" lon="2.9247">
        <ele>1184</ele>
        <time>2021-08-15T11:09:40Z</time>
      </trkpt>
      <trkpt lat="45.26826" lon="2.92467">
        <ele>1184</ele>
        <time>2021-08-15T11:09:47Z</time>
      </trkpt>
      <trkpt lat="45.26797" lon="2.92465">
        <ele>1183.04</ele>
        <time>2021-08-15T11:09:56Z</time>
      </trkpt>
      <trkpt lat="45.26793" lon="2.92465">
        <ele>1183.04</ele>
        <time>2021-08-15T11:09:57Z</time>
      </trkpt>
      <trkpt lat="45.26762" lon="2.9246">
        <ele>1182.56</ele>
        <time>2021-08-15T11:10:05Z</time>
      </trkpt>
      <trkpt lat="45.2675" lon="2.92459">
        <ele>1182.56</ele>
        <time>2021-08-15T11:10:08Z</time>
      </trkpt>
      <trkpt lat="45.26737" lon="2.92457">
        <ele>1182.08</ele>
        <time>2021-08-15T11:10:11Z</time>
      </trkpt>
      <trkpt lat="45.26709" lon="2.92458">
        <ele>1181.6</ele>
        <time>2021-08-15T11:10:18Z</time>
      </trkpt>
      <trkpt lat="45.26679" lon="2.92466">
        <ele>1181.12</ele>
        <time>2021-08-15T11:10:25Z</time>
      </trkpt>
      <trkpt lat="45.26674" lon="2.92466">
        <ele>1181.12</ele>
        <time>2021-08-15T11:10:26Z</time>
      </trkpt>
      <trkpt lat="45.2667" lon="2.92464">
        <ele>1181.12</ele>
        <time>2021-08-15T11:10:27Z</time>
      </trkpt>
      <trkpt lat="45.26666" lon="2.9246">
        <ele>1181.12</ele>
        <time>2021-08-15T11:10:28Z</time>
      </trkpt>
      <trkpt lat="45.26663" lon="2.92456">
        <ele>1181.12</ele>
        <time>2021-08-15T11:10:29Z</time>
      </trkpt>
      <trkpt lat="45.2666" lon="2.92452">
        <ele>1181.12</ele>
        <time>2021-08-15T11:10:30Z</time>
      </trkpt>
      <trkpt lat="45.2664" lon="2.92424">
        <ele>1179.19</ele>
        <time>2021-08-15T11:10:35Z</time>
      </trkpt>
      <trkpt lat="45.26625" lon="2.924">
        <ele>1178.23</ele>
        <time>2021-08-15T11:10:39Z</time>
      </trkpt>
      <trkpt lat="45.26586" lon="2.92363">
        <ele>1174.39</ele>
        <time>2021-08-15T11:10:46Z</time>
      </trkpt>
      <trkpt lat="45.26565" lon="2.92346">
        <ele>1171.98</ele>
        <time>2021-08-15T11:10:49Z</time>
      </trkpt>
      <trkpt lat="45.2655" lon="2.92334">
        <ele>1170.54</ele>
        <time>2021-08-15T11:10:51Z</time>
      </trkpt>
      <trkpt lat="45.26527" lon="2.92315">
        <ele>1166.22</ele>
        <time>2021-08-15T11:10:54Z</time>
      </trkpt>
      <trkpt lat="45.26519" lon="2.92308">
        <ele>1166.22</ele>
        <time>2021-08-15T11:10:55Z</time>
      </trkpt>
      <trkpt lat="45.26497" lon="2.92285">
        <ele>1165.26</ele>
        <time>2021-08-15T11:10:58Z</time>
      </trkpt>
      <trkpt lat="45.26491" lon="2.92276">
        <ele>1165.26</ele>
        <time>2021-08-15T11:10:59Z</time>
      </trkpt>
      <trkpt lat="45.26474" lon="2.92247">
        <ele>1163.33</ele>
        <time>2021-08-15T11:11:02Z</time>
      </trkpt>
      <trkpt lat="45.26456" lon="2.92201">
        <ele>1159.97</ele>
        <time>2021-08-15T11:11:06Z</time>
      </trkpt>
      <trkpt lat="45.26453" lon="2.9219">
        <ele>1159.97</ele>
        <time>2021-08-15T11:11:07Z</time>
      </trkpt>
      <trkpt lat="45.26426" lon="2.9212">
        <ele>1157.08</ele>
        <time>2021-08-15T11:11:13Z</time>
      </trkpt>
      <trkpt lat="45.26414" lon="2.92099">
        <ele>1155.64</ele>
        <time>2021-08-15T11:11:15Z</time>
      </trkpt>
      <trkpt lat="45.26368" lon="2.92034">
        <ele>1153.24</ele>
        <time>2021-08-15T11:11:22Z</time>
      </trkpt>
      <trkpt lat="45.26345" lon="2.92011">
        <ele>1151.32</ele>
        <time>2021-08-15T11:11:25Z</time>
      </trkpt>
      <trkpt lat="45.26337" lon="2.92003">
        <ele>1150.35</ele>
        <time>2021-08-15T11:11:26Z</time>
      </trkpt>
      <trkpt lat="45.26329" lon="2.91998">
        <ele>1150.35</ele>
        <time>2021-08-15T11:11:27Z</time>
      </trkpt>
      <trkpt lat="45.26322" lon="2.91995">
        <ele>1150.35</ele>
        <time>2021-08-15T11:11:28Z</time>
      </trkpt>
      <trkpt lat="45.26313" lon="2.91993">
        <ele>1150.35</ele>
        <time>2021-08-15T11:11:29Z</time>
      </trkpt>
      <trkpt lat="45.26307" lon="2.91994">
        <ele>1150.35</ele>
        <time>2021-08-15T11:11:30Z</time>
      </trkpt>
      <trkpt lat="45.26299" lon="2.91996">
        <ele>1150.35</ele>
        <time>2021-08-15T11:11:31Z</time>
      </trkpt>
      <trkpt lat="45.26293" lon="2.91999">
        <ele>1149.87</ele>
        <time>2021-08-15T11:11:32Z</time>
      </trkpt>
      <trkpt lat="45.26287" lon="2.92003">
        <ele>1151.32</ele>
        <time>2021-08-15T11:11:33Z</time>
      </trkpt>
      <trkpt lat="45.26281" lon="2.92007">
        <ele>1151.32</ele>
        <time>2021-08-15T11:11:34Z</time>
      </trkpt>
      <trkpt lat="45.26272" lon="2.92016">
        <ele>1152.28</ele>
        <time>2021-08-15T11:11:36Z</time>
      </trkpt>
      <trkpt lat="45.26257" lon="2.92034">
        <ele>1152.76</ele>
        <time>2021-08-15T11:11:40Z</time>
      </trkpt>
      <trkpt lat="45.2622" lon="2.92079">
        <ele>1151.8</ele>
        <time>2021-08-15T11:11:49Z</time>
      </trkpt>
      <trkpt lat="45.26216" lon="2.92084">
        <ele>1151.8</ele>
        <time>2021-08-15T11:11:50Z</time>
      </trkpt>
      <trkpt lat="45.26194" lon="2.92114">
        <ele>1147.95</ele>
        <time>2021-08-15T11:11:54Z</time>
      </trkpt>
      <trkpt lat="45.26172" lon="2.92152">
        <ele>1144.59</ele>
        <time>2021-08-15T11:11:58Z</time>
      </trkpt>
      <trkpt lat="45.26131" lon="2.92218">
        <ele>1141.22</ele>
        <time>2021-08-15T11:12:04Z</time>
      </trkpt>
      <trkpt lat="45.26102" lon="2.92262">
        <ele>1137.86</ele>
        <time>2021-08-15T11:12:09Z</time>
      </trkpt>
      <trkpt lat="45.26096" lon="2.92267">
        <ele>1136.9</ele>
        <time>2021-08-15T11:12:10Z</time>
      </trkpt>
      <trkpt lat="45.26088" lon="2.92271">
        <ele>1135.45</ele>
        <time>2021-08-15T11:12:11Z</time>
      </trkpt>
      <trkpt lat="45.26072" lon="2.92277">
        <ele>1134.01</ele>
        <time>2021-08-15T11:12:13Z</time>
      </trkpt>
      <trkpt lat="45.26066" lon="2.92281">
        <ele>1134.01</ele>
        <time>2021-08-15T11:12:14Z</time>
      </trkpt>
      <trkpt lat="45.2606" lon="2.92286">
        <ele>1134.01</ele>
        <time>2021-08-15T11:12:15Z</time>
      </trkpt>
      <trkpt lat="45.26046" lon="2.92299">
        <ele>1133.05</ele>
        <time>2021-08-15T11:12:18Z</time>
      </trkpt>
      <trkpt lat="45.26035" lon="2.92307">
        <ele>1132.09</ele>
        <time>2021-08-15T11:12:20Z</time>
      </trkpt>
      <trkpt lat="45.26029" lon="2.92308">
        <ele>1132.09</ele>
        <time>2021-08-15T11:12:21Z</time>
      </trkpt>
      <trkpt lat="45.26022" lon="2.92308">
        <ele>1131.61</ele>
        <time>2021-08-15T11:12:22Z</time>
      </trkpt>
      <trkpt lat="45.26016" lon="2.92306">
        <ele>1131.13</ele>
        <time>2021-08-15T11:12:23Z</time>
      </trkpt>
      <trkpt lat="45.2601" lon="2.92303">
        <ele>1131.13</ele>
        <time>2021-08-15T11:12:24Z</time>
      </trkpt>
      <trkpt lat="45.26004" lon="2.92301">
        <ele>1130.17</ele>
        <time>2021-08-15T11:12:25Z</time>
      </trkpt>
      <trkpt lat="45.25998" lon="2.92299">
        <ele>1130.17</ele>
        <time>2021-08-15T11:12:26Z</time>
      </trkpt>
      <trkpt lat="45.25992" lon="2.92299">
        <ele>1130.17</ele>
        <time>2021-08-15T11:12:27Z</time>
      </trkpt>
      <trkpt lat="45.25985" lon="2.923">
        <ele>1130.17</ele>
        <time>2021-08-15T11:12:28Z</time>
      </trkpt>
      <trkpt lat="45.25978" lon="2.92301">
        <ele>1130.17</ele>
        <time>2021-08-15T11:12:29Z</time>
      </trkpt>
      <trkpt lat="45.25971" lon="2.92303">
        <ele>1129.21</ele>
        <time>2021-08-15T11:12:30Z</time>
      </trkpt>
      <trkpt lat="45.25928" lon="2.92323">
        <ele>1125.36</ele>
        <time>2021-08-15T11:12:36Z</time>
      </trkpt>
      <trkpt lat="45.25897" lon="2.92344">
        <ele>1122.48</ele>
        <time>2021-08-15T11:12:40Z</time>
      </trkpt>
      <trkpt lat="45.25882" lon="2.92356">
        <ele>1121.52</ele>
        <time>2021-08-15T11:12:42Z</time>
      </trkpt>
      <trkpt lat="45.25861" lon="2.92372">
        <ele>1120.55</ele>
        <time>2021-08-15T11:12:45Z</time>
      </trkpt>
      <trkpt lat="45.25854" lon="2.92374">
        <ele>1120.55</ele>
        <time>2021-08-15T11:12:46Z</time>
      </trkpt>
      <trkpt lat="45.25846" lon="2.92375">
        <ele>1120.07</ele>
        <time>2021-08-15T11:12:47Z</time>
      </trkpt>
      <trkpt lat="45.25784" lon="2.92375">
        <ele>1116.23</ele>
        <time>2021-08-15T11:12:55Z</time>
      </trkpt>
      <trkpt lat="45.25777" lon="2.92376">
        <ele>1115.75</ele>
        <time>2021-08-15T11:12:56Z</time>
      </trkpt>
      <trkpt lat="45.25769" lon="2.92379">
        <ele>1115.75</ele>
        <time>2021-08-15T11:12:57Z</time>
      </trkpt>
      <trkpt lat="45.25736" lon="2.92394">
        <ele>1113.82</ele>
        <time>2021-08-15T11:13:01Z</time>
      </trkpt>
      <trkpt lat="45.25713" lon="2.92407">
        <ele>1111.9</ele>
        <time>2021-08-15T11:13:04Z</time>
      </trkpt>
      <trkpt lat="45.25708" lon="2.92413">
        <ele>1111.42</ele>
        <time>2021-08-15T11:13:05Z</time>
      </trkpt>
      <trkpt lat="45.25702" lon="2.92422">
        <ele>1110.94</ele>
        <time>2021-08-15T11:13:06Z</time>
      </trkpt>
      <trkpt lat="45.25698" lon="2.92431">
        <ele>1110.94</ele>
        <time>2021-08-15T11:13:07Z</time>
      </trkpt>
      <trkpt lat="45.25695" lon="2.92443">
        <ele>1110.94</ele>
        <time>2021-08-15T11:13:08Z</time>
      </trkpt>
      <trkpt lat="45.25693" lon="2.92451">
        <ele>1110.94</ele>
        <time>2021-08-15T11:13:09Z</time>
      </trkpt>
      <trkpt lat="45.25691" lon="2.9246">
        <ele>1110.94</ele>
        <time>2021-08-15T11:13:10Z</time>
      </trkpt>
      <trkpt lat="45.25691" lon="2.9247">
        <ele>1110.94</ele>
        <time>2021-08-15T11:13:11Z</time>
      </trkpt>
      <trkpt lat="45.25692" lon="2.92477">
        <ele>1110.94</ele>
        <time>2021-08-15T11:13:12Z</time>
      </trkpt>
      <trkpt lat="45.25693" lon="2.92486">
        <ele>1112.38</ele>
        <time>2021-08-15T11:13:13Z</time>
      </trkpt>
      <trkpt lat="45.25693" lon="2.92491">
        <ele>1112.38</ele>
        <time>2021-08-15T11:13:14Z</time>
      </trkpt>
      <trkpt lat="45.25692" lon="2.92497">
        <ele>1112.86</ele>
        <time>2021-08-15T11:13:15Z</time>
      </trkpt>
      <trkpt lat="45.25689" lon="2.92502">
        <ele>1112.86</ele>
        <time>2021-08-15T11:13:16Z</time>
      </trkpt>
      <trkpt lat="45.25686" lon="2.92504">
        <ele>1112.86</ele>
        <time>2021-08-15T11:13:17Z</time>
      </trkpt>
      <trkpt lat="45.25682" lon="2.92504">
        <ele>1112.86</ele>
        <time>2021-08-15T11:13:18Z</time>
      </trkpt>
      <trkpt lat="45.25677" lon="2.92504">
        <ele>1112.86</ele>
        <time>2021-08-15T11:13:19Z</time>
      </trkpt>
      <trkpt lat="45.25674" lon="2.92504">
        <ele>1112.86</ele>
        <time>2021-08-15T11:13:20Z</time>
      </trkpt>
      <trkpt lat="45.25642" lon="2.92507">
        <ele>1112.86</ele>
        <time>2021-08-15T11:13:27Z</time>
      </trkpt>
      <trkpt lat="45.25594" lon="2.92516">
        <ele>1113.82</ele>
        <time>2021-08-15T11:13:38Z</time>
      </trkpt>
      <trkpt lat="45.2557" lon="2.92519">
        <ele>1113.82</ele>
        <time>2021-08-15T11:13:44Z</time>
      </trkpt>
      <trkpt lat="45.25566" lon="2.92515">
        <ele>1113.82</ele>
        <time>2021-08-15T11:13:45Z</time>
      </trkpt>
      <trkpt lat="45.25565" lon="2.9251">
        <ele>1111.9</ele>
        <time>2021-08-15T11:13:46Z</time>
      </trkpt>
      <trkpt lat="45.25563" lon="2.92503">
        <ele>1111.9</ele>
        <time>2021-08-15T11:13:47Z</time>
      </trkpt>
      <trkpt lat="45.25555" lon="2.92464">
        <ele>1108.54</ele>
        <time>2021-08-15T11:13:52Z</time>
      </trkpt>
      <trkpt lat="45.25552" lon="2.92455">
        <ele>1108.54</ele>
        <time>2021-08-15T11:13:53Z</time>
      </trkpt>
      <trkpt lat="45.25547" lon="2.92445">
        <ele>1106.61</ele>
        <time>2021-08-15T11:13:54Z</time>
      </trkpt>
      <trkpt lat="45.25543" lon="2.92438">
        <ele>1106.61</ele>
        <time>2021-08-15T11:13:55Z</time>
      </trkpt>
      <trkpt lat="45.25514" lon="2.92385">
        <ele>1102.29</ele>
        <time>2021-08-15T11:14:01Z</time>
      </trkpt>
      <trkpt lat="45.2549" lon="2.9235">
        <ele>1099.89</ele>
        <time>2021-08-15T11:14:05Z</time>
      </trkpt>
      <trkpt lat="45.25471" lon="2.92318">
        <ele>1096.52</ele>
        <time>2021-08-15T11:14:08Z</time>
      </trkpt>
      <trkpt lat="45.25436" lon="2.92259">
        <ele>1092.68</ele>
        <time>2021-08-15T11:14:14Z</time>
      </trkpt>
      <trkpt lat="45.25431" lon="2.9225">
        <ele>1092.68</ele>
        <time>2021-08-15T11:14:15Z</time>
      </trkpt>
      <trkpt lat="45.25417" lon="2.92221">
        <ele>1093.16</ele>
        <time>2021-08-15T11:14:19Z</time>
      </trkpt>
      <trkpt lat="45.25415" lon="2.92217">
        <ele>1093.16</ele>
        <time>2021-08-15T11:14:20Z</time>
      </trkpt>
      <trkpt lat="45.25408" lon="2.92199">
        <ele>1091.23</ele>
        <time>2021-08-15T11:14:25Z</time>
      </trkpt>
      <trkpt lat="45.25392" lon="2.92167">
        <ele>1088.35</ele>
        <time>2021-08-15T11:14:33Z</time>
      </trkpt>
      <trkpt lat="45.25378" lon="2.9215">
        <ele>1084.99</ele>
        <time>2021-08-15T11:14:39Z</time>
      </trkpt>
      <trkpt lat="45.25376" lon="2.92148">
        <ele>1084.5</ele>
        <time>2021-08-15T11:14:40Z</time>
      </trkpt>
      <trkpt lat="45.25374" lon="2.92144">
        <ele>1084.02</ele>
        <time>2021-08-15T11:14:41Z</time>
      </trkpt>
      <trkpt lat="45.2537" lon="2.92133">
        <ele>1082.1</ele>
        <time>2021-08-15T11:14:44Z</time>
      </trkpt>
      <trkpt lat="45.25358" lon="2.92115">
        <ele>1078.74</ele>
        <time>2021-08-15T11:14:50Z</time>
      </trkpt>
      <trkpt lat="45.25345" lon="2.92107">
        <ele>1075.37</ele>
        <time>2021-08-15T11:14:55Z</time>
      </trkpt>
      <trkpt lat="45.25338" lon="2.92108">
        <ele>1074.89</ele>
        <time>2021-08-15T11:14:57Z</time>
      </trkpt>
      <trkpt lat="45.25323" lon="2.9211">
        <ele>1072.49</ele>
        <time>2021-08-15T11:15:01Z</time>
      </trkpt>
      <trkpt lat="45.25311" lon="2.9211">
        <ele>1069.12</ele>
        <time>2021-08-15T11:15:05Z</time>
      </trkpt>
      <trkpt lat="45.25293" lon="2.92115">
        <ele>1065.76</ele>
        <time>2021-08-15T11:15:11Z</time>
      </trkpt>
      <trkpt lat="45.25275" lon="2.92133">
        <ele>1062.87</ele>
        <time>2021-08-15T11:15:17Z</time>
      </trkpt>
      <trkpt lat="45.25269" lon="2.9214">
        <ele>1061.43</ele>
        <time>2021-08-15T11:15:19Z</time>
      </trkpt>
      <trkpt lat="45.25265" lon="2.92145">
        <ele>1060.95</ele>
        <time>2021-08-15T11:15:20Z</time>
      </trkpt>
      <trkpt lat="45.25255" lon="2.92157">
        <ele>1058.55</ele>
        <time>2021-08-15T11:15:23Z</time>
      </trkpt>
      <trkpt lat="45.2525" lon="2.9216">
        <ele>1057.59</ele>
        <time>2021-08-15T11:15:24Z</time>
      </trkpt>
      <trkpt lat="45.25241" lon="2.92161">
        <ele>1056.15</ele>
        <time>2021-08-15T11:15:26Z</time>
      </trkpt>
      <trkpt lat="45.25237" lon="2.9216">
        <ele>1055.18</ele>
        <time>2021-08-15T11:15:27Z</time>
      </trkpt>
      <trkpt lat="45.25234" lon="2.92157">
        <ele>1054.7</ele>
        <time>2021-08-15T11:15:28Z</time>
      </trkpt>
      <trkpt lat="45.25231" lon="2.92153">
        <ele>1053.74</ele>
        <time>2021-08-15T11:15:29Z</time>
      </trkpt>
      <trkpt lat="45.2523" lon="2.92149">
        <ele>1052.78</ele>
        <time>2021-08-15T11:15:30Z</time>
      </trkpt>
      <trkpt lat="45.2523" lon="2.92144">
        <ele>1052.3</ele>
        <time>2021-08-15T11:15:31Z</time>
      </trkpt>
      <trkpt lat="45.25231" lon="2.92139">
        <ele>1052.3</ele>
        <time>2021-08-15T11:15:32Z</time>
      </trkpt>
      <trkpt lat="45.25234" lon="2.92121">
        <ele>1049.9</ele>
        <time>2021-08-15T11:15:35Z</time>
      </trkpt>
      <trkpt lat="45.25236" lon="2.92115">
        <ele>1049.42</ele>
        <time>2021-08-15T11:15:36Z</time>
      </trkpt>
      <trkpt lat="45.25238" lon="2.92107">
        <ele>1049.42</ele>
        <time>2021-08-15T11:15:37Z</time>
      </trkpt>
      <trkpt lat="45.2524" lon="2.92101">
        <ele>1048.94</ele>
        <time>2021-08-15T11:15:38Z</time>
      </trkpt>
      <trkpt lat="45.25243" lon="2.92094">
        <ele>1047.97</ele>
        <time>2021-08-15T11:15:39Z</time>
      </trkpt>
      <trkpt lat="45.25245" lon="2.92089">
        <ele>1047.97</ele>
        <time>2021-08-15T11:15:40Z</time>
      </trkpt>
      <trkpt lat="45.25253" lon="2.92069">
        <ele>1046.53</ele>
        <time>2021-08-15T11:15:44Z</time>
      </trkpt>
      <trkpt lat="45.25258" lon="2.9205">
        <ele>1043.65</ele>
        <time>2021-08-15T11:15:47Z</time>
      </trkpt>
      <trkpt lat="45.25266" lon="2.92024">
        <ele>1040.28</ele>
        <time>2021-08-15T11:15:51Z</time>
      </trkpt>
      <trkpt lat="45.25268" lon="2.92019">
        <ele>1039.32</ele>
        <time>2021-08-15T11:15:52Z</time>
      </trkpt>
      <trkpt lat="45.2527" lon="2.92008">
        <ele>1038.36</ele>
        <time>2021-08-15T11:15:54Z</time>
      </trkpt>
      <trkpt lat="45.25272" lon="2.91987">
        <ele>1037.4</ele>
        <time>2021-08-15T11:15:59Z</time>
      </trkpt>
      <trkpt lat="45.25268" lon="2.91968">
        <ele>1035.48</ele>
        <time>2021-08-15T11:16:03Z</time>
      </trkpt>
      <trkpt lat="45.25265" lon="2.91962">
        <ele>1035</ele>
        <time>2021-08-15T11:16:04Z</time>
      </trkpt>
      <trkpt lat="45.25262" lon="2.91957">
        <ele>1034.04</ele>
        <time>2021-08-15T11:16:05Z</time>
      </trkpt>
      <trkpt lat="45.25258" lon="2.91951">
        <ele>1033.55</ele>
        <time>2021-08-15T11:16:06Z</time>
      </trkpt>
      <trkpt lat="45.25254" lon="2.91944">
        <ele>1033.55</ele>
        <time>2021-08-15T11:16:07Z</time>
      </trkpt>
      <trkpt lat="45.25239" lon="2.91912">
        <ele>1031.15</ele>
        <time>2021-08-15T11:16:11Z</time>
      </trkpt>
      <trkpt lat="45.25234" lon="2.91905">
        <ele>1031.15</ele>
        <time>2021-08-15T11:16:12Z</time>
      </trkpt>
      <trkpt lat="45.25229" lon="2.919">
        <ele>1030.67</ele>
        <time>2021-08-15T11:16:13Z</time>
      </trkpt>
      <trkpt lat="45.25224" lon="2.91896">
        <ele>1030.67</ele>
        <time>2021-08-15T11:16:14Z</time>
      </trkpt>
      <trkpt lat="45.25218" lon="2.91892">
        <ele>1030.67</ele>
        <time>2021-08-15T11:16:15Z</time>
      </trkpt>
      <trkpt lat="45.25195" lon="2.91877">
        <ele>1030.67</ele>
        <time>2021-08-15T11:16:20Z</time>
      </trkpt>
      <trkpt lat="45.25186" lon="2.91872">
        <ele>1033.07</ele>
        <time>2021-08-15T11:16:25Z</time>
      </trkpt>
      <trkpt lat="45.25179" lon="2.91869">
        <ele>1033.55</ele>
        <time>2021-08-15T11:16:29Z</time>
      </trkpt>
      <trkpt lat="45.25178" lon="2.91868">
        <ele>1034.04</ele>
        <time>2021-08-15T11:16:30Z</time>
      </trkpt>
      <trkpt lat="45.25176" lon="2.91868">
        <ele>1034.04</ele>
        <time>2021-08-15T11:16:31Z</time>
      </trkpt>
      <trkpt lat="45.25175" lon="2.91867">
        <ele>1034.04</ele>
        <time>2021-08-15T11:16:32Z</time>
      </trkpt>
      <trkpt lat="45.25174" lon="2.91865">
        <ele>1034.04</ele>
        <time>2021-08-15T11:16:33Z</time>
      </trkpt>
      <trkpt lat="45.2516" lon="2.91853">
        <ele>1035.48</ele>
        <time>2021-08-15T11:16:43Z</time>
      </trkpt>
      <trkpt lat="45.25149" lon="2.91835">
        <ele>1036.44</ele>
        <time>2021-08-15T11:16:52Z</time>
      </trkpt>
      <trkpt lat="45.25138" lon="2.91812">
        <ele>1037.4</ele>
        <time>2021-08-15T11:17:03Z</time>
      </trkpt>
      <trkpt lat="45.25129" lon="2.91794">
        <ele>1038.36</ele>
        <time>2021-08-15T11:17:12Z</time>
      </trkpt>
      <trkpt lat="45.25129" lon="2.91792">
        <ele>1038.36</ele>
        <time>2021-08-15T11:17:13Z</time>
      </trkpt>
      <trkpt lat="45.25128" lon="2.9179">
        <ele>1038.84</ele>
        <time>2021-08-15T11:17:14Z</time>
      </trkpt>
      <trkpt lat="45.25115" lon="2.91769">
        <ele>1040.28</ele>
        <time>2021-08-15T11:17:26Z</time>
      </trkpt>
      <trkpt lat="45.25105" lon="2.91751">
        <ele>1041.73</ele>
        <time>2021-08-15T11:17:35Z</time>
      </trkpt>
      <trkpt lat="45.25096" lon="2.91732">
        <ele>1042.69</ele>
        <time>2021-08-15T11:17:43Z</time>
      </trkpt>
      <trkpt lat="45.25086" lon="2.91709">
        <ele>1042.69</ele>
        <time>2021-08-15T11:17:51Z</time>
      </trkpt>
      <trkpt lat="45.25083" lon="2.91708">
        <ele>1042.69</ele>
        <time>2021-08-15T11:17:52Z</time>
      </trkpt>
      <trkpt lat="45.25081" lon="2.91708">
        <ele>1042.69</ele>
        <time>2021-08-15T11:17:53Z</time>
      </trkpt>
      <trkpt lat="45.25078" lon="2.91707">
        <ele>1042.69</ele>
        <time>2021-08-15T11:17:54Z</time>
      </trkpt>
      <trkpt lat="45.25075" lon="2.91707">
        <ele>1042.69</ele>
        <time>2021-08-15T11:17:55Z</time>
      </trkpt>
      <trkpt lat="45.25073" lon="2.91707">
        <ele>1042.69</ele>
        <time>2021-08-15T11:17:56Z</time>
      </trkpt>
      <trkpt lat="45.25053" lon="2.91708">
        <ele>1042.69</ele>
        <time>2021-08-15T11:18:02Z</time>
      </trkpt>
      <trkpt lat="45.25042" lon="2.91714">
        <ele>1041.25</ele>
        <time>2021-08-15T11:18:05Z</time>
      </trkpt>
      <trkpt lat="45.2501" lon="2.91739">
        <ele>1038.84</ele>
        <time>2021-08-15T11:18:12Z</time>
      </trkpt>
      <trkpt lat="45.24982" lon="2.91762">
        <ele>1037.4</ele>
        <time>2021-08-15T11:18:17Z</time>
      </trkpt>
      <trkpt lat="45.24959" lon="2.91782">
        <ele>1035.96</ele>
        <time>2021-08-15T11:18:22Z</time>
      </trkpt>
      <trkpt lat="45.24926" lon="2.91818">
        <ele>1033.55</ele>
        <time>2021-08-15T11:18:28Z</time>
      </trkpt>
      <trkpt lat="45.24907" lon="2.91839">
        <ele>1032.11</ele>
        <time>2021-08-15T11:18:31Z</time>
      </trkpt>
      <trkpt lat="45.24863" lon="2.91886">
        <ele>1028.27</ele>
        <time>2021-08-15T11:18:37Z</time>
      </trkpt>
      <trkpt lat="45.24822" lon="2.91923">
        <ele>1024.9</ele>
        <time>2021-08-15T11:18:42Z</time>
      </trkpt>
      <trkpt lat="45.24785" lon="2.91949">
        <ele>1023.46</ele>
        <time>2021-08-15T11:18:46Z</time>
      </trkpt>
      <trkpt lat="45.24755" lon="2.91966">
        <ele>1021.54</ele>
        <time>2021-08-15T11:18:49Z</time>
      </trkpt>
      <trkpt lat="45.24714" lon="2.9199">
        <ele>1018.17</ele>
        <time>2021-08-15T11:18:53Z</time>
      </trkpt>
      <trkpt lat="45.24657" lon="2.92026">
        <ele>1016.73</ele>
        <time>2021-08-15T11:18:59Z</time>
      </trkpt>
      <trkpt lat="45.24629" lon="2.92048">
        <ele>1015.77</ele>
        <time>2021-08-15T11:19:03Z</time>
      </trkpt>
      <trkpt lat="45.24623" lon="2.9205">
        <ele>1015.77</ele>
        <time>2021-08-15T11:19:04Z</time>
      </trkpt>
      <trkpt lat="45.24616" lon="2.92051">
        <ele>1014.81</ele>
        <time>2021-08-15T11:19:05Z</time>
      </trkpt>
      <trkpt lat="45.24612" lon="2.92049">
        <ele>1014.81</ele>
        <time>2021-08-15T11:19:06Z</time>
      </trkpt>
      <trkpt lat="45.24608" lon="2.92045">
        <ele>1013.85</ele>
        <time>2021-08-15T11:19:07Z</time>
      </trkpt>
      <trkpt lat="45.24605" lon="2.92041">
        <ele>1014.33</ele>
        <time>2021-08-15T11:19:08Z</time>
      </trkpt>
      <trkpt lat="45.24602" lon="2.92039">
        <ele>1014.33</ele>
        <time>2021-08-15T11:19:09Z</time>
      </trkpt>
      <trkpt lat="45.24598" lon="2.92038">
        <ele>1014.33</ele>
        <time>2021-08-15T11:19:10Z</time>
      </trkpt>
      <trkpt lat="45.24594" lon="2.9204">
        <ele>1014.33</ele>
        <time>2021-08-15T11:19:11Z</time>
      </trkpt>
      <trkpt lat="45.2457" lon="2.92059">
        <ele>1013.37</ele>
        <time>2021-08-15T11:19:17Z</time>
      </trkpt>
      <trkpt lat="45.24532" lon="2.92094">
        <ele>1012.41</ele>
        <time>2021-08-15T11:19:24Z</time>
      </trkpt>
      <trkpt lat="45.24478" lon="2.9216">
        <ele>1010.96</ele>
        <time>2021-08-15T11:19:34Z</time>
      </trkpt>
      <trkpt lat="45.24474" lon="2.9217">
        <ele>1010.96</ele>
        <time>2021-08-15T11:19:35Z</time>
      </trkpt>
      <trkpt lat="45.24471" lon="2.92179">
        <ele>1010.96</ele>
        <time>2021-08-15T11:19:36Z</time>
      </trkpt>
      <trkpt lat="45.24468" lon="2.92189">
        <ele>1010</ele>
        <time>2021-08-15T11:19:37Z</time>
      </trkpt>
      <trkpt lat="45.24465" lon="2.92199">
        <ele>1010</ele>
        <time>2021-08-15T11:19:38Z</time>
      </trkpt>
      <trkpt lat="45.24442" lon="2.92288">
        <ele>1008.08</ele>
        <time>2021-08-15T11:19:46Z</time>
      </trkpt>
      <trkpt lat="45.24413" lon="2.92367">
        <ele>1005.68</ele>
        <time>2021-08-15T11:19:53Z</time>
      </trkpt>
      <trkpt lat="45.24371" lon="2.92439">
        <ele>1004.72</ele>
        <time>2021-08-15T11:20:00Z</time>
      </trkpt>
      <trkpt lat="45.24308" lon="2.92528">
        <ele>1003.75</ele>
        <time>2021-08-15T11:20:10Z</time>
      </trkpt>
      <trkpt lat="45.2425" lon="2.92608">
        <ele>1003.75</ele>
        <time>2021-08-15T11:20:20Z</time>
      </trkpt>
      <trkpt lat="45.24204" lon="2.92673">
        <ele>1003.27</ele>
        <time>2021-08-15T11:20:29Z</time>
      </trkpt>
      <trkpt lat="45.24163" lon="2.9273">
        <ele>1002.79</ele>
        <time>2021-08-15T11:20:37Z</time>
      </trkpt>
      <trkpt lat="45.24108" lon="2.92809">
        <ele>1000.39</ele>
        <time>2021-08-15T11:20:47Z</time>
      </trkpt>
      <trkpt lat="45.24054" lon="2.92883">
        <ele>998.47</ele>
        <time>2021-08-15T11:20:56Z</time>
      </trkpt>
      <trkpt lat="45.24046" lon="2.92895">
        <ele>998.47</ele>
        <time>2021-08-15T11:20:58Z</time>
      </trkpt>
      <trkpt lat="45.24042" lon="2.92897">
        <ele>998.95</ele>
        <time>2021-08-15T11:20:59Z</time>
      </trkpt>
      <trkpt lat="45.24038" lon="2.92898">
        <ele>998.95</ele>
        <time>2021-08-15T11:21:00Z</time>
      </trkpt>
      <trkpt lat="45.24034" lon="2.92896">
        <ele>998.47</ele>
        <time>2021-08-15T11:21:01Z</time>
      </trkpt>
      <trkpt lat="45.2403" lon="2.92893">
        <ele>998.47</ele>
        <time>2021-08-15T11:21:02Z</time>
      </trkpt>
      <trkpt lat="45.24026" lon="2.9289">
        <ele>998.47</ele>
        <time>2021-08-15T11:21:03Z</time>
      </trkpt>
      <trkpt lat="45.24023" lon="2.92886">
        <ele>998.47</ele>
        <time>2021-08-15T11:21:04Z</time>
      </trkpt>
      <trkpt lat="45.24003" lon="2.9286">
        <ele>998.47</ele>
        <time>2021-08-15T11:21:11Z</time>
      </trkpt>
      <trkpt lat="45.23984" lon="2.92822">
        <ele>997.02</ele>
        <time>2021-08-15T11:21:19Z</time>
      </trkpt>
      <trkpt lat="45.23982" lon="2.92815">
        <ele>997.02</ele>
        <time>2021-08-15T11:21:20Z</time>
      </trkpt>
      <trkpt lat="45.2398" lon="2.92808">
        <ele>996.06</ele>
        <time>2021-08-15T11:21:21Z</time>
      </trkpt>
      <trkpt lat="45.23973" lon="2.92777">
        <ele>994.14</ele>
        <time>2021-08-15T11:21:25Z</time>
      </trkpt>
      <trkpt lat="45.23971" lon="2.92766">
        <ele>994.14</ele>
        <time>2021-08-15T11:21:27Z</time>
      </trkpt>
      <trkpt lat="45.23972" lon="2.92761">
        <ele>994.14</ele>
        <time>2021-08-15T11:21:28Z</time>
      </trkpt>
      <trkpt lat="45.23973" lon="2.92758">
        <ele>994.14</ele>
        <time>2021-08-15T11:21:29Z</time>
      </trkpt>
      <trkpt lat="45.23973" lon="2.92754">
        <ele>994.14</ele>
        <time>2021-08-15T11:21:30Z</time>
      </trkpt>
      <trkpt lat="45.23972" lon="2.92752">
        <ele>994.14</ele>
        <time>2021-08-15T11:21:31Z</time>
      </trkpt>
      <trkpt lat="45.2397" lon="2.92753">
        <ele>994.14</ele>
        <time>2021-08-15T11:21:35Z</time>
      </trkpt>
      <trkpt lat="45.23955" lon="2.92764">
        <ele>994.14</ele>
        <time>2021-08-15T11:21:41Z</time>
      </trkpt>
      <trkpt lat="45.23933" lon="2.92773">
        <ele>994.14</ele>
        <time>2021-08-15T11:21:49Z</time>
      </trkpt>
      <trkpt lat="45.2392" lon="2.92778">
        <ele>994.14</ele>
        <time>2021-08-15T11:21:56Z</time>
      </trkpt>
      <trkpt lat="45.23918" lon="2.92779">
        <ele>994.14</ele>
        <time>2021-08-15T11:21:57Z</time>
      </trkpt>
      <trkpt lat="45.23916" lon="2.92777">
        <ele>994.14</ele>
        <time>2021-08-15T11:21:58Z</time>
      </trkpt>
      <trkpt lat="45.23916" lon="2.92767">
        <ele>994.14</ele>
        <time>2021-08-15T11:22:03Z</time>
      </trkpt>
      <trkpt lat="45.23917" lon="2.92767">
        <ele>994.14</ele>
        <time>2021-08-15T11:22:04Z</time>
      </trkpt>
      <trkpt lat="45.2392" lon="2.92767">
        <ele>994.14</ele>
        <time>2021-08-15T11:22:09Z</time>
      </trkpt>
      <trkpt lat="45.23921" lon="2.92769">
        <ele>994.14</ele>
        <time>2021-08-15T11:22:16Z</time>
      </trkpt>
      <trkpt lat="45.23923" lon="2.92768">
        <ele>994.14</ele>
        <time>2021-08-15T11:22:27Z</time>
      </trkpt>
      <trkpt lat="45.23923" lon="2.92766">
        <ele>993.66</ele>
        <time>2021-08-15T11:22:43Z</time>
      </trkpt>
      <trkpt lat="45.23922" lon="2.92765">
        <ele>993.66</ele>
        <time>2021-08-15T11:23:01Z</time>
      </trkpt>
      <trkpt lat="45.23922" lon="2.92764">
        <ele>993.66</ele>
        <time>2021-08-15T11:23:22Z</time>
      </trkpt>
      <trkpt lat="45.23923" lon="2.92765">
        <ele>993.18</ele>
        <time>2021-08-15T11:23:45Z</time>
      </trkpt>
      <trkpt lat="45.23923" lon="2.92767">
        <ele>993.18</ele>
        <time>2021-08-15T11:24:10Z</time>
      </trkpt>
      <trkpt lat="45.23922" lon="2.92766">
        <ele>992.7</ele>
        <time>2021-08-15T11:24:36Z</time>
      </trkpt>
      <trkpt lat="45.23921" lon="2.92766">
        <ele>992.7</ele>
        <time>2021-08-15T11:25:01Z</time>
      </trkpt>
      <trkpt lat="45.23921" lon="2.92768">
        <ele>993.66</ele>
        <time>2021-08-15T11:25:29Z</time>
      </trkpt>
      <trkpt lat="45.23921" lon="2.92766">
        <ele>993.66</ele>
        <time>2021-08-15T11:25:50Z</time>
      </trkpt>
      <trkpt lat="45.23919" lon="2.92767">
        <ele>993.66</ele>
        <time>2021-08-15T11:26:15Z</time>
      </trkpt>
      <trkpt lat="45.2392" lon="2.92766">
        <ele>993.18</ele>
        <time>2021-08-15T11:26:42Z</time>
      </trkpt>
      <trkpt lat="45.23919" lon="2.92765">
        <ele>993.18</ele>
        <time>2021-08-15T11:27:02Z</time>
      </trkpt>
      <trkpt lat="45.23919" lon="2.92766">
        <ele>993.18</ele>
        <time>2021-08-15T11:27:08Z</time>
      </trkpt>
      <trkpt lat="45.23919" lon="2.92764">
        <ele>993.18</ele>
        <time>2021-08-15T11:27:16Z</time>
      </trkpt>
      <trkpt lat="45.2392" lon="2.92762">
        <ele>992.7</ele>
        <time>2021-08-15T11:27:42Z</time>
      </trkpt>
      <trkpt lat="45.23917" lon="2.92762">
        <ele>992.7</ele>
        <time>2021-08-15T11:28:05Z</time>
      </trkpt>
      <trkpt lat="45.23917" lon="2.92763">
        <ele>992.22</ele>
        <time>2021-08-15T11:28:33Z</time>
      </trkpt>
      <trkpt lat="45.23919" lon="2.92766">
        <ele>992.22</ele>
        <time>2021-08-15T11:28:59Z</time>
      </trkpt>
      <trkpt lat="45.23918" lon="2.92767">
        <ele>991.74</ele>
        <time>2021-08-15T11:29:20Z</time>
      </trkpt>
      <trkpt lat="45.23919" lon="2.92767">
        <ele>991.74</ele>
        <time>2021-08-15T11:29:49Z</time>
      </trkpt>
      <trkpt lat="45.23919" lon="2.92766">
        <ele>991.26</ele>
        <time>2021-08-15T11:30:11Z</time>
      </trkpt>
      <trkpt lat="45.23919" lon="2.92766">
        <ele>991.26</ele>
        <time>2021-08-15T11:30:35Z</time>
      </trkpt>
      <trkpt lat="45.23919" lon="2.92766">
        <ele>991.26</ele>
        <time>2021-08-15T11:30:56Z</time>
      </trkpt>
      <trkpt lat="45.23918" lon="2.92765">
        <ele>990.78</ele>
        <time>2021-08-15T11:31:15Z</time>
      </trkpt>
      <trkpt lat="45.23918" lon="2.92766">
        <ele>991.26</ele>
        <time>2021-08-15T11:31:33Z</time>
      </trkpt>
      <trkpt lat="45.23918" lon="2.92765">
        <ele>991.26</ele>
        <time>2021-08-15T11:31:54Z</time>
      </trkpt>
      <trkpt lat="45.23918" lon="2.92766">
        <ele>991.26</ele>
        <time>2021-08-15T11:32:15Z</time>
      </trkpt>
      <trkpt lat="45.23919" lon="2.92767">
        <ele>991.26</ele>
        <time>2021-08-15T11:32:18Z</time>
      </trkpt>
      <trkpt lat="45.2392" lon="2.92768">
        <ele>991.26</ele>
        <time>2021-08-15T11:32:25Z</time>
      </trkpt>
      <trkpt lat="45.23919" lon="2.92768">
        <ele>991.26</ele>
        <time>2021-08-15T11:32:49Z</time>
      </trkpt>
      <trkpt lat="45.23919" lon="2.92768">
        <ele>991.26</ele>
        <time>2021-08-15T11:33:06Z</time>
      </trkpt>
      <trkpt lat="45.23918" lon="2.92766">
        <ele>991.26</ele>
        <time>2021-08-15T11:33:35Z</time>
      </trkpt>
      <trkpt lat="45.23918" lon="2.92767">
        <ele>991.26</ele>
        <time>2021-08-15T11:34:02Z</time>
      </trkpt>
      <trkpt lat="45.23917" lon="2.92766">
        <ele>991.26</ele>
        <time>2021-08-15T11:34:26Z</time>
      </trkpt>
      <trkpt lat="45.23917" lon="2.92765">
        <ele>990.78</ele>
        <time>2021-08-15T11:34:46Z</time>
      </trkpt>
      <trkpt lat="45.23918" lon="2.92764">
        <ele>990.78</ele>
        <time>2021-08-15T11:35:06Z</time>
      </trkpt>
      <trkpt lat="45.2392" lon="2.92764">
        <ele>990.78</ele>
        <time>2021-08-15T11:35:22Z</time>
      </trkpt>
      <trkpt lat="45.23919" lon="2.92765">
        <ele>990.78</ele>
        <time>2021-08-15T11:35:51Z</time>
      </trkpt>
      <trkpt lat="45.23919" lon="2.92764">
        <ele>990.78</ele>
        <time>2021-08-15T11:36:09Z</time>
      </trkpt>
      <trkpt lat="45.2392" lon="2.92764">
        <ele>991.26</ele>
        <time>2021-08-15T11:36:32Z</time>
      </trkpt>
      <trkpt lat="45.2392" lon="2.92765">
        <ele>990.78</ele>
        <time>2021-08-15T11:36:46Z</time>
      </trkpt>
      <trkpt lat="45.2392" lon="2.92766">
        <ele>990.78</ele>
        <time>2021-08-15T11:37:05Z</time>
      </trkpt>
      <trkpt lat="45.2392" lon="2.92766">
        <ele>990.78</ele>
        <time>2021-08-15T11:37:14Z</time>
      </trkpt>
      <trkpt lat="45.23921" lon="2.92767">
        <ele>991.26</ele>
        <time>2021-08-15T11:37:39Z</time>
      </trkpt>
      <trkpt lat="45.23921" lon="2.92769">
        <ele>990.78</ele>
        <time>2021-08-15T11:38:00Z</time>
      </trkpt>
      <trkpt lat="45.23921" lon="2.92768">
        <ele>990.78</ele>
        <time>2021-08-15T11:38:30Z</time>
      </trkpt>
      <trkpt lat="45.23921" lon="2.92767">
        <ele>990.78</ele>
        <time>2021-08-15T11:38:53Z</time>
      </trkpt>
      <trkpt lat="45.23921" lon="2.92768">
        <ele>990.3</ele>
        <time>2021-08-15T11:39:21Z</time>
      </trkpt>
      <trkpt lat="45.23921" lon="2.92768">
        <ele>990.78</ele>
        <time>2021-08-15T11:39:45Z</time>
      </trkpt>
      <trkpt lat="45.23921" lon="2.92767">
        <ele>990.78</ele>
        <time>2021-08-15T11:40:11Z</time>
      </trkpt>
      <trkpt lat="45.23919" lon="2.92766">
        <ele>990.3</ele>
        <time>2021-08-15T11:40:37Z</time>
      </trkpt>
      <trkpt lat="45.23919" lon="2.92766">
        <ele>990.3</ele>
        <time>2021-08-15T11:40:58Z</time>
      </trkpt>
      <trkpt lat="45.23918" lon="2.92765">
        <ele>990.3</ele>
        <time>2021-08-15T11:41:16Z</time>
      </trkpt>
      <trkpt lat="45.23918" lon="2.92766">
        <ele>990.3</ele>
        <time>2021-08-15T11:41:36Z</time>
      </trkpt>
      <trkpt lat="45.2392" lon="2.92767">
        <ele>989.81</ele>
        <time>2021-08-15T11:41:56Z</time>
      </trkpt>
      <trkpt lat="45.23921" lon="2.92766">
        <ele>989.81</ele>
        <time>2021-08-15T11:42:18Z</time>
      </trkpt>
      <trkpt lat="45.23923" lon="2.92766">
        <ele>989.81</ele>
        <time>2021-08-15T11:42:41Z</time>
      </trkpt>
      <trkpt lat="45.23923" lon="2.92768">
        <ele>989.81</ele>
        <time>2021-08-15T11:43:08Z</time>
      </trkpt>
      <trkpt lat="45.23923" lon="2.92766">
        <ele>989.33</ele>
        <time>2021-08-15T11:43:29Z</time>
      </trkpt>
      <trkpt lat="45.23922" lon="2.92765">
        <ele>989.33</ele>
        <time>2021-08-15T11:43:47Z</time>
      </trkpt>
      <trkpt lat="45.23922" lon="2.92766">
        <ele>989.33</ele>
        <time>2021-08-15T11:44:10Z</time>
      </trkpt>
      <trkpt lat="45.23922" lon="2.92767">
        <ele>989.81</ele>
        <time>2021-08-15T11:44:31Z</time>
      </trkpt>
      <trkpt lat="45.23922" lon="2.92765">
        <ele>989.33</ele>
        <time>2021-08-15T11:44:55Z</time>
      </trkpt>
      <trkpt lat="45.23921" lon="2.92763">
        <ele>989.33</ele>
        <time>2021-08-15T11:45:13Z</time>
      </trkpt>
      <trkpt lat="45.23921" lon="2.92763">
        <ele>989.33</ele>
        <time>2021-08-15T11:45:35Z</time>
      </trkpt>
      <trkpt lat="45.2392" lon="2.92765">
        <ele>988.85</ele>
        <time>2021-08-15T11:45:59Z</time>
      </trkpt>
      <trkpt lat="45.23919" lon="2.92766">
        <ele>988.85</ele>
        <time>2021-08-15T11:46:21Z</time>
      </trkpt>
      <trkpt lat="45.23919" lon="2.92765">
        <ele>988.85</ele>
        <time>2021-08-15T11:46:50Z</time>
      </trkpt>
      <trkpt lat="45.2392" lon="2.92766">
        <ele>988.37</ele>
        <time>2021-08-15T11:47:13Z</time>
      </trkpt>
      <trkpt lat="45.23922" lon="2.92765">
        <ele>988.37</ele>
        <time>2021-08-15T11:47:40Z</time>
      </trkpt>
      <trkpt lat="45.23922" lon="2.92765">
        <ele>988.37</ele>
        <time>2021-08-15T11:47:59Z</time>
      </trkpt>
      <trkpt lat="45.23921" lon="2.92764">
        <ele>987.89</ele>
        <time>2021-08-15T11:48:24Z</time>
      </trkpt>
      <trkpt lat="45.23921" lon="2.92764">
        <ele>987.89</ele>
        <time>2021-08-15T11:48:41Z</time>
      </trkpt>
      <trkpt lat="45.23921" lon="2.92764">
        <ele>987.89</ele>
        <time>2021-08-15T11:49:04Z</time>
      </trkpt>
      <trkpt lat="45.23921" lon="2.92763">
        <ele>987.89</ele>
        <time>2021-08-15T11:49:25Z</time>
      </trkpt>
      <trkpt lat="45.23919" lon="2.92762">
        <ele>987.89</ele>
        <time>2021-08-15T11:49:48Z</time>
      </trkpt>
      <trkpt lat="45.23919" lon="2.92764">
        <ele>987.41</ele>
        <time>2021-08-15T11:50:10Z</time>
      </trkpt>
      <trkpt lat="45.23919" lon="2.92765">
        <ele>987.41</ele>
        <time>2021-08-15T11:50:31Z</time>
      </trkpt>
      <trkpt lat="45.2392" lon="2.92766">
        <ele>987.41</ele>
        <time>2021-08-15T11:50:57Z</time>
      </trkpt>
      <trkpt lat="45.2392" lon="2.92767">
        <ele>986.93</ele>
        <time>2021-08-15T11:51:15Z</time>
      </trkpt>
      <trkpt lat="45.23922" lon="2.92766">
        <ele>986.93</ele>
        <time>2021-08-15T11:51:35Z</time>
      </trkpt>
      <trkpt lat="45.2392" lon="2.92766">
        <ele>986.93</ele>
        <time>2021-08-15T11:51:54Z</time>
      </trkpt>
      <trkpt lat="45.23919" lon="2.92765">
        <ele>986.93</ele>
        <time>2021-08-15T11:52:10Z</time>
      </trkpt>
      <trkpt lat="45.23918" lon="2.92764">
        <ele>986.93</ele>
        <time>2021-08-15T11:52:31Z</time>
      </trkpt>
      <trkpt lat="45.23918" lon="2.92765">
        <ele>986.45</ele>
        <time>2021-08-15T11:52:49Z</time>
      </trkpt>
      <trkpt lat="45.23919" lon="2.92766">
        <ele>986.45</ele>
        <time>2021-08-15T11:53:12Z</time>
      </trkpt>
      <trkpt lat="45.23919" lon="2.92766">
        <ele>986.45</ele>
        <time>2021-08-15T11:53:38Z</time>
      </trkpt>
      <trkpt lat="45.23919" lon="2.92766">
        <ele>986.45</ele>
        <time>2021-08-15T11:53:59Z</time>
      </trkpt>
      <trkpt lat="45.23918" lon="2.92764">
        <ele>985.97</ele>
        <time>2021-08-15T11:54:20Z</time>
      </trkpt>
      <trkpt lat="45.23918" lon="2.92762">
        <ele>985.97</ele>
        <time>2021-08-15T11:54:43Z</time>
      </trkpt>
      <trkpt lat="45.23918" lon="2.92763">
        <ele>985.97</ele>
        <time>2021-08-15T11:55:07Z</time>
      </trkpt>
      <trkpt lat="45.23917" lon="2.92763">
        <ele>985.97</ele>
        <time>2021-08-15T11:55:27Z</time>
      </trkpt>
      <trkpt lat="45.23919" lon="2.92764">
        <ele>985.49</ele>
        <time>2021-08-15T11:55:54Z</time>
      </trkpt>
      <trkpt lat="45.23921" lon="2.92764">
        <ele>985.49</ele>
        <time>2021-08-15T11:56:14Z</time>
      </trkpt>
      <trkpt lat="45.23922" lon="2.92766">
        <ele>985.49</ele>
        <time>2021-08-15T11:56:33Z</time>
      </trkpt>
      <trkpt lat="45.2392" lon="2.92766">
        <ele>984.53</ele>
        <time>2021-08-15T11:56:52Z</time>
      </trkpt>
      <trkpt lat="45.23919" lon="2.92765">
        <ele>984.53</ele>
        <time>2021-08-15T11:57:14Z</time>
      </trkpt>
      <trkpt lat="45.2392" lon="2.92765">
        <ele>984.05</ele>
        <time>2021-08-15T11:57:40Z</time>
      </trkpt>
      <trkpt lat="45.23918" lon="2.92764">
        <ele>984.05</ele>
        <time>2021-08-15T11:58:04Z</time>
      </trkpt>
      <trkpt lat="45.2392" lon="2.92766">
        <ele>984.05</ele>
        <time>2021-08-15T11:58:25Z</time>
      </trkpt>
      <trkpt lat="45.2392" lon="2.92768">
        <ele>984.05</ele>
        <time>2021-08-15T11:58:45Z</time>
      </trkpt>
      <trkpt lat="45.23919" lon="2.92766">
        <ele>984.05</ele>
        <time>2021-08-15T11:59:09Z</time>
      </trkpt>
      <trkpt lat="45.2392" lon="2.92763">
        <ele>984.05</ele>
        <time>2021-08-15T11:59:28Z</time>
      </trkpt>
      <trkpt lat="45.23919" lon="2.92765">
        <ele>984.05</ele>
        <time>2021-08-15T11:59:48Z</time>
      </trkpt>
      <trkpt lat="45.2392" lon="2.92767">
        <ele>984.05</ele>
        <time>2021-08-15T12:00:08Z</time>
      </trkpt>
      <trkpt lat="45.2392" lon="2.92766">
        <ele>984.05</ele>
        <time>2021-08-15T12:00:28Z</time>
      </trkpt>
      <trkpt lat="45.23919" lon="2.92764">
        <ele>984.05</ele>
        <time>2021-08-15T12:00:50Z</time>
      </trkpt>
      <trkpt lat="45.23918" lon="2.92764">
        <ele>984.05</ele>
        <time>2021-08-15T12:01:08Z</time>
      </trkpt>
      <trkpt lat="45.2392" lon="2.92764">
        <ele>984.05</ele>
        <time>2021-08-15T12:01:32Z</time>
      </trkpt>
      <trkpt lat="45.2392" lon="2.92765">
        <ele>983.57</ele>
        <time>2021-08-15T12:01:53Z</time>
      </trkpt>
      <trkpt lat="45.2392" lon="2.92765">
        <ele>983.57</ele>
        <time>2021-08-15T12:02:12Z</time>
      </trkpt>
      <trkpt lat="45.23919" lon="2.92764">
        <ele>983.57</ele>
        <time>2021-08-15T12:02:28Z</time>
      </trkpt>
      <trkpt lat="45.23919" lon="2.92764">
        <ele>983.57</ele>
        <time>2021-08-15T12:02:45Z</time>
      </trkpt>
      <trkpt lat="45.23919" lon="2.92762">
        <ele>983.57</ele>
        <time>2021-08-15T12:03:06Z</time>
      </trkpt>
      <trkpt lat="45.23919" lon="2.92763">
        <ele>983.57</ele>
        <time>2021-08-15T12:03:23Z</time>
      </trkpt>
      <trkpt lat="45.23919" lon="2.92762">
        <ele>983.57</ele>
        <time>2021-08-15T12:03:49Z</time>
      </trkpt>
      <trkpt lat="45.23919" lon="2.92762">
        <ele>983.09</ele>
        <time>2021-08-15T12:04:09Z</time>
      </trkpt>
      <trkpt lat="45.23919" lon="2.92762">
        <ele>983.09</ele>
        <time>2021-08-15T12:04:33Z</time>
      </trkpt>
      <trkpt lat="45.2392" lon="2.92764">
        <ele>983.09</ele>
        <time>2021-08-15T12:04:51Z</time>
      </trkpt>
      <trkpt lat="45.2392" lon="2.92765">
        <ele>983.09</ele>
        <time>2021-08-15T12:05:12Z</time>
      </trkpt>
      <trkpt lat="45.23919" lon="2.92763">
        <ele>983.09</ele>
        <time>2021-08-15T12:05:33Z</time>
      </trkpt>
      <trkpt lat="45.23919" lon="2.92764">
        <ele>983.09</ele>
        <time>2021-08-15T12:05:49Z</time>
      </trkpt>
      <trkpt lat="45.2392" lon="2.92764">
        <ele>983.09</ele>
        <time>2021-08-15T12:06:16Z</time>
      </trkpt>
      <trkpt lat="45.2392" lon="2.92766">
        <ele>983.09</ele>
        <time>2021-08-15T12:06:36Z</time>
      </trkpt>
      <trkpt lat="45.23921" lon="2.92766">
        <ele>982.6</ele>
        <time>2021-08-15T12:06:51Z</time>
      </trkpt>
      <trkpt lat="45.23921" lon="2.92766">
        <ele>984.05</ele>
        <time>2021-08-15T12:07:11Z</time>
      </trkpt>
      <trkpt lat="45.2392" lon="2.92763">
        <ele>984.05</ele>
        <time>2021-08-15T12:07:32Z</time>
      </trkpt>
      <trkpt lat="45.2392" lon="2.92762">
        <ele>984.05</ele>
        <time>2021-08-15T12:07:49Z</time>
      </trkpt>
      <trkpt lat="45.2392" lon="2.92762">
        <ele>983.57</ele>
        <time>2021-08-15T12:08:12Z</time>
      </trkpt>
      <trkpt lat="45.23921" lon="2.92763">
        <ele>983.57</ele>
        <time>2021-08-15T12:08:29Z</time>
      </trkpt>
      <trkpt lat="45.23919" lon="2.92762">
        <ele>983.57</ele>
        <time>2021-08-15T12:08:54Z</time>
      </trkpt>
      <trkpt lat="45.23919" lon="2.92762">
        <ele>983.57</ele>
        <time>2021-08-15T12:09:23Z</time>
      </trkpt>
      <trkpt lat="45.23919" lon="2.92762">
        <ele>983.57</ele>
        <time>2021-08-15T12:09:44Z</time>
      </trkpt>
      <trkpt lat="45.2392" lon="2.92762">
        <ele>983.57</ele>
        <time>2021-08-15T12:10:05Z</time>
      </trkpt>
      <trkpt lat="45.2392" lon="2.92763">
        <ele>983.57</ele>
        <time>2021-08-15T12:10:29Z</time>
      </trkpt>
      <trkpt lat="45.23922" lon="2.92762">
        <ele>983.09</ele>
        <time>2021-08-15T12:10:58Z</time>
      </trkpt>
      <trkpt lat="45.2392" lon="2.92763">
        <ele>983.09</ele>
        <time>2021-08-15T12:11:22Z</time>
      </trkpt>
      <trkpt lat="45.23919" lon="2.92764">
        <ele>983.09</ele>
        <time>2021-08-15T12:11:49Z</time>
      </trkpt>
      <trkpt lat="45.2392" lon="2.92766">
        <ele>983.09</ele>
        <time>2021-08-15T12:12:14Z</time>
      </trkpt>
      <trkpt lat="45.23921" lon="2.92765">
        <ele>983.09</ele>
        <time>2021-08-15T12:12:35Z</time>
      </trkpt>
      <trkpt lat="45.23922" lon="2.92765">
        <ele>983.09</ele>
        <time>2021-08-15T12:12:55Z</time>
      </trkpt>
      <trkpt lat="45.23922" lon="2.92768">
        <ele>983.09</ele>
        <time>2021-08-15T12:13:23Z</time>
      </trkpt>
      <trkpt lat="45.23922" lon="2.92767">
        <ele>983.09</ele>
        <time>2021-08-15T12:13:48Z</time>
      </trkpt>
      <trkpt lat="45.23922" lon="2.92766">
        <ele>983.09</ele>
        <time>2021-08-15T12:14:14Z</time>
      </trkpt>
      <trkpt lat="45.23922" lon="2.92766">
        <ele>983.09</ele>
        <time>2021-08-15T12:14:37Z</time>
      </trkpt>
      <trkpt lat="45.23921" lon="2.92764">
        <ele>983.09</ele>
        <time>2021-08-15T12:15:09Z</time>
      </trkpt>
      <trkpt lat="45.23921" lon="2.92765">
        <ele>983.09</ele>
        <time>2021-08-15T12:15:36Z</time>
      </trkpt>
      <trkpt lat="45.23923" lon="2.92763">
        <ele>983.09</ele>
        <time>2021-08-15T12:16:01Z</time>
      </trkpt>
      <trkpt lat="45.23924" lon="2.92762">
        <ele>983.09</ele>
        <time>2021-08-15T12:16:28Z</time>
      </trkpt>
      <trkpt lat="45.23922" lon="2.92762">
        <ele>983.09</ele>
        <time>2021-08-15T12:16:51Z</time>
      </trkpt>
      <trkpt lat="45.23921" lon="2.92762">
        <ele>982.6</ele>
        <time>2021-08-15T12:17:13Z</time>
      </trkpt>
      <trkpt lat="45.23921" lon="2.92763">
        <ele>982.6</ele>
        <time>2021-08-15T12:17:35Z</time>
      </trkpt>
      <trkpt lat="45.23922" lon="2.92765">
        <ele>982.6</ele>
        <time>2021-08-15T12:18:01Z</time>
      </trkpt>
      <trkpt lat="45.23923" lon="2.92764">
        <ele>982.6</ele>
        <time>2021-08-15T12:18:25Z</time>
      </trkpt>
      <trkpt lat="45.23923" lon="2.92762">
        <ele>982.6</ele>
        <time>2021-08-15T12:18:44Z</time>
      </trkpt>
      <trkpt lat="45.23922" lon="2.92762">
        <ele>982.6</ele>
        <time>2021-08-15T12:19:04Z</time>
      </trkpt>
      <trkpt lat="45.23921" lon="2.92764">
        <ele>982.6</ele>
        <time>2021-08-15T12:19:23Z</time>
      </trkpt>
      <trkpt lat="45.23921" lon="2.92763">
        <ele>982.6</ele>
        <time>2021-08-15T12:19:44Z</time>
      </trkpt>
      <trkpt lat="45.23921" lon="2.92764">
        <ele>982.6</ele>
        <time>2021-08-15T12:20:05Z</time>
      </trkpt>
      <trkpt lat="45.23922" lon="2.92765">
        <ele>982.6</ele>
        <time>2021-08-15T12:20:27Z</time>
      </trkpt>
      <trkpt lat="45.23922" lon="2.92765">
        <ele>982.6</ele>
        <time>2021-08-15T12:20:44Z</time>
      </trkpt>
      <trkpt lat="45.23922" lon="2.92764">
        <ele>982.6</ele>
        <time>2021-08-15T12:21:01Z</time>
      </trkpt>
      <trkpt lat="45.23922" lon="2.92764">
        <ele>982.6</ele>
        <time>2021-08-15T12:21:18Z</time>
      </trkpt>
      <trkpt lat="45.23923" lon="2.92764">
        <ele>983.09</ele>
        <time>2021-08-15T12:21:31Z</time>
      </trkpt>
      <trkpt lat="45.23922" lon="2.92764">
        <ele>983.09</ele>
        <time>2021-08-15T12:21:41Z</time>
      </trkpt>
      <trkpt lat="45.23921" lon="2.92766">
        <ele>983.09</ele>
        <time>2021-08-15T12:21:46Z</time>
      </trkpt>
      <trkpt lat="45.23916" lon="2.92772">
        <ele>983.09</ele>
        <time>2021-08-15T12:21:51Z</time>
      </trkpt>
      <trkpt lat="45.23914" lon="2.92777">
        <ele>983.09</ele>
        <time>2021-08-15T12:21:57Z</time>
      </trkpt>
      <trkpt lat="45.23913" lon="2.92782">
        <ele>983.09</ele>
        <time>2021-08-15T12:21:59Z</time>
      </trkpt>
      <trkpt lat="45.23911" lon="2.92785">
        <ele>983.09</ele>
        <time>2021-08-15T12:22:00Z</time>
      </trkpt>
      <trkpt lat="45.23909" lon="2.92786">
        <ele>983.09</ele>
        <time>2021-08-15T12:22:01Z</time>
      </trkpt>
      <trkpt lat="45.23906" lon="2.92786">
        <ele>983.09</ele>
        <time>2021-08-15T12:22:02Z</time>
      </trkpt>
      <trkpt lat="45.23904" lon="2.92786">
        <ele>983.09</ele>
        <time>2021-08-15T12:22:03Z</time>
      </trkpt>
      <trkpt lat="45.239" lon="2.92787">
        <ele>983.09</ele>
        <time>2021-08-15T12:22:08Z</time>
      </trkpt>
      <trkpt lat="45.23899" lon="2.92789">
        <ele>983.09</ele>
        <time>2021-08-15T12:22:10Z</time>
      </trkpt>
      <trkpt lat="45.23898" lon="2.9279">
        <ele>983.09</ele>
        <time>2021-08-15T12:22:11Z</time>
      </trkpt>
      <trkpt lat="45.23897" lon="2.92792">
        <ele>983.09</ele>
        <time>2021-08-15T12:22:12Z</time>
      </trkpt>
      <trkpt lat="45.23896" lon="2.92794">
        <ele>983.09</ele>
        <time>2021-08-15T12:22:13Z</time>
      </trkpt>
      <trkpt lat="45.23894" lon="2.92796">
        <ele>983.09</ele>
        <time>2021-08-15T12:22:14Z</time>
      </trkpt>
      <trkpt lat="45.23891" lon="2.92799">
        <ele>983.09</ele>
        <time>2021-08-15T12:22:15Z</time>
      </trkpt>
      <trkpt lat="45.23888" lon="2.92801">
        <ele>983.09</ele>
        <time>2021-08-15T12:22:16Z</time>
      </trkpt>
      <trkpt lat="45.23885" lon="2.92804">
        <ele>983.09</ele>
        <time>2021-08-15T12:22:17Z</time>
      </trkpt>
      <trkpt lat="45.23881" lon="2.92806">
        <ele>983.09</ele>
        <time>2021-08-15T12:22:18Z</time>
      </trkpt>
      <trkpt lat="45.2386" lon="2.92819">
        <ele>983.09</ele>
        <time>2021-08-15T12:22:23Z</time>
      </trkpt>
      <trkpt lat="45.23852" lon="2.92826">
        <ele>983.09</ele>
        <time>2021-08-15T12:22:25Z</time>
      </trkpt>
      <trkpt lat="45.2382" lon="2.92849">
        <ele>981.64</ele>
        <time>2021-08-15T12:22:32Z</time>
      </trkpt>
      <trkpt lat="45.23778" lon="2.9288">
        <ele>980.68</ele>
        <time>2021-08-15T12:22:41Z</time>
      </trkpt>
      <trkpt lat="45.23773" lon="2.92883">
        <ele>980.68</ele>
        <time>2021-08-15T12:22:42Z</time>
      </trkpt>
      <trkpt lat="45.23751" lon="2.92894">
        <ele>979.72</ele>
        <time>2021-08-15T12:22:46Z</time>
      </trkpt>
      <trkpt lat="45.23733" lon="2.92897">
        <ele>979.72</ele>
        <time>2021-08-15T12:22:49Z</time>
      </trkpt>
      <trkpt lat="45.23727" lon="2.929">
        <ele>979.72</ele>
        <time>2021-08-15T12:22:50Z</time>
      </trkpt>
      <trkpt lat="45.23721" lon="2.92904">
        <ele>979.72</ele>
        <time>2021-08-15T12:22:51Z</time>
      </trkpt>
      <trkpt lat="45.23717" lon="2.9291">
        <ele>979.24</ele>
        <time>2021-08-15T12:22:52Z</time>
      </trkpt>
      <trkpt lat="45.23713" lon="2.92916">
        <ele>979.24</ele>
        <time>2021-08-15T12:22:53Z</time>
      </trkpt>
      <trkpt lat="45.2371" lon="2.92924">
        <ele>979.24</ele>
        <time>2021-08-15T12:22:54Z</time>
      </trkpt>
      <trkpt lat="45.23707" lon="2.92931">
        <ele>979.24</ele>
        <time>2021-08-15T12:22:55Z</time>
      </trkpt>
      <trkpt lat="45.23703" lon="2.92938">
        <ele>979.24</ele>
        <time>2021-08-15T12:22:56Z</time>
      </trkpt>
      <trkpt lat="45.23699" lon="2.92944">
        <ele>979.24</ele>
        <time>2021-08-15T12:22:57Z</time>
      </trkpt>
      <trkpt lat="45.23693" lon="2.92948">
        <ele>978.76</ele>
        <time>2021-08-15T12:22:58Z</time>
      </trkpt>
      <trkpt lat="45.23687" lon="2.92949">
        <ele>978.76</ele>
        <time>2021-08-15T12:22:59Z</time>
      </trkpt>
      <trkpt lat="45.23681" lon="2.9295">
        <ele>978.76</ele>
        <time>2021-08-15T12:23:00Z</time>
      </trkpt>
      <trkpt lat="45.23676" lon="2.92952">
        <ele>978.76</ele>
        <time>2021-08-15T12:23:01Z</time>
      </trkpt>
      <trkpt lat="45.2367" lon="2.92955">
        <ele>978.76</ele>
        <time>2021-08-15T12:23:02Z</time>
      </trkpt>
      <trkpt lat="45.23665" lon="2.92959">
        <ele>978.76</ele>
        <time>2021-08-15T12:23:03Z</time>
      </trkpt>
      <trkpt lat="45.23661" lon="2.92964">
        <ele>978.76</ele>
        <time>2021-08-15T12:23:04Z</time>
      </trkpt>
      <trkpt lat="45.23652" lon="2.92972">
        <ele>978.76</ele>
        <time>2021-08-15T12:23:06Z</time>
      </trkpt>
      <trkpt lat="45.23647" lon="2.92975">
        <ele>978.76</ele>
        <time>2021-08-15T12:23:07Z</time>
      </trkpt>
      <trkpt lat="45.23629" lon="2.92981">
        <ele>978.76</ele>
        <time>2021-08-15T12:23:11Z</time>
      </trkpt>
      <trkpt lat="45.23615" lon="2.92984">
        <ele>978.76</ele>
        <time>2021-08-15T12:23:14Z</time>
      </trkpt>
      <trkpt lat="45.23611" lon="2.92985">
        <ele>978.76</ele>
        <time>2021-08-15T12:23:15Z</time>
      </trkpt>
      <trkpt lat="45.23607" lon="2.92986">
        <ele>978.76</ele>
        <time>2021-08-15T12:23:16Z</time>
      </trkpt>
      <trkpt lat="45.23573" lon="2.93002">
        <ele>978.76</ele>
        <time>2021-08-15T12:23:23Z</time>
      </trkpt>
      <trkpt lat="45.23559" lon="2.93016">
        <ele>978.76</ele>
        <time>2021-08-15T12:23:26Z</time>
      </trkpt>
      <trkpt lat="45.23555" lon="2.9302">
        <ele>978.76</ele>
        <time>2021-08-15T12:23:27Z</time>
      </trkpt>
      <trkpt lat="45.2355" lon="2.93025">
        <ele>978.76</ele>
        <time>2021-08-15T12:23:28Z</time>
      </trkpt>
      <trkpt lat="45.23545" lon="2.93028">
        <ele>978.76</ele>
        <time>2021-08-15T12:23:29Z</time>
      </trkpt>
      <trkpt lat="45.23539" lon="2.93032">
        <ele>978.76</ele>
        <time>2021-08-15T12:23:30Z</time>
      </trkpt>
      <trkpt lat="45.23533" lon="2.93035">
        <ele>978.76</ele>
        <time>2021-08-15T12:23:31Z</time>
      </trkpt>
      <trkpt lat="45.23528" lon="2.93037">
        <ele>978.76</ele>
        <time>2021-08-15T12:23:32Z</time>
      </trkpt>
      <trkpt lat="45.23471" lon="2.93059">
        <ele>978.28</ele>
        <time>2021-08-15T12:23:41Z</time>
      </trkpt>
      <trkpt lat="45.23435" lon="2.93084">
        <ele>977.32</ele>
        <time>2021-08-15T12:23:47Z</time>
      </trkpt>
      <trkpt lat="45.23394" lon="2.9313">
        <ele>977.32</ele>
        <time>2021-08-15T12:23:55Z</time>
      </trkpt>
      <trkpt lat="45.23379" lon="2.93146">
        <ele>976.84</ele>
        <time>2021-08-15T12:23:58Z</time>
      </trkpt>
      <trkpt lat="45.23373" lon="2.9315">
        <ele>976.84</ele>
        <time>2021-08-15T12:23:59Z</time>
      </trkpt>
      <trkpt lat="45.23367" lon="2.93153">
        <ele>976.36</ele>
        <time>2021-08-15T12:24:00Z</time>
      </trkpt>
      <trkpt lat="45.23361" lon="2.93155">
        <ele>976.36</ele>
        <time>2021-08-15T12:24:01Z</time>
      </trkpt>
      <trkpt lat="45.23354" lon="2.93155">
        <ele>976.36</ele>
        <time>2021-08-15T12:24:02Z</time>
      </trkpt>
      <trkpt lat="45.23348" lon="2.93156">
        <ele>976.36</ele>
        <time>2021-08-15T12:24:03Z</time>
      </trkpt>
      <trkpt lat="45.23298" lon="2.93156">
        <ele>975.88</ele>
        <time>2021-08-15T12:24:11Z</time>
      </trkpt>
      <trkpt lat="45.23253" lon="2.93151">
        <ele>974.91</ele>
        <time>2021-08-15T12:24:18Z</time>
      </trkpt>
      <trkpt lat="45.23247" lon="2.93151">
        <ele>974.91</ele>
        <time>2021-08-15T12:24:19Z</time>
      </trkpt>
      <trkpt lat="45.2324" lon="2.93154">
        <ele>974.91</ele>
        <time>2021-08-15T12:24:20Z</time>
      </trkpt>
      <trkpt lat="45.23234" lon="2.93157">
        <ele>974.91</ele>
        <time>2021-08-15T12:24:21Z</time>
      </trkpt>
      <trkpt lat="45.23228" lon="2.93161">
        <ele>974.91</ele>
        <time>2021-08-15T12:24:22Z</time>
      </trkpt>
      <trkpt lat="45.23194" lon="2.93181">
        <ele>974.91</ele>
        <time>2021-08-15T12:24:28Z</time>
      </trkpt>
      <trkpt lat="45.23162" lon="2.93183">
        <ele>974.91</ele>
        <time>2021-08-15T12:24:34Z</time>
      </trkpt>
      <trkpt lat="45.23151" lon="2.93179">
        <ele>974.91</ele>
        <time>2021-08-15T12:24:36Z</time>
      </trkpt>
      <trkpt lat="45.23106" lon="2.93156">
        <ele>975.88</ele>
        <time>2021-08-15T12:24:45Z</time>
      </trkpt>
      <trkpt lat="45.23101" lon="2.93156">
        <ele>976.36</ele>
        <time>2021-08-15T12:24:46Z</time>
      </trkpt>
      <trkpt lat="45.23096" lon="2.93156">
        <ele>976.36</ele>
        <time>2021-08-15T12:24:47Z</time>
      </trkpt>
      <trkpt lat="45.23091" lon="2.93157">
        <ele>976.36</ele>
        <time>2021-08-15T12:24:48Z</time>
      </trkpt>
      <trkpt lat="45.23086" lon="2.93158">
        <ele>977.32</ele>
        <time>2021-08-15T12:24:49Z</time>
      </trkpt>
      <trkpt lat="45.23068" lon="2.93161">
        <ele>978.28</ele>
        <time>2021-08-15T12:24:55Z</time>
      </trkpt>
      <trkpt lat="45.23044" lon="2.93168">
        <ele>981.16</ele>
        <time>2021-08-15T12:25:05Z</time>
      </trkpt>
      <trkpt lat="45.23024" lon="2.93173">
        <ele>981.64</ele>
        <time>2021-08-15T12:25:12Z</time>
      </trkpt>
      <trkpt lat="45.2299" lon="2.93184">
        <ele>981.64</ele>
        <time>2021-08-15T12:25:21Z</time>
      </trkpt>
      <trkpt lat="45.22964" lon="2.93195">
        <ele>981.64</ele>
        <time>2021-08-15T12:25:28Z</time>
      </trkpt>
      <trkpt lat="45.22951" lon="2.93204">
        <ele>983.09</ele>
        <time>2021-08-15T12:25:34Z</time>
      </trkpt>
      <trkpt lat="45.22949" lon="2.93206">
        <ele>983.57</ele>
        <time>2021-08-15T12:25:36Z</time>
      </trkpt>
      <trkpt lat="45.22947" lon="2.93205">
        <ele>983.57</ele>
        <time>2021-08-15T12:25:37Z</time>
      </trkpt>
      <trkpt lat="45.22946" lon="2.93204">
        <ele>983.57</ele>
        <time>2021-08-15T12:25:38Z</time>
      </trkpt>
      <trkpt lat="45.22945" lon="2.93189">
        <ele>984.53</ele>
        <time>2021-08-15T12:25:43Z</time>
      </trkpt>
      <trkpt lat="45.22947" lon="2.93183">
        <ele>985.01</ele>
        <time>2021-08-15T12:25:45Z</time>
      </trkpt>
      <trkpt lat="45.22947" lon="2.93179">
        <ele>985.01</ele>
        <time>2021-08-15T12:25:46Z</time>
      </trkpt>
      <trkpt lat="45.22947" lon="2.93168">
        <ele>985.49</ele>
        <time>2021-08-15T12:25:51Z</time>
      </trkpt>
      <trkpt lat="45.22948" lon="2.93166">
        <ele>985.97</ele>
        <time>2021-08-15T12:25:52Z</time>
      </trkpt>
      <trkpt lat="45.22951" lon="2.93164">
        <ele>985.49</ele>
        <time>2021-08-15T12:25:53Z</time>
      </trkpt>
      <trkpt lat="45.22953" lon="2.93163">
        <ele>985.49</ele>
        <time>2021-08-15T12:25:54Z</time>
      </trkpt>
      <trkpt lat="45.22956" lon="2.93162">
        <ele>985.49</ele>
        <time>2021-08-15T12:25:55Z</time>
      </trkpt>
      <trkpt lat="45.22976" lon="2.93156">
        <ele>985.49</ele>
        <time>2021-08-15T12:26:01Z</time>
      </trkpt>
      <trkpt lat="45.22986" lon="2.9315">
        <ele>985.49</ele>
        <time>2021-08-15T12:26:05Z</time>
      </trkpt>
      <trkpt lat="45.22986" lon="2.93147">
        <ele>985.49</ele>
        <time>2021-08-15T12:26:06Z</time>
      </trkpt>
      <trkpt lat="45.22986" lon="2.93145">
        <ele>985.97</ele>
        <time>2021-08-15T12:26:07Z</time>
      </trkpt>
      <trkpt lat="45.22985" lon="2.93142">
        <ele>985.97</ele>
        <time>2021-08-15T12:26:12Z</time>
      </trkpt>
      <trkpt lat="45.22986" lon="2.93142">
        <ele>985.97</ele>
        <time>2021-08-15T12:26:25Z</time>
      </trkpt>
      <trkpt lat="45.22986" lon="2.93144">
        <ele>985.97</ele>
        <time>2021-08-15T12:26:35Z</time>
      </trkpt>
      <trkpt lat="45.22987" lon="2.93144">
        <ele>985.97</ele>
        <time>2021-08-15T12:26:50Z</time>
      </trkpt>
      <trkpt lat="45.22986" lon="2.93144">
        <ele>985.97</ele>
        <time>2021-08-15T12:27:04Z</time>
      </trkpt>
      <trkpt lat="45.22985" lon="2.93146">
        <ele>985.97</ele>
        <time>2021-08-15T12:27:11Z</time>
      </trkpt>
      <trkpt lat="45.22986" lon="2.93148">
        <ele>985.97</ele>
        <time>2021-08-15T12:27:14Z</time>
      </trkpt>
      <trkpt lat="45.22987" lon="2.9315">
        <ele>985.97</ele>
        <time>2021-08-15T12:27:15Z</time>
      </trkpt>
      <trkpt lat="45.22986" lon="2.93152">
        <ele>985.97</ele>
        <time>2021-08-15T12:27:16Z</time>
      </trkpt>
      <trkpt lat="45.22985" lon="2.93154">
        <ele>986.45</ele>
        <time>2021-08-15T12:27:17Z</time>
      </trkpt>
      <trkpt lat="45.22983" lon="2.93155">
        <ele>986.45</ele>
        <time>2021-08-15T12:27:18Z</time>
      </trkpt>
      <trkpt lat="45.2298" lon="2.93156">
        <ele>986.45</ele>
        <time>2021-08-15T12:27:19Z</time>
      </trkpt>
      <trkpt lat="45.22977" lon="2.93157">
        <ele>985.97</ele>
        <time>2021-08-15T12:27:20Z</time>
      </trkpt>
      <trkpt lat="45.22973" lon="2.93158">
        <ele>986.45</ele>
        <time>2021-08-15T12:27:21Z</time>
      </trkpt>
      <trkpt lat="45.22961" lon="2.93163">
        <ele>986.45</ele>
        <time>2021-08-15T12:27:24Z</time>
      </trkpt>
      <trkpt lat="45.22945" lon="2.93167">
        <ele>986.45</ele>
        <time>2021-08-15T12:27:28Z</time>
      </trkpt>
      <trkpt lat="45.22941" lon="2.93169">
        <ele>986.45</ele>
        <time>2021-08-15T12:27:29Z</time>
      </trkpt>
      <trkpt lat="45.22937" lon="2.93171">
        <ele>986.45</ele>
        <time>2021-08-15T12:27:30Z</time>
      </trkpt>
      <trkpt lat="45.22903" lon="2.93192">
        <ele>986.45</ele>
        <time>2021-08-15T12:27:39Z</time>
      </trkpt>
      <trkpt lat="45.22886" lon="2.93206">
        <ele>986.45</ele>
        <time>2021-08-15T12:27:44Z</time>
      </trkpt>
      <trkpt lat="45.22882" lon="2.93207">
        <ele>986.45</ele>
        <time>2021-08-15T12:27:45Z</time>
      </trkpt>
      <trkpt lat="45.22878" lon="2.93208">
        <ele>986.45</ele>
        <time>2021-08-15T12:27:46Z</time>
      </trkpt>
      <trkpt lat="45.22865" lon="2.9321">
        <ele>985.01</ele>
        <time>2021-08-15T12:27:49Z</time>
      </trkpt>
      <trkpt lat="45.22861" lon="2.93211">
        <ele>984.05</ele>
        <time>2021-08-15T12:27:50Z</time>
      </trkpt>
      <trkpt lat="45.22856" lon="2.93213">
        <ele>984.05</ele>
        <time>2021-08-15T12:27:51Z</time>
      </trkpt>
      <trkpt lat="45.22852" lon="2.93216">
        <ele>984.05</ele>
        <time>2021-08-15T12:27:52Z</time>
      </trkpt>
      <trkpt lat="45.22847" lon="2.93219">
        <ele>983.57</ele>
        <time>2021-08-15T12:27:53Z</time>
      </trkpt>
      <trkpt lat="45.22842" lon="2.93223">
        <ele>983.57</ele>
        <time>2021-08-15T12:27:54Z</time>
      </trkpt>
      <trkpt lat="45.22838" lon="2.93227">
        <ele>982.6</ele>
        <time>2021-08-15T12:27:55Z</time>
      </trkpt>
      <trkpt lat="45.22834" lon="2.93233">
        <ele>982.12</ele>
        <time>2021-08-15T12:27:56Z</time>
      </trkpt>
      <trkpt lat="45.22831" lon="2.93238">
        <ele>981.64</ele>
        <time>2021-08-15T12:27:57Z</time>
      </trkpt>
      <trkpt lat="45.22828" lon="2.93245">
        <ele>981.64</ele>
        <time>2021-08-15T12:27:58Z</time>
      </trkpt>
      <trkpt lat="45.22825" lon="2.93252">
        <ele>981.16</ele>
        <time>2021-08-15T12:27:59Z</time>
      </trkpt>
      <trkpt lat="45.22822" lon="2.93258">
        <ele>980.2</ele>
        <time>2021-08-15T12:28:00Z</time>
      </trkpt>
      <trkpt lat="45.22814" lon="2.93278">
        <ele>979.24</ele>
        <time>2021-08-15T12:28:03Z</time>
      </trkpt>
      <trkpt lat="45.22811" lon="2.93283">
        <ele>978.76</ele>
        <time>2021-08-15T12:28:04Z</time>
      </trkpt>
      <trkpt lat="45.22807" lon="2.93288">
        <ele>978.76</ele>
        <time>2021-08-15T12:28:05Z</time>
      </trkpt>
      <trkpt lat="45.22781" lon="2.93315">
        <ele>975.88</ele>
        <time>2021-08-15T12:28:11Z</time>
      </trkpt>
      <trkpt lat="45.22754" lon="2.9334">
        <ele>973.47</ele>
        <time>2021-08-15T12:28:17Z</time>
      </trkpt>
      <trkpt lat="45.22748" lon="2.93342">
        <ele>972.51</ele>
        <time>2021-08-15T12:28:18Z</time>
      </trkpt>
      <trkpt lat="45.22742" lon="2.93342">
        <ele>972.51</ele>
        <time>2021-08-15T12:28:19Z</time>
      </trkpt>
      <trkpt lat="45.22736" lon="2.93341">
        <ele>972.51</ele>
        <time>2021-08-15T12:28:20Z</time>
      </trkpt>
      <trkpt lat="45.2273" lon="2.9334">
        <ele>972.51</ele>
        <time>2021-08-15T12:28:21Z</time>
      </trkpt>
      <trkpt lat="45.22715" lon="2.93336">
        <ele>972.51</ele>
        <time>2021-08-15T12:28:24Z</time>
      </trkpt>
      <trkpt lat="45.22711" lon="2.93337">
        <ele>972.51</ele>
        <time>2021-08-15T12:28:25Z</time>
      </trkpt>
      <trkpt lat="45.22686" lon="2.93339">
        <ele>973.47</ele>
        <time>2021-08-15T12:28:32Z</time>
      </trkpt>
      <trkpt lat="45.22683" lon="2.93339">
        <ele>973.47</ele>
        <time>2021-08-15T12:28:33Z</time>
      </trkpt>
      <trkpt lat="45.22656" lon="2.93351">
        <ele>974.91</ele>
        <time>2021-08-15T12:28:42Z</time>
      </trkpt>
      <trkpt lat="45.22649" lon="2.93357">
        <ele>974.91</ele>
        <time>2021-08-15T12:28:48Z</time>
      </trkpt>
      <trkpt lat="45.22649" lon="2.93355">
        <ele>974.91</ele>
        <time>2021-08-15T12:29:04Z</time>
      </trkpt>
      <trkpt lat="45.22648" lon="2.93354">
        <ele>974.91</ele>
        <time>2021-08-15T12:29:17Z</time>
      </trkpt>
      <trkpt lat="45.22648" lon="2.93352">
        <ele>974.91</ele>
        <time>2021-08-15T12:29:18Z</time>
      </trkpt>
      <trkpt lat="45.22649" lon="2.93351">
        <ele>974.91</ele>
        <time>2021-08-15T12:29:19Z</time>
      </trkpt>
      <trkpt lat="45.22653" lon="2.9335">
        <ele>974.91</ele>
        <time>2021-08-15T12:29:21Z</time>
      </trkpt>
      <trkpt lat="45.22656" lon="2.93349">
        <ele>974.91</ele>
        <time>2021-08-15T12:29:22Z</time>
      </trkpt>
      <trkpt lat="45.22659" lon="2.93349">
        <ele>974.91</ele>
        <time>2021-08-15T12:29:23Z</time>
      </trkpt>
      <trkpt lat="45.22663" lon="2.93348">
        <ele>974.91</ele>
        <time>2021-08-15T12:29:24Z</time>
      </trkpt>
      <trkpt lat="45.22667" lon="2.93347">
        <ele>974.91</ele>
        <time>2021-08-15T12:29:25Z</time>
      </trkpt>
      <trkpt lat="45.22671" lon="2.93346">
        <ele>974.91</ele>
        <time>2021-08-15T12:29:26Z</time>
      </trkpt>
      <trkpt lat="45.22675" lon="2.93345">
        <ele>973.47</ele>
        <time>2021-08-15T12:29:27Z</time>
      </trkpt>
      <trkpt lat="45.22681" lon="2.93342">
        <ele>973.47</ele>
        <time>2021-08-15T12:29:28Z</time>
      </trkpt>
      <trkpt lat="45.22686" lon="2.93341">
        <ele>973.47</ele>
        <time>2021-08-15T12:29:29Z</time>
      </trkpt>
      <trkpt lat="45.22702" lon="2.93339">
        <ele>972.99</ele>
        <time>2021-08-15T12:29:32Z</time>
      </trkpt>
      <trkpt lat="45.22741" lon="2.93343">
        <ele>972.03</ele>
        <time>2021-08-15T12:29:38Z</time>
      </trkpt>
      <trkpt lat="45.22747" lon="2.93342">
        <ele>972.03</ele>
        <time>2021-08-15T12:29:39Z</time>
      </trkpt>
      <trkpt lat="45.22753" lon="2.9334">
        <ele>972.03</ele>
        <time>2021-08-15T12:29:40Z</time>
      </trkpt>
      <trkpt lat="45.22757" lon="2.93337">
        <ele>972.03</ele>
        <time>2021-08-15T12:29:41Z</time>
      </trkpt>
      <trkpt lat="45.22762" lon="2.93334">
        <ele>972.99</ele>
        <time>2021-08-15T12:29:42Z</time>
      </trkpt>
      <trkpt lat="45.22766" lon="2.9333">
        <ele>973.47</ele>
        <time>2021-08-15T12:29:43Z</time>
      </trkpt>
      <trkpt lat="45.22769" lon="2.93326">
        <ele>973.95</ele>
        <time>2021-08-15T12:29:44Z</time>
      </trkpt>
      <trkpt lat="45.22785" lon="2.9331">
        <ele>975.88</ele>
        <time>2021-08-15T12:29:51Z</time>
      </trkpt>
      <trkpt lat="45.22804" lon="2.93289">
        <ele>978.28</ele>
        <time>2021-08-15T12:30:02Z</time>
      </trkpt>
      <trkpt lat="45.22817" lon="2.93265">
        <ele>979.72</ele>
        <time>2021-08-15T12:30:12Z</time>
      </trkpt>
      <trkpt lat="45.22827" lon="2.93242">
        <ele>981.16</ele>
        <time>2021-08-15T12:30:22Z</time>
      </trkpt>
      <trkpt lat="45.22839" lon="2.93228">
        <ele>982.6</ele>
        <time>2021-08-15T12:30:30Z</time>
      </trkpt>
      <trkpt lat="45.22854" lon="2.93217">
        <ele>983.57</ele>
        <time>2021-08-15T12:30:38Z</time>
      </trkpt>
      <trkpt lat="45.22879" lon="2.93209">
        <ele>985.01</ele>
        <time>2021-08-15T12:30:48Z</time>
      </trkpt>
      <trkpt lat="45.22903" lon="2.93215">
        <ele>985.49</ele>
        <time>2021-08-15T12:30:56Z</time>
      </trkpt>
      <trkpt lat="45.22937" lon="2.93211">
        <ele>985.49</ele>
        <time>2021-08-15T12:31:05Z</time>
      </trkpt>
      <trkpt lat="45.22942" lon="2.93211">
        <ele>984.05</ele>
        <time>2021-08-15T12:31:06Z</time>
      </trkpt>
      <trkpt lat="45.22946" lon="2.93211">
        <ele>984.05</ele>
        <time>2021-08-15T12:31:07Z</time>
      </trkpt>
      <trkpt lat="45.22952" lon="2.93213">
        <ele>983.57</ele>
        <time>2021-08-15T12:31:08Z</time>
      </trkpt>
      <trkpt lat="45.22956" lon="2.93216">
        <ele>983.57</ele>
        <time>2021-08-15T12:31:09Z</time>
      </trkpt>
      <trkpt lat="45.22961" lon="2.9322">
        <ele>983.09</ele>
        <time>2021-08-15T12:31:10Z</time>
      </trkpt>
      <trkpt lat="45.22964" lon="2.93225">
        <ele>983.09</ele>
        <time>2021-08-15T12:31:11Z</time>
      </trkpt>
      <trkpt lat="45.22968" lon="2.93232">
        <ele>982.6</ele>
        <time>2021-08-15T12:31:12Z</time>
      </trkpt>
      <trkpt lat="45.2297" lon="2.93239">
        <ele>981.64</ele>
        <time>2021-08-15T12:31:13Z</time>
      </trkpt>
      <trkpt lat="45.22972" lon="2.93248">
        <ele>981.16</ele>
        <time>2021-08-15T12:31:14Z</time>
      </trkpt>
      <trkpt lat="45.22983" lon="2.93305">
        <ele>979.24</ele>
        <time>2021-08-15T12:31:20Z</time>
      </trkpt>
      <trkpt lat="45.22989" lon="2.93337">
        <ele>980.68</ele>
        <time>2021-08-15T12:31:24Z</time>
      </trkpt>
      <trkpt lat="45.22994" lon="2.93367">
        <ele>982.12</ele>
        <time>2021-08-15T12:31:30Z</time>
      </trkpt>
      <trkpt lat="45.23002" lon="2.93401">
        <ele>983.09</ele>
        <time>2021-08-15T12:31:40Z</time>
      </trkpt>
      <trkpt lat="45.23007" lon="2.93425">
        <ele>983.57</ele>
        <time>2021-08-15T12:31:48Z</time>
      </trkpt>
      <trkpt lat="45.23004" lon="2.93427">
        <ele>983.57</ele>
        <time>2021-08-15T12:31:51Z</time>
      </trkpt>
      <trkpt lat="45.23003" lon="2.93429">
        <ele>983.57</ele>
        <time>2021-08-15T12:31:52Z</time>
      </trkpt>
      <trkpt lat="45.23001" lon="2.9343">
        <ele>983.57</ele>
        <time>2021-08-15T12:31:53Z</time>
      </trkpt>
      <trkpt lat="45.22993" lon="2.93429">
        <ele>983.57</ele>
        <time>2021-08-15T12:31:59Z</time>
      </trkpt>
      <trkpt lat="45.22989" lon="2.93424">
        <ele>983.57</ele>
        <time>2021-08-15T12:32:07Z</time>
      </trkpt>
      <trkpt lat="45.22986" lon="2.93422">
        <ele>983.57</ele>
        <time>2021-08-15T12:32:15Z</time>
      </trkpt>
      <trkpt lat="45.22983" lon="2.93424">
        <ele>983.57</ele>
        <time>2021-08-15T12:32:29Z</time>
      </trkpt>
      <trkpt lat="45.22983" lon="2.93424">
        <ele>983.57</ele>
        <time>2021-08-15T12:32:47Z</time>
      </trkpt>
      <trkpt lat="45.22982" lon="2.93428">
        <ele>983.57</ele>
        <time>2021-08-15T12:33:06Z</time>
      </trkpt>
      <trkpt lat="45.22981" lon="2.93434">
        <ele>983.57</ele>
        <time>2021-08-15T12:33:17Z</time>
      </trkpt>
      <trkpt lat="45.22978" lon="2.9344">
        <ele>983.57</ele>
        <time>2021-08-15T12:33:20Z</time>
      </trkpt>
      <trkpt lat="45.22977" lon="2.93441">
        <ele>983.57</ele>
        <time>2021-08-15T12:33:21Z</time>
      </trkpt>
      <trkpt lat="45.22956" lon="2.93444">
        <ele>982.12</ele>
        <time>2021-08-15T12:33:27Z</time>
      </trkpt>
      <trkpt lat="45.22924" lon="2.93448">
        <ele>981.16</ele>
        <time>2021-08-15T12:33:34Z</time>
      </trkpt>
      <trkpt lat="45.22919" lon="2.93448">
        <ele>981.16</ele>
        <time>2021-08-15T12:33:35Z</time>
      </trkpt>
      <trkpt lat="45.22897" lon="2.93449">
        <ele>980.68</ele>
        <time>2021-08-15T12:33:42Z</time>
      </trkpt>
      <trkpt lat="45.22894" lon="2.93448">
        <ele>980.68</ele>
        <time>2021-08-15T12:33:44Z</time>
      </trkpt>
      <trkpt lat="45.22893" lon="2.93446">
        <ele>980.68</ele>
        <time>2021-08-15T12:33:48Z</time>
      </trkpt>
      <trkpt lat="45.22893" lon="2.93449">
        <ele>980.68</ele>
        <time>2021-08-15T12:33:59Z</time>
      </trkpt>
      <trkpt lat="45.22893" lon="2.93453">
        <ele>980.68</ele>
        <time>2021-08-15T12:34:12Z</time>
      </trkpt>
      <trkpt lat="45.2289" lon="2.93452">
        <ele>980.68</ele>
        <time>2021-08-15T12:34:28Z</time>
      </trkpt>
      <trkpt lat="45.22891" lon="2.93452">
        <ele>980.68</ele>
        <time>2021-08-15T12:34:40Z</time>
      </trkpt>
      <trkpt lat="45.2289" lon="2.93454">
        <ele>980.68</ele>
        <time>2021-08-15T12:34:58Z</time>
      </trkpt>
      <trkpt lat="45.22889" lon="2.93455">
        <ele>980.68</ele>
        <time>2021-08-15T12:35:12Z</time>
      </trkpt>
      <trkpt lat="45.22888" lon="2.93455">
        <ele>980.68</ele>
        <time>2021-08-15T12:35:26Z</time>
      </trkpt>
      <trkpt lat="45.22891" lon="2.93455">
        <ele>980.68</ele>
        <time>2021-08-15T12:35:40Z</time>
      </trkpt>
      <trkpt lat="45.22893" lon="2.93454">
        <ele>980.68</ele>
        <time>2021-08-15T12:35:56Z</time>
      </trkpt>
      <trkpt lat="45.22892" lon="2.93453">
        <ele>980.68</ele>
        <time>2021-08-15T12:36:08Z</time>
      </trkpt>
      <trkpt lat="45.2289" lon="2.93451">
        <ele>980.68</ele>
        <time>2021-08-15T12:36:15Z</time>
      </trkpt>
      <trkpt lat="45.22888" lon="2.93451">
        <ele>980.68</ele>
        <time>2021-08-15T12:36:24Z</time>
      </trkpt>
      <trkpt lat="45.22888" lon="2.93454">
        <ele>980.68</ele>
        <time>2021-08-15T12:36:35Z</time>
      </trkpt>
      <trkpt lat="45.22885" lon="2.93454">
        <ele>981.16</ele>
        <time>2021-08-15T12:36:46Z</time>
      </trkpt>
      <trkpt lat="45.22886" lon="2.93451">
        <ele>981.16</ele>
        <time>2021-08-15T12:37:02Z</time>
      </trkpt>
      <trkpt lat="45.22888" lon="2.93451">
        <ele>981.16</ele>
        <time>2021-08-15T12:37:10Z</time>
      </trkpt>
      <trkpt lat="45.22893" lon="2.93453">
        <ele>981.16</ele>
        <time>2021-08-15T12:37:18Z</time>
      </trkpt>
      <trkpt lat="45.22897" lon="2.93455">
        <ele>981.16</ele>
        <time>2021-08-15T12:37:36Z</time>
      </trkpt>
      <trkpt lat="45.22896" lon="2.93458">
        <ele>981.16</ele>
        <time>2021-08-15T12:37:49Z</time>
      </trkpt>
      <trkpt lat="45.22894" lon="2.9346">
        <ele>981.16</ele>
        <time>2021-08-15T12:38:03Z</time>
      </trkpt>
      <trkpt lat="45.22891" lon="2.93463">
        <ele>981.16</ele>
        <time>2021-08-15T12:38:21Z</time>
      </trkpt>
      <trkpt lat="45.2289" lon="2.93461">
        <ele>982.6</ele>
        <time>2021-08-15T12:38:31Z</time>
      </trkpt>
      <trkpt lat="45.22891" lon="2.9346">
        <ele>982.6</ele>
        <time>2021-08-15T12:38:42Z</time>
      </trkpt>
      <trkpt lat="45.22892" lon="2.93458">
        <ele>982.6</ele>
        <time>2021-08-15T12:38:56Z</time>
      </trkpt>
      <trkpt lat="45.22895" lon="2.93456">
        <ele>982.6</ele>
        <time>2021-08-15T12:39:10Z</time>
      </trkpt>
      <trkpt lat="45.22897" lon="2.93454">
        <ele>982.6</ele>
        <time>2021-08-15T12:39:25Z</time>
      </trkpt>
      <trkpt lat="45.22897" lon="2.93455">
        <ele>982.6</ele>
        <time>2021-08-15T12:39:34Z</time>
      </trkpt>
      <trkpt lat="45.22895" lon="2.93458">
        <ele>982.6</ele>
        <time>2021-08-15T12:39:47Z</time>
      </trkpt>
      <trkpt lat="45.22894" lon="2.93459">
        <ele>982.6</ele>
        <time>2021-08-15T12:39:58Z</time>
      </trkpt>
      <trkpt lat="45.22894" lon="2.93461">
        <ele>982.6</ele>
        <time>2021-08-15T12:40:10Z</time>
      </trkpt>
      <trkpt lat="45.22894" lon="2.93462">
        <ele>982.6</ele>
        <time>2021-08-15T12:40:17Z</time>
      </trkpt>
      <trkpt lat="45.22895" lon="2.9346">
        <ele>982.6</ele>
        <time>2021-08-15T12:40:27Z</time>
      </trkpt>
      <trkpt lat="45.22896" lon="2.9346">
        <ele>983.09</ele>
        <time>2021-08-15T12:40:42Z</time>
      </trkpt>
      <trkpt lat="45.22897" lon="2.93459">
        <ele>983.57</ele>
        <time>2021-08-15T12:40:58Z</time>
      </trkpt>
      <trkpt lat="45.22898" lon="2.93459">
        <ele>983.57</ele>
        <time>2021-08-15T12:41:07Z</time>
      </trkpt>
      <trkpt lat="45.22898" lon="2.9346">
        <ele>983.57</ele>
        <time>2021-08-15T12:41:16Z</time>
      </trkpt>
      <trkpt lat="45.22897" lon="2.93459">
        <ele>983.57</ele>
        <time>2021-08-15T12:41:30Z</time>
      </trkpt>
      <trkpt lat="45.22897" lon="2.93459">
        <ele>983.57</ele>
        <time>2021-08-15T12:41:38Z</time>
      </trkpt>
      <trkpt lat="45.22897" lon="2.9346">
        <ele>983.57</ele>
        <time>2021-08-15T12:41:48Z</time>
      </trkpt>
      <trkpt lat="45.22896" lon="2.93457">
        <ele>983.57</ele>
        <time>2021-08-15T12:41:58Z</time>
      </trkpt>
      <trkpt lat="45.22896" lon="2.9346">
        <ele>983.57</ele>
        <time>2021-08-15T12:42:08Z</time>
      </trkpt>
      <trkpt lat="45.22897" lon="2.93463">
        <ele>983.57</ele>
        <time>2021-08-15T12:42:13Z</time>
      </trkpt>
      <trkpt lat="45.229" lon="2.93467">
        <ele>983.57</ele>
        <time>2021-08-15T12:42:18Z</time>
      </trkpt>
      <trkpt lat="45.22903" lon="2.93469">
        <ele>983.57</ele>
        <time>2021-08-15T12:42:36Z</time>
      </trkpt>
      <trkpt lat="45.22901" lon="2.93469">
        <ele>983.57</ele>
        <time>2021-08-15T12:42:50Z</time>
      </trkpt>
      <trkpt lat="45.22897" lon="2.93468">
        <ele>983.57</ele>
        <time>2021-08-15T12:43:09Z</time>
      </trkpt>
      <trkpt lat="45.22896" lon="2.93467">
        <ele>983.57</ele>
        <time>2021-08-15T12:43:21Z</time>
      </trkpt>
      <trkpt lat="45.22895" lon="2.93468">
        <ele>983.57</ele>
        <time>2021-08-15T12:43:33Z</time>
      </trkpt>
      <trkpt lat="45.22894" lon="2.93469">
        <ele>983.57</ele>
        <time>2021-08-15T12:43:48Z</time>
      </trkpt>
      <trkpt lat="45.22894" lon="2.93469">
        <ele>983.57</ele>
        <time>2021-08-15T12:43:57Z</time>
      </trkpt>
      <trkpt lat="45.22896" lon="2.9347">
        <ele>983.57</ele>
        <time>2021-08-15T12:44:13Z</time>
      </trkpt>
      <trkpt lat="45.22898" lon="2.93467">
        <ele>983.57</ele>
        <time>2021-08-15T12:44:27Z</time>
      </trkpt>
      <trkpt lat="45.229" lon="2.93463">
        <ele>983.57</ele>
        <time>2021-08-15T12:44:41Z</time>
      </trkpt>
      <trkpt lat="45.229" lon="2.93461">
        <ele>983.57</ele>
        <time>2021-08-15T12:44:51Z</time>
      </trkpt>
      <trkpt lat="45.22902" lon="2.93462">
        <ele>983.57</ele>
        <time>2021-08-15T12:45:05Z</time>
      </trkpt>
      <trkpt lat="45.22902" lon="2.93462">
        <ele>984.05</ele>
        <time>2021-08-15T12:45:22Z</time>
      </trkpt>
      <trkpt lat="45.229" lon="2.93462">
        <ele>984.53</ele>
        <time>2021-08-15T12:45:31Z</time>
      </trkpt>
      <trkpt lat="45.229" lon="2.93462">
        <ele>984.53</ele>
        <time>2021-08-15T12:45:43Z</time>
      </trkpt>
      <trkpt lat="45.22898" lon="2.9346">
        <ele>984.53</ele>
        <time>2021-08-15T12:46:00Z</time>
      </trkpt>
      <trkpt lat="45.22895" lon="2.93458">
        <ele>984.53</ele>
        <time>2021-08-15T12:46:11Z</time>
      </trkpt>
      <trkpt lat="45.22893" lon="2.93457">
        <ele>984.53</ele>
        <time>2021-08-15T12:46:22Z</time>
      </trkpt>
      <trkpt lat="45.22892" lon="2.93456">
        <ele>984.53</ele>
        <time>2021-08-15T12:46:31Z</time>
      </trkpt>
      <trkpt lat="45.22891" lon="2.93454">
        <ele>984.53</ele>
        <time>2021-08-15T12:46:41Z</time>
      </trkpt>
      <trkpt lat="45.22891" lon="2.93455">
        <ele>984.53</ele>
        <time>2021-08-15T12:46:54Z</time>
      </trkpt>
      <trkpt lat="45.2289" lon="2.93457">
        <ele>984.53</ele>
        <time>2021-08-15T12:47:04Z</time>
      </trkpt>
      <trkpt lat="45.2289" lon="2.93458">
        <ele>984.53</ele>
        <time>2021-08-15T12:47:16Z</time>
      </trkpt>
      <trkpt lat="45.22888" lon="2.93457">
        <ele>984.53</ele>
        <time>2021-08-15T12:47:25Z</time>
      </trkpt>
      <trkpt lat="45.22888" lon="2.93456">
        <ele>985.01</ele>
        <time>2021-08-15T12:47:41Z</time>
      </trkpt>
      <trkpt lat="45.22888" lon="2.93456">
        <ele>985.01</ele>
        <time>2021-08-15T12:47:54Z</time>
      </trkpt>
      <trkpt lat="45.22889" lon="2.93457">
        <ele>985.01</ele>
        <time>2021-08-15T12:48:10Z</time>
      </trkpt>
      <trkpt lat="45.22888" lon="2.93459">
        <ele>985.01</ele>
        <time>2021-08-15T12:48:23Z</time>
      </trkpt>
      <trkpt lat="45.2289" lon="2.9346">
        <ele>985.01</ele>
        <time>2021-08-15T12:48:38Z</time>
      </trkpt>
      <trkpt lat="45.22892" lon="2.9346">
        <ele>985.01</ele>
        <time>2021-08-15T12:48:52Z</time>
      </trkpt>
      <trkpt lat="45.22892" lon="2.93457">
        <ele>985.01</ele>
        <time>2021-08-15T12:49:02Z</time>
      </trkpt>
      <trkpt lat="45.2289" lon="2.93457">
        <ele>985.01</ele>
        <time>2021-08-15T12:49:17Z</time>
      </trkpt>
      <trkpt lat="45.22892" lon="2.93456">
        <ele>985.01</ele>
        <time>2021-08-15T12:49:31Z</time>
      </trkpt>
      <trkpt lat="45.22897" lon="2.9346">
        <ele>985.01</ele>
        <time>2021-08-15T12:49:57Z</time>
      </trkpt>
      <trkpt lat="45.22897" lon="2.93462">
        <ele>985.01</ele>
        <time>2021-08-15T12:50:20Z</time>
      </trkpt>
      <trkpt lat="45.22898" lon="2.93464">
        <ele>985.01</ele>
        <time>2021-08-15T12:50:36Z</time>
      </trkpt>
      <trkpt lat="45.229" lon="2.93466">
        <ele>985.01</ele>
        <time>2021-08-15T12:50:56Z</time>
      </trkpt>
      <trkpt lat="45.22899" lon="2.93465">
        <ele>985.01</ele>
        <time>2021-08-15T12:51:13Z</time>
      </trkpt>
      <trkpt lat="45.22898" lon="2.93462">
        <ele>985.01</ele>
        <time>2021-08-15T12:51:26Z</time>
      </trkpt>
      <trkpt lat="45.22895" lon="2.93462">
        <ele>985.01</ele>
        <time>2021-08-15T12:51:28Z</time>
      </trkpt>
      <trkpt lat="45.22887" lon="2.93459">
        <ele>985.01</ele>
        <time>2021-08-15T12:51:33Z</time>
      </trkpt>
      <trkpt lat="45.22885" lon="2.93458">
        <ele>985.01</ele>
        <time>2021-08-15T12:51:34Z</time>
      </trkpt>
      <trkpt lat="45.22883" lon="2.93457">
        <ele>985.01</ele>
        <time>2021-08-15T12:51:35Z</time>
      </trkpt>
      <trkpt lat="45.22881" lon="2.93457">
        <ele>985.01</ele>
        <time>2021-08-15T12:51:36Z</time>
      </trkpt>
      <trkpt lat="45.22879" lon="2.93456">
        <ele>985.01</ele>
        <time>2021-08-15T12:51:37Z</time>
      </trkpt>
      <trkpt lat="45.2288" lon="2.93456">
        <ele>985.01</ele>
        <time>2021-08-15T12:51:38Z</time>
      </trkpt>
      <trkpt lat="45.22881" lon="2.93455">
        <ele>985.01</ele>
        <time>2021-08-15T12:51:39Z</time>
      </trkpt>
      <trkpt lat="45.22883" lon="2.93455">
        <ele>985.01</ele>
        <time>2021-08-15T12:51:40Z</time>
      </trkpt>
      <trkpt lat="45.22886" lon="2.93454">
        <ele>985.01</ele>
        <time>2021-08-15T12:51:41Z</time>
      </trkpt>
      <trkpt lat="45.22904" lon="2.93452">
        <ele>985.01</ele>
        <time>2021-08-15T12:51:45Z</time>
      </trkpt>
      <trkpt lat="45.22908" lon="2.93452">
        <ele>985.01</ele>
        <time>2021-08-15T12:51:46Z</time>
      </trkpt>
      <trkpt lat="45.22913" lon="2.93452">
        <ele>985.01</ele>
        <time>2021-08-15T12:51:47Z</time>
      </trkpt>
      <trkpt lat="45.22941" lon="2.9345">
        <ele>985.49</ele>
        <time>2021-08-15T12:51:54Z</time>
      </trkpt>
      <trkpt lat="45.22966" lon="2.93443">
        <ele>985.97</ele>
        <time>2021-08-15T12:52:01Z</time>
      </trkpt>
      <trkpt lat="45.22988" lon="2.93434">
        <ele>987.41</ele>
        <time>2021-08-15T12:52:09Z</time>
      </trkpt>
      <trkpt lat="45.23004" lon="2.93432">
        <ele>987.89</ele>
        <time>2021-08-15T12:52:16Z</time>
      </trkpt>
      <trkpt lat="45.23005" lon="2.93431">
        <ele>987.89</ele>
        <time>2021-08-15T12:52:17Z</time>
      </trkpt>
      <trkpt lat="45.23007" lon="2.93431">
        <ele>988.37</ele>
        <time>2021-08-15T12:52:18Z</time>
      </trkpt>
      <trkpt lat="45.23008" lon="2.93435">
        <ele>988.37</ele>
        <time>2021-08-15T12:52:19Z</time>
      </trkpt>
      <trkpt lat="45.23009" lon="2.93439">
        <ele>988.37</ele>
        <time>2021-08-15T12:52:20Z</time>
      </trkpt>
      <trkpt lat="45.23009" lon="2.93442">
        <ele>988.37</ele>
        <time>2021-08-15T12:52:21Z</time>
      </trkpt>
      <trkpt lat="45.2301" lon="2.93445">
        <ele>988.37</ele>
        <time>2021-08-15T12:52:22Z</time>
      </trkpt>
      <trkpt lat="45.23018" lon="2.93463">
        <ele>988.37</ele>
        <time>2021-08-15T12:52:27Z</time>
      </trkpt>
      <trkpt lat="45.2302" lon="2.93464">
        <ele>988.37</ele>
        <time>2021-08-15T12:52:28Z</time>
      </trkpt>
      <trkpt lat="45.23023" lon="2.93465">
        <ele>988.37</ele>
        <time>2021-08-15T12:52:29Z</time>
      </trkpt>
      <trkpt lat="45.23025" lon="2.93465">
        <ele>988.37</ele>
        <time>2021-08-15T12:52:30Z</time>
      </trkpt>
      <trkpt lat="45.23054" lon="2.93463">
        <ele>989.81</ele>
        <time>2021-08-15T12:52:40Z</time>
      </trkpt>
      <trkpt lat="45.23069" lon="2.93456">
        <ele>990.3</ele>
        <time>2021-08-15T12:52:46Z</time>
      </trkpt>
      <trkpt lat="45.23082" lon="2.9344">
        <ele>990.3</ele>
        <time>2021-08-15T12:52:53Z</time>
      </trkpt>
      <trkpt lat="45.23088" lon="2.93427">
        <ele>990.78</ele>
        <time>2021-08-15T12:52:59Z</time>
      </trkpt>
      <trkpt lat="45.23082" lon="2.93421">
        <ele>990.78</ele>
        <time>2021-08-15T12:53:03Z</time>
      </trkpt>
      <trkpt lat="45.2308" lon="2.93422">
        <ele>990.78</ele>
        <time>2021-08-15T12:53:04Z</time>
      </trkpt>
      <trkpt lat="45.23077" lon="2.93423">
        <ele>990.78</ele>
        <time>2021-08-15T12:53:05Z</time>
      </trkpt>
      <trkpt lat="45.23055" lon="2.93429">
        <ele>990.78</ele>
        <time>2021-08-15T12:53:11Z</time>
      </trkpt>
      <trkpt lat="45.23032" lon="2.93432">
        <ele>989.33</ele>
        <time>2021-08-15T12:53:16Z</time>
      </trkpt>
      <trkpt lat="45.23017" lon="2.93431">
        <ele>988.85</ele>
        <time>2021-08-15T12:53:19Z</time>
      </trkpt>
      <trkpt lat="45.23012" lon="2.93429">
        <ele>988.85</ele>
        <time>2021-08-15T12:53:20Z</time>
      </trkpt>
      <trkpt lat="45.23008" lon="2.93423">
        <ele>988.85</ele>
        <time>2021-08-15T12:53:21Z</time>
      </trkpt>
      <trkpt lat="45.23006" lon="2.93415">
        <ele>987.89</ele>
        <time>2021-08-15T12:53:22Z</time>
      </trkpt>
      <trkpt lat="45.23005" lon="2.9341">
        <ele>987.89</ele>
        <time>2021-08-15T12:53:23Z</time>
      </trkpt>
      <trkpt lat="45.23003" lon="2.93402">
        <ele>987.89</ele>
        <time>2021-08-15T12:53:24Z</time>
      </trkpt>
      <trkpt lat="45.2299" lon="2.93335">
        <ele>985.01</ele>
        <time>2021-08-15T12:53:32Z</time>
      </trkpt>
      <trkpt lat="45.22975" lon="2.93255">
        <ele>985.49</ele>
        <time>2021-08-15T12:53:40Z</time>
      </trkpt>
      <trkpt lat="45.22972" lon="2.9324">
        <ele>985.49</ele>
        <time>2021-08-15T12:53:42Z</time>
      </trkpt>
      <trkpt lat="45.2297" lon="2.93234">
        <ele>986.45</ele>
        <time>2021-08-15T12:53:43Z</time>
      </trkpt>
      <trkpt lat="45.22968" lon="2.93228">
        <ele>986.45</ele>
        <time>2021-08-15T12:53:44Z</time>
      </trkpt>
      <trkpt lat="45.22965" lon="2.93223">
        <ele>986.93</ele>
        <time>2021-08-15T12:53:45Z</time>
      </trkpt>
      <trkpt lat="45.22962" lon="2.93219">
        <ele>987.41</ele>
        <time>2021-08-15T12:53:46Z</time>
      </trkpt>
      <trkpt lat="45.22945" lon="2.93209">
        <ele>988.37</ele>
        <time>2021-08-15T12:53:51Z</time>
      </trkpt>
      <trkpt lat="45.22941" lon="2.93209">
        <ele>988.37</ele>
        <time>2021-08-15T12:53:52Z</time>
      </trkpt>
      <trkpt lat="45.22905" lon="2.93211">
        <ele>989.81</ele>
        <time>2021-08-15T12:54:01Z</time>
      </trkpt>
      <trkpt lat="45.22882" lon="2.93206">
        <ele>990.3</ele>
        <time>2021-08-15T12:54:07Z</time>
      </trkpt>
      <trkpt lat="45.22874" lon="2.93206">
        <ele>990.3</ele>
        <time>2021-08-15T12:54:09Z</time>
      </trkpt>
      <trkpt lat="45.22869" lon="2.93207">
        <ele>990.3</ele>
        <time>2021-08-15T12:54:10Z</time>
      </trkpt>
      <trkpt lat="45.22863" lon="2.93209">
        <ele>990.3</ele>
        <time>2021-08-15T12:54:11Z</time>
      </trkpt>
      <trkpt lat="45.22858" lon="2.93211">
        <ele>988.85</ele>
        <time>2021-08-15T12:54:12Z</time>
      </trkpt>
      <trkpt lat="45.22852" lon="2.93214">
        <ele>988.37</ele>
        <time>2021-08-15T12:54:13Z</time>
      </trkpt>
      <trkpt lat="45.22847" lon="2.93218">
        <ele>988.37</ele>
        <time>2021-08-15T12:54:14Z</time>
      </trkpt>
      <trkpt lat="45.22841" lon="2.93223">
        <ele>987.89</ele>
        <time>2021-08-15T12:54:15Z</time>
      </trkpt>
      <trkpt lat="45.22836" lon="2.93229">
        <ele>987.41</ele>
        <time>2021-08-15T12:54:16Z</time>
      </trkpt>
      <trkpt lat="45.22831" lon="2.93236">
        <ele>986.93</ele>
        <time>2021-08-15T12:54:17Z</time>
      </trkpt>
      <trkpt lat="45.22827" lon="2.93244">
        <ele>985.97</ele>
        <time>2021-08-15T12:54:18Z</time>
      </trkpt>
      <trkpt lat="45.22823" lon="2.93253">
        <ele>985.49</ele>
        <time>2021-08-15T12:54:19Z</time>
      </trkpt>
      <trkpt lat="45.22819" lon="2.93262">
        <ele>985.01</ele>
        <time>2021-08-15T12:54:20Z</time>
      </trkpt>
      <trkpt lat="45.22809" lon="2.93281">
        <ele>983.57</ele>
        <time>2021-08-15T12:54:22Z</time>
      </trkpt>
      <trkpt lat="45.22803" lon="2.93289">
        <ele>982.6</ele>
        <time>2021-08-15T12:54:23Z</time>
      </trkpt>
      <trkpt lat="45.22797" lon="2.93297">
        <ele>981.64</ele>
        <time>2021-08-15T12:54:24Z</time>
      </trkpt>
      <trkpt lat="45.2279" lon="2.93304">
        <ele>980.68</ele>
        <time>2021-08-15T12:54:25Z</time>
      </trkpt>
      <trkpt lat="45.22783" lon="2.93311">
        <ele>980.68</ele>
        <time>2021-08-15T12:54:26Z</time>
      </trkpt>
      <trkpt lat="45.22749" lon="2.9334">
        <ele>977.32</ele>
        <time>2021-08-15T12:54:31Z</time>
      </trkpt>
      <trkpt lat="45.22741" lon="2.93341">
        <ele>976.84</ele>
        <time>2021-08-15T12:54:32Z</time>
      </trkpt>
      <trkpt lat="45.22732" lon="2.9334">
        <ele>977.32</ele>
        <time>2021-08-15T12:54:33Z</time>
      </trkpt>
      <trkpt lat="45.22703" lon="2.93336">
        <ele>976.84</ele>
        <time>2021-08-15T12:54:37Z</time>
      </trkpt>
      <trkpt lat="45.22697" lon="2.93337">
        <ele>976.84</ele>
        <time>2021-08-15T12:54:38Z</time>
      </trkpt>
      <trkpt lat="45.22691" lon="2.93339">
        <ele>976.84</ele>
        <time>2021-08-15T12:54:39Z</time>
      </trkpt>
      <trkpt lat="45.22685" lon="2.93341">
        <ele>976.84</ele>
        <time>2021-08-15T12:54:40Z</time>
      </trkpt>
      <trkpt lat="45.2268" lon="2.93342">
        <ele>976.84</ele>
        <time>2021-08-15T12:54:41Z</time>
      </trkpt>
      <trkpt lat="45.22664" lon="2.93345">
        <ele>978.76</ele>
        <time>2021-08-15T12:54:44Z</time>
      </trkpt>
      <trkpt lat="45.22639" lon="2.93349">
        <ele>979.72</ele>
        <time>2021-08-15T12:54:49Z</time>
      </trkpt>
      <trkpt lat="45.2259" lon="2.93359">
        <ele>979.72</ele>
        <time>2021-08-15T12:54:59Z</time>
      </trkpt>
      <trkpt lat="45.22538" lon="2.93355">
        <ele>979.72</ele>
        <time>2021-08-15T12:55:09Z</time>
      </trkpt>
      <trkpt lat="45.22527" lon="2.93351">
        <ele>980.2</ele>
        <time>2021-08-15T12:55:11Z</time>
      </trkpt>
      <trkpt lat="45.22478" lon="2.93316">
        <ele>980.2</ele>
        <time>2021-08-15T12:55:22Z</time>
      </trkpt>
      <trkpt lat="45.22435" lon="2.93284">
        <ele>981.16</ele>
        <time>2021-08-15T12:55:32Z</time>
      </trkpt>
      <trkpt lat="45.22423" lon="2.93275">
        <ele>981.16</ele>
        <time>2021-08-15T12:55:35Z</time>
      </trkpt>
      <trkpt lat="45.22419" lon="2.93274">
        <ele>981.64</ele>
        <time>2021-08-15T12:55:36Z</time>
      </trkpt>
      <trkpt lat="45.22415" lon="2.93272">
        <ele>981.64</ele>
        <time>2021-08-15T12:55:37Z</time>
      </trkpt>
      <trkpt lat="45.22386" lon="2.93256">
        <ele>983.09</ele>
        <time>2021-08-15T12:55:46Z</time>
      </trkpt>
      <trkpt lat="45.22363" lon="2.9323">
        <ele>984.05</ele>
        <time>2021-08-15T12:55:55Z</time>
      </trkpt>
      <trkpt lat="45.22339" lon="2.93208">
        <ele>984.05</ele>
        <time>2021-08-15T12:56:02Z</time>
      </trkpt>
      <trkpt lat="45.22297" lon="2.93171">
        <ele>984.05</ele>
        <time>2021-08-15T12:56:14Z</time>
      </trkpt>
      <trkpt lat="45.2228" lon="2.9315">
        <ele>985.49</ele>
        <time>2021-08-15T12:56:20Z</time>
      </trkpt>
      <trkpt lat="45.22267" lon="2.93128">
        <ele>986.93</ele>
        <time>2021-08-15T12:56:28Z</time>
      </trkpt>
      <trkpt lat="45.2225" lon="2.93109">
        <ele>987.89</ele>
        <time>2021-08-15T12:56:36Z</time>
      </trkpt>
      <trkpt lat="45.22243" lon="2.93113">
        <ele>987.89</ele>
        <time>2021-08-15T12:56:38Z</time>
      </trkpt>
      <trkpt lat="45.22239" lon="2.93116">
        <ele>987.89</ele>
        <time>2021-08-15T12:56:39Z</time>
      </trkpt>
      <trkpt lat="45.22236" lon="2.9312">
        <ele>987.89</ele>
        <time>2021-08-15T12:56:40Z</time>
      </trkpt>
      <trkpt lat="45.22216" lon="2.93151">
        <ele>988.37</ele>
        <time>2021-08-15T12:56:48Z</time>
      </trkpt>
      <trkpt lat="45.222" lon="2.93173">
        <ele>988.85</ele>
        <time>2021-08-15T12:56:54Z</time>
      </trkpt>
      <trkpt lat="45.22197" lon="2.93178">
        <ele>988.85</ele>
        <time>2021-08-15T12:56:55Z</time>
      </trkpt>
      <trkpt lat="45.22176" lon="2.93207">
        <ele>989.81</ele>
        <time>2021-08-15T12:57:03Z</time>
      </trkpt>
      <trkpt lat="45.22151" lon="2.93232">
        <ele>990.78</ele>
        <time>2021-08-15T12:57:12Z</time>
      </trkpt>
      <trkpt lat="45.22137" lon="2.9323">
        <ele>991.74</ele>
        <time>2021-08-15T12:57:18Z</time>
      </trkpt>
      <trkpt lat="45.22121" lon="2.93217">
        <ele>993.66</ele>
        <time>2021-08-15T12:57:28Z</time>
      </trkpt>
      <trkpt lat="45.22106" lon="2.93202">
        <ele>994.62</ele>
        <time>2021-08-15T12:57:35Z</time>
      </trkpt>
      <trkpt lat="45.22083" lon="2.9318">
        <ele>994.14</ele>
        <time>2021-08-15T12:57:42Z</time>
      </trkpt>
      <trkpt lat="45.22071" lon="2.9317">
        <ele>993.18</ele>
        <time>2021-08-15T12:57:45Z</time>
      </trkpt>
      <trkpt lat="45.22044" lon="2.93152">
        <ele>994.62</ele>
        <time>2021-08-15T12:57:53Z</time>
      </trkpt>
      <trkpt lat="45.22041" lon="2.93152">
        <ele>994.62</ele>
        <time>2021-08-15T12:57:54Z</time>
      </trkpt>
      <trkpt lat="45.22035" lon="2.93156">
        <ele>995.1</ele>
        <time>2021-08-15T12:57:56Z</time>
      </trkpt>
      <trkpt lat="45.22032" lon="2.93159">
        <ele>995.1</ele>
        <time>2021-08-15T12:57:57Z</time>
      </trkpt>
      <trkpt lat="45.22029" lon="2.93163">
        <ele>995.1</ele>
        <time>2021-08-15T12:57:58Z</time>
      </trkpt>
      <trkpt lat="45.22022" lon="2.93176">
        <ele>995.1</ele>
        <time>2021-08-15T12:58:01Z</time>
      </trkpt>
      <trkpt lat="45.2202" lon="2.93182">
        <ele>995.1</ele>
        <time>2021-08-15T12:58:02Z</time>
      </trkpt>
      <trkpt lat="45.22018" lon="2.93188">
        <ele>995.1</ele>
        <time>2021-08-15T12:58:03Z</time>
      </trkpt>
      <trkpt lat="45.22012" lon="2.93221">
        <ele>993.18</ele>
        <time>2021-08-15T12:58:07Z</time>
      </trkpt>
      <trkpt lat="45.22009" lon="2.93251">
        <ele>989.81</ele>
        <time>2021-08-15T12:58:10Z</time>
      </trkpt>
      <trkpt lat="45.22006" lon="2.93292">
        <ele>986.45</ele>
        <time>2021-08-15T12:58:14Z</time>
      </trkpt>
      <trkpt lat="45.22005" lon="2.93301">
        <ele>986.45</ele>
        <time>2021-08-15T12:58:15Z</time>
      </trkpt>
      <trkpt lat="45.22005" lon="2.93319">
        <ele>984.53</ele>
        <time>2021-08-15T12:58:17Z</time>
      </trkpt>
      <trkpt lat="45.22007" lon="2.93327">
        <ele>984.05</ele>
        <time>2021-08-15T12:58:18Z</time>
      </trkpt>
      <trkpt lat="45.22008" lon="2.93334">
        <ele>983.57</ele>
        <time>2021-08-15T12:58:19Z</time>
      </trkpt>
      <trkpt lat="45.22008" lon="2.93341">
        <ele>983.09</ele>
        <time>2021-08-15T12:58:20Z</time>
      </trkpt>
      <trkpt lat="45.22006" lon="2.93348">
        <ele>981.64</ele>
        <time>2021-08-15T12:58:21Z</time>
      </trkpt>
      <trkpt lat="45.22002" lon="2.93355">
        <ele>980.68</ele>
        <time>2021-08-15T12:58:22Z</time>
      </trkpt>
      <trkpt lat="45.21994" lon="2.93359">
        <ele>979.24</ele>
        <time>2021-08-15T12:58:23Z</time>
      </trkpt>
      <trkpt lat="45.21987" lon="2.9336">
        <ele>978.28</ele>
        <time>2021-08-15T12:58:24Z</time>
      </trkpt>
      <trkpt lat="45.21978" lon="2.93362">
        <ele>976.84</ele>
        <time>2021-08-15T12:58:25Z</time>
      </trkpt>
      <trkpt lat="45.21968" lon="2.93366">
        <ele>975.88</ele>
        <time>2021-08-15T12:58:26Z</time>
      </trkpt>
      <trkpt lat="45.21957" lon="2.93371">
        <ele>974.43</ele>
        <time>2021-08-15T12:58:27Z</time>
      </trkpt>
      <trkpt lat="45.21948" lon="2.93376">
        <ele>973.47</ele>
        <time>2021-08-15T12:58:28Z</time>
      </trkpt>
      <trkpt lat="45.21936" lon="2.9338">
        <ele>972.51</ele>
        <time>2021-08-15T12:58:29Z</time>
      </trkpt>
      <trkpt lat="45.21925" lon="2.93381">
        <ele>972.03</ele>
        <time>2021-08-15T12:58:30Z</time>
      </trkpt>
      <trkpt lat="45.21912" lon="2.93381">
        <ele>971.55</ele>
        <time>2021-08-15T12:58:31Z</time>
      </trkpt>
      <trkpt lat="45.21903" lon="2.93381">
        <ele>971.07</ele>
        <time>2021-08-15T12:58:32Z</time>
      </trkpt>
      <trkpt lat="45.2187" lon="2.93382">
        <ele>970.11</ele>
        <time>2021-08-15T12:58:35Z</time>
      </trkpt>
      <trkpt lat="45.2186" lon="2.93386">
        <ele>970.11</ele>
        <time>2021-08-15T12:58:36Z</time>
      </trkpt>
      <trkpt lat="45.21841" lon="2.93395">
        <ele>970.11</ele>
        <time>2021-08-15T12:58:38Z</time>
      </trkpt>
      <trkpt lat="45.21831" lon="2.93397">
        <ele>970.11</ele>
        <time>2021-08-15T12:58:39Z</time>
      </trkpt>
      <trkpt lat="45.21821" lon="2.93399">
        <ele>969.15</ele>
        <time>2021-08-15T12:58:40Z</time>
      </trkpt>
      <trkpt lat="45.21756" lon="2.93401">
        <ele>966.26</ele>
        <time>2021-08-15T12:58:46Z</time>
      </trkpt>
      <trkpt lat="45.2168" lon="2.93397">
        <ele>966.26</ele>
        <time>2021-08-15T12:58:54Z</time>
      </trkpt>
      <trkpt lat="45.21627" lon="2.93398">
        <ele>967.7</ele>
        <time>2021-08-15T12:59:01Z</time>
      </trkpt>
      <trkpt lat="45.21575" lon="2.93402">
        <ele>967.7</ele>
        <time>2021-08-15T12:59:09Z</time>
      </trkpt>
      <trkpt lat="45.21515" lon="2.93402">
        <ele>967.7</ele>
        <time>2021-08-15T12:59:18Z</time>
      </trkpt>
      <trkpt lat="45.21444" lon="2.934">
        <ele>965.78</ele>
        <time>2021-08-15T12:59:28Z</time>
      </trkpt>
      <trkpt lat="45.21365" lon="2.93399">
        <ele>964.82</ele>
        <time>2021-08-15T12:59:38Z</time>
      </trkpt>
      <trkpt lat="45.21318" lon="2.93399">
        <ele>965.78</ele>
        <time>2021-08-15T12:59:45Z</time>
      </trkpt>
      <trkpt lat="45.21289" lon="2.934">
        <ele>964.34</ele>
        <time>2021-08-15T12:59:49Z</time>
      </trkpt>
      <trkpt lat="45.21282" lon="2.93401">
        <ele>964.34</ele>
        <time>2021-08-15T12:59:50Z</time>
      </trkpt>
      <trkpt lat="45.21274" lon="2.93402">
        <ele>963.38</ele>
        <time>2021-08-15T12:59:51Z</time>
      </trkpt>
      <trkpt lat="45.21267" lon="2.93405">
        <ele>962.9</ele>
        <time>2021-08-15T12:59:52Z</time>
      </trkpt>
      <trkpt lat="45.21259" lon="2.93409">
        <ele>962.9</ele>
        <time>2021-08-15T12:59:53Z</time>
      </trkpt>
      <trkpt lat="45.21251" lon="2.93415">
        <ele>961.94</ele>
        <time>2021-08-15T12:59:54Z</time>
      </trkpt>
      <trkpt lat="45.21242" lon="2.93422">
        <ele>960.98</ele>
        <time>2021-08-15T12:59:55Z</time>
      </trkpt>
      <trkpt lat="45.21234" lon="2.93427">
        <ele>960.49</ele>
        <time>2021-08-15T12:59:56Z</time>
      </trkpt>
      <trkpt lat="45.21224" lon="2.93431">
        <ele>960.01</ele>
        <time>2021-08-15T12:59:57Z</time>
      </trkpt>
      <trkpt lat="45.21216" lon="2.93433">
        <ele>959.53</ele>
        <time>2021-08-15T12:59:58Z</time>
      </trkpt>
      <trkpt lat="45.21206" lon="2.93434">
        <ele>959.53</ele>
        <time>2021-08-15T12:59:59Z</time>
      </trkpt>
      <trkpt lat="45.21197" lon="2.93434">
        <ele>959.53</ele>
        <time>2021-08-15T13:00:00Z</time>
      </trkpt>
      <trkpt lat="45.21189" lon="2.93436">
        <ele>959.53</ele>
        <time>2021-08-15T13:00:01Z</time>
      </trkpt>
      <trkpt lat="45.2118" lon="2.9344">
        <ele>959.53</ele>
        <time>2021-08-15T13:00:02Z</time>
      </trkpt>
      <trkpt lat="45.21127" lon="2.9347">
        <ele>958.57</ele>
        <time>2021-08-15T13:00:08Z</time>
      </trkpt>
      <trkpt lat="45.21072" lon="2.93493">
        <ele>957.13</ele>
        <time>2021-08-15T13:00:14Z</time>
      </trkpt>
      <trkpt lat="45.21024" lon="2.935">
        <ele>957.13</ele>
        <time>2021-08-15T13:00:20Z</time>
      </trkpt>
      <trkpt lat="45.20973" lon="2.93488">
        <ele>957.13</ele>
        <time>2021-08-15T13:00:27Z</time>
      </trkpt>
      <trkpt lat="45.20949" lon="2.93477">
        <ele>958.57</ele>
        <time>2021-08-15T13:00:31Z</time>
      </trkpt>
      <trkpt lat="45.20907" lon="2.93455">
        <ele>959.53</ele>
        <time>2021-08-15T13:00:39Z</time>
      </trkpt>
      <trkpt lat="45.20875" lon="2.93432">
        <ele>960.49</ele>
        <time>2021-08-15T13:00:47Z</time>
      </trkpt>
      <trkpt lat="45.20845" lon="2.93407">
        <ele>960.98</ele>
        <time>2021-08-15T13:00:55Z</time>
      </trkpt>
      <trkpt lat="45.20812" lon="2.93382">
        <ele>960.98</ele>
        <time>2021-08-15T13:01:03Z</time>
      </trkpt>
      <trkpt lat="45.20767" lon="2.9336">
        <ele>959.05</ele>
        <time>2021-08-15T13:01:11Z</time>
      </trkpt>
      <trkpt lat="45.20722" lon="2.93344">
        <ele>957.61</ele>
        <time>2021-08-15T13:01:18Z</time>
      </trkpt>
      <trkpt lat="45.20653" lon="2.93334">
        <ele>956.17</ele>
        <time>2021-08-15T13:01:28Z</time>
      </trkpt>
      <trkpt lat="45.20588" lon="2.93322">
        <ele>955.21</ele>
        <time>2021-08-15T13:01:37Z</time>
      </trkpt>
      <trkpt lat="45.20553" lon="2.93314">
        <ele>956.65</ele>
        <time>2021-08-15T13:01:43Z</time>
      </trkpt>
      <trkpt lat="45.20536" lon="2.93308">
        <ele>958.09</ele>
        <time>2021-08-15T13:01:48Z</time>
      </trkpt>
      <trkpt lat="45.20522" lon="2.93298">
        <ele>959.05</ele>
        <time>2021-08-15T13:01:55Z</time>
      </trkpt>
      <trkpt lat="45.20508" lon="2.93283">
        <ele>959.53</ele>
        <time>2021-08-15T13:02:02Z</time>
      </trkpt>
      <trkpt lat="45.20501" lon="2.93267">
        <ele>960.01</ele>
        <time>2021-08-15T13:02:07Z</time>
      </trkpt>
      <trkpt lat="45.20504" lon="2.93248">
        <ele>960.49</ele>
        <time>2021-08-15T13:02:14Z</time>
      </trkpt>
      <trkpt lat="45.20511" lon="2.93229">
        <ele>962.42</ele>
        <time>2021-08-15T13:02:23Z</time>
      </trkpt>
      <trkpt lat="45.20519" lon="2.93211">
        <ele>963.86</ele>
        <time>2021-08-15T13:02:32Z</time>
      </trkpt>
      <trkpt lat="45.20528" lon="2.93194">
        <ele>964.82</ele>
        <time>2021-08-15T13:02:41Z</time>
      </trkpt>
      <trkpt lat="45.20534" lon="2.9318">
        <ele>966.26</ele>
        <time>2021-08-15T13:02:50Z</time>
      </trkpt>
      <trkpt lat="45.20534" lon="2.93179">
        <ele>966.26</ele>
        <time>2021-08-15T13:02:51Z</time>
      </trkpt>
      <trkpt lat="45.20535" lon="2.93177">
        <ele>966.74</ele>
        <time>2021-08-15T13:02:52Z</time>
      </trkpt>
      <trkpt lat="45.20536" lon="2.93176">
        <ele>966.74</ele>
        <time>2021-08-15T13:02:53Z</time>
      </trkpt>
      <trkpt lat="45.20539" lon="2.93166">
        <ele>967.22</ele>
        <time>2021-08-15T13:02:59Z</time>
      </trkpt>
      <trkpt lat="45.20539" lon="2.93164">
        <ele>967.7</ele>
        <time>2021-08-15T13:03:00Z</time>
      </trkpt>
      <trkpt lat="45.20539" lon="2.93162">
        <ele>967.7</ele>
        <time>2021-08-15T13:03:01Z</time>
      </trkpt>
      <trkpt lat="45.20539" lon="2.93151">
        <ele>968.18</ele>
        <time>2021-08-15T13:03:08Z</time>
      </trkpt>
      <trkpt lat="45.20538" lon="2.93137">
        <ele>969.63</ele>
        <time>2021-08-15T13:03:16Z</time>
      </trkpt>
      <trkpt lat="45.20538" lon="2.93135">
        <ele>969.63</ele>
        <time>2021-08-15T13:03:17Z</time>
      </trkpt>
      <trkpt lat="45.20538" lon="2.93133">
        <ele>969.63</ele>
        <time>2021-08-15T13:03:18Z</time>
      </trkpt>
      <trkpt lat="45.20538" lon="2.93131">
        <ele>969.63</ele>
        <time>2021-08-15T13:03:19Z</time>
      </trkpt>
      <trkpt lat="45.20537" lon="2.9313">
        <ele>969.63</ele>
        <time>2021-08-15T13:03:20Z</time>
      </trkpt>
      <trkpt lat="45.20536" lon="2.93128">
        <ele>969.63</ele>
        <time>2021-08-15T13:03:21Z</time>
      </trkpt>
      <trkpt lat="45.20536" lon="2.93126">
        <ele>970.11</ele>
        <time>2021-08-15T13:03:22Z</time>
      </trkpt>
      <trkpt lat="45.20535" lon="2.93125">
        <ele>970.11</ele>
        <time>2021-08-15T13:03:23Z</time>
      </trkpt>
      <trkpt lat="45.20534" lon="2.93124">
        <ele>970.59</ele>
        <time>2021-08-15T13:03:24Z</time>
      </trkpt>
      <trkpt lat="45.20534" lon="2.93123">
        <ele>970.59</ele>
        <time>2021-08-15T13:03:25Z</time>
      </trkpt>
      <trkpt lat="45.20533" lon="2.93121">
        <ele>970.59</ele>
        <time>2021-08-15T13:03:26Z</time>
      </trkpt>
      <trkpt lat="45.20533" lon="2.93119">
        <ele>971.07</ele>
        <time>2021-08-15T13:03:27Z</time>
      </trkpt>
      <trkpt lat="45.20532" lon="2.93118">
        <ele>971.07</ele>
        <time>2021-08-15T13:03:28Z</time>
      </trkpt>
      <trkpt lat="45.20532" lon="2.93116">
        <ele>971.07</ele>
        <time>2021-08-15T13:03:29Z</time>
      </trkpt>
      <trkpt lat="45.20531" lon="2.93114">
        <ele>971.55</ele>
        <time>2021-08-15T13:03:30Z</time>
      </trkpt>
      <trkpt lat="45.2053" lon="2.93112">
        <ele>971.55</ele>
        <time>2021-08-15T13:03:31Z</time>
      </trkpt>
      <trkpt lat="45.2053" lon="2.9311">
        <ele>971.55</ele>
        <time>2021-08-15T13:03:32Z</time>
      </trkpt>
      <trkpt lat="45.20529" lon="2.93109">
        <ele>971.55</ele>
        <time>2021-08-15T13:03:33Z</time>
      </trkpt>
      <trkpt lat="45.20529" lon="2.93107">
        <ele>972.03</ele>
        <time>2021-08-15T13:03:34Z</time>
      </trkpt>
      <trkpt lat="45.20528" lon="2.93105">
        <ele>972.03</ele>
        <time>2021-08-15T13:03:35Z</time>
      </trkpt>
      <trkpt lat="45.20527" lon="2.93099">
        <ele>972.51</ele>
        <time>2021-08-15T13:03:38Z</time>
      </trkpt>
      <trkpt lat="45.20527" lon="2.93097">
        <ele>972.51</ele>
        <time>2021-08-15T13:03:39Z</time>
      </trkpt>
      <trkpt lat="45.20527" lon="2.93095">
        <ele>972.51</ele>
        <time>2021-08-15T13:03:40Z</time>
      </trkpt>
      <trkpt lat="45.20527" lon="2.93094">
        <ele>972.99</ele>
        <time>2021-08-15T13:03:41Z</time>
      </trkpt>
      <trkpt lat="45.20526" lon="2.93092">
        <ele>972.99</ele>
        <time>2021-08-15T13:03:42Z</time>
      </trkpt>
      <trkpt lat="45.20526" lon="2.9309">
        <ele>972.99</ele>
        <time>2021-08-15T13:03:43Z</time>
      </trkpt>
      <trkpt lat="45.20526" lon="2.93088">
        <ele>972.99</ele>
        <time>2021-08-15T13:03:44Z</time>
      </trkpt>
      <trkpt lat="45.20526" lon="2.93086">
        <ele>972.99</ele>
        <time>2021-08-15T13:03:45Z</time>
      </trkpt>
      <trkpt lat="45.20526" lon="2.93084">
        <ele>973.47</ele>
        <time>2021-08-15T13:03:46Z</time>
      </trkpt>
      <trkpt lat="45.2052" lon="2.93059">
        <ele>974.43</ele>
        <time>2021-08-15T13:03:59Z</time>
      </trkpt>
      <trkpt lat="45.20518" lon="2.93052">
        <ele>974.91</ele>
        <time>2021-08-15T13:04:03Z</time>
      </trkpt>
      <trkpt lat="45.20517" lon="2.93051">
        <ele>974.91</ele>
        <time>2021-08-15T13:04:04Z</time>
      </trkpt>
      <trkpt lat="45.20517" lon="2.9305">
        <ele>974.91</ele>
        <time>2021-08-15T13:04:05Z</time>
      </trkpt>
      <trkpt lat="45.20515" lon="2.93049">
        <ele>975.39</ele>
        <time>2021-08-15T13:04:06Z</time>
      </trkpt>
      <trkpt lat="45.20514" lon="2.9305">
        <ele>975.39</ele>
        <time>2021-08-15T13:04:07Z</time>
      </trkpt>
      <trkpt lat="45.20514" lon="2.93051">
        <ele>975.39</ele>
        <time>2021-08-15T13:04:08Z</time>
      </trkpt>
      <trkpt lat="45.20513" lon="2.93052">
        <ele>975.39</ele>
        <time>2021-08-15T13:04:09Z</time>
      </trkpt>
      <trkpt lat="45.20513" lon="2.93053">
        <ele>975.39</ele>
        <time>2021-08-15T13:04:10Z</time>
      </trkpt>
      <trkpt lat="45.20509" lon="2.93065">
        <ele>976.84</ele>
        <time>2021-08-15T13:04:17Z</time>
      </trkpt>
      <trkpt lat="45.20505" lon="2.93082">
        <ele>977.8</ele>
        <time>2021-08-15T13:04:25Z</time>
      </trkpt>
      <trkpt lat="45.20498" lon="2.93103">
        <ele>978.76</ele>
        <time>2021-08-15T13:04:34Z</time>
      </trkpt>
      <trkpt lat="45.20494" lon="2.93121">
        <ele>979.24</ele>
        <time>2021-08-15T13:04:41Z</time>
      </trkpt>
      <trkpt lat="45.20488" lon="2.93143">
        <ele>980.68</ele>
        <time>2021-08-15T13:04:50Z</time>
      </trkpt>
      <trkpt lat="45.2048" lon="2.9316">
        <ele>981.64</ele>
        <time>2021-08-15T13:04:58Z</time>
      </trkpt>
      <trkpt lat="45.20472" lon="2.93177">
        <ele>983.09</ele>
        <time>2021-08-15T13:05:06Z</time>
      </trkpt>
      <trkpt lat="45.20462" lon="2.93193">
        <ele>983.57</ele>
        <time>2021-08-15T13:05:14Z</time>
      </trkpt>
      <trkpt lat="45.20453" lon="2.93207">
        <ele>985.01</ele>
        <time>2021-08-15T13:05:22Z</time>
      </trkpt>
      <trkpt lat="45.2045" lon="2.93209">
        <ele>985.49</ele>
        <time>2021-08-15T13:05:24Z</time>
      </trkpt>
      <trkpt lat="45.20449" lon="2.93211">
        <ele>985.49</ele>
        <time>2021-08-15T13:05:25Z</time>
      </trkpt>
      <trkpt lat="45.20448" lon="2.93212">
        <ele>985.49</ele>
        <time>2021-08-15T13:05:26Z</time>
      </trkpt>
      <trkpt lat="45.20436" lon="2.93223">
        <ele>986.45</ele>
        <time>2021-08-15T13:05:34Z</time>
      </trkpt>
      <trkpt lat="45.20423" lon="2.93233">
        <ele>987.41</ele>
        <time>2021-08-15T13:05:43Z</time>
      </trkpt>
      <trkpt lat="45.20411" lon="2.93242">
        <ele>988.37</ele>
        <time>2021-08-15T13:05:50Z</time>
      </trkpt>
      <trkpt lat="45.20397" lon="2.93249">
        <ele>989.33</ele>
        <time>2021-08-15T13:05:58Z</time>
      </trkpt>
      <trkpt lat="45.20385" lon="2.93253">
        <ele>990.3</ele>
        <time>2021-08-15T13:06:05Z</time>
      </trkpt>
      <trkpt lat="45.20369" lon="2.93259">
        <ele>991.74</ele>
        <time>2021-08-15T13:06:14Z</time>
      </trkpt>
      <trkpt lat="45.20358" lon="2.93263">
        <ele>993.66</ele>
        <time>2021-08-15T13:06:22Z</time>
      </trkpt>
      <trkpt lat="45.20347" lon="2.93265">
        <ele>995.1</ele>
        <time>2021-08-15T13:06:31Z</time>
      </trkpt>
      <trkpt lat="45.20335" lon="2.93265">
        <ele>996.54</ele>
        <time>2021-08-15T13:06:40Z</time>
      </trkpt>
      <trkpt lat="45.20322" lon="2.93265">
        <ele>997.99</ele>
        <time>2021-08-15T13:06:50Z</time>
      </trkpt>
      <trkpt lat="45.20321" lon="2.93265">
        <ele>998.47</ele>
        <time>2021-08-15T13:06:51Z</time>
      </trkpt>
      <trkpt lat="45.20319" lon="2.93266">
        <ele>998.47</ele>
        <time>2021-08-15T13:06:52Z</time>
      </trkpt>
      <trkpt lat="45.20317" lon="2.93266">
        <ele>998.47</ele>
        <time>2021-08-15T13:06:53Z</time>
      </trkpt>
      <trkpt lat="45.20312" lon="2.93266">
        <ele>998.95</ele>
        <time>2021-08-15T13:06:57Z</time>
      </trkpt>
      <trkpt lat="45.20308" lon="2.93266">
        <ele>999.43</ele>
        <time>2021-08-15T13:07:01Z</time>
      </trkpt>
      <trkpt lat="45.20297" lon="2.93268">
        <ele>1000.87</ele>
        <time>2021-08-15T13:07:10Z</time>
      </trkpt>
      <trkpt lat="45.2029" lon="2.93268">
        <ele>1001.35</ele>
        <time>2021-08-15T13:07:15Z</time>
      </trkpt>
      <trkpt lat="45.20289" lon="2.93267">
        <ele>1001.83</ele>
        <time>2021-08-15T13:07:16Z</time>
      </trkpt>
      <trkpt lat="45.20288" lon="2.93267">
        <ele>1002.31</ele>
        <time>2021-08-15T13:07:17Z</time>
      </trkpt>
      <trkpt lat="45.20287" lon="2.93267">
        <ele>1002.31</ele>
        <time>2021-08-15T13:07:18Z</time>
      </trkpt>
      <trkpt lat="45.20285" lon="2.93267">
        <ele>1002.31</ele>
        <time>2021-08-15T13:07:19Z</time>
      </trkpt>
      <trkpt lat="45.20275" lon="2.93267">
        <ele>1003.27</ele>
        <time>2021-08-15T13:07:27Z</time>
      </trkpt>
      <trkpt lat="45.20265" lon="2.93264">
        <ele>1004.72</ele>
        <time>2021-08-15T13:07:35Z</time>
      </trkpt>
      <trkpt lat="45.20256" lon="2.93262">
        <ele>1006.16</ele>
        <time>2021-08-15T13:07:44Z</time>
      </trkpt>
      <trkpt lat="45.20244" lon="2.93264">
        <ele>1007.6</ele>
        <time>2021-08-15T13:07:53Z</time>
      </trkpt>
      <trkpt lat="45.20235" lon="2.93264">
        <ele>1008.08</ele>
        <time>2021-08-15T13:08:01Z</time>
      </trkpt>
      <trkpt lat="45.20227" lon="2.93264">
        <ele>1009.04</ele>
        <time>2021-08-15T13:08:07Z</time>
      </trkpt>
      <trkpt lat="45.20226" lon="2.93264">
        <ele>1009.52</ele>
        <time>2021-08-15T13:08:08Z</time>
      </trkpt>
      <trkpt lat="45.20224" lon="2.93264">
        <ele>1009.52</ele>
        <time>2021-08-15T13:08:09Z</time>
      </trkpt>
      <trkpt lat="45.20223" lon="2.93264">
        <ele>1009.52</ele>
        <time>2021-08-15T13:08:10Z</time>
      </trkpt>
      <trkpt lat="45.20214" lon="2.93263">
        <ele>1010.48</ele>
        <time>2021-08-15T13:08:17Z</time>
      </trkpt>
      <trkpt lat="45.20213" lon="2.93263">
        <ele>1010.96</ele>
        <time>2021-08-15T13:08:18Z</time>
      </trkpt>
      <trkpt lat="45.20212" lon="2.93263">
        <ele>1010.96</ele>
        <time>2021-08-15T13:08:19Z</time>
      </trkpt>
      <trkpt lat="45.2021" lon="2.93263">
        <ele>1010.96</ele>
        <time>2021-08-15T13:08:20Z</time>
      </trkpt>
      <trkpt lat="45.20209" lon="2.93262">
        <ele>1011.44</ele>
        <time>2021-08-15T13:08:21Z</time>
      </trkpt>
      <trkpt lat="45.20205" lon="2.93262">
        <ele>1011.93</ele>
        <time>2021-08-15T13:08:24Z</time>
      </trkpt>
      <trkpt lat="45.20203" lon="2.93261">
        <ele>1011.93</ele>
        <time>2021-08-15T13:08:25Z</time>
      </trkpt>
      <trkpt lat="45.20193" lon="2.9326">
        <ele>1012.89</ele>
        <time>2021-08-15T13:08:32Z</time>
      </trkpt>
      <trkpt lat="45.20192" lon="2.9326">
        <ele>1013.37</ele>
        <time>2021-08-15T13:08:33Z</time>
      </trkpt>
      <trkpt lat="45.2019" lon="2.9326">
        <ele>1013.37</ele>
        <time>2021-08-15T13:08:34Z</time>
      </trkpt>
      <trkpt lat="45.20189" lon="2.9326">
        <ele>1013.37</ele>
        <time>2021-08-15T13:08:35Z</time>
      </trkpt>
      <trkpt lat="45.20187" lon="2.93259">
        <ele>1013.37</ele>
        <time>2021-08-15T13:08:36Z</time>
      </trkpt>
      <trkpt lat="45.20186" lon="2.93259">
        <ele>1013.37</ele>
        <time>2021-08-15T13:08:37Z</time>
      </trkpt>
      <trkpt lat="45.20184" lon="2.93258">
        <ele>1013.37</ele>
        <time>2021-08-15T13:08:38Z</time>
      </trkpt>
      <trkpt lat="45.20183" lon="2.93258">
        <ele>1013.37</ele>
        <time>2021-08-15T13:08:39Z</time>
      </trkpt>
      <trkpt lat="45.20181" lon="2.93257">
        <ele>1013.37</ele>
        <time>2021-08-15T13:08:40Z</time>
      </trkpt>
      <trkpt lat="45.20168" lon="2.93254">
        <ele>1014.33</ele>
        <time>2021-08-15T13:08:47Z</time>
      </trkpt>
      <trkpt lat="45.20154" lon="2.93253">
        <ele>1015.77</ele>
        <time>2021-08-15T13:08:55Z</time>
      </trkpt>
      <trkpt lat="45.20148" lon="2.93253">
        <ele>1016.25</ele>
        <time>2021-08-15T13:09:00Z</time>
      </trkpt>
      <trkpt lat="45.20137" lon="2.93252">
        <ele>1017.69</ele>
        <time>2021-08-15T13:09:07Z</time>
      </trkpt>
      <trkpt lat="45.20136" lon="2.93251">
        <ele>1017.69</ele>
        <time>2021-08-15T13:09:08Z</time>
      </trkpt>
      <trkpt lat="45.20132" lon="2.93249">
        <ele>1018.17</ele>
        <time>2021-08-15T13:09:11Z</time>
      </trkpt>
      <trkpt lat="45.20117" lon="2.93243">
        <ele>1019.13</ele>
        <time>2021-08-15T13:09:20Z</time>
      </trkpt>
      <trkpt lat="45.20107" lon="2.9324">
        <ele>1020.58</ele>
        <time>2021-08-15T13:09:27Z</time>
      </trkpt>
      <trkpt lat="45.201" lon="2.93237">
        <ele>1021.06</ele>
        <time>2021-08-15T13:09:32Z</time>
      </trkpt>
      <trkpt lat="45.20099" lon="2.93236">
        <ele>1021.06</ele>
        <time>2021-08-15T13:09:33Z</time>
      </trkpt>
      <trkpt lat="45.20098" lon="2.93235">
        <ele>1021.06</ele>
        <time>2021-08-15T13:09:34Z</time>
      </trkpt>
      <trkpt lat="45.20097" lon="2.93234">
        <ele>1022.02</ele>
        <time>2021-08-15T13:09:35Z</time>
      </trkpt>
      <trkpt lat="45.20095" lon="2.93233">
        <ele>1022.02</ele>
        <time>2021-08-15T13:09:36Z</time>
      </trkpt>
      <trkpt lat="45.20083" lon="2.93226">
        <ele>1022.98</ele>
        <time>2021-08-15T13:09:45Z</time>
      </trkpt>
      <trkpt lat="45.2007" lon="2.93226">
        <ele>1023.94</ele>
        <time>2021-08-15T13:09:54Z</time>
      </trkpt>
      <trkpt lat="45.2006" lon="2.93225">
        <ele>1024.9</ele>
        <time>2021-08-15T13:10:02Z</time>
      </trkpt>
      <trkpt lat="45.20046" lon="2.93222">
        <ele>1025.86</ele>
        <time>2021-08-15T13:10:11Z</time>
      </trkpt>
      <trkpt lat="45.20037" lon="2.9322">
        <ele>1026.34</ele>
        <time>2021-08-15T13:10:17Z</time>
      </trkpt>
      <trkpt lat="45.20027" lon="2.93219">
        <ele>1026.83</ele>
        <time>2021-08-15T13:10:24Z</time>
      </trkpt>
      <trkpt lat="45.20015" lon="2.93221">
        <ele>1028.27</ele>
        <time>2021-08-15T13:10:33Z</time>
      </trkpt>
      <trkpt lat="45.20004" lon="2.93227">
        <ele>1029.23</ele>
        <time>2021-08-15T13:10:41Z</time>
      </trkpt>
      <trkpt lat="45.19997" lon="2.93231">
        <ele>1029.71</ele>
        <time>2021-08-15T13:10:46Z</time>
      </trkpt>
      <trkpt lat="45.19996" lon="2.93232">
        <ele>1030.19</ele>
        <time>2021-08-15T13:10:47Z</time>
      </trkpt>
      <trkpt lat="45.19994" lon="2.93232">
        <ele>1030.19</ele>
        <time>2021-08-15T13:10:48Z</time>
      </trkpt>
      <trkpt lat="45.19993" lon="2.93233">
        <ele>1030.19</ele>
        <time>2021-08-15T13:10:49Z</time>
      </trkpt>
      <trkpt lat="45.19992" lon="2.93234">
        <ele>1030.67</ele>
        <time>2021-08-15T13:10:50Z</time>
      </trkpt>
      <trkpt lat="45.19991" lon="2.93235">
        <ele>1030.67</ele>
        <time>2021-08-15T13:10:51Z</time>
      </trkpt>
      <trkpt lat="45.19979" lon="2.93241">
        <ele>1031.63</ele>
        <time>2021-08-15T13:10:59Z</time>
      </trkpt>
      <trkpt lat="45.19967" lon="2.93244">
        <ele>1033.07</ele>
        <time>2021-08-15T13:11:07Z</time>
      </trkpt>
      <trkpt lat="45.19953" lon="2.93247">
        <ele>1033.55</ele>
        <time>2021-08-15T13:11:15Z</time>
      </trkpt>
      <trkpt lat="45.19942" lon="2.93249">
        <ele>1034.52</ele>
        <time>2021-08-15T13:11:23Z</time>
      </trkpt>
      <trkpt lat="45.19935" lon="2.93251">
        <ele>1035.48</ele>
        <time>2021-08-15T13:11:28Z</time>
      </trkpt>
      <trkpt lat="45.19934" lon="2.93252">
        <ele>1035.96</ele>
        <time>2021-08-15T13:11:29Z</time>
      </trkpt>
      <trkpt lat="45.19922" lon="2.93258">
        <ele>1036.44</ele>
        <time>2021-08-15T13:11:37Z</time>
      </trkpt>
      <trkpt lat="45.19911" lon="2.93265">
        <ele>1037.88</ele>
        <time>2021-08-15T13:11:44Z</time>
      </trkpt>
      <trkpt lat="45.19901" lon="2.93269">
        <ele>1038.84</ele>
        <time>2021-08-15T13:11:51Z</time>
      </trkpt>
      <trkpt lat="45.19892" lon="2.93276">
        <ele>1039.8</ele>
        <time>2021-08-15T13:11:58Z</time>
      </trkpt>
      <trkpt lat="45.19891" lon="2.93276">
        <ele>1039.8</ele>
        <time>2021-08-15T13:11:59Z</time>
      </trkpt>
      <trkpt lat="45.19882" lon="2.9328">
        <ele>1040.28</ele>
        <time>2021-08-15T13:12:06Z</time>
      </trkpt>
      <trkpt lat="45.19875" lon="2.93286">
        <ele>1041.25</ele>
        <time>2021-08-15T13:12:12Z</time>
      </trkpt>
      <trkpt lat="45.19874" lon="2.93287">
        <ele>1041.25</ele>
        <time>2021-08-15T13:12:13Z</time>
      </trkpt>
      <trkpt lat="45.19872" lon="2.93288">
        <ele>1041.73</ele>
        <time>2021-08-15T13:12:14Z</time>
      </trkpt>
      <trkpt lat="45.19871" lon="2.9329">
        <ele>1041.73</ele>
        <time>2021-08-15T13:12:15Z</time>
      </trkpt>
      <trkpt lat="45.19869" lon="2.93291">
        <ele>1041.73</ele>
        <time>2021-08-15T13:12:16Z</time>
      </trkpt>
      <trkpt lat="45.19868" lon="2.93291">
        <ele>1042.21</ele>
        <time>2021-08-15T13:12:17Z</time>
      </trkpt>
      <trkpt lat="45.19866" lon="2.93292">
        <ele>1042.21</ele>
        <time>2021-08-15T13:12:18Z</time>
      </trkpt>
      <trkpt lat="45.19853" lon="2.93296">
        <ele>1043.17</ele>
        <time>2021-08-15T13:12:26Z</time>
      </trkpt>
      <trkpt lat="45.19841" lon="2.93301">
        <ele>1044.61</ele>
        <time>2021-08-15T13:12:34Z</time>
      </trkpt>
      <trkpt lat="45.19824" lon="2.93306">
        <ele>1045.57</ele>
        <time>2021-08-15T13:12:43Z</time>
      </trkpt>
      <trkpt lat="45.19823" lon="2.93306">
        <ele>1045.57</ele>
        <time>2021-08-15T13:12:44Z</time>
      </trkpt>
      <trkpt lat="45.19809" lon="2.93309">
        <ele>1046.53</ele>
        <time>2021-08-15T13:12:51Z</time>
      </trkpt>
      <trkpt lat="45.19789" lon="2.93312">
        <ele>1047.49</ele>
        <time>2021-08-15T13:13:00Z</time>
      </trkpt>
      <trkpt lat="45.19764" lon="2.93307">
        <ele>1048.94</ele>
        <time>2021-08-15T13:13:11Z</time>
      </trkpt>
      <trkpt lat="45.1975" lon="2.93303">
        <ele>1049.9</ele>
        <time>2021-08-15T13:13:18Z</time>
      </trkpt>
      <trkpt lat="45.19736" lon="2.93299">
        <ele>1050.38</ele>
        <time>2021-08-15T13:13:25Z</time>
      </trkpt>
      <trkpt lat="45.19711" lon="2.93288">
        <ele>1050.38</ele>
        <time>2021-08-15T13:13:33Z</time>
      </trkpt>
      <trkpt lat="45.19678" lon="2.93269">
        <ele>1050.38</ele>
        <time>2021-08-15T13:13:42Z</time>
      </trkpt>
      <trkpt lat="45.19663" lon="2.93258">
        <ele>1050.38</ele>
        <time>2021-08-15T13:13:46Z</time>
      </trkpt>
      <trkpt lat="45.19639" lon="2.9324">
        <ele>1050.38</ele>
        <time>2021-08-15T13:13:52Z</time>
      </trkpt>
      <trkpt lat="45.19597" lon="2.9321">
        <ele>1047.97</ele>
        <time>2021-08-15T13:14:02Z</time>
      </trkpt>
      <trkpt lat="45.19571" lon="2.93198">
        <ele>1046.53</ele>
        <time>2021-08-15T13:14:07Z</time>
      </trkpt>
      <trkpt lat="45.19538" lon="2.93175">
        <ele>1046.05</ele>
        <time>2021-08-15T13:14:14Z</time>
      </trkpt>
      <trkpt lat="45.19516" lon="2.93166">
        <ele>1047.49</ele>
        <time>2021-08-15T13:14:21Z</time>
      </trkpt>
      <trkpt lat="45.19496" lon="2.93158">
        <ele>1048.94</ele>
        <time>2021-08-15T13:14:29Z</time>
      </trkpt>
      <trkpt lat="45.19468" lon="2.93151">
        <ele>1049.42</ele>
        <time>2021-08-15T13:14:39Z</time>
      </trkpt>
      <trkpt lat="45.19443" lon="2.93136">
        <ele>1049.42</ele>
        <time>2021-08-15T13:14:47Z</time>
      </trkpt>
      <trkpt lat="45.19415" lon="2.93123">
        <ele>1048.45</ele>
        <time>2021-08-15T13:14:54Z</time>
      </trkpt>
      <trkpt lat="45.19385" lon="2.93106">
        <ele>1047.97</ele>
        <time>2021-08-15T13:15:01Z</time>
      </trkpt>
      <trkpt lat="45.19381" lon="2.93104">
        <ele>1047.49</ele>
        <time>2021-08-15T13:15:02Z</time>
      </trkpt>
      <trkpt lat="45.19376" lon="2.93102">
        <ele>1047.49</ele>
        <time>2021-08-15T13:15:03Z</time>
      </trkpt>
      <trkpt lat="45.19354" lon="2.9309">
        <ele>1047.49</ele>
        <time>2021-08-15T13:15:09Z</time>
      </trkpt>
      <trkpt lat="45.19317" lon="2.93071">
        <ele>1046.05</ele>
        <time>2021-08-15T13:15:17Z</time>
      </trkpt>
      <trkpt lat="45.19269" lon="2.93045">
        <ele>1043.17</ele>
        <time>2021-08-15T13:15:26Z</time>
      </trkpt>
      <trkpt lat="45.19223" lon="2.93024">
        <ele>1041.73</ele>
        <time>2021-08-15T13:15:33Z</time>
      </trkpt>
      <trkpt lat="45.19178" lon="2.93005">
        <ele>1039.8</ele>
        <time>2021-08-15T13:15:40Z</time>
      </trkpt>
      <trkpt lat="45.19162" lon="2.93">
        <ele>1038.84</ele>
        <time>2021-08-15T13:15:42Z</time>
      </trkpt>
      <trkpt lat="45.19154" lon="2.92999">
        <ele>1038.84</ele>
        <time>2021-08-15T13:15:43Z</time>
      </trkpt>
      <trkpt lat="45.19103" lon="2.92992">
        <ele>1037.88</ele>
        <time>2021-08-15T13:15:50Z</time>
      </trkpt>
      <trkpt lat="45.19073" lon="2.92987">
        <ele>1038.36</ele>
        <time>2021-08-15T13:15:55Z</time>
      </trkpt>
      <trkpt lat="45.19068" lon="2.92988">
        <ele>1037.88</ele>
        <time>2021-08-15T13:15:56Z</time>
      </trkpt>
      <trkpt lat="45.19063" lon="2.92991">
        <ele>1039.32</ele>
        <time>2021-08-15T13:15:57Z</time>
      </trkpt>
      <trkpt lat="45.19059" lon="2.92995">
        <ele>1039.32</ele>
        <time>2021-08-15T13:15:58Z</time>
      </trkpt>
      <trkpt lat="45.19055" lon="2.93">
        <ele>1040.28</ele>
        <time>2021-08-15T13:15:59Z</time>
      </trkpt>
      <trkpt lat="45.19053" lon="2.93005">
        <ele>1040.28</ele>
        <time>2021-08-15T13:16:00Z</time>
      </trkpt>
      <trkpt lat="45.19051" lon="2.9301">
        <ele>1040.76</ele>
        <time>2021-08-15T13:16:01Z</time>
      </trkpt>
      <trkpt lat="45.19049" lon="2.93015">
        <ele>1040.76</ele>
        <time>2021-08-15T13:16:02Z</time>
      </trkpt>
      <trkpt lat="45.19041" lon="2.93039">
        <ele>1042.69</ele>
        <time>2021-08-15T13:16:09Z</time>
      </trkpt>
      <trkpt lat="45.19039" lon="2.93043">
        <ele>1043.17</ele>
        <time>2021-08-15T13:16:11Z</time>
      </trkpt>
      <trkpt lat="45.19038" lon="2.93045">
        <ele>1043.17</ele>
        <time>2021-08-15T13:16:12Z</time>
      </trkpt>
      <trkpt lat="45.19027" lon="2.9306">
        <ele>1045.09</ele>
        <time>2021-08-15T13:16:21Z</time>
      </trkpt>
      <trkpt lat="45.19018" lon="2.93059">
        <ele>1046.53</ele>
        <time>2021-08-15T13:16:27Z</time>
      </trkpt>
      <trkpt lat="45.19007" lon="2.93049">
        <ele>1047.49</ele>
        <time>2021-08-15T13:16:35Z</time>
      </trkpt>
      <trkpt lat="45.19005" lon="2.93046">
        <ele>1047.97</ele>
        <time>2021-08-15T13:16:37Z</time>
      </trkpt>
      <trkpt lat="45.19004" lon="2.93044">
        <ele>1047.97</ele>
        <time>2021-08-15T13:16:38Z</time>
      </trkpt>
      <trkpt lat="45.18995" lon="2.93035">
        <ele>1049.42</ele>
        <time>2021-08-15T13:16:45Z</time>
      </trkpt>
      <trkpt lat="45.18994" lon="2.93034">
        <ele>1049.42</ele>
        <time>2021-08-15T13:16:46Z</time>
      </trkpt>
      <trkpt lat="45.1898" lon="2.93028">
        <ele>1050.38</ele>
        <time>2021-08-15T13:16:54Z</time>
      </trkpt>
      <trkpt lat="45.18963" lon="2.93029">
        <ele>1051.82</ele>
        <time>2021-08-15T13:17:04Z</time>
      </trkpt>
      <trkpt lat="45.18947" lon="2.9303">
        <ele>1053.26</ele>
        <time>2021-08-15T13:17:14Z</time>
      </trkpt>
      <trkpt lat="45.1893" lon="2.93033">
        <ele>1055.18</ele>
        <time>2021-08-15T13:17:24Z</time>
      </trkpt>
      <trkpt lat="45.18913" lon="2.93033">
        <ele>1056.63</ele>
        <time>2021-08-15T13:17:34Z</time>
      </trkpt>
      <trkpt lat="45.18899" lon="2.93032">
        <ele>1057.59</ele>
        <time>2021-08-15T13:17:43Z</time>
      </trkpt>
      <trkpt lat="45.1888" lon="2.93028">
        <ele>1059.03</ele>
        <time>2021-08-15T13:17:53Z</time>
      </trkpt>
      <trkpt lat="45.18863" lon="2.93022">
        <ele>1060.47</ele>
        <time>2021-08-15T13:18:02Z</time>
      </trkpt>
      <trkpt lat="45.1884" lon="2.93018">
        <ele>1061.91</ele>
        <time>2021-08-15T13:18:13Z</time>
      </trkpt>
      <trkpt lat="45.18822" lon="2.93014">
        <ele>1063.36</ele>
        <time>2021-08-15T13:18:22Z</time>
      </trkpt>
      <trkpt lat="45.188" lon="2.93008">
        <ele>1064.8</ele>
        <time>2021-08-15T13:18:33Z</time>
      </trkpt>
      <trkpt lat="45.18779" lon="2.93004">
        <ele>1066.24</ele>
        <time>2021-08-15T13:18:43Z</time>
      </trkpt>
      <trkpt lat="45.18759" lon="2.92999">
        <ele>1067.2</ele>
        <time>2021-08-15T13:18:52Z</time>
      </trkpt>
      <trkpt lat="45.18741" lon="2.92996">
        <ele>1068.16</ele>
        <time>2021-08-15T13:19:00Z</time>
      </trkpt>
      <trkpt lat="45.18718" lon="2.92998">
        <ele>1070.08</ele>
        <time>2021-08-15T13:19:10Z</time>
      </trkpt>
      <trkpt lat="45.18699" lon="2.93008">
        <ele>1071.53</ele>
        <time>2021-08-15T13:19:18Z</time>
      </trkpt>
      <trkpt lat="45.18678" lon="2.93025">
        <ele>1072.97</ele>
        <time>2021-08-15T13:19:27Z</time>
      </trkpt>
      <trkpt lat="45.18654" lon="2.93045">
        <ele>1074.89</ele>
        <time>2021-08-15T13:19:37Z</time>
      </trkpt>
      <trkpt lat="45.18628" lon="2.93061">
        <ele>1075.37</ele>
        <time>2021-08-15T13:19:45Z</time>
      </trkpt>
      <trkpt lat="45.18589" lon="2.9307">
        <ele>1075.37</ele>
        <time>2021-08-15T13:19:54Z</time>
      </trkpt>
      <trkpt lat="45.1855" lon="2.93073">
        <ele>1074.41</ele>
        <time>2021-08-15T13:20:01Z</time>
      </trkpt>
      <trkpt lat="45.18481" lon="2.9307">
        <ele>1072.49</ele>
        <time>2021-08-15T13:20:11Z</time>
      </trkpt>
      <trkpt lat="45.18443" lon="2.93073">
        <ele>1072.49</ele>
        <time>2021-08-15T13:20:17Z</time>
      </trkpt>
      <trkpt lat="45.18438" lon="2.9307">
        <ele>1072.49</ele>
        <time>2021-08-15T13:20:18Z</time>
      </trkpt>
      <trkpt lat="45.18435" lon="2.93063">
        <ele>1072.49</ele>
        <time>2021-08-15T13:20:19Z</time>
      </trkpt>
      <trkpt lat="45.18435" lon="2.93057">
        <ele>1072.49</ele>
        <time>2021-08-15T13:20:20Z</time>
      </trkpt>
      <trkpt lat="45.18437" lon="2.93052">
        <ele>1072.49</ele>
        <time>2021-08-15T13:20:21Z</time>
      </trkpt>
      <trkpt lat="45.18439" lon="2.93048">
        <ele>1072.49</ele>
        <time>2021-08-15T13:20:22Z</time>
      </trkpt>
      <trkpt lat="45.18455" lon="2.9302">
        <ele>1073.93</ele>
        <time>2021-08-15T13:20:28Z</time>
      </trkpt>
      <trkpt lat="45.18478" lon="2.92969">
        <ele>1074.89</ele>
        <time>2021-08-15T13:20:39Z</time>
      </trkpt>
      <trkpt lat="45.18495" lon="2.92916">
        <ele>1075.37</ele>
        <time>2021-08-15T13:20:49Z</time>
      </trkpt>
      <trkpt lat="45.18511" lon="2.92867">
        <ele>1075.85</ele>
        <time>2021-08-15T13:20:58Z</time>
      </trkpt>
      <trkpt lat="45.18532" lon="2.92797">
        <ele>1075.85</ele>
        <time>2021-08-15T13:21:10Z</time>
      </trkpt>
      <trkpt lat="45.18539" lon="2.92774">
        <ele>1075.85</ele>
        <time>2021-08-15T13:21:14Z</time>
      </trkpt>
      <trkpt lat="45.1854" lon="2.92768">
        <ele>1076.33</ele>
        <time>2021-08-15T13:21:15Z</time>
      </trkpt>
      <trkpt lat="45.18541" lon="2.92761">
        <ele>1076.33</ele>
        <time>2021-08-15T13:21:16Z</time>
      </trkpt>
      <trkpt lat="45.18552" lon="2.92696">
        <ele>1077.78</ele>
        <time>2021-08-15T13:21:27Z</time>
      </trkpt>
      <trkpt lat="45.18567" lon="2.92634">
        <ele>1078.74</ele>
        <time>2021-08-15T13:21:38Z</time>
      </trkpt>
      <trkpt lat="45.18581" lon="2.92569">
        <ele>1079.7</ele>
        <time>2021-08-15T13:21:49Z</time>
      </trkpt>
      <trkpt lat="45.18581" lon="2.92545">
        <ele>1080.18</ele>
        <time>2021-08-15T13:21:53Z</time>
      </trkpt>
      <trkpt lat="45.1858" lon="2.92539">
        <ele>1080.18</ele>
        <time>2021-08-15T13:21:54Z</time>
      </trkpt>
      <trkpt lat="45.18574" lon="2.92491">
        <ele>1081.62</ele>
        <time>2021-08-15T13:22:03Z</time>
      </trkpt>
      <trkpt lat="45.18569" lon="2.92453">
        <ele>1082.58</ele>
        <time>2021-08-15T13:22:11Z</time>
      </trkpt>
      <trkpt lat="45.18564" lon="2.9242">
        <ele>1083.54</ele>
        <time>2021-08-15T13:22:18Z</time>
      </trkpt>
      <trkpt lat="45.1856" lon="2.92391">
        <ele>1085.95</ele>
        <time>2021-08-15T13:22:26Z</time>
      </trkpt>
      <trkpt lat="45.18557" lon="2.9237">
        <ele>1086.91</ele>
        <time>2021-08-15T13:22:35Z</time>
      </trkpt>
      <trkpt lat="45.18554" lon="2.92356">
        <ele>1088.35</ele>
        <time>2021-08-15T13:22:42Z</time>
      </trkpt>
      <trkpt lat="45.18554" lon="2.92337">
        <ele>1089.79</ele>
        <time>2021-08-15T13:22:52Z</time>
      </trkpt>
      <trkpt lat="45.18551" lon="2.9232">
        <ele>1091.23</ele>
        <time>2021-08-15T13:23:00Z</time>
      </trkpt>
      <trkpt lat="45.18549" lon="2.92299">
        <ele>1092.68</ele>
        <time>2021-08-15T13:23:09Z</time>
      </trkpt>
      <trkpt lat="45.18549" lon="2.92273">
        <ele>1094.12</ele>
        <time>2021-08-15T13:23:18Z</time>
      </trkpt>
      <trkpt lat="45.18552" lon="2.92246">
        <ele>1095.08</ele>
        <time>2021-08-15T13:23:26Z</time>
      </trkpt>
      <trkpt lat="45.18557" lon="2.92218">
        <ele>1095.56</ele>
        <time>2021-08-15T13:23:34Z</time>
      </trkpt>
      <trkpt lat="45.18564" lon="2.92183">
        <ele>1097.48</ele>
        <time>2021-08-15T13:23:44Z</time>
      </trkpt>
      <trkpt lat="45.18567" lon="2.92155">
        <ele>1099.4</ele>
        <time>2021-08-15T13:23:53Z</time>
      </trkpt>
      <trkpt lat="45.18562" lon="2.92139">
        <ele>1100.37</ele>
        <time>2021-08-15T13:24:01Z</time>
      </trkpt>
      <trkpt lat="45.18552" lon="2.92124">
        <ele>1102.29</ele>
        <time>2021-08-15T13:24:12Z</time>
      </trkpt>
      <trkpt lat="45.1854" lon="2.92112">
        <ele>1104.69</ele>
        <time>2021-08-15T13:24:23Z</time>
      </trkpt>
      <trkpt lat="45.18528" lon="2.92107">
        <ele>1105.65</ele>
        <time>2021-08-15T13:24:32Z</time>
      </trkpt>
      <trkpt lat="45.18526" lon="2.92106">
        <ele>1105.65</ele>
        <time>2021-08-15T13:24:33Z</time>
      </trkpt>
      <trkpt lat="45.18514" lon="2.92103">
        <ele>1107.1</ele>
        <time>2021-08-15T13:24:41Z</time>
      </trkpt>
      <trkpt lat="45.18501" lon="2.92104">
        <ele>1108.54</ele>
        <time>2021-08-15T13:24:49Z</time>
      </trkpt>
      <trkpt lat="45.18487" lon="2.92106">
        <ele>1109.5</ele>
        <time>2021-08-15T13:24:57Z</time>
      </trkpt>
      <trkpt lat="45.18481" lon="2.92106">
        <ele>1109.98</ele>
        <time>2021-08-15T13:25:03Z</time>
      </trkpt>
      <trkpt lat="45.1848" lon="2.92107">
        <ele>1109.98</ele>
        <time>2021-08-15T13:25:12Z</time>
      </trkpt>
      <trkpt lat="45.18483" lon="2.92107">
        <ele>1109.98</ele>
        <time>2021-08-15T13:25:24Z</time>
      </trkpt>
      <trkpt lat="45.18481" lon="2.9211">
        <ele>1109.98</ele>
        <time>2021-08-15T13:25:39Z</time>
      </trkpt>
      <trkpt lat="45.18479" lon="2.9211">
        <ele>1110.46</ele>
        <time>2021-08-15T13:25:52Z</time>
      </trkpt>
      <trkpt lat="45.18478" lon="2.9211">
        <ele>1110.46</ele>
        <time>2021-08-15T13:26:10Z</time>
      </trkpt>
      <trkpt lat="45.18478" lon="2.92108">
        <ele>1110.46</ele>
        <time>2021-08-15T13:26:23Z</time>
      </trkpt>
      <trkpt lat="45.18479" lon="2.92104">
        <ele>1110.46</ele>
        <time>2021-08-15T13:26:38Z</time>
      </trkpt>
      <trkpt lat="45.18479" lon="2.92106">
        <ele>1110.46</ele>
        <time>2021-08-15T13:26:50Z</time>
      </trkpt>
      <trkpt lat="45.18478" lon="2.92109">
        <ele>1110.46</ele>
        <time>2021-08-15T13:26:58Z</time>
      </trkpt>
      <trkpt lat="45.18478" lon="2.92109">
        <ele>1110.46</ele>
        <time>2021-08-15T13:27:04Z</time>
      </trkpt>
      <trkpt lat="45.18479" lon="2.92109">
        <ele>1110.46</ele>
        <time>2021-08-15T13:27:16Z</time>
      </trkpt>
      <trkpt lat="45.18481" lon="2.9211">
        <ele>1110.94</ele>
        <time>2021-08-15T13:27:32Z</time>
      </trkpt>
      <trkpt lat="45.18483" lon="2.9211">
        <ele>1110.94</ele>
        <time>2021-08-15T13:27:51Z</time>
      </trkpt>
      <trkpt lat="45.18482" lon="2.92117">
        <ele>1110.94</ele>
        <time>2021-08-15T13:28:10Z</time>
      </trkpt>
      <trkpt lat="45.18482" lon="2.92116">
        <ele>1111.42</ele>
        <time>2021-08-15T13:28:25Z</time>
      </trkpt>
      <trkpt lat="45.18484" lon="2.9212">
        <ele>1111.42</ele>
        <time>2021-08-15T13:28:47Z</time>
      </trkpt>
      <trkpt lat="45.1848" lon="2.92123">
        <ele>1111.9</ele>
        <time>2021-08-15T13:29:07Z</time>
      </trkpt>
      <trkpt lat="45.18483" lon="2.92124">
        <ele>1111.9</ele>
        <time>2021-08-15T13:29:26Z</time>
      </trkpt>
      <trkpt lat="45.18482" lon="2.9212">
        <ele>1112.38</ele>
        <time>2021-08-15T13:29:41Z</time>
      </trkpt>
      <trkpt lat="45.18481" lon="2.9212">
        <ele>1112.38</ele>
        <time>2021-08-15T13:29:54Z</time>
      </trkpt>
      <trkpt lat="45.1848" lon="2.92115">
        <ele>1112.38</ele>
        <time>2021-08-15T13:30:03Z</time>
      </trkpt>
      <trkpt lat="45.18479" lon="2.92109">
        <ele>1112.86</ele>
        <time>2021-08-15T13:30:23Z</time>
      </trkpt>
      <trkpt lat="45.18475" lon="2.92109">
        <ele>1113.34</ele>
        <time>2021-08-15T13:30:31Z</time>
      </trkpt>
      <trkpt lat="45.18472" lon="2.9211">
        <ele>1113.34</ele>
        <time>2021-08-15T13:30:39Z</time>
      </trkpt>
      <trkpt lat="45.1847" lon="2.9211">
        <ele>1113.34</ele>
        <time>2021-08-15T13:30:40Z</time>
      </trkpt>
      <trkpt lat="45.18468" lon="2.9211">
        <ele>1113.82</ele>
        <time>2021-08-15T13:30:41Z</time>
      </trkpt>
      <trkpt lat="45.18466" lon="2.9211">
        <ele>1113.82</ele>
        <time>2021-08-15T13:30:42Z</time>
      </trkpt>
      <trkpt lat="45.18464" lon="2.9211">
        <ele>1113.82</ele>
        <time>2021-08-15T13:30:43Z</time>
      </trkpt>
      <trkpt lat="45.18462" lon="2.9211">
        <ele>1113.82</ele>
        <time>2021-08-15T13:30:44Z</time>
      </trkpt>
      <trkpt lat="45.18451" lon="2.9211">
        <ele>1114.79</ele>
        <time>2021-08-15T13:30:49Z</time>
      </trkpt>
      <trkpt lat="45.18449" lon="2.92108">
        <ele>1114.79</ele>
        <time>2021-08-15T13:30:50Z</time>
      </trkpt>
      <trkpt lat="45.18441" lon="2.921">
        <ele>1116.23</ele>
        <time>2021-08-15T13:30:55Z</time>
      </trkpt>
      <trkpt lat="45.1844" lon="2.92098">
        <ele>1116.23</ele>
        <time>2021-08-15T13:30:56Z</time>
      </trkpt>
      <trkpt lat="45.18437" lon="2.92071">
        <ele>1118.15</ele>
        <time>2021-08-15T13:31:07Z</time>
      </trkpt>
      <trkpt lat="45.18441" lon="2.92046">
        <ele>1119.59</ele>
        <time>2021-08-15T13:31:16Z</time>
      </trkpt>
      <trkpt lat="45.18448" lon="2.92023">
        <ele>1120.55</ele>
        <time>2021-08-15T13:31:25Z</time>
      </trkpt>
      <trkpt lat="45.18447" lon="2.92003">
        <ele>1121.52</ele>
        <time>2021-08-15T13:31:33Z</time>
      </trkpt>
      <trkpt lat="45.18437" lon="2.91987">
        <ele>1122</ele>
        <time>2021-08-15T13:31:41Z</time>
      </trkpt>
      <trkpt lat="45.18422" lon="2.91974">
        <ele>1122.96</ele>
        <time>2021-08-15T13:31:48Z</time>
      </trkpt>
      <trkpt lat="45.18407" lon="2.91965">
        <ele>1122.96</ele>
        <time>2021-08-15T13:31:55Z</time>
      </trkpt>
      <trkpt lat="45.18388" lon="2.91961">
        <ele>1123.44</ele>
        <time>2021-08-15T13:32:02Z</time>
      </trkpt>
      <trkpt lat="45.1837" lon="2.91954">
        <ele>1124.4</ele>
        <time>2021-08-15T13:32:08Z</time>
      </trkpt>
      <trkpt lat="45.18369" lon="2.9195">
        <ele>1124.4</ele>
        <time>2021-08-15T13:32:09Z</time>
      </trkpt>
      <trkpt lat="45.18368" lon="2.91948">
        <ele>1124.88</ele>
        <time>2021-08-15T13:32:10Z</time>
      </trkpt>
      <trkpt lat="45.18367" lon="2.91945">
        <ele>1125.36</ele>
        <time>2021-08-15T13:32:11Z</time>
      </trkpt>
      <trkpt lat="45.18367" lon="2.91942">
        <ele>1125.36</ele>
        <time>2021-08-15T13:32:12Z</time>
      </trkpt>
      <trkpt lat="45.18367" lon="2.91939">
        <ele>1125.36</ele>
        <time>2021-08-15T13:32:13Z</time>
      </trkpt>
      <trkpt lat="45.18367" lon="2.91936">
        <ele>1125.84</ele>
        <time>2021-08-15T13:32:14Z</time>
      </trkpt>
      <trkpt lat="45.18367" lon="2.91933">
        <ele>1125.84</ele>
        <time>2021-08-15T13:32:15Z</time>
      </trkpt>
      <trkpt lat="45.18372" lon="2.91912">
        <ele>1126.8</ele>
        <time>2021-08-15T13:32:22Z</time>
      </trkpt>
      <trkpt lat="45.18378" lon="2.91882">
        <ele>1128.73</ele>
        <time>2021-08-15T13:32:32Z</time>
      </trkpt>
      <trkpt lat="45.18382" lon="2.91859">
        <ele>1129.69</ele>
        <time>2021-08-15T13:32:41Z</time>
      </trkpt>
      <trkpt lat="45.18387" lon="2.91843">
        <ele>1131.13</ele>
        <time>2021-08-15T13:32:49Z</time>
      </trkpt>
      <trkpt lat="45.18393" lon="2.9182">
        <ele>1131.61</ele>
        <time>2021-08-15T13:32:56Z</time>
      </trkpt>
      <trkpt lat="45.18394" lon="2.9179">
        <ele>1132.57</ele>
        <time>2021-08-15T13:33:04Z</time>
      </trkpt>
      <trkpt lat="45.184" lon="2.91758">
        <ele>1133.53</ele>
        <time>2021-08-15T13:33:12Z</time>
      </trkpt>
      <trkpt lat="45.18412" lon="2.91723">
        <ele>1134.49</ele>
        <time>2021-08-15T13:33:21Z</time>
      </trkpt>
      <trkpt lat="45.18416" lon="2.91701">
        <ele>1135.45</ele>
        <time>2021-08-15T13:33:27Z</time>
      </trkpt>
      <trkpt lat="45.18424" lon="2.9168">
        <ele>1136.42</ele>
        <time>2021-08-15T13:33:34Z</time>
      </trkpt>
      <trkpt lat="45.18428" lon="2.91669">
        <ele>1137.38</ele>
        <time>2021-08-15T13:33:39Z</time>
      </trkpt>
      <trkpt lat="45.18429" lon="2.91668">
        <ele>1137.38</ele>
        <time>2021-08-15T13:33:40Z</time>
      </trkpt>
      <trkpt lat="45.18429" lon="2.91666">
        <ele>1137.38</ele>
        <time>2021-08-15T13:33:41Z</time>
      </trkpt>
      <trkpt lat="45.18433" lon="2.91649">
        <ele>1139.78</ele>
        <time>2021-08-15T13:33:49Z</time>
      </trkpt>
      <trkpt lat="45.18434" lon="2.91644">
        <ele>1140.26</ele>
        <time>2021-08-15T13:33:52Z</time>
      </trkpt>
      <trkpt lat="45.18436" lon="2.91629">
        <ele>1141.7</ele>
        <time>2021-08-15T13:34:01Z</time>
      </trkpt>
      <trkpt lat="45.18436" lon="2.91627">
        <ele>1142.18</ele>
        <time>2021-08-15T13:34:02Z</time>
      </trkpt>
      <trkpt lat="45.18436" lon="2.91625">
        <ele>1142.18</ele>
        <time>2021-08-15T13:34:03Z</time>
      </trkpt>
      <trkpt lat="45.18436" lon="2.91622">
        <ele>1142.66</ele>
        <time>2021-08-15T13:34:05Z</time>
      </trkpt>
      <trkpt lat="45.18436" lon="2.91621">
        <ele>1142.66</ele>
        <time>2021-08-15T13:34:06Z</time>
      </trkpt>
      <trkpt lat="45.18439" lon="2.91607">
        <ele>1144.59</ele>
        <time>2021-08-15T13:34:14Z</time>
      </trkpt>
      <trkpt lat="45.18445" lon="2.91596">
        <ele>1145.55</ele>
        <time>2021-08-15T13:34:22Z</time>
      </trkpt>
      <trkpt lat="45.18447" lon="2.91584">
        <ele>1146.51</ele>
        <time>2021-08-15T13:34:29Z</time>
      </trkpt>
      <trkpt lat="45.18449" lon="2.91568">
        <ele>1147.95</ele>
        <time>2021-08-15T13:34:37Z</time>
      </trkpt>
      <trkpt lat="45.18449" lon="2.9155">
        <ele>1149.87</ele>
        <time>2021-08-15T13:34:46Z</time>
      </trkpt>
      <trkpt lat="45.1845" lon="2.91532">
        <ele>1150.35</ele>
        <time>2021-08-15T13:34:54Z</time>
      </trkpt>
      <trkpt lat="45.18453" lon="2.91512">
        <ele>1152.28</ele>
        <time>2021-08-15T13:35:03Z</time>
      </trkpt>
      <trkpt lat="45.18456" lon="2.91489">
        <ele>1153.24</ele>
        <time>2021-08-15T13:35:13Z</time>
      </trkpt>
      <trkpt lat="45.18459" lon="2.91472">
        <ele>1154.2</ele>
        <time>2021-08-15T13:35:20Z</time>
      </trkpt>
      <trkpt lat="45.18462" lon="2.91453">
        <ele>1155.64</ele>
        <time>2021-08-15T13:35:28Z</time>
      </trkpt>
      <trkpt lat="45.18465" lon="2.91435">
        <ele>1156.6</ele>
        <time>2021-08-15T13:35:36Z</time>
      </trkpt>
      <trkpt lat="45.18465" lon="2.91416">
        <ele>1157.56</ele>
        <time>2021-08-15T13:35:43Z</time>
      </trkpt>
      <trkpt lat="45.18464" lon="2.91396">
        <ele>1158.53</ele>
        <time>2021-08-15T13:35:50Z</time>
      </trkpt>
      <trkpt lat="45.18464" lon="2.91367">
        <ele>1159.97</ele>
        <time>2021-08-15T13:35:59Z</time>
      </trkpt>
      <trkpt lat="45.18466" lon="2.91342">
        <ele>1160.93</ele>
        <time>2021-08-15T13:36:06Z</time>
      </trkpt>
      <trkpt lat="45.18464" lon="2.91309">
        <ele>1161.41</ele>
        <time>2021-08-15T13:36:14Z</time>
      </trkpt>
      <trkpt lat="45.18463" lon="2.91274">
        <ele>1162.37</ele>
        <time>2021-08-15T13:36:22Z</time>
      </trkpt>
      <trkpt lat="45.18466" lon="2.91241">
        <ele>1162.85</ele>
        <time>2021-08-15T13:36:29Z</time>
      </trkpt>
      <trkpt lat="45.18469" lon="2.91209">
        <ele>1163.81</ele>
        <time>2021-08-15T13:36:37Z</time>
      </trkpt>
      <trkpt lat="45.1847" lon="2.91184">
        <ele>1164.77</ele>
        <time>2021-08-15T13:36:44Z</time>
      </trkpt>
      <trkpt lat="45.18471" lon="2.91157">
        <ele>1166.7</ele>
        <time>2021-08-15T13:36:51Z</time>
      </trkpt>
      <trkpt lat="45.18472" lon="2.91125">
        <ele>1168.14</ele>
        <time>2021-08-15T13:36:59Z</time>
      </trkpt>
      <trkpt lat="45.18474" lon="2.9109">
        <ele>1168.62</ele>
        <time>2021-08-15T13:37:07Z</time>
      </trkpt>
      <trkpt lat="45.18478" lon="2.91053">
        <ele>1169.1</ele>
        <time>2021-08-15T13:37:15Z</time>
      </trkpt>
      <trkpt lat="45.1848" lon="2.91021">
        <ele>1169.58</ele>
        <time>2021-08-15T13:37:22Z</time>
      </trkpt>
      <trkpt lat="45.18484" lon="2.90979">
        <ele>1169.58</ele>
        <time>2021-08-15T13:37:29Z</time>
      </trkpt>
      <trkpt lat="45.18491" lon="2.90929">
        <ele>1169.58</ele>
        <time>2021-08-15T13:37:37Z</time>
      </trkpt>
      <trkpt lat="45.18492" lon="2.90895">
        <ele>1169.58</ele>
        <time>2021-08-15T13:37:42Z</time>
      </trkpt>
      <trkpt lat="45.18492" lon="2.90888">
        <ele>1169.58</ele>
        <time>2021-08-15T13:37:43Z</time>
      </trkpt>
      <trkpt lat="45.18493" lon="2.90881">
        <ele>1169.58</ele>
        <time>2021-08-15T13:37:44Z</time>
      </trkpt>
      <trkpt lat="45.18493" lon="2.90874">
        <ele>1169.58</ele>
        <time>2021-08-15T13:37:45Z</time>
      </trkpt>
      <trkpt lat="45.18493" lon="2.90866">
        <ele>1169.58</ele>
        <time>2021-08-15T13:37:46Z</time>
      </trkpt>
      <trkpt lat="45.18493" lon="2.90859">
        <ele>1169.58</ele>
        <time>2021-08-15T13:37:47Z</time>
      </trkpt>
      <trkpt lat="45.18493" lon="2.90851">
        <ele>1169.58</ele>
        <time>2021-08-15T13:37:48Z</time>
      </trkpt>
      <trkpt lat="45.18493" lon="2.908">
        <ele>1169.58</ele>
        <time>2021-08-15T13:37:56Z</time>
      </trkpt>
      <trkpt lat="45.18495" lon="2.90755">
        <ele>1170.06</ele>
        <time>2021-08-15T13:38:04Z</time>
      </trkpt>
      <trkpt lat="45.1849" lon="2.90697">
        <ele>1170.06</ele>
        <time>2021-08-15T13:38:13Z</time>
      </trkpt>
      <trkpt lat="45.18488" lon="2.90675">
        <ele>1168.62</ele>
        <time>2021-08-15T13:38:16Z</time>
      </trkpt>
      <trkpt lat="45.18487" lon="2.90669">
        <ele>1168.14</ele>
        <time>2021-08-15T13:38:17Z</time>
      </trkpt>
      <trkpt lat="45.18486" lon="2.90621">
        <ele>1165.26</ele>
        <time>2021-08-15T13:38:23Z</time>
      </trkpt>
      <trkpt lat="45.18487" lon="2.90612">
        <ele>1164.77</ele>
        <time>2021-08-15T13:38:24Z</time>
      </trkpt>
      <trkpt lat="45.1849" lon="2.90594">
        <ele>1164.29</ele>
        <time>2021-08-15T13:38:26Z</time>
      </trkpt>
      <trkpt lat="45.18491" lon="2.90528">
        <ele>1162.37</ele>
        <time>2021-08-15T13:38:33Z</time>
      </trkpt>
      <trkpt lat="45.18489" lon="2.90487">
        <ele>1161.89</ele>
        <time>2021-08-15T13:38:38Z</time>
      </trkpt>
      <trkpt lat="45.18488" lon="2.9048">
        <ele>1161.89</ele>
        <time>2021-08-15T13:38:39Z</time>
      </trkpt>
      <trkpt lat="45.18483" lon="2.90445">
        <ele>1161.41</ele>
        <time>2021-08-15T13:38:44Z</time>
      </trkpt>
      <trkpt lat="45.18483" lon="2.90438">
        <ele>1160.93</ele>
        <time>2021-08-15T13:38:45Z</time>
      </trkpt>
      <trkpt lat="45.18483" lon="2.90431">
        <ele>1160.93</ele>
        <time>2021-08-15T13:38:46Z</time>
      </trkpt>
      <trkpt lat="45.18482" lon="2.90388">
        <ele>1159.49</ele>
        <time>2021-08-15T13:38:52Z</time>
      </trkpt>
      <trkpt lat="45.18482" lon="2.90382">
        <ele>1159.97</ele>
        <time>2021-08-15T13:38:53Z</time>
      </trkpt>
      <trkpt lat="45.18482" lon="2.90373">
        <ele>1159.01</ele>
        <time>2021-08-15T13:38:54Z</time>
      </trkpt>
      <trkpt lat="45.18484" lon="2.90343">
        <ele>1158.05</ele>
        <time>2021-08-15T13:38:58Z</time>
      </trkpt>
      <trkpt lat="45.18488" lon="2.90335">
        <ele>1158.05</ele>
        <time>2021-08-15T13:38:59Z</time>
      </trkpt>
      <trkpt lat="45.1849" lon="2.90328">
        <ele>1157.56</ele>
        <time>2021-08-15T13:39:00Z</time>
      </trkpt>
      <trkpt lat="45.18491" lon="2.90321">
        <ele>1157.56</ele>
        <time>2021-08-15T13:39:01Z</time>
      </trkpt>
      <trkpt lat="45.18493" lon="2.9031">
        <ele>1156.6</ele>
        <time>2021-08-15T13:39:02Z</time>
      </trkpt>
      <trkpt lat="45.18503" lon="2.90255">
        <ele>1153.24</ele>
        <time>2021-08-15T13:39:08Z</time>
      </trkpt>
      <trkpt lat="45.18508" lon="2.90237">
        <ele>1152.76</ele>
        <time>2021-08-15T13:39:10Z</time>
      </trkpt>
      <trkpt lat="45.18519" lon="2.90197">
        <ele>1150.35</ele>
        <time>2021-08-15T13:39:15Z</time>
      </trkpt>
      <trkpt lat="45.1852" lon="2.9019">
        <ele>1150.35</ele>
        <time>2021-08-15T13:39:16Z</time>
      </trkpt>
      <trkpt lat="45.18521" lon="2.90164">
        <ele>1146.51</ele>
        <time>2021-08-15T13:39:21Z</time>
      </trkpt>
      <trkpt lat="45.18521" lon="2.9016">
        <ele>1143.14</ele>
        <time>2021-08-15T13:39:22Z</time>
      </trkpt>
      <trkpt lat="45.18521" lon="2.90156">
        <ele>1148.91</ele>
        <time>2021-08-15T13:39:23Z</time>
      </trkpt>
      <trkpt lat="45.18521" lon="2.90147">
        <ele>1146.03</ele>
        <time>2021-08-15T13:39:29Z</time>
      </trkpt>
      <trkpt lat="45.18521" lon="2.90146">
        <ele>1150.84</ele>
        <time>2021-08-15T13:39:30Z</time>
      </trkpt>
      <trkpt lat="45.1852" lon="2.90147">
        <ele>1147.95</ele>
        <time>2021-08-15T13:39:40Z</time>
      </trkpt>
      <trkpt lat="45.18519" lon="2.9014">
        <ele>1148.43</ele>
        <time>2021-08-15T13:40:00Z</time>
      </trkpt>
      <trkpt lat="45.18526" lon="2.90117">
        <ele>1147.47</ele>
        <time>2021-08-15T13:40:05Z</time>
      </trkpt>
      <trkpt lat="45.18532" lon="2.90072">
        <ele>1147.47</ele>
        <time>2021-08-15T13:40:13Z</time>
      </trkpt>
      <trkpt lat="45.18536" lon="2.90038">
        <ele>1147.47</ele>
        <time>2021-08-15T13:40:20Z</time>
      </trkpt>
      <trkpt lat="45.18538" lon="2.90014">
        <ele>1148.91</ele>
        <time>2021-08-15T13:40:25Z</time>
      </trkpt>
      <trkpt lat="45.18543" lon="2.89982">
        <ele>1150.35</ele>
        <time>2021-08-15T13:40:33Z</time>
      </trkpt>
      <trkpt lat="45.18552" lon="2.89941">
        <ele>1150.35</ele>
        <time>2021-08-15T13:40:41Z</time>
      </trkpt>
      <trkpt lat="45.18554" lon="2.89935">
        <ele>1150.35</ele>
        <time>2021-08-15T13:40:42Z</time>
      </trkpt>
      <trkpt lat="45.18566" lon="2.89883">
        <ele>1151.32</ele>
        <time>2021-08-15T13:40:52Z</time>
      </trkpt>
      <trkpt lat="45.18576" lon="2.89839">
        <ele>1151.8</ele>
        <time>2021-08-15T13:41:01Z</time>
      </trkpt>
      <trkpt lat="45.18588" lon="2.89801">
        <ele>1152.28</ele>
        <time>2021-08-15T13:41:09Z</time>
      </trkpt>
      <trkpt lat="45.18592" lon="2.89755">
        <ele>1152.28</ele>
        <time>2021-08-15T13:41:17Z</time>
      </trkpt>
      <trkpt lat="45.18595" lon="2.89738">
        <ele>1152.28</ele>
        <time>2021-08-15T13:41:20Z</time>
      </trkpt>
      <trkpt lat="45.18597" lon="2.89733">
        <ele>1152.28</ele>
        <time>2021-08-15T13:41:21Z</time>
      </trkpt>
      <trkpt lat="45.18597" lon="2.89727">
        <ele>1152.28</ele>
        <time>2021-08-15T13:41:22Z</time>
      </trkpt>
      <trkpt lat="45.18598" lon="2.89722">
        <ele>1152.28</ele>
        <time>2021-08-15T13:41:23Z</time>
      </trkpt>
      <trkpt lat="45.18597" lon="2.89716">
        <ele>1152.28</ele>
        <time>2021-08-15T13:41:24Z</time>
      </trkpt>
      <trkpt lat="45.18597" lon="2.8971">
        <ele>1152.28</ele>
        <time>2021-08-15T13:41:25Z</time>
      </trkpt>
      <trkpt lat="45.18597" lon="2.8969">
        <ele>1152.28</ele>
        <time>2021-08-15T13:41:28Z</time>
      </trkpt>
      <trkpt lat="45.18598" lon="2.89684">
        <ele>1150.84</ele>
        <time>2021-08-15T13:41:29Z</time>
      </trkpt>
      <trkpt lat="45.18599" lon="2.89677">
        <ele>1150.84</ele>
        <time>2021-08-15T13:41:30Z</time>
      </trkpt>
      <trkpt lat="45.18601" lon="2.89671">
        <ele>1150.84</ele>
        <time>2021-08-15T13:41:31Z</time>
      </trkpt>
      <trkpt lat="45.18603" lon="2.89665">
        <ele>1150.35</ele>
        <time>2021-08-15T13:41:32Z</time>
      </trkpt>
      <trkpt lat="45.18608" lon="2.89651">
        <ele>1149.39</ele>
        <time>2021-08-15T13:41:34Z</time>
      </trkpt>
      <trkpt lat="45.18609" lon="2.89644">
        <ele>1149.39</ele>
        <time>2021-08-15T13:41:35Z</time>
      </trkpt>
      <trkpt lat="45.1861" lon="2.89636">
        <ele>1149.39</ele>
        <time>2021-08-15T13:41:36Z</time>
      </trkpt>
      <trkpt lat="45.18612" lon="2.89629">
        <ele>1149.39</ele>
        <time>2021-08-15T13:41:37Z</time>
      </trkpt>
      <trkpt lat="45.18613" lon="2.89622">
        <ele>1149.39</ele>
        <time>2021-08-15T13:41:38Z</time>
      </trkpt>
      <trkpt lat="45.18615" lon="2.89614">
        <ele>1149.39</ele>
        <time>2021-08-15T13:41:39Z</time>
      </trkpt>
      <trkpt lat="45.18617" lon="2.89608">
        <ele>1149.39</ele>
        <time>2021-08-15T13:41:40Z</time>
      </trkpt>
      <trkpt lat="45.18622" lon="2.89596">
        <ele>1148.91</ele>
        <time>2021-08-15T13:41:42Z</time>
      </trkpt>
      <trkpt lat="45.18626" lon="2.8959">
        <ele>1148.91</ele>
        <time>2021-08-15T13:41:43Z</time>
      </trkpt>
      <trkpt lat="45.18628" lon="2.89583">
        <ele>1148.91</ele>
        <time>2021-08-15T13:41:44Z</time>
      </trkpt>
      <trkpt lat="45.18634" lon="2.89549">
        <ele>1147.95</ele>
        <time>2021-08-15T13:41:50Z</time>
      </trkpt>
      <trkpt lat="45.18639" lon="2.89524">
        <ele>1147.95</ele>
        <time>2021-08-15T13:41:55Z</time>
      </trkpt>
      <trkpt lat="45.1864" lon="2.89517">
        <ele>1147.95</ele>
        <time>2021-08-15T13:41:56Z</time>
      </trkpt>
      <trkpt lat="45.18642" lon="2.8951">
        <ele>1147.95</ele>
        <time>2021-08-15T13:41:57Z</time>
      </trkpt>
      <trkpt lat="45.18648" lon="2.89472">
        <ele>1147.47</ele>
        <time>2021-08-15T13:42:03Z</time>
      </trkpt>
      <trkpt lat="45.18649" lon="2.89466">
        <ele>1147.47</ele>
        <time>2021-08-15T13:42:04Z</time>
      </trkpt>
      <trkpt lat="45.18649" lon="2.89459">
        <ele>1147.47</ele>
        <time>2021-08-15T13:42:05Z</time>
      </trkpt>
      <trkpt lat="45.18649" lon="2.89451">
        <ele>1147.47</ele>
        <time>2021-08-15T13:42:06Z</time>
      </trkpt>
      <trkpt lat="45.18649" lon="2.89445">
        <ele>1147.47</ele>
        <time>2021-08-15T13:42:07Z</time>
      </trkpt>
      <trkpt lat="45.18648" lon="2.89395">
        <ele>1147.47</ele>
        <time>2021-08-15T13:42:15Z</time>
      </trkpt>
      <trkpt lat="45.18648" lon="2.89384">
        <ele>1147.47</ele>
        <time>2021-08-15T13:42:17Z</time>
      </trkpt>
      <trkpt lat="45.18649" lon="2.89378">
        <ele>1147.47</ele>
        <time>2021-08-15T13:42:18Z</time>
      </trkpt>
      <trkpt lat="45.18649" lon="2.89372">
        <ele>1147.47</ele>
        <time>2021-08-15T13:42:19Z</time>
      </trkpt>
      <trkpt lat="45.1865" lon="2.89312">
        <ele>1147.47</ele>
        <time>2021-08-15T13:42:28Z</time>
      </trkpt>
      <trkpt lat="45.1865" lon="2.89286">
        <ele>1148.43</ele>
        <time>2021-08-15T13:42:32Z</time>
      </trkpt>
      <trkpt lat="45.1865" lon="2.8928">
        <ele>1148.43</ele>
        <time>2021-08-15T13:42:33Z</time>
      </trkpt>
      <trkpt lat="45.18652" lon="2.89223">
        <ele>1149.39</ele>
        <time>2021-08-15T13:42:42Z</time>
      </trkpt>
      <trkpt lat="45.18658" lon="2.89181">
        <ele>1149.39</ele>
        <time>2021-08-15T13:42:49Z</time>
      </trkpt>
      <trkpt lat="45.18657" lon="2.89144">
        <ele>1149.87</ele>
        <time>2021-08-15T13:42:56Z</time>
      </trkpt>
      <trkpt lat="45.18658" lon="2.89114">
        <ele>1150.35</ele>
        <time>2021-08-15T13:43:02Z</time>
      </trkpt>
      <trkpt lat="45.18659" lon="2.8908">
        <ele>1150.84</ele>
        <time>2021-08-15T13:43:09Z</time>
      </trkpt>
      <trkpt lat="45.18656" lon="2.89049">
        <ele>1151.32</ele>
        <time>2021-08-15T13:43:15Z</time>
      </trkpt>
      <trkpt lat="45.18659" lon="2.89018">
        <ele>1152.28</ele>
        <time>2021-08-15T13:43:22Z</time>
      </trkpt>
      <trkpt lat="45.18661" lon="2.88989">
        <ele>1153.72</ele>
        <time>2021-08-15T13:43:31Z</time>
      </trkpt>
      <trkpt lat="45.1866" lon="2.88958">
        <ele>1154.68</ele>
        <time>2021-08-15T13:43:40Z</time>
      </trkpt>
      <trkpt lat="45.18658" lon="2.88935">
        <ele>1155.16</ele>
        <time>2021-08-15T13:43:48Z</time>
      </trkpt>
      <trkpt lat="45.18656" lon="2.88913">
        <ele>1155.64</ele>
        <time>2021-08-15T13:43:55Z</time>
      </trkpt>
      <trkpt lat="45.18654" lon="2.88892">
        <ele>1156.12</ele>
        <time>2021-08-15T13:44:01Z</time>
      </trkpt>
      <trkpt lat="45.18655" lon="2.88861">
        <ele>1156.12</ele>
        <time>2021-08-15T13:44:09Z</time>
      </trkpt>
      <trkpt lat="45.18656" lon="2.88854">
        <ele>1156.6</ele>
        <time>2021-08-15T13:44:14Z</time>
      </trkpt>
      <trkpt lat="45.18655" lon="2.8885">
        <ele>1156.6</ele>
        <time>2021-08-15T13:44:18Z</time>
      </trkpt>
      <trkpt lat="45.1865" lon="2.88834">
        <ele>1156.6</ele>
        <time>2021-08-15T13:44:24Z</time>
      </trkpt>
      <trkpt lat="45.18644" lon="2.88806">
        <ele>1157.56</ele>
        <time>2021-08-15T13:44:31Z</time>
      </trkpt>
      <trkpt lat="45.18642" lon="2.8879">
        <ele>1158.05</ele>
        <time>2021-08-15T13:44:37Z</time>
      </trkpt>
      <trkpt lat="45.18642" lon="2.88788">
        <ele>1158.05</ele>
        <time>2021-08-15T13:44:44Z</time>
      </trkpt>
      <trkpt lat="45.18643" lon="2.88785">
        <ele>1158.05</ele>
        <time>2021-08-15T13:44:47Z</time>
      </trkpt>
      <trkpt lat="45.18643" lon="2.88783">
        <ele>1158.05</ele>
        <time>2021-08-15T13:44:48Z</time>
      </trkpt>
      <trkpt lat="45.18644" lon="2.8878">
        <ele>1158.05</ele>
        <time>2021-08-15T13:44:49Z</time>
      </trkpt>
      <trkpt lat="45.18644" lon="2.88777">
        <ele>1158.05</ele>
        <time>2021-08-15T13:44:50Z</time>
      </trkpt>
      <trkpt lat="45.18645" lon="2.88774">
        <ele>1158.05</ele>
        <time>2021-08-15T13:44:51Z</time>
      </trkpt>
      <trkpt lat="45.18645" lon="2.8877">
        <ele>1158.05</ele>
        <time>2021-08-15T13:44:52Z</time>
      </trkpt>
      <trkpt lat="45.18645" lon="2.88765">
        <ele>1158.05</ele>
        <time>2021-08-15T13:44:53Z</time>
      </trkpt>
      <trkpt lat="45.18646" lon="2.88761">
        <ele>1158.05</ele>
        <time>2021-08-15T13:44:54Z</time>
      </trkpt>
      <trkpt lat="45.18646" lon="2.88757">
        <ele>1158.05</ele>
        <time>2021-08-15T13:44:55Z</time>
      </trkpt>
      <trkpt lat="45.18647" lon="2.88753">
        <ele>1158.05</ele>
        <time>2021-08-15T13:44:56Z</time>
      </trkpt>
      <trkpt lat="45.18647" lon="2.88725">
        <ele>1158.05</ele>
        <time>2021-08-15T13:45:03Z</time>
      </trkpt>
      <trkpt lat="45.18648" lon="2.88693">
        <ele>1158.05</ele>
        <time>2021-08-15T13:45:10Z</time>
      </trkpt>
      <trkpt lat="45.18648" lon="2.8867">
        <ele>1158.05</ele>
        <time>2021-08-15T13:45:14Z</time>
      </trkpt>
      <trkpt lat="45.18648" lon="2.88622">
        <ele>1156.6</ele>
        <time>2021-08-15T13:45:21Z</time>
      </trkpt>
      <trkpt lat="45.18649" lon="2.88614">
        <ele>1156.6</ele>
        <time>2021-08-15T13:45:22Z</time>
      </trkpt>
      <trkpt lat="45.18651" lon="2.88554">
        <ele>1155.16</ele>
        <time>2021-08-15T13:45:30Z</time>
      </trkpt>
      <trkpt lat="45.18649" lon="2.88487">
        <ele>1152.76</ele>
        <time>2021-08-15T13:45:39Z</time>
      </trkpt>
      <trkpt lat="45.18651" lon="2.88457">
        <ele>1150.84</ele>
        <time>2021-08-15T13:45:43Z</time>
      </trkpt>
      <trkpt lat="45.18651" lon="2.8845">
        <ele>1150.84</ele>
        <time>2021-08-15T13:45:44Z</time>
      </trkpt>
      <trkpt lat="45.18652" lon="2.88444">
        <ele>1150.84</ele>
        <time>2021-08-15T13:45:45Z</time>
      </trkpt>
      <trkpt lat="45.18652" lon="2.88439">
        <ele>1150.84</ele>
        <time>2021-08-15T13:45:46Z</time>
      </trkpt>
      <trkpt lat="45.18653" lon="2.88436">
        <ele>1150.84</ele>
        <time>2021-08-15T13:45:47Z</time>
      </trkpt>
      <trkpt lat="45.18656" lon="2.88434">
        <ele>1150.84</ele>
        <time>2021-08-15T13:45:48Z</time>
      </trkpt>
      <trkpt lat="45.18659" lon="2.88434">
        <ele>1150.84</ele>
        <time>2021-08-15T13:45:49Z</time>
      </trkpt>
      <trkpt lat="45.18661" lon="2.88434">
        <ele>1150.84</ele>
        <time>2021-08-15T13:45:50Z</time>
      </trkpt>
      <trkpt lat="45.18692" lon="2.88434">
        <ele>1151.32</ele>
        <time>2021-08-15T13:45:58Z</time>
      </trkpt>
      <trkpt lat="45.18711" lon="2.88434">
        <ele>1152.28</ele>
        <time>2021-08-15T13:46:03Z</time>
      </trkpt>
      <trkpt lat="45.18732" lon="2.88435">
        <ele>1153.24</ele>
        <time>2021-08-15T13:46:11Z</time>
      </trkpt>
      <trkpt lat="45.18737" lon="2.88433">
        <ele>1153.72</ele>
        <time>2021-08-15T13:46:15Z</time>
      </trkpt>
      <trkpt lat="45.18737" lon="2.88431">
        <ele>1153.72</ele>
        <time>2021-08-15T13:46:16Z</time>
      </trkpt>
      <trkpt lat="45.18738" lon="2.88428">
        <ele>1153.72</ele>
        <time>2021-08-15T13:46:17Z</time>
      </trkpt>
      <trkpt lat="45.1874" lon="2.88426">
        <ele>1153.72</ele>
        <time>2021-08-15T13:46:18Z</time>
      </trkpt>
      <trkpt lat="45.18743" lon="2.88424">
        <ele>1153.72</ele>
        <time>2021-08-15T13:46:19Z</time>
      </trkpt>
      <trkpt lat="45.18745" lon="2.88422">
        <ele>1153.72</ele>
        <time>2021-08-15T13:46:20Z</time>
      </trkpt>
      <trkpt lat="45.18746" lon="2.88419">
        <ele>1154.2</ele>
        <time>2021-08-15T13:46:21Z</time>
      </trkpt>
      <trkpt lat="45.18747" lon="2.88416">
        <ele>1154.2</ele>
        <time>2021-08-15T13:46:22Z</time>
      </trkpt>
      <trkpt lat="45.18751" lon="2.88391">
        <ele>1154.68</ele>
        <time>2021-08-15T13:46:30Z</time>
      </trkpt>
      <trkpt lat="45.18751" lon="2.88388">
        <ele>1154.68</ele>
        <time>2021-08-15T13:46:38Z</time>
      </trkpt>
      <trkpt lat="45.18753" lon="2.88365">
        <ele>1154.68</ele>
        <time>2021-08-15T13:46:44Z</time>
      </trkpt>
      <trkpt lat="45.18757" lon="2.88324">
        <ele>1155.16</ele>
        <time>2021-08-15T13:46:53Z</time>
      </trkpt>
      <trkpt lat="45.18762" lon="2.88283">
        <ele>1155.16</ele>
        <time>2021-08-15T13:47:01Z</time>
      </trkpt>
      <trkpt lat="45.18763" lon="2.88251">
        <ele>1154.2</ele>
        <time>2021-08-15T13:47:06Z</time>
      </trkpt>
      <trkpt lat="45.18764" lon="2.88243">
        <ele>1154.2</ele>
        <time>2021-08-15T13:47:07Z</time>
      </trkpt>
      <trkpt lat="45.18765" lon="2.88237">
        <ele>1154.2</ele>
        <time>2021-08-15T13:47:08Z</time>
      </trkpt>
      <trkpt lat="45.18765" lon="2.88231">
        <ele>1154.2</ele>
        <time>2021-08-15T13:47:09Z</time>
      </trkpt>
      <trkpt lat="45.18766" lon="2.88226">
        <ele>1154.2</ele>
        <time>2021-08-15T13:47:10Z</time>
      </trkpt>
      <trkpt lat="45.18766" lon="2.8822">
        <ele>1154.2</ele>
        <time>2021-08-15T13:47:11Z</time>
      </trkpt>
      <trkpt lat="45.18768" lon="2.88201">
        <ele>1155.16</ele>
        <time>2021-08-15T13:47:15Z</time>
      </trkpt>
      <trkpt lat="45.1877" lon="2.88165">
        <ele>1156.12</ele>
        <time>2021-08-15T13:47:23Z</time>
      </trkpt>
      <trkpt lat="45.18773" lon="2.88136">
        <ele>1156.12</ele>
        <time>2021-08-15T13:47:29Z</time>
      </trkpt>
      <trkpt lat="45.18776" lon="2.881">
        <ele>1156.6</ele>
        <time>2021-08-15T13:47:36Z</time>
      </trkpt>
      <trkpt lat="45.18776" lon="2.88084">
        <ele>1156.6</ele>
        <time>2021-08-15T13:47:42Z</time>
      </trkpt>
      <trkpt lat="45.18776" lon="2.88081">
        <ele>1156.6</ele>
        <time>2021-08-15T13:47:48Z</time>
      </trkpt>
      <trkpt lat="45.18773" lon="2.88068">
        <ele>1155.16</ele>
        <time>2021-08-15T13:47:54Z</time>
      </trkpt>
      <trkpt lat="45.1877" lon="2.88049">
        <ele>1154.68</ele>
        <time>2021-08-15T13:47:59Z</time>
      </trkpt>
      <trkpt lat="45.1877" lon="2.88047">
        <ele>1154.68</ele>
        <time>2021-08-15T13:48:00Z</time>
      </trkpt>
      <trkpt lat="45.18769" lon="2.88046">
        <ele>1154.68</ele>
        <time>2021-08-15T13:48:01Z</time>
      </trkpt>
      <trkpt lat="45.18767" lon="2.88045">
        <ele>1154.68</ele>
        <time>2021-08-15T13:48:03Z</time>
      </trkpt>
      <trkpt lat="45.18767" lon="2.88046">
        <ele>1153.24</ele>
        <time>2021-08-15T13:48:08Z</time>
      </trkpt>
      <trkpt lat="45.18768" lon="2.88046">
        <ele>1153.24</ele>
        <time>2021-08-15T13:48:10Z</time>
      </trkpt>
      <trkpt lat="45.18768" lon="2.88042">
        <ele>1153.24</ele>
        <time>2021-08-15T13:48:12Z</time>
      </trkpt>
      <trkpt lat="45.18766" lon="2.88034">
        <ele>1153.24</ele>
        <time>2021-08-15T13:48:19Z</time>
      </trkpt>
      <trkpt lat="45.18764" lon="2.88029">
        <ele>1153.24</ele>
        <time>2021-08-15T13:48:26Z</time>
      </trkpt>
      <trkpt lat="45.18762" lon="2.88021">
        <ele>1152.76</ele>
        <time>2021-08-15T13:48:28Z</time>
      </trkpt>
      <trkpt lat="45.18763" lon="2.88016">
        <ele>1152.76</ele>
        <time>2021-08-15T13:48:29Z</time>
      </trkpt>
      <trkpt lat="45.18764" lon="2.88013">
        <ele>1152.76</ele>
        <time>2021-08-15T13:48:30Z</time>
      </trkpt>
      <trkpt lat="45.18765" lon="2.8801">
        <ele>1152.76</ele>
        <time>2021-08-15T13:48:31Z</time>
      </trkpt>
      <trkpt lat="45.18766" lon="2.88005">
        <ele>1152.76</ele>
        <time>2021-08-15T13:48:32Z</time>
      </trkpt>
      <trkpt lat="45.18767" lon="2.88001">
        <ele>1152.76</ele>
        <time>2021-08-15T13:48:33Z</time>
      </trkpt>
      <trkpt lat="45.18768" lon="2.87993">
        <ele>1154.2</ele>
        <time>2021-08-15T13:48:35Z</time>
      </trkpt>
      <trkpt lat="45.18776" lon="2.87957">
        <ele>1154.68</ele>
        <time>2021-08-15T13:48:44Z</time>
      </trkpt>
      <trkpt lat="45.18779" lon="2.87931">
        <ele>1156.12</ele>
        <time>2021-08-15T13:48:52Z</time>
      </trkpt>
      <trkpt lat="45.18782" lon="2.87911">
        <ele>1157.08</ele>
        <time>2021-08-15T13:49:00Z</time>
      </trkpt>
      <trkpt lat="45.18785" lon="2.87897">
        <ele>1158.53</ele>
        <time>2021-08-15T13:49:06Z</time>
      </trkpt>
      <trkpt lat="45.18787" lon="2.8788">
        <ele>1159.49</ele>
        <time>2021-08-15T13:49:13Z</time>
      </trkpt>
      <trkpt lat="45.18793" lon="2.8786">
        <ele>1159.97</ele>
        <time>2021-08-15T13:49:21Z</time>
      </trkpt>
      <trkpt lat="45.188" lon="2.87831">
        <ele>1160.45</ele>
        <time>2021-08-15T13:49:30Z</time>
      </trkpt>
      <trkpt lat="45.18806" lon="2.87806">
        <ele>1161.89</ele>
        <time>2021-08-15T13:49:38Z</time>
      </trkpt>
      <trkpt lat="45.1881" lon="2.87782">
        <ele>1162.85</ele>
        <time>2021-08-15T13:49:46Z</time>
      </trkpt>
      <trkpt lat="45.18811" lon="2.8776">
        <ele>1163.81</ele>
        <time>2021-08-15T13:49:52Z</time>
      </trkpt>
      <trkpt lat="45.18814" lon="2.87725">
        <ele>1164.29</ele>
        <time>2021-08-15T13:50:00Z</time>
      </trkpt>
      <trkpt lat="45.18819" lon="2.87695">
        <ele>1164.77</ele>
        <time>2021-08-15T13:50:07Z</time>
      </trkpt>
      <trkpt lat="45.18823" lon="2.87665">
        <ele>1165.74</ele>
        <time>2021-08-15T13:50:14Z</time>
      </trkpt>
      <trkpt lat="45.18826" lon="2.87635">
        <ele>1166.22</ele>
        <time>2021-08-15T13:50:21Z</time>
      </trkpt>
      <trkpt lat="45.18832" lon="2.87587">
        <ele>1166.22</ele>
        <time>2021-08-15T13:50:30Z</time>
      </trkpt>
      <trkpt lat="45.18836" lon="2.87541">
        <ele>1166.22</ele>
        <time>2021-08-15T13:50:39Z</time>
      </trkpt>
      <trkpt lat="45.1884" lon="2.87502">
        <ele>1166.7</ele>
        <time>2021-08-15T13:50:47Z</time>
      </trkpt>
      <trkpt lat="45.18844" lon="2.87468">
        <ele>1167.18</ele>
        <time>2021-08-15T13:50:54Z</time>
      </trkpt>
      <trkpt lat="45.18846" lon="2.87438">
        <ele>1167.18</ele>
        <time>2021-08-15T13:50:59Z</time>
      </trkpt>
      <trkpt lat="45.18846" lon="2.87432">
        <ele>1167.18</ele>
        <time>2021-08-15T13:51:00Z</time>
      </trkpt>
      <trkpt lat="45.18846" lon="2.87425">
        <ele>1167.18</ele>
        <time>2021-08-15T13:51:01Z</time>
      </trkpt>
      <trkpt lat="45.18846" lon="2.87418">
        <ele>1167.18</ele>
        <time>2021-08-15T13:51:02Z</time>
      </trkpt>
      <trkpt lat="45.18846" lon="2.87411">
        <ele>1167.18</ele>
        <time>2021-08-15T13:51:03Z</time>
      </trkpt>
      <trkpt lat="45.18846" lon="2.87383">
        <ele>1165.74</ele>
        <time>2021-08-15T13:51:07Z</time>
      </trkpt>
      <trkpt lat="45.18847" lon="2.8737">
        <ele>1165.74</ele>
        <time>2021-08-15T13:51:09Z</time>
      </trkpt>
      <trkpt lat="45.18848" lon="2.87358">
        <ele>1166.22</ele>
        <time>2021-08-15T13:51:11Z</time>
      </trkpt>
      <trkpt lat="45.18852" lon="2.87303">
        <ele>1165.74</ele>
        <time>2021-08-15T13:51:19Z</time>
      </trkpt>
      <trkpt lat="45.18857" lon="2.87245">
        <ele>1166.22</ele>
        <time>2021-08-15T13:51:28Z</time>
      </trkpt>
      <trkpt lat="45.18857" lon="2.872">
        <ele>1168.62</ele>
        <time>2021-08-15T13:51:36Z</time>
      </trkpt>
      <trkpt lat="45.18857" lon="2.87172">
        <ele>1170.06</ele>
        <time>2021-08-15T13:51:43Z</time>
      </trkpt>
      <trkpt lat="45.18861" lon="2.87128">
        <ele>1170.54</ele>
        <time>2021-08-15T13:51:53Z</time>
      </trkpt>
      <trkpt lat="45.18864" lon="2.87097">
        <ele>1171.02</ele>
        <time>2021-08-15T13:52:00Z</time>
      </trkpt>
      <trkpt lat="45.18864" lon="2.87069">
        <ele>1171.5</ele>
        <time>2021-08-15T13:52:06Z</time>
      </trkpt>
      <trkpt lat="45.18864" lon="2.87031">
        <ele>1172.47</ele>
        <time>2021-08-15T13:52:13Z</time>
      </trkpt>
      <trkpt lat="45.18867" lon="2.86997">
        <ele>1172.95</ele>
        <time>2021-08-15T13:52:21Z</time>
      </trkpt>
      <trkpt lat="45.18866" lon="2.86969">
        <ele>1172.95</ele>
        <time>2021-08-15T13:52:27Z</time>
      </trkpt>
      <trkpt lat="45.18864" lon="2.86934">
        <ele>1173.91</ele>
        <time>2021-08-15T13:52:35Z</time>
      </trkpt>
      <trkpt lat="45.18858" lon="2.86904">
        <ele>1174.39</ele>
        <time>2021-08-15T13:52:43Z</time>
      </trkpt>
      <trkpt lat="45.18847" lon="2.86884">
        <ele>1176.31</ele>
        <time>2021-08-15T13:52:51Z</time>
      </trkpt>
      <trkpt lat="45.18836" lon="2.86859">
        <ele>1176.79</ele>
        <time>2021-08-15T13:52:58Z</time>
      </trkpt>
      <trkpt lat="45.1883" lon="2.86823">
        <ele>1175.35</ele>
        <time>2021-08-15T13:53:04Z</time>
      </trkpt>
      <trkpt lat="45.18829" lon="2.86778">
        <ele>1176.79</ele>
        <time>2021-08-15T13:53:11Z</time>
      </trkpt>
      <trkpt lat="45.1883" lon="2.86739">
        <ele>1173.91</ele>
        <time>2021-08-15T13:53:16Z</time>
      </trkpt>
      <trkpt lat="45.18831" lon="2.86687">
        <ele>1172.95</ele>
        <time>2021-08-15T13:53:22Z</time>
      </trkpt>
      <trkpt lat="45.1883" lon="2.86654">
        <ele>1174.87</ele>
        <time>2021-08-15T13:53:27Z</time>
      </trkpt>
      <trkpt lat="45.18827" lon="2.86631">
        <ele>1175.83</ele>
        <time>2021-08-15T13:53:33Z</time>
      </trkpt>
      <trkpt lat="45.18828" lon="2.86614">
        <ele>1176.79</ele>
        <time>2021-08-15T13:53:38Z</time>
      </trkpt>
      <trkpt lat="45.18831" lon="2.86598">
        <ele>1174.87</ele>
        <time>2021-08-15T13:53:41Z</time>
      </trkpt>
      <trkpt lat="45.18837" lon="2.86556">
        <ele>1173.91</ele>
        <time>2021-08-15T13:53:50Z</time>
      </trkpt>
      <trkpt lat="45.18836" lon="2.8654">
        <ele>1173.91</ele>
        <time>2021-08-15T13:53:53Z</time>
      </trkpt>
      <trkpt lat="45.18834" lon="2.86528">
        <ele>1173.43</ele>
        <time>2021-08-15T13:53:55Z</time>
      </trkpt>
      <trkpt lat="45.1883" lon="2.86515">
        <ele>1172.47</ele>
        <time>2021-08-15T13:53:57Z</time>
      </trkpt>
      <trkpt lat="45.1882" lon="2.86486">
        <ele>1173.91</ele>
        <time>2021-08-15T13:54:03Z</time>
      </trkpt>
      <trkpt lat="45.18819" lon="2.86482">
        <ele>1173.91</ele>
        <time>2021-08-15T13:54:04Z</time>
      </trkpt>
      <trkpt lat="45.18816" lon="2.86472">
        <ele>1172.47</ele>
        <time>2021-08-15T13:54:06Z</time>
      </trkpt>
      <trkpt lat="45.18814" lon="2.86458">
        <ele>1172.47</ele>
        <time>2021-08-15T13:54:09Z</time>
      </trkpt>
      <trkpt lat="45.18814" lon="2.86445">
        <ele>1171.98</ele>
        <time>2021-08-15T13:54:11Z</time>
      </trkpt>
      <trkpt lat="45.18814" lon="2.86432">
        <ele>1171.02</ele>
        <time>2021-08-15T13:54:13Z</time>
      </trkpt>
      <trkpt lat="45.18815" lon="2.86425">
        <ele>1171.02</ele>
        <time>2021-08-15T13:54:14Z</time>
      </trkpt>
      <trkpt lat="45.18815" lon="2.86417">
        <ele>1169.58</ele>
        <time>2021-08-15T13:54:15Z</time>
      </trkpt>
      <trkpt lat="45.18816" lon="2.86373">
        <ele>1166.7</ele>
        <time>2021-08-15T13:54:21Z</time>
      </trkpt>
      <trkpt lat="45.18816" lon="2.86342">
        <ele>1163.81</ele>
        <time>2021-08-15T13:54:25Z</time>
      </trkpt>
      <trkpt lat="45.18819" lon="2.86324">
        <ele>1161.89</ele>
        <time>2021-08-15T13:54:28Z</time>
      </trkpt>
      <trkpt lat="45.18821" lon="2.8632">
        <ele>1161.89</ele>
        <time>2021-08-15T13:54:29Z</time>
      </trkpt>
      <trkpt lat="45.18822" lon="2.86317">
        <ele>1161.41</ele>
        <time>2021-08-15T13:54:30Z</time>
      </trkpt>
      <trkpt lat="45.18825" lon="2.86311">
        <ele>1161.41</ele>
        <time>2021-08-15T13:54:35Z</time>
      </trkpt>
      <trkpt lat="45.18824" lon="2.86309">
        <ele>1161.41</ele>
        <time>2021-08-15T13:54:38Z</time>
      </trkpt>
      <trkpt lat="45.18824" lon="2.86307">
        <ele>1161.41</ele>
        <time>2021-08-15T13:54:39Z</time>
      </trkpt>
      <trkpt lat="45.18825" lon="2.86298">
        <ele>1159.49</ele>
        <time>2021-08-15T13:54:42Z</time>
      </trkpt>
      <trkpt lat="45.18834" lon="2.86276">
        <ele>1157.56</ele>
        <time>2021-08-15T13:54:46Z</time>
      </trkpt>
      <trkpt lat="45.18835" lon="2.86266">
        <ele>1156.12</ele>
        <time>2021-08-15T13:54:47Z</time>
      </trkpt>
      <trkpt lat="45.18835" lon="2.86257">
        <ele>1155.64</ele>
        <time>2021-08-15T13:54:48Z</time>
      </trkpt>
      <trkpt lat="45.18836" lon="2.86248">
        <ele>1155.64</ele>
        <time>2021-08-15T13:54:49Z</time>
      </trkpt>
      <trkpt lat="45.18838" lon="2.86237">
        <ele>1155.64</ele>
        <time>2021-08-15T13:54:50Z</time>
      </trkpt>
      <trkpt lat="45.18839" lon="2.86228">
        <ele>1155.16</ele>
        <time>2021-08-15T13:54:51Z</time>
      </trkpt>
      <trkpt lat="45.18846" lon="2.862">
        <ele>1154.68</ele>
        <time>2021-08-15T13:54:54Z</time>
      </trkpt>
      <trkpt lat="45.18858" lon="2.86126">
        <ele>1151.8</ele>
        <time>2021-08-15T13:55:02Z</time>
      </trkpt>
      <trkpt lat="45.1886" lon="2.86116">
        <ele>1151.32</ele>
        <time>2021-08-15T13:55:03Z</time>
      </trkpt>
      <trkpt lat="45.18868" lon="2.86063">
        <ele>1151.8</ele>
        <time>2021-08-15T13:55:09Z</time>
      </trkpt>
      <trkpt lat="45.18872" lon="2.86042">
        <ele>1151.8</ele>
        <time>2021-08-15T13:55:12Z</time>
      </trkpt>
      <trkpt lat="45.18872" lon="2.86035">
        <ele>1151.8</ele>
        <time>2021-08-15T13:55:13Z</time>
      </trkpt>
      <trkpt lat="45.18871" lon="2.86028">
        <ele>1151.8</ele>
        <time>2021-08-15T13:55:14Z</time>
      </trkpt>
      <trkpt lat="45.18869" lon="2.86022">
        <ele>1151.8</ele>
        <time>2021-08-15T13:55:15Z</time>
      </trkpt>
      <trkpt lat="45.18865" lon="2.86018">
        <ele>1151.8</ele>
        <time>2021-08-15T13:55:16Z</time>
      </trkpt>
      <trkpt lat="45.18861" lon="2.86016">
        <ele>1151.8</ele>
        <time>2021-08-15T13:55:17Z</time>
      </trkpt>
      <trkpt lat="45.18858" lon="2.86016">
        <ele>1151.8</ele>
        <time>2021-08-15T13:55:18Z</time>
      </trkpt>
      <trkpt lat="45.18854" lon="2.86017">
        <ele>1151.8</ele>
        <time>2021-08-15T13:55:19Z</time>
      </trkpt>
      <trkpt lat="45.18851" lon="2.86017">
        <ele>1152.76</ele>
        <time>2021-08-15T13:55:20Z</time>
      </trkpt>
      <trkpt lat="45.18846" lon="2.86018">
        <ele>1152.76</ele>
        <time>2021-08-15T13:55:21Z</time>
      </trkpt>
      <trkpt lat="45.18808" lon="2.86024">
        <ele>1153.72</ele>
        <time>2021-08-15T13:55:31Z</time>
      </trkpt>
      <trkpt lat="45.18803" lon="2.86023">
        <ele>1154.2</ele>
        <time>2021-08-15T13:55:32Z</time>
      </trkpt>
      <trkpt lat="45.18774" lon="2.86019">
        <ele>1152.76</ele>
        <time>2021-08-15T13:55:38Z</time>
      </trkpt>
      <trkpt lat="45.18752" lon="2.86015">
        <ele>1152.28</ele>
        <time>2021-08-15T13:55:42Z</time>
      </trkpt>
      <trkpt lat="45.18747" lon="2.86013">
        <ele>1152.28</ele>
        <time>2021-08-15T13:55:43Z</time>
      </trkpt>
      <trkpt lat="45.18742" lon="2.86009">
        <ele>1151.8</ele>
        <time>2021-08-15T13:55:44Z</time>
      </trkpt>
      <trkpt lat="45.18738" lon="2.86005">
        <ele>1151.8</ele>
        <time>2021-08-15T13:55:45Z</time>
      </trkpt>
      <trkpt lat="45.18734" lon="2.86">
        <ele>1150.84</ele>
        <time>2021-08-15T13:55:46Z</time>
      </trkpt>
      <trkpt lat="45.1873" lon="2.85994">
        <ele>1150.84</ele>
        <time>2021-08-15T13:55:47Z</time>
      </trkpt>
      <trkpt lat="45.18707" lon="2.85955">
        <ele>1147.95</ele>
        <time>2021-08-15T13:55:52Z</time>
      </trkpt>
      <trkpt lat="45.18698" lon="2.85937">
        <ele>1146.99</ele>
        <time>2021-08-15T13:55:54Z</time>
      </trkpt>
      <trkpt lat="45.18677" lon="2.85897">
        <ele>1144.11</ele>
        <time>2021-08-15T13:55:58Z</time>
      </trkpt>
      <trkpt lat="45.18648" lon="2.85824">
        <ele>1140.26</ele>
        <time>2021-08-15T13:56:04Z</time>
      </trkpt>
      <trkpt lat="45.18631" lon="2.85766">
        <ele>1136.42</ele>
        <time>2021-08-15T13:56:08Z</time>
      </trkpt>
      <trkpt lat="45.18616" lon="2.85703">
        <ele>1132.09</ele>
        <time>2021-08-15T13:56:12Z</time>
      </trkpt>
      <trkpt lat="45.18608" lon="2.85672">
        <ele>1131.61</ele>
        <time>2021-08-15T13:56:14Z</time>
      </trkpt>
      <trkpt lat="45.18583" lon="2.85602">
        <ele>1128.24</ele>
        <time>2021-08-15T13:56:19Z</time>
      </trkpt>
      <trkpt lat="45.18561" lon="2.85548">
        <ele>1125.84</ele>
        <time>2021-08-15T13:56:23Z</time>
      </trkpt>
      <trkpt lat="45.18524" lon="2.85456">
        <ele>1122.96</ele>
        <time>2021-08-15T13:56:30Z</time>
      </trkpt>
      <trkpt lat="45.18493" lon="2.85399">
        <ele>1120.55</ele>
        <time>2021-08-15T13:56:35Z</time>
      </trkpt>
      <trkpt lat="45.18477" lon="2.85369">
        <ele>1118.63</ele>
        <time>2021-08-15T13:56:38Z</time>
      </trkpt>
      <trkpt lat="45.18472" lon="2.85355">
        <ele>1117.67</ele>
        <time>2021-08-15T13:56:39Z</time>
      </trkpt>
      <trkpt lat="45.18468" lon="2.85341">
        <ele>1117.19</ele>
        <time>2021-08-15T13:56:40Z</time>
      </trkpt>
      <trkpt lat="45.18462" lon="2.8531">
        <ele>1115.75</ele>
        <time>2021-08-15T13:56:42Z</time>
      </trkpt>
      <trkpt lat="45.18452" lon="2.85282">
        <ele>1114.79</ele>
        <time>2021-08-15T13:56:44Z</time>
      </trkpt>
      <trkpt lat="45.18445" lon="2.85251">
        <ele>1113.82</ele>
        <time>2021-08-15T13:56:46Z</time>
      </trkpt>
      <trkpt lat="45.18426" lon="2.8518">
        <ele>1110.46</ele>
        <time>2021-08-15T13:56:51Z</time>
      </trkpt>
      <trkpt lat="45.18414" lon="2.85106">
        <ele>1108.06</ele>
        <time>2021-08-15T13:56:56Z</time>
      </trkpt>
      <trkpt lat="45.184" lon="2.85028">
        <ele>1105.17</ele>
        <time>2021-08-15T13:57:02Z</time>
      </trkpt>
      <trkpt lat="45.1837" lon="2.84914">
        <ele>1102.77</ele>
        <time>2021-08-15T13:57:11Z</time>
      </trkpt>
      <trkpt lat="45.18354" lon="2.84823">
        <ele>1099.4</ele>
        <time>2021-08-15T13:57:18Z</time>
      </trkpt>
      <trkpt lat="45.18345" lon="2.84766">
        <ele>1095.56</ele>
        <time>2021-08-15T13:57:22Z</time>
      </trkpt>
      <trkpt lat="45.18332" lon="2.84706">
        <ele>1092.68</ele>
        <time>2021-08-15T13:57:26Z</time>
      </trkpt>
      <trkpt lat="45.18311" lon="2.84648">
        <ele>1089.31</ele>
        <time>2021-08-15T13:57:30Z</time>
      </trkpt>
      <trkpt lat="45.18296" lon="2.84604">
        <ele>1087.87</ele>
        <time>2021-08-15T13:57:33Z</time>
      </trkpt>
      <trkpt lat="45.18277" lon="2.84545">
        <ele>1084.5</ele>
        <time>2021-08-15T13:57:37Z</time>
      </trkpt>
      <trkpt lat="45.18241" lon="2.84461">
        <ele>1080.66</ele>
        <time>2021-08-15T13:57:43Z</time>
      </trkpt>
      <trkpt lat="45.18217" lon="2.84408">
        <ele>1076.81</ele>
        <time>2021-08-15T13:57:47Z</time>
      </trkpt>
      <trkpt lat="45.18199" lon="2.84368">
        <ele>1075.37</ele>
        <time>2021-08-15T13:57:50Z</time>
      </trkpt>
      <trkpt lat="45.18174" lon="2.84314">
        <ele>1072.49</ele>
        <time>2021-08-15T13:57:54Z</time>
      </trkpt>
      <trkpt lat="45.18155" lon="2.84274">
        <ele>1071.05</ele>
        <time>2021-08-15T13:57:57Z</time>
      </trkpt>
      <trkpt lat="45.18126" lon="2.84224">
        <ele>1068.64</ele>
        <time>2021-08-15T13:58:01Z</time>
      </trkpt>
      <trkpt lat="45.18117" lon="2.84213">
        <ele>1068.64</ele>
        <time>2021-08-15T13:58:02Z</time>
      </trkpt>
      <trkpt lat="45.18073" lon="2.84165">
        <ele>1065.28</ele>
        <time>2021-08-15T13:58:07Z</time>
      </trkpt>
      <trkpt lat="45.18064" lon="2.84155">
        <ele>1065.28</ele>
        <time>2021-08-15T13:58:08Z</time>
      </trkpt>
      <trkpt lat="45.18037" lon="2.84126">
        <ele>1061.91</ele>
        <time>2021-08-15T13:58:11Z</time>
      </trkpt>
      <trkpt lat="45.17972" lon="2.84052">
        <ele>1059.99</ele>
        <time>2021-08-15T13:58:19Z</time>
      </trkpt>
      <trkpt lat="45.17915" lon="2.83988">
        <ele>1059.03</ele>
        <time>2021-08-15T13:58:27Z</time>
      </trkpt>
      <trkpt lat="45.17905" lon="2.83975">
        <ele>1059.03</ele>
        <time>2021-08-15T13:58:29Z</time>
      </trkpt>
      <trkpt lat="45.17901" lon="2.83967">
        <ele>1059.03</ele>
        <time>2021-08-15T13:58:30Z</time>
      </trkpt>
      <trkpt lat="45.17901" lon="2.83959">
        <ele>1058.55</ele>
        <time>2021-08-15T13:58:31Z</time>
      </trkpt>
      <trkpt lat="45.17901" lon="2.8395">
        <ele>1058.55</ele>
        <time>2021-08-15T13:58:32Z</time>
      </trkpt>
      <trkpt lat="45.17902" lon="2.83944">
        <ele>1058.55</ele>
        <time>2021-08-15T13:58:33Z</time>
      </trkpt>
      <trkpt lat="45.17902" lon="2.83928">
        <ele>1058.55</ele>
        <time>2021-08-15T13:58:36Z</time>
      </trkpt>
      <trkpt lat="45.179" lon="2.83925">
        <ele>1058.55</ele>
        <time>2021-08-15T13:58:37Z</time>
      </trkpt>
      <trkpt lat="45.17897" lon="2.83921">
        <ele>1058.55</ele>
        <time>2021-08-15T13:58:38Z</time>
      </trkpt>
      <trkpt lat="45.17895" lon="2.83919">
        <ele>1058.55</ele>
        <time>2021-08-15T13:58:39Z</time>
      </trkpt>
      <trkpt lat="45.17891" lon="2.83917">
        <ele>1058.55</ele>
        <time>2021-08-15T13:58:40Z</time>
      </trkpt>
      <trkpt lat="45.17887" lon="2.83915">
        <ele>1058.55</ele>
        <time>2021-08-15T13:58:41Z</time>
      </trkpt>
      <trkpt lat="45.17861" lon="2.839">
        <ele>1059.99</ele>
        <time>2021-08-15T13:58:48Z</time>
      </trkpt>
      <trkpt lat="45.17831" lon="2.8388">
        <ele>1061.43</ele>
        <time>2021-08-15T13:58:57Z</time>
      </trkpt>
      <trkpt lat="45.17802" lon="2.83863">
        <ele>1062.39</ele>
        <time>2021-08-15T13:59:06Z</time>
      </trkpt>
      <trkpt lat="45.17764" lon="2.83839">
        <ele>1062.87</ele>
        <time>2021-08-15T13:59:18Z</time>
      </trkpt>
      <trkpt lat="45.17728" lon="2.83817">
        <ele>1064.8</ele>
        <time>2021-08-15T13:59:29Z</time>
      </trkpt>
      <trkpt lat="45.17684" lon="2.83793">
        <ele>1066.24</ele>
        <time>2021-08-15T13:59:42Z</time>
      </trkpt>
      <trkpt lat="45.17653" lon="2.83777">
        <ele>1067.2</ele>
        <time>2021-08-15T13:59:52Z</time>
      </trkpt>
      <trkpt lat="45.17625" lon="2.83762">
        <ele>1068.64</ele>
        <time>2021-08-15T14:00:01Z</time>
      </trkpt>
      <trkpt lat="45.17586" lon="2.83747">
        <ele>1069.12</ele>
        <time>2021-08-15T14:00:13Z</time>
      </trkpt>
      <trkpt lat="45.17554" lon="2.83734">
        <ele>1070.57</ele>
        <time>2021-08-15T14:00:23Z</time>
      </trkpt>
      <trkpt lat="45.1752" lon="2.83724">
        <ele>1071.05</ele>
        <time>2021-08-15T14:00:33Z</time>
      </trkpt>
      <trkpt lat="45.17497" lon="2.83716">
        <ele>1072.01</ele>
        <time>2021-08-15T14:00:40Z</time>
      </trkpt>
      <trkpt lat="45.17469" lon="2.83709">
        <ele>1073.45</ele>
        <time>2021-08-15T14:00:49Z</time>
      </trkpt>
      <trkpt lat="45.17436" lon="2.83701">
        <ele>1074.41</ele>
        <time>2021-08-15T14:00:59Z</time>
      </trkpt>
      <trkpt lat="45.17392" lon="2.8369">
        <ele>1075.37</ele>
        <time>2021-08-15T14:01:12Z</time>
      </trkpt>
      <trkpt lat="45.17354" lon="2.83682">
        <ele>1076.33</ele>
        <time>2021-08-15T14:01:23Z</time>
      </trkpt>
      <trkpt lat="45.17323" lon="2.83677">
        <ele>1076.81</ele>
        <time>2021-08-15T14:01:32Z</time>
      </trkpt>
      <trkpt lat="45.17319" lon="2.83677">
        <ele>1077.29</ele>
        <time>2021-08-15T14:01:33Z</time>
      </trkpt>
      <trkpt lat="45.17289" lon="2.83674">
        <ele>1078.26</ele>
        <time>2021-08-15T14:01:42Z</time>
      </trkpt>
      <trkpt lat="45.1725" lon="2.83675">
        <ele>1079.7</ele>
        <time>2021-08-15T14:01:53Z</time>
      </trkpt>
      <trkpt lat="45.17218" lon="2.83676">
        <ele>1080.66</ele>
        <time>2021-08-15T14:02:02Z</time>
      </trkpt>
      <trkpt lat="45.17183" lon="2.83679">
        <ele>1081.14</ele>
        <time>2021-08-15T14:02:11Z</time>
      </trkpt>
      <trkpt lat="45.17156" lon="2.83682">
        <ele>1082.58</ele>
        <time>2021-08-15T14:02:18Z</time>
      </trkpt>
      <trkpt lat="45.17124" lon="2.83681">
        <ele>1083.54</ele>
        <time>2021-08-15T14:02:27Z</time>
      </trkpt>
      <trkpt lat="45.1709" lon="2.83677">
        <ele>1084.02</ele>
        <time>2021-08-15T14:02:37Z</time>
      </trkpt>
      <trkpt lat="45.17052" lon="2.83667">
        <ele>1085.95</ele>
        <time>2021-08-15T14:02:48Z</time>
      </trkpt>
      <trkpt lat="45.17018" lon="2.83654">
        <ele>1087.39</ele>
        <time>2021-08-15T14:02:58Z</time>
      </trkpt>
      <trkpt lat="45.16984" lon="2.83641">
        <ele>1088.35</ele>
        <time>2021-08-15T14:03:08Z</time>
      </trkpt>
      <trkpt lat="45.16954" lon="2.83629">
        <ele>1089.31</ele>
        <time>2021-08-15T14:03:17Z</time>
      </trkpt>
      <trkpt lat="45.1692" lon="2.83616">
        <ele>1090.75</ele>
        <time>2021-08-15T14:03:27Z</time>
      </trkpt>
      <trkpt lat="45.16881" lon="2.83599">
        <ele>1091.71</ele>
        <time>2021-08-15T14:03:38Z</time>
      </trkpt>
      <trkpt lat="45.16848" lon="2.83583">
        <ele>1093.16</ele>
        <time>2021-08-15T14:03:48Z</time>
      </trkpt>
      <trkpt lat="45.16819" lon="2.83566">
        <ele>1093.64</ele>
        <time>2021-08-15T14:03:57Z</time>
      </trkpt>
      <trkpt lat="45.16793" lon="2.8355">
        <ele>1094.6</ele>
        <time>2021-08-15T14:04:05Z</time>
      </trkpt>
      <trkpt lat="45.16765" lon="2.8353">
        <ele>1095.56</ele>
        <time>2021-08-15T14:04:14Z</time>
      </trkpt>
      <trkpt lat="45.16739" lon="2.83506">
        <ele>1096.04</ele>
        <time>2021-08-15T14:04:23Z</time>
      </trkpt>
      <trkpt lat="45.16733" lon="2.83484">
        <ele>1096.52</ele>
        <time>2021-08-15T14:04:28Z</time>
      </trkpt>
      <trkpt lat="45.16734" lon="2.83473">
        <ele>1096.52</ele>
        <time>2021-08-15T14:04:30Z</time>
      </trkpt>
      <trkpt lat="45.16734" lon="2.83467">
        <ele>1096.52</ele>
        <time>2021-08-15T14:04:31Z</time>
      </trkpt>
      <trkpt lat="45.16732" lon="2.8346">
        <ele>1095.08</ele>
        <time>2021-08-15T14:04:32Z</time>
      </trkpt>
      <trkpt lat="45.16729" lon="2.83453">
        <ele>1095.08</ele>
        <time>2021-08-15T14:04:33Z</time>
      </trkpt>
      <trkpt lat="45.16725" lon="2.83447">
        <ele>1094.6</ele>
        <time>2021-08-15T14:04:34Z</time>
      </trkpt>
      <trkpt lat="45.16721" lon="2.83441">
        <ele>1094.6</ele>
        <time>2021-08-15T14:04:35Z</time>
      </trkpt>
      <trkpt lat="45.16715" lon="2.83435">
        <ele>1093.64</ele>
        <time>2021-08-15T14:04:36Z</time>
      </trkpt>
      <trkpt lat="45.16703" lon="2.83424">
        <ele>1092.2</ele>
        <time>2021-08-15T14:04:38Z</time>
      </trkpt>
      <trkpt lat="45.16697" lon="2.83416">
        <ele>1091.71</ele>
        <time>2021-08-15T14:04:39Z</time>
      </trkpt>
      <trkpt lat="45.16691" lon="2.83407">
        <ele>1090.75</ele>
        <time>2021-08-15T14:04:40Z</time>
      </trkpt>
      <trkpt lat="45.16687" lon="2.83398">
        <ele>1090.27</ele>
        <time>2021-08-15T14:04:41Z</time>
      </trkpt>
      <trkpt lat="45.16682" lon="2.83387">
        <ele>1089.79</ele>
        <time>2021-08-15T14:04:42Z</time>
      </trkpt>
      <trkpt lat="45.16648" lon="2.83315">
        <ele>1086.43</ele>
        <time>2021-08-15T14:04:49Z</time>
      </trkpt>
      <trkpt lat="45.16623" lon="2.83257">
        <ele>1083.06</ele>
        <time>2021-08-15T14:04:54Z</time>
      </trkpt>
      <trkpt lat="45.166" lon="2.83193">
        <ele>1079.7</ele>
        <time>2021-08-15T14:04:59Z</time>
      </trkpt>
      <trkpt lat="45.16587" lon="2.83135">
        <ele>1076.33</ele>
        <time>2021-08-15T14:05:03Z</time>
      </trkpt>
      <trkpt lat="45.16566" lon="2.83046">
        <ele>1072.97</ele>
        <time>2021-08-15T14:05:09Z</time>
      </trkpt>
      <trkpt lat="45.16558" lon="2.83019">
        <ele>1071.53</ele>
        <time>2021-08-15T14:05:11Z</time>
      </trkpt>
      <trkpt lat="45.16552" lon="2.83005">
        <ele>1070.57</ele>
        <time>2021-08-15T14:05:12Z</time>
      </trkpt>
      <trkpt lat="45.16541" lon="2.82981">
        <ele>1069.6</ele>
        <time>2021-08-15T14:05:14Z</time>
      </trkpt>
      <trkpt lat="45.16535" lon="2.8297">
        <ele>1068.16</ele>
        <time>2021-08-15T14:05:15Z</time>
      </trkpt>
      <trkpt lat="45.16528" lon="2.82959">
        <ele>1068.16</ele>
        <time>2021-08-15T14:05:16Z</time>
      </trkpt>
      <trkpt lat="45.16521" lon="2.8295">
        <ele>1067.68</ele>
        <time>2021-08-15T14:05:17Z</time>
      </trkpt>
      <trkpt lat="45.16513" lon="2.82943">
        <ele>1067.68</ele>
        <time>2021-08-15T14:05:18Z</time>
      </trkpt>
      <trkpt lat="45.16504" lon="2.82937">
        <ele>1067.68</ele>
        <time>2021-08-15T14:05:19Z</time>
      </trkpt>
      <trkpt lat="45.16495" lon="2.82931">
        <ele>1066.24</ele>
        <time>2021-08-15T14:05:20Z</time>
      </trkpt>
      <trkpt lat="45.16487" lon="2.82924">
        <ele>1066.24</ele>
        <time>2021-08-15T14:05:21Z</time>
      </trkpt>
      <trkpt lat="45.1648" lon="2.82916">
        <ele>1066.24</ele>
        <time>2021-08-15T14:05:22Z</time>
      </trkpt>
      <trkpt lat="45.16473" lon="2.82908">
        <ele>1065.28</ele>
        <time>2021-08-15T14:05:23Z</time>
      </trkpt>
      <trkpt lat="45.16465" lon="2.82898">
        <ele>1064.8</ele>
        <time>2021-08-15T14:05:24Z</time>
      </trkpt>
      <trkpt lat="45.16459" lon="2.82887">
        <ele>1063.84</ele>
        <time>2021-08-15T14:05:25Z</time>
      </trkpt>
      <trkpt lat="45.16453" lon="2.82875">
        <ele>1062.87</ele>
        <time>2021-08-15T14:05:26Z</time>
      </trkpt>
      <trkpt lat="45.16432" lon="2.82825">
        <ele>1059.51</ele>
        <time>2021-08-15T14:05:30Z</time>
      </trkpt>
      <trkpt lat="45.16398" lon="2.8275">
        <ele>1056.63</ele>
        <time>2021-08-15T14:05:36Z</time>
      </trkpt>
      <trkpt lat="45.16353" lon="2.82659">
        <ele>1054.7</ele>
        <time>2021-08-15T14:05:44Z</time>
      </trkpt>
      <trkpt lat="45.16341" lon="2.82642">
        <ele>1055.67</ele>
        <time>2021-08-15T14:05:46Z</time>
      </trkpt>
      <trkpt lat="45.16337" lon="2.82634">
        <ele>1056.63</ele>
        <time>2021-08-15T14:05:47Z</time>
      </trkpt>
      <trkpt lat="45.16333" lon="2.82626">
        <ele>1056.63</ele>
        <time>2021-08-15T14:05:48Z</time>
      </trkpt>
      <trkpt lat="45.1633" lon="2.82618">
        <ele>1056.63</ele>
        <time>2021-08-15T14:05:49Z</time>
      </trkpt>
      <trkpt lat="45.16329" lon="2.82608">
        <ele>1056.63</ele>
        <time>2021-08-15T14:05:50Z</time>
      </trkpt>
      <trkpt lat="45.16327" lon="2.82599">
        <ele>1056.63</ele>
        <time>2021-08-15T14:05:51Z</time>
      </trkpt>
      <trkpt lat="45.16327" lon="2.82592">
        <ele>1057.11</ele>
        <time>2021-08-15T14:05:52Z</time>
      </trkpt>
      <trkpt lat="45.16327" lon="2.82584">
        <ele>1057.11</ele>
        <time>2021-08-15T14:05:53Z</time>
      </trkpt>
      <trkpt lat="45.16328" lon="2.82535">
        <ele>1057.59</ele>
        <time>2021-08-15T14:06:00Z</time>
      </trkpt>
      <trkpt lat="45.16326" lon="2.82475">
        <ele>1057.59</ele>
        <time>2021-08-15T14:06:09Z</time>
      </trkpt>
      <trkpt lat="45.16321" lon="2.8245">
        <ele>1057.59</ele>
        <time>2021-08-15T14:06:13Z</time>
      </trkpt>
      <trkpt lat="45.1632" lon="2.82444">
        <ele>1057.59</ele>
        <time>2021-08-15T14:06:14Z</time>
      </trkpt>
      <trkpt lat="45.16317" lon="2.82438">
        <ele>1057.59</ele>
        <time>2021-08-15T14:06:15Z</time>
      </trkpt>
      <trkpt lat="45.16314" lon="2.82433">
        <ele>1057.59</ele>
        <time>2021-08-15T14:06:16Z</time>
      </trkpt>
      <trkpt lat="45.16312" lon="2.82429">
        <ele>1057.59</ele>
        <time>2021-08-15T14:06:17Z</time>
      </trkpt>
      <trkpt lat="45.16306" lon="2.8242">
        <ele>1058.07</ele>
        <time>2021-08-15T14:06:19Z</time>
      </trkpt>
      <trkpt lat="45.16298" lon="2.82408">
        <ele>1058.07</ele>
        <time>2021-08-15T14:06:22Z</time>
      </trkpt>
      <trkpt lat="45.16275" lon="2.82369">
        <ele>1059.03</ele>
        <time>2021-08-15T14:06:32Z</time>
      </trkpt>
      <trkpt lat="45.16254" lon="2.82331">
        <ele>1059.51</ele>
        <time>2021-08-15T14:06:42Z</time>
      </trkpt>
      <trkpt lat="45.16243" lon="2.82295">
        <ele>1059.99</ele>
        <time>2021-08-15T14:06:50Z</time>
      </trkpt>
      <trkpt lat="45.1624" lon="2.8226">
        <ele>1059.99</ele>
        <time>2021-08-15T14:06:57Z</time>
      </trkpt>
      <trkpt lat="45.16242" lon="2.82211">
        <ele>1060.47</ele>
        <time>2021-08-15T14:07:06Z</time>
      </trkpt>
      <trkpt lat="45.16239" lon="2.82174">
        <ele>1059.03</ele>
        <time>2021-08-15T14:07:12Z</time>
      </trkpt>
      <trkpt lat="45.16237" lon="2.82168">
        <ele>1059.03</ele>
        <time>2021-08-15T14:07:13Z</time>
      </trkpt>
      <trkpt lat="45.16233" lon="2.82154">
        <ele>1058.07</ele>
        <time>2021-08-15T14:07:15Z</time>
      </trkpt>
      <trkpt lat="45.1623" lon="2.82147">
        <ele>1057.59</ele>
        <time>2021-08-15T14:07:16Z</time>
      </trkpt>
      <trkpt lat="45.16208" lon="2.82092">
        <ele>1055.18</ele>
        <time>2021-08-15T14:07:23Z</time>
      </trkpt>
      <trkpt lat="45.16206" lon="2.82084">
        <ele>1055.18</ele>
        <time>2021-08-15T14:07:24Z</time>
      </trkpt>
      <trkpt lat="45.16205" lon="2.82073">
        <ele>1053.74</ele>
        <time>2021-08-15T14:07:25Z</time>
      </trkpt>
      <trkpt lat="45.16205" lon="2.82062">
        <ele>1053.74</ele>
        <time>2021-08-15T14:07:26Z</time>
      </trkpt>
      <trkpt lat="45.16206" lon="2.82052">
        <ele>1053.74</ele>
        <time>2021-08-15T14:07:27Z</time>
      </trkpt>
      <trkpt lat="45.16208" lon="2.82041">
        <ele>1053.74</ele>
        <time>2021-08-15T14:07:28Z</time>
      </trkpt>
      <trkpt lat="45.1621" lon="2.82033">
        <ele>1052.78</ele>
        <time>2021-08-15T14:07:29Z</time>
      </trkpt>
      <trkpt lat="45.16213" lon="2.82015">
        <ele>1052.78</ele>
        <time>2021-08-15T14:07:31Z</time>
      </trkpt>
      <trkpt lat="45.16214" lon="2.82005">
        <ele>1052.78</ele>
        <time>2021-08-15T14:07:32Z</time>
      </trkpt>
      <trkpt lat="45.16215" lon="2.81996">
        <ele>1052.78</ele>
        <time>2021-08-15T14:07:33Z</time>
      </trkpt>
      <trkpt lat="45.16213" lon="2.81969">
        <ele>1052.3</ele>
        <time>2021-08-15T14:07:36Z</time>
      </trkpt>
      <trkpt lat="45.16208" lon="2.81906">
        <ele>1051.82</ele>
        <time>2021-08-15T14:07:43Z</time>
      </trkpt>
      <trkpt lat="45.16209" lon="2.81897">
        <ele>1051.82</ele>
        <time>2021-08-15T14:07:44Z</time>
      </trkpt>
      <trkpt lat="45.1621" lon="2.81888">
        <ele>1051.82</ele>
        <time>2021-08-15T14:07:45Z</time>
      </trkpt>
      <trkpt lat="45.16217" lon="2.81864">
        <ele>1051.82</ele>
        <time>2021-08-15T14:07:48Z</time>
      </trkpt>
      <trkpt lat="45.1622" lon="2.81856">
        <ele>1051.82</ele>
        <time>2021-08-15T14:07:49Z</time>
      </trkpt>
      <trkpt lat="45.16222" lon="2.8185">
        <ele>1051.82</ele>
        <time>2021-08-15T14:07:50Z</time>
      </trkpt>
      <trkpt lat="45.16241" lon="2.818">
        <ele>1051.82</ele>
        <time>2021-08-15T14:07:58Z</time>
      </trkpt>
      <trkpt lat="45.1626" lon="2.8175">
        <ele>1051.34</ele>
        <time>2021-08-15T14:08:05Z</time>
      </trkpt>
      <trkpt lat="45.16291" lon="2.81671">
        <ele>1049.9</ele>
        <time>2021-08-15T14:08:15Z</time>
      </trkpt>
      <trkpt lat="45.16296" lon="2.81658">
        <ele>1051.34</ele>
        <time>2021-08-15T14:08:17Z</time>
      </trkpt>
      <trkpt lat="45.1631" lon="2.81618">
        <ele>1051.82</ele>
        <time>2021-08-15T14:08:24Z</time>
      </trkpt>
      <trkpt lat="45.16312" lon="2.81613">
        <ele>1051.82</ele>
        <time>2021-08-15T14:08:25Z</time>
      </trkpt>
      <trkpt lat="45.16313" lon="2.81607">
        <ele>1052.3</ele>
        <time>2021-08-15T14:08:26Z</time>
      </trkpt>
      <trkpt lat="45.16315" lon="2.81602">
        <ele>1052.3</ele>
        <time>2021-08-15T14:08:27Z</time>
      </trkpt>
      <trkpt lat="45.16316" lon="2.81597">
        <ele>1052.3</ele>
        <time>2021-08-15T14:08:28Z</time>
      </trkpt>
      <trkpt lat="45.16318" lon="2.81556">
        <ele>1052.78</ele>
        <time>2021-08-15T14:08:36Z</time>
      </trkpt>
      <trkpt lat="45.16311" lon="2.81506">
        <ele>1052.78</ele>
        <time>2021-08-15T14:08:45Z</time>
      </trkpt>
      <trkpt lat="45.16301" lon="2.8147">
        <ele>1053.26</ele>
        <time>2021-08-15T14:08:53Z</time>
      </trkpt>
      <trkpt lat="45.16288" lon="2.81443">
        <ele>1053.26</ele>
        <time>2021-08-15T14:08:59Z</time>
      </trkpt>
      <trkpt lat="45.16265" lon="2.81395">
        <ele>1053.26</ele>
        <time>2021-08-15T14:09:09Z</time>
      </trkpt>
      <trkpt lat="45.16237" lon="2.81343">
        <ele>1053.26</ele>
        <time>2021-08-15T14:09:20Z</time>
      </trkpt>
      <trkpt lat="45.16232" lon="2.81332">
        <ele>1053.26</ele>
        <time>2021-08-15T14:09:22Z</time>
      </trkpt>
      <trkpt lat="45.16216" lon="2.81288">
        <ele>1053.26</ele>
        <time>2021-08-15T14:09:31Z</time>
      </trkpt>
      <trkpt lat="45.16207" lon="2.81251">
        <ele>1053.26</ele>
        <time>2021-08-15T14:09:38Z</time>
      </trkpt>
      <trkpt lat="45.16205" lon="2.81196">
        <ele>1052.78</ele>
        <time>2021-08-15T14:09:47Z</time>
      </trkpt>
      <trkpt lat="45.16205" lon="2.81189">
        <ele>1052.78</ele>
        <time>2021-08-15T14:09:48Z</time>
      </trkpt>
      <trkpt lat="45.16206" lon="2.81183">
        <ele>1052.78</ele>
        <time>2021-08-15T14:09:49Z</time>
      </trkpt>
      <trkpt lat="45.16205" lon="2.81106">
        <ele>1052.78</ele>
        <time>2021-08-15T14:10:00Z</time>
      </trkpt>
      <trkpt lat="45.16205" lon="2.81093">
        <ele>1052.78</ele>
        <time>2021-08-15T14:10:02Z</time>
      </trkpt>
      <trkpt lat="45.16204" lon="2.81058">
        <ele>1052.78</ele>
        <time>2021-08-15T14:10:07Z</time>
      </trkpt>
      <trkpt lat="45.16202" lon="2.81044">
        <ele>1052.78</ele>
        <time>2021-08-15T14:10:09Z</time>
      </trkpt>
      <trkpt lat="45.16202" lon="2.81037">
        <ele>1052.78</ele>
        <time>2021-08-15T14:10:10Z</time>
      </trkpt>
      <trkpt lat="45.16196" lon="2.80991">
        <ele>1051.82</ele>
        <time>2021-08-15T14:10:17Z</time>
      </trkpt>
      <trkpt lat="45.16187" lon="2.80922">
        <ele>1051.82</ele>
        <time>2021-08-15T14:10:27Z</time>
      </trkpt>
      <trkpt lat="45.16186" lon="2.80916">
        <ele>1051.82</ele>
        <time>2021-08-15T14:10:28Z</time>
      </trkpt>
      <trkpt lat="45.16177" lon="2.80857">
        <ele>1051.82</ele>
        <time>2021-08-15T14:10:37Z</time>
      </trkpt>
      <trkpt lat="45.16169" lon="2.80828">
        <ele>1053.26</ele>
        <time>2021-08-15T14:10:42Z</time>
      </trkpt>
      <trkpt lat="45.16161" lon="2.80795">
        <ele>1054.22</ele>
        <time>2021-08-15T14:10:49Z</time>
      </trkpt>
      <trkpt lat="45.16152" lon="2.80759">
        <ele>1055.18</ele>
        <time>2021-08-15T14:10:56Z</time>
      </trkpt>
      <trkpt lat="45.16147" lon="2.80707">
        <ele>1056.63</ele>
        <time>2021-08-15T14:11:06Z</time>
      </trkpt>
      <trkpt lat="45.16145" lon="2.80667">
        <ele>1057.11</ele>
        <time>2021-08-15T14:11:16Z</time>
      </trkpt>
      <trkpt lat="45.16142" lon="2.80644">
        <ele>1058.07</ele>
        <time>2021-08-15T14:11:22Z</time>
      </trkpt>
      <trkpt lat="45.16135" lon="2.80608">
        <ele>1058.07</ele>
        <time>2021-08-15T14:11:30Z</time>
      </trkpt>
      <trkpt lat="45.16129" lon="2.80576">
        <ele>1058.07</ele>
        <time>2021-08-15T14:11:36Z</time>
      </trkpt>
      <trkpt lat="45.16122" lon="2.80532">
        <ele>1058.07</ele>
        <time>2021-08-15T14:11:44Z</time>
      </trkpt>
      <trkpt lat="45.16113" lon="2.8048">
        <ele>1058.07</ele>
        <time>2021-08-15T14:11:53Z</time>
      </trkpt>
      <trkpt lat="45.16102" lon="2.8042">
        <ele>1058.55</ele>
        <time>2021-08-15T14:12:03Z</time>
      </trkpt>
      <trkpt lat="45.16088" lon="2.80363">
        <ele>1058.55</ele>
        <time>2021-08-15T14:12:12Z</time>
      </trkpt>
      <trkpt lat="45.1607" lon="2.80303">
        <ele>1057.11</ele>
        <time>2021-08-15T14:12:21Z</time>
      </trkpt>
      <trkpt lat="45.16049" lon="2.80247">
        <ele>1056.63</ele>
        <time>2021-08-15T14:12:30Z</time>
      </trkpt>
      <trkpt lat="45.16024" lon="2.80193">
        <ele>1057.59</ele>
        <time>2021-08-15T14:12:40Z</time>
      </trkpt>
      <trkpt lat="45.16007" lon="2.80145">
        <ele>1057.59</ele>
        <time>2021-08-15T14:12:48Z</time>
      </trkpt>
      <trkpt lat="45.15999" lon="2.80083">
        <ele>1057.59</ele>
        <time>2021-08-15T14:12:57Z</time>
      </trkpt>
      <trkpt lat="45.15988" lon="2.80006">
        <ele>1057.59</ele>
        <time>2021-08-15T14:13:08Z</time>
      </trkpt>
      <trkpt lat="45.15978" lon="2.79954">
        <ele>1057.59</ele>
        <time>2021-08-15T14:13:16Z</time>
      </trkpt>
      <trkpt lat="45.15963" lon="2.79905">
        <ele>1058.07</ele>
        <time>2021-08-15T14:13:24Z</time>
      </trkpt>
      <trkpt lat="45.15957" lon="2.79888">
        <ele>1058.07</ele>
        <time>2021-08-15T14:13:27Z</time>
      </trkpt>
      <trkpt lat="45.15956" lon="2.79882">
        <ele>1058.07</ele>
        <time>2021-08-15T14:13:28Z</time>
      </trkpt>
      <trkpt lat="45.15951" lon="2.79864">
        <ele>1058.07</ele>
        <time>2021-08-15T14:13:31Z</time>
      </trkpt>
      <trkpt lat="45.15941" lon="2.7979">
        <ele>1058.07</ele>
        <time>2021-08-15T14:13:42Z</time>
      </trkpt>
      <trkpt lat="45.15933" lon="2.79708">
        <ele>1057.59</ele>
        <time>2021-08-15T14:13:53Z</time>
      </trkpt>
      <trkpt lat="45.15923" lon="2.79643">
        <ele>1056.63</ele>
        <time>2021-08-15T14:14:02Z</time>
      </trkpt>
      <trkpt lat="45.15922" lon="2.79636">
        <ele>1056.63</ele>
        <time>2021-08-15T14:14:03Z</time>
      </trkpt>
      <trkpt lat="45.15917" lon="2.796">
        <ele>1056.63</ele>
        <time>2021-08-15T14:14:08Z</time>
      </trkpt>
      <trkpt lat="45.15916" lon="2.79594">
        <ele>1056.63</ele>
        <time>2021-08-15T14:14:09Z</time>
      </trkpt>
      <trkpt lat="45.15913" lon="2.79587">
        <ele>1056.63</ele>
        <time>2021-08-15T14:14:10Z</time>
      </trkpt>
      <trkpt lat="45.15895" lon="2.79536">
        <ele>1058.07</ele>
        <time>2021-08-15T14:14:19Z</time>
      </trkpt>
      <trkpt lat="45.1589" lon="2.7952">
        <ele>1058.55</ele>
        <time>2021-08-15T14:14:22Z</time>
      </trkpt>
      <trkpt lat="45.1588" lon="2.79472">
        <ele>1059.51</ele>
        <time>2021-08-15T14:14:31Z</time>
      </trkpt>
      <trkpt lat="45.15872" lon="2.79421">
        <ele>1059.99</ele>
        <time>2021-08-15T14:14:40Z</time>
      </trkpt>
      <trkpt lat="45.15858" lon="2.79361">
        <ele>1060.47</ele>
        <time>2021-08-15T14:14:49Z</time>
      </trkpt>
      <trkpt lat="45.15844" lon="2.79294">
        <ele>1060.47</ele>
        <time>2021-08-15T14:14:59Z</time>
      </trkpt>
      <trkpt lat="45.15835" lon="2.79248">
        <ele>1060.95</ele>
        <time>2021-08-15T14:15:07Z</time>
      </trkpt>
      <trkpt lat="45.15823" lon="2.79188">
        <ele>1059.51</ele>
        <time>2021-08-15T14:15:16Z</time>
      </trkpt>
      <trkpt lat="45.15821" lon="2.7918">
        <ele>1059.51</ele>
        <time>2021-08-15T14:15:17Z</time>
      </trkpt>
      <trkpt lat="45.15809" lon="2.79119">
        <ele>1059.03</ele>
        <time>2021-08-15T14:15:25Z</time>
      </trkpt>
      <trkpt lat="45.15808" lon="2.79074">
        <ele>1059.03</ele>
        <time>2021-08-15T14:15:32Z</time>
      </trkpt>
      <trkpt lat="45.15807" lon="2.7902">
        <ele>1060.95</ele>
        <time>2021-08-15T14:15:41Z</time>
      </trkpt>
      <trkpt lat="45.15811" lon="2.78984">
        <ele>1061.43</ele>
        <time>2021-08-15T14:15:48Z</time>
      </trkpt>
      <trkpt lat="45.15817" lon="2.78959">
        <ele>1062.39</ele>
        <time>2021-08-15T14:15:55Z</time>
      </trkpt>
      <trkpt lat="45.15824" lon="2.78933">
        <ele>1063.84</ele>
        <time>2021-08-15T14:16:04Z</time>
      </trkpt>
      <trkpt lat="45.15831" lon="2.78915">
        <ele>1064.32</ele>
        <time>2021-08-15T14:16:11Z</time>
      </trkpt>
      <trkpt lat="45.15834" lon="2.78914">
        <ele>1064.8</ele>
        <time>2021-08-15T14:16:12Z</time>
      </trkpt>
      <trkpt lat="45.15835" lon="2.78916">
        <ele>1064.8</ele>
        <time>2021-08-15T14:16:13Z</time>
      </trkpt>
      <trkpt lat="45.15835" lon="2.78919">
        <ele>1064.8</ele>
        <time>2021-08-15T14:16:14Z</time>
      </trkpt>
      <trkpt lat="45.15834" lon="2.78922">
        <ele>1064.8</ele>
        <time>2021-08-15T14:16:15Z</time>
      </trkpt>
      <trkpt lat="45.15833" lon="2.78923">
        <ele>1064.8</ele>
        <time>2021-08-15T14:16:16Z</time>
      </trkpt>
      <trkpt lat="45.15831" lon="2.78925">
        <ele>1064.8</ele>
        <time>2021-08-15T14:16:22Z</time>
      </trkpt>
      <trkpt lat="45.1583" lon="2.78927">
        <ele>1064.8</ele>
        <time>2021-08-15T14:16:33Z</time>
      </trkpt>
      <trkpt lat="45.1583" lon="2.78927">
        <ele>1064.8</ele>
        <time>2021-08-15T14:16:37Z</time>
      </trkpt>
      <trkpt lat="45.15829" lon="2.78928">
        <ele>1064.8</ele>
        <time>2021-08-15T14:16:38Z</time>
      </trkpt>
      <trkpt lat="45.1583" lon="2.78927">
        <ele>1065.28</ele>
        <time>2021-08-15T14:16:44Z</time>
      </trkpt>
      <trkpt lat="45.15833" lon="2.78926">
        <ele>1065.28</ele>
        <time>2021-08-15T14:16:58Z</time>
      </trkpt>
      <trkpt lat="45.15833" lon="2.78926">
        <ele>1065.28</ele>
        <time>2021-08-15T14:17:10Z</time>
      </trkpt>
      <trkpt lat="45.15832" lon="2.78927">
        <ele>1064.8</ele>
        <time>2021-08-15T14:17:25Z</time>
      </trkpt>
      <trkpt lat="45.15831" lon="2.78926">
        <ele>1064.8</ele>
        <time>2021-08-15T14:17:38Z</time>
      </trkpt>
      <trkpt lat="45.15832" lon="2.78926">
        <ele>1064.8</ele>
        <time>2021-08-15T14:17:48Z</time>
      </trkpt>
      <trkpt lat="45.15832" lon="2.78926">
        <ele>1064.8</ele>
        <time>2021-08-15T14:18:00Z</time>
      </trkpt>
      <trkpt lat="45.15832" lon="2.78928">
        <ele>1064.8</ele>
        <time>2021-08-15T14:18:15Z</time>
      </trkpt>
      <trkpt lat="45.15832" lon="2.78928">
        <ele>1064.8</ele>
        <time>2021-08-15T14:18:29Z</time>
      </trkpt>
      <trkpt lat="45.15832" lon="2.78928">
        <ele>1064.8</ele>
        <time>2021-08-15T14:18:40Z</time>
      </trkpt>
      <trkpt lat="45.15832" lon="2.78926">
        <ele>1064.8</ele>
        <time>2021-08-15T14:18:53Z</time>
      </trkpt>
      <trkpt lat="45.15833" lon="2.78926">
        <ele>1064.8</ele>
        <time>2021-08-15T14:19:06Z</time>
      </trkpt>
      <trkpt lat="45.15834" lon="2.78928">
        <ele>1065.28</ele>
        <time>2021-08-15T14:19:21Z</time>
      </trkpt>
      <trkpt lat="45.15833" lon="2.78928">
        <ele>1065.28</ele>
        <time>2021-08-15T14:19:34Z</time>
      </trkpt>
      <trkpt lat="45.15832" lon="2.78927">
        <ele>1065.28</ele>
        <time>2021-08-15T14:19:49Z</time>
      </trkpt>
      <trkpt lat="45.15831" lon="2.78926">
        <ele>1065.28</ele>
        <time>2021-08-15T14:20:04Z</time>
      </trkpt>
      <trkpt lat="45.15831" lon="2.78926">
        <ele>1065.28</ele>
        <time>2021-08-15T14:20:17Z</time>
      </trkpt>
      <trkpt lat="45.1583" lon="2.78926">
        <ele>1065.28</ele>
        <time>2021-08-15T14:20:31Z</time>
      </trkpt>
      <trkpt lat="45.1583" lon="2.78925">
        <ele>1065.28</ele>
        <time>2021-08-15T14:20:44Z</time>
      </trkpt>
      <trkpt lat="45.1583" lon="2.78925">
        <ele>1065.28</ele>
        <time>2021-08-15T14:20:59Z</time>
      </trkpt>
      <trkpt lat="45.1583" lon="2.78926">
        <ele>1065.28</ele>
        <time>2021-08-15T14:21:14Z</time>
      </trkpt>
      <trkpt lat="45.1583" lon="2.78926">
        <ele>1065.28</ele>
        <time>2021-08-15T14:21:35Z</time>
      </trkpt>
      <trkpt lat="45.15833" lon="2.78927">
        <ele>1065.28</ele>
        <time>2021-08-15T14:21:45Z</time>
      </trkpt>
      <trkpt lat="45.15834" lon="2.78926">
        <ele>1065.28</ele>
        <time>2021-08-15T14:21:47Z</time>
      </trkpt>
      <trkpt lat="45.15835" lon="2.78923">
        <ele>1065.28</ele>
        <time>2021-08-15T14:21:49Z</time>
      </trkpt>
      <trkpt lat="45.15835" lon="2.78921">
        <ele>1065.28</ele>
        <time>2021-08-15T14:21:50Z</time>
      </trkpt>
      <trkpt lat="45.15834" lon="2.78899">
        <ele>1065.28</ele>
        <time>2021-08-15T14:21:57Z</time>
      </trkpt>
      <trkpt lat="45.15841" lon="2.78876">
        <ele>1066.24</ele>
        <time>2021-08-15T14:22:05Z</time>
      </trkpt>
      <trkpt lat="45.15847" lon="2.78859">
        <ele>1067.2</ele>
        <time>2021-08-15T14:22:11Z</time>
      </trkpt>
      <trkpt lat="45.15849" lon="2.78828">
        <ele>1068.16</ele>
        <time>2021-08-15T14:22:20Z</time>
      </trkpt>
      <trkpt lat="45.15847" lon="2.788">
        <ele>1068.16</ele>
        <time>2021-08-15T14:22:28Z</time>
      </trkpt>
      <trkpt lat="45.15842" lon="2.78769">
        <ele>1069.12</ele>
        <time>2021-08-15T14:22:37Z</time>
      </trkpt>
      <trkpt lat="45.15836" lon="2.78734">
        <ele>1070.57</ele>
        <time>2021-08-15T14:22:47Z</time>
      </trkpt>
      <trkpt lat="45.15825" lon="2.78704">
        <ele>1070.57</ele>
        <time>2021-08-15T14:22:56Z</time>
      </trkpt>
      <trkpt lat="45.15802" lon="2.7868">
        <ele>1070.57</ele>
        <time>2021-08-15T14:23:04Z</time>
      </trkpt>
      <trkpt lat="45.15781" lon="2.78666">
        <ele>1069.6</ele>
        <time>2021-08-15T14:23:09Z</time>
      </trkpt>
      <trkpt lat="45.15769" lon="2.78655">
        <ele>1069.12</ele>
        <time>2021-08-15T14:23:12Z</time>
      </trkpt>
      <trkpt lat="45.15765" lon="2.78649">
        <ele>1068.64</ele>
        <time>2021-08-15T14:23:13Z</time>
      </trkpt>
      <trkpt lat="45.1576" lon="2.78643">
        <ele>1068.64</ele>
        <time>2021-08-15T14:23:14Z</time>
      </trkpt>
      <trkpt lat="45.15733" lon="2.78599">
        <ele>1065.28</ele>
        <time>2021-08-15T14:23:20Z</time>
      </trkpt>
      <trkpt lat="45.15729" lon="2.78591">
        <ele>1065.28</ele>
        <time>2021-08-15T14:23:21Z</time>
      </trkpt>
      <trkpt lat="45.15684" lon="2.78521">
        <ele>1062.87</ele>
        <time>2021-08-15T14:23:30Z</time>
      </trkpt>
      <trkpt lat="45.15629" lon="2.78445">
        <ele>1062.39</ele>
        <time>2021-08-15T14:23:40Z</time>
      </trkpt>
      <trkpt lat="45.15586" lon="2.78392">
        <ele>1059.99</ele>
        <time>2021-08-15T14:23:48Z</time>
      </trkpt>
      <trkpt lat="45.1554" lon="2.78332">
        <ele>1059.03</ele>
        <time>2021-08-15T14:23:57Z</time>
      </trkpt>
      <trkpt lat="45.15503" lon="2.78274">
        <ele>1057.59</ele>
        <time>2021-08-15T14:24:05Z</time>
      </trkpt>
      <trkpt lat="45.15465" lon="2.7823">
        <ele>1056.63</ele>
        <time>2021-08-15T14:24:12Z</time>
      </trkpt>
      <trkpt lat="45.15427" lon="2.78179">
        <ele>1056.63</ele>
        <time>2021-08-15T14:24:20Z</time>
      </trkpt>
      <trkpt lat="45.15411" lon="2.78154">
        <ele>1056.63</ele>
        <time>2021-08-15T14:24:24Z</time>
      </trkpt>
      <trkpt lat="45.15407" lon="2.78148">
        <ele>1056.63</ele>
        <time>2021-08-15T14:24:25Z</time>
      </trkpt>
      <trkpt lat="45.15386" lon="2.78095">
        <ele>1058.07</ele>
        <time>2021-08-15T14:24:33Z</time>
      </trkpt>
      <trkpt lat="45.15384" lon="2.78089">
        <ele>1058.07</ele>
        <time>2021-08-15T14:24:34Z</time>
      </trkpt>
      <trkpt lat="45.15375" lon="2.78053">
        <ele>1059.51</ele>
        <time>2021-08-15T14:24:41Z</time>
      </trkpt>
      <trkpt lat="45.15367" lon="2.77996">
        <ele>1059.51</ele>
        <time>2021-08-15T14:24:52Z</time>
      </trkpt>
      <trkpt lat="45.1536" lon="2.77936">
        <ele>1059.99</ele>
        <time>2021-08-15T14:25:03Z</time>
      </trkpt>
      <trkpt lat="45.15351" lon="2.77883">
        <ele>1060.47</ele>
        <time>2021-08-15T14:25:13Z</time>
      </trkpt>
      <trkpt lat="45.15337" lon="2.7784">
        <ele>1060.95</ele>
        <time>2021-08-15T14:25:22Z</time>
      </trkpt>
      <trkpt lat="45.1533" lon="2.77821">
        <ele>1061.43</ele>
        <time>2021-08-15T14:25:28Z</time>
      </trkpt>
      <trkpt lat="45.15314" lon="2.77795">
        <ele>1061.43</ele>
        <time>2021-08-15T14:25:36Z</time>
      </trkpt>
      <trkpt lat="45.15288" lon="2.77774">
        <ele>1061.91</ele>
        <time>2021-08-15T14:25:45Z</time>
      </trkpt>
      <trkpt lat="45.15251" lon="2.77743">
        <ele>1061.91</ele>
        <time>2021-08-15T14:25:56Z</time>
      </trkpt>
      <trkpt lat="45.15227" lon="2.77724">
        <ele>1061.91</ele>
        <time>2021-08-15T14:26:04Z</time>
      </trkpt>
      <trkpt lat="45.15189" lon="2.7769">
        <ele>1062.87</ele>
        <time>2021-08-15T14:26:16Z</time>
      </trkpt>
      <trkpt lat="45.15156" lon="2.77654">
        <ele>1062.87</ele>
        <time>2021-08-15T14:26:27Z</time>
      </trkpt>
      <trkpt lat="45.15139" lon="2.77637">
        <ele>1062.87</ele>
        <time>2021-08-15T14:26:32Z</time>
      </trkpt>
      <trkpt lat="45.15135" lon="2.77633">
        <ele>1062.87</ele>
        <time>2021-08-15T14:26:33Z</time>
      </trkpt>
      <trkpt lat="45.1511" lon="2.77607">
        <ele>1063.36</ele>
        <time>2021-08-15T14:26:41Z</time>
      </trkpt>
      <trkpt lat="45.15081" lon="2.77581">
        <ele>1063.84</ele>
        <time>2021-08-15T14:26:50Z</time>
      </trkpt>
      <trkpt lat="45.1505" lon="2.7755">
        <ele>1064.8</ele>
        <time>2021-08-15T14:27:00Z</time>
      </trkpt>
      <trkpt lat="45.15016" lon="2.7752">
        <ele>1065.76</ele>
        <time>2021-08-15T14:27:11Z</time>
      </trkpt>
      <trkpt lat="45.15002" lon="2.77509">
        <ele>1065.76</ele>
        <time>2021-08-15T14:27:17Z</time>
      </trkpt>
      <trkpt lat="45.14973" lon="2.77488">
        <ele>1066.72</ele>
        <time>2021-08-15T14:27:27Z</time>
      </trkpt>
      <trkpt lat="45.14945" lon="2.77475">
        <ele>1067.2</ele>
        <time>2021-08-15T14:27:37Z</time>
      </trkpt>
      <trkpt lat="45.1492" lon="2.77464">
        <ele>1067.68</ele>
        <time>2021-08-15T14:27:46Z</time>
      </trkpt>
      <trkpt lat="45.14893" lon="2.77447">
        <ele>1068.64</ele>
        <time>2021-08-15T14:27:56Z</time>
      </trkpt>
      <trkpt lat="45.14874" lon="2.77429">
        <ele>1070.08</ele>
        <time>2021-08-15T14:28:04Z</time>
      </trkpt>
      <trkpt lat="45.14852" lon="2.77411">
        <ele>1071.05</ele>
        <time>2021-08-15T14:28:13Z</time>
      </trkpt>
      <trkpt lat="45.1483" lon="2.77391">
        <ele>1071.53</ele>
        <time>2021-08-15T14:28:22Z</time>
      </trkpt>
      <trkpt lat="45.14803" lon="2.77366">
        <ele>1072.49</ele>
        <time>2021-08-15T14:28:33Z</time>
      </trkpt>
      <trkpt lat="45.14783" lon="2.7735">
        <ele>1073.45</ele>
        <time>2021-08-15T14:28:41Z</time>
      </trkpt>
      <trkpt lat="45.14757" lon="2.77326">
        <ele>1074.41</ele>
        <time>2021-08-15T14:28:51Z</time>
      </trkpt>
      <trkpt lat="45.14734" lon="2.7731">
        <ele>1075.85</ele>
        <time>2021-08-15T14:28:58Z</time>
      </trkpt>
      <trkpt lat="45.14704" lon="2.77291">
        <ele>1076.33</ele>
        <time>2021-08-15T14:29:07Z</time>
      </trkpt>
      <trkpt lat="45.14682" lon="2.77278">
        <ele>1077.78</ele>
        <time>2021-08-15T14:29:14Z</time>
      </trkpt>
      <trkpt lat="45.14647" lon="2.77256">
        <ele>1078.26</ele>
        <time>2021-08-15T14:29:26Z</time>
      </trkpt>
      <trkpt lat="45.14621" lon="2.77241">
        <ele>1078.74</ele>
        <time>2021-08-15T14:29:35Z</time>
      </trkpt>
      <trkpt lat="45.14592" lon="2.77222">
        <ele>1079.7</ele>
        <time>2021-08-15T14:29:45Z</time>
      </trkpt>
      <trkpt lat="45.14562" lon="2.77198">
        <ele>1080.66</ele>
        <time>2021-08-15T14:29:56Z</time>
      </trkpt>
      <trkpt lat="45.14539" lon="2.77166">
        <ele>1081.62</ele>
        <time>2021-08-15T14:30:06Z</time>
      </trkpt>
      <trkpt lat="45.14525" lon="2.77137">
        <ele>1082.1</ele>
        <time>2021-08-15T14:30:13Z</time>
      </trkpt>
      <trkpt lat="45.14513" lon="2.77109">
        <ele>1083.54</ele>
        <time>2021-08-15T14:30:20Z</time>
      </trkpt>
      <trkpt lat="45.14489" lon="2.77063">
        <ele>1084.02</ele>
        <time>2021-08-15T14:30:32Z</time>
      </trkpt>
      <trkpt lat="45.14465" lon="2.77032">
        <ele>1084.99</ele>
        <time>2021-08-15T14:30:42Z</time>
      </trkpt>
      <trkpt lat="45.14447" lon="2.77011">
        <ele>1085.95</ele>
        <time>2021-08-15T14:30:49Z</time>
      </trkpt>
      <trkpt lat="45.14417" lon="2.76973">
        <ele>1086.91</ele>
        <time>2021-08-15T14:31:01Z</time>
      </trkpt>
      <trkpt lat="45.14395" lon="2.76944">
        <ele>1087.39</ele>
        <time>2021-08-15T14:31:10Z</time>
      </trkpt>
      <trkpt lat="45.14379" lon="2.76919">
        <ele>1087.39</ele>
        <time>2021-08-15T14:31:18Z</time>
      </trkpt>
      <trkpt lat="45.1436" lon="2.76881">
        <ele>1089.31</ele>
        <time>2021-08-15T14:31:28Z</time>
      </trkpt>
      <trkpt lat="45.14348" lon="2.76851">
        <ele>1089.79</ele>
        <time>2021-08-15T14:31:35Z</time>
      </trkpt>
      <trkpt lat="45.14326" lon="2.76799">
        <ele>1090.27</ele>
        <time>2021-08-15T14:31:48Z</time>
      </trkpt>
      <trkpt lat="45.1431" lon="2.76763">
        <ele>1091.23</ele>
        <time>2021-08-15T14:31:58Z</time>
      </trkpt>
      <trkpt lat="45.14294" lon="2.76727">
        <ele>1092.2</ele>
        <time>2021-08-15T14:32:08Z</time>
      </trkpt>
      <trkpt lat="45.14284" lon="2.76696">
        <ele>1093.64</ele>
        <time>2021-08-15T14:32:16Z</time>
      </trkpt>
      <trkpt lat="45.14268" lon="2.76649">
        <ele>1094.12</ele>
        <time>2021-08-15T14:32:28Z</time>
      </trkpt>
      <trkpt lat="45.14252" lon="2.76598">
        <ele>1095.56</ele>
        <time>2021-08-15T14:32:40Z</time>
      </trkpt>
      <trkpt lat="45.14238" lon="2.76551">
        <ele>1096.04</ele>
        <time>2021-08-15T14:32:51Z</time>
      </trkpt>
      <trkpt lat="45.14234" lon="2.76513">
        <ele>1096.04</ele>
        <time>2021-08-15T14:32:59Z</time>
      </trkpt>
      <trkpt lat="45.14234" lon="2.76477">
        <ele>1097.48</ele>
        <time>2021-08-15T14:33:07Z</time>
      </trkpt>
      <trkpt lat="45.14235" lon="2.76444">
        <ele>1098.92</ele>
        <time>2021-08-15T14:33:15Z</time>
      </trkpt>
      <trkpt lat="45.14236" lon="2.76398">
        <ele>1097.96</ele>
        <time>2021-08-15T14:33:26Z</time>
      </trkpt>
      <trkpt lat="45.14239" lon="2.7638">
        <ele>1099.4</ele>
        <time>2021-08-15T14:33:30Z</time>
      </trkpt>
      <trkpt lat="45.14245" lon="2.76337">
        <ele>1099.4</ele>
        <time>2021-08-15T14:33:40Z</time>
      </trkpt>
      <trkpt lat="45.14252" lon="2.76304">
        <ele>1099.89</ele>
        <time>2021-08-15T14:33:48Z</time>
      </trkpt>
      <trkpt lat="45.14262" lon="2.76254">
        <ele>1101.33</ele>
        <time>2021-08-15T14:33:59Z</time>
      </trkpt>
      <trkpt lat="45.14268" lon="2.76225">
        <ele>1101.81</ele>
        <time>2021-08-15T14:34:06Z</time>
      </trkpt>
      <trkpt lat="45.14272" lon="2.76199">
        <ele>1102.29</ele>
        <time>2021-08-15T14:34:12Z</time>
      </trkpt>
      <trkpt lat="45.14278" lon="2.76161">
        <ele>1102.77</ele>
        <time>2021-08-15T14:34:20Z</time>
      </trkpt>
      <trkpt lat="45.14283" lon="2.76118">
        <ele>1103.25</ele>
        <time>2021-08-15T14:34:29Z</time>
      </trkpt>
      <trkpt lat="45.14284" lon="2.76079">
        <ele>1104.21</ele>
        <time>2021-08-15T14:34:38Z</time>
      </trkpt>
      <trkpt lat="45.14285" lon="2.76036">
        <ele>1104.69</ele>
        <time>2021-08-15T14:34:48Z</time>
      </trkpt>
      <trkpt lat="45.14284" lon="2.75995">
        <ele>1105.65</ele>
        <time>2021-08-15T14:34:58Z</time>
      </trkpt>
      <trkpt lat="45.14284" lon="2.75957">
        <ele>1106.61</ele>
        <time>2021-08-15T14:35:07Z</time>
      </trkpt>
      <trkpt lat="45.14283" lon="2.7592">
        <ele>1107.1</ele>
        <time>2021-08-15T14:35:15Z</time>
      </trkpt>
      <trkpt lat="45.14276" lon="2.75865">
        <ele>1108.06</ele>
        <time>2021-08-15T14:35:27Z</time>
      </trkpt>
      <trkpt lat="45.14266" lon="2.75812">
        <ele>1108.54</ele>
        <time>2021-08-15T14:35:38Z</time>
      </trkpt>
      <trkpt lat="45.14263" lon="2.75754">
        <ele>1108.54</ele>
        <time>2021-08-15T14:35:48Z</time>
      </trkpt>
      <trkpt lat="45.14257" lon="2.757">
        <ele>1109.5</ele>
        <time>2021-08-15T14:35:58Z</time>
      </trkpt>
      <trkpt lat="45.1424" lon="2.75642">
        <ele>1109.5</ele>
        <time>2021-08-15T14:36:08Z</time>
      </trkpt>
      <trkpt lat="45.14217" lon="2.75563">
        <ele>1109.5</ele>
        <time>2021-08-15T14:36:20Z</time>
      </trkpt>
      <trkpt lat="45.14214" lon="2.75549">
        <ele>1109.5</ele>
        <time>2021-08-15T14:36:22Z</time>
      </trkpt>
      <trkpt lat="45.14212" lon="2.75534">
        <ele>1109.5</ele>
        <time>2021-08-15T14:36:24Z</time>
      </trkpt>
      <trkpt lat="45.14211" lon="2.75528">
        <ele>1109.5</ele>
        <time>2021-08-15T14:36:25Z</time>
      </trkpt>
      <trkpt lat="45.14211" lon="2.75521">
        <ele>1109.5</ele>
        <time>2021-08-15T14:36:26Z</time>
      </trkpt>
      <trkpt lat="45.14203" lon="2.75459">
        <ele>1109.5</ele>
        <time>2021-08-15T14:36:35Z</time>
      </trkpt>
      <trkpt lat="45.14198" lon="2.75437">
        <ele>1109.5</ele>
        <time>2021-08-15T14:36:38Z</time>
      </trkpt>
      <trkpt lat="45.14195" lon="2.7543">
        <ele>1109.5</ele>
        <time>2021-08-15T14:36:39Z</time>
      </trkpt>
      <trkpt lat="45.14193" lon="2.75422">
        <ele>1109.5</ele>
        <time>2021-08-15T14:36:40Z</time>
      </trkpt>
      <trkpt lat="45.14171" lon="2.75358">
        <ele>1109.5</ele>
        <time>2021-08-15T14:36:50Z</time>
      </trkpt>
      <trkpt lat="45.14158" lon="2.75314">
        <ele>1109.5</ele>
        <time>2021-08-15T14:36:58Z</time>
      </trkpt>
      <trkpt lat="45.14143" lon="2.7527">
        <ele>1109.98</ele>
        <time>2021-08-15T14:37:06Z</time>
      </trkpt>
      <trkpt lat="45.14126" lon="2.75212">
        <ele>1110.94</ele>
        <time>2021-08-15T14:37:16Z</time>
      </trkpt>
      <trkpt lat="45.14115" lon="2.75156">
        <ele>1111.9</ele>
        <time>2021-08-15T14:37:26Z</time>
      </trkpt>
      <trkpt lat="45.14107" lon="2.75103">
        <ele>1112.86</ele>
        <time>2021-08-15T14:37:35Z</time>
      </trkpt>
      <trkpt lat="45.14101" lon="2.75074">
        <ele>1112.38</ele>
        <time>2021-08-15T14:37:40Z</time>
      </trkpt>
      <trkpt lat="45.141" lon="2.75069">
        <ele>1112.86</ele>
        <time>2021-08-15T14:37:41Z</time>
      </trkpt>
      <trkpt lat="45.14097" lon="2.75063">
        <ele>1112.86</ele>
        <time>2021-08-15T14:37:42Z</time>
      </trkpt>
      <trkpt lat="45.14083" lon="2.75039">
        <ele>1112.86</ele>
        <time>2021-08-15T14:37:47Z</time>
      </trkpt>
      <trkpt lat="45.1408" lon="2.75035">
        <ele>1112.86</ele>
        <time>2021-08-15T14:37:48Z</time>
      </trkpt>
      <trkpt lat="45.1405" lon="2.74991">
        <ele>1114.31</ele>
        <time>2021-08-15T14:37:58Z</time>
      </trkpt>
      <trkpt lat="45.14047" lon="2.74985">
        <ele>1114.31</ele>
        <time>2021-08-15T14:37:59Z</time>
      </trkpt>
      <trkpt lat="45.14045" lon="2.7498">
        <ele>1114.31</ele>
        <time>2021-08-15T14:38:00Z</time>
      </trkpt>
      <trkpt lat="45.14037" lon="2.74931">
        <ele>1115.27</ele>
        <time>2021-08-15T14:38:09Z</time>
      </trkpt>
      <trkpt lat="45.14021" lon="2.74897">
        <ele>1115.27</ele>
        <time>2021-08-15T14:38:17Z</time>
      </trkpt>
      <trkpt lat="45.14007" lon="2.74874">
        <ele>1115.75</ele>
        <time>2021-08-15T14:38:24Z</time>
      </trkpt>
      <trkpt lat="45.14" lon="2.74859">
        <ele>1116.23</ele>
        <time>2021-08-15T14:38:31Z</time>
      </trkpt>
      <trkpt lat="45.14" lon="2.7486">
        <ele>1116.23</ele>
        <time>2021-08-15T14:38:40Z</time>
      </trkpt>
      <trkpt lat="45.13994" lon="2.74858">
        <ele>1116.23</ele>
        <time>2021-08-15T14:38:45Z</time>
      </trkpt>
      <trkpt lat="45.13991" lon="2.74859">
        <ele>1116.23</ele>
        <time>2021-08-15T14:38:50Z</time>
      </trkpt>
      <trkpt lat="45.13991" lon="2.7486">
        <ele>1116.23</ele>
        <time>2021-08-15T14:38:58Z</time>
      </trkpt>
      <trkpt lat="45.13992" lon="2.74859">
        <ele>1116.23</ele>
        <time>2021-08-15T14:39:06Z</time>
      </trkpt>
      <trkpt lat="45.1399" lon="2.74857">
        <ele>1116.23</ele>
        <time>2021-08-15T14:39:26Z</time>
      </trkpt>
      <trkpt lat="45.13991" lon="2.74855">
        <ele>1116.23</ele>
        <time>2021-08-15T14:39:55Z</time>
      </trkpt>
      <trkpt lat="45.13992" lon="2.74855">
        <ele>1116.71</ele>
        <time>2021-08-15T14:40:17Z</time>
      </trkpt>
      <trkpt lat="45.13992" lon="2.74855">
        <ele>1116.71</ele>
        <time>2021-08-15T14:40:47Z</time>
      </trkpt>
      <trkpt lat="45.13992" lon="2.74855">
        <ele>1116.71</ele>
        <time>2021-08-15T14:41:12Z</time>
      </trkpt>
      <trkpt lat="45.13994" lon="2.74856">
        <ele>1116.71</ele>
        <time>2021-08-15T14:41:28Z</time>
      </trkpt>
      <trkpt lat="45.13992" lon="2.74857">
        <ele>1116.71</ele>
        <time>2021-08-15T14:42:01Z</time>
      </trkpt>
      <trkpt lat="45.13989" lon="2.74857">
        <ele>1116.71</ele>
        <time>2021-08-15T14:42:23Z</time>
      </trkpt>
      <trkpt lat="45.1399" lon="2.74855">
        <ele>1116.23</ele>
        <time>2021-08-15T14:42:54Z</time>
      </trkpt>
      <trkpt lat="45.1399" lon="2.74855">
        <ele>1116.23</ele>
        <time>2021-08-15T14:43:17Z</time>
      </trkpt>
      <trkpt lat="45.13989" lon="2.74854">
        <ele>1116.23</ele>
        <time>2021-08-15T14:43:41Z</time>
      </trkpt>
      <trkpt lat="45.13992" lon="2.74857">
        <ele>1116.23</ele>
        <time>2021-08-15T14:44:11Z</time>
      </trkpt>
      <trkpt lat="45.13991" lon="2.74857">
        <ele>1116.23</ele>
        <time>2021-08-15T14:44:31Z</time>
      </trkpt>
      <trkpt lat="45.1399" lon="2.74859">
        <ele>1116.23</ele>
        <time>2021-08-15T14:44:54Z</time>
      </trkpt>
      <trkpt lat="45.13991" lon="2.74856">
        <ele>1116.23</ele>
        <time>2021-08-15T14:45:20Z</time>
      </trkpt>
      <trkpt lat="45.13992" lon="2.74859">
        <ele>1116.23</ele>
        <time>2021-08-15T14:45:42Z</time>
      </trkpt>
      <trkpt lat="45.13993" lon="2.74861">
        <ele>1116.23</ele>
        <time>2021-08-15T14:46:05Z</time>
      </trkpt>
      <trkpt lat="45.13995" lon="2.74862">
        <ele>1115.75</ele>
        <time>2021-08-15T14:46:22Z</time>
      </trkpt>
      <trkpt lat="45.13994" lon="2.7486">
        <ele>1115.75</ele>
        <time>2021-08-15T14:46:31Z</time>
      </trkpt>
      <trkpt lat="45.13994" lon="2.74856">
        <ele>1115.75</ele>
        <time>2021-08-15T14:46:54Z</time>
      </trkpt>
      <trkpt lat="45.13993" lon="2.74854">
        <ele>1115.75</ele>
        <time>2021-08-15T14:47:19Z</time>
      </trkpt>
      <trkpt lat="45.13996" lon="2.74858">
        <ele>1115.75</ele>
        <time>2021-08-15T14:47:29Z</time>
      </trkpt>
      <trkpt lat="45.13996" lon="2.74857">
        <ele>1116.23</ele>
        <time>2021-08-15T14:47:35Z</time>
      </trkpt>
      <trkpt lat="45.13996" lon="2.74855">
        <ele>1116.23</ele>
        <time>2021-08-15T14:47:45Z</time>
      </trkpt>
      <trkpt lat="45.13997" lon="2.74854">
        <ele>1116.23</ele>
        <time>2021-08-15T14:47:47Z</time>
      </trkpt>
      <trkpt lat="45.13997" lon="2.74851">
        <ele>1116.23</ele>
        <time>2021-08-15T14:47:48Z</time>
      </trkpt>
      <trkpt lat="45.13997" lon="2.7485">
        <ele>1116.23</ele>
        <time>2021-08-15T14:47:49Z</time>
      </trkpt>
      <trkpt lat="45.13996" lon="2.74847">
        <ele>1116.23</ele>
        <time>2021-08-15T14:47:50Z</time>
      </trkpt>
      <trkpt lat="45.13995" lon="2.74844">
        <ele>1116.23</ele>
        <time>2021-08-15T14:47:51Z</time>
      </trkpt>
      <trkpt lat="45.13994" lon="2.74841">
        <ele>1116.23</ele>
        <time>2021-08-15T14:47:52Z</time>
      </trkpt>
      <trkpt lat="45.13983" lon="2.74818">
        <ele>1116.23</ele>
        <time>2021-08-15T14:48:00Z</time>
      </trkpt>
      <trkpt lat="45.13963" lon="2.74797">
        <ele>1116.71</ele>
        <time>2021-08-15T14:48:08Z</time>
      </trkpt>
      <trkpt lat="45.13943" lon="2.74773">
        <ele>1116.71</ele>
        <time>2021-08-15T14:48:16Z</time>
      </trkpt>
      <trkpt lat="45.13928" lon="2.74731">
        <ele>1117.67</ele>
        <time>2021-08-15T14:48:26Z</time>
      </trkpt>
      <trkpt lat="45.13914" lon="2.74701">
        <ele>1117.67</ele>
        <time>2021-08-15T14:48:34Z</time>
      </trkpt>
      <trkpt lat="45.13891" lon="2.74673">
        <ele>1118.15</ele>
        <time>2021-08-15T14:48:43Z</time>
      </trkpt>
      <trkpt lat="45.13871" lon="2.74639">
        <ele>1118.15</ele>
        <time>2021-08-15T14:48:52Z</time>
      </trkpt>
      <trkpt lat="45.13854" lon="2.7459">
        <ele>1118.63</ele>
        <time>2021-08-15T14:49:03Z</time>
      </trkpt>
      <trkpt lat="45.13836" lon="2.74559">
        <ele>1119.11</ele>
        <time>2021-08-15T14:49:11Z</time>
      </trkpt>
      <trkpt lat="45.13824" lon="2.7452">
        <ele>1120.07</ele>
        <time>2021-08-15T14:49:20Z</time>
      </trkpt>
      <trkpt lat="45.1382" lon="2.74475">
        <ele>1120.55</ele>
        <time>2021-08-15T14:49:29Z</time>
      </trkpt>
      <trkpt lat="45.13814" lon="2.74435">
        <ele>1120.55</ele>
        <time>2021-08-15T14:49:37Z</time>
      </trkpt>
      <trkpt lat="45.13808" lon="2.74412">
        <ele>1121.52</ele>
        <time>2021-08-15T14:49:43Z</time>
      </trkpt>
      <trkpt lat="45.13793" lon="2.74388">
        <ele>1123.44</ele>
        <time>2021-08-15T14:49:53Z</time>
      </trkpt>
      <trkpt lat="45.13784" lon="2.74371">
        <ele>1124.88</ele>
        <time>2021-08-15T14:50:02Z</time>
      </trkpt>
      <trkpt lat="45.13777" lon="2.74352">
        <ele>1125.84</ele>
        <time>2021-08-15T14:50:12Z</time>
      </trkpt>
      <trkpt lat="45.13772" lon="2.74328">
        <ele>1126.8</ele>
        <time>2021-08-15T14:50:22Z</time>
      </trkpt>
      <trkpt lat="45.13767" lon="2.74301">
        <ele>1129.21</ele>
        <time>2021-08-15T14:50:34Z</time>
      </trkpt>
      <trkpt lat="45.13764" lon="2.74279">
        <ele>1129.69</ele>
        <time>2021-08-15T14:50:43Z</time>
      </trkpt>
      <trkpt lat="45.13762" lon="2.74255">
        <ele>1131.13</ele>
        <time>2021-08-15T14:50:52Z</time>
      </trkpt>
      <trkpt lat="45.13758" lon="2.74232">
        <ele>1132.09</ele>
        <time>2021-08-15T14:51:01Z</time>
      </trkpt>
      <trkpt lat="45.13755" lon="2.74211">
        <ele>1133.53</ele>
        <time>2021-08-15T14:51:10Z</time>
      </trkpt>
      <trkpt lat="45.13753" lon="2.74193">
        <ele>1134.49</ele>
        <time>2021-08-15T14:51:18Z</time>
      </trkpt>
      <trkpt lat="45.13752" lon="2.74186">
        <ele>1134.97</ele>
        <time>2021-08-15T14:51:21Z</time>
      </trkpt>
      <trkpt lat="45.13751" lon="2.74184">
        <ele>1134.97</ele>
        <time>2021-08-15T14:51:22Z</time>
      </trkpt>
      <trkpt lat="45.1375" lon="2.74181">
        <ele>1134.97</ele>
        <time>2021-08-15T14:51:23Z</time>
      </trkpt>
      <trkpt lat="45.13747" lon="2.74154">
        <ele>1136.9</ele>
        <time>2021-08-15T14:51:34Z</time>
      </trkpt>
      <trkpt lat="45.13745" lon="2.74125">
        <ele>1137.86</ele>
        <time>2021-08-15T14:51:45Z</time>
      </trkpt>
      <trkpt lat="45.13741" lon="2.74101">
        <ele>1138.82</ele>
        <time>2021-08-15T14:51:55Z</time>
      </trkpt>
      <trkpt lat="45.13735" lon="2.74087">
        <ele>1140.26</ele>
        <time>2021-08-15T14:52:02Z</time>
      </trkpt>
      <trkpt lat="45.13728" lon="2.74069">
        <ele>1141.7</ele>
        <time>2021-08-15T14:52:10Z</time>
      </trkpt>
      <trkpt lat="45.13725" lon="2.74045">
        <ele>1143.14</ele>
        <time>2021-08-15T14:52:20Z</time>
      </trkpt>
      <trkpt lat="45.13727" lon="2.74024">
        <ele>1144.59</ele>
        <time>2021-08-15T14:52:29Z</time>
      </trkpt>
      <trkpt lat="45.1373" lon="2.74007">
        <ele>1145.55</ele>
        <time>2021-08-15T14:52:36Z</time>
      </trkpt>
      <trkpt lat="45.13728" lon="2.73987">
        <ele>1146.99</ele>
        <time>2021-08-15T14:52:44Z</time>
      </trkpt>
      <trkpt lat="45.1372" lon="2.73967">
        <ele>1148.43</ele>
        <time>2021-08-15T14:52:53Z</time>
      </trkpt>
      <trkpt lat="45.1371" lon="2.73947">
        <ele>1149.87</ele>
        <time>2021-08-15T14:53:02Z</time>
      </trkpt>
      <trkpt lat="45.13701" lon="2.73929">
        <ele>1150.84</ele>
        <time>2021-08-15T14:53:10Z</time>
      </trkpt>
      <trkpt lat="45.13693" lon="2.739">
        <ele>1152.28</ele>
        <time>2021-08-15T14:53:21Z</time>
      </trkpt>
      <trkpt lat="45.13688" lon="2.73871">
        <ele>1154.2</ele>
        <time>2021-08-15T14:53:32Z</time>
      </trkpt>
      <trkpt lat="45.13682" lon="2.7385">
        <ele>1155.16</ele>
        <time>2021-08-15T14:53:41Z</time>
      </trkpt>
      <trkpt lat="45.13675" lon="2.7383">
        <ele>1156.12</ele>
        <time>2021-08-15T14:53:49Z</time>
      </trkpt>
      <trkpt lat="45.13664" lon="2.73806">
        <ele>1157.56</ele>
        <time>2021-08-15T14:53:59Z</time>
      </trkpt>
      <trkpt lat="45.13656" lon="2.73785">
        <ele>1158.53</ele>
        <time>2021-08-15T14:54:08Z</time>
      </trkpt>
      <trkpt lat="45.13646" lon="2.7376">
        <ele>1159.49</ele>
        <time>2021-08-15T14:54:18Z</time>
      </trkpt>
      <trkpt lat="45.13636" lon="2.73736">
        <ele>1160.93</ele>
        <time>2021-08-15T14:54:28Z</time>
      </trkpt>
      <trkpt lat="45.13625" lon="2.73711">
        <ele>1161.89</ele>
        <time>2021-08-15T14:54:38Z</time>
      </trkpt>
      <trkpt lat="45.13621" lon="2.73689">
        <ele>1163.33</ele>
        <time>2021-08-15T14:54:46Z</time>
      </trkpt>
      <trkpt lat="45.1362" lon="2.73666">
        <ele>1164.77</ele>
        <time>2021-08-15T14:54:53Z</time>
      </trkpt>
      <trkpt lat="45.13617" lon="2.73637">
        <ele>1166.7</ele>
        <time>2021-08-15T14:55:02Z</time>
      </trkpt>
      <trkpt lat="45.13616" lon="2.73612">
        <ele>1168.14</ele>
        <time>2021-08-15T14:55:11Z</time>
      </trkpt>
      <trkpt lat="45.13618" lon="2.73585">
        <ele>1169.58</ele>
        <time>2021-08-15T14:55:21Z</time>
      </trkpt>
      <trkpt lat="45.13618" lon="2.73557">
        <ele>1170.54</ele>
        <time>2021-08-15T14:55:30Z</time>
      </trkpt>
      <trkpt lat="45.13616" lon="2.73528">
        <ele>1171.98</ele>
        <time>2021-08-15T14:55:40Z</time>
      </trkpt>
      <trkpt lat="45.13612" lon="2.73494">
        <ele>1173.43</ele>
        <time>2021-08-15T14:55:52Z</time>
      </trkpt>
      <trkpt lat="45.13612" lon="2.73466">
        <ele>1174.87</ele>
        <time>2021-08-15T14:56:02Z</time>
      </trkpt>
      <trkpt lat="45.13611" lon="2.73438">
        <ele>1176.31</ele>
        <time>2021-08-15T14:56:12Z</time>
      </trkpt>
      <trkpt lat="45.13611" lon="2.73416">
        <ele>1177.27</ele>
        <time>2021-08-15T14:56:20Z</time>
      </trkpt>
      <trkpt lat="45.13611" lon="2.73414">
        <ele>1177.27</ele>
        <time>2021-08-15T14:56:21Z</time>
      </trkpt>
      <trkpt lat="45.13612" lon="2.73383">
        <ele>1179.19</ele>
        <time>2021-08-15T14:56:32Z</time>
      </trkpt>
      <trkpt lat="45.13614" lon="2.73361">
        <ele>1180.16</ele>
        <time>2021-08-15T14:56:40Z</time>
      </trkpt>
      <trkpt lat="45.13618" lon="2.73332">
        <ele>1182.08</ele>
        <time>2021-08-15T14:56:51Z</time>
      </trkpt>
      <trkpt lat="45.13623" lon="2.73305">
        <ele>1183.52</ele>
        <time>2021-08-15T14:57:01Z</time>
      </trkpt>
      <trkpt lat="45.1362" lon="2.73282">
        <ele>1184.96</ele>
        <time>2021-08-15T14:57:10Z</time>
      </trkpt>
      <trkpt lat="45.13621" lon="2.73254">
        <ele>1186.4</ele>
        <time>2021-08-15T14:57:20Z</time>
      </trkpt>
      <trkpt lat="45.13625" lon="2.73229">
        <ele>1188.33</ele>
        <time>2021-08-15T14:57:29Z</time>
      </trkpt>
      <trkpt lat="45.13631" lon="2.73204">
        <ele>1189.77</ele>
        <time>2021-08-15T14:57:38Z</time>
      </trkpt>
      <trkpt lat="45.13632" lon="2.73187">
        <ele>1190.73</ele>
        <time>2021-08-15T14:57:44Z</time>
      </trkpt>
      <trkpt lat="45.13631" lon="2.73183">
        <ele>1190.73</ele>
        <time>2021-08-15T14:57:45Z</time>
      </trkpt>
      <trkpt lat="45.1363" lon="2.73181">
        <ele>1190.73</ele>
        <time>2021-08-15T14:57:46Z</time>
      </trkpt>
      <trkpt lat="45.13629" lon="2.73179">
        <ele>1190.73</ele>
        <time>2021-08-15T14:57:47Z</time>
      </trkpt>
      <trkpt lat="45.13628" lon="2.73176">
        <ele>1190.73</ele>
        <time>2021-08-15T14:57:48Z</time>
      </trkpt>
      <trkpt lat="45.13626" lon="2.73173">
        <ele>1190.73</ele>
        <time>2021-08-15T14:57:49Z</time>
      </trkpt>
      <trkpt lat="45.13623" lon="2.73169">
        <ele>1191.21</ele>
        <time>2021-08-15T14:57:51Z</time>
      </trkpt>
      <trkpt lat="45.13612" lon="2.73146">
        <ele>1192.17</ele>
        <time>2021-08-15T14:57:59Z</time>
      </trkpt>
      <trkpt lat="45.13599" lon="2.73114">
        <ele>1194.09</ele>
        <time>2021-08-15T14:58:10Z</time>
      </trkpt>
      <trkpt lat="45.13584" lon="2.73082">
        <ele>1196.02</ele>
        <time>2021-08-15T14:58:21Z</time>
      </trkpt>
      <trkpt lat="45.13567" lon="2.73049">
        <ele>1197.46</ele>
        <time>2021-08-15T14:58:32Z</time>
      </trkpt>
      <trkpt lat="45.13552" lon="2.73019">
        <ele>1198.9</ele>
        <time>2021-08-15T14:58:43Z</time>
      </trkpt>
      <trkpt lat="45.13542" lon="2.73002">
        <ele>1200.34</ele>
        <time>2021-08-15T14:58:50Z</time>
      </trkpt>
      <trkpt lat="45.13531" lon="2.72979">
        <ele>1201.79</ele>
        <time>2021-08-15T14:58:59Z</time>
      </trkpt>
      <trkpt lat="45.13525" lon="2.72959">
        <ele>1202.75</ele>
        <time>2021-08-15T14:59:06Z</time>
      </trkpt>
      <trkpt lat="45.13518" lon="2.72939">
        <ele>1204.19</ele>
        <time>2021-08-15T14:59:13Z</time>
      </trkpt>
      <trkpt lat="45.13506" lon="2.72915">
        <ele>1205.63</ele>
        <time>2021-08-15T14:59:23Z</time>
      </trkpt>
      <trkpt lat="45.13498" lon="2.72887">
        <ele>1206.59</ele>
        <time>2021-08-15T14:59:32Z</time>
      </trkpt>
      <trkpt lat="45.13494" lon="2.72865">
        <ele>1207.55</ele>
        <time>2021-08-15T14:59:38Z</time>
      </trkpt>
      <trkpt lat="45.13486" lon="2.72835">
        <ele>1209</ele>
        <time>2021-08-15T14:59:47Z</time>
      </trkpt>
      <trkpt lat="45.13483" lon="2.7281">
        <ele>1210.44</ele>
        <time>2021-08-15T14:59:55Z</time>
      </trkpt>
      <trkpt lat="45.13478" lon="2.72788">
        <ele>1211.88</ele>
        <time>2021-08-15T15:00:02Z</time>
      </trkpt>
      <trkpt lat="45.13478" lon="2.72786">
        <ele>1211.88</ele>
        <time>2021-08-15T15:00:03Z</time>
      </trkpt>
      <trkpt lat="45.13478" lon="2.72783">
        <ele>1211.88</ele>
        <time>2021-08-15T15:00:04Z</time>
      </trkpt>
      <trkpt lat="45.13478" lon="2.72779">
        <ele>1211.88</ele>
        <time>2021-08-15T15:00:05Z</time>
      </trkpt>
      <trkpt lat="45.13477" lon="2.72775">
        <ele>1212.36</ele>
        <time>2021-08-15T15:00:06Z</time>
      </trkpt>
      <trkpt lat="45.13472" lon="2.72747">
        <ele>1213.32</ele>
        <time>2021-08-15T15:00:14Z</time>
      </trkpt>
      <trkpt lat="45.13465" lon="2.72718">
        <ele>1214.28</ele>
        <time>2021-08-15T15:00:23Z</time>
      </trkpt>
      <trkpt lat="45.1346" lon="2.72683">
        <ele>1215.72</ele>
        <time>2021-08-15T15:00:32Z</time>
      </trkpt>
      <trkpt lat="45.13457" lon="2.72633">
        <ele>1218.13</ele>
        <time>2021-08-15T15:00:45Z</time>
      </trkpt>
      <trkpt lat="45.13456" lon="2.72586">
        <ele>1219.57</ele>
        <time>2021-08-15T15:00:57Z</time>
      </trkpt>
      <trkpt lat="45.13455" lon="2.72549">
        <ele>1221.01</ele>
        <time>2021-08-15T15:01:08Z</time>
      </trkpt>
      <trkpt lat="45.13453" lon="2.7252">
        <ele>1222.93</ele>
        <time>2021-08-15T15:01:17Z</time>
      </trkpt>
      <trkpt lat="45.1345" lon="2.72493">
        <ele>1223.9</ele>
        <time>2021-08-15T15:01:26Z</time>
      </trkpt>
      <trkpt lat="45.13448" lon="2.72462">
        <ele>1225.34</ele>
        <time>2021-08-15T15:01:36Z</time>
      </trkpt>
      <trkpt lat="45.13445" lon="2.72424">
        <ele>1226.3</ele>
        <time>2021-08-15T15:01:48Z</time>
      </trkpt>
      <trkpt lat="45.13443" lon="2.72398">
        <ele>1228.22</ele>
        <time>2021-08-15T15:01:57Z</time>
      </trkpt>
      <trkpt lat="45.13448" lon="2.72372">
        <ele>1229.18</ele>
        <time>2021-08-15T15:02:06Z</time>
      </trkpt>
      <trkpt lat="45.13456" lon="2.72354">
        <ele>1230.62</ele>
        <time>2021-08-15T15:02:13Z</time>
      </trkpt>
      <trkpt lat="45.13466" lon="2.72339">
        <ele>1231.59</ele>
        <time>2021-08-15T15:02:20Z</time>
      </trkpt>
      <trkpt lat="45.13463" lon="2.7232">
        <ele>1232.55</ele>
        <time>2021-08-15T15:02:27Z</time>
      </trkpt>
      <trkpt lat="45.13447" lon="2.72298">
        <ele>1233.03</ele>
        <time>2021-08-15T15:02:36Z</time>
      </trkpt>
      <trkpt lat="45.1344" lon="2.72274">
        <ele>1234.47</ele>
        <time>2021-08-15T15:02:43Z</time>
      </trkpt>
      <trkpt lat="45.13439" lon="2.72249">
        <ele>1235.43</ele>
        <time>2021-08-15T15:02:50Z</time>
      </trkpt>
      <trkpt lat="45.13437" lon="2.72217">
        <ele>1236.87</ele>
        <time>2021-08-15T15:02:59Z</time>
      </trkpt>
      <trkpt lat="45.13427" lon="2.72193">
        <ele>1237.83</ele>
        <time>2021-08-15T15:03:08Z</time>
      </trkpt>
      <trkpt lat="45.13411" lon="2.72164">
        <ele>1239.76</ele>
        <time>2021-08-15T15:03:20Z</time>
      </trkpt>
      <trkpt lat="45.13396" lon="2.72134">
        <ele>1241.68</ele>
        <time>2021-08-15T15:03:32Z</time>
      </trkpt>
      <trkpt lat="45.13386" lon="2.72113">
        <ele>1242.16</ele>
        <time>2021-08-15T15:03:40Z</time>
      </trkpt>
      <trkpt lat="45.13378" lon="2.72089">
        <ele>1243.6</ele>
        <time>2021-08-15T15:03:49Z</time>
      </trkpt>
      <trkpt lat="45.13371" lon="2.72051">
        <ele>1245.53</ele>
        <time>2021-08-15T15:04:02Z</time>
      </trkpt>
      <trkpt lat="45.13367" lon="2.72017">
        <ele>1247.45</ele>
        <time>2021-08-15T15:04:14Z</time>
      </trkpt>
      <trkpt lat="45.13364" lon="2.71987">
        <ele>1248.41</ele>
        <time>2021-08-15T15:04:25Z</time>
      </trkpt>
      <trkpt lat="45.13361" lon="2.71956">
        <ele>1249.37</ele>
        <time>2021-08-15T15:04:37Z</time>
      </trkpt>
      <trkpt lat="45.13358" lon="2.71931">
        <ele>1250.81</ele>
        <time>2021-08-15T15:04:46Z</time>
      </trkpt>
      <trkpt lat="45.13356" lon="2.7191">
        <ele>1251.77</ele>
        <time>2021-08-15T15:04:53Z</time>
      </trkpt>
      <trkpt lat="45.13353" lon="2.71884">
        <ele>1252.74</ele>
        <time>2021-08-15T15:05:02Z</time>
      </trkpt>
      <trkpt lat="45.13349" lon="2.71856">
        <ele>1254.18</ele>
        <time>2021-08-15T15:05:12Z</time>
      </trkpt>
      <trkpt lat="45.13346" lon="2.71833">
        <ele>1254.66</ele>
        <time>2021-08-15T15:05:19Z</time>
      </trkpt>
      <trkpt lat="45.13342" lon="2.7181">
        <ele>1256.1</ele>
        <time>2021-08-15T15:05:26Z</time>
      </trkpt>
      <trkpt lat="45.13338" lon="2.71784">
        <ele>1257.06</ele>
        <time>2021-08-15T15:05:35Z</time>
      </trkpt>
      <trkpt lat="45.13335" lon="2.71758">
        <ele>1258.98</ele>
        <time>2021-08-15T15:05:44Z</time>
      </trkpt>
      <trkpt lat="45.1333" lon="2.71727">
        <ele>1259.94</ele>
        <time>2021-08-15T15:05:55Z</time>
      </trkpt>
      <trkpt lat="45.13325" lon="2.71701">
        <ele>1261.39</ele>
        <time>2021-08-15T15:06:04Z</time>
      </trkpt>
      <trkpt lat="45.13321" lon="2.71672">
        <ele>1262.83</ele>
        <time>2021-08-15T15:06:14Z</time>
      </trkpt>
      <trkpt lat="45.13317" lon="2.71651">
        <ele>1263.79</ele>
        <time>2021-08-15T15:06:21Z</time>
      </trkpt>
      <trkpt lat="45.13314" lon="2.71625">
        <ele>1264.27</ele>
        <time>2021-08-15T15:06:30Z</time>
      </trkpt>
      <trkpt lat="45.13312" lon="2.71619">
        <ele>1265.71</ele>
        <time>2021-08-15T15:06:32Z</time>
      </trkpt>
      <trkpt lat="45.13308" lon="2.71591">
        <ele>1266.19</ele>
        <time>2021-08-15T15:06:42Z</time>
      </trkpt>
      <trkpt lat="45.13303" lon="2.71564">
        <ele>1267.16</ele>
        <time>2021-08-15T15:06:52Z</time>
      </trkpt>
      <trkpt lat="45.133" lon="2.71543">
        <ele>1268.6</ele>
        <time>2021-08-15T15:06:59Z</time>
      </trkpt>
      <trkpt lat="45.13295" lon="2.71512">
        <ele>1270.04</ele>
        <time>2021-08-15T15:07:09Z</time>
      </trkpt>
      <trkpt lat="45.13291" lon="2.71481">
        <ele>1271.48</ele>
        <time>2021-08-15T15:07:19Z</time>
      </trkpt>
      <trkpt lat="45.13286" lon="2.7145">
        <ele>1271.96</ele>
        <time>2021-08-15T15:07:29Z</time>
      </trkpt>
      <trkpt lat="45.13281" lon="2.71413">
        <ele>1273.4</ele>
        <time>2021-08-15T15:07:40Z</time>
      </trkpt>
      <trkpt lat="45.13274" lon="2.71378">
        <ele>1274.36</ele>
        <time>2021-08-15T15:07:51Z</time>
      </trkpt>
      <trkpt lat="45.13268" lon="2.71349">
        <ele>1275.33</ele>
        <time>2021-08-15T15:08:00Z</time>
      </trkpt>
      <trkpt lat="45.13259" lon="2.71314">
        <ele>1277.25</ele>
        <time>2021-08-15T15:08:11Z</time>
      </trkpt>
      <trkpt lat="45.13251" lon="2.71273">
        <ele>1278.69</ele>
        <time>2021-08-15T15:08:23Z</time>
      </trkpt>
      <trkpt lat="45.13245" lon="2.71236">
        <ele>1280.13</ele>
        <time>2021-08-15T15:08:34Z</time>
      </trkpt>
      <trkpt lat="45.13244" lon="2.71206">
        <ele>1281.57</ele>
        <time>2021-08-15T15:08:44Z</time>
      </trkpt>
      <trkpt lat="45.13243" lon="2.71165">
        <ele>1283.98</ele>
        <time>2021-08-15T15:08:58Z</time>
      </trkpt>
      <trkpt lat="45.13242" lon="2.71135">
        <ele>1285.42</ele>
        <time>2021-08-15T15:09:09Z</time>
      </trkpt>
      <trkpt lat="45.13241" lon="2.71105">
        <ele>1286.38</ele>
        <time>2021-08-15T15:09:20Z</time>
      </trkpt>
      <trkpt lat="45.13243" lon="2.71073">
        <ele>1287.82</ele>
        <time>2021-08-15T15:09:32Z</time>
      </trkpt>
      <trkpt lat="45.13243" lon="2.71049">
        <ele>1289.27</ele>
        <time>2021-08-15T15:09:40Z</time>
      </trkpt>
      <trkpt lat="45.13241" lon="2.71025">
        <ele>1290.71</ele>
        <time>2021-08-15T15:09:48Z</time>
      </trkpt>
      <trkpt lat="45.13235" lon="2.70992">
        <ele>1292.15</ele>
        <time>2021-08-15T15:09:58Z</time>
      </trkpt>
      <trkpt lat="45.13231" lon="2.70963">
        <ele>1293.11</ele>
        <time>2021-08-15T15:10:08Z</time>
      </trkpt>
      <trkpt lat="45.13227" lon="2.70935">
        <ele>1294.07</ele>
        <time>2021-08-15T15:10:17Z</time>
      </trkpt>
      <trkpt lat="45.13224" lon="2.70901">
        <ele>1295.99</ele>
        <time>2021-08-15T15:10:28Z</time>
      </trkpt>
      <trkpt lat="45.13218" lon="2.70862">
        <ele>1296.96</ele>
        <time>2021-08-15T15:10:41Z</time>
      </trkpt>
      <trkpt lat="45.1321" lon="2.70828">
        <ele>1297.92</ele>
        <time>2021-08-15T15:10:51Z</time>
      </trkpt>
      <trkpt lat="45.13202" lon="2.70798">
        <ele>1298.88</ele>
        <time>2021-08-15T15:11:00Z</time>
      </trkpt>
      <trkpt lat="45.13195" lon="2.70772">
        <ele>1299.84</ele>
        <time>2021-08-15T15:11:08Z</time>
      </trkpt>
      <trkpt lat="45.13189" lon="2.70748">
        <ele>1300.32</ele>
        <time>2021-08-15T15:11:15Z</time>
      </trkpt>
      <trkpt lat="45.13182" lon="2.70718">
        <ele>1301.76</ele>
        <time>2021-08-15T15:11:24Z</time>
      </trkpt>
      <trkpt lat="45.13175" lon="2.70687">
        <ele>1302.72</ele>
        <time>2021-08-15T15:11:33Z</time>
      </trkpt>
      <trkpt lat="45.13166" lon="2.70657">
        <ele>1303.69</ele>
        <time>2021-08-15T15:11:42Z</time>
      </trkpt>
      <trkpt lat="45.13159" lon="2.70632">
        <ele>1304.65</ele>
        <time>2021-08-15T15:11:50Z</time>
      </trkpt>
      <trkpt lat="45.13151" lon="2.70605">
        <ele>1306.09</ele>
        <time>2021-08-15T15:11:59Z</time>
      </trkpt>
      <trkpt lat="45.13144" lon="2.70578">
        <ele>1308.01</ele>
        <time>2021-08-15T15:12:10Z</time>
      </trkpt>
      <trkpt lat="45.1314" lon="2.70562">
        <ele>1309.45</ele>
        <time>2021-08-15T15:12:17Z</time>
      </trkpt>
      <trkpt lat="45.13134" lon="2.70537">
        <ele>1310.9</ele>
        <time>2021-08-15T15:12:28Z</time>
      </trkpt>
      <trkpt lat="45.13128" lon="2.70516">
        <ele>1312.34</ele>
        <time>2021-08-15T15:12:37Z</time>
      </trkpt>
      <trkpt lat="45.13122" lon="2.70498">
        <ele>1313.3</ele>
        <time>2021-08-15T15:12:45Z</time>
      </trkpt>
      <trkpt lat="45.13116" lon="2.70476">
        <ele>1315.22</ele>
        <time>2021-08-15T15:12:54Z</time>
      </trkpt>
      <trkpt lat="45.13109" lon="2.7045">
        <ele>1317.14</ele>
        <time>2021-08-15T15:13:05Z</time>
      </trkpt>
      <trkpt lat="45.13101" lon="2.70427">
        <ele>1318.59</ele>
        <time>2021-08-15T15:13:15Z</time>
      </trkpt>
      <trkpt lat="45.13091" lon="2.70408">
        <ele>1319.55</ele>
        <time>2021-08-15T15:13:23Z</time>
      </trkpt>
      <trkpt lat="45.13086" lon="2.70401">
        <ele>1320.99</ele>
        <time>2021-08-15T15:13:26Z</time>
      </trkpt>
      <trkpt lat="45.13066" lon="2.70379">
        <ele>1321.95</ele>
        <time>2021-08-15T15:13:36Z</time>
      </trkpt>
      <trkpt lat="45.1305" lon="2.70355">
        <ele>1323.39</ele>
        <time>2021-08-15T15:13:46Z</time>
      </trkpt>
      <trkpt lat="45.13042" lon="2.70326">
        <ele>1324.35</ele>
        <time>2021-08-15T15:13:55Z</time>
      </trkpt>
      <trkpt lat="45.13036" lon="2.70286">
        <ele>1325.8</ele>
        <time>2021-08-15T15:14:07Z</time>
      </trkpt>
      <trkpt lat="45.13025" lon="2.7027">
        <ele>1326.76</ele>
        <time>2021-08-15T15:14:14Z</time>
      </trkpt>
      <trkpt lat="45.13017" lon="2.70261">
        <ele>1327.72</ele>
        <time>2021-08-15T15:14:19Z</time>
      </trkpt>
      <trkpt lat="45.13016" lon="2.70258">
        <ele>1327.72</ele>
        <time>2021-08-15T15:14:20Z</time>
      </trkpt>
      <trkpt lat="45.13017" lon="2.70256">
        <ele>1328.2</ele>
        <time>2021-08-15T15:14:21Z</time>
      </trkpt>
      <trkpt lat="45.13018" lon="2.70252">
        <ele>1328.2</ele>
        <time>2021-08-15T15:14:22Z</time>
      </trkpt>
      <trkpt lat="45.13019" lon="2.70249">
        <ele>1327.72</ele>
        <time>2021-08-15T15:14:23Z</time>
      </trkpt>
      <trkpt lat="45.13026" lon="2.70219">
        <ele>1328.2</ele>
        <time>2021-08-15T15:14:30Z</time>
      </trkpt>
      <trkpt lat="45.13028" lon="2.70214">
        <ele>1328.2</ele>
        <time>2021-08-15T15:14:32Z</time>
      </trkpt>
      <trkpt lat="45.1303" lon="2.70211">
        <ele>1328.2</ele>
        <time>2021-08-15T15:14:37Z</time>
      </trkpt>
      <trkpt lat="45.1303" lon="2.70211">
        <ele>1328.2</ele>
        <time>2021-08-15T15:14:50Z</time>
      </trkpt>
      <trkpt lat="45.13029" lon="2.70211">
        <ele>1328.2</ele>
        <time>2021-08-15T15:15:11Z</time>
      </trkpt>
      <trkpt lat="45.1303" lon="2.70211">
        <ele>1328.2</ele>
        <time>2021-08-15T15:15:33Z</time>
      </trkpt>
      <trkpt lat="45.13029" lon="2.70213">
        <ele>1328.2</ele>
        <time>2021-08-15T15:15:49Z</time>
      </trkpt>
      <trkpt lat="45.13028" lon="2.70216">
        <ele>1328.68</ele>
        <time>2021-08-15T15:16:09Z</time>
      </trkpt>
      <trkpt lat="45.13029" lon="2.70216">
        <ele>1328.68</ele>
        <time>2021-08-15T15:16:22Z</time>
      </trkpt>
      <trkpt lat="45.13029" lon="2.70215">
        <ele>1328.68</ele>
        <time>2021-08-15T15:16:31Z</time>
      </trkpt>
      <trkpt lat="45.13029" lon="2.70213">
        <ele>1328.68</ele>
        <time>2021-08-15T15:16:52Z</time>
      </trkpt>
      <trkpt lat="45.13029" lon="2.70213">
        <ele>1328.68</ele>
        <time>2021-08-15T15:17:07Z</time>
      </trkpt>
      <trkpt lat="45.13028" lon="2.70212">
        <ele>1327.72</ele>
        <time>2021-08-15T15:17:23Z</time>
      </trkpt>
      <trkpt lat="45.13029" lon="2.70212">
        <ele>1327.72</ele>
        <time>2021-08-15T15:17:37Z</time>
      </trkpt>
      <trkpt lat="45.1303" lon="2.70212">
        <ele>1327.72</ele>
        <time>2021-08-15T15:17:49Z</time>
      </trkpt>
      <trkpt lat="45.13031" lon="2.70212">
        <ele>1329.16</ele>
        <time>2021-08-15T15:17:55Z</time>
      </trkpt>
      <trkpt lat="45.13031" lon="2.70212">
        <ele>1329.16</ele>
        <time>2021-08-15T15:18:13Z</time>
      </trkpt>
      <trkpt lat="45.13031" lon="2.7021">
        <ele>1329.16</ele>
        <time>2021-08-15T15:18:28Z</time>
      </trkpt>
      <trkpt lat="45.1303" lon="2.70208">
        <ele>1329.16</ele>
        <time>2021-08-15T15:18:38Z</time>
      </trkpt>
      <trkpt lat="45.13029" lon="2.70209">
        <ele>1329.16</ele>
        <time>2021-08-15T15:18:39Z</time>
      </trkpt>
      <trkpt lat="45.13027" lon="2.7021">
        <ele>1329.64</ele>
        <time>2021-08-15T15:18:45Z</time>
      </trkpt>
      <trkpt lat="45.13027" lon="2.70213">
        <ele>1329.64</ele>
        <time>2021-08-15T15:19:00Z</time>
      </trkpt>
      <trkpt lat="45.13026" lon="2.70211">
        <ele>1329.64</ele>
        <time>2021-08-15T15:19:15Z</time>
      </trkpt>
      <trkpt lat="45.13025" lon="2.70216">
        <ele>1329.64</ele>
        <time>2021-08-15T15:19:22Z</time>
      </trkpt>
      <trkpt lat="45.13024" lon="2.70219">
        <ele>1329.64</ele>
        <time>2021-08-15T15:19:23Z</time>
      </trkpt>
      <trkpt lat="45.13023" lon="2.70222">
        <ele>1329.64</ele>
        <time>2021-08-15T15:19:24Z</time>
      </trkpt>
      <trkpt lat="45.13023" lon="2.70226">
        <ele>1329.64</ele>
        <time>2021-08-15T15:19:25Z</time>
      </trkpt>
      <trkpt lat="45.13022" lon="2.70229">
        <ele>1329.64</ele>
        <time>2021-08-15T15:19:26Z</time>
      </trkpt>
      <trkpt lat="45.13021" lon="2.70233">
        <ele>1329.64</ele>
        <time>2021-08-15T15:19:27Z</time>
      </trkpt>
      <trkpt lat="45.1302" lon="2.70237">
        <ele>1329.64</ele>
        <time>2021-08-15T15:19:28Z</time>
      </trkpt>
      <trkpt lat="45.13016" lon="2.70259">
        <ele>1330.12</ele>
        <time>2021-08-15T15:19:34Z</time>
      </trkpt>
      <trkpt lat="45.13014" lon="2.7026">
        <ele>1330.12</ele>
        <time>2021-08-15T15:19:35Z</time>
      </trkpt>
      <trkpt lat="45.13011" lon="2.7026">
        <ele>1330.12</ele>
        <time>2021-08-15T15:19:36Z</time>
      </trkpt>
      <trkpt lat="45.13009" lon="2.70259">
        <ele>1330.6</ele>
        <time>2021-08-15T15:19:37Z</time>
      </trkpt>
      <trkpt lat="45.13008" lon="2.70257">
        <ele>1331.08</ele>
        <time>2021-08-15T15:19:38Z</time>
      </trkpt>
      <trkpt lat="45.13006" lon="2.70255">
        <ele>1331.08</ele>
        <time>2021-08-15T15:19:39Z</time>
      </trkpt>
      <trkpt lat="45.13003" lon="2.70254">
        <ele>1331.08</ele>
        <time>2021-08-15T15:19:40Z</time>
      </trkpt>
      <trkpt lat="45.13001" lon="2.70253">
        <ele>1331.08</ele>
        <time>2021-08-15T15:19:41Z</time>
      </trkpt>
      <trkpt lat="45.12974" lon="2.70241">
        <ele>1331.08</ele>
        <time>2021-08-15T15:19:50Z</time>
      </trkpt>
      <trkpt lat="45.12954" lon="2.70236">
        <ele>1331.56</ele>
        <time>2021-08-15T15:19:56Z</time>
      </trkpt>
      <trkpt lat="45.12924" lon="2.70227">
        <ele>1331.08</ele>
        <time>2021-08-15T15:20:04Z</time>
      </trkpt>
      <trkpt lat="45.1292" lon="2.70224">
        <ele>1331.08</ele>
        <time>2021-08-15T15:20:05Z</time>
      </trkpt>
      <trkpt lat="45.12883" lon="2.70196">
        <ele>1329.16</ele>
        <time>2021-08-15T15:20:13Z</time>
      </trkpt>
      <trkpt lat="45.12873" lon="2.70189">
        <ele>1329.16</ele>
        <time>2021-08-15T15:20:15Z</time>
      </trkpt>
      <trkpt lat="45.12867" lon="2.70186">
        <ele>1328.68</ele>
        <time>2021-08-15T15:20:16Z</time>
      </trkpt>
      <trkpt lat="45.12861" lon="2.70185">
        <ele>1328.68</ele>
        <time>2021-08-15T15:20:17Z</time>
      </trkpt>
      <trkpt lat="45.12855" lon="2.70183">
        <ele>1328.68</ele>
        <time>2021-08-15T15:20:18Z</time>
      </trkpt>
      <trkpt lat="45.12849" lon="2.70183">
        <ele>1327.72</ele>
        <time>2021-08-15T15:20:19Z</time>
      </trkpt>
      <trkpt lat="45.128" lon="2.70172">
        <ele>1325.8</ele>
        <time>2021-08-15T15:20:26Z</time>
      </trkpt>
      <trkpt lat="45.12793" lon="2.70169">
        <ele>1325.8</ele>
        <time>2021-08-15T15:20:27Z</time>
      </trkpt>
      <trkpt lat="45.12786" lon="2.70164">
        <ele>1325.8</ele>
        <time>2021-08-15T15:20:28Z</time>
      </trkpt>
      <trkpt lat="45.12779" lon="2.7016">
        <ele>1325.8</ele>
        <time>2021-08-15T15:20:29Z</time>
      </trkpt>
      <trkpt lat="45.12774" lon="2.70155">
        <ele>1325.8</ele>
        <time>2021-08-15T15:20:30Z</time>
      </trkpt>
      <trkpt lat="45.12769" lon="2.7015">
        <ele>1325.8</ele>
        <time>2021-08-15T15:20:31Z</time>
      </trkpt>
      <trkpt lat="45.12764" lon="2.70145">
        <ele>1326.76</ele>
        <time>2021-08-15T15:20:32Z</time>
      </trkpt>
      <trkpt lat="45.12759" lon="2.70139">
        <ele>1326.76</ele>
        <time>2021-08-15T15:20:33Z</time>
      </trkpt>
      <trkpt lat="45.1273" lon="2.70104">
        <ele>1329.16</ele>
        <time>2021-08-15T15:20:41Z</time>
      </trkpt>
      <trkpt lat="45.12728" lon="2.701">
        <ele>1329.64</ele>
        <time>2021-08-15T15:20:42Z</time>
      </trkpt>
      <trkpt lat="45.12721" lon="2.70091">
        <ele>1329.64</ele>
        <time>2021-08-15T15:20:44Z</time>
      </trkpt>
      <trkpt lat="45.12695" lon="2.70053">
        <ele>1331.08</ele>
        <time>2021-08-15T15:20:54Z</time>
      </trkpt>
      <trkpt lat="45.12677" lon="2.70018">
        <ele>1332.52</ele>
        <time>2021-08-15T15:21:03Z</time>
      </trkpt>
      <trkpt lat="45.12659" lon="2.69982">
        <ele>1333.01</ele>
        <time>2021-08-15T15:21:13Z</time>
      </trkpt>
      <trkpt lat="45.12636" lon="2.69943">
        <ele>1333.97</ele>
        <time>2021-08-15T15:21:25Z</time>
      </trkpt>
      <trkpt lat="45.12616" lon="2.69912">
        <ele>1334.93</ele>
        <time>2021-08-15T15:21:35Z</time>
      </trkpt>
      <trkpt lat="45.12598" lon="2.69884">
        <ele>1336.37</ele>
        <time>2021-08-15T15:21:44Z</time>
      </trkpt>
      <trkpt lat="45.12581" lon="2.69856">
        <ele>1337.33</ele>
        <time>2021-08-15T15:21:53Z</time>
      </trkpt>
      <trkpt lat="45.12555" lon="2.69829">
        <ele>1337.81</ele>
        <time>2021-08-15T15:22:04Z</time>
      </trkpt>
      <trkpt lat="45.12533" lon="2.6981">
        <ele>1339.25</ele>
        <time>2021-08-15T15:22:13Z</time>
      </trkpt>
      <trkpt lat="45.1251" lon="2.69791">
        <ele>1339.73</ele>
        <time>2021-08-15T15:22:22Z</time>
      </trkpt>
      <trkpt lat="45.12484" lon="2.69772">
        <ele>1341.18</ele>
        <time>2021-08-15T15:22:32Z</time>
      </trkpt>
      <trkpt lat="45.12459" lon="2.6976">
        <ele>1342.14</ele>
        <time>2021-08-15T15:22:41Z</time>
      </trkpt>
      <trkpt lat="45.12436" lon="2.69755">
        <ele>1343.1</ele>
        <time>2021-08-15T15:22:49Z</time>
      </trkpt>
      <trkpt lat="45.12409" lon="2.69746">
        <ele>1344.06</ele>
        <time>2021-08-15T15:22:59Z</time>
      </trkpt>
      <trkpt lat="45.1238" lon="2.69739">
        <ele>1345.02</ele>
        <time>2021-08-15T15:23:09Z</time>
      </trkpt>
      <trkpt lat="45.1236" lon="2.69733">
        <ele>1345.5</ele>
        <time>2021-08-15T15:23:16Z</time>
      </trkpt>
      <trkpt lat="45.12337" lon="2.69723">
        <ele>1346.46</ele>
        <time>2021-08-15T15:23:24Z</time>
      </trkpt>
      <trkpt lat="45.12311" lon="2.69709">
        <ele>1347.43</ele>
        <time>2021-08-15T15:23:32Z</time>
      </trkpt>
      <trkpt lat="45.12281" lon="2.69695">
        <ele>1348.39</ele>
        <time>2021-08-15T15:23:41Z</time>
      </trkpt>
      <trkpt lat="45.12255" lon="2.69679">
        <ele>1349.83</ele>
        <time>2021-08-15T15:23:51Z</time>
      </trkpt>
      <trkpt lat="45.12228" lon="2.69661">
        <ele>1351.27</ele>
        <time>2021-08-15T15:24:02Z</time>
      </trkpt>
      <trkpt lat="45.12209" lon="2.69653">
        <ele>1351.75</ele>
        <time>2021-08-15T15:24:09Z</time>
      </trkpt>
      <trkpt lat="45.12178" lon="2.69636">
        <ele>1352.71</ele>
        <time>2021-08-15T15:24:20Z</time>
      </trkpt>
      <trkpt lat="45.12153" lon="2.69618">
        <ele>1354.15</ele>
        <time>2021-08-15T15:24:30Z</time>
      </trkpt>
      <trkpt lat="45.12127" lon="2.69598">
        <ele>1354.63</ele>
        <time>2021-08-15T15:24:40Z</time>
      </trkpt>
      <trkpt lat="45.12104" lon="2.69573">
        <ele>1355.6</ele>
        <time>2021-08-15T15:24:50Z</time>
      </trkpt>
      <trkpt lat="45.12085" lon="2.69547">
        <ele>1357.04</ele>
        <time>2021-08-15T15:25:00Z</time>
      </trkpt>
      <trkpt lat="45.12063" lon="2.69529">
        <ele>1358</ele>
        <time>2021-08-15T15:25:09Z</time>
      </trkpt>
      <trkpt lat="45.12039" lon="2.69516">
        <ele>1358.96</ele>
        <time>2021-08-15T15:25:18Z</time>
      </trkpt>
      <trkpt lat="45.1202" lon="2.69502">
        <ele>1359.44</ele>
        <time>2021-08-15T15:25:26Z</time>
      </trkpt>
      <trkpt lat="45.11999" lon="2.69481">
        <ele>1360.4</ele>
        <time>2021-08-15T15:25:35Z</time>
      </trkpt>
      <trkpt lat="45.11971" lon="2.69454">
        <ele>1361.36</ele>
        <time>2021-08-15T15:25:46Z</time>
      </trkpt>
      <trkpt lat="45.11945" lon="2.69436">
        <ele>1362.81</ele>
        <time>2021-08-15T15:25:55Z</time>
      </trkpt>
      <trkpt lat="45.11927" lon="2.69425">
        <ele>1363.29</ele>
        <time>2021-08-15T15:26:01Z</time>
      </trkpt>
      <trkpt lat="45.1191" lon="2.69414">
        <ele>1363.29</ele>
        <time>2021-08-15T15:26:07Z</time>
      </trkpt>
      <trkpt lat="45.11892" lon="2.69401">
        <ele>1364.25</ele>
        <time>2021-08-15T15:26:13Z</time>
      </trkpt>
      <trkpt lat="45.11868" lon="2.69381">
        <ele>1364.73</ele>
        <time>2021-08-15T15:26:22Z</time>
      </trkpt>
      <trkpt lat="45.11839" lon="2.69353">
        <ele>1365.69</ele>
        <time>2021-08-15T15:26:33Z</time>
      </trkpt>
      <trkpt lat="45.11817" lon="2.69332">
        <ele>1367.13</ele>
        <time>2021-08-15T15:26:42Z</time>
      </trkpt>
      <trkpt lat="45.11796" lon="2.69312">
        <ele>1368.09</ele>
        <time>2021-08-15T15:26:51Z</time>
      </trkpt>
      <trkpt lat="45.11774" lon="2.6929">
        <ele>1369.54</ele>
        <time>2021-08-15T15:27:00Z</time>
      </trkpt>
      <trkpt lat="45.11756" lon="2.69274">
        <ele>1370.5</ele>
        <time>2021-08-15T15:27:07Z</time>
      </trkpt>
      <trkpt lat="45.11723" lon="2.69255">
        <ele>1371.46</ele>
        <time>2021-08-15T15:27:18Z</time>
      </trkpt>
      <trkpt lat="45.11694" lon="2.69238">
        <ele>1372.9</ele>
        <time>2021-08-15T15:27:28Z</time>
      </trkpt>
      <trkpt lat="45.11665" lon="2.69219">
        <ele>1373.86</ele>
        <time>2021-08-15T15:27:38Z</time>
      </trkpt>
      <trkpt lat="45.11636" lon="2.69193">
        <ele>1375.78</ele>
        <time>2021-08-15T15:27:49Z</time>
      </trkpt>
      <trkpt lat="45.11614" lon="2.69162">
        <ele>1376.75</ele>
        <time>2021-08-15T15:28:00Z</time>
      </trkpt>
      <trkpt lat="45.11592" lon="2.69129">
        <ele>1377.23</ele>
        <time>2021-08-15T15:28:11Z</time>
      </trkpt>
      <trkpt lat="45.11572" lon="2.69106">
        <ele>1378.19</ele>
        <time>2021-08-15T15:28:20Z</time>
      </trkpt>
      <trkpt lat="45.11551" lon="2.69084">
        <ele>1379.63</ele>
        <time>2021-08-15T15:28:29Z</time>
      </trkpt>
      <trkpt lat="45.11531" lon="2.69069">
        <ele>1380.59</ele>
        <time>2021-08-15T15:28:37Z</time>
      </trkpt>
      <trkpt lat="45.11504" lon="2.6905">
        <ele>1381.07</ele>
        <time>2021-08-15T15:28:48Z</time>
      </trkpt>
      <trkpt lat="45.11476" lon="2.69031">
        <ele>1382.51</ele>
        <time>2021-08-15T15:29:00Z</time>
      </trkpt>
      <trkpt lat="45.1145" lon="2.69013">
        <ele>1384.44</ele>
        <time>2021-08-15T15:29:11Z</time>
      </trkpt>
      <trkpt lat="45.11431" lon="2.69001">
        <ele>1384.92</ele>
        <time>2021-08-15T15:29:18Z</time>
      </trkpt>
      <trkpt lat="45.11414" lon="2.68982">
        <ele>1385.88</ele>
        <time>2021-08-15T15:29:26Z</time>
      </trkpt>
      <trkpt lat="45.114" lon="2.68959">
        <ele>1387.8</ele>
        <time>2021-08-15T15:29:36Z</time>
      </trkpt>
      <trkpt lat="45.11393" lon="2.68936">
        <ele>1389.24</ele>
        <time>2021-08-15T15:29:46Z</time>
      </trkpt>
      <trkpt lat="45.11389" lon="2.68912">
        <ele>1390.68</ele>
        <time>2021-08-15T15:29:56Z</time>
      </trkpt>
      <trkpt lat="45.11386" lon="2.68886">
        <ele>1392.13</ele>
        <time>2021-08-15T15:30:07Z</time>
      </trkpt>
      <trkpt lat="45.11385" lon="2.68863">
        <ele>1393.57</ele>
        <time>2021-08-15T15:30:17Z</time>
      </trkpt>
      <trkpt lat="45.11384" lon="2.68834">
        <ele>1394.53</ele>
        <time>2021-08-15T15:30:28Z</time>
      </trkpt>
      <trkpt lat="45.11382" lon="2.68802">
        <ele>1396.45</ele>
        <time>2021-08-15T15:30:40Z</time>
      </trkpt>
      <trkpt lat="45.11381" lon="2.6877">
        <ele>1397.89</ele>
        <time>2021-08-15T15:30:52Z</time>
      </trkpt>
      <trkpt lat="45.1138" lon="2.6874">
        <ele>1399.82</ele>
        <time>2021-08-15T15:31:03Z</time>
      </trkpt>
      <trkpt lat="45.11378" lon="2.6873">
        <ele>1400.78</ele>
        <time>2021-08-15T15:31:07Z</time>
      </trkpt>
      <trkpt lat="45.11378" lon="2.68727">
        <ele>1400.78</ele>
        <time>2021-08-15T15:31:08Z</time>
      </trkpt>
      <trkpt lat="45.11374" lon="2.68704">
        <ele>1401.74</ele>
        <time>2021-08-15T15:31:16Z</time>
      </trkpt>
      <trkpt lat="45.11365" lon="2.68683">
        <ele>1403.66</ele>
        <time>2021-08-15T15:31:24Z</time>
      </trkpt>
      <trkpt lat="45.11353" lon="2.68665">
        <ele>1404.62</ele>
        <time>2021-08-15T15:31:33Z</time>
      </trkpt>
      <trkpt lat="45.11335" lon="2.6865">
        <ele>1406.07</ele>
        <time>2021-08-15T15:31:44Z</time>
      </trkpt>
      <trkpt lat="45.11318" lon="2.68644">
        <ele>1407.03</ele>
        <time>2021-08-15T15:31:53Z</time>
      </trkpt>
      <trkpt lat="45.11304" lon="2.68641">
        <ele>1408.47</ele>
        <time>2021-08-15T15:32:01Z</time>
      </trkpt>
      <trkpt lat="45.11282" lon="2.68638">
        <ele>1409.91</ele>
        <time>2021-08-15T15:32:12Z</time>
      </trkpt>
      <trkpt lat="45.11263" lon="2.68638">
        <ele>1411.35</ele>
        <time>2021-08-15T15:32:22Z</time>
      </trkpt>
      <trkpt lat="45.11244" lon="2.68632">
        <ele>1412.79</ele>
        <time>2021-08-15T15:32:32Z</time>
      </trkpt>
      <trkpt lat="45.11222" lon="2.68623">
        <ele>1413.76</ele>
        <time>2021-08-15T15:32:44Z</time>
      </trkpt>
      <trkpt lat="45.11208" lon="2.68614">
        <ele>1416.16</ele>
        <time>2021-08-15T15:32:53Z</time>
      </trkpt>
      <trkpt lat="45.11193" lon="2.68604">
        <ele>1418.56</ele>
        <time>2021-08-15T15:33:03Z</time>
      </trkpt>
      <trkpt lat="45.11181" lon="2.68598">
        <ele>1419.52</ele>
        <time>2021-08-15T15:33:11Z</time>
      </trkpt>
      <trkpt lat="45.11168" lon="2.6859">
        <ele>1421.45</ele>
        <time>2021-08-15T15:33:20Z</time>
      </trkpt>
      <trkpt lat="45.11159" lon="2.68587">
        <ele>1422.41</ele>
        <time>2021-08-15T15:33:26Z</time>
      </trkpt>
      <trkpt lat="45.11157" lon="2.68586">
        <ele>1422.89</ele>
        <time>2021-08-15T15:33:27Z</time>
      </trkpt>
      <trkpt lat="45.1114" lon="2.68574">
        <ele>1425.29</ele>
        <time>2021-08-15T15:33:40Z</time>
      </trkpt>
      <trkpt lat="45.11125" lon="2.68564">
        <ele>1426.73</ele>
        <time>2021-08-15T15:33:51Z</time>
      </trkpt>
      <trkpt lat="45.11111" lon="2.68553">
        <ele>1428.18</ele>
        <time>2021-08-15T15:34:02Z</time>
      </trkpt>
      <trkpt lat="45.11097" lon="2.68538">
        <ele>1430.58</ele>
        <time>2021-08-15T15:34:13Z</time>
      </trkpt>
      <trkpt lat="45.1109" lon="2.68527">
        <ele>1432.02</ele>
        <time>2021-08-15T15:34:20Z</time>
      </trkpt>
      <trkpt lat="45.11086" lon="2.68506">
        <ele>1433.94</ele>
        <time>2021-08-15T15:34:30Z</time>
      </trkpt>
      <trkpt lat="45.11086" lon="2.68486">
        <ele>1435.39</ele>
        <time>2021-08-15T15:34:39Z</time>
      </trkpt>
      <trkpt lat="45.11078" lon="2.68466">
        <ele>1436.83</ele>
        <time>2021-08-15T15:34:50Z</time>
      </trkpt>
      <trkpt lat="45.11064" lon="2.68453">
        <ele>1439.23</ele>
        <time>2021-08-15T15:35:01Z</time>
      </trkpt>
      <trkpt lat="45.11052" lon="2.68443">
        <ele>1440.67</ele>
        <time>2021-08-15T15:35:10Z</time>
      </trkpt>
      <trkpt lat="45.1104" lon="2.68431">
        <ele>1442.11</ele>
        <time>2021-08-15T15:35:20Z</time>
      </trkpt>
      <trkpt lat="45.1103" lon="2.68421">
        <ele>1444.04</ele>
        <time>2021-08-15T15:35:28Z</time>
      </trkpt>
      <trkpt lat="45.1102" lon="2.68411">
        <ele>1445.48</ele>
        <time>2021-08-15T15:35:36Z</time>
      </trkpt>
      <trkpt lat="45.11014" lon="2.68402">
        <ele>1445.96</ele>
        <time>2021-08-15T15:35:42Z</time>
      </trkpt>
      <trkpt lat="45.11003" lon="2.68392">
        <ele>1448.36</ele>
        <time>2021-08-15T15:35:51Z</time>
      </trkpt>
      <trkpt lat="45.10991" lon="2.68381">
        <ele>1449.81</ele>
        <time>2021-08-15T15:36:00Z</time>
      </trkpt>
      <trkpt lat="45.1099" lon="2.6838">
        <ele>1450.29</ele>
        <time>2021-08-15T15:36:01Z</time>
      </trkpt>
      <trkpt lat="45.10979" lon="2.68367">
        <ele>1451.25</ele>
        <time>2021-08-15T15:36:09Z</time>
      </trkpt>
      <trkpt lat="45.1097" lon="2.68357">
        <ele>1452.69</ele>
        <time>2021-08-15T15:36:18Z</time>
      </trkpt>
      <trkpt lat="45.10958" lon="2.68345">
        <ele>1454.13</ele>
        <time>2021-08-15T15:36:28Z</time>
      </trkpt>
      <trkpt lat="45.10941" lon="2.68333">
        <ele>1456.53</ele>
        <time>2021-08-15T15:36:40Z</time>
      </trkpt>
      <trkpt lat="45.10939" lon="2.68332">
        <ele>1456.53</ele>
        <time>2021-08-15T15:36:41Z</time>
      </trkpt>
      <trkpt lat="45.10924" lon="2.68319">
        <ele>1457.98</ele>
        <time>2021-08-15T15:36:52Z</time>
      </trkpt>
      <trkpt lat="45.10914" lon="2.68311">
        <ele>1458.94</ele>
        <time>2021-08-15T15:36:59Z</time>
      </trkpt>
      <trkpt lat="45.1091" lon="2.68307">
        <ele>1459.9</ele>
        <time>2021-08-15T15:37:02Z</time>
      </trkpt>
      <trkpt lat="45.1091" lon="2.68305">
        <ele>1459.9</ele>
        <time>2021-08-15T15:37:03Z</time>
      </trkpt>
      <trkpt lat="45.1091" lon="2.68303">
        <ele>1460.38</ele>
        <time>2021-08-15T15:37:04Z</time>
      </trkpt>
      <trkpt lat="45.10911" lon="2.68302">
        <ele>1460.38</ele>
        <time>2021-08-15T15:37:05Z</time>
      </trkpt>
      <trkpt lat="45.10912" lon="2.683">
        <ele>1460.38</ele>
        <time>2021-08-15T15:37:06Z</time>
      </trkpt>
      <trkpt lat="45.10913" lon="2.68299">
        <ele>1460.38</ele>
        <time>2021-08-15T15:37:07Z</time>
      </trkpt>
      <trkpt lat="45.10915" lon="2.68299">
        <ele>1461.34</ele>
        <time>2021-08-15T15:37:08Z</time>
      </trkpt>
      <trkpt lat="45.10916" lon="2.68298">
        <ele>1461.34</ele>
        <time>2021-08-15T15:37:09Z</time>
      </trkpt>
      <trkpt lat="45.10918" lon="2.68299">
        <ele>1461.34</ele>
        <time>2021-08-15T15:37:10Z</time>
      </trkpt>
      <trkpt lat="45.10919" lon="2.683">
        <ele>1461.82</ele>
        <time>2021-08-15T15:37:11Z</time>
      </trkpt>
      <trkpt lat="45.10921" lon="2.68301">
        <ele>1461.82</ele>
        <time>2021-08-15T15:37:12Z</time>
      </trkpt>
      <trkpt lat="45.10923" lon="2.68302">
        <ele>1461.82</ele>
        <time>2021-08-15T15:37:13Z</time>
      </trkpt>
      <trkpt lat="45.10925" lon="2.68303">
        <ele>1461.82</ele>
        <time>2021-08-15T15:37:14Z</time>
      </trkpt>
      <trkpt lat="45.10927" lon="2.68304">
        <ele>1462.3</ele>
        <time>2021-08-15T15:37:15Z</time>
      </trkpt>
      <trkpt lat="45.10946" lon="2.68314">
        <ele>1464.23</ele>
        <time>2021-08-15T15:37:26Z</time>
      </trkpt>
      <trkpt lat="45.10963" lon="2.68321">
        <ele>1466.63</ele>
        <time>2021-08-15T15:37:36Z</time>
      </trkpt>
      <trkpt lat="45.10979" lon="2.68328">
        <ele>1468.07</ele>
        <time>2021-08-15T15:37:45Z</time>
      </trkpt>
      <trkpt lat="45.10996" lon="2.68335">
        <ele>1469.99</ele>
        <time>2021-08-15T15:37:56Z</time>
      </trkpt>
      <trkpt lat="45.1101" lon="2.68344">
        <ele>1471.44</ele>
        <time>2021-08-15T15:38:06Z</time>
      </trkpt>
      <trkpt lat="45.11021" lon="2.68353">
        <ele>1472.88</ele>
        <time>2021-08-15T15:38:14Z</time>
      </trkpt>
      <trkpt lat="45.11033" lon="2.68365">
        <ele>1474.8</ele>
        <time>2021-08-15T15:38:22Z</time>
      </trkpt>
      <trkpt lat="45.11044" lon="2.68373">
        <ele>1476.72</ele>
        <time>2021-08-15T15:38:30Z</time>
      </trkpt>
      <trkpt lat="45.11056" lon="2.68379">
        <ele>1478.16</ele>
        <time>2021-08-15T15:38:39Z</time>
      </trkpt>
      <trkpt lat="45.11073" lon="2.68387">
        <ele>1479.61</ele>
        <time>2021-08-15T15:38:51Z</time>
      </trkpt>
      <trkpt lat="45.11088" lon="2.68391">
        <ele>1481.53</ele>
        <time>2021-08-15T15:39:01Z</time>
      </trkpt>
      <trkpt lat="45.11098" lon="2.68387">
        <ele>1482.01</ele>
        <time>2021-08-15T15:39:08Z</time>
      </trkpt>
      <trkpt lat="45.111" lon="2.68386">
        <ele>1482.97</ele>
        <time>2021-08-15T15:39:09Z</time>
      </trkpt>
      <trkpt lat="45.11101" lon="2.68385">
        <ele>1482.97</ele>
        <time>2021-08-15T15:39:10Z</time>
      </trkpt>
      <trkpt lat="45.11103" lon="2.68384">
        <ele>1482.97</ele>
        <time>2021-08-15T15:39:11Z</time>
      </trkpt>
      <trkpt lat="45.11104" lon="2.68383">
        <ele>1483.45</ele>
        <time>2021-08-15T15:39:12Z</time>
      </trkpt>
      <trkpt lat="45.11106" lon="2.68382">
        <ele>1483.45</ele>
        <time>2021-08-15T15:39:13Z</time>
      </trkpt>
      <trkpt lat="45.11107" lon="2.68382">
        <ele>1483.45</ele>
        <time>2021-08-15T15:39:14Z</time>
      </trkpt>
      <trkpt lat="45.11109" lon="2.68381">
        <ele>1483.93</ele>
        <time>2021-08-15T15:39:15Z</time>
      </trkpt>
      <trkpt lat="45.1112" lon="2.68372">
        <ele>1484.89</ele>
        <time>2021-08-15T15:39:23Z</time>
      </trkpt>
      <trkpt lat="45.1113" lon="2.68361">
        <ele>1485.85</ele>
        <time>2021-08-15T15:39:31Z</time>
      </trkpt>
      <trkpt lat="45.11139" lon="2.6834">
        <ele>1487.3</ele>
        <time>2021-08-15T15:39:42Z</time>
      </trkpt>
      <trkpt lat="45.11144" lon="2.6832">
        <ele>1489.22</ele>
        <time>2021-08-15T15:39:51Z</time>
      </trkpt>
      <trkpt lat="45.11149" lon="2.683">
        <ele>1491.62</ele>
        <time>2021-08-15T15:40:01Z</time>
      </trkpt>
      <trkpt lat="45.11152" lon="2.68279">
        <ele>1493.06</ele>
        <time>2021-08-15T15:40:11Z</time>
      </trkpt>
      <trkpt lat="45.11152" lon="2.68258">
        <ele>1494.99</ele>
        <time>2021-08-15T15:40:22Z</time>
      </trkpt>
      <trkpt lat="45.11148" lon="2.68243">
        <ele>1496.43</ele>
        <time>2021-08-15T15:40:30Z</time>
      </trkpt>
      <trkpt lat="45.11146" lon="2.68228">
        <ele>1497.39</ele>
        <time>2021-08-15T15:40:37Z</time>
      </trkpt>
      <trkpt lat="45.11147" lon="2.68225">
        <ele>1497.39</ele>
        <time>2021-08-15T15:40:38Z</time>
      </trkpt>
      <trkpt lat="45.11148" lon="2.68223">
        <ele>1497.87</ele>
        <time>2021-08-15T15:40:39Z</time>
      </trkpt>
      <trkpt lat="45.11149" lon="2.68221">
        <ele>1497.87</ele>
        <time>2021-08-15T15:40:40Z</time>
      </trkpt>
      <trkpt lat="45.1115" lon="2.68219">
        <ele>1498.35</ele>
        <time>2021-08-15T15:40:41Z</time>
      </trkpt>
      <trkpt lat="45.11151" lon="2.68218">
        <ele>1498.35</ele>
        <time>2021-08-15T15:40:42Z</time>
      </trkpt>
      <trkpt lat="45.1116" lon="2.68206">
        <ele>1499.31</ele>
        <time>2021-08-15T15:40:50Z</time>
      </trkpt>
      <trkpt lat="45.11164" lon="2.68203">
        <ele>1499.79</ele>
        <time>2021-08-15T15:40:53Z</time>
      </trkpt>
      <trkpt lat="45.11165" lon="2.68202">
        <ele>1500.27</ele>
        <time>2021-08-15T15:40:54Z</time>
      </trkpt>
      <trkpt lat="45.11167" lon="2.68202">
        <ele>1500.27</ele>
        <time>2021-08-15T15:40:55Z</time>
      </trkpt>
      <trkpt lat="45.11168" lon="2.68202">
        <ele>1500.76</ele>
        <time>2021-08-15T15:40:56Z</time>
      </trkpt>
      <trkpt lat="45.1117" lon="2.68201">
        <ele>1500.76</ele>
        <time>2021-08-15T15:40:57Z</time>
      </trkpt>
      <trkpt lat="45.11179" lon="2.68197">
        <ele>1501.72</ele>
        <time>2021-08-15T15:41:03Z</time>
      </trkpt>
      <trkpt lat="45.11189" lon="2.68189">
        <ele>1502.68</ele>
        <time>2021-08-15T15:41:10Z</time>
      </trkpt>
      <trkpt lat="45.11195" lon="2.68172">
        <ele>1503.64</ele>
        <time>2021-08-15T15:41:18Z</time>
      </trkpt>
      <trkpt lat="45.11197" lon="2.6815">
        <ele>1505.56</ele>
        <time>2021-08-15T15:41:28Z</time>
      </trkpt>
      <trkpt lat="45.11194" lon="2.68129">
        <ele>1507</ele>
        <time>2021-08-15T15:41:38Z</time>
      </trkpt>
      <trkpt lat="45.11191" lon="2.6811">
        <ele>1507.97</ele>
        <time>2021-08-15T15:41:47Z</time>
      </trkpt>
      <trkpt lat="45.11195" lon="2.68088">
        <ele>1509.41</ele>
        <time>2021-08-15T15:41:56Z</time>
      </trkpt>
      <trkpt lat="45.11201" lon="2.6807">
        <ele>1511.81</ele>
        <time>2021-08-15T15:42:04Z</time>
      </trkpt>
      <trkpt lat="45.1121" lon="2.68053">
        <ele>1513.73</ele>
        <time>2021-08-15T15:42:12Z</time>
      </trkpt>
      <trkpt lat="45.11218" lon="2.68032">
        <ele>1515.18</ele>
        <time>2021-08-15T15:42:22Z</time>
      </trkpt>
      <trkpt lat="45.11217" lon="2.68008">
        <ele>1517.1</ele>
        <time>2021-08-15T15:42:32Z</time>
      </trkpt>
      <trkpt lat="45.11216" lon="2.67986">
        <ele>1518.06</ele>
        <time>2021-08-15T15:42:41Z</time>
      </trkpt>
      <trkpt lat="45.11212" lon="2.67965">
        <ele>1520.46</ele>
        <time>2021-08-15T15:42:50Z</time>
      </trkpt>
      <trkpt lat="45.11206" lon="2.67947">
        <ele>1521.9</ele>
        <time>2021-08-15T15:42:58Z</time>
      </trkpt>
      <trkpt lat="45.11191" lon="2.67921">
        <ele>1524.31</ele>
        <time>2021-08-15T15:43:11Z</time>
      </trkpt>
      <trkpt lat="45.11183" lon="2.67903">
        <ele>1525.75</ele>
        <time>2021-08-15T15:43:20Z</time>
      </trkpt>
      <trkpt lat="45.1118" lon="2.67889">
        <ele>1527.67</ele>
        <time>2021-08-15T15:43:27Z</time>
      </trkpt>
      <trkpt lat="45.11177" lon="2.67867">
        <ele>1529.11</ele>
        <time>2021-08-15T15:43:38Z</time>
      </trkpt>
      <trkpt lat="45.11178" lon="2.67847">
        <ele>1531.04</ele>
        <time>2021-08-15T15:43:47Z</time>
      </trkpt>
      <trkpt lat="45.1118" lon="2.67825">
        <ele>1533.44</ele>
        <time>2021-08-15T15:43:57Z</time>
      </trkpt>
      <trkpt lat="45.1118" lon="2.67823">
        <ele>1533.44</ele>
        <time>2021-08-15T15:43:58Z</time>
      </trkpt>
      <trkpt lat="45.1118" lon="2.67821">
        <ele>1533.44</ele>
        <time>2021-08-15T15:43:59Z</time>
      </trkpt>
      <trkpt lat="45.11181" lon="2.67797">
        <ele>1535.84</ele>
        <time>2021-08-15T15:44:10Z</time>
      </trkpt>
      <trkpt lat="45.11182" lon="2.67781">
        <ele>1537.29</ele>
        <time>2021-08-15T15:44:17Z</time>
      </trkpt>
      <trkpt lat="45.11183" lon="2.67763">
        <ele>1538.73</ele>
        <time>2021-08-15T15:44:25Z</time>
      </trkpt>
      <trkpt lat="45.11184" lon="2.67739">
        <ele>1540.17</ele>
        <time>2021-08-15T15:44:35Z</time>
      </trkpt>
      <trkpt lat="45.11186" lon="2.67709">
        <ele>1542.09</ele>
        <time>2021-08-15T15:44:46Z</time>
      </trkpt>
      <trkpt lat="45.11189" lon="2.67687">
        <ele>1543.53</ele>
        <time>2021-08-15T15:44:55Z</time>
      </trkpt>
      <trkpt lat="45.11193" lon="2.67669">
        <ele>1544.98</ele>
        <time>2021-08-15T15:45:03Z</time>
      </trkpt>
      <trkpt lat="45.112" lon="2.67649">
        <ele>1545.94</ele>
        <time>2021-08-15T15:45:13Z</time>
      </trkpt>
      <trkpt lat="45.11206" lon="2.67634">
        <ele>1546.9</ele>
        <time>2021-08-15T15:45:20Z</time>
      </trkpt>
      <trkpt lat="45.11213" lon="2.67614">
        <ele>1548.34</ele>
        <time>2021-08-15T15:45:29Z</time>
      </trkpt>
      <trkpt lat="45.11226" lon="2.67588">
        <ele>1549.78</ele>
        <time>2021-08-15T15:45:40Z</time>
      </trkpt>
      <trkpt lat="45.11236" lon="2.67567">
        <ele>1551.22</ele>
        <time>2021-08-15T15:45:49Z</time>
      </trkpt>
      <trkpt lat="45.11242" lon="2.67551">
        <ele>1552.67</ele>
        <time>2021-08-15T15:45:56Z</time>
      </trkpt>
      <trkpt lat="45.11249" lon="2.67528">
        <ele>1554.11</ele>
        <time>2021-08-15T15:46:04Z</time>
      </trkpt>
      <trkpt lat="45.11256" lon="2.67504">
        <ele>1556.99</ele>
        <time>2021-08-15T15:46:13Z</time>
      </trkpt>
      <trkpt lat="45.11257" lon="2.67498">
        <ele>1557.95</ele>
        <time>2021-08-15T15:46:15Z</time>
      </trkpt>
      <trkpt lat="45.1126" lon="2.67482">
        <ele>1558.43</ele>
        <time>2021-08-15T15:46:21Z</time>
      </trkpt>
      <trkpt lat="45.11267" lon="2.6746">
        <ele>1560.36</ele>
        <time>2021-08-15T15:46:30Z</time>
      </trkpt>
      <trkpt lat="45.11275" lon="2.67438">
        <ele>1561.8</ele>
        <time>2021-08-15T15:46:40Z</time>
      </trkpt>
      <trkpt lat="45.11284" lon="2.67414">
        <ele>1563.72</ele>
        <time>2021-08-15T15:46:50Z</time>
      </trkpt>
      <trkpt lat="45.11294" lon="2.67393">
        <ele>1565.64</ele>
        <time>2021-08-15T15:47:00Z</time>
      </trkpt>
      <trkpt lat="45.11305" lon="2.67369">
        <ele>1567.57</ele>
        <time>2021-08-15T15:47:11Z</time>
      </trkpt>
      <trkpt lat="45.11315" lon="2.67341">
        <ele>1569.97</ele>
        <time>2021-08-15T15:47:23Z</time>
      </trkpt>
      <trkpt lat="45.11324" lon="2.67312">
        <ele>1572.37</ele>
        <time>2021-08-15T15:47:35Z</time>
      </trkpt>
      <trkpt lat="45.11335" lon="2.67288">
        <ele>1575.26</ele>
        <time>2021-08-15T15:47:45Z</time>
      </trkpt>
      <trkpt lat="45.11351" lon="2.6726">
        <ele>1576.7</ele>
        <time>2021-08-15T15:47:58Z</time>
      </trkpt>
      <trkpt lat="45.11366" lon="2.6724">
        <ele>1578.62</ele>
        <time>2021-08-15T15:48:08Z</time>
      </trkpt>
      <trkpt lat="45.11379" lon="2.67225">
        <ele>1579.58</ele>
        <time>2021-08-15T15:48:17Z</time>
      </trkpt>
      <trkpt lat="45.11395" lon="2.67208">
        <ele>1581.03</ele>
        <time>2021-08-15T15:48:27Z</time>
      </trkpt>
      <trkpt lat="45.11404" lon="2.67196">
        <ele>1581.51</ele>
        <time>2021-08-15T15:48:34Z</time>
      </trkpt>
      <trkpt lat="45.11405" lon="2.67193">
        <ele>1581.51</ele>
        <time>2021-08-15T15:48:35Z</time>
      </trkpt>
      <trkpt lat="45.11406" lon="2.67191">
        <ele>1581.51</ele>
        <time>2021-08-15T15:48:36Z</time>
      </trkpt>
      <trkpt lat="45.11406" lon="2.67189">
        <ele>1581.51</ele>
        <time>2021-08-15T15:48:37Z</time>
      </trkpt>
      <trkpt lat="45.11407" lon="2.67187">
        <ele>1581.51</ele>
        <time>2021-08-15T15:48:38Z</time>
      </trkpt>
      <trkpt lat="45.11416" lon="2.67176">
        <ele>1581.51</ele>
        <time>2021-08-15T15:48:46Z</time>
      </trkpt>
      <trkpt lat="45.11419" lon="2.67173">
        <ele>1581.51</ele>
        <time>2021-08-15T15:48:51Z</time>
      </trkpt>
      <trkpt lat="45.1142" lon="2.67174">
        <ele>1581.99</ele>
        <time>2021-08-15T15:48:59Z</time>
      </trkpt>
      <trkpt lat="45.11421" lon="2.67176">
        <ele>1581.99</ele>
        <time>2021-08-15T15:49:20Z</time>
      </trkpt>
      <trkpt lat="45.11421" lon="2.67175">
        <ele>1581.03</ele>
        <time>2021-08-15T15:49:41Z</time>
      </trkpt>
      <trkpt lat="45.11421" lon="2.67175">
        <ele>1581.03</ele>
        <time>2021-08-15T15:49:59Z</time>
      </trkpt>
      <trkpt lat="45.11418" lon="2.67172">
        <ele>1580.54</ele>
        <time>2021-08-15T15:50:17Z</time>
      </trkpt>
      <trkpt lat="45.11417" lon="2.67172">
        <ele>1580.54</ele>
        <time>2021-08-15T15:50:18Z</time>
      </trkpt>
      <trkpt lat="45.11415" lon="2.67173">
        <ele>1580.54</ele>
        <time>2021-08-15T15:50:19Z</time>
      </trkpt>
      <trkpt lat="45.11412" lon="2.67174">
        <ele>1581.99</ele>
        <time>2021-08-15T15:50:22Z</time>
      </trkpt>
      <trkpt lat="45.11399" lon="2.67186">
        <ele>1582.47</ele>
        <time>2021-08-15T15:50:36Z</time>
      </trkpt>
      <trkpt lat="45.11396" lon="2.6719">
        <ele>1581.51</ele>
        <time>2021-08-15T15:50:44Z</time>
      </trkpt>
      <trkpt lat="45.11396" lon="2.67191">
        <ele>1581.51</ele>
        <time>2021-08-15T15:50:57Z</time>
      </trkpt>
      <trkpt lat="45.11397" lon="2.67191">
        <ele>1581.03</ele>
        <time>2021-08-15T15:51:03Z</time>
      </trkpt>
      <trkpt lat="45.11397" lon="2.67192">
        <ele>1581.51</ele>
        <time>2021-08-15T15:51:16Z</time>
      </trkpt>
      <trkpt lat="45.11397" lon="2.67193">
        <ele>1581.51</ele>
        <time>2021-08-15T15:51:34Z</time>
      </trkpt>
      <trkpt lat="45.11397" lon="2.67194">
        <ele>1581.51</ele>
        <time>2021-08-15T15:51:53Z</time>
      </trkpt>
      <trkpt lat="45.11397" lon="2.67194">
        <ele>1581.51</ele>
        <time>2021-08-15T15:52:09Z</time>
      </trkpt>
      <trkpt lat="45.11397" lon="2.67195">
        <ele>1581.51</ele>
        <time>2021-08-15T15:52:29Z</time>
      </trkpt>
      <trkpt lat="45.11397" lon="2.67195">
        <ele>1581.99</ele>
        <time>2021-08-15T15:52:48Z</time>
      </trkpt>
      <trkpt lat="45.11397" lon="2.67195">
        <ele>1581.99</ele>
        <time>2021-08-15T15:53:07Z</time>
      </trkpt>
      <trkpt lat="45.11397" lon="2.67194">
        <ele>1581.99</ele>
        <time>2021-08-15T15:53:25Z</time>
      </trkpt>
      <trkpt lat="45.11395" lon="2.67193">
        <ele>1581.99</ele>
        <time>2021-08-15T15:53:45Z</time>
      </trkpt>
      <trkpt lat="45.11394" lon="2.67191">
        <ele>1582.47</ele>
        <time>2021-08-15T15:54:08Z</time>
      </trkpt>
      <trkpt lat="45.11393" lon="2.6719">
        <ele>1582.47</ele>
        <time>2021-08-15T15:54:31Z</time>
      </trkpt>
      <trkpt lat="45.11394" lon="2.67188">
        <ele>1583.91</ele>
        <time>2021-08-15T15:54:43Z</time>
      </trkpt>
      <trkpt lat="45.11393" lon="2.67188">
        <ele>1583.91</ele>
        <time>2021-08-15T15:54:58Z</time>
      </trkpt>
      <trkpt lat="45.11393" lon="2.67188">
        <ele>1584.39</ele>
        <time>2021-08-15T15:55:23Z</time>
      </trkpt>
      <trkpt lat="45.11393" lon="2.6719">
        <ele>1584.39</ele>
        <time>2021-08-15T15:55:42Z</time>
      </trkpt>
      <trkpt lat="45.11394" lon="2.67191">
        <ele>1584.39</ele>
        <time>2021-08-15T15:55:54Z</time>
      </trkpt>
      <trkpt lat="45.11394" lon="2.67192">
        <ele>1584.39</ele>
        <time>2021-08-15T15:56:03Z</time>
      </trkpt>
      <trkpt lat="45.11394" lon="2.67193">
        <ele>1583.43</ele>
        <time>2021-08-15T15:56:07Z</time>
      </trkpt>
      <trkpt lat="45.11394" lon="2.67192">
        <ele>1583.43</ele>
        <time>2021-08-15T15:56:24Z</time>
      </trkpt>
      <trkpt lat="45.11394" lon="2.67192">
        <ele>1584.87</ele>
        <time>2021-08-15T15:56:26Z</time>
      </trkpt>
      <trkpt lat="45.11394" lon="2.6719">
        <ele>1585.83</ele>
        <time>2021-08-15T15:56:45Z</time>
      </trkpt>
      <trkpt lat="45.11394" lon="2.6719">
        <ele>1585.83</ele>
        <time>2021-08-15T15:57:10Z</time>
      </trkpt>
      <trkpt lat="45.11393" lon="2.67188">
        <ele>1586.31</ele>
        <time>2021-08-15T15:57:26Z</time>
      </trkpt>
      <trkpt lat="45.11394" lon="2.67187">
        <ele>1586.31</ele>
        <time>2021-08-15T15:57:40Z</time>
      </trkpt>
      <trkpt lat="45.11398" lon="2.67186">
        <ele>1586.31</ele>
        <time>2021-08-15T15:57:44Z</time>
      </trkpt>
      <trkpt lat="45.11399" lon="2.67185">
        <ele>1586.31</ele>
        <time>2021-08-15T15:57:45Z</time>
      </trkpt>
      <trkpt lat="45.114" lon="2.67184">
        <ele>1586.31</ele>
        <time>2021-08-15T15:57:46Z</time>
      </trkpt>
      <trkpt lat="45.11401" lon="2.67183">
        <ele>1586.31</ele>
        <time>2021-08-15T15:57:47Z</time>
      </trkpt>
      <trkpt lat="45.11402" lon="2.67182">
        <ele>1586.31</ele>
        <time>2021-08-15T15:57:48Z</time>
      </trkpt>
      <trkpt lat="45.11413" lon="2.67173">
        <ele>1584.87</ele>
        <time>2021-08-15T15:57:55Z</time>
      </trkpt>
      <trkpt lat="45.11416" lon="2.6717">
        <ele>1585.35</ele>
        <time>2021-08-15T15:57:57Z</time>
      </trkpt>
      <trkpt lat="45.11416" lon="2.67168">
        <ele>1585.35</ele>
        <time>2021-08-15T15:57:58Z</time>
      </trkpt>
      <trkpt lat="45.11415" lon="2.67166">
        <ele>1585.35</ele>
        <time>2021-08-15T15:57:59Z</time>
      </trkpt>
      <trkpt lat="45.11414" lon="2.67166">
        <ele>1585.35</ele>
        <time>2021-08-15T15:58:00Z</time>
      </trkpt>
      <trkpt lat="45.11412" lon="2.67166">
        <ele>1585.35</ele>
        <time>2021-08-15T15:58:01Z</time>
      </trkpt>
      <trkpt lat="45.1141" lon="2.67167">
        <ele>1585.35</ele>
        <time>2021-08-15T15:58:02Z</time>
      </trkpt>
      <trkpt lat="45.11407" lon="2.67167">
        <ele>1585.35</ele>
        <time>2021-08-15T15:58:03Z</time>
      </trkpt>
      <trkpt lat="45.11405" lon="2.67167">
        <ele>1584.87</ele>
        <time>2021-08-15T15:58:04Z</time>
      </trkpt>
      <trkpt lat="45.11402" lon="2.67167">
        <ele>1584.87</ele>
        <time>2021-08-15T15:58:05Z</time>
      </trkpt>
      <trkpt lat="45.11398" lon="2.67167">
        <ele>1584.87</ele>
        <time>2021-08-15T15:58:06Z</time>
      </trkpt>
      <trkpt lat="45.11366" lon="2.67167">
        <ele>1582.95</ele>
        <time>2021-08-15T15:58:14Z</time>
      </trkpt>
      <trkpt lat="45.11324" lon="2.67172">
        <ele>1579.58</ele>
        <time>2021-08-15T15:58:21Z</time>
      </trkpt>
      <trkpt lat="45.1127" lon="2.67179">
        <ele>1576.22</ele>
        <time>2021-08-15T15:58:29Z</time>
      </trkpt>
      <trkpt lat="45.11225" lon="2.67177">
        <ele>1573.33</ele>
        <time>2021-08-15T15:58:35Z</time>
      </trkpt>
      <trkpt lat="45.11203" lon="2.67172">
        <ele>1572.85</ele>
        <time>2021-08-15T15:58:38Z</time>
      </trkpt>
      <trkpt lat="45.11195" lon="2.67171">
        <ele>1571.89</ele>
        <time>2021-08-15T15:58:39Z</time>
      </trkpt>
      <trkpt lat="45.11125" lon="2.67174">
        <ele>1569.97</ele>
        <time>2021-08-15T15:58:48Z</time>
      </trkpt>
      <trkpt lat="45.1107" lon="2.67186">
        <ele>1568.53</ele>
        <time>2021-08-15T15:58:55Z</time>
      </trkpt>
      <trkpt lat="45.11047" lon="2.67196">
        <ele>1567.57</ele>
        <time>2021-08-15T15:58:58Z</time>
      </trkpt>
      <trkpt lat="45.11039" lon="2.67197">
        <ele>1567.09</ele>
        <time>2021-08-15T15:58:59Z</time>
      </trkpt>
      <trkpt lat="45.11031" lon="2.67196">
        <ele>1566.61</ele>
        <time>2021-08-15T15:59:00Z</time>
      </trkpt>
      <trkpt lat="45.11023" lon="2.67193">
        <ele>1566.61</ele>
        <time>2021-08-15T15:59:01Z</time>
      </trkpt>
      <trkpt lat="45.11016" lon="2.6719">
        <ele>1566.61</ele>
        <time>2021-08-15T15:59:02Z</time>
      </trkpt>
      <trkpt lat="45.11008" lon="2.67186">
        <ele>1566.61</ele>
        <time>2021-08-15T15:59:03Z</time>
      </trkpt>
      <trkpt lat="45.11001" lon="2.67184">
        <ele>1566.61</ele>
        <time>2021-08-15T15:59:04Z</time>
      </trkpt>
      <trkpt lat="45.10993" lon="2.67183">
        <ele>1566.61</ele>
        <time>2021-08-15T15:59:05Z</time>
      </trkpt>
      <trkpt lat="45.10985" lon="2.67183">
        <ele>1566.12</ele>
        <time>2021-08-15T15:59:06Z</time>
      </trkpt>
      <trkpt lat="45.10978" lon="2.67183">
        <ele>1566.12</ele>
        <time>2021-08-15T15:59:07Z</time>
      </trkpt>
      <trkpt lat="45.10925" lon="2.67182">
        <ele>1564.2</ele>
        <time>2021-08-15T15:59:14Z</time>
      </trkpt>
      <trkpt lat="45.10917" lon="2.67179">
        <ele>1563.72</ele>
        <time>2021-08-15T15:59:15Z</time>
      </trkpt>
      <trkpt lat="45.10903" lon="2.67171">
        <ele>1563.72</ele>
        <time>2021-08-15T15:59:17Z</time>
      </trkpt>
      <trkpt lat="45.10896" lon="2.67169">
        <ele>1563.24</ele>
        <time>2021-08-15T15:59:18Z</time>
      </trkpt>
      <trkpt lat="45.10881" lon="2.67164">
        <ele>1562.76</ele>
        <time>2021-08-15T15:59:20Z</time>
      </trkpt>
      <trkpt lat="45.10838" lon="2.67151">
        <ele>1562.28</ele>
        <time>2021-08-15T15:59:26Z</time>
      </trkpt>
      <trkpt lat="45.10798" lon="2.67133">
        <ele>1561.8</ele>
        <time>2021-08-15T15:59:32Z</time>
      </trkpt>
      <trkpt lat="45.10792" lon="2.67131">
        <ele>1561.32</ele>
        <time>2021-08-15T15:59:33Z</time>
      </trkpt>
      <trkpt lat="45.10786" lon="2.67131">
        <ele>1561.32</ele>
        <time>2021-08-15T15:59:34Z</time>
      </trkpt>
      <trkpt lat="45.10779" lon="2.67132">
        <ele>1561.32</ele>
        <time>2021-08-15T15:59:35Z</time>
      </trkpt>
      <trkpt lat="45.10773" lon="2.67133">
        <ele>1560.84</ele>
        <time>2021-08-15T15:59:36Z</time>
      </trkpt>
      <trkpt lat="45.10747" lon="2.67135">
        <ele>1560.36</ele>
        <time>2021-08-15T15:59:40Z</time>
      </trkpt>
      <trkpt lat="45.10741" lon="2.67133">
        <ele>1560.36</ele>
        <time>2021-08-15T15:59:41Z</time>
      </trkpt>
      <trkpt lat="45.10735" lon="2.6713">
        <ele>1560.36</ele>
        <time>2021-08-15T15:59:42Z</time>
      </trkpt>
      <trkpt lat="45.10729" lon="2.67125">
        <ele>1560.36</ele>
        <time>2021-08-15T15:59:43Z</time>
      </trkpt>
      <trkpt lat="45.10724" lon="2.67119">
        <ele>1559.88</ele>
        <time>2021-08-15T15:59:44Z</time>
      </trkpt>
      <trkpt lat="45.10719" lon="2.67113">
        <ele>1559.88</ele>
        <time>2021-08-15T15:59:45Z</time>
      </trkpt>
      <trkpt lat="45.10683" lon="2.67073">
        <ele>1559.88</ele>
        <time>2021-08-15T15:59:53Z</time>
      </trkpt>
      <trkpt lat="45.10674" lon="2.67066">
        <ele>1559.88</ele>
        <time>2021-08-15T15:59:55Z</time>
      </trkpt>
      <trkpt lat="45.1067" lon="2.67061">
        <ele>1559.4</ele>
        <time>2021-08-15T15:59:56Z</time>
      </trkpt>
      <trkpt lat="45.10665" lon="2.67054">
        <ele>1558.92</ele>
        <time>2021-08-15T15:59:57Z</time>
      </trkpt>
      <trkpt lat="45.10661" lon="2.67046">
        <ele>1558.92</ele>
        <time>2021-08-15T15:59:58Z</time>
      </trkpt>
      <trkpt lat="45.10655" lon="2.67039">
        <ele>1557.47</ele>
        <time>2021-08-15T15:59:59Z</time>
      </trkpt>
      <trkpt lat="45.1065" lon="2.67032">
        <ele>1557.47</ele>
        <time>2021-08-15T16:00:00Z</time>
      </trkpt>
      <trkpt lat="45.10644" lon="2.67025">
        <ele>1556.03</ele>
        <time>2021-08-15T16:00:01Z</time>
      </trkpt>
      <trkpt lat="45.10637" lon="2.67016">
        <ele>1555.55</ele>
        <time>2021-08-15T16:00:02Z</time>
      </trkpt>
      <trkpt lat="45.10633" lon="2.67008">
        <ele>1555.55</ele>
        <time>2021-08-15T16:00:03Z</time>
      </trkpt>
      <trkpt lat="45.10627" lon="2.66996">
        <ele>1554.59</ele>
        <time>2021-08-15T16:00:04Z</time>
      </trkpt>
      <trkpt lat="45.10613" lon="2.66967">
        <ele>1553.63</ele>
        <time>2021-08-15T16:00:07Z</time>
      </trkpt>
      <trkpt lat="45.10608" lon="2.66961">
        <ele>1553.63</ele>
        <time>2021-08-15T16:00:08Z</time>
      </trkpt>
      <trkpt lat="45.106" lon="2.66955">
        <ele>1553.63</ele>
        <time>2021-08-15T16:00:09Z</time>
      </trkpt>
      <trkpt lat="45.10594" lon="2.6695">
        <ele>1553.63</ele>
        <time>2021-08-15T16:00:10Z</time>
      </trkpt>
      <trkpt lat="45.10588" lon="2.66946">
        <ele>1553.63</ele>
        <time>2021-08-15T16:00:11Z</time>
      </trkpt>
      <trkpt lat="45.10582" lon="2.66941">
        <ele>1553.63</ele>
        <time>2021-08-15T16:00:12Z</time>
      </trkpt>
      <trkpt lat="45.10576" lon="2.66935">
        <ele>1553.63</ele>
        <time>2021-08-15T16:00:13Z</time>
      </trkpt>
      <trkpt lat="45.10553" lon="2.66914">
        <ele>1552.67</ele>
        <time>2021-08-15T16:00:17Z</time>
      </trkpt>
      <trkpt lat="45.10548" lon="2.66908">
        <ele>1552.67</ele>
        <time>2021-08-15T16:00:18Z</time>
      </trkpt>
      <trkpt lat="45.10544" lon="2.669">
        <ele>1552.67</ele>
        <time>2021-08-15T16:00:19Z</time>
      </trkpt>
      <trkpt lat="45.10505" lon="2.66845">
        <ele>1551.22</ele>
        <time>2021-08-15T16:00:27Z</time>
      </trkpt>
      <trkpt lat="45.10497" lon="2.6683">
        <ele>1550.74</ele>
        <time>2021-08-15T16:00:29Z</time>
      </trkpt>
      <trkpt lat="45.10484" lon="2.66794">
        <ele>1550.26</ele>
        <time>2021-08-15T16:00:33Z</time>
      </trkpt>
      <trkpt lat="45.10481" lon="2.66784">
        <ele>1549.78</ele>
        <time>2021-08-15T16:00:34Z</time>
      </trkpt>
      <trkpt lat="45.10472" lon="2.66735">
        <ele>1551.22</ele>
        <time>2021-08-15T16:00:40Z</time>
      </trkpt>
      <trkpt lat="45.10472" lon="2.66729">
        <ele>1551.71</ele>
        <time>2021-08-15T16:00:41Z</time>
      </trkpt>
      <trkpt lat="45.1047" lon="2.66694">
        <ele>1553.15</ele>
        <time>2021-08-15T16:00:48Z</time>
      </trkpt>
      <trkpt lat="45.1047" lon="2.66671">
        <ele>1554.59</ele>
        <time>2021-08-15T16:00:54Z</time>
      </trkpt>
      <trkpt lat="45.10472" lon="2.66663">
        <ele>1555.07</ele>
        <time>2021-08-15T16:00:56Z</time>
      </trkpt>
      <trkpt lat="45.10474" lon="2.6666">
        <ele>1555.07</ele>
        <time>2021-08-15T16:00:57Z</time>
      </trkpt>
      <trkpt lat="45.10477" lon="2.66657">
        <ele>1555.07</ele>
        <time>2021-08-15T16:00:58Z</time>
      </trkpt>
      <trkpt lat="45.10491" lon="2.66642">
        <ele>1555.07</ele>
        <time>2021-08-15T16:01:03Z</time>
      </trkpt>
      <trkpt lat="45.10493" lon="2.66636">
        <ele>1555.07</ele>
        <time>2021-08-15T16:01:04Z</time>
      </trkpt>
      <trkpt lat="45.10495" lon="2.6663">
        <ele>1553.63</ele>
        <time>2021-08-15T16:01:05Z</time>
      </trkpt>
      <trkpt lat="45.10496" lon="2.66622">
        <ele>1553.15</ele>
        <time>2021-08-15T16:01:06Z</time>
      </trkpt>
      <trkpt lat="45.10495" lon="2.66613">
        <ele>1552.67</ele>
        <time>2021-08-15T16:01:07Z</time>
      </trkpt>
      <trkpt lat="45.10493" lon="2.66604">
        <ele>1552.19</ele>
        <time>2021-08-15T16:01:08Z</time>
      </trkpt>
      <trkpt lat="45.1049" lon="2.66596">
        <ele>1551.22</ele>
        <time>2021-08-15T16:01:09Z</time>
      </trkpt>
      <trkpt lat="45.10487" lon="2.66586">
        <ele>1551.22</ele>
        <time>2021-08-15T16:01:10Z</time>
      </trkpt>
      <trkpt lat="45.10485" lon="2.66576">
        <ele>1549.78</ele>
        <time>2021-08-15T16:01:11Z</time>
      </trkpt>
      <trkpt lat="45.10483" lon="2.66565">
        <ele>1549.3</ele>
        <time>2021-08-15T16:01:12Z</time>
      </trkpt>
      <trkpt lat="45.10483" lon="2.66555">
        <ele>1548.34</ele>
        <time>2021-08-15T16:01:13Z</time>
      </trkpt>
      <trkpt lat="45.10484" lon="2.66544">
        <ele>1547.38</ele>
        <time>2021-08-15T16:01:14Z</time>
      </trkpt>
      <trkpt lat="45.10486" lon="2.66534">
        <ele>1547.38</ele>
        <time>2021-08-15T16:01:15Z</time>
      </trkpt>
      <trkpt lat="45.10485" lon="2.66525">
        <ele>1547.38</ele>
        <time>2021-08-15T16:01:16Z</time>
      </trkpt>
      <trkpt lat="45.10482" lon="2.66517">
        <ele>1547.38</ele>
        <time>2021-08-15T16:01:17Z</time>
      </trkpt>
      <trkpt lat="45.10476" lon="2.6651">
        <ele>1546.42</ele>
        <time>2021-08-15T16:01:18Z</time>
      </trkpt>
      <trkpt lat="45.10469" lon="2.66506">
        <ele>1545.94</ele>
        <time>2021-08-15T16:01:19Z</time>
      </trkpt>
      <trkpt lat="45.10461" lon="2.66502">
        <ele>1544.98</ele>
        <time>2021-08-15T16:01:20Z</time>
      </trkpt>
      <trkpt lat="45.10454" lon="2.66497">
        <ele>1544.5</ele>
        <time>2021-08-15T16:01:21Z</time>
      </trkpt>
      <trkpt lat="45.10448" lon="2.66489">
        <ele>1543.53</ele>
        <time>2021-08-15T16:01:22Z</time>
      </trkpt>
      <trkpt lat="45.10445" lon="2.66478">
        <ele>1542.57</ele>
        <time>2021-08-15T16:01:23Z</time>
      </trkpt>
      <trkpt lat="45.10443" lon="2.66466">
        <ele>1542.09</ele>
        <time>2021-08-15T16:01:24Z</time>
      </trkpt>
      <trkpt lat="45.1044" lon="2.66454">
        <ele>1541.61</ele>
        <time>2021-08-15T16:01:25Z</time>
      </trkpt>
      <trkpt lat="45.10434" lon="2.66414">
        <ele>1537.77</ele>
        <time>2021-08-15T16:01:28Z</time>
      </trkpt>
      <trkpt lat="45.1043" lon="2.66385">
        <ele>1536.32</ele>
        <time>2021-08-15T16:01:30Z</time>
      </trkpt>
      <trkpt lat="45.1043" lon="2.6637">
        <ele>1534.88</ele>
        <time>2021-08-15T16:01:31Z</time>
      </trkpt>
      <trkpt lat="45.1043" lon="2.66355">
        <ele>1533.92</ele>
        <time>2021-08-15T16:01:32Z</time>
      </trkpt>
      <trkpt lat="45.10432" lon="2.6634">
        <ele>1532.96</ele>
        <time>2021-08-15T16:01:33Z</time>
      </trkpt>
      <trkpt lat="45.10434" lon="2.66325">
        <ele>1532.48</ele>
        <time>2021-08-15T16:01:34Z</time>
      </trkpt>
      <trkpt lat="45.10439" lon="2.66271">
        <ele>1529.11</ele>
        <time>2021-08-15T16:01:38Z</time>
      </trkpt>
      <trkpt lat="45.10442" lon="2.66229">
        <ele>1527.19</ele>
        <time>2021-08-15T16:01:42Z</time>
      </trkpt>
      <trkpt lat="45.1044" lon="2.66221">
        <ele>1526.23</ele>
        <time>2021-08-15T16:01:43Z</time>
      </trkpt>
      <trkpt lat="45.10436" lon="2.66214">
        <ele>1526.23</ele>
        <time>2021-08-15T16:01:44Z</time>
      </trkpt>
      <trkpt lat="45.10431" lon="2.66211">
        <ele>1526.23</ele>
        <time>2021-08-15T16:01:45Z</time>
      </trkpt>
      <trkpt lat="45.10426" lon="2.66211">
        <ele>1526.23</ele>
        <time>2021-08-15T16:01:46Z</time>
      </trkpt>
      <trkpt lat="45.10421" lon="2.66215">
        <ele>1525.75</ele>
        <time>2021-08-15T16:01:47Z</time>
      </trkpt>
      <trkpt lat="45.10417" lon="2.6622">
        <ele>1525.75</ele>
        <time>2021-08-15T16:01:48Z</time>
      </trkpt>
      <trkpt lat="45.10413" lon="2.66227">
        <ele>1525.75</ele>
        <time>2021-08-15T16:01:49Z</time>
      </trkpt>
      <trkpt lat="45.10411" lon="2.66235">
        <ele>1525.27</ele>
        <time>2021-08-15T16:01:50Z</time>
      </trkpt>
      <trkpt lat="45.10408" lon="2.66244">
        <ele>1524.79</ele>
        <time>2021-08-15T16:01:51Z</time>
      </trkpt>
      <trkpt lat="45.10396" lon="2.66319">
        <ele>1521.9</ele>
        <time>2021-08-15T16:01:59Z</time>
      </trkpt>
      <trkpt lat="45.10391" lon="2.6634">
        <ele>1520.94</ele>
        <time>2021-08-15T16:02:01Z</time>
      </trkpt>
      <trkpt lat="45.10388" lon="2.66351">
        <ele>1519.98</ele>
        <time>2021-08-15T16:02:02Z</time>
      </trkpt>
      <trkpt lat="45.10384" lon="2.66361">
        <ele>1519.98</ele>
        <time>2021-08-15T16:02:03Z</time>
      </trkpt>
      <trkpt lat="45.1037" lon="2.66399">
        <ele>1517.58</ele>
        <time>2021-08-15T16:02:07Z</time>
      </trkpt>
      <trkpt lat="45.10368" lon="2.66408">
        <ele>1517.1</ele>
        <time>2021-08-15T16:02:08Z</time>
      </trkpt>
      <trkpt lat="45.10367" lon="2.66418">
        <ele>1516.14</ele>
        <time>2021-08-15T16:02:09Z</time>
      </trkpt>
      <trkpt lat="45.10368" lon="2.66429">
        <ele>1515.18</ele>
        <time>2021-08-15T16:02:10Z</time>
      </trkpt>
      <trkpt lat="45.1037" lon="2.66441">
        <ele>1513.73</ele>
        <time>2021-08-15T16:02:11Z</time>
      </trkpt>
      <trkpt lat="45.10371" lon="2.66453">
        <ele>1512.77</ele>
        <time>2021-08-15T16:02:12Z</time>
      </trkpt>
      <trkpt lat="45.10371" lon="2.66465">
        <ele>1511.81</ele>
        <time>2021-08-15T16:02:13Z</time>
      </trkpt>
      <trkpt lat="45.10369" lon="2.66478">
        <ele>1511.33</ele>
        <time>2021-08-15T16:02:14Z</time>
      </trkpt>
      <trkpt lat="45.10366" lon="2.6649">
        <ele>1510.37</ele>
        <time>2021-08-15T16:02:15Z</time>
      </trkpt>
      <trkpt lat="45.10355" lon="2.66553">
        <ele>1507</ele>
        <time>2021-08-15T16:02:20Z</time>
      </trkpt>
      <trkpt lat="45.10355" lon="2.66564">
        <ele>1506.52</ele>
        <time>2021-08-15T16:02:21Z</time>
      </trkpt>
      <trkpt lat="45.10357" lon="2.66574">
        <ele>1506.52</ele>
        <time>2021-08-15T16:02:22Z</time>
      </trkpt>
      <trkpt lat="45.1036" lon="2.66584">
        <ele>1505.56</ele>
        <time>2021-08-15T16:02:23Z</time>
      </trkpt>
      <trkpt lat="45.10364" lon="2.66593">
        <ele>1505.08</ele>
        <time>2021-08-15T16:02:24Z</time>
      </trkpt>
      <trkpt lat="45.10369" lon="2.66602">
        <ele>1504.6</ele>
        <time>2021-08-15T16:02:25Z</time>
      </trkpt>
      <trkpt lat="45.10378" lon="2.66624">
        <ele>1504.12</ele>
        <time>2021-08-15T16:02:27Z</time>
      </trkpt>
      <trkpt lat="45.10381" lon="2.66636">
        <ele>1503.64</ele>
        <time>2021-08-15T16:02:28Z</time>
      </trkpt>
      <trkpt lat="45.10383" lon="2.66649">
        <ele>1502.68</ele>
        <time>2021-08-15T16:02:29Z</time>
      </trkpt>
      <trkpt lat="45.10388" lon="2.66689">
        <ele>1500.76</ele>
        <time>2021-08-15T16:02:32Z</time>
      </trkpt>
      <trkpt lat="45.10394" lon="2.66718">
        <ele>1499.79</ele>
        <time>2021-08-15T16:02:34Z</time>
      </trkpt>
      <trkpt lat="45.10403" lon="2.66775">
        <ele>1496.43</ele>
        <time>2021-08-15T16:02:38Z</time>
      </trkpt>
      <trkpt lat="45.10404" lon="2.66788">
        <ele>1496.43</ele>
        <time>2021-08-15T16:02:39Z</time>
      </trkpt>
      <trkpt lat="45.10405" lon="2.66801">
        <ele>1495.47</ele>
        <time>2021-08-15T16:02:40Z</time>
      </trkpt>
      <trkpt lat="45.10404" lon="2.66815">
        <ele>1494.51</ele>
        <time>2021-08-15T16:02:41Z</time>
      </trkpt>
      <trkpt lat="45.10401" lon="2.66827">
        <ele>1494.03</ele>
        <time>2021-08-15T16:02:42Z</time>
      </trkpt>
      <trkpt lat="45.10395" lon="2.66839">
        <ele>1493.06</ele>
        <time>2021-08-15T16:02:43Z</time>
      </trkpt>
      <trkpt lat="45.10389" lon="2.66849">
        <ele>1493.55</ele>
        <time>2021-08-15T16:02:44Z</time>
      </trkpt>
      <trkpt lat="45.10379" lon="2.66871">
        <ele>1492.58</ele>
        <time>2021-08-15T16:02:46Z</time>
      </trkpt>
      <trkpt lat="45.1037" lon="2.66894">
        <ele>1491.14</ele>
        <time>2021-08-15T16:02:48Z</time>
      </trkpt>
      <trkpt lat="45.10364" lon="2.66905">
        <ele>1491.62</ele>
        <time>2021-08-15T16:02:49Z</time>
      </trkpt>
      <trkpt lat="45.10357" lon="2.66914">
        <ele>1491.62</ele>
        <time>2021-08-15T16:02:50Z</time>
      </trkpt>
      <trkpt lat="45.10328" lon="2.66947">
        <ele>1490.18</ele>
        <time>2021-08-15T16:02:54Z</time>
      </trkpt>
      <trkpt lat="45.10319" lon="2.66953">
        <ele>1489.22</ele>
        <time>2021-08-15T16:02:55Z</time>
      </trkpt>
      <trkpt lat="45.1031" lon="2.66957">
        <ele>1489.22</ele>
        <time>2021-08-15T16:02:56Z</time>
      </trkpt>
      <trkpt lat="45.10301" lon="2.6696">
        <ele>1489.22</ele>
        <time>2021-08-15T16:02:57Z</time>
      </trkpt>
      <trkpt lat="45.10292" lon="2.66962">
        <ele>1488.74</ele>
        <time>2021-08-15T16:02:58Z</time>
      </trkpt>
      <trkpt lat="45.10283" lon="2.66963">
        <ele>1488.74</ele>
        <time>2021-08-15T16:02:59Z</time>
      </trkpt>
      <trkpt lat="45.10265" lon="2.66967">
        <ele>1488.74</ele>
        <time>2021-08-15T16:03:01Z</time>
      </trkpt>
      <trkpt lat="45.10257" lon="2.66972">
        <ele>1487.78</ele>
        <time>2021-08-15T16:03:02Z</time>
      </trkpt>
      <trkpt lat="45.1025" lon="2.66978">
        <ele>1487.78</ele>
        <time>2021-08-15T16:03:03Z</time>
      </trkpt>
      <trkpt lat="45.10244" lon="2.66984">
        <ele>1487.3</ele>
        <time>2021-08-15T16:03:04Z</time>
      </trkpt>
      <trkpt lat="45.10238" lon="2.66991">
        <ele>1487.3</ele>
        <time>2021-08-15T16:03:05Z</time>
      </trkpt>
      <trkpt lat="45.10233" lon="2.66996">
        <ele>1487.3</ele>
        <time>2021-08-15T16:03:06Z</time>
      </trkpt>
      <trkpt lat="45.10229" lon="2.67004">
        <ele>1487.3</ele>
        <time>2021-08-15T16:03:07Z</time>
      </trkpt>
      <trkpt lat="45.10228" lon="2.67012">
        <ele>1486.82</ele>
        <time>2021-08-15T16:03:08Z</time>
      </trkpt>
      <trkpt lat="45.10229" lon="2.67021">
        <ele>1486.34</ele>
        <time>2021-08-15T16:03:09Z</time>
      </trkpt>
      <trkpt lat="45.10232" lon="2.67029">
        <ele>1485.85</ele>
        <time>2021-08-15T16:03:10Z</time>
      </trkpt>
      <trkpt lat="45.10237" lon="2.67036">
        <ele>1485.85</ele>
        <time>2021-08-15T16:03:11Z</time>
      </trkpt>
      <trkpt lat="45.10243" lon="2.67042">
        <ele>1485.85</ele>
        <time>2021-08-15T16:03:12Z</time>
      </trkpt>
      <trkpt lat="45.10249" lon="2.67047">
        <ele>1485.37</ele>
        <time>2021-08-15T16:03:13Z</time>
      </trkpt>
      <trkpt lat="45.10256" lon="2.67052">
        <ele>1485.37</ele>
        <time>2021-08-15T16:03:14Z</time>
      </trkpt>
      <trkpt lat="45.10263" lon="2.67056">
        <ele>1484.89</ele>
        <time>2021-08-15T16:03:15Z</time>
      </trkpt>
      <trkpt lat="45.10271" lon="2.67059">
        <ele>1483.93</ele>
        <time>2021-08-15T16:03:16Z</time>
      </trkpt>
      <trkpt lat="45.10287" lon="2.67068">
        <ele>1482.97</ele>
        <time>2021-08-15T16:03:18Z</time>
      </trkpt>
      <trkpt lat="45.10339" lon="2.67104">
        <ele>1480.57</ele>
        <time>2021-08-15T16:03:25Z</time>
      </trkpt>
      <trkpt lat="45.10345" lon="2.67111">
        <ele>1480.57</ele>
        <time>2021-08-15T16:03:26Z</time>
      </trkpt>
      <trkpt lat="45.1035" lon="2.6712">
        <ele>1480.09</ele>
        <time>2021-08-15T16:03:27Z</time>
      </trkpt>
      <trkpt lat="45.10353" lon="2.6713">
        <ele>1479.61</ele>
        <time>2021-08-15T16:03:28Z</time>
      </trkpt>
      <trkpt lat="45.10354" lon="2.67141">
        <ele>1479.61</ele>
        <time>2021-08-15T16:03:29Z</time>
      </trkpt>
      <trkpt lat="45.10354" lon="2.67152">
        <ele>1479.61</ele>
        <time>2021-08-15T16:03:30Z</time>
      </trkpt>
      <trkpt lat="45.10361" lon="2.67207">
        <ele>1478.16</ele>
        <time>2021-08-15T16:03:35Z</time>
      </trkpt>
      <trkpt lat="45.10364" lon="2.67218">
        <ele>1477.68</ele>
        <time>2021-08-15T16:03:36Z</time>
      </trkpt>
      <trkpt lat="45.10367" lon="2.67228">
        <ele>1477.68</ele>
        <time>2021-08-15T16:03:37Z</time>
      </trkpt>
      <trkpt lat="45.10372" lon="2.67238">
        <ele>1477.68</ele>
        <time>2021-08-15T16:03:38Z</time>
      </trkpt>
      <trkpt lat="45.10377" lon="2.67247">
        <ele>1476.72</ele>
        <time>2021-08-15T16:03:39Z</time>
      </trkpt>
      <trkpt lat="45.10382" lon="2.67256">
        <ele>1476.24</ele>
        <time>2021-08-15T16:03:40Z</time>
      </trkpt>
      <trkpt lat="45.10388" lon="2.67266">
        <ele>1475.76</ele>
        <time>2021-08-15T16:03:41Z</time>
      </trkpt>
      <trkpt lat="45.10407" lon="2.67303">
        <ele>1474.8</ele>
        <time>2021-08-15T16:03:45Z</time>
      </trkpt>
      <trkpt lat="45.10413" lon="2.6731">
        <ele>1474.32</ele>
        <time>2021-08-15T16:03:46Z</time>
      </trkpt>
      <trkpt lat="45.1042" lon="2.67314">
        <ele>1473.36</ele>
        <time>2021-08-15T16:03:47Z</time>
      </trkpt>
      <trkpt lat="45.10428" lon="2.67317">
        <ele>1472.4</ele>
        <time>2021-08-15T16:03:48Z</time>
      </trkpt>
      <trkpt lat="45.10437" lon="2.67317">
        <ele>1471.92</ele>
        <time>2021-08-15T16:03:49Z</time>
      </trkpt>
      <trkpt lat="45.10446" lon="2.67316">
        <ele>1470.95</ele>
        <time>2021-08-15T16:03:50Z</time>
      </trkpt>
      <trkpt lat="45.10491" lon="2.67321">
        <ele>1467.11</ele>
        <time>2021-08-15T16:03:55Z</time>
      </trkpt>
      <trkpt lat="45.105" lon="2.67324">
        <ele>1466.63</ele>
        <time>2021-08-15T16:03:56Z</time>
      </trkpt>
      <trkpt lat="45.10509" lon="2.67329">
        <ele>1466.15</ele>
        <time>2021-08-15T16:03:57Z</time>
      </trkpt>
      <trkpt lat="45.10517" lon="2.67335">
        <ele>1465.67</ele>
        <time>2021-08-15T16:03:58Z</time>
      </trkpt>
      <trkpt lat="45.10524" lon="2.67342">
        <ele>1465.19</ele>
        <time>2021-08-15T16:03:59Z</time>
      </trkpt>
      <trkpt lat="45.1053" lon="2.67353">
        <ele>1464.23</ele>
        <time>2021-08-15T16:04:00Z</time>
      </trkpt>
      <trkpt lat="45.10533" lon="2.67364">
        <ele>1464.23</ele>
        <time>2021-08-15T16:04:01Z</time>
      </trkpt>
      <trkpt lat="45.10534" lon="2.67377">
        <ele>1463.74</ele>
        <time>2021-08-15T16:04:02Z</time>
      </trkpt>
      <trkpt lat="45.10534" lon="2.67391">
        <ele>1462.78</ele>
        <time>2021-08-15T16:04:03Z</time>
      </trkpt>
      <trkpt lat="45.10533" lon="2.67403">
        <ele>1462.3</ele>
        <time>2021-08-15T16:04:04Z</time>
      </trkpt>
      <trkpt lat="45.10532" lon="2.67416">
        <ele>1461.82</ele>
        <time>2021-08-15T16:04:05Z</time>
      </trkpt>
      <trkpt lat="45.10532" lon="2.67429">
        <ele>1461.34</ele>
        <time>2021-08-15T16:04:06Z</time>
      </trkpt>
      <trkpt lat="45.10533" lon="2.67441">
        <ele>1460.86</ele>
        <time>2021-08-15T16:04:07Z</time>
      </trkpt>
      <trkpt lat="45.10537" lon="2.67453">
        <ele>1459.9</ele>
        <time>2021-08-15T16:04:08Z</time>
      </trkpt>
      <trkpt lat="45.10542" lon="2.67464">
        <ele>1458.94</ele>
        <time>2021-08-15T16:04:09Z</time>
      </trkpt>
      <trkpt lat="45.10547" lon="2.67474">
        <ele>1458.46</ele>
        <time>2021-08-15T16:04:10Z</time>
      </trkpt>
      <trkpt lat="45.10551" lon="2.67486">
        <ele>1457.5</ele>
        <time>2021-08-15T16:04:11Z</time>
      </trkpt>
      <trkpt lat="45.10552" lon="2.67497">
        <ele>1457.02</ele>
        <time>2021-08-15T16:04:12Z</time>
      </trkpt>
      <trkpt lat="45.10551" lon="2.67508">
        <ele>1457.02</ele>
        <time>2021-08-15T16:04:13Z</time>
      </trkpt>
      <trkpt lat="45.10547" lon="2.67519">
        <ele>1456.53</ele>
        <time>2021-08-15T16:04:14Z</time>
      </trkpt>
      <trkpt lat="45.10543" lon="2.67529">
        <ele>1456.05</ele>
        <time>2021-08-15T16:04:15Z</time>
      </trkpt>
      <trkpt lat="45.10534" lon="2.67551">
        <ele>1454.61</ele>
        <time>2021-08-15T16:04:17Z</time>
      </trkpt>
      <trkpt lat="45.10514" lon="2.6761">
        <ele>1451.73</ele>
        <time>2021-08-15T16:04:22Z</time>
      </trkpt>
      <trkpt lat="45.10485" lon="2.67668">
        <ele>1447.88</ele>
        <time>2021-08-15T16:04:27Z</time>
      </trkpt>
      <trkpt lat="45.10467" lon="2.67701">
        <ele>1445.96</ele>
        <time>2021-08-15T16:04:30Z</time>
      </trkpt>
      <trkpt lat="45.10462" lon="2.67714">
        <ele>1445</ele>
        <time>2021-08-15T16:04:31Z</time>
      </trkpt>
      <trkpt lat="45.10458" lon="2.67728">
        <ele>1444.04</ele>
        <time>2021-08-15T16:04:32Z</time>
      </trkpt>
      <trkpt lat="45.10455" lon="2.67742">
        <ele>1443.08</ele>
        <time>2021-08-15T16:04:33Z</time>
      </trkpt>
      <trkpt lat="45.10451" lon="2.67756">
        <ele>1442.11</ele>
        <time>2021-08-15T16:04:34Z</time>
      </trkpt>
      <trkpt lat="45.1044" lon="2.67796">
        <ele>1439.71</ele>
        <time>2021-08-15T16:04:37Z</time>
      </trkpt>
      <trkpt lat="45.10434" lon="2.67807">
        <ele>1438.75</ele>
        <time>2021-08-15T16:04:38Z</time>
      </trkpt>
      <trkpt lat="45.10425" lon="2.67828">
        <ele>1437.79</ele>
        <time>2021-08-15T16:04:40Z</time>
      </trkpt>
      <trkpt lat="45.10421" lon="2.6784">
        <ele>1436.83</ele>
        <time>2021-08-15T16:04:41Z</time>
      </trkpt>
      <trkpt lat="45.10419" lon="2.67852">
        <ele>1436.35</ele>
        <time>2021-08-15T16:04:42Z</time>
      </trkpt>
      <trkpt lat="45.10417" lon="2.67866">
        <ele>1435.39</ele>
        <time>2021-08-15T16:04:43Z</time>
      </trkpt>
      <trkpt lat="45.10415" lon="2.6788">
        <ele>1434.42</ele>
        <time>2021-08-15T16:04:44Z</time>
      </trkpt>
      <trkpt lat="45.10411" lon="2.67939">
        <ele>1431.06</ele>
        <time>2021-08-15T16:04:48Z</time>
      </trkpt>
      <trkpt lat="45.10408" lon="2.67968">
        <ele>1429.62</ele>
        <time>2021-08-15T16:04:50Z</time>
      </trkpt>
      <trkpt lat="45.10405" lon="2.67981">
        <ele>1428.66</ele>
        <time>2021-08-15T16:04:51Z</time>
      </trkpt>
      <trkpt lat="45.10399" lon="2.67993">
        <ele>1428.18</ele>
        <time>2021-08-15T16:04:52Z</time>
      </trkpt>
      <trkpt lat="45.10392" lon="2.68003">
        <ele>1427.21</ele>
        <time>2021-08-15T16:04:53Z</time>
      </trkpt>
      <trkpt lat="45.10384" lon="2.68012">
        <ele>1426.25</ele>
        <time>2021-08-15T16:04:54Z</time>
      </trkpt>
      <trkpt lat="45.10375" lon="2.68019">
        <ele>1425.29</ele>
        <time>2021-08-15T16:04:55Z</time>
      </trkpt>
      <trkpt lat="45.10366" lon="2.68026">
        <ele>1424.33</ele>
        <time>2021-08-15T16:04:56Z</time>
      </trkpt>
      <trkpt lat="45.10338" lon="2.68051">
        <ele>1420.97</ele>
        <time>2021-08-15T16:04:59Z</time>
      </trkpt>
      <trkpt lat="45.10329" lon="2.68058">
        <ele>1420.97</ele>
        <time>2021-08-15T16:05:00Z</time>
      </trkpt>
      <trkpt lat="45.10312" lon="2.68069">
        <ele>1419.04</ele>
        <time>2021-08-15T16:05:02Z</time>
      </trkpt>
      <trkpt lat="45.10303" lon="2.68071">
        <ele>1418.08</ele>
        <time>2021-08-15T16:05:03Z</time>
      </trkpt>
      <trkpt lat="45.10294" lon="2.68071">
        <ele>1417.12</ele>
        <time>2021-08-15T16:05:04Z</time>
      </trkpt>
      <trkpt lat="45.10285" lon="2.6807">
        <ele>1417.12</ele>
        <time>2021-08-15T16:05:05Z</time>
      </trkpt>
      <trkpt lat="45.10275" lon="2.68069">
        <ele>1416.16</ele>
        <time>2021-08-15T16:05:06Z</time>
      </trkpt>
      <trkpt lat="45.10266" lon="2.68071">
        <ele>1415.2</ele>
        <time>2021-08-15T16:05:07Z</time>
      </trkpt>
      <trkpt lat="45.10257" lon="2.68074">
        <ele>1414.24</ele>
        <time>2021-08-15T16:05:08Z</time>
      </trkpt>
      <trkpt lat="45.10238" lon="2.68083">
        <ele>1413.28</ele>
        <time>2021-08-15T16:05:10Z</time>
      </trkpt>
      <trkpt lat="45.10222" lon="2.68094">
        <ele>1411.83</ele>
        <time>2021-08-15T16:05:12Z</time>
      </trkpt>
      <trkpt lat="45.10216" lon="2.68102">
        <ele>1411.83</ele>
        <time>2021-08-15T16:05:13Z</time>
      </trkpt>
      <trkpt lat="45.10212" lon="2.68111">
        <ele>1411.35</ele>
        <time>2021-08-15T16:05:14Z</time>
      </trkpt>
      <trkpt lat="45.10208" lon="2.68121">
        <ele>1410.87</ele>
        <time>2021-08-15T16:05:15Z</time>
      </trkpt>
      <trkpt lat="45.10203" lon="2.6813">
        <ele>1409.43</ele>
        <time>2021-08-15T16:05:16Z</time>
      </trkpt>
      <trkpt lat="45.10197" lon="2.68138">
        <ele>1408.95</ele>
        <time>2021-08-15T16:05:17Z</time>
      </trkpt>
      <trkpt lat="45.1019" lon="2.68144">
        <ele>1408.47</ele>
        <time>2021-08-15T16:05:18Z</time>
      </trkpt>
      <trkpt lat="45.10165" lon="2.68163">
        <ele>1405.1</ele>
        <time>2021-08-15T16:05:21Z</time>
      </trkpt>
      <trkpt lat="45.1014" lon="2.68182">
        <ele>1402.7</ele>
        <time>2021-08-15T16:05:24Z</time>
      </trkpt>
      <trkpt lat="45.10131" lon="2.68186">
        <ele>1401.74</ele>
        <time>2021-08-15T16:05:25Z</time>
      </trkpt>
      <trkpt lat="45.10121" lon="2.68187">
        <ele>1401.26</ele>
        <time>2021-08-15T16:05:26Z</time>
      </trkpt>
      <trkpt lat="45.10111" lon="2.68188">
        <ele>1400.78</ele>
        <time>2021-08-15T16:05:27Z</time>
      </trkpt>
      <trkpt lat="45.10102" lon="2.68189">
        <ele>1399.82</ele>
        <time>2021-08-15T16:05:28Z</time>
      </trkpt>
      <trkpt lat="45.10092" lon="2.68192">
        <ele>1399.34</ele>
        <time>2021-08-15T16:05:29Z</time>
      </trkpt>
      <trkpt lat="45.10082" lon="2.68197">
        <ele>1398.37</ele>
        <time>2021-08-15T16:05:30Z</time>
      </trkpt>
      <trkpt lat="45.10073" lon="2.68202">
        <ele>1397.89</ele>
        <time>2021-08-15T16:05:31Z</time>
      </trkpt>
      <trkpt lat="45.10035" lon="2.68221">
        <ele>1395.01</ele>
        <time>2021-08-15T16:05:35Z</time>
      </trkpt>
      <trkpt lat="45.10024" lon="2.68224">
        <ele>1395.01</ele>
        <time>2021-08-15T16:05:36Z</time>
      </trkpt>
      <trkpt lat="45.09975" lon="2.6825">
        <ele>1391.65</ele>
        <time>2021-08-15T16:05:41Z</time>
      </trkpt>
      <trkpt lat="45.09957" lon="2.6826">
        <ele>1390.68</ele>
        <time>2021-08-15T16:05:43Z</time>
      </trkpt>
      <trkpt lat="45.09941" lon="2.68269">
        <ele>1390.2</ele>
        <time>2021-08-15T16:05:45Z</time>
      </trkpt>
      <trkpt lat="45.09935" lon="2.68274">
        <ele>1390.2</ele>
        <time>2021-08-15T16:05:46Z</time>
      </trkpt>
      <trkpt lat="45.0993" lon="2.68281">
        <ele>1390.68</ele>
        <time>2021-08-15T16:05:47Z</time>
      </trkpt>
      <trkpt lat="45.09928" lon="2.68289">
        <ele>1390.2</ele>
        <time>2021-08-15T16:05:48Z</time>
      </trkpt>
      <trkpt lat="45.09928" lon="2.68299">
        <ele>1389.72</ele>
        <time>2021-08-15T16:05:49Z</time>
      </trkpt>
      <trkpt lat="45.0993" lon="2.6831">
        <ele>1388.76</ele>
        <time>2021-08-15T16:05:50Z</time>
      </trkpt>
      <trkpt lat="45.09933" lon="2.6832">
        <ele>1387.8</ele>
        <time>2021-08-15T16:05:51Z</time>
      </trkpt>
      <trkpt lat="45.09936" lon="2.68331">
        <ele>1387.32</ele>
        <time>2021-08-15T16:05:52Z</time>
      </trkpt>
      <trkpt lat="45.0994" lon="2.68341">
        <ele>1386.36</ele>
        <time>2021-08-15T16:05:53Z</time>
      </trkpt>
      <trkpt lat="45.09945" lon="2.68351">
        <ele>1386.36</ele>
        <time>2021-08-15T16:05:54Z</time>
      </trkpt>
      <trkpt lat="45.09953" lon="2.68373">
        <ele>1384.44</ele>
        <time>2021-08-15T16:05:56Z</time>
      </trkpt>
      <trkpt lat="45.09955" lon="2.68387">
        <ele>1383.47</ele>
        <time>2021-08-15T16:05:57Z</time>
      </trkpt>
      <trkpt lat="45.09955" lon="2.684">
        <ele>1382.99</ele>
        <time>2021-08-15T16:05:58Z</time>
      </trkpt>
      <trkpt lat="45.09956" lon="2.68429">
        <ele>1381.55</ele>
        <time>2021-08-15T16:06:00Z</time>
      </trkpt>
      <trkpt lat="45.09958" lon="2.68443">
        <ele>1381.07</ele>
        <time>2021-08-15T16:06:01Z</time>
      </trkpt>
      <trkpt lat="45.09961" lon="2.68474">
        <ele>1379.15</ele>
        <time>2021-08-15T16:06:03Z</time>
      </trkpt>
      <trkpt lat="45.09961" lon="2.6849">
        <ele>1377.71</ele>
        <time>2021-08-15T16:06:04Z</time>
      </trkpt>
      <trkpt lat="45.0996" lon="2.68516">
        <ele>1376.75</ele>
        <time>2021-08-15T16:06:06Z</time>
      </trkpt>
      <trkpt lat="45.09962" lon="2.68529">
        <ele>1376.75</ele>
        <time>2021-08-15T16:06:07Z</time>
      </trkpt>
      <trkpt lat="45.09965" lon="2.68538">
        <ele>1375.78</ele>
        <time>2021-08-15T16:06:08Z</time>
      </trkpt>
      <trkpt lat="45.09968" lon="2.68547">
        <ele>1375.78</ele>
        <time>2021-08-15T16:06:09Z</time>
      </trkpt>
      <trkpt lat="45.09969" lon="2.68557">
        <ele>1374.82</ele>
        <time>2021-08-15T16:06:10Z</time>
      </trkpt>
      <trkpt lat="45.09968" lon="2.68567">
        <ele>1374.34</ele>
        <time>2021-08-15T16:06:11Z</time>
      </trkpt>
      <trkpt lat="45.09965" lon="2.68577">
        <ele>1373.86</ele>
        <time>2021-08-15T16:06:12Z</time>
      </trkpt>
      <trkpt lat="45.09961" lon="2.68587">
        <ele>1373.86</ele>
        <time>2021-08-15T16:06:13Z</time>
      </trkpt>
      <trkpt lat="45.09956" lon="2.68597">
        <ele>1373.38</ele>
        <time>2021-08-15T16:06:14Z</time>
      </trkpt>
      <trkpt lat="45.0994" lon="2.68626">
        <ele>1370.98</ele>
        <time>2021-08-15T16:06:17Z</time>
      </trkpt>
      <trkpt lat="45.09926" lon="2.68643">
        <ele>1369.05</ele>
        <time>2021-08-15T16:06:19Z</time>
      </trkpt>
      <trkpt lat="45.09918" lon="2.6865">
        <ele>1368.09</ele>
        <time>2021-08-15T16:06:20Z</time>
      </trkpt>
      <trkpt lat="45.09909" lon="2.68654">
        <ele>1368.09</ele>
        <time>2021-08-15T16:06:21Z</time>
      </trkpt>
      <trkpt lat="45.09899" lon="2.68657">
        <ele>1367.13</ele>
        <time>2021-08-15T16:06:22Z</time>
      </trkpt>
      <trkpt lat="45.09889" lon="2.68658">
        <ele>1366.17</ele>
        <time>2021-08-15T16:06:23Z</time>
      </trkpt>
      <trkpt lat="45.09879" lon="2.6866">
        <ele>1365.21</ele>
        <time>2021-08-15T16:06:24Z</time>
      </trkpt>
      <trkpt lat="45.09857" lon="2.68665">
        <ele>1363.77</ele>
        <time>2021-08-15T16:06:26Z</time>
      </trkpt>
      <trkpt lat="45.09847" lon="2.68671">
        <ele>1362.81</ele>
        <time>2021-08-15T16:06:27Z</time>
      </trkpt>
      <trkpt lat="45.09838" lon="2.68677">
        <ele>1361.84</ele>
        <time>2021-08-15T16:06:28Z</time>
      </trkpt>
      <trkpt lat="45.09828" lon="2.68684">
        <ele>1361.36</ele>
        <time>2021-08-15T16:06:29Z</time>
      </trkpt>
      <trkpt lat="45.09818" lon="2.68688">
        <ele>1360.4</ele>
        <time>2021-08-15T16:06:30Z</time>
      </trkpt>
      <trkpt lat="45.09808" lon="2.68691">
        <ele>1359.44</ele>
        <time>2021-08-15T16:06:31Z</time>
      </trkpt>
      <trkpt lat="45.09797" lon="2.68691">
        <ele>1358.96</ele>
        <time>2021-08-15T16:06:32Z</time>
      </trkpt>
      <trkpt lat="45.09786" lon="2.68691">
        <ele>1358</ele>
        <time>2021-08-15T16:06:33Z</time>
      </trkpt>
      <trkpt lat="45.09751" lon="2.68687">
        <ele>1354.63</ele>
        <time>2021-08-15T16:06:36Z</time>
      </trkpt>
      <trkpt lat="45.09717" lon="2.68681">
        <ele>1351.75</ele>
        <time>2021-08-15T16:06:39Z</time>
      </trkpt>
      <trkpt lat="45.09706" lon="2.68683">
        <ele>1350.79</ele>
        <time>2021-08-15T16:06:40Z</time>
      </trkpt>
      <trkpt lat="45.0966" lon="2.68692">
        <ele>1347.43</ele>
        <time>2021-08-15T16:06:44Z</time>
      </trkpt>
      <trkpt lat="45.09616" lon="2.68701">
        <ele>1343.58</ele>
        <time>2021-08-15T16:06:48Z</time>
      </trkpt>
      <trkpt lat="45.09575" lon="2.68704">
        <ele>1340.7</ele>
        <time>2021-08-15T16:06:52Z</time>
      </trkpt>
      <trkpt lat="45.09564" lon="2.68702">
        <ele>1340.22</ele>
        <time>2021-08-15T16:06:53Z</time>
      </trkpt>
      <trkpt lat="45.09554" lon="2.68696">
        <ele>1338.77</ele>
        <time>2021-08-15T16:06:54Z</time>
      </trkpt>
      <trkpt lat="45.09545" lon="2.6869">
        <ele>1338.29</ele>
        <time>2021-08-15T16:06:55Z</time>
      </trkpt>
      <trkpt lat="45.09535" lon="2.68681">
        <ele>1337.33</ele>
        <time>2021-08-15T16:06:56Z</time>
      </trkpt>
      <trkpt lat="45.09526" lon="2.68673">
        <ele>1336.85</ele>
        <time>2021-08-15T16:06:57Z</time>
      </trkpt>
      <trkpt lat="45.09488" lon="2.68637">
        <ele>1333.49</ele>
        <time>2021-08-15T16:07:01Z</time>
      </trkpt>
      <trkpt lat="45.0946" lon="2.68613">
        <ele>1330.6</ele>
        <time>2021-08-15T16:07:04Z</time>
      </trkpt>
      <trkpt lat="45.09452" lon="2.68603">
        <ele>1330.12</ele>
        <time>2021-08-15T16:07:05Z</time>
      </trkpt>
      <trkpt lat="45.09444" lon="2.68591">
        <ele>1328.68</ele>
        <time>2021-08-15T16:07:06Z</time>
      </trkpt>
      <trkpt lat="45.09437" lon="2.68578">
        <ele>1327.72</ele>
        <time>2021-08-15T16:07:07Z</time>
      </trkpt>
      <trkpt lat="45.0943" lon="2.68565">
        <ele>1326.76</ele>
        <time>2021-08-15T16:07:08Z</time>
      </trkpt>
      <trkpt lat="45.09414" lon="2.6854">
        <ele>1325.31</ele>
        <time>2021-08-15T16:07:10Z</time>
      </trkpt>
      <trkpt lat="45.09406" lon="2.68528">
        <ele>1324.35</ele>
        <time>2021-08-15T16:07:11Z</time>
      </trkpt>
      <trkpt lat="45.09398" lon="2.68519">
        <ele>1322.91</ele>
        <time>2021-08-15T16:07:12Z</time>
      </trkpt>
      <trkpt lat="45.0939" lon="2.6851">
        <ele>1321.95</ele>
        <time>2021-08-15T16:07:13Z</time>
      </trkpt>
      <trkpt lat="45.09383" lon="2.685">
        <ele>1321.47</ele>
        <time>2021-08-15T16:07:14Z</time>
      </trkpt>
      <trkpt lat="45.09378" lon="2.68489">
        <ele>1320.99</ele>
        <time>2021-08-15T16:07:15Z</time>
      </trkpt>
      <trkpt lat="45.09373" lon="2.68478">
        <ele>1320.03</ele>
        <time>2021-08-15T16:07:16Z</time>
      </trkpt>
      <trkpt lat="45.09369" lon="2.68464">
        <ele>1319.07</ele>
        <time>2021-08-15T16:07:17Z</time>
      </trkpt>
      <trkpt lat="45.09367" lon="2.6845">
        <ele>1318.1</ele>
        <time>2021-08-15T16:07:18Z</time>
      </trkpt>
      <trkpt lat="45.09364" lon="2.68436">
        <ele>1317.62</ele>
        <time>2021-08-15T16:07:19Z</time>
      </trkpt>
      <trkpt lat="45.09361" lon="2.68424">
        <ele>1317.14</ele>
        <time>2021-08-15T16:07:20Z</time>
      </trkpt>
      <trkpt lat="45.09356" lon="2.68412">
        <ele>1315.7</ele>
        <time>2021-08-15T16:07:21Z</time>
      </trkpt>
      <trkpt lat="45.09349" lon="2.68401">
        <ele>1314.74</ele>
        <time>2021-08-15T16:07:22Z</time>
      </trkpt>
      <trkpt lat="45.09341" lon="2.68391">
        <ele>1313.3</ele>
        <time>2021-08-15T16:07:23Z</time>
      </trkpt>
      <trkpt lat="45.09334" lon="2.6838">
        <ele>1312.82</ele>
        <time>2021-08-15T16:07:24Z</time>
      </trkpt>
      <trkpt lat="45.09327" lon="2.68369">
        <ele>1311.86</ele>
        <time>2021-08-15T16:07:25Z</time>
      </trkpt>
      <trkpt lat="45.0932" lon="2.68356">
        <ele>1311.86</ele>
        <time>2021-08-15T16:07:26Z</time>
      </trkpt>
      <trkpt lat="45.09314" lon="2.68346">
        <ele>1310.41</ele>
        <time>2021-08-15T16:07:27Z</time>
      </trkpt>
      <trkpt lat="45.09307" lon="2.68337">
        <ele>1309.93</ele>
        <time>2021-08-15T16:07:28Z</time>
      </trkpt>
      <trkpt lat="45.09299" lon="2.68331">
        <ele>1309.45</ele>
        <time>2021-08-15T16:07:29Z</time>
      </trkpt>
      <trkpt lat="45.09291" lon="2.68329">
        <ele>1308.49</ele>
        <time>2021-08-15T16:07:30Z</time>
      </trkpt>
      <trkpt lat="45.09282" lon="2.6833">
        <ele>1307.53</ele>
        <time>2021-08-15T16:07:31Z</time>
      </trkpt>
      <trkpt lat="45.09273" lon="2.68334">
        <ele>1307.53</ele>
        <time>2021-08-15T16:07:32Z</time>
      </trkpt>
      <trkpt lat="45.09266" lon="2.68342">
        <ele>1306.09</ele>
        <time>2021-08-15T16:07:33Z</time>
      </trkpt>
      <trkpt lat="45.09259" lon="2.68351">
        <ele>1305.13</ele>
        <time>2021-08-15T16:07:34Z</time>
      </trkpt>
      <trkpt lat="45.09252" lon="2.68361">
        <ele>1304.17</ele>
        <time>2021-08-15T16:07:35Z</time>
      </trkpt>
      <trkpt lat="45.09246" lon="2.68371">
        <ele>1303.69</ele>
        <time>2021-08-15T16:07:36Z</time>
      </trkpt>
      <trkpt lat="45.09239" lon="2.68382">
        <ele>1302.72</ele>
        <time>2021-08-15T16:07:37Z</time>
      </trkpt>
      <trkpt lat="45.09234" lon="2.68394">
        <ele>1301.76</ele>
        <time>2021-08-15T16:07:38Z</time>
      </trkpt>
      <trkpt lat="45.09229" lon="2.68406">
        <ele>1301.28</ele>
        <time>2021-08-15T16:07:39Z</time>
      </trkpt>
      <trkpt lat="45.09225" lon="2.68418">
        <ele>1300.32</ele>
        <time>2021-08-15T16:07:40Z</time>
      </trkpt>
      <trkpt lat="45.09223" lon="2.68431">
        <ele>1299.84</ele>
        <time>2021-08-15T16:07:41Z</time>
      </trkpt>
      <trkpt lat="45.09221" lon="2.68445">
        <ele>1299.36</ele>
        <time>2021-08-15T16:07:42Z</time>
      </trkpt>
      <trkpt lat="45.0922" lon="2.6846">
        <ele>1298.88</ele>
        <time>2021-08-15T16:07:43Z</time>
      </trkpt>
      <trkpt lat="45.09223" lon="2.68522">
        <ele>1295.03</ele>
        <time>2021-08-15T16:07:47Z</time>
      </trkpt>
      <trkpt lat="45.09233" lon="2.68579">
        <ele>1291.19</ele>
        <time>2021-08-15T16:07:51Z</time>
      </trkpt>
      <trkpt lat="45.09237" lon="2.68603">
        <ele>1290.71</ele>
        <time>2021-08-15T16:07:53Z</time>
      </trkpt>
      <trkpt lat="45.09241" lon="2.68614">
        <ele>1289.75</ele>
        <time>2021-08-15T16:07:54Z</time>
      </trkpt>
      <trkpt lat="45.0925" lon="2.68634">
        <ele>1287.82</ele>
        <time>2021-08-15T16:07:56Z</time>
      </trkpt>
      <trkpt lat="45.09252" lon="2.68646">
        <ele>1286.86</ele>
        <time>2021-08-15T16:07:57Z</time>
      </trkpt>
      <trkpt lat="45.09252" lon="2.68658">
        <ele>1286.86</ele>
        <time>2021-08-15T16:07:58Z</time>
      </trkpt>
      <trkpt lat="45.09249" lon="2.68683">
        <ele>1285.42</ele>
        <time>2021-08-15T16:08:00Z</time>
      </trkpt>
      <trkpt lat="45.09249" lon="2.68697">
        <ele>1284.46</ele>
        <time>2021-08-15T16:08:01Z</time>
      </trkpt>
      <trkpt lat="45.09252" lon="2.68735">
        <ele>1283.02</ele>
        <time>2021-08-15T16:08:04Z</time>
      </trkpt>
      <trkpt lat="45.09254" lon="2.68746">
        <ele>1282.06</ele>
        <time>2021-08-15T16:08:05Z</time>
      </trkpt>
      <trkpt lat="45.09259" lon="2.68757">
        <ele>1281.09</ele>
        <time>2021-08-15T16:08:06Z</time>
      </trkpt>
      <trkpt lat="45.09263" lon="2.68764">
        <ele>1281.09</ele>
        <time>2021-08-15T16:08:07Z</time>
      </trkpt>
      <trkpt lat="45.0927" lon="2.6877">
        <ele>1280.13</ele>
        <time>2021-08-15T16:08:08Z</time>
      </trkpt>
      <trkpt lat="45.09277" lon="2.68774">
        <ele>1279.17</ele>
        <time>2021-08-15T16:08:09Z</time>
      </trkpt>
      <trkpt lat="45.09286" lon="2.68778">
        <ele>1278.21</ele>
        <time>2021-08-15T16:08:10Z</time>
      </trkpt>
      <trkpt lat="45.09294" lon="2.68782">
        <ele>1277.25</ele>
        <time>2021-08-15T16:08:11Z</time>
      </trkpt>
      <trkpt lat="45.09303" lon="2.68787">
        <ele>1276.77</ele>
        <time>2021-08-15T16:08:12Z</time>
      </trkpt>
      <trkpt lat="45.09311" lon="2.68794">
        <ele>1276.29</ele>
        <time>2021-08-15T16:08:13Z</time>
      </trkpt>
      <trkpt lat="45.09318" lon="2.68804">
        <ele>1275.33</ele>
        <time>2021-08-15T16:08:14Z</time>
      </trkpt>
      <trkpt lat="45.09323" lon="2.68815">
        <ele>1273.88</ele>
        <time>2021-08-15T16:08:15Z</time>
      </trkpt>
      <trkpt lat="45.09328" lon="2.68828">
        <ele>1272.92</ele>
        <time>2021-08-15T16:08:16Z</time>
      </trkpt>
      <trkpt lat="45.09331" lon="2.68842">
        <ele>1271.96</ele>
        <time>2021-08-15T16:08:17Z</time>
      </trkpt>
      <trkpt lat="45.09334" lon="2.68858">
        <ele>1271.48</ele>
        <time>2021-08-15T16:08:18Z</time>
      </trkpt>
      <trkpt lat="45.09336" lon="2.68871">
        <ele>1270.52</ele>
        <time>2021-08-15T16:08:19Z</time>
      </trkpt>
      <trkpt lat="45.09337" lon="2.68885">
        <ele>1269.56</ele>
        <time>2021-08-15T16:08:20Z</time>
      </trkpt>
      <trkpt lat="45.09336" lon="2.68898">
        <ele>1268.6</ele>
        <time>2021-08-15T16:08:21Z</time>
      </trkpt>
      <trkpt lat="45.09334" lon="2.68911">
        <ele>1267.64</ele>
        <time>2021-08-15T16:08:22Z</time>
      </trkpt>
      <trkpt lat="45.09331" lon="2.68921">
        <ele>1267.16</ele>
        <time>2021-08-15T16:08:23Z</time>
      </trkpt>
      <trkpt lat="45.09326" lon="2.68931">
        <ele>1267.16</ele>
        <time>2021-08-15T16:08:24Z</time>
      </trkpt>
      <trkpt lat="45.09319" lon="2.6895">
        <ele>1265.23</ele>
        <time>2021-08-15T16:08:26Z</time>
      </trkpt>
      <trkpt lat="45.09318" lon="2.68959">
        <ele>1264.75</ele>
        <time>2021-08-15T16:08:27Z</time>
      </trkpt>
      <trkpt lat="45.0932" lon="2.69005">
        <ele>1261.87</ele>
        <time>2021-08-15T16:08:31Z</time>
      </trkpt>
      <trkpt lat="45.09322" lon="2.69044">
        <ele>1260.43</ele>
        <time>2021-08-15T16:08:34Z</time>
      </trkpt>
      <trkpt lat="45.09324" lon="2.69055">
        <ele>1258.98</ele>
        <time>2021-08-15T16:08:35Z</time>
      </trkpt>
      <trkpt lat="45.09328" lon="2.69068">
        <ele>1258.02</ele>
        <time>2021-08-15T16:08:36Z</time>
      </trkpt>
      <trkpt lat="45.09332" lon="2.69079">
        <ele>1257.54</ele>
        <time>2021-08-15T16:08:37Z</time>
      </trkpt>
      <trkpt lat="45.09337" lon="2.69091">
        <ele>1256.58</ele>
        <time>2021-08-15T16:08:38Z</time>
      </trkpt>
      <trkpt lat="45.09342" lon="2.69101">
        <ele>1256.1</ele>
        <time>2021-08-15T16:08:39Z</time>
      </trkpt>
      <trkpt lat="45.09349" lon="2.69112">
        <ele>1255.14</ele>
        <time>2021-08-15T16:08:40Z</time>
      </trkpt>
      <trkpt lat="45.09356" lon="2.69122">
        <ele>1254.18</ele>
        <time>2021-08-15T16:08:41Z</time>
      </trkpt>
      <trkpt lat="45.09364" lon="2.69132">
        <ele>1252.74</ele>
        <time>2021-08-15T16:08:42Z</time>
      </trkpt>
      <trkpt lat="45.09373" lon="2.6914">
        <ele>1252.25</ele>
        <time>2021-08-15T16:08:43Z</time>
      </trkpt>
      <trkpt lat="45.09382" lon="2.69148">
        <ele>1250.81</ele>
        <time>2021-08-15T16:08:44Z</time>
      </trkpt>
      <trkpt lat="45.09392" lon="2.69155">
        <ele>1250.33</ele>
        <time>2021-08-15T16:08:45Z</time>
      </trkpt>
      <trkpt lat="45.0941" lon="2.6917">
        <ele>1249.37</ele>
        <time>2021-08-15T16:08:47Z</time>
      </trkpt>
      <trkpt lat="45.09433" lon="2.69194">
        <ele>1247.45</ele>
        <time>2021-08-15T16:08:50Z</time>
      </trkpt>
      <trkpt lat="45.09437" lon="2.69204">
        <ele>1246.97</ele>
        <time>2021-08-15T16:08:51Z</time>
      </trkpt>
      <trkpt lat="45.09438" lon="2.69214">
        <ele>1246.97</ele>
        <time>2021-08-15T16:08:52Z</time>
      </trkpt>
      <trkpt lat="45.09438" lon="2.69224">
        <ele>1246.01</ele>
        <time>2021-08-15T16:08:53Z</time>
      </trkpt>
      <trkpt lat="45.09434" lon="2.69233">
        <ele>1245.53</ele>
        <time>2021-08-15T16:08:54Z</time>
      </trkpt>
      <trkpt lat="45.09429" lon="2.69241">
        <ele>1245.53</ele>
        <time>2021-08-15T16:08:55Z</time>
      </trkpt>
      <trkpt lat="45.09425" lon="2.69245">
        <ele>1244.56</ele>
        <time>2021-08-15T16:08:56Z</time>
      </trkpt>
      <trkpt lat="45.09418" lon="2.69249">
        <ele>1244.56</ele>
        <time>2021-08-15T16:08:57Z</time>
      </trkpt>
      <trkpt lat="45.09411" lon="2.69252">
        <ele>1244.08</ele>
        <time>2021-08-15T16:08:58Z</time>
      </trkpt>
      <trkpt lat="45.09403" lon="2.69254">
        <ele>1244.08</ele>
        <time>2021-08-15T16:08:59Z</time>
      </trkpt>
      <trkpt lat="45.09368" lon="2.69267">
        <ele>1240.72</ele>
        <time>2021-08-15T16:09:03Z</time>
      </trkpt>
      <trkpt lat="45.09329" lon="2.69279">
        <ele>1236.87</ele>
        <time>2021-08-15T16:09:07Z</time>
      </trkpt>
      <trkpt lat="45.09291" lon="2.6929">
        <ele>1233.51</ele>
        <time>2021-08-15T16:09:11Z</time>
      </trkpt>
      <trkpt lat="45.09283" lon="2.69293">
        <ele>1233.03</ele>
        <time>2021-08-15T16:09:12Z</time>
      </trkpt>
      <trkpt lat="45.09275" lon="2.69298">
        <ele>1232.55</ele>
        <time>2021-08-15T16:09:13Z</time>
      </trkpt>
      <trkpt lat="45.09268" lon="2.69305">
        <ele>1231.59</ele>
        <time>2021-08-15T16:09:14Z</time>
      </trkpt>
      <trkpt lat="45.09262" lon="2.69312">
        <ele>1231.11</ele>
        <time>2021-08-15T16:09:15Z</time>
      </trkpt>
      <trkpt lat="45.09257" lon="2.69317">
        <ele>1231.11</ele>
        <time>2021-08-15T16:09:16Z</time>
      </trkpt>
      <trkpt lat="45.09252" lon="2.69321">
        <ele>1230.62</ele>
        <time>2021-08-15T16:09:17Z</time>
      </trkpt>
      <trkpt lat="45.09247" lon="2.69323">
        <ele>1230.14</ele>
        <time>2021-08-15T16:09:18Z</time>
      </trkpt>
      <trkpt lat="45.09242" lon="2.6932">
        <ele>1229.66</ele>
        <time>2021-08-15T16:09:19Z</time>
      </trkpt>
      <trkpt lat="45.09238" lon="2.69314">
        <ele>1228.7</ele>
        <time>2021-08-15T16:09:20Z</time>
      </trkpt>
      <trkpt lat="45.09238" lon="2.69307">
        <ele>1228.7</ele>
        <time>2021-08-15T16:09:21Z</time>
      </trkpt>
      <trkpt lat="45.09241" lon="2.69299">
        <ele>1228.22</ele>
        <time>2021-08-15T16:09:22Z</time>
      </trkpt>
      <trkpt lat="45.09246" lon="2.69291">
        <ele>1228.22</ele>
        <time>2021-08-15T16:09:23Z</time>
      </trkpt>
      <trkpt lat="45.09251" lon="2.69284">
        <ele>1227.26</ele>
        <time>2021-08-15T16:09:24Z</time>
      </trkpt>
      <trkpt lat="45.09256" lon="2.6928">
        <ele>1227.26</ele>
        <time>2021-08-15T16:09:25Z</time>
      </trkpt>
      <trkpt lat="45.09264" lon="2.69276">
        <ele>1226.78</ele>
        <time>2021-08-15T16:09:26Z</time>
      </trkpt>
      <trkpt lat="45.09271" lon="2.69273">
        <ele>1226.78</ele>
        <time>2021-08-15T16:09:27Z</time>
      </trkpt>
      <trkpt lat="45.09278" lon="2.69272">
        <ele>1226.3</ele>
        <time>2021-08-15T16:09:28Z</time>
      </trkpt>
      <trkpt lat="45.09298" lon="2.69265">
        <ele>1224.86</ele>
        <time>2021-08-15T16:09:31Z</time>
      </trkpt>
      <trkpt lat="45.09312" lon="2.69261">
        <ele>1224.38</ele>
        <time>2021-08-15T16:09:34Z</time>
      </trkpt>
      <trkpt lat="45.09321" lon="2.69257">
        <ele>1223.42</ele>
        <time>2021-08-15T16:09:36Z</time>
      </trkpt>
      <trkpt lat="45.09324" lon="2.69257">
        <ele>1222.93</ele>
        <time>2021-08-15T16:09:37Z</time>
      </trkpt>
      <trkpt lat="45.09329" lon="2.69256">
        <ele>1222.93</ele>
        <time>2021-08-15T16:09:38Z</time>
      </trkpt>
      <trkpt lat="45.09332" lon="2.69257">
        <ele>1222.93</ele>
        <time>2021-08-15T16:09:39Z</time>
      </trkpt>
      <trkpt lat="45.09336" lon="2.69258">
        <ele>1222.93</ele>
        <time>2021-08-15T16:09:40Z</time>
      </trkpt>
      <trkpt lat="45.09337" lon="2.69259">
        <ele>1222.93</ele>
        <time>2021-08-15T16:09:44Z</time>
      </trkpt>
      <trkpt lat="45.09336" lon="2.69259">
        <ele>1222.45</ele>
        <time>2021-08-15T16:09:56Z</time>
      </trkpt>
      <trkpt lat="45.09336" lon="2.69259">
        <ele>1222.45</ele>
        <time>2021-08-15T16:10:10Z</time>
      </trkpt>
      <trkpt lat="45.09335" lon="2.69259">
        <ele>1222.45</ele>
        <time>2021-08-15T16:10:22Z</time>
      </trkpt>
      <trkpt lat="45.09337" lon="2.69258">
        <ele>1222.45</ele>
        <time>2021-08-15T16:10:33Z</time>
      </trkpt>
      <trkpt lat="45.09336" lon="2.69258">
        <ele>1222.45</ele>
        <time>2021-08-15T16:10:44Z</time>
      </trkpt>
      <trkpt lat="45.09335" lon="2.69256">
        <ele>1222.45</ele>
        <time>2021-08-15T16:10:54Z</time>
      </trkpt>
      <trkpt lat="45.09335" lon="2.69249">
        <ele>1222.45</ele>
        <time>2021-08-15T16:11:06Z</time>
      </trkpt>
      <trkpt lat="45.09334" lon="2.69245">
        <ele>1222.45</ele>
        <time>2021-08-15T16:11:21Z</time>
      </trkpt>
      <trkpt lat="45.09334" lon="2.69242">
        <ele>1222.45</ele>
        <time>2021-08-15T16:11:25Z</time>
      </trkpt>
      <trkpt lat="45.09333" lon="2.6924">
        <ele>1222.45</ele>
        <time>2021-08-15T16:11:26Z</time>
      </trkpt>
      <trkpt lat="45.09331" lon="2.69239">
        <ele>1222.45</ele>
        <time>2021-08-15T16:11:27Z</time>
      </trkpt>
      <trkpt lat="45.0933" lon="2.69239">
        <ele>1222.45</ele>
        <time>2021-08-15T16:11:28Z</time>
      </trkpt>
      <trkpt lat="45.09328" lon="2.69238">
        <ele>1222.45</ele>
        <time>2021-08-15T16:11:29Z</time>
      </trkpt>
      <trkpt lat="45.09309" lon="2.69244">
        <ele>1222.45</ele>
        <time>2021-08-15T16:11:36Z</time>
      </trkpt>
      <trkpt lat="45.09301" lon="2.69251">
        <ele>1223.42</ele>
        <time>2021-08-15T16:11:40Z</time>
      </trkpt>
      <trkpt lat="45.09288" lon="2.6926">
        <ele>1224.86</ele>
        <time>2021-08-15T16:11:48Z</time>
      </trkpt>
      <trkpt lat="45.09274" lon="2.69267">
        <ele>1225.82</ele>
        <time>2021-08-15T16:11:56Z</time>
      </trkpt>
      <trkpt lat="45.09258" lon="2.69274">
        <ele>1226.78</ele>
        <time>2021-08-15T16:12:04Z</time>
      </trkpt>
      <trkpt lat="45.09249" lon="2.69279">
        <ele>1227.74</ele>
        <time>2021-08-15T16:12:09Z</time>
      </trkpt>
      <trkpt lat="45.09247" lon="2.69281">
        <ele>1227.74</ele>
        <time>2021-08-15T16:12:10Z</time>
      </trkpt>
      <trkpt lat="45.09236" lon="2.69304">
        <ele>1228.7</ele>
        <time>2021-08-15T16:12:19Z</time>
      </trkpt>
      <trkpt lat="45.09238" lon="2.69331">
        <ele>1229.66</ele>
        <time>2021-08-15T16:12:28Z</time>
      </trkpt>
      <trkpt lat="45.09241" lon="2.69357">
        <ele>1230.62</ele>
        <time>2021-08-15T16:12:37Z</time>
      </trkpt>
      <trkpt lat="45.09247" lon="2.69378">
        <ele>1231.11</ele>
        <time>2021-08-15T16:12:45Z</time>
      </trkpt>
      <trkpt lat="45.09255" lon="2.69397">
        <ele>1231.59</ele>
        <time>2021-08-15T16:12:51Z</time>
      </trkpt>
      <trkpt lat="45.09267" lon="2.69431">
        <ele>1231.59</ele>
        <time>2021-08-15T16:12:59Z</time>
      </trkpt>
      <trkpt lat="45.09274" lon="2.69453">
        <ele>1231.59</ele>
        <time>2021-08-15T16:13:05Z</time>
      </trkpt>
      <trkpt lat="45.09279" lon="2.69473">
        <ele>1231.11</ele>
        <time>2021-08-15T16:13:11Z</time>
      </trkpt>
      <trkpt lat="45.09283" lon="2.69493">
        <ele>1231.59</ele>
        <time>2021-08-15T16:13:17Z</time>
      </trkpt>
      <trkpt lat="45.09291" lon="2.69521">
        <ele>1231.59</ele>
        <time>2021-08-15T16:13:24Z</time>
      </trkpt>
      <trkpt lat="45.09296" lon="2.69549">
        <ele>1231.59</ele>
        <time>2021-08-15T16:13:32Z</time>
      </trkpt>
      <trkpt lat="45.09298" lon="2.69562">
        <ele>1231.59</ele>
        <time>2021-08-15T16:13:38Z</time>
      </trkpt>
      <trkpt lat="45.09298" lon="2.69566">
        <ele>1231.59</ele>
        <time>2021-08-15T16:13:53Z</time>
      </trkpt>
      <trkpt lat="45.09299" lon="2.69569">
        <ele>1231.59</ele>
        <time>2021-08-15T16:14:04Z</time>
      </trkpt>
      <trkpt lat="45.09299" lon="2.69572">
        <ele>1231.59</ele>
        <time>2021-08-15T16:14:20Z</time>
      </trkpt>
      <trkpt lat="45.093" lon="2.69573">
        <ele>1231.59</ele>
        <time>2021-08-15T16:14:40Z</time>
      </trkpt>
      <trkpt lat="45.09302" lon="2.69571">
        <ele>1231.59</ele>
        <time>2021-08-15T16:15:00Z</time>
      </trkpt>
      <trkpt lat="45.09299" lon="2.69573">
        <ele>1231.11</ele>
        <time>2021-08-15T16:15:18Z</time>
      </trkpt>
      <trkpt lat="45.093" lon="2.69573">
        <ele>1231.11</ele>
        <time>2021-08-15T16:15:32Z</time>
      </trkpt>
      <trkpt lat="45.09305" lon="2.69587">
        <ele>1231.11</ele>
        <time>2021-08-15T16:15:37Z</time>
      </trkpt>
      <trkpt lat="45.09315" lon="2.69632">
        <ele>1231.11</ele>
        <time>2021-08-15T16:15:46Z</time>
      </trkpt>
      <trkpt lat="45.09316" lon="2.69638">
        <ele>1231.11</ele>
        <time>2021-08-15T16:15:47Z</time>
      </trkpt>
      <trkpt lat="45.09318" lon="2.69643">
        <ele>1230.14</ele>
        <time>2021-08-15T16:15:48Z</time>
      </trkpt>
      <trkpt lat="45.0932" lon="2.69648">
        <ele>1230.14</ele>
        <time>2021-08-15T16:15:49Z</time>
      </trkpt>
      <trkpt lat="45.09334" lon="2.69687">
        <ele>1229.18</ele>
        <time>2021-08-15T16:15:56Z</time>
      </trkpt>
      <trkpt lat="45.09336" lon="2.69693">
        <ele>1229.18</ele>
        <time>2021-08-15T16:15:57Z</time>
      </trkpt>
      <trkpt lat="45.09339" lon="2.69698">
        <ele>1229.18</ele>
        <time>2021-08-15T16:15:58Z</time>
      </trkpt>
      <trkpt lat="45.09344" lon="2.69708">
        <ele>1229.18</ele>
        <time>2021-08-15T16:16:00Z</time>
      </trkpt>
      <trkpt lat="45.09347" lon="2.69714">
        <ele>1229.18</ele>
        <time>2021-08-15T16:16:01Z</time>
      </trkpt>
      <trkpt lat="45.0935" lon="2.69718">
        <ele>1229.18</ele>
        <time>2021-08-15T16:16:02Z</time>
      </trkpt>
      <trkpt lat="45.09352" lon="2.69723">
        <ele>1229.18</ele>
        <time>2021-08-15T16:16:03Z</time>
      </trkpt>
      <trkpt lat="45.09354" lon="2.69728">
        <ele>1229.18</ele>
        <time>2021-08-15T16:16:04Z</time>
      </trkpt>
      <trkpt lat="45.09367" lon="2.69762">
        <ele>1229.18</ele>
        <time>2021-08-15T16:16:11Z</time>
      </trkpt>
      <trkpt lat="45.09371" lon="2.69772">
        <ele>1228.7</ele>
        <time>2021-08-15T16:16:13Z</time>
      </trkpt>
      <trkpt lat="45.09374" lon="2.69777">
        <ele>1228.7</ele>
        <time>2021-08-15T16:16:14Z</time>
      </trkpt>
      <trkpt lat="45.09377" lon="2.69782">
        <ele>1228.7</ele>
        <time>2021-08-15T16:16:15Z</time>
      </trkpt>
      <trkpt lat="45.0938" lon="2.69787">
        <ele>1228.7</ele>
        <time>2021-08-15T16:16:16Z</time>
      </trkpt>
      <trkpt lat="45.09382" lon="2.69793">
        <ele>1228.7</ele>
        <time>2021-08-15T16:16:17Z</time>
      </trkpt>
      <trkpt lat="45.09393" lon="2.69809">
        <ele>1228.22</ele>
        <time>2021-08-15T16:16:20Z</time>
      </trkpt>
      <trkpt lat="45.09397" lon="2.69815">
        <ele>1228.22</ele>
        <time>2021-08-15T16:16:21Z</time>
      </trkpt>
      <trkpt lat="45.09404" lon="2.69826">
        <ele>1228.22</ele>
        <time>2021-08-15T16:16:23Z</time>
      </trkpt>
      <trkpt lat="45.09407" lon="2.69831">
        <ele>1228.22</ele>
        <time>2021-08-15T16:16:24Z</time>
      </trkpt>
      <trkpt lat="45.09419" lon="2.69846">
        <ele>1227.74</ele>
        <time>2021-08-15T16:16:27Z</time>
      </trkpt>
      <trkpt lat="45.09422" lon="2.69852">
        <ele>1227.74</ele>
        <time>2021-08-15T16:16:28Z</time>
      </trkpt>
      <trkpt lat="45.09436" lon="2.69873">
        <ele>1226.3</ele>
        <time>2021-08-15T16:16:32Z</time>
      </trkpt>
      <trkpt lat="45.09439" lon="2.69879">
        <ele>1226.3</ele>
        <time>2021-08-15T16:16:33Z</time>
      </trkpt>
      <trkpt lat="45.09451" lon="2.69916">
        <ele>1226.3</ele>
        <time>2021-08-15T16:16:40Z</time>
      </trkpt>
      <trkpt lat="45.0946" lon="2.69955">
        <ele>1226.3</ele>
        <time>2021-08-15T16:16:47Z</time>
      </trkpt>
      <trkpt lat="45.09469" lon="2.69978">
        <ele>1226.3</ele>
        <time>2021-08-15T16:16:51Z</time>
      </trkpt>
      <trkpt lat="45.09474" lon="2.69988">
        <ele>1226.3</ele>
        <time>2021-08-15T16:16:53Z</time>
      </trkpt>
      <trkpt lat="45.09477" lon="2.69992">
        <ele>1226.3</ele>
        <time>2021-08-15T16:16:54Z</time>
      </trkpt>
      <trkpt lat="45.09503" lon="2.70024">
        <ele>1226.3</ele>
        <time>2021-08-15T16:17:02Z</time>
      </trkpt>
      <trkpt lat="45.09513" lon="2.7004">
        <ele>1225.82</ele>
        <time>2021-08-15T16:17:05Z</time>
      </trkpt>
      <trkpt lat="45.09514" lon="2.70047">
        <ele>1224.86</ele>
        <time>2021-08-15T16:17:06Z</time>
      </trkpt>
      <trkpt lat="45.09515" lon="2.70054">
        <ele>1224.86</ele>
        <time>2021-08-15T16:17:07Z</time>
      </trkpt>
      <trkpt lat="45.09514" lon="2.70062">
        <ele>1224.86</ele>
        <time>2021-08-15T16:17:08Z</time>
      </trkpt>
      <trkpt lat="45.09513" lon="2.70068">
        <ele>1224.86</ele>
        <time>2021-08-15T16:17:09Z</time>
      </trkpt>
      <trkpt lat="45.09512" lon="2.70074">
        <ele>1224.86</ele>
        <time>2021-08-15T16:17:10Z</time>
      </trkpt>
      <trkpt lat="45.09507" lon="2.70111">
        <ele>1224.86</ele>
        <time>2021-08-15T16:17:17Z</time>
      </trkpt>
      <trkpt lat="45.09508" lon="2.70122">
        <ele>1224.86</ele>
        <time>2021-08-15T16:17:19Z</time>
      </trkpt>
      <trkpt lat="45.0951" lon="2.70128">
        <ele>1224.86</ele>
        <time>2021-08-15T16:17:20Z</time>
      </trkpt>
      <trkpt lat="45.09512" lon="2.70133">
        <ele>1224.86</ele>
        <time>2021-08-15T16:17:21Z</time>
      </trkpt>
      <trkpt lat="45.09537" lon="2.70177">
        <ele>1224.86</ele>
        <time>2021-08-15T16:17:30Z</time>
      </trkpt>
      <trkpt lat="45.09548" lon="2.70197">
        <ele>1227.26</ele>
        <time>2021-08-15T16:17:36Z</time>
      </trkpt>
      <trkpt lat="45.09555" lon="2.70213">
        <ele>1227.74</ele>
        <time>2021-08-15T16:17:43Z</time>
      </trkpt>
      <trkpt lat="45.09562" lon="2.70235">
        <ele>1228.7</ele>
        <time>2021-08-15T16:17:50Z</time>
      </trkpt>
      <trkpt lat="45.09567" lon="2.70254">
        <ele>1229.18</ele>
        <time>2021-08-15T16:17:57Z</time>
      </trkpt>
      <trkpt lat="45.09577" lon="2.70278">
        <ele>1229.66</ele>
        <time>2021-08-15T16:18:03Z</time>
      </trkpt>
      <trkpt lat="45.09587" lon="2.70307">
        <ele>1230.14</ele>
        <time>2021-08-15T16:18:09Z</time>
      </trkpt>
      <trkpt lat="45.09596" lon="2.70335">
        <ele>1230.14</ele>
        <time>2021-08-15T16:18:15Z</time>
      </trkpt>
      <trkpt lat="45.09594" lon="2.70357">
        <ele>1228.7</ele>
        <time>2021-08-15T16:18:19Z</time>
      </trkpt>
      <trkpt lat="45.0959" lon="2.70362">
        <ele>1228.7</ele>
        <time>2021-08-15T16:18:20Z</time>
      </trkpt>
      <trkpt lat="45.09586" lon="2.70364">
        <ele>1228.22</ele>
        <time>2021-08-15T16:18:21Z</time>
      </trkpt>
      <trkpt lat="45.0958" lon="2.70366">
        <ele>1227.74</ele>
        <time>2021-08-15T16:18:22Z</time>
      </trkpt>
      <trkpt lat="45.09574" lon="2.70366">
        <ele>1227.74</ele>
        <time>2021-08-15T16:18:23Z</time>
      </trkpt>
      <trkpt lat="45.09569" lon="2.70365">
        <ele>1227.74</ele>
        <time>2021-08-15T16:18:24Z</time>
      </trkpt>
      <trkpt lat="45.09564" lon="2.70364">
        <ele>1227.74</ele>
        <time>2021-08-15T16:18:25Z</time>
      </trkpt>
      <trkpt lat="45.09559" lon="2.70362">
        <ele>1227.74</ele>
        <time>2021-08-15T16:18:26Z</time>
      </trkpt>
      <trkpt lat="45.0955" lon="2.70356">
        <ele>1228.7</ele>
        <time>2021-08-15T16:18:30Z</time>
      </trkpt>
      <trkpt lat="45.09543" lon="2.70348">
        <ele>1230.14</ele>
        <time>2021-08-15T16:18:37Z</time>
      </trkpt>
      <trkpt lat="45.09533" lon="2.70336">
        <ele>1230.62</ele>
        <time>2021-08-15T16:18:45Z</time>
      </trkpt>
      <trkpt lat="45.09529" lon="2.70329">
        <ele>1231.11</ele>
        <time>2021-08-15T16:18:49Z</time>
      </trkpt>
      <trkpt lat="45.09529" lon="2.70327">
        <ele>1231.11</ele>
        <time>2021-08-15T16:18:50Z</time>
      </trkpt>
      <trkpt lat="45.09528" lon="2.70325">
        <ele>1231.11</ele>
        <time>2021-08-15T16:18:51Z</time>
      </trkpt>
      <trkpt lat="45.09527" lon="2.70323">
        <ele>1231.59</ele>
        <time>2021-08-15T16:18:52Z</time>
      </trkpt>
      <trkpt lat="45.09526" lon="2.70322">
        <ele>1231.59</ele>
        <time>2021-08-15T16:18:53Z</time>
      </trkpt>
      <trkpt lat="45.09524" lon="2.7032">
        <ele>1231.59</ele>
        <time>2021-08-15T16:18:54Z</time>
      </trkpt>
      <trkpt lat="45.09523" lon="2.70317">
        <ele>1232.07</ele>
        <time>2021-08-15T16:18:55Z</time>
      </trkpt>
      <trkpt lat="45.09522" lon="2.70315">
        <ele>1232.07</ele>
        <time>2021-08-15T16:18:56Z</time>
      </trkpt>
      <trkpt lat="45.09521" lon="2.70313">
        <ele>1232.07</ele>
        <time>2021-08-15T16:18:57Z</time>
      </trkpt>
      <trkpt lat="45.09511" lon="2.70299">
        <ele>1233.03</ele>
        <time>2021-08-15T16:19:05Z</time>
      </trkpt>
      <trkpt lat="45.09499" lon="2.70289">
        <ele>1233.99</ele>
        <time>2021-08-15T16:19:13Z</time>
      </trkpt>
      <trkpt lat="45.09487" lon="2.70278">
        <ele>1235.43</ele>
        <time>2021-08-15T16:19:21Z</time>
      </trkpt>
      <trkpt lat="45.0947" lon="2.70261">
        <ele>1236.39</ele>
        <time>2021-08-15T16:19:31Z</time>
      </trkpt>
      <trkpt lat="45.09456" lon="2.70247">
        <ele>1237.83</ele>
        <time>2021-08-15T16:19:39Z</time>
      </trkpt>
      <trkpt lat="45.09449" lon="2.70239">
        <ele>1237.83</ele>
        <time>2021-08-15T16:19:45Z</time>
      </trkpt>
      <trkpt lat="45.09446" lon="2.70239">
        <ele>1237.83</ele>
        <time>2021-08-15T16:19:54Z</time>
      </trkpt>
      <trkpt lat="45.09444" lon="2.70239">
        <ele>1237.83</ele>
        <time>2021-08-15T16:20:06Z</time>
      </trkpt>
      <trkpt lat="45.09442" lon="2.70245">
        <ele>1238.32</ele>
        <time>2021-08-15T16:20:25Z</time>
      </trkpt>
      <trkpt lat="45.09443" lon="2.70242">
        <ele>1238.32</ele>
        <time>2021-08-15T16:20:43Z</time>
      </trkpt>
      <trkpt lat="45.09444" lon="2.7024">
        <ele>1238.32</ele>
        <time>2021-08-15T16:20:58Z</time>
      </trkpt>
      <trkpt lat="45.09445" lon="2.70239">
        <ele>1238.32</ele>
        <time>2021-08-15T16:21:07Z</time>
      </trkpt>
      <trkpt lat="45.09446" lon="2.70238">
        <ele>1238.32</ele>
        <time>2021-08-15T16:21:24Z</time>
      </trkpt>
      <trkpt lat="45.09446" lon="2.70236">
        <ele>1238.32</ele>
        <time>2021-08-15T16:21:34Z</time>
      </trkpt>
      <trkpt lat="45.09444" lon="2.70237">
        <ele>1238.32</ele>
        <time>2021-08-15T16:21:40Z</time>
      </trkpt>
      <trkpt lat="45.09444" lon="2.70235">
        <ele>1238.32</ele>
        <time>2021-08-15T16:21:50Z</time>
      </trkpt>
      <trkpt lat="45.09444" lon="2.70239">
        <ele>1238.32</ele>
        <time>2021-08-15T16:22:05Z</time>
      </trkpt>
      <trkpt lat="45.09442" lon="2.70243">
        <ele>1238.32</ele>
        <time>2021-08-15T16:22:24Z</time>
      </trkpt>
      <trkpt lat="45.09443" lon="2.70236">
        <ele>1238.32</ele>
        <time>2021-08-15T16:22:43Z</time>
      </trkpt>
      <trkpt lat="45.09447" lon="2.70235">
        <ele>1238.32</ele>
        <time>2021-08-15T16:22:57Z</time>
      </trkpt>
      <trkpt lat="45.09448" lon="2.70237">
        <ele>1238.32</ele>
        <time>2021-08-15T16:23:13Z</time>
      </trkpt>
      <trkpt lat="45.09448" lon="2.70235">
        <ele>1238.32</ele>
        <time>2021-08-15T16:23:28Z</time>
      </trkpt>
      <trkpt lat="45.09446" lon="2.70237">
        <ele>1238.32</ele>
        <time>2021-08-15T16:23:43Z</time>
      </trkpt>
      <trkpt lat="45.09442" lon="2.70236">
        <ele>1238.32</ele>
        <time>2021-08-15T16:23:55Z</time>
      </trkpt>
      <trkpt lat="45.09442" lon="2.70234">
        <ele>1238.32</ele>
        <time>2021-08-15T16:24:10Z</time>
      </trkpt>
      <trkpt lat="45.09444" lon="2.70231">
        <ele>1238.32</ele>
        <time>2021-08-15T16:24:28Z</time>
      </trkpt>
      <trkpt lat="45.09439" lon="2.70233">
        <ele>1238.32</ele>
        <time>2021-08-15T16:24:44Z</time>
      </trkpt>
      <trkpt lat="45.09435" lon="2.70235">
        <ele>1238.32</ele>
        <time>2021-08-15T16:24:59Z</time>
      </trkpt>
      <trkpt lat="45.09434" lon="2.70239">
        <ele>1238.32</ele>
        <time>2021-08-15T16:25:12Z</time>
      </trkpt>
      <trkpt lat="45.09436" lon="2.70239">
        <ele>1238.32</ele>
        <time>2021-08-15T16:25:24Z</time>
      </trkpt>
      <trkpt lat="45.09441" lon="2.70235">
        <ele>1238.32</ele>
        <time>2021-08-15T16:25:41Z</time>
      </trkpt>
      <trkpt lat="45.09442" lon="2.70235">
        <ele>1238.32</ele>
        <time>2021-08-15T16:25:51Z</time>
      </trkpt>
      <trkpt lat="45.09441" lon="2.70232">
        <ele>1238.32</ele>
        <time>2021-08-15T16:25:53Z</time>
      </trkpt>
      <trkpt lat="45.0944" lon="2.70234">
        <ele>1238.32</ele>
        <time>2021-08-15T16:25:58Z</time>
      </trkpt>
      <trkpt lat="45.09439" lon="2.70239">
        <ele>1238.32</ele>
        <time>2021-08-15T16:26:17Z</time>
      </trkpt>
      <trkpt lat="45.09437" lon="2.70241">
        <ele>1237.35</ele>
        <time>2021-08-15T16:26:28Z</time>
      </trkpt>
      <trkpt lat="45.09435" lon="2.70241">
        <ele>1237.35</ele>
        <time>2021-08-15T16:26:33Z</time>
      </trkpt>
      <trkpt lat="45.0943" lon="2.70228">
        <ele>1238.32</ele>
        <time>2021-08-15T16:26:40Z</time>
      </trkpt>
      <trkpt lat="45.09421" lon="2.70206">
        <ele>1238.32</ele>
        <time>2021-08-15T16:26:47Z</time>
      </trkpt>
      <trkpt lat="45.09407" lon="2.70181">
        <ele>1238.32</ele>
        <time>2021-08-15T16:26:54Z</time>
      </trkpt>
      <trkpt lat="45.09405" lon="2.70176">
        <ele>1237.35</ele>
        <time>2021-08-15T16:26:55Z</time>
      </trkpt>
      <trkpt lat="45.09388" lon="2.70142">
        <ele>1233.99</ele>
        <time>2021-08-15T16:27:01Z</time>
      </trkpt>
      <trkpt lat="45.09358" lon="2.70096">
        <ele>1230.14</ele>
        <time>2021-08-15T16:27:08Z</time>
      </trkpt>
      <trkpt lat="45.09354" lon="2.70089">
        <ele>1230.14</ele>
        <time>2021-08-15T16:27:09Z</time>
      </trkpt>
      <trkpt lat="45.0935" lon="2.70083">
        <ele>1229.66</ele>
        <time>2021-08-15T16:27:10Z</time>
      </trkpt>
      <trkpt lat="45.09317" lon="2.70034">
        <ele>1226.3</ele>
        <time>2021-08-15T16:27:17Z</time>
      </trkpt>
      <trkpt lat="45.09301" lon="2.70011">
        <ele>1225.34</ele>
        <time>2021-08-15T16:27:20Z</time>
      </trkpt>
      <trkpt lat="45.09296" lon="2.70003">
        <ele>1224.38</ele>
        <time>2021-08-15T16:27:21Z</time>
      </trkpt>
      <trkpt lat="45.09291" lon="2.69997">
        <ele>1224.38</ele>
        <time>2021-08-15T16:27:22Z</time>
      </trkpt>
      <trkpt lat="45.09258" lon="2.69953">
        <ele>1220.53</ele>
        <time>2021-08-15T16:27:28Z</time>
      </trkpt>
      <trkpt lat="45.09252" lon="2.69945">
        <ele>1220.53</ele>
        <time>2021-08-15T16:27:29Z</time>
      </trkpt>
      <trkpt lat="45.09247" lon="2.69937">
        <ele>1219.57</ele>
        <time>2021-08-15T16:27:30Z</time>
      </trkpt>
      <trkpt lat="45.09211" lon="2.69884">
        <ele>1217.65</ele>
        <time>2021-08-15T16:27:37Z</time>
      </trkpt>
      <trkpt lat="45.09208" lon="2.69878">
        <ele>1217.17</ele>
        <time>2021-08-15T16:27:38Z</time>
      </trkpt>
      <trkpt lat="45.092" lon="2.69861">
        <ele>1216.21</ele>
        <time>2021-08-15T16:27:40Z</time>
      </trkpt>
      <trkpt lat="45.09178" lon="2.69825">
        <ele>1213.32</ele>
        <time>2021-08-15T16:27:45Z</time>
      </trkpt>
      <trkpt lat="45.09152" lon="2.69791">
        <ele>1209.96</ele>
        <time>2021-08-15T16:27:51Z</time>
      </trkpt>
      <trkpt lat="45.09147" lon="2.69784">
        <ele>1209.96</ele>
        <time>2021-08-15T16:27:52Z</time>
      </trkpt>
      <trkpt lat="45.09125" lon="2.69754">
        <ele>1207.07</ele>
        <time>2021-08-15T16:27:56Z</time>
      </trkpt>
      <trkpt lat="45.09107" lon="2.69732">
        <ele>1205.15</ele>
        <time>2021-08-15T16:27:59Z</time>
      </trkpt>
      <trkpt lat="45.09082" lon="2.69708">
        <ele>1204.19</ele>
        <time>2021-08-15T16:28:03Z</time>
      </trkpt>
      <trkpt lat="45.09075" lon="2.69706">
        <ele>1204.19</ele>
        <time>2021-08-15T16:28:04Z</time>
      </trkpt>
      <trkpt lat="45.09069" lon="2.69705">
        <ele>1204.19</ele>
        <time>2021-08-15T16:28:05Z</time>
      </trkpt>
      <trkpt lat="45.09064" lon="2.69707">
        <ele>1204.19</ele>
        <time>2021-08-15T16:28:06Z</time>
      </trkpt>
      <trkpt lat="45.09059" lon="2.69709">
        <ele>1206.11</ele>
        <time>2021-08-15T16:28:07Z</time>
      </trkpt>
      <trkpt lat="45.09056" lon="2.69711">
        <ele>1206.11</ele>
        <time>2021-08-15T16:28:08Z</time>
      </trkpt>
      <trkpt lat="45.09054" lon="2.69712">
        <ele>1206.59</ele>
        <time>2021-08-15T16:28:09Z</time>
      </trkpt>
      <trkpt lat="45.09052" lon="2.69714">
        <ele>1206.59</ele>
        <time>2021-08-15T16:28:10Z</time>
      </trkpt>
      <trkpt lat="45.09051" lon="2.69715">
        <ele>1206.59</ele>
        <time>2021-08-15T16:28:11Z</time>
      </trkpt>
      <trkpt lat="45.0905" lon="2.69717">
        <ele>1207.55</ele>
        <time>2021-08-15T16:28:12Z</time>
      </trkpt>
      <trkpt lat="45.09042" lon="2.69733">
        <ele>1208.51</ele>
        <time>2021-08-15T16:28:20Z</time>
      </trkpt>
      <trkpt lat="45.0904" lon="2.69745">
        <ele>1209</ele>
        <time>2021-08-15T16:28:24Z</time>
      </trkpt>
      <trkpt lat="45.09035" lon="2.69767">
        <ele>1209.96</ele>
        <time>2021-08-15T16:28:33Z</time>
      </trkpt>
      <trkpt lat="45.09033" lon="2.69787">
        <ele>1211.4</ele>
        <time>2021-08-15T16:28:41Z</time>
      </trkpt>
      <trkpt lat="45.09031" lon="2.69813">
        <ele>1212.36</ele>
        <time>2021-08-15T16:28:51Z</time>
      </trkpt>
      <trkpt lat="45.09029" lon="2.69832">
        <ele>1213.32</ele>
        <time>2021-08-15T16:28:59Z</time>
      </trkpt>
      <trkpt lat="45.09028" lon="2.69854">
        <ele>1214.76</ele>
        <time>2021-08-15T16:29:09Z</time>
      </trkpt>
      <trkpt lat="45.09027" lon="2.69856">
        <ele>1214.76</ele>
        <time>2021-08-15T16:29:10Z</time>
      </trkpt>
      <trkpt lat="45.09027" lon="2.69859">
        <ele>1214.76</ele>
        <time>2021-08-15T16:29:11Z</time>
      </trkpt>
      <trkpt lat="45.09027" lon="2.69861">
        <ele>1214.76</ele>
        <time>2021-08-15T16:29:12Z</time>
      </trkpt>
      <trkpt lat="45.09028" lon="2.69864">
        <ele>1215.24</ele>
        <time>2021-08-15T16:29:13Z</time>
      </trkpt>
      <trkpt lat="45.09027" lon="2.69866">
        <ele>1215.24</ele>
        <time>2021-08-15T16:29:14Z</time>
      </trkpt>
      <trkpt lat="45.09026" lon="2.69882">
        <ele>1216.21</ele>
        <time>2021-08-15T16:29:22Z</time>
      </trkpt>
      <trkpt lat="45.09026" lon="2.69884">
        <ele>1216.69</ele>
        <time>2021-08-15T16:29:23Z</time>
      </trkpt>
      <trkpt lat="45.09026" lon="2.69886">
        <ele>1216.69</ele>
        <time>2021-08-15T16:29:24Z</time>
      </trkpt>
      <trkpt lat="45.09025" lon="2.69899">
        <ele>1217.65</ele>
        <time>2021-08-15T16:29:30Z</time>
      </trkpt>
      <trkpt lat="45.09024" lon="2.69901">
        <ele>1217.65</ele>
        <time>2021-08-15T16:29:31Z</time>
      </trkpt>
      <trkpt lat="45.09024" lon="2.69903">
        <ele>1217.65</ele>
        <time>2021-08-15T16:29:32Z</time>
      </trkpt>
      <trkpt lat="45.09023" lon="2.69906">
        <ele>1217.65</ele>
        <time>2021-08-15T16:29:33Z</time>
      </trkpt>
      <trkpt lat="45.09023" lon="2.69908">
        <ele>1217.65</ele>
        <time>2021-08-15T16:29:34Z</time>
      </trkpt>
      <trkpt lat="45.09023" lon="2.69911">
        <ele>1218.13</ele>
        <time>2021-08-15T16:29:35Z</time>
      </trkpt>
      <trkpt lat="45.09022" lon="2.6993">
        <ele>1219.09</ele>
        <time>2021-08-15T16:29:43Z</time>
      </trkpt>
      <trkpt lat="45.0902" lon="2.69952">
        <ele>1220.05</ele>
        <time>2021-08-15T16:29:52Z</time>
      </trkpt>
      <trkpt lat="45.09019" lon="2.69965">
        <ele>1221.01</ele>
        <time>2021-08-15T16:29:59Z</time>
      </trkpt>
      <trkpt lat="45.09016" lon="2.69974">
        <ele>1221.49</ele>
        <time>2021-08-15T16:30:04Z</time>
      </trkpt>
      <trkpt lat="45.09008" lon="2.69993">
        <ele>1223.9</ele>
        <time>2021-08-15T16:30:15Z</time>
      </trkpt>
      <trkpt lat="45.09002" lon="2.70009">
        <ele>1225.34</ele>
        <time>2021-08-15T16:30:24Z</time>
      </trkpt>
      <trkpt lat="45.08998" lon="2.70027">
        <ele>1226.3</ele>
        <time>2021-08-15T16:30:32Z</time>
      </trkpt>
      <trkpt lat="45.08994" lon="2.70048">
        <ele>1227.74</ele>
        <time>2021-08-15T16:30:41Z</time>
      </trkpt>
      <trkpt lat="45.08992" lon="2.70064">
        <ele>1228.7</ele>
        <time>2021-08-15T16:30:48Z</time>
      </trkpt>
      <trkpt lat="45.08989" lon="2.70085">
        <ele>1230.14</ele>
        <time>2021-08-15T16:30:58Z</time>
      </trkpt>
      <trkpt lat="45.08989" lon="2.70104">
        <ele>1231.59</ele>
        <time>2021-08-15T16:31:06Z</time>
      </trkpt>
      <trkpt lat="45.08989" lon="2.70127">
        <ele>1231.59</ele>
        <time>2021-08-15T16:31:15Z</time>
      </trkpt>
      <trkpt lat="45.08989" lon="2.70141">
        <ele>1232.55</ele>
        <time>2021-08-15T16:31:23Z</time>
      </trkpt>
      <trkpt lat="45.08986" lon="2.70144">
        <ele>1233.51</ele>
        <time>2021-08-15T16:31:27Z</time>
      </trkpt>
      <trkpt lat="45.08985" lon="2.70146">
        <ele>1233.51</ele>
        <time>2021-08-15T16:31:28Z</time>
      </trkpt>
      <trkpt lat="45.08983" lon="2.70149">
        <ele>1233.51</ele>
        <time>2021-08-15T16:31:30Z</time>
      </trkpt>
      <trkpt lat="45.08982" lon="2.70151">
        <ele>1233.99</ele>
        <time>2021-08-15T16:31:31Z</time>
      </trkpt>
      <trkpt lat="45.08982" lon="2.70153">
        <ele>1233.99</ele>
        <time>2021-08-15T16:31:32Z</time>
      </trkpt>
      <trkpt lat="45.08975" lon="2.70167">
        <ele>1234.95</ele>
        <time>2021-08-15T16:31:38Z</time>
      </trkpt>
      <trkpt lat="45.08968" lon="2.70185">
        <ele>1235.91</ele>
        <time>2021-08-15T16:31:45Z</time>
      </trkpt>
      <trkpt lat="45.08965" lon="2.70198">
        <ele>1236.87</ele>
        <time>2021-08-15T16:31:52Z</time>
      </trkpt>
      <trkpt lat="45.08963" lon="2.70211">
        <ele>1238.32</ele>
        <time>2021-08-15T16:31:59Z</time>
      </trkpt>
      <trkpt lat="45.0896" lon="2.70228">
        <ele>1239.28</ele>
        <time>2021-08-15T16:32:08Z</time>
      </trkpt>
      <trkpt lat="45.08957" lon="2.70248">
        <ele>1239.76</ele>
        <time>2021-08-15T16:32:16Z</time>
      </trkpt>
      <trkpt lat="45.08951" lon="2.70273">
        <ele>1239.76</ele>
        <time>2021-08-15T16:32:24Z</time>
      </trkpt>
      <trkpt lat="45.08936" lon="2.703">
        <ele>1237.83</ele>
        <time>2021-08-15T16:32:30Z</time>
      </trkpt>
      <trkpt lat="45.08934" lon="2.70307">
        <ele>1237.83</ele>
        <time>2021-08-15T16:32:31Z</time>
      </trkpt>
      <trkpt lat="45.08921" lon="2.70353">
        <ele>1233.99</ele>
        <time>2021-08-15T16:32:37Z</time>
      </trkpt>
      <trkpt lat="45.08918" lon="2.7036">
        <ele>1233.51</ele>
        <time>2021-08-15T16:32:38Z</time>
      </trkpt>
      <trkpt lat="45.08914" lon="2.70366">
        <ele>1233.51</ele>
        <time>2021-08-15T16:32:39Z</time>
      </trkpt>
      <trkpt lat="45.0891" lon="2.70369">
        <ele>1233.51</ele>
        <time>2021-08-15T16:32:40Z</time>
      </trkpt>
      <trkpt lat="45.08906" lon="2.70369">
        <ele>1233.99</ele>
        <time>2021-08-15T16:32:41Z</time>
      </trkpt>
      <trkpt lat="45.08902" lon="2.70369">
        <ele>1233.99</ele>
        <time>2021-08-15T16:32:42Z</time>
      </trkpt>
      <trkpt lat="45.089" lon="2.70368">
        <ele>1233.99</ele>
        <time>2021-08-15T16:32:43Z</time>
      </trkpt>
      <trkpt lat="45.08897" lon="2.70366">
        <ele>1233.99</ele>
        <time>2021-08-15T16:32:44Z</time>
      </trkpt>
      <trkpt lat="45.08895" lon="2.70363">
        <ele>1233.99</ele>
        <time>2021-08-15T16:32:45Z</time>
      </trkpt>
      <trkpt lat="45.08894" lon="2.7036">
        <ele>1235.43</ele>
        <time>2021-08-15T16:32:46Z</time>
      </trkpt>
      <trkpt lat="45.08892" lon="2.70356">
        <ele>1235.43</ele>
        <time>2021-08-15T16:32:47Z</time>
      </trkpt>
      <trkpt lat="45.08879" lon="2.70334">
        <ele>1235.91</ele>
        <time>2021-08-15T16:32:53Z</time>
      </trkpt>
      <trkpt lat="45.08867" lon="2.70316">
        <ele>1235.91</ele>
        <time>2021-08-15T16:32:57Z</time>
      </trkpt>
      <trkpt lat="45.08851" lon="2.70285">
        <ele>1234.47</ele>
        <time>2021-08-15T16:33:02Z</time>
      </trkpt>
      <trkpt lat="45.08835" lon="2.70253">
        <ele>1232.55</ele>
        <time>2021-08-15T16:33:06Z</time>
      </trkpt>
      <trkpt lat="45.08832" lon="2.70247">
        <ele>1232.55</ele>
        <time>2021-08-15T16:33:07Z</time>
      </trkpt>
      <trkpt lat="45.08828" lon="2.7024">
        <ele>1232.55</ele>
        <time>2021-08-15T16:33:08Z</time>
      </trkpt>
      <trkpt lat="45.08824" lon="2.70234">
        <ele>1232.55</ele>
        <time>2021-08-15T16:33:09Z</time>
      </trkpt>
      <trkpt lat="45.08819" lon="2.70228">
        <ele>1232.55</ele>
        <time>2021-08-15T16:33:10Z</time>
      </trkpt>
      <trkpt lat="45.08813" lon="2.70224">
        <ele>1232.55</ele>
        <time>2021-08-15T16:33:11Z</time>
      </trkpt>
      <trkpt lat="45.08808" lon="2.7022">
        <ele>1232.07</ele>
        <time>2021-08-15T16:33:12Z</time>
      </trkpt>
      <trkpt lat="45.08803" lon="2.70214">
        <ele>1232.07</ele>
        <time>2021-08-15T16:33:13Z</time>
      </trkpt>
      <trkpt lat="45.08799" lon="2.70207">
        <ele>1231.11</ele>
        <time>2021-08-15T16:33:14Z</time>
      </trkpt>
      <trkpt lat="45.08797" lon="2.70199">
        <ele>1231.11</ele>
        <time>2021-08-15T16:33:15Z</time>
      </trkpt>
      <trkpt lat="45.08797" lon="2.7019">
        <ele>1231.11</ele>
        <time>2021-08-15T16:33:16Z</time>
      </trkpt>
      <trkpt lat="45.08798" lon="2.70184">
        <ele>1231.11</ele>
        <time>2021-08-15T16:33:17Z</time>
      </trkpt>
      <trkpt lat="45.088" lon="2.70174">
        <ele>1232.55</ele>
        <time>2021-08-15T16:33:19Z</time>
      </trkpt>
      <trkpt lat="45.08816" lon="2.70139">
        <ele>1233.51</ele>
        <time>2021-08-15T16:33:28Z</time>
      </trkpt>
      <trkpt lat="45.08827" lon="2.70101">
        <ele>1234.47</ele>
        <time>2021-08-15T16:33:36Z</time>
      </trkpt>
      <trkpt lat="45.08831" lon="2.70074">
        <ele>1235.43</ele>
        <time>2021-08-15T16:33:43Z</time>
      </trkpt>
      <trkpt lat="45.08834" lon="2.70046">
        <ele>1236.39</ele>
        <time>2021-08-15T16:33:51Z</time>
      </trkpt>
      <trkpt lat="45.08837" lon="2.70013">
        <ele>1237.35</ele>
        <time>2021-08-15T16:34:00Z</time>
      </trkpt>
      <trkpt lat="45.08835" lon="2.69984">
        <ele>1238.8</ele>
        <time>2021-08-15T16:34:08Z</time>
      </trkpt>
      <trkpt lat="45.08832" lon="2.69959">
        <ele>1239.28</ele>
        <time>2021-08-15T16:34:15Z</time>
      </trkpt>
      <trkpt lat="45.08828" lon="2.69936">
        <ele>1239.76</ele>
        <time>2021-08-15T16:34:22Z</time>
      </trkpt>
      <trkpt lat="45.08826" lon="2.69908">
        <ele>1241.2</ele>
        <time>2021-08-15T16:34:31Z</time>
      </trkpt>
      <trkpt lat="45.08818" lon="2.69887">
        <ele>1242.64</ele>
        <time>2021-08-15T16:34:41Z</time>
      </trkpt>
      <trkpt lat="45.08809" lon="2.69863">
        <ele>1243.12</ele>
        <time>2021-08-15T16:34:50Z</time>
      </trkpt>
      <trkpt lat="45.088" lon="2.69839">
        <ele>1244.56</ele>
        <time>2021-08-15T16:34:59Z</time>
      </trkpt>
      <trkpt lat="45.08789" lon="2.69818">
        <ele>1245.04</ele>
        <time>2021-08-15T16:35:08Z</time>
      </trkpt>
      <trkpt lat="45.08774" lon="2.69798">
        <ele>1246.01</ele>
        <time>2021-08-15T16:35:18Z</time>
      </trkpt>
      <trkpt lat="45.08759" lon="2.69782">
        <ele>1246.97</ele>
        <time>2021-08-15T16:35:26Z</time>
      </trkpt>
      <trkpt lat="45.08745" lon="2.69765">
        <ele>1247.93</ele>
        <time>2021-08-15T16:35:34Z</time>
      </trkpt>
      <trkpt lat="45.08726" lon="2.69749">
        <ele>1249.37</ele>
        <time>2021-08-15T16:35:44Z</time>
      </trkpt>
      <trkpt lat="45.08712" lon="2.69748">
        <ele>1250.33</ele>
        <time>2021-08-15T16:35:51Z</time>
      </trkpt>
      <trkpt lat="45.08694" lon="2.69741">
        <ele>1250.81</ele>
        <time>2021-08-15T16:35:58Z</time>
      </trkpt>
      <trkpt lat="45.08692" lon="2.69739">
        <ele>1251.29</ele>
        <time>2021-08-15T16:35:59Z</time>
      </trkpt>
      <trkpt lat="45.0869" lon="2.69736">
        <ele>1251.29</ele>
        <time>2021-08-15T16:36:00Z</time>
      </trkpt>
      <trkpt lat="45.08689" lon="2.69734">
        <ele>1251.29</ele>
        <time>2021-08-15T16:36:01Z</time>
      </trkpt>
      <trkpt lat="45.08689" lon="2.69731">
        <ele>1251.29</ele>
        <time>2021-08-15T16:36:02Z</time>
      </trkpt>
      <trkpt lat="45.08688" lon="2.69728">
        <ele>1251.29</ele>
        <time>2021-08-15T16:36:03Z</time>
      </trkpt>
      <trkpt lat="45.08688" lon="2.69725">
        <ele>1251.77</ele>
        <time>2021-08-15T16:36:04Z</time>
      </trkpt>
      <trkpt lat="45.08682" lon="2.69704">
        <ele>1253.22</ele>
        <time>2021-08-15T16:36:12Z</time>
      </trkpt>
      <trkpt lat="45.08671" lon="2.69686">
        <ele>1254.66</ele>
        <time>2021-08-15T16:36:20Z</time>
      </trkpt>
      <trkpt lat="45.08657" lon="2.69681">
        <ele>1255.62</ele>
        <time>2021-08-15T16:36:27Z</time>
      </trkpt>
      <trkpt lat="45.08637" lon="2.69682">
        <ele>1257.06</ele>
        <time>2021-08-15T16:36:37Z</time>
      </trkpt>
      <trkpt lat="45.08626" lon="2.69668">
        <ele>1257.54</ele>
        <time>2021-08-15T16:36:44Z</time>
      </trkpt>
      <trkpt lat="45.08629" lon="2.69647">
        <ele>1258.02</ele>
        <time>2021-08-15T16:36:51Z</time>
      </trkpt>
      <trkpt lat="45.08631" lon="2.69625">
        <ele>1258.98</ele>
        <time>2021-08-15T16:36:58Z</time>
      </trkpt>
      <trkpt lat="45.08631" lon="2.696">
        <ele>1259.94</ele>
        <time>2021-08-15T16:37:06Z</time>
      </trkpt>
      <trkpt lat="45.0863" lon="2.69574">
        <ele>1260.43</ele>
        <time>2021-08-15T16:37:14Z</time>
      </trkpt>
      <trkpt lat="45.08623" lon="2.69549">
        <ele>1261.39</ele>
        <time>2021-08-15T16:37:22Z</time>
      </trkpt>
      <trkpt lat="45.08613" lon="2.69531">
        <ele>1262.35</ele>
        <time>2021-08-15T16:37:29Z</time>
      </trkpt>
      <trkpt lat="45.08601" lon="2.69519">
        <ele>1263.31</ele>
        <time>2021-08-15T16:37:36Z</time>
      </trkpt>
      <trkpt lat="45.08584" lon="2.69521">
        <ele>1263.31</ele>
        <time>2021-08-15T16:37:43Z</time>
      </trkpt>
      <trkpt lat="45.08564" lon="2.6953">
        <ele>1264.27</ele>
        <time>2021-08-15T16:37:53Z</time>
      </trkpt>
      <trkpt lat="45.08551" lon="2.69534">
        <ele>1265.71</ele>
        <time>2021-08-15T16:38:00Z</time>
      </trkpt>
      <trkpt lat="45.0854" lon="2.69534">
        <ele>1266.19</ele>
        <time>2021-08-15T16:38:07Z</time>
      </trkpt>
      <trkpt lat="45.08535" lon="2.69532">
        <ele>1266.67</ele>
        <time>2021-08-15T16:38:11Z</time>
      </trkpt>
      <trkpt lat="45.08533" lon="2.69532">
        <ele>1266.67</ele>
        <time>2021-08-15T16:38:12Z</time>
      </trkpt>
      <trkpt lat="45.08532" lon="2.69532">
        <ele>1267.16</ele>
        <time>2021-08-15T16:38:13Z</time>
      </trkpt>
      <trkpt lat="45.0853" lon="2.69532">
        <ele>1267.16</ele>
        <time>2021-08-15T16:38:14Z</time>
      </trkpt>
      <trkpt lat="45.08528" lon="2.69532">
        <ele>1267.16</ele>
        <time>2021-08-15T16:38:15Z</time>
      </trkpt>
      <trkpt lat="45.08513" lon="2.69529">
        <ele>1268.12</ele>
        <time>2021-08-15T16:38:23Z</time>
      </trkpt>
      <trkpt lat="45.08495" lon="2.69526">
        <ele>1269.56</ele>
        <time>2021-08-15T16:38:32Z</time>
      </trkpt>
      <trkpt lat="45.0848" lon="2.69529">
        <ele>1270.52</ele>
        <time>2021-08-15T16:38:41Z</time>
      </trkpt>
      <trkpt lat="45.08467" lon="2.69537">
        <ele>1271.96</ele>
        <time>2021-08-15T16:38:50Z</time>
      </trkpt>
      <trkpt lat="45.08456" lon="2.69542">
        <ele>1271.96</ele>
        <time>2021-08-15T16:38:57Z</time>
      </trkpt>
      <trkpt lat="45.08442" lon="2.69538">
        <ele>1272.44</ele>
        <time>2021-08-15T16:39:03Z</time>
      </trkpt>
      <trkpt lat="45.08429" lon="2.69521">
        <ele>1272.92</ele>
        <time>2021-08-15T16:39:10Z</time>
      </trkpt>
      <trkpt lat="45.08422" lon="2.69502">
        <ele>1273.4</ele>
        <time>2021-08-15T16:39:16Z</time>
      </trkpt>
      <trkpt lat="45.08409" lon="2.69481">
        <ele>1273.4</ele>
        <time>2021-08-15T16:39:23Z</time>
      </trkpt>
      <trkpt lat="45.08393" lon="2.69453">
        <ele>1271.48</ele>
        <time>2021-08-15T16:39:29Z</time>
      </trkpt>
      <trkpt lat="45.08389" lon="2.69447">
        <ele>1271</ele>
        <time>2021-08-15T16:39:30Z</time>
      </trkpt>
      <trkpt lat="45.08381" lon="2.69435">
        <ele>1270.52</ele>
        <time>2021-08-15T16:39:32Z</time>
      </trkpt>
      <trkpt lat="45.08377" lon="2.69428">
        <ele>1270.04</ele>
        <time>2021-08-15T16:39:33Z</time>
      </trkpt>
      <trkpt lat="45.08372" lon="2.6942">
        <ele>1269.56</ele>
        <time>2021-08-15T16:39:34Z</time>
      </trkpt>
      <trkpt lat="45.08368" lon="2.69412">
        <ele>1269.56</ele>
        <time>2021-08-15T16:39:35Z</time>
      </trkpt>
      <trkpt lat="45.08365" lon="2.69403">
        <ele>1268.6</ele>
        <time>2021-08-15T16:39:36Z</time>
      </trkpt>
      <trkpt lat="45.08362" lon="2.69394">
        <ele>1268.12</ele>
        <time>2021-08-15T16:39:37Z</time>
      </trkpt>
      <trkpt lat="45.08358" lon="2.69386">
        <ele>1267.64</ele>
        <time>2021-08-15T16:39:38Z</time>
      </trkpt>
      <trkpt lat="45.08353" lon="2.69378">
        <ele>1267.16</ele>
        <time>2021-08-15T16:39:39Z</time>
      </trkpt>
      <trkpt lat="45.08348" lon="2.69371">
        <ele>1266.67</ele>
        <time>2021-08-15T16:39:40Z</time>
      </trkpt>
      <trkpt lat="45.08343" lon="2.69366">
        <ele>1265.23</ele>
        <time>2021-08-15T16:39:41Z</time>
      </trkpt>
      <trkpt lat="45.08336" lon="2.69361">
        <ele>1265.23</ele>
        <time>2021-08-15T16:39:42Z</time>
      </trkpt>
      <trkpt lat="45.0833" lon="2.69359">
        <ele>1264.27</ele>
        <time>2021-08-15T16:39:43Z</time>
      </trkpt>
      <trkpt lat="45.08322" lon="2.69357">
        <ele>1263.79</ele>
        <time>2021-08-15T16:39:44Z</time>
      </trkpt>
      <trkpt lat="45.08315" lon="2.69356">
        <ele>1263.31</ele>
        <time>2021-08-15T16:39:45Z</time>
      </trkpt>
      <trkpt lat="45.08308" lon="2.69356">
        <ele>1262.83</ele>
        <time>2021-08-15T16:39:46Z</time>
      </trkpt>
      <trkpt lat="45.083" lon="2.69356">
        <ele>1261.87</ele>
        <time>2021-08-15T16:39:47Z</time>
      </trkpt>
      <trkpt lat="45.08282" lon="2.69355">
        <ele>1260.91</ele>
        <time>2021-08-15T16:39:49Z</time>
      </trkpt>
      <trkpt lat="45.0826" lon="2.69353">
        <ele>1259.46</ele>
        <time>2021-08-15T16:39:52Z</time>
      </trkpt>
      <trkpt lat="45.08252" lon="2.69354">
        <ele>1258.98</ele>
        <time>2021-08-15T16:39:53Z</time>
      </trkpt>
      <trkpt lat="45.08243" lon="2.69357">
        <ele>1258.5</ele>
        <time>2021-08-15T16:39:54Z</time>
      </trkpt>
      <trkpt lat="45.08227" lon="2.69364">
        <ele>1257.54</ele>
        <time>2021-08-15T16:39:56Z</time>
      </trkpt>
      <trkpt lat="45.0818" lon="2.69388">
        <ele>1256.1</ele>
        <time>2021-08-15T16:40:02Z</time>
      </trkpt>
      <trkpt lat="45.08157" lon="2.69398">
        <ele>1254.66</ele>
        <time>2021-08-15T16:40:05Z</time>
      </trkpt>
      <trkpt lat="45.08122" lon="2.69403">
        <ele>1250.81</ele>
        <time>2021-08-15T16:40:09Z</time>
      </trkpt>
      <trkpt lat="45.08086" lon="2.69405">
        <ele>1248.41</ele>
        <time>2021-08-15T16:40:13Z</time>
      </trkpt>
      <trkpt lat="45.08068" lon="2.69407">
        <ele>1247.45</ele>
        <time>2021-08-15T16:40:15Z</time>
      </trkpt>
      <trkpt lat="45.08061" lon="2.6941">
        <ele>1246.49</ele>
        <time>2021-08-15T16:40:16Z</time>
      </trkpt>
      <trkpt lat="45.08053" lon="2.69414">
        <ele>1246.49</ele>
        <time>2021-08-15T16:40:17Z</time>
      </trkpt>
      <trkpt lat="45.08046" lon="2.6942">
        <ele>1246.01</ele>
        <time>2021-08-15T16:40:18Z</time>
      </trkpt>
      <trkpt lat="45.0804" lon="2.69426">
        <ele>1245.04</ele>
        <time>2021-08-15T16:40:19Z</time>
      </trkpt>
      <trkpt lat="45.08035" lon="2.69434">
        <ele>1244.08</ele>
        <time>2021-08-15T16:40:20Z</time>
      </trkpt>
      <trkpt lat="45.0803" lon="2.69442">
        <ele>1244.08</ele>
        <time>2021-08-15T16:40:21Z</time>
      </trkpt>
      <trkpt lat="45.08026" lon="2.69451">
        <ele>1243.12</ele>
        <time>2021-08-15T16:40:22Z</time>
      </trkpt>
      <trkpt lat="45.08024" lon="2.6946">
        <ele>1242.64</ele>
        <time>2021-08-15T16:40:23Z</time>
      </trkpt>
      <trkpt lat="45.08022" lon="2.69471">
        <ele>1242.16</ele>
        <time>2021-08-15T16:40:24Z</time>
      </trkpt>
      <trkpt lat="45.08022" lon="2.6948">
        <ele>1241.68</ele>
        <time>2021-08-15T16:40:25Z</time>
      </trkpt>
      <trkpt lat="45.08021" lon="2.6949">
        <ele>1240.72</ele>
        <time>2021-08-15T16:40:26Z</time>
      </trkpt>
      <trkpt lat="45.0802" lon="2.695">
        <ele>1241.2</ele>
        <time>2021-08-15T16:40:27Z</time>
      </trkpt>
      <trkpt lat="45.08018" lon="2.69508">
        <ele>1240.24</ele>
        <time>2021-08-15T16:40:28Z</time>
      </trkpt>
      <trkpt lat="45.08015" lon="2.69516">
        <ele>1239.76</ele>
        <time>2021-08-15T16:40:29Z</time>
      </trkpt>
      <trkpt lat="45.0801" lon="2.69521">
        <ele>1239.76</ele>
        <time>2021-08-15T16:40:30Z</time>
      </trkpt>
      <trkpt lat="45.08006" lon="2.69523">
        <ele>1239.28</ele>
        <time>2021-08-15T16:40:31Z</time>
      </trkpt>
      <trkpt lat="45.08001" lon="2.69524">
        <ele>1239.76</ele>
        <time>2021-08-15T16:40:32Z</time>
      </trkpt>
      <trkpt lat="45.07996" lon="2.69522">
        <ele>1239.76</ele>
        <time>2021-08-15T16:40:33Z</time>
      </trkpt>
      <trkpt lat="45.07991" lon="2.6952">
        <ele>1239.76</ele>
        <time>2021-08-15T16:40:34Z</time>
      </trkpt>
      <trkpt lat="45.07988" lon="2.69516">
        <ele>1239.76</ele>
        <time>2021-08-15T16:40:35Z</time>
      </trkpt>
      <trkpt lat="45.07985" lon="2.69514">
        <ele>1239.76</ele>
        <time>2021-08-15T16:40:36Z</time>
      </trkpt>
      <trkpt lat="45.07982" lon="2.69511">
        <ele>1239.76</ele>
        <time>2021-08-15T16:40:37Z</time>
      </trkpt>
      <trkpt lat="45.07973" lon="2.6949">
        <ele>1239.76</ele>
        <time>2021-08-15T16:40:42Z</time>
      </trkpt>
      <trkpt lat="45.07971" lon="2.69468">
        <ele>1238.32</ele>
        <time>2021-08-15T16:40:47Z</time>
      </trkpt>
      <trkpt lat="45.0797" lon="2.6946">
        <ele>1238.32</ele>
        <time>2021-08-15T16:40:49Z</time>
      </trkpt>
      <trkpt lat="45.0797" lon="2.69456">
        <ele>1237.83</ele>
        <time>2021-08-15T16:40:50Z</time>
      </trkpt>
      <trkpt lat="45.07969" lon="2.69453">
        <ele>1237.83</ele>
        <time>2021-08-15T16:40:51Z</time>
      </trkpt>
      <trkpt lat="45.07967" lon="2.6945">
        <ele>1237.35</ele>
        <time>2021-08-15T16:40:52Z</time>
      </trkpt>
      <trkpt lat="45.07966" lon="2.69447">
        <ele>1237.35</ele>
        <time>2021-08-15T16:40:53Z</time>
      </trkpt>
      <trkpt lat="45.07963" lon="2.69444">
        <ele>1237.35</ele>
        <time>2021-08-15T16:40:54Z</time>
      </trkpt>
      <trkpt lat="45.07959" lon="2.6944">
        <ele>1236.39</ele>
        <time>2021-08-15T16:40:55Z</time>
      </trkpt>
      <trkpt lat="45.07955" lon="2.69437">
        <ele>1235.43</ele>
        <time>2021-08-15T16:40:56Z</time>
      </trkpt>
      <trkpt lat="45.0795" lon="2.69435">
        <ele>1234.95</ele>
        <time>2021-08-15T16:40:57Z</time>
      </trkpt>
      <trkpt lat="45.07939" lon="2.69432">
        <ele>1233.51</ele>
        <time>2021-08-15T16:40:59Z</time>
      </trkpt>
      <trkpt lat="45.07933" lon="2.69432">
        <ele>1232.55</ele>
        <time>2021-08-15T16:41:00Z</time>
      </trkpt>
      <trkpt lat="45.07926" lon="2.69433">
        <ele>1232.07</ele>
        <time>2021-08-15T16:41:01Z</time>
      </trkpt>
      <trkpt lat="45.0792" lon="2.69435">
        <ele>1231.11</ele>
        <time>2021-08-15T16:41:02Z</time>
      </trkpt>
      <trkpt lat="45.07915" lon="2.69437">
        <ele>1230.62</ele>
        <time>2021-08-15T16:41:03Z</time>
      </trkpt>
      <trkpt lat="45.07909" lon="2.6944">
        <ele>1230.14</ele>
        <time>2021-08-15T16:41:04Z</time>
      </trkpt>
      <trkpt lat="45.07893" lon="2.69451">
        <ele>1227.74</ele>
        <time>2021-08-15T16:41:07Z</time>
      </trkpt>
      <trkpt lat="45.07882" lon="2.69456">
        <ele>1226.78</ele>
        <time>2021-08-15T16:41:09Z</time>
      </trkpt>
      <trkpt lat="45.07876" lon="2.69458">
        <ele>1226.78</ele>
        <time>2021-08-15T16:41:10Z</time>
      </trkpt>
      <trkpt lat="45.0787" lon="2.6946">
        <ele>1225.34</ele>
        <time>2021-08-15T16:41:11Z</time>
      </trkpt>
      <trkpt lat="45.07851" lon="2.69463">
        <ele>1223.9</ele>
        <time>2021-08-15T16:41:14Z</time>
      </trkpt>
      <trkpt lat="45.07844" lon="2.69463">
        <ele>1223.42</ele>
        <time>2021-08-15T16:41:15Z</time>
      </trkpt>
      <trkpt lat="45.07837" lon="2.69462">
        <ele>1222.93</ele>
        <time>2021-08-15T16:41:16Z</time>
      </trkpt>
      <trkpt lat="45.0783" lon="2.69462">
        <ele>1222.45</ele>
        <time>2021-08-15T16:41:17Z</time>
      </trkpt>
      <trkpt lat="45.07824" lon="2.69461">
        <ele>1222.45</ele>
        <time>2021-08-15T16:41:18Z</time>
      </trkpt>
      <trkpt lat="45.07798" lon="2.69457">
        <ele>1219.57</ele>
        <time>2021-08-15T16:41:22Z</time>
      </trkpt>
      <trkpt lat="45.07794" lon="2.69453">
        <ele>1219.57</ele>
        <time>2021-08-15T16:41:23Z</time>
      </trkpt>
      <trkpt lat="45.0779" lon="2.69448">
        <ele>1219.57</ele>
        <time>2021-08-15T16:41:24Z</time>
      </trkpt>
      <trkpt lat="45.07786" lon="2.69437">
        <ele>1219.09</ele>
        <time>2021-08-15T16:41:26Z</time>
      </trkpt>
      <trkpt lat="45.07786" lon="2.69431">
        <ele>1218.61</ele>
        <time>2021-08-15T16:41:27Z</time>
      </trkpt>
      <trkpt lat="45.07786" lon="2.69425">
        <ele>1218.61</ele>
        <time>2021-08-15T16:41:28Z</time>
      </trkpt>
      <trkpt lat="45.07786" lon="2.69419">
        <ele>1218.61</ele>
        <time>2021-08-15T16:41:29Z</time>
      </trkpt>
      <trkpt lat="45.07787" lon="2.69413">
        <ele>1218.13</ele>
        <time>2021-08-15T16:41:30Z</time>
      </trkpt>
      <trkpt lat="45.07789" lon="2.69409">
        <ele>1218.13</ele>
        <time>2021-08-15T16:41:31Z</time>
      </trkpt>
      <trkpt lat="45.07792" lon="2.69405">
        <ele>1218.13</ele>
        <time>2021-08-15T16:41:32Z</time>
      </trkpt>
      <trkpt lat="45.07794" lon="2.69402">
        <ele>1218.13</ele>
        <time>2021-08-15T16:41:33Z</time>
      </trkpt>
      <trkpt lat="45.07796" lon="2.694">
        <ele>1218.13</ele>
        <time>2021-08-15T16:41:34Z</time>
      </trkpt>
      <trkpt lat="45.07797" lon="2.69398">
        <ele>1218.13</ele>
        <time>2021-08-15T16:41:39Z</time>
      </trkpt>
      <trkpt lat="45.07802" lon="2.6939">
        <ele>1217.65</ele>
        <time>2021-08-15T16:41:52Z</time>
      </trkpt>
      <trkpt lat="45.07818" lon="2.69366">
        <ele>1216.21</ele>
        <time>2021-08-15T16:41:58Z</time>
      </trkpt>
      <trkpt lat="45.07841" lon="2.69338">
        <ele>1213.8</ele>
        <time>2021-08-15T16:42:03Z</time>
      </trkpt>
      <trkpt lat="45.07845" lon="2.69331">
        <ele>1212.84</ele>
        <time>2021-08-15T16:42:04Z</time>
      </trkpt>
      <trkpt lat="45.07853" lon="2.69315">
        <ele>1211.88</ele>
        <time>2021-08-15T16:42:06Z</time>
      </trkpt>
      <trkpt lat="45.07865" lon="2.69291">
        <ele>1209.48</ele>
        <time>2021-08-15T16:42:09Z</time>
      </trkpt>
      <trkpt lat="45.0787" lon="2.69284">
        <ele>1208.51</ele>
        <time>2021-08-15T16:42:10Z</time>
      </trkpt>
      <trkpt lat="45.07896" lon="2.69244">
        <ele>1205.15</ele>
        <time>2021-08-15T16:42:16Z</time>
      </trkpt>
      <trkpt lat="45.079" lon="2.69238">
        <ele>1204.19</ele>
        <time>2021-08-15T16:42:17Z</time>
      </trkpt>
      <trkpt lat="45.07904" lon="2.69229">
        <ele>1203.23</ele>
        <time>2021-08-15T16:42:18Z</time>
      </trkpt>
      <trkpt lat="45.07913" lon="2.6921">
        <ele>1201.79</ele>
        <time>2021-08-15T16:42:20Z</time>
      </trkpt>
      <trkpt lat="45.07919" lon="2.6919">
        <ele>1199.86</ele>
        <time>2021-08-15T16:42:22Z</time>
      </trkpt>
      <trkpt lat="45.07925" lon="2.69128">
        <ele>1196.5</ele>
        <time>2021-08-15T16:42:27Z</time>
      </trkpt>
      <trkpt lat="45.07926" lon="2.69114">
        <ele>1195.54</ele>
        <time>2021-08-15T16:42:28Z</time>
      </trkpt>
      <trkpt lat="45.0793" lon="2.69081">
        <ele>1195.06</ele>
        <time>2021-08-15T16:42:31Z</time>
      </trkpt>
      <trkpt lat="45.07929" lon="2.69072">
        <ele>1194.09</ele>
        <time>2021-08-15T16:42:32Z</time>
      </trkpt>
      <trkpt lat="45.07926" lon="2.69064">
        <ele>1194.58</ele>
        <time>2021-08-15T16:42:33Z</time>
      </trkpt>
      <trkpt lat="45.07922" lon="2.69058">
        <ele>1194.09</ele>
        <time>2021-08-15T16:42:34Z</time>
      </trkpt>
      <trkpt lat="45.07917" lon="2.69054">
        <ele>1193.61</ele>
        <time>2021-08-15T16:42:35Z</time>
      </trkpt>
      <trkpt lat="45.07911" lon="2.6905">
        <ele>1193.13</ele>
        <time>2021-08-15T16:42:36Z</time>
      </trkpt>
      <trkpt lat="45.07907" lon="2.69045">
        <ele>1192.17</ele>
        <time>2021-08-15T16:42:37Z</time>
      </trkpt>
      <trkpt lat="45.07906" lon="2.69039">
        <ele>1192.17</ele>
        <time>2021-08-15T16:42:38Z</time>
      </trkpt>
      <trkpt lat="45.07907" lon="2.69033">
        <ele>1192.17</ele>
        <time>2021-08-15T16:42:39Z</time>
      </trkpt>
      <trkpt lat="45.0791" lon="2.69028">
        <ele>1191.69</ele>
        <time>2021-08-15T16:42:40Z</time>
      </trkpt>
      <trkpt lat="45.07913" lon="2.69024">
        <ele>1191.69</ele>
        <time>2021-08-15T16:42:41Z</time>
      </trkpt>
      <trkpt lat="45.07916" lon="2.69019">
        <ele>1191.69</ele>
        <time>2021-08-15T16:42:42Z</time>
      </trkpt>
      <trkpt lat="45.0792" lon="2.69016">
        <ele>1191.21</ele>
        <time>2021-08-15T16:42:43Z</time>
      </trkpt>
      <trkpt lat="45.07924" lon="2.69013">
        <ele>1191.21</ele>
        <time>2021-08-15T16:42:44Z</time>
      </trkpt>
      <trkpt lat="45.07929" lon="2.69008">
        <ele>1190.73</ele>
        <time>2021-08-15T16:42:45Z</time>
      </trkpt>
      <trkpt lat="45.07932" lon="2.69002">
        <ele>1190.73</ele>
        <time>2021-08-15T16:42:46Z</time>
      </trkpt>
      <trkpt lat="45.07934" lon="2.68993">
        <ele>1189.29</ele>
        <time>2021-08-15T16:42:47Z</time>
      </trkpt>
      <trkpt lat="45.07937" lon="2.68964">
        <ele>1186.4</ele>
        <time>2021-08-15T16:42:50Z</time>
      </trkpt>
      <trkpt lat="45.07937" lon="2.68928">
        <ele>1183.04</ele>
        <time>2021-08-15T16:42:53Z</time>
      </trkpt>
      <trkpt lat="45.07937" lon="2.68918">
        <ele>1182.08</ele>
        <time>2021-08-15T16:42:54Z</time>
      </trkpt>
      <trkpt lat="45.07935" lon="2.68898">
        <ele>1180.16</ele>
        <time>2021-08-15T16:42:56Z</time>
      </trkpt>
      <trkpt lat="45.07936" lon="2.68887">
        <ele>1179.67</ele>
        <time>2021-08-15T16:42:57Z</time>
      </trkpt>
      <trkpt lat="45.07938" lon="2.68877">
        <ele>1179.67</ele>
        <time>2021-08-15T16:42:58Z</time>
      </trkpt>
      <trkpt lat="45.0794" lon="2.68867">
        <ele>1179.67</ele>
        <time>2021-08-15T16:42:59Z</time>
      </trkpt>
      <trkpt lat="45.07941" lon="2.68856">
        <ele>1178.23</ele>
        <time>2021-08-15T16:43:00Z</time>
      </trkpt>
      <trkpt lat="45.07941" lon="2.68778">
        <ele>1175.83</ele>
        <time>2021-08-15T16:43:07Z</time>
      </trkpt>
      <trkpt lat="45.07941" lon="2.68766">
        <ele>1175.35</ele>
        <time>2021-08-15T16:43:08Z</time>
      </trkpt>
      <trkpt lat="45.07944" lon="2.68709">
        <ele>1171.5</ele>
        <time>2021-08-15T16:43:13Z</time>
      </trkpt>
      <trkpt lat="45.07951" lon="2.68654">
        <ele>1170.06</ele>
        <time>2021-08-15T16:43:19Z</time>
      </trkpt>
      <trkpt lat="45.07946" lon="2.6864">
        <ele>1169.58</ele>
        <time>2021-08-15T16:43:23Z</time>
      </trkpt>
      <trkpt lat="45.07942" lon="2.68634">
        <ele>1171.02</ele>
        <time>2021-08-15T16:43:27Z</time>
      </trkpt>
      <trkpt lat="45.07936" lon="2.68619">
        <ele>1171.98</ele>
        <time>2021-08-15T16:43:36Z</time>
      </trkpt>
      <trkpt lat="45.0793" lon="2.68605">
        <ele>1173.43</ele>
        <time>2021-08-15T16:43:44Z</time>
      </trkpt>
      <trkpt lat="45.0792" lon="2.68594">
        <ele>1173.91</ele>
        <time>2021-08-15T16:43:53Z</time>
      </trkpt>
      <trkpt lat="45.07909" lon="2.68582">
        <ele>1174.87</ele>
        <time>2021-08-15T16:44:02Z</time>
      </trkpt>
      <trkpt lat="45.07905" lon="2.68575">
        <ele>1175.83</ele>
        <time>2021-08-15T16:44:07Z</time>
      </trkpt>
      <trkpt lat="45.07905" lon="2.68574">
        <ele>1175.35</ele>
        <time>2021-08-15T16:44:08Z</time>
      </trkpt>
      <trkpt lat="45.07902" lon="2.68558">
        <ele>1177.27</ele>
        <time>2021-08-15T16:44:16Z</time>
      </trkpt>
      <trkpt lat="45.07896" lon="2.68541">
        <ele>1178.23</ele>
        <time>2021-08-15T16:44:24Z</time>
      </trkpt>
      <trkpt lat="45.07888" lon="2.68524">
        <ele>1178.71</ele>
        <time>2021-08-15T16:44:32Z</time>
      </trkpt>
      <trkpt lat="45.07885" lon="2.68513">
        <ele>1179.67</ele>
        <time>2021-08-15T16:44:38Z</time>
      </trkpt>
      <trkpt lat="45.07879" lon="2.68498">
        <ele>1180.16</ele>
        <time>2021-08-15T16:44:47Z</time>
      </trkpt>
      <trkpt lat="45.07872" lon="2.68489">
        <ele>1181.6</ele>
        <time>2021-08-15T16:44:55Z</time>
      </trkpt>
      <trkpt lat="45.07864" lon="2.68477">
        <ele>1181.6</ele>
        <time>2021-08-15T16:45:03Z</time>
      </trkpt>
      <trkpt lat="45.07855" lon="2.6847">
        <ele>1183.04</ele>
        <time>2021-08-15T16:45:11Z</time>
      </trkpt>
      <trkpt lat="45.07843" lon="2.68469">
        <ele>1184.48</ele>
        <time>2021-08-15T16:45:19Z</time>
      </trkpt>
      <trkpt lat="45.07828" lon="2.68473">
        <ele>1185.44</ele>
        <time>2021-08-15T16:45:28Z</time>
      </trkpt>
      <trkpt lat="45.0782" lon="2.68475">
        <ele>1185.92</ele>
        <time>2021-08-15T16:45:35Z</time>
      </trkpt>
      <trkpt lat="45.07811" lon="2.68472">
        <ele>1186.4</ele>
        <time>2021-08-15T16:45:41Z</time>
      </trkpt>
      <trkpt lat="45.0781" lon="2.68472">
        <ele>1186.4</ele>
        <time>2021-08-15T16:45:42Z</time>
      </trkpt>
      <trkpt lat="45.07806" lon="2.68468">
        <ele>1186.88</ele>
        <time>2021-08-15T16:45:46Z</time>
      </trkpt>
      <trkpt lat="45.07806" lon="2.68467">
        <ele>1186.88</ele>
        <time>2021-08-15T16:45:47Z</time>
      </trkpt>
      <trkpt lat="45.07803" lon="2.68463">
        <ele>1187.37</ele>
        <time>2021-08-15T16:45:50Z</time>
      </trkpt>
      <trkpt lat="45.07803" lon="2.68461">
        <ele>1187.37</ele>
        <time>2021-08-15T16:45:51Z</time>
      </trkpt>
      <trkpt lat="45.078" lon="2.6845">
        <ele>1188.81</ele>
        <time>2021-08-15T16:45:59Z</time>
      </trkpt>
      <trkpt lat="45.07798" lon="2.68438">
        <ele>1189.29</ele>
        <time>2021-08-15T16:46:07Z</time>
      </trkpt>
      <trkpt lat="45.07796" lon="2.68427">
        <ele>1191.21</ele>
        <time>2021-08-15T16:46:15Z</time>
      </trkpt>
      <trkpt lat="45.07796" lon="2.68426">
        <ele>1191.21</ele>
        <time>2021-08-15T16:46:16Z</time>
      </trkpt>
      <trkpt lat="45.07795" lon="2.68421">
        <ele>1191.69</ele>
        <time>2021-08-15T16:46:20Z</time>
      </trkpt>
      <trkpt lat="45.07792" lon="2.68405">
        <ele>1192.65</ele>
        <time>2021-08-15T16:46:30Z</time>
      </trkpt>
      <trkpt lat="45.07789" lon="2.68393">
        <ele>1193.61</ele>
        <time>2021-08-15T16:46:40Z</time>
      </trkpt>
      <trkpt lat="45.07786" lon="2.6838">
        <ele>1194.09</ele>
        <time>2021-08-15T16:46:49Z</time>
      </trkpt>
      <trkpt lat="45.07787" lon="2.68367">
        <ele>1195.54</ele>
        <time>2021-08-15T16:46:59Z</time>
      </trkpt>
      <trkpt lat="45.07787" lon="2.68363">
        <ele>1195.54</ele>
        <time>2021-08-15T16:47:02Z</time>
      </trkpt>
      <trkpt lat="45.07787" lon="2.68361">
        <ele>1195.54</ele>
        <time>2021-08-15T16:47:03Z</time>
      </trkpt>
      <trkpt lat="45.07787" lon="2.68359">
        <ele>1195.54</ele>
        <time>2021-08-15T16:47:04Z</time>
      </trkpt>
      <trkpt lat="45.07787" lon="2.68357">
        <ele>1195.54</ele>
        <time>2021-08-15T16:47:05Z</time>
      </trkpt>
      <trkpt lat="45.07787" lon="2.68354">
        <ele>1195.54</ele>
        <time>2021-08-15T16:47:06Z</time>
      </trkpt>
      <trkpt lat="45.07787" lon="2.68352">
        <ele>1196.5</ele>
        <time>2021-08-15T16:47:07Z</time>
      </trkpt>
      <trkpt lat="45.07787" lon="2.6835">
        <ele>1196.02</ele>
        <time>2021-08-15T16:47:08Z</time>
      </trkpt>
      <trkpt lat="45.07787" lon="2.68348">
        <ele>1196.5</ele>
        <time>2021-08-15T16:47:09Z</time>
      </trkpt>
      <trkpt lat="45.07787" lon="2.68346">
        <ele>1196.5</ele>
        <time>2021-08-15T16:47:10Z</time>
      </trkpt>
      <trkpt lat="45.07788" lon="2.68345">
        <ele>1196.5</ele>
        <time>2021-08-15T16:47:11Z</time>
      </trkpt>
      <trkpt lat="45.07789" lon="2.68341">
        <ele>1196.5</ele>
        <time>2021-08-15T16:47:13Z</time>
      </trkpt>
      <trkpt lat="45.07793" lon="2.68325">
        <ele>1197.46</ele>
        <time>2021-08-15T16:47:21Z</time>
      </trkpt>
      <trkpt lat="45.07798" lon="2.68308">
        <ele>1198.42</ele>
        <time>2021-08-15T16:47:28Z</time>
      </trkpt>
      <trkpt lat="45.078" lon="2.68297">
        <ele>1198.9</ele>
        <time>2021-08-15T16:47:33Z</time>
      </trkpt>
      <trkpt lat="45.07805" lon="2.6828">
        <ele>1199.38</ele>
        <time>2021-08-15T16:47:40Z</time>
      </trkpt>
      <trkpt lat="45.07811" lon="2.6826">
        <ele>1200.34</ele>
        <time>2021-08-15T16:47:49Z</time>
      </trkpt>
      <trkpt lat="45.07812" lon="2.68245">
        <ele>1201.79</ele>
        <time>2021-08-15T16:47:57Z</time>
      </trkpt>
      <trkpt lat="45.07811" lon="2.68228">
        <ele>1203.23</ele>
        <time>2021-08-15T16:48:07Z</time>
      </trkpt>
      <trkpt lat="45.07809" lon="2.68217">
        <ele>1203.71</ele>
        <time>2021-08-15T16:48:14Z</time>
      </trkpt>
      <trkpt lat="45.07808" lon="2.68203">
        <ele>1204.67</ele>
        <time>2021-08-15T16:48:22Z</time>
      </trkpt>
      <trkpt lat="45.07804" lon="2.68189">
        <ele>1205.15</ele>
        <time>2021-08-15T16:48:28Z</time>
      </trkpt>
      <trkpt lat="45.07801" lon="2.68176">
        <ele>1206.11</ele>
        <time>2021-08-15T16:48:35Z</time>
      </trkpt>
      <trkpt lat="45.07796" lon="2.68153">
        <ele>1207.07</ele>
        <time>2021-08-15T16:48:44Z</time>
      </trkpt>
      <trkpt lat="45.07794" lon="2.68141">
        <ele>1207.55</ele>
        <time>2021-08-15T16:48:50Z</time>
      </trkpt>
      <trkpt lat="45.0779" lon="2.68121">
        <ele>1208.51</ele>
        <time>2021-08-15T16:48:58Z</time>
      </trkpt>
      <trkpt lat="45.07789" lon="2.68119">
        <ele>1208.51</ele>
        <time>2021-08-15T16:48:59Z</time>
      </trkpt>
      <trkpt lat="45.07782" lon="2.68098">
        <ele>1209.96</ele>
        <time>2021-08-15T16:49:08Z</time>
      </trkpt>
      <trkpt lat="45.07774" lon="2.68084">
        <ele>1210.92</ele>
        <time>2021-08-15T16:49:17Z</time>
      </trkpt>
      <trkpt lat="45.07761" lon="2.68069">
        <ele>1212.84</ele>
        <time>2021-08-15T16:49:29Z</time>
      </trkpt>
      <trkpt lat="45.07751" lon="2.6806">
        <ele>1213.8</ele>
        <time>2021-08-15T16:49:38Z</time>
      </trkpt>
      <trkpt lat="45.0774" lon="2.68057">
        <ele>1214.76</ele>
        <time>2021-08-15T16:49:46Z</time>
      </trkpt>
      <trkpt lat="45.07725" lon="2.68064">
        <ele>1215.72</ele>
        <time>2021-08-15T16:49:55Z</time>
      </trkpt>
      <trkpt lat="45.07713" lon="2.6807">
        <ele>1216.69</ele>
        <time>2021-08-15T16:50:04Z</time>
      </trkpt>
      <trkpt lat="45.07702" lon="2.68071">
        <ele>1217.65</ele>
        <time>2021-08-15T16:50:12Z</time>
      </trkpt>
      <trkpt lat="45.07692" lon="2.68068">
        <ele>1219.09</ele>
        <time>2021-08-15T16:50:22Z</time>
      </trkpt>
      <trkpt lat="45.07685" lon="2.68065">
        <ele>1219.57</ele>
        <time>2021-08-15T16:50:29Z</time>
      </trkpt>
      <trkpt lat="45.07674" lon="2.68062">
        <ele>1220.53</ele>
        <time>2021-08-15T16:50:37Z</time>
      </trkpt>
      <trkpt lat="45.07663" lon="2.68057">
        <ele>1221.49</ele>
        <time>2021-08-15T16:50:45Z</time>
      </trkpt>
      <trkpt lat="45.07649" lon="2.68055">
        <ele>1222.45</ele>
        <time>2021-08-15T16:50:54Z</time>
      </trkpt>
      <trkpt lat="45.07633" lon="2.68059">
        <ele>1223.9</ele>
        <time>2021-08-15T16:51:03Z</time>
      </trkpt>
      <trkpt lat="45.07624" lon="2.68061">
        <ele>1224.86</ele>
        <time>2021-08-15T16:51:10Z</time>
      </trkpt>
      <trkpt lat="45.0761" lon="2.68059">
        <ele>1225.34</ele>
        <time>2021-08-15T16:51:18Z</time>
      </trkpt>
      <trkpt lat="45.07598" lon="2.68053">
        <ele>1226.3</ele>
        <time>2021-08-15T16:51:25Z</time>
      </trkpt>
      <trkpt lat="45.07588" lon="2.68045">
        <ele>1227.26</ele>
        <time>2021-08-15T16:51:32Z</time>
      </trkpt>
      <trkpt lat="45.07578" lon="2.68038">
        <ele>1228.22</ele>
        <time>2021-08-15T16:51:39Z</time>
      </trkpt>
      <trkpt lat="45.07569" lon="2.68043">
        <ele>1229.18</ele>
        <time>2021-08-15T16:51:45Z</time>
      </trkpt>
      <trkpt lat="45.07569" lon="2.68044">
        <ele>1229.18</ele>
        <time>2021-08-15T16:51:46Z</time>
      </trkpt>
      <trkpt lat="45.07569" lon="2.68046">
        <ele>1229.18</ele>
        <time>2021-08-15T16:51:47Z</time>
      </trkpt>
      <trkpt lat="45.07577" lon="2.68056">
        <ele>1230.14</ele>
        <time>2021-08-15T16:51:55Z</time>
      </trkpt>
      <trkpt lat="45.07578" lon="2.68057">
        <ele>1230.62</ele>
        <time>2021-08-15T16:51:56Z</time>
      </trkpt>
      <trkpt lat="45.07579" lon="2.68057">
        <ele>1230.62</ele>
        <time>2021-08-15T16:51:57Z</time>
      </trkpt>
      <trkpt lat="45.0758" lon="2.68058">
        <ele>1230.62</ele>
        <time>2021-08-15T16:51:58Z</time>
      </trkpt>
      <trkpt lat="45.07581" lon="2.68059">
        <ele>1230.62</ele>
        <time>2021-08-15T16:51:59Z</time>
      </trkpt>
      <trkpt lat="45.07583" lon="2.6806">
        <ele>1230.62</ele>
        <time>2021-08-15T16:52:00Z</time>
      </trkpt>
      <trkpt lat="45.07584" lon="2.68061">
        <ele>1230.62</ele>
        <time>2021-08-15T16:52:01Z</time>
      </trkpt>
      <trkpt lat="45.07586" lon="2.68062">
        <ele>1231.11</ele>
        <time>2021-08-15T16:52:02Z</time>
      </trkpt>
      <trkpt lat="45.07587" lon="2.68064">
        <ele>1231.11</ele>
        <time>2021-08-15T16:52:03Z</time>
      </trkpt>
      <trkpt lat="45.07588" lon="2.68065">
        <ele>1231.11</ele>
        <time>2021-08-15T16:52:04Z</time>
      </trkpt>
      <trkpt lat="45.0759" lon="2.68066">
        <ele>1231.11</ele>
        <time>2021-08-15T16:52:05Z</time>
      </trkpt>
      <trkpt lat="45.07591" lon="2.68067">
        <ele>1231.59</ele>
        <time>2021-08-15T16:52:06Z</time>
      </trkpt>
      <trkpt lat="45.07592" lon="2.68068">
        <ele>1231.59</ele>
        <time>2021-08-15T16:52:07Z</time>
      </trkpt>
      <trkpt lat="45.07594" lon="2.68069">
        <ele>1231.59</ele>
        <time>2021-08-15T16:52:08Z</time>
      </trkpt>
      <trkpt lat="45.07595" lon="2.6807">
        <ele>1231.59</ele>
        <time>2021-08-15T16:52:09Z</time>
      </trkpt>
      <trkpt lat="45.07596" lon="2.68071">
        <ele>1231.59</ele>
        <time>2021-08-15T16:52:10Z</time>
      </trkpt>
      <trkpt lat="45.07598" lon="2.68073">
        <ele>1231.59</ele>
        <time>2021-08-15T16:52:11Z</time>
      </trkpt>
      <trkpt lat="45.07598" lon="2.68073">
        <ele>1232.07</ele>
        <time>2021-08-15T16:52:12Z</time>
      </trkpt>
      <trkpt lat="45.07611" lon="2.68087">
        <ele>1233.03</ele>
        <time>2021-08-15T16:52:22Z</time>
      </trkpt>
      <trkpt lat="45.07624" lon="2.68096">
        <ele>1233.99</ele>
        <time>2021-08-15T16:52:31Z</time>
      </trkpt>
      <trkpt lat="45.07629" lon="2.68097">
        <ele>1234.47</ele>
        <time>2021-08-15T16:52:34Z</time>
      </trkpt>
      <trkpt lat="45.0763" lon="2.68097">
        <ele>1234.47</ele>
        <time>2021-08-15T16:52:35Z</time>
      </trkpt>
      <trkpt lat="45.07632" lon="2.68098">
        <ele>1234.47</ele>
        <time>2021-08-15T16:52:36Z</time>
      </trkpt>
      <trkpt lat="45.07633" lon="2.68098">
        <ele>1234.47</ele>
        <time>2021-08-15T16:52:37Z</time>
      </trkpt>
      <trkpt lat="45.07634" lon="2.68099">
        <ele>1234.95</ele>
        <time>2021-08-15T16:52:38Z</time>
      </trkpt>
      <trkpt lat="45.07635" lon="2.681">
        <ele>1234.95</ele>
        <time>2021-08-15T16:52:39Z</time>
      </trkpt>
      <trkpt lat="45.07637" lon="2.681">
        <ele>1235.43</ele>
        <time>2021-08-15T16:52:40Z</time>
      </trkpt>
      <trkpt lat="45.07638" lon="2.68102">
        <ele>1235.43</ele>
        <time>2021-08-15T16:52:41Z</time>
      </trkpt>
      <trkpt lat="45.0764" lon="2.68102">
        <ele>1235.43</ele>
        <time>2021-08-15T16:52:42Z</time>
      </trkpt>
      <trkpt lat="45.07641" lon="2.68103">
        <ele>1235.43</ele>
        <time>2021-08-15T16:52:43Z</time>
      </trkpt>
      <trkpt lat="45.07643" lon="2.68103">
        <ele>1235.43</ele>
        <time>2021-08-15T16:52:44Z</time>
      </trkpt>
      <trkpt lat="45.07645" lon="2.68105">
        <ele>1235.91</ele>
        <time>2021-08-15T16:52:45Z</time>
      </trkpt>
      <trkpt lat="45.07646" lon="2.68106">
        <ele>1235.91</ele>
        <time>2021-08-15T16:52:46Z</time>
      </trkpt>
      <trkpt lat="45.07648" lon="2.68108">
        <ele>1235.91</ele>
        <time>2021-08-15T16:52:47Z</time>
      </trkpt>
      <trkpt lat="45.07658" lon="2.68121">
        <ele>1236.87</ele>
        <time>2021-08-15T16:52:55Z</time>
      </trkpt>
      <trkpt lat="45.0767" lon="2.68134">
        <ele>1237.83</ele>
        <time>2021-08-15T16:53:03Z</time>
      </trkpt>
      <trkpt lat="45.0768" lon="2.6814">
        <ele>1238.32</ele>
        <time>2021-08-15T16:53:10Z</time>
      </trkpt>
      <trkpt lat="45.07691" lon="2.68147">
        <ele>1240.24</ele>
        <time>2021-08-15T16:53:18Z</time>
      </trkpt>
      <trkpt lat="45.07696" lon="2.6815">
        <ele>1240.24</ele>
        <time>2021-08-15T16:53:21Z</time>
      </trkpt>
      <trkpt lat="45.07696" lon="2.68152">
        <ele>1240.24</ele>
        <time>2021-08-15T16:53:22Z</time>
      </trkpt>
      <trkpt lat="45.07697" lon="2.68154">
        <ele>1240.72</ele>
        <time>2021-08-15T16:53:23Z</time>
      </trkpt>
      <trkpt lat="45.07706" lon="2.6817">
        <ele>1242.16</ele>
        <time>2021-08-15T16:53:31Z</time>
      </trkpt>
      <trkpt lat="45.07707" lon="2.68172">
        <ele>1242.16</ele>
        <time>2021-08-15T16:53:32Z</time>
      </trkpt>
      <trkpt lat="45.07712" lon="2.68188">
        <ele>1243.6</ele>
        <time>2021-08-15T16:53:40Z</time>
      </trkpt>
      <trkpt lat="45.07712" lon="2.6819">
        <ele>1243.6</ele>
        <time>2021-08-15T16:53:41Z</time>
      </trkpt>
      <trkpt lat="45.07713" lon="2.68192">
        <ele>1243.6</ele>
        <time>2021-08-15T16:53:42Z</time>
      </trkpt>
      <trkpt lat="45.07714" lon="2.68196">
        <ele>1244.08</ele>
        <time>2021-08-15T16:53:44Z</time>
      </trkpt>
      <trkpt lat="45.07714" lon="2.68198">
        <ele>1244.56</ele>
        <time>2021-08-15T16:53:45Z</time>
      </trkpt>
      <trkpt lat="45.07713" lon="2.68212">
        <ele>1245.53</ele>
        <time>2021-08-15T16:53:53Z</time>
      </trkpt>
      <trkpt lat="45.07706" lon="2.68225">
        <ele>1246.97</ele>
        <time>2021-08-15T16:54:01Z</time>
      </trkpt>
      <trkpt lat="45.077" lon="2.6823">
        <ele>1247.45</ele>
        <time>2021-08-15T16:54:07Z</time>
      </trkpt>
      <trkpt lat="45.07691" lon="2.68227">
        <ele>1249.37</ele>
        <time>2021-08-15T16:54:15Z</time>
      </trkpt>
      <trkpt lat="45.07691" lon="2.68226">
        <ele>1249.37</ele>
        <time>2021-08-15T16:54:16Z</time>
      </trkpt>
      <trkpt lat="45.0769" lon="2.68224">
        <ele>1249.37</ele>
        <time>2021-08-15T16:54:17Z</time>
      </trkpt>
      <trkpt lat="45.07687" lon="2.68216">
        <ele>1250.33</ele>
        <time>2021-08-15T16:54:22Z</time>
      </trkpt>
      <trkpt lat="45.07686" lon="2.68215">
        <ele>1250.33</ele>
        <time>2021-08-15T16:54:23Z</time>
      </trkpt>
      <trkpt lat="45.07686" lon="2.68213">
        <ele>1250.33</ele>
        <time>2021-08-15T16:54:24Z</time>
      </trkpt>
      <trkpt lat="45.07685" lon="2.68212">
        <ele>1250.33</ele>
        <time>2021-08-15T16:54:25Z</time>
      </trkpt>
      <trkpt lat="45.07685" lon="2.6821">
        <ele>1250.33</ele>
        <time>2021-08-15T16:54:26Z</time>
      </trkpt>
      <trkpt lat="45.07674" lon="2.68197">
        <ele>1251.29</ele>
        <time>2021-08-15T16:54:35Z</time>
      </trkpt>
      <trkpt lat="45.07657" lon="2.68193">
        <ele>1252.25</ele>
        <time>2021-08-15T16:54:44Z</time>
      </trkpt>
      <trkpt lat="45.07648" lon="2.6819">
        <ele>1253.22</ele>
        <time>2021-08-15T16:54:53Z</time>
      </trkpt>
      <trkpt lat="45.07639" lon="2.68192">
        <ele>1254.18</ele>
        <time>2021-08-15T16:55:01Z</time>
      </trkpt>
      <trkpt lat="45.07628" lon="2.68195">
        <ele>1255.14</ele>
        <time>2021-08-15T16:55:08Z</time>
      </trkpt>
      <trkpt lat="45.07613" lon="2.68199">
        <ele>1256.1</ele>
        <time>2021-08-15T16:55:17Z</time>
      </trkpt>
      <trkpt lat="45.07597" lon="2.6821">
        <ele>1256.58</ele>
        <time>2021-08-15T16:55:25Z</time>
      </trkpt>
      <trkpt lat="45.07584" lon="2.68218">
        <ele>1256.58</ele>
        <time>2021-08-15T16:55:30Z</time>
      </trkpt>
      <trkpt lat="45.0757" lon="2.68213">
        <ele>1256.58</ele>
        <time>2021-08-15T16:55:36Z</time>
      </trkpt>
      <trkpt lat="45.07556" lon="2.68202">
        <ele>1257.54</ele>
        <time>2021-08-15T16:55:44Z</time>
      </trkpt>
      <trkpt lat="45.0754" lon="2.68191">
        <ele>1258.5</ele>
        <time>2021-08-15T16:55:50Z</time>
      </trkpt>
      <trkpt lat="45.07527" lon="2.6818">
        <ele>1258.98</ele>
        <time>2021-08-15T16:55:56Z</time>
      </trkpt>
      <trkpt lat="45.07517" lon="2.6817">
        <ele>1259.94</ele>
        <time>2021-08-15T16:56:03Z</time>
      </trkpt>
      <trkpt lat="45.07513" lon="2.68167">
        <ele>1259.94</ele>
        <time>2021-08-15T16:56:06Z</time>
      </trkpt>
      <trkpt lat="45.07512" lon="2.68166">
        <ele>1260.91</ele>
        <time>2021-08-15T16:56:07Z</time>
      </trkpt>
      <trkpt lat="45.07511" lon="2.68165">
        <ele>1260.91</ele>
        <time>2021-08-15T16:56:08Z</time>
      </trkpt>
      <trkpt lat="45.0751" lon="2.68164">
        <ele>1260.91</ele>
        <time>2021-08-15T16:56:09Z</time>
      </trkpt>
      <trkpt lat="45.07508" lon="2.68162">
        <ele>1260.91</ele>
        <time>2021-08-15T16:56:10Z</time>
      </trkpt>
      <trkpt lat="45.07507" lon="2.68161">
        <ele>1260.91</ele>
        <time>2021-08-15T16:56:11Z</time>
      </trkpt>
      <trkpt lat="45.07505" lon="2.6816">
        <ele>1261.39</ele>
        <time>2021-08-15T16:56:12Z</time>
      </trkpt>
      <trkpt lat="45.07504" lon="2.68159">
        <ele>1260.91</ele>
        <time>2021-08-15T16:56:13Z</time>
      </trkpt>
      <trkpt lat="45.07497" lon="2.68152">
        <ele>1262.35</ele>
        <time>2021-08-15T16:56:20Z</time>
      </trkpt>
      <trkpt lat="45.07496" lon="2.68151">
        <ele>1262.35</ele>
        <time>2021-08-15T16:56:21Z</time>
      </trkpt>
      <trkpt lat="45.07494" lon="2.68141">
        <ele>1263.31</ele>
        <time>2021-08-15T16:56:27Z</time>
      </trkpt>
      <trkpt lat="45.0749" lon="2.68133">
        <ele>1264.75</ele>
        <time>2021-08-15T16:56:35Z</time>
      </trkpt>
      <trkpt lat="45.07487" lon="2.68125">
        <ele>1265.23</ele>
        <time>2021-08-15T16:56:43Z</time>
      </trkpt>
      <trkpt lat="45.07482" lon="2.68114">
        <ele>1266.67</ele>
        <time>2021-08-15T16:56:53Z</time>
      </trkpt>
      <trkpt lat="45.07477" lon="2.68104">
        <ele>1268.12</ele>
        <time>2021-08-15T16:57:03Z</time>
      </trkpt>
      <trkpt lat="45.07474" lon="2.68097">
        <ele>1269.08</ele>
        <time>2021-08-15T16:57:11Z</time>
      </trkpt>
      <trkpt lat="45.07469" lon="2.68088">
        <ele>1271</ele>
        <time>2021-08-15T16:57:20Z</time>
      </trkpt>
      <trkpt lat="45.07466" lon="2.68079">
        <ele>1271.96</ele>
        <time>2021-08-15T16:57:29Z</time>
      </trkpt>
      <trkpt lat="45.0746" lon="2.68072">
        <ele>1273.4</ele>
        <time>2021-08-15T16:57:38Z</time>
      </trkpt>
      <trkpt lat="45.07456" lon="2.68063">
        <ele>1274.36</ele>
        <time>2021-08-15T16:57:48Z</time>
      </trkpt>
      <trkpt lat="45.07452" lon="2.68054">
        <ele>1275.33</ele>
        <time>2021-08-15T16:57:56Z</time>
      </trkpt>
      <trkpt lat="45.07447" lon="2.68049">
        <ele>1276.77</ele>
        <time>2021-08-15T16:58:04Z</time>
      </trkpt>
      <trkpt lat="45.07441" lon="2.68043">
        <ele>1278.69</ele>
        <time>2021-08-15T16:58:13Z</time>
      </trkpt>
      <trkpt lat="45.07433" lon="2.68048">
        <ele>1279.65</ele>
        <time>2021-08-15T16:58:24Z</time>
      </trkpt>
      <trkpt lat="45.07427" lon="2.68055">
        <ele>1280.13</ele>
        <time>2021-08-15T16:58:31Z</time>
      </trkpt>
      <trkpt lat="45.07421" lon="2.68059">
        <ele>1280.61</ele>
        <time>2021-08-15T16:58:39Z</time>
      </trkpt>
      <trkpt lat="45.07418" lon="2.68063">
        <ele>1280.61</ele>
        <time>2021-08-15T16:58:49Z</time>
      </trkpt>
      <trkpt lat="45.0741" lon="2.68072">
        <ele>1280.61</ele>
        <time>2021-08-15T16:58:54Z</time>
      </trkpt>
      <trkpt lat="45.07397" lon="2.68086">
        <ele>1278.69</ele>
        <time>2021-08-15T16:58:58Z</time>
      </trkpt>
      <trkpt lat="45.07373" lon="2.68112">
        <ele>1275.81</ele>
        <time>2021-08-15T16:59:03Z</time>
      </trkpt>
      <trkpt lat="45.07355" lon="2.68139">
        <ele>1274.85</ele>
        <time>2021-08-15T16:59:07Z</time>
      </trkpt>
      <trkpt lat="45.07354" lon="2.68145">
        <ele>1274.85</ele>
        <time>2021-08-15T16:59:08Z</time>
      </trkpt>
      <trkpt lat="45.07353" lon="2.68159">
        <ele>1273.88</ele>
        <time>2021-08-15T16:59:10Z</time>
      </trkpt>
      <trkpt lat="45.07354" lon="2.68167">
        <ele>1273.4</ele>
        <time>2021-08-15T16:59:11Z</time>
      </trkpt>
      <trkpt lat="45.07364" lon="2.6821">
        <ele>1270.52</ele>
        <time>2021-08-15T16:59:16Z</time>
      </trkpt>
      <trkpt lat="45.07373" lon="2.68254">
        <ele>1270.04</ele>
        <time>2021-08-15T16:59:21Z</time>
      </trkpt>
      <trkpt lat="45.07373" lon="2.68261">
        <ele>1269.08</ele>
        <time>2021-08-15T16:59:22Z</time>
      </trkpt>
      <trkpt lat="45.07373" lon="2.68266">
        <ele>1269.08</ele>
        <time>2021-08-15T16:59:23Z</time>
      </trkpt>
      <trkpt lat="45.07372" lon="2.68271">
        <ele>1269.08</ele>
        <time>2021-08-15T16:59:24Z</time>
      </trkpt>
      <trkpt lat="45.07369" lon="2.68277">
        <ele>1268.12</ele>
        <time>2021-08-15T16:59:25Z</time>
      </trkpt>
      <trkpt lat="45.07367" lon="2.68283">
        <ele>1267.64</ele>
        <time>2021-08-15T16:59:26Z</time>
      </trkpt>
      <trkpt lat="45.07365" lon="2.68288">
        <ele>1267.64</ele>
        <time>2021-08-15T16:59:27Z</time>
      </trkpt>
      <trkpt lat="45.07362" lon="2.68294">
        <ele>1266.67</ele>
        <time>2021-08-15T16:59:28Z</time>
      </trkpt>
      <trkpt lat="45.07358" lon="2.68304">
        <ele>1266.67</ele>
        <time>2021-08-15T16:59:30Z</time>
      </trkpt>
      <trkpt lat="45.0735" lon="2.68322">
        <ele>1265.71</ele>
        <time>2021-08-15T16:59:33Z</time>
      </trkpt>
      <trkpt lat="45.07348" lon="2.68328">
        <ele>1264.75</ele>
        <time>2021-08-15T16:59:34Z</time>
      </trkpt>
      <trkpt lat="45.07346" lon="2.68337">
        <ele>1263.79</ele>
        <time>2021-08-15T16:59:35Z</time>
      </trkpt>
      <trkpt lat="45.07331" lon="2.68389">
        <ele>1260.43</ele>
        <time>2021-08-15T16:59:41Z</time>
      </trkpt>
      <trkpt lat="45.07327" lon="2.68395">
        <ele>1260.43</ele>
        <time>2021-08-15T16:59:42Z</time>
      </trkpt>
      <trkpt lat="45.07323" lon="2.684">
        <ele>1259.94</ele>
        <time>2021-08-15T16:59:43Z</time>
      </trkpt>
      <trkpt lat="45.07319" lon="2.68403">
        <ele>1259.94</ele>
        <time>2021-08-15T16:59:44Z</time>
      </trkpt>
      <trkpt lat="45.07315" lon="2.68404">
        <ele>1259.46</ele>
        <time>2021-08-15T16:59:45Z</time>
      </trkpt>
      <trkpt lat="45.0731" lon="2.68405">
        <ele>1258.98</ele>
        <time>2021-08-15T16:59:46Z</time>
      </trkpt>
      <trkpt lat="45.07305" lon="2.68405">
        <ele>1258.02</ele>
        <time>2021-08-15T16:59:47Z</time>
      </trkpt>
      <trkpt lat="45.07299" lon="2.68407">
        <ele>1257.54</ele>
        <time>2021-08-15T16:59:48Z</time>
      </trkpt>
      <trkpt lat="45.07283" lon="2.68414">
        <ele>1255.14</ele>
        <time>2021-08-15T16:59:51Z</time>
      </trkpt>
      <trkpt lat="45.07271" lon="2.68418">
        <ele>1254.66</ele>
        <time>2021-08-15T16:59:53Z</time>
      </trkpt>
      <trkpt lat="45.07265" lon="2.68419">
        <ele>1254.66</ele>
        <time>2021-08-15T16:59:54Z</time>
      </trkpt>
      <trkpt lat="45.07259" lon="2.6842">
        <ele>1255.14</ele>
        <time>2021-08-15T16:59:55Z</time>
      </trkpt>
      <trkpt lat="45.07254" lon="2.68421">
        <ele>1254.66</ele>
        <time>2021-08-15T16:59:56Z</time>
      </trkpt>
      <trkpt lat="45.07248" lon="2.68423">
        <ele>1254.66</ele>
        <time>2021-08-15T16:59:57Z</time>
      </trkpt>
      <trkpt lat="45.07242" lon="2.68425">
        <ele>1253.7</ele>
        <time>2021-08-15T16:59:58Z</time>
      </trkpt>
      <trkpt lat="45.0723" lon="2.68428">
        <ele>1253.7</ele>
        <time>2021-08-15T17:00:00Z</time>
      </trkpt>
      <trkpt lat="45.07224" lon="2.6843">
        <ele>1252.74</ele>
        <time>2021-08-15T17:00:01Z</time>
      </trkpt>
      <trkpt lat="45.07213" lon="2.68434">
        <ele>1251.29</ele>
        <time>2021-08-15T17:00:03Z</time>
      </trkpt>
      <trkpt lat="45.07208" lon="2.68432">
        <ele>1250.81</ele>
        <time>2021-08-15T17:00:04Z</time>
      </trkpt>
      <trkpt lat="45.07204" lon="2.68428">
        <ele>1250.33</ele>
        <time>2021-08-15T17:00:05Z</time>
      </trkpt>
      <trkpt lat="45.07201" lon="2.68421">
        <ele>1250.33</ele>
        <time>2021-08-15T17:00:06Z</time>
      </trkpt>
      <trkpt lat="45.07198" lon="2.68416">
        <ele>1248.89</ele>
        <time>2021-08-15T17:00:07Z</time>
      </trkpt>
      <trkpt lat="45.07194" lon="2.68412">
        <ele>1248.89</ele>
        <time>2021-08-15T17:00:08Z</time>
      </trkpt>
      <trkpt lat="45.07189" lon="2.68409">
        <ele>1248.41</ele>
        <time>2021-08-15T17:00:09Z</time>
      </trkpt>
      <trkpt lat="45.07183" lon="2.68405">
        <ele>1247.93</ele>
        <time>2021-08-15T17:00:10Z</time>
      </trkpt>
      <trkpt lat="45.07178" lon="2.684">
        <ele>1246.97</ele>
        <time>2021-08-15T17:00:11Z</time>
      </trkpt>
      <trkpt lat="45.07173" lon="2.68395">
        <ele>1246.97</ele>
        <time>2021-08-15T17:00:12Z</time>
      </trkpt>
      <trkpt lat="45.07167" lon="2.68389">
        <ele>1246.01</ele>
        <time>2021-08-15T17:00:13Z</time>
      </trkpt>
      <trkpt lat="45.07164" lon="2.68383">
        <ele>1246.01</ele>
        <time>2021-08-15T17:00:14Z</time>
      </trkpt>
      <trkpt lat="45.0716" lon="2.68375">
        <ele>1245.04</ele>
        <time>2021-08-15T17:00:15Z</time>
      </trkpt>
      <trkpt lat="45.07155" lon="2.68368">
        <ele>1244.56</ele>
        <time>2021-08-15T17:00:16Z</time>
      </trkpt>
      <trkpt lat="45.07151" lon="2.68362">
        <ele>1244.56</ele>
        <time>2021-08-15T17:00:17Z</time>
      </trkpt>
      <trkpt lat="45.07146" lon="2.68356">
        <ele>1244.08</ele>
        <time>2021-08-15T17:00:18Z</time>
      </trkpt>
      <trkpt lat="45.07141" lon="2.68351">
        <ele>1243.12</ele>
        <time>2021-08-15T17:00:19Z</time>
      </trkpt>
      <trkpt lat="45.07135" lon="2.68345">
        <ele>1242.16</ele>
        <time>2021-08-15T17:00:20Z</time>
      </trkpt>
      <trkpt lat="45.07115" lon="2.68332">
        <ele>1240.24</ele>
        <time>2021-08-15T17:00:23Z</time>
      </trkpt>
      <trkpt lat="45.07109" lon="2.6833">
        <ele>1240.24</ele>
        <time>2021-08-15T17:00:24Z</time>
      </trkpt>
      <trkpt lat="45.07096" lon="2.68328">
        <ele>1238.32</ele>
        <time>2021-08-15T17:00:26Z</time>
      </trkpt>
      <trkpt lat="45.07076" lon="2.68327">
        <ele>1235.91</ele>
        <time>2021-08-15T17:00:29Z</time>
      </trkpt>
      <trkpt lat="45.07063" lon="2.68329">
        <ele>1235.43</ele>
        <time>2021-08-15T17:00:31Z</time>
      </trkpt>
      <trkpt lat="45.07035" lon="2.68336">
        <ele>1233.51</ele>
        <time>2021-08-15T17:00:35Z</time>
      </trkpt>
      <trkpt lat="45.07008" lon="2.68349">
        <ele>1231.11</ele>
        <time>2021-08-15T17:00:39Z</time>
      </trkpt>
      <trkpt lat="45.06983" lon="2.68369">
        <ele>1227.74</ele>
        <time>2021-08-15T17:00:43Z</time>
      </trkpt>
      <trkpt lat="45.06977" lon="2.68373">
        <ele>1227.74</ele>
        <time>2021-08-15T17:00:44Z</time>
      </trkpt>
      <trkpt lat="45.06971" lon="2.68377">
        <ele>1226.78</ele>
        <time>2021-08-15T17:00:45Z</time>
      </trkpt>
      <trkpt lat="45.06964" lon="2.68379">
        <ele>1226.3</ele>
        <time>2021-08-15T17:00:46Z</time>
      </trkpt>
      <trkpt lat="45.06957" lon="2.6838">
        <ele>1226.3</ele>
        <time>2021-08-15T17:00:47Z</time>
      </trkpt>
      <trkpt lat="45.06934" lon="2.68382">
        <ele>1224.38</ele>
        <time>2021-08-15T17:00:51Z</time>
      </trkpt>
      <trkpt lat="45.06925" lon="2.68385">
        <ele>1224.86</ele>
        <time>2021-08-15T17:00:52Z</time>
      </trkpt>
      <trkpt lat="45.06919" lon="2.68388">
        <ele>1224.38</ele>
        <time>2021-08-15T17:00:53Z</time>
      </trkpt>
      <trkpt lat="45.06907" lon="2.68395">
        <ele>1223.42</ele>
        <time>2021-08-15T17:00:55Z</time>
      </trkpt>
      <trkpt lat="45.06902" lon="2.684">
        <ele>1223.42</ele>
        <time>2021-08-15T17:00:56Z</time>
      </trkpt>
      <trkpt lat="45.06896" lon="2.68405">
        <ele>1222.93</ele>
        <time>2021-08-15T17:00:57Z</time>
      </trkpt>
      <trkpt lat="45.06891" lon="2.6841">
        <ele>1222.93</ele>
        <time>2021-08-15T17:00:58Z</time>
      </trkpt>
      <trkpt lat="45.06887" lon="2.68415">
        <ele>1222.93</ele>
        <time>2021-08-15T17:00:59Z</time>
      </trkpt>
      <trkpt lat="45.06885" lon="2.68419">
        <ele>1222.93</ele>
        <time>2021-08-15T17:01:00Z</time>
      </trkpt>
      <trkpt lat="45.06882" lon="2.68424">
        <ele>1224.38</ele>
        <time>2021-08-15T17:01:01Z</time>
      </trkpt>
      <trkpt lat="45.06881" lon="2.68428">
        <ele>1224.38</ele>
        <time>2021-08-15T17:01:02Z</time>
      </trkpt>
      <trkpt lat="45.06879" lon="2.68432">
        <ele>1224.38</ele>
        <time>2021-08-15T17:01:03Z</time>
      </trkpt>
      <trkpt lat="45.06879" lon="2.68436">
        <ele>1224.38</ele>
        <time>2021-08-15T17:01:04Z</time>
      </trkpt>
      <trkpt lat="45.06878" lon="2.68439">
        <ele>1224.86</ele>
        <time>2021-08-15T17:01:05Z</time>
      </trkpt>
      <trkpt lat="45.06874" lon="2.68463">
        <ele>1225.82</ele>
        <time>2021-08-15T17:01:13Z</time>
      </trkpt>
      <trkpt lat="45.06875" lon="2.68495">
        <ele>1226.78</ele>
        <time>2021-08-15T17:01:21Z</time>
      </trkpt>
      <trkpt lat="45.06878" lon="2.68516">
        <ele>1228.22</ele>
        <time>2021-08-15T17:01:29Z</time>
      </trkpt>
      <trkpt lat="45.06878" lon="2.6853">
        <ele>1229.18</ele>
        <time>2021-08-15T17:01:36Z</time>
      </trkpt>
      <trkpt lat="45.06882" lon="2.68545">
        <ele>1230.14</ele>
        <time>2021-08-15T17:01:45Z</time>
      </trkpt>
      <trkpt lat="45.06885" lon="2.68557">
        <ele>1231.11</ele>
        <time>2021-08-15T17:01:52Z</time>
      </trkpt>
      <trkpt lat="45.06885" lon="2.68559">
        <ele>1231.11</ele>
        <time>2021-08-15T17:01:53Z</time>
      </trkpt>
      <trkpt lat="45.06886" lon="2.68561">
        <ele>1231.11</ele>
        <time>2021-08-15T17:01:54Z</time>
      </trkpt>
      <trkpt lat="45.06886" lon="2.68563">
        <ele>1231.59</ele>
        <time>2021-08-15T17:01:55Z</time>
      </trkpt>
      <trkpt lat="45.06887" lon="2.68565">
        <ele>1231.59</ele>
        <time>2021-08-15T17:01:56Z</time>
      </trkpt>
      <trkpt lat="45.06887" lon="2.68579">
        <ele>1232.07</ele>
        <time>2021-08-15T17:02:01Z</time>
      </trkpt>
      <trkpt lat="45.06881" lon="2.68604">
        <ele>1232.55</ele>
        <time>2021-08-15T17:02:09Z</time>
      </trkpt>
      <trkpt lat="45.06873" lon="2.68621">
        <ele>1232.55</ele>
        <time>2021-08-15T17:02:15Z</time>
      </trkpt>
      <trkpt lat="45.06866" lon="2.68632">
        <ele>1231.11</ele>
        <time>2021-08-15T17:02:18Z</time>
      </trkpt>
      <trkpt lat="45.06853" lon="2.6866">
        <ele>1229.66</ele>
        <time>2021-08-15T17:02:24Z</time>
      </trkpt>
      <trkpt lat="45.06838" lon="2.68694">
        <ele>1229.18</ele>
        <time>2021-08-15T17:02:30Z</time>
      </trkpt>
      <trkpt lat="45.06831" lon="2.6872">
        <ele>1227.26</ele>
        <time>2021-08-15T17:02:34Z</time>
      </trkpt>
      <trkpt lat="45.06831" lon="2.68727">
        <ele>1226.78</ele>
        <time>2021-08-15T17:02:35Z</time>
      </trkpt>
      <trkpt lat="45.06828" lon="2.68736">
        <ele>1226.78</ele>
        <time>2021-08-15T17:02:36Z</time>
      </trkpt>
      <trkpt lat="45.06825" lon="2.6874">
        <ele>1225.82</ele>
        <time>2021-08-15T17:02:37Z</time>
      </trkpt>
      <trkpt lat="45.06822" lon="2.68743">
        <ele>1225.82</ele>
        <time>2021-08-15T17:02:38Z</time>
      </trkpt>
      <trkpt lat="45.06819" lon="2.68744">
        <ele>1225.82</ele>
        <time>2021-08-15T17:02:39Z</time>
      </trkpt>
      <trkpt lat="45.06816" lon="2.68744">
        <ele>1227.26</ele>
        <time>2021-08-15T17:02:40Z</time>
      </trkpt>
      <trkpt lat="45.06815" lon="2.68745">
        <ele>1227.26</ele>
        <time>2021-08-15T17:02:41Z</time>
      </trkpt>
      <trkpt lat="45.06812" lon="2.68744">
        <ele>1228.22</ele>
        <time>2021-08-15T17:02:44Z</time>
      </trkpt>
      <trkpt lat="45.06805" lon="2.68736">
        <ele>1229.66</ele>
        <time>2021-08-15T17:02:52Z</time>
      </trkpt>
      <trkpt lat="45.06794" lon="2.68727">
        <ele>1230.62</ele>
        <time>2021-08-15T17:03:01Z</time>
      </trkpt>
      <trkpt lat="45.06784" lon="2.68715">
        <ele>1231.11</ele>
        <time>2021-08-15T17:03:09Z</time>
      </trkpt>
      <trkpt lat="45.06771" lon="2.68694">
        <ele>1231.11</ele>
        <time>2021-08-15T17:03:15Z</time>
      </trkpt>
      <trkpt lat="45.0676" lon="2.68683">
        <ele>1227.74</ele>
        <time>2021-08-15T17:03:18Z</time>
      </trkpt>
      <trkpt lat="45.06756" lon="2.68678">
        <ele>1227.74</ele>
        <time>2021-08-15T17:03:19Z</time>
      </trkpt>
      <trkpt lat="45.06755" lon="2.68672">
        <ele>1227.74</ele>
        <time>2021-08-15T17:03:20Z</time>
      </trkpt>
      <trkpt lat="45.06753" lon="2.68658">
        <ele>1230.62</ele>
        <time>2021-08-15T17:03:24Z</time>
      </trkpt>
      <trkpt lat="45.06751" lon="2.68639">
        <ele>1232.55</ele>
        <time>2021-08-15T17:03:32Z</time>
      </trkpt>
      <trkpt lat="45.0675" lon="2.68608">
        <ele>1233.51</ele>
        <time>2021-08-15T17:03:41Z</time>
      </trkpt>
      <trkpt lat="45.06741" lon="2.68573">
        <ele>1233.51</ele>
        <time>2021-08-15T17:03:48Z</time>
      </trkpt>
      <trkpt lat="45.06739" lon="2.6857">
        <ele>1233.51</ele>
        <time>2021-08-15T17:03:49Z</time>
      </trkpt>
      <trkpt lat="45.06737" lon="2.68568">
        <ele>1233.51</ele>
        <time>2021-08-15T17:03:50Z</time>
      </trkpt>
      <trkpt lat="45.06736" lon="2.68566">
        <ele>1233.51</ele>
        <time>2021-08-15T17:03:51Z</time>
      </trkpt>
      <trkpt lat="45.06734" lon="2.68564">
        <ele>1233.51</ele>
        <time>2021-08-15T17:03:52Z</time>
      </trkpt>
      <trkpt lat="45.06732" lon="2.68561">
        <ele>1233.51</ele>
        <time>2021-08-15T17:03:53Z</time>
      </trkpt>
      <trkpt lat="45.06721" lon="2.68545">
        <ele>1234.47</ele>
        <time>2021-08-15T17:04:00Z</time>
      </trkpt>
      <trkpt lat="45.06713" lon="2.68529">
        <ele>1235.43</ele>
        <time>2021-08-15T17:04:09Z</time>
      </trkpt>
      <trkpt lat="45.06707" lon="2.68515">
        <ele>1237.35</ele>
        <time>2021-08-15T17:04:18Z</time>
      </trkpt>
      <trkpt lat="45.06699" lon="2.68501">
        <ele>1238.8</ele>
        <time>2021-08-15T17:04:28Z</time>
      </trkpt>
      <trkpt lat="45.06693" lon="2.68494">
        <ele>1239.76</ele>
        <time>2021-08-15T17:04:34Z</time>
      </trkpt>
      <trkpt lat="45.06686" lon="2.68487">
        <ele>1240.72</ele>
        <time>2021-08-15T17:04:42Z</time>
      </trkpt>
      <trkpt lat="45.06685" lon="2.68486">
        <ele>1240.72</ele>
        <time>2021-08-15T17:04:43Z</time>
      </trkpt>
      <trkpt lat="45.06683" lon="2.68474">
        <ele>1242.16</ele>
        <time>2021-08-15T17:04:51Z</time>
      </trkpt>
      <trkpt lat="45.06681" lon="2.68463">
        <ele>1242.64</ele>
        <time>2021-08-15T17:04:58Z</time>
      </trkpt>
      <trkpt lat="45.0668" lon="2.68461">
        <ele>1242.64</ele>
        <time>2021-08-15T17:04:59Z</time>
      </trkpt>
      <trkpt lat="45.06676" lon="2.6845">
        <ele>1243.6</ele>
        <time>2021-08-15T17:05:07Z</time>
      </trkpt>
      <trkpt lat="45.06674" lon="2.68437">
        <ele>1244.56</ele>
        <time>2021-08-15T17:05:15Z</time>
      </trkpt>
      <trkpt lat="45.06668" lon="2.68425">
        <ele>1245.04</ele>
        <time>2021-08-15T17:05:22Z</time>
      </trkpt>
      <trkpt lat="45.06665" lon="2.68417">
        <ele>1246.49</ele>
        <time>2021-08-15T17:05:29Z</time>
      </trkpt>
      <trkpt lat="45.06658" lon="2.68407">
        <ele>1247.93</ele>
        <time>2021-08-15T17:05:38Z</time>
      </trkpt>
      <trkpt lat="45.06649" lon="2.68396">
        <ele>1248.89</ele>
        <time>2021-08-15T17:05:46Z</time>
      </trkpt>
      <trkpt lat="45.06645" lon="2.68387">
        <ele>1249.85</ele>
        <time>2021-08-15T17:05:52Z</time>
      </trkpt>
      <trkpt lat="45.06641" lon="2.68378">
        <ele>1250.81</ele>
        <time>2021-08-15T17:06:00Z</time>
      </trkpt>
      <trkpt lat="45.0664" lon="2.68377">
        <ele>1250.81</ele>
        <time>2021-08-15T17:06:01Z</time>
      </trkpt>
      <trkpt lat="45.0664" lon="2.68375">
        <ele>1250.81</ele>
        <time>2021-08-15T17:06:02Z</time>
      </trkpt>
      <trkpt lat="45.0664" lon="2.68374">
        <ele>1250.81</ele>
        <time>2021-08-15T17:06:03Z</time>
      </trkpt>
      <trkpt lat="45.06639" lon="2.68372">
        <ele>1251.29</ele>
        <time>2021-08-15T17:06:04Z</time>
      </trkpt>
      <trkpt lat="45.06639" lon="2.6837">
        <ele>1251.29</ele>
        <time>2021-08-15T17:06:05Z</time>
      </trkpt>
      <trkpt lat="45.06639" lon="2.68368">
        <ele>1251.29</ele>
        <time>2021-08-15T17:06:06Z</time>
      </trkpt>
      <trkpt lat="45.06633" lon="2.68356">
        <ele>1251.77</ele>
        <time>2021-08-15T17:06:14Z</time>
      </trkpt>
      <trkpt lat="45.0663" lon="2.68348">
        <ele>1252.25</ele>
        <time>2021-08-15T17:06:21Z</time>
      </trkpt>
      <trkpt lat="45.06621" lon="2.68335">
        <ele>1252.74</ele>
        <time>2021-08-15T17:06:29Z</time>
      </trkpt>
      <trkpt lat="45.0662" lon="2.68332">
        <ele>1252.74</ele>
        <time>2021-08-15T17:06:30Z</time>
      </trkpt>
      <trkpt lat="45.06618" lon="2.6833">
        <ele>1252.74</ele>
        <time>2021-08-15T17:06:31Z</time>
      </trkpt>
      <trkpt lat="45.06616" lon="2.68328">
        <ele>1252.74</ele>
        <time>2021-08-15T17:06:32Z</time>
      </trkpt>
      <trkpt lat="45.06615" lon="2.68325">
        <ele>1252.74</ele>
        <time>2021-08-15T17:06:33Z</time>
      </trkpt>
      <trkpt lat="45.06614" lon="2.68323">
        <ele>1252.74</ele>
        <time>2021-08-15T17:06:34Z</time>
      </trkpt>
      <trkpt lat="45.06613" lon="2.68321">
        <ele>1252.74</ele>
        <time>2021-08-15T17:06:35Z</time>
      </trkpt>
      <trkpt lat="45.06612" lon="2.68318">
        <ele>1252.74</ele>
        <time>2021-08-15T17:06:36Z</time>
      </trkpt>
      <trkpt lat="45.06611" lon="2.68315">
        <ele>1252.74</ele>
        <time>2021-08-15T17:06:37Z</time>
      </trkpt>
      <trkpt lat="45.0661" lon="2.68313">
        <ele>1252.74</ele>
        <time>2021-08-15T17:06:38Z</time>
      </trkpt>
      <trkpt lat="45.06605" lon="2.68291">
        <ele>1253.7</ele>
        <time>2021-08-15T17:06:45Z</time>
      </trkpt>
      <trkpt lat="45.06603" lon="2.68265">
        <ele>1254.18</ele>
        <time>2021-08-15T17:06:51Z</time>
      </trkpt>
      <trkpt lat="45.06598" lon="2.68229">
        <ele>1254.18</ele>
        <time>2021-08-15T17:06:58Z</time>
      </trkpt>
      <trkpt lat="45.06596" lon="2.68198">
        <ele>1254.18</ele>
        <time>2021-08-15T17:07:03Z</time>
      </trkpt>
      <trkpt lat="45.06595" lon="2.68192">
        <ele>1254.18</ele>
        <time>2021-08-15T17:07:04Z</time>
      </trkpt>
      <trkpt lat="45.06593" lon="2.68166">
        <ele>1254.18</ele>
        <time>2021-08-15T17:07:10Z</time>
      </trkpt>
      <trkpt lat="45.06598" lon="2.68143">
        <ele>1254.66</ele>
        <time>2021-08-15T17:07:16Z</time>
      </trkpt>
      <trkpt lat="45.06601" lon="2.68117">
        <ele>1253.22</ele>
        <time>2021-08-15T17:07:21Z</time>
      </trkpt>
      <trkpt lat="45.06602" lon="2.68104">
        <ele>1253.22</ele>
        <time>2021-08-15T17:07:23Z</time>
      </trkpt>
      <trkpt lat="45.06603" lon="2.68096">
        <ele>1252.74</ele>
        <time>2021-08-15T17:07:24Z</time>
      </trkpt>
      <trkpt lat="45.06603" lon="2.68082">
        <ele>1252.74</ele>
        <time>2021-08-15T17:07:28Z</time>
      </trkpt>
      <trkpt lat="45.06604" lon="2.68079">
        <ele>1253.22</ele>
        <time>2021-08-15T17:07:39Z</time>
      </trkpt>
      <trkpt lat="45.06603" lon="2.68078">
        <ele>1253.22</ele>
        <time>2021-08-15T17:07:55Z</time>
      </trkpt>
      <trkpt lat="45.06601" lon="2.68078">
        <ele>1253.22</ele>
        <time>2021-08-15T17:08:10Z</time>
      </trkpt>
      <trkpt lat="45.06602" lon="2.68078">
        <ele>1253.22</ele>
        <time>2021-08-15T17:08:25Z</time>
      </trkpt>
      <trkpt lat="45.066" lon="2.68075">
        <ele>1253.22</ele>
        <time>2021-08-15T17:08:36Z</time>
      </trkpt>
      <trkpt lat="45.06599" lon="2.68076">
        <ele>1253.22</ele>
        <time>2021-08-15T17:08:56Z</time>
      </trkpt>
      <trkpt lat="45.06602" lon="2.68076">
        <ele>1252.74</ele>
        <time>2021-08-15T17:09:19Z</time>
      </trkpt>
      <trkpt lat="45.06605" lon="2.6808">
        <ele>1252.74</ele>
        <time>2021-08-15T17:09:38Z</time>
      </trkpt>
      <trkpt lat="45.06605" lon="2.6808">
        <ele>1252.74</ele>
        <time>2021-08-15T17:09:53Z</time>
      </trkpt>
      <trkpt lat="45.06607" lon="2.68081">
        <ele>1252.74</ele>
        <time>2021-08-15T17:10:09Z</time>
      </trkpt>
      <trkpt lat="45.06608" lon="2.68081">
        <ele>1252.74</ele>
        <time>2021-08-15T17:10:24Z</time>
      </trkpt>
      <trkpt lat="45.06608" lon="2.68081">
        <ele>1252.74</ele>
        <time>2021-08-15T17:10:34Z</time>
      </trkpt>
      <trkpt lat="45.06607" lon="2.6808">
        <ele>1252.74</ele>
        <time>2021-08-15T17:10:52Z</time>
      </trkpt>
      <trkpt lat="45.06607" lon="2.68075">
        <ele>1252.74</ele>
        <time>2021-08-15T17:11:09Z</time>
      </trkpt>
      <trkpt lat="45.06607" lon="2.68075">
        <ele>1252.74</ele>
        <time>2021-08-15T17:11:23Z</time>
      </trkpt>
      <trkpt lat="45.06607" lon="2.68075">
        <ele>1252.74</ele>
        <time>2021-08-15T17:11:39Z</time>
      </trkpt>
      <trkpt lat="45.06604" lon="2.68074">
        <ele>1253.22</ele>
        <time>2021-08-15T17:12:00Z</time>
      </trkpt>
      <trkpt lat="45.06605" lon="2.68075">
        <ele>1253.22</ele>
        <time>2021-08-15T17:12:20Z</time>
      </trkpt>
      <trkpt lat="45.06605" lon="2.6807">
        <ele>1253.22</ele>
        <time>2021-08-15T17:12:42Z</time>
      </trkpt>
      <trkpt lat="45.06606" lon="2.68074">
        <ele>1253.22</ele>
        <time>2021-08-15T17:13:01Z</time>
      </trkpt>
      <trkpt lat="45.06608" lon="2.68078">
        <ele>1253.22</ele>
        <time>2021-08-15T17:13:20Z</time>
      </trkpt>
      <trkpt lat="45.06606" lon="2.68079">
        <ele>1253.22</ele>
        <time>2021-08-15T17:13:32Z</time>
      </trkpt>
      <trkpt lat="45.06604" lon="2.68078">
        <ele>1252.74</ele>
        <time>2021-08-15T17:13:46Z</time>
      </trkpt>
      <trkpt lat="45.06602" lon="2.68079">
        <ele>1252.74</ele>
        <time>2021-08-15T17:14:01Z</time>
      </trkpt>
      <trkpt lat="45.06601" lon="2.68079">
        <ele>1252.25</ele>
        <time>2021-08-15T17:14:13Z</time>
      </trkpt>
      <trkpt lat="45.06601" lon="2.68079">
        <ele>1252.25</ele>
        <time>2021-08-15T17:14:29Z</time>
      </trkpt>
      <trkpt lat="45.06603" lon="2.6808">
        <ele>1252.25</ele>
        <time>2021-08-15T17:14:42Z</time>
      </trkpt>
      <trkpt lat="45.06607" lon="2.68083">
        <ele>1252.25</ele>
        <time>2021-08-15T17:14:57Z</time>
      </trkpt>
      <trkpt lat="45.06607" lon="2.68081">
        <ele>1252.25</ele>
        <time>2021-08-15T17:15:16Z</time>
      </trkpt>
      <trkpt lat="45.06607" lon="2.68081">
        <ele>1252.25</ele>
        <time>2021-08-15T17:15:22Z</time>
      </trkpt>
      <trkpt lat="45.06605" lon="2.6808">
        <ele>1252.25</ele>
        <time>2021-08-15T17:15:28Z</time>
      </trkpt>
      <trkpt lat="45.06606" lon="2.68065">
        <ele>1252.25</ele>
        <time>2021-08-15T17:15:35Z</time>
      </trkpt>
      <trkpt lat="45.06606" lon="2.68041">
        <ele>1250.81</ele>
        <time>2021-08-15T17:15:40Z</time>
      </trkpt>
      <trkpt lat="45.0661" lon="2.6802">
        <ele>1252.25</ele>
        <time>2021-08-15T17:15:46Z</time>
      </trkpt>
      <trkpt lat="45.06613" lon="2.6801">
        <ele>1253.22</ele>
        <time>2021-08-15T17:15:52Z</time>
      </trkpt>
      <trkpt lat="45.06615" lon="2.68005">
        <ele>1253.7</ele>
        <time>2021-08-15T17:15:55Z</time>
      </trkpt>
      <trkpt lat="45.06618" lon="2.67985">
        <ele>1255.14</ele>
        <time>2021-08-15T17:16:03Z</time>
      </trkpt>
      <trkpt lat="45.06622" lon="2.67966">
        <ele>1256.1</ele>
        <time>2021-08-15T17:16:12Z</time>
      </trkpt>
      <trkpt lat="45.06625" lon="2.6795">
        <ele>1256.58</ele>
        <time>2021-08-15T17:16:19Z</time>
      </trkpt>
      <trkpt lat="45.06625" lon="2.67948">
        <ele>1256.58</ele>
        <time>2021-08-15T17:16:20Z</time>
      </trkpt>
      <trkpt lat="45.06626" lon="2.67946">
        <ele>1256.58</ele>
        <time>2021-08-15T17:16:21Z</time>
      </trkpt>
      <trkpt lat="45.06629" lon="2.67925">
        <ele>1257.54</ele>
        <time>2021-08-15T17:16:30Z</time>
      </trkpt>
      <trkpt lat="45.0663" lon="2.67908">
        <ele>1258.02</ele>
        <time>2021-08-15T17:16:39Z</time>
      </trkpt>
      <trkpt lat="45.06631" lon="2.67902">
        <ele>1258.5</ele>
        <time>2021-08-15T17:16:42Z</time>
      </trkpt>
      <trkpt lat="45.06631" lon="2.67895">
        <ele>1258.98</ele>
        <time>2021-08-15T17:16:46Z</time>
      </trkpt>
      <trkpt lat="45.06632" lon="2.67884">
        <ele>1259.46</ele>
        <time>2021-08-15T17:16:51Z</time>
      </trkpt>
      <trkpt lat="45.06631" lon="2.67883">
        <ele>1259.94</ele>
        <time>2021-08-15T17:16:52Z</time>
      </trkpt>
      <trkpt lat="45.0663" lon="2.67881">
        <ele>1259.94</ele>
        <time>2021-08-15T17:16:53Z</time>
      </trkpt>
      <trkpt lat="45.0663" lon="2.67879">
        <ele>1259.94</ele>
        <time>2021-08-15T17:16:54Z</time>
      </trkpt>
      <trkpt lat="45.06629" lon="2.67877">
        <ele>1260.43</ele>
        <time>2021-08-15T17:16:55Z</time>
      </trkpt>
      <trkpt lat="45.06623" lon="2.67862">
        <ele>1261.39</ele>
        <time>2021-08-15T17:17:04Z</time>
      </trkpt>
      <trkpt lat="45.06615" lon="2.67851">
        <ele>1262.35</ele>
        <time>2021-08-15T17:17:14Z</time>
      </trkpt>
      <trkpt lat="45.0661" lon="2.67844">
        <ele>1263.31</ele>
        <time>2021-08-15T17:17:21Z</time>
      </trkpt>
      <trkpt lat="45.0661" lon="2.67843">
        <ele>1263.31</ele>
        <time>2021-08-15T17:17:22Z</time>
      </trkpt>
      <trkpt lat="45.0661" lon="2.67841">
        <ele>1263.79</ele>
        <time>2021-08-15T17:17:23Z</time>
      </trkpt>
      <trkpt lat="45.0661" lon="2.67839">
        <ele>1263.79</ele>
        <time>2021-08-15T17:17:24Z</time>
      </trkpt>
      <trkpt lat="45.0661" lon="2.67837">
        <ele>1263.79</ele>
        <time>2021-08-15T17:17:25Z</time>
      </trkpt>
      <trkpt lat="45.06611" lon="2.6782">
        <ele>1264.27</ele>
        <time>2021-08-15T17:17:34Z</time>
      </trkpt>
      <trkpt lat="45.06614" lon="2.67812">
        <ele>1265.23</ele>
        <time>2021-08-15T17:17:42Z</time>
      </trkpt>
      <trkpt lat="45.06617" lon="2.67802">
        <ele>1266.67</ele>
        <time>2021-08-15T17:17:52Z</time>
      </trkpt>
      <trkpt lat="45.0662" lon="2.67793">
        <ele>1267.64</ele>
        <time>2021-08-15T17:18:01Z</time>
      </trkpt>
      <trkpt lat="45.06623" lon="2.67777">
        <ele>1268.6</ele>
        <time>2021-08-15T17:18:11Z</time>
      </trkpt>
      <trkpt lat="45.06627" lon="2.67767">
        <ele>1269.56</ele>
        <time>2021-08-15T17:18:19Z</time>
      </trkpt>
      <trkpt lat="45.06631" lon="2.67755">
        <ele>1270.52</ele>
        <time>2021-08-15T17:18:28Z</time>
      </trkpt>
      <trkpt lat="45.06634" lon="2.67744">
        <ele>1271.48</ele>
        <time>2021-08-15T17:18:36Z</time>
      </trkpt>
      <trkpt lat="45.0664" lon="2.67732">
        <ele>1272.44</ele>
        <time>2021-08-15T17:18:45Z</time>
      </trkpt>
      <trkpt lat="45.06646" lon="2.67721">
        <ele>1273.4</ele>
        <time>2021-08-15T17:18:55Z</time>
      </trkpt>
      <trkpt lat="45.0665" lon="2.67712">
        <ele>1274.36</ele>
        <time>2021-08-15T17:19:04Z</time>
      </trkpt>
      <trkpt lat="45.06652" lon="2.67704">
        <ele>1275.81</ele>
        <time>2021-08-15T17:19:13Z</time>
      </trkpt>
      <trkpt lat="45.06654" lon="2.67694">
        <ele>1276.29</ele>
        <time>2021-08-15T17:19:22Z</time>
      </trkpt>
      <trkpt lat="45.06657" lon="2.67687">
        <ele>1276.77</ele>
        <time>2021-08-15T17:19:30Z</time>
      </trkpt>
      <trkpt lat="45.06657" lon="2.67686">
        <ele>1276.77</ele>
        <time>2021-08-15T17:19:31Z</time>
      </trkpt>
      <trkpt lat="45.06659" lon="2.67681">
        <ele>1276.77</ele>
        <time>2021-08-15T17:19:33Z</time>
      </trkpt>
      <trkpt lat="45.06661" lon="2.67666">
        <ele>1277.73</ele>
        <time>2021-08-15T17:19:40Z</time>
      </trkpt>
      <trkpt lat="45.06663" lon="2.67655">
        <ele>1279.17</ele>
        <time>2021-08-15T17:19:49Z</time>
      </trkpt>
      <trkpt lat="45.06665" lon="2.67641">
        <ele>1280.61</ele>
        <time>2021-08-15T17:19:58Z</time>
      </trkpt>
      <trkpt lat="45.06667" lon="2.67627">
        <ele>1281.09</ele>
        <time>2021-08-15T17:20:05Z</time>
      </trkpt>
      <trkpt lat="45.06666" lon="2.67612">
        <ele>1281.57</ele>
        <time>2021-08-15T17:20:12Z</time>
      </trkpt>
      <trkpt lat="45.06667" lon="2.67601">
        <ele>1282.06</ele>
        <time>2021-08-15T17:20:19Z</time>
      </trkpt>
      <trkpt lat="45.06668" lon="2.67598">
        <ele>1282.06</ele>
        <time>2021-08-15T17:20:20Z</time>
      </trkpt>
      <trkpt lat="45.0667" lon="2.67581">
        <ele>1283.5</ele>
        <time>2021-08-15T17:20:30Z</time>
      </trkpt>
      <trkpt lat="45.06672" lon="2.67566">
        <ele>1284.94</ele>
        <time>2021-08-15T17:20:40Z</time>
      </trkpt>
      <trkpt lat="45.06673" lon="2.67551">
        <ele>1285.9</ele>
        <time>2021-08-15T17:20:48Z</time>
      </trkpt>
      <trkpt lat="45.06675" lon="2.67533">
        <ele>1287.34</ele>
        <time>2021-08-15T17:20:57Z</time>
      </trkpt>
      <trkpt lat="45.06679" lon="2.67523">
        <ele>1287.82</ele>
        <time>2021-08-15T17:21:01Z</time>
      </trkpt>
      <trkpt lat="45.0668" lon="2.67521">
        <ele>1287.82</ele>
        <time>2021-08-15T17:21:02Z</time>
      </trkpt>
      <trkpt lat="45.06681" lon="2.67519">
        <ele>1287.82</ele>
        <time>2021-08-15T17:21:03Z</time>
      </trkpt>
      <trkpt lat="45.06692" lon="2.67497">
        <ele>1288.3</ele>
        <time>2021-08-15T17:21:13Z</time>
      </trkpt>
      <trkpt lat="45.06702" lon="2.67483">
        <ele>1289.75</ele>
        <time>2021-08-15T17:21:20Z</time>
      </trkpt>
      <trkpt lat="45.06706" lon="2.67478">
        <ele>1289.75</ele>
        <time>2021-08-15T17:21:23Z</time>
      </trkpt>
      <trkpt lat="45.06716" lon="2.67467">
        <ele>1290.71</ele>
        <time>2021-08-15T17:21:31Z</time>
      </trkpt>
      <trkpt lat="45.06724" lon="2.67454">
        <ele>1291.67</ele>
        <time>2021-08-15T17:21:38Z</time>
      </trkpt>
      <trkpt lat="45.06731" lon="2.67441">
        <ele>1293.11</ele>
        <time>2021-08-15T17:21:46Z</time>
      </trkpt>
      <trkpt lat="45.06735" lon="2.67434">
        <ele>1294.55</ele>
        <time>2021-08-15T17:21:53Z</time>
      </trkpt>
      <trkpt lat="45.0674" lon="2.67425">
        <ele>1295.51</ele>
        <time>2021-08-15T17:22:02Z</time>
      </trkpt>
      <trkpt lat="45.06744" lon="2.67414">
        <ele>1296.96</ele>
        <time>2021-08-15T17:22:11Z</time>
      </trkpt>
      <trkpt lat="45.06747" lon="2.67404">
        <ele>1298.4</ele>
        <time>2021-08-15T17:22:19Z</time>
      </trkpt>
      <trkpt lat="45.06748" lon="2.67394">
        <ele>1299.36</ele>
        <time>2021-08-15T17:22:28Z</time>
      </trkpt>
      <trkpt lat="45.06751" lon="2.67374">
        <ele>1301.28</ele>
        <time>2021-08-15T17:22:40Z</time>
      </trkpt>
      <trkpt lat="45.06749" lon="2.67358">
        <ele>1302.24</ele>
        <time>2021-08-15T17:22:50Z</time>
      </trkpt>
      <trkpt lat="45.06749" lon="2.67352">
        <ele>1302.24</ele>
        <time>2021-08-15T17:22:57Z</time>
      </trkpt>
      <trkpt lat="45.06748" lon="2.67348">
        <ele>1302.24</ele>
        <time>2021-08-15T17:23:05Z</time>
      </trkpt>
      <trkpt lat="45.06737" lon="2.67329">
        <ele>1301.28</ele>
        <time>2021-08-15T17:23:11Z</time>
      </trkpt>
      <trkpt lat="45.06729" lon="2.67325">
        <ele>1300.32</ele>
        <time>2021-08-15T17:23:13Z</time>
      </trkpt>
      <trkpt lat="45.06725" lon="2.67324">
        <ele>1299.36</ele>
        <time>2021-08-15T17:23:14Z</time>
      </trkpt>
      <trkpt lat="45.06721" lon="2.67323">
        <ele>1298.88</ele>
        <time>2021-08-15T17:23:15Z</time>
      </trkpt>
      <trkpt lat="45.06713" lon="2.67321">
        <ele>1297.92</ele>
        <time>2021-08-15T17:23:17Z</time>
      </trkpt>
      <trkpt lat="45.06709" lon="2.6732">
        <ele>1296.96</ele>
        <time>2021-08-15T17:23:18Z</time>
      </trkpt>
      <trkpt lat="45.06705" lon="2.67317">
        <ele>1296.48</ele>
        <time>2021-08-15T17:23:19Z</time>
      </trkpt>
      <trkpt lat="45.06702" lon="2.67315">
        <ele>1295.99</ele>
        <time>2021-08-15T17:23:20Z</time>
      </trkpt>
      <trkpt lat="45.06694" lon="2.67309">
        <ele>1294.55</ele>
        <time>2021-08-15T17:23:22Z</time>
      </trkpt>
      <trkpt lat="45.06691" lon="2.67305">
        <ele>1294.55</ele>
        <time>2021-08-15T17:23:23Z</time>
      </trkpt>
      <trkpt lat="45.06687" lon="2.67301">
        <ele>1293.59</ele>
        <time>2021-08-15T17:23:24Z</time>
      </trkpt>
      <trkpt lat="45.06683" lon="2.67298">
        <ele>1293.11</ele>
        <time>2021-08-15T17:23:25Z</time>
      </trkpt>
      <trkpt lat="45.0668" lon="2.67295">
        <ele>1293.11</ele>
        <time>2021-08-15T17:23:26Z</time>
      </trkpt>
      <trkpt lat="45.06667" lon="2.67286">
        <ele>1291.19</ele>
        <time>2021-08-15T17:23:29Z</time>
      </trkpt>
      <trkpt lat="45.06664" lon="2.67283">
        <ele>1291.19</ele>
        <time>2021-08-15T17:23:30Z</time>
      </trkpt>
      <trkpt lat="45.0664" lon="2.67264">
        <ele>1287.34</ele>
        <time>2021-08-15T17:23:37Z</time>
      </trkpt>
      <trkpt lat="45.06633" lon="2.67259">
        <ele>1286.86</ele>
        <time>2021-08-15T17:23:39Z</time>
      </trkpt>
      <trkpt lat="45.06617" lon="2.67248">
        <ele>1283.5</ele>
        <time>2021-08-15T17:23:43Z</time>
      </trkpt>
      <trkpt lat="45.06613" lon="2.67244">
        <ele>1283.02</ele>
        <time>2021-08-15T17:23:44Z</time>
      </trkpt>
      <trkpt lat="45.06605" lon="2.67236">
        <ele>1281.57</ele>
        <time>2021-08-15T17:23:46Z</time>
      </trkpt>
      <trkpt lat="45.06601" lon="2.67231">
        <ele>1281.09</ele>
        <time>2021-08-15T17:23:47Z</time>
      </trkpt>
      <trkpt lat="45.06596" lon="2.67226">
        <ele>1280.13</ele>
        <time>2021-08-15T17:23:48Z</time>
      </trkpt>
      <trkpt lat="45.06592" lon="2.67221">
        <ele>1279.65</ele>
        <time>2021-08-15T17:23:49Z</time>
      </trkpt>
      <trkpt lat="45.06588" lon="2.67217">
        <ele>1278.69</ele>
        <time>2021-08-15T17:23:50Z</time>
      </trkpt>
      <trkpt lat="45.06575" lon="2.67206">
        <ele>1277.73</ele>
        <time>2021-08-15T17:23:53Z</time>
      </trkpt>
      <trkpt lat="45.06565" lon="2.67192">
        <ele>1275.81</ele>
        <time>2021-08-15T17:23:56Z</time>
      </trkpt>
      <trkpt lat="45.06562" lon="2.67186">
        <ele>1275.33</ele>
        <time>2021-08-15T17:23:57Z</time>
      </trkpt>
      <trkpt lat="45.06559" lon="2.67181">
        <ele>1274.36</ele>
        <time>2021-08-15T17:23:58Z</time>
      </trkpt>
      <trkpt lat="45.06556" lon="2.67177">
        <ele>1274.36</ele>
        <time>2021-08-15T17:23:59Z</time>
      </trkpt>
      <trkpt lat="45.06552" lon="2.67173">
        <ele>1273.88</ele>
        <time>2021-08-15T17:24:00Z</time>
      </trkpt>
      <trkpt lat="45.0655" lon="2.67168">
        <ele>1273.4</ele>
        <time>2021-08-15T17:24:01Z</time>
      </trkpt>
      <trkpt lat="45.06541" lon="2.67155">
        <ele>1271.96</ele>
        <time>2021-08-15T17:24:04Z</time>
      </trkpt>
      <trkpt lat="45.06536" lon="2.67151">
        <ele>1271.48</ele>
        <time>2021-08-15T17:24:05Z</time>
      </trkpt>
      <trkpt lat="45.06528" lon="2.67143">
        <ele>1270.52</ele>
        <time>2021-08-15T17:24:07Z</time>
      </trkpt>
      <trkpt lat="45.06523" lon="2.67141">
        <ele>1270.04</ele>
        <time>2021-08-15T17:24:08Z</time>
      </trkpt>
      <trkpt lat="45.06518" lon="2.67138">
        <ele>1269.56</ele>
        <time>2021-08-15T17:24:09Z</time>
      </trkpt>
      <trkpt lat="45.06497" lon="2.67127">
        <ele>1266.67</ele>
        <time>2021-08-15T17:24:13Z</time>
      </trkpt>
      <trkpt lat="45.06492" lon="2.67125">
        <ele>1265.71</ele>
        <time>2021-08-15T17:24:14Z</time>
      </trkpt>
      <trkpt lat="45.06481" lon="2.67124">
        <ele>1264.27</ele>
        <time>2021-08-15T17:24:16Z</time>
      </trkpt>
      <trkpt lat="45.06476" lon="2.67121">
        <ele>1263.31</ele>
        <time>2021-08-15T17:24:17Z</time>
      </trkpt>
      <trkpt lat="45.06471" lon="2.67117">
        <ele>1263.31</ele>
        <time>2021-08-15T17:24:18Z</time>
      </trkpt>
      <trkpt lat="45.06467" lon="2.67112">
        <ele>1263.31</ele>
        <time>2021-08-15T17:24:19Z</time>
      </trkpt>
      <trkpt lat="45.06463" lon="2.67106">
        <ele>1262.83</ele>
        <time>2021-08-15T17:24:20Z</time>
      </trkpt>
      <trkpt lat="45.06457" lon="2.67101">
        <ele>1261.87</ele>
        <time>2021-08-15T17:24:21Z</time>
      </trkpt>
      <trkpt lat="45.06452" lon="2.67097">
        <ele>1261.39</ele>
        <time>2021-08-15T17:24:22Z</time>
      </trkpt>
      <trkpt lat="45.06446" lon="2.67094">
        <ele>1260.91</ele>
        <time>2021-08-15T17:24:23Z</time>
      </trkpt>
      <trkpt lat="45.0644" lon="2.67091">
        <ele>1259.94</ele>
        <time>2021-08-15T17:24:24Z</time>
      </trkpt>
      <trkpt lat="45.06419" lon="2.67081">
        <ele>1258.02</ele>
        <time>2021-08-15T17:24:28Z</time>
      </trkpt>
      <trkpt lat="45.06401" lon="2.67068">
        <ele>1256.58</ele>
        <time>2021-08-15T17:24:32Z</time>
      </trkpt>
      <trkpt lat="45.06375" lon="2.67058">
        <ele>1253.7</ele>
        <time>2021-08-15T17:24:39Z</time>
      </trkpt>
      <trkpt lat="45.06365" lon="2.67068">
        <ele>1253.22</ele>
        <time>2021-08-15T17:24:42Z</time>
      </trkpt>
      <trkpt lat="45.06362" lon="2.67074">
        <ele>1252.74</ele>
        <time>2021-08-15T17:24:43Z</time>
      </trkpt>
      <trkpt lat="45.06358" lon="2.67086">
        <ele>1251.77</ele>
        <time>2021-08-15T17:24:45Z</time>
      </trkpt>
      <trkpt lat="45.06349" lon="2.67111">
        <ele>1250.81</ele>
        <time>2021-08-15T17:24:49Z</time>
      </trkpt>
      <trkpt lat="45.06346" lon="2.67116">
        <ele>1249.85</ele>
        <time>2021-08-15T17:24:50Z</time>
      </trkpt>
      <trkpt lat="45.06344" lon="2.67122">
        <ele>1249.37</ele>
        <time>2021-08-15T17:24:51Z</time>
      </trkpt>
      <trkpt lat="45.06342" lon="2.67128">
        <ele>1248.89</ele>
        <time>2021-08-15T17:24:52Z</time>
      </trkpt>
      <trkpt lat="45.0634" lon="2.67133">
        <ele>1248.41</ele>
        <time>2021-08-15T17:24:53Z</time>
      </trkpt>
      <trkpt lat="45.06338" lon="2.67138">
        <ele>1248.41</ele>
        <time>2021-08-15T17:24:54Z</time>
      </trkpt>
      <trkpt lat="45.06335" lon="2.67142">
        <ele>1247.93</ele>
        <time>2021-08-15T17:24:55Z</time>
      </trkpt>
      <trkpt lat="45.06332" lon="2.67144">
        <ele>1247.93</ele>
        <time>2021-08-15T17:24:56Z</time>
      </trkpt>
      <trkpt lat="45.06329" lon="2.67145">
        <ele>1247.45</ele>
        <time>2021-08-15T17:24:57Z</time>
      </trkpt>
      <trkpt lat="45.06327" lon="2.67144">
        <ele>1247.45</ele>
        <time>2021-08-15T17:24:58Z</time>
      </trkpt>
      <trkpt lat="45.06325" lon="2.67144">
        <ele>1247.45</ele>
        <time>2021-08-15T17:24:59Z</time>
      </trkpt>
      <trkpt lat="45.06323" lon="2.67144">
        <ele>1247.45</ele>
        <time>2021-08-15T17:25:00Z</time>
      </trkpt>
      <trkpt lat="45.06322" lon="2.67146">
        <ele>1247.45</ele>
        <time>2021-08-15T17:25:01Z</time>
      </trkpt>
      <trkpt lat="45.06317" lon="2.67158">
        <ele>1248.89</ele>
        <time>2021-08-15T17:25:09Z</time>
      </trkpt>
      <trkpt lat="45.06312" lon="2.67173">
        <ele>1250.33</ele>
        <time>2021-08-15T17:25:17Z</time>
      </trkpt>
      <trkpt lat="45.06309" lon="2.67187">
        <ele>1251.29</ele>
        <time>2021-08-15T17:25:25Z</time>
      </trkpt>
      <trkpt lat="45.06309" lon="2.67189">
        <ele>1251.29</ele>
        <time>2021-08-15T17:25:26Z</time>
      </trkpt>
      <trkpt lat="45.06309" lon="2.6719">
        <ele>1251.77</ele>
        <time>2021-08-15T17:25:27Z</time>
      </trkpt>
      <trkpt lat="45.06308" lon="2.67192">
        <ele>1251.77</ele>
        <time>2021-08-15T17:25:28Z</time>
      </trkpt>
      <trkpt lat="45.06308" lon="2.67194">
        <ele>1251.77</ele>
        <time>2021-08-15T17:25:29Z</time>
      </trkpt>
      <trkpt lat="45.06306" lon="2.67195">
        <ele>1251.77</ele>
        <time>2021-08-15T17:25:30Z</time>
      </trkpt>
      <trkpt lat="45.06305" lon="2.67196">
        <ele>1252.25</ele>
        <time>2021-08-15T17:25:31Z</time>
      </trkpt>
      <trkpt lat="45.06292" lon="2.67208">
        <ele>1254.18</ele>
        <time>2021-08-15T17:25:41Z</time>
      </trkpt>
      <trkpt lat="45.06283" lon="2.67213">
        <ele>1255.14</ele>
        <time>2021-08-15T17:25:48Z</time>
      </trkpt>
      <trkpt lat="45.06272" lon="2.67216">
        <ele>1255.62</ele>
        <time>2021-08-15T17:25:56Z</time>
      </trkpt>
      <trkpt lat="45.06257" lon="2.67218">
        <ele>1257.54</ele>
        <time>2021-08-15T17:26:07Z</time>
      </trkpt>
      <trkpt lat="45.06245" lon="2.67221">
        <ele>1258.98</ele>
        <time>2021-08-15T17:26:16Z</time>
      </trkpt>
      <trkpt lat="45.06243" lon="2.67221">
        <ele>1258.98</ele>
        <time>2021-08-15T17:26:18Z</time>
      </trkpt>
      <trkpt lat="45.06241" lon="2.67221">
        <ele>1258.98</ele>
        <time>2021-08-15T17:26:19Z</time>
      </trkpt>
      <trkpt lat="45.0624" lon="2.6722">
        <ele>1259.46</ele>
        <time>2021-08-15T17:26:20Z</time>
      </trkpt>
      <trkpt lat="45.06239" lon="2.67221">
        <ele>1259.46</ele>
        <time>2021-08-15T17:26:21Z</time>
      </trkpt>
      <trkpt lat="45.06237" lon="2.67221">
        <ele>1259.46</ele>
        <time>2021-08-15T17:26:22Z</time>
      </trkpt>
      <trkpt lat="45.06236" lon="2.67221">
        <ele>1259.94</ele>
        <time>2021-08-15T17:26:23Z</time>
      </trkpt>
      <trkpt lat="45.06235" lon="2.67221">
        <ele>1259.94</ele>
        <time>2021-08-15T17:26:24Z</time>
      </trkpt>
      <trkpt lat="45.06233" lon="2.67221">
        <ele>1259.94</ele>
        <time>2021-08-15T17:26:25Z</time>
      </trkpt>
      <trkpt lat="45.06232" lon="2.67221">
        <ele>1260.43</ele>
        <time>2021-08-15T17:26:26Z</time>
      </trkpt>
      <trkpt lat="45.06231" lon="2.67221">
        <ele>1260.43</ele>
        <time>2021-08-15T17:26:27Z</time>
      </trkpt>
      <trkpt lat="45.0623" lon="2.67221">
        <ele>1260.91</ele>
        <time>2021-08-15T17:26:28Z</time>
      </trkpt>
      <trkpt lat="45.06228" lon="2.67221">
        <ele>1260.91</ele>
        <time>2021-08-15T17:26:29Z</time>
      </trkpt>
      <trkpt lat="45.06227" lon="2.67222">
        <ele>1260.91</ele>
        <time>2021-08-15T17:26:30Z</time>
      </trkpt>
      <trkpt lat="45.06209" lon="2.67231">
        <ele>1262.83</ele>
        <time>2021-08-15T17:26:42Z</time>
      </trkpt>
      <trkpt lat="45.06199" lon="2.67246">
        <ele>1264.27</ele>
        <time>2021-08-15T17:26:52Z</time>
      </trkpt>
      <trkpt lat="45.06193" lon="2.67266">
        <ele>1266.19</ele>
        <time>2021-08-15T17:27:04Z</time>
      </trkpt>
      <trkpt lat="45.06191" lon="2.67281">
        <ele>1267.16</ele>
        <time>2021-08-15T17:27:13Z</time>
      </trkpt>
      <trkpt lat="45.0619" lon="2.67294">
        <ele>1269.08</ele>
        <time>2021-08-15T17:27:20Z</time>
      </trkpt>
      <trkpt lat="45.06183" lon="2.67312">
        <ele>1271</ele>
        <time>2021-08-15T17:27:31Z</time>
      </trkpt>
      <trkpt lat="45.06172" lon="2.67324">
        <ele>1272.92</ele>
        <time>2021-08-15T17:27:41Z</time>
      </trkpt>
      <trkpt lat="45.06163" lon="2.67333">
        <ele>1273.88</ele>
        <time>2021-08-15T17:27:49Z</time>
      </trkpt>
      <trkpt lat="45.06151" lon="2.67352">
        <ele>1275.81</ele>
        <time>2021-08-15T17:28:00Z</time>
      </trkpt>
      <trkpt lat="45.06141" lon="2.67372">
        <ele>1277.73</ele>
        <time>2021-08-15T17:28:11Z</time>
      </trkpt>
      <trkpt lat="45.06133" lon="2.67391">
        <ele>1278.69</ele>
        <time>2021-08-15T17:28:21Z</time>
      </trkpt>
      <trkpt lat="45.06118" lon="2.67406">
        <ele>1280.13</ele>
        <time>2021-08-15T17:28:32Z</time>
      </trkpt>
      <trkpt lat="45.06101" lon="2.67409">
        <ele>1281.57</ele>
        <time>2021-08-15T17:28:43Z</time>
      </trkpt>
      <trkpt lat="45.06087" lon="2.67418">
        <ele>1283.5</ele>
        <time>2021-08-15T17:28:53Z</time>
      </trkpt>
      <trkpt lat="45.06074" lon="2.67426">
        <ele>1284.94</ele>
        <time>2021-08-15T17:29:02Z</time>
      </trkpt>
      <trkpt lat="45.0606" lon="2.67433">
        <ele>1286.38</ele>
        <time>2021-08-15T17:29:12Z</time>
      </trkpt>
      <trkpt lat="45.06048" lon="2.67435">
        <ele>1287.82</ele>
        <time>2021-08-15T17:29:20Z</time>
      </trkpt>
      <trkpt lat="45.06035" lon="2.67435">
        <ele>1289.27</ele>
        <time>2021-08-15T17:29:29Z</time>
      </trkpt>
      <trkpt lat="45.06018" lon="2.6744">
        <ele>1291.19</ele>
        <time>2021-08-15T17:29:40Z</time>
      </trkpt>
      <trkpt lat="45.06001" lon="2.67444">
        <ele>1293.11</ele>
        <time>2021-08-15T17:29:50Z</time>
      </trkpt>
      <trkpt lat="45.05987" lon="2.67442">
        <ele>1295.03</ele>
        <time>2021-08-15T17:30:00Z</time>
      </trkpt>
      <trkpt lat="45.05974" lon="2.67436">
        <ele>1295.99</ele>
        <time>2021-08-15T17:30:09Z</time>
      </trkpt>
      <trkpt lat="45.05956" lon="2.67423">
        <ele>1297.92</ele>
        <time>2021-08-15T17:30:22Z</time>
      </trkpt>
      <trkpt lat="45.05953" lon="2.67418">
        <ele>1298.88</ele>
        <time>2021-08-15T17:30:25Z</time>
      </trkpt>
      <trkpt lat="45.05952" lon="2.67417">
        <ele>1299.36</ele>
        <time>2021-08-15T17:30:26Z</time>
      </trkpt>
      <trkpt lat="45.05944" lon="2.67404">
        <ele>1300.8</ele>
        <time>2021-08-15T17:30:34Z</time>
      </trkpt>
      <trkpt lat="45.05942" lon="2.67402">
        <ele>1301.28</ele>
        <time>2021-08-15T17:30:35Z</time>
      </trkpt>
      <trkpt lat="45.05941" lon="2.674">
        <ele>1301.28</ele>
        <time>2021-08-15T17:30:36Z</time>
      </trkpt>
      <trkpt lat="45.05941" lon="2.67398">
        <ele>1301.28</ele>
        <time>2021-08-15T17:30:37Z</time>
      </trkpt>
      <trkpt lat="45.0594" lon="2.67396">
        <ele>1301.28</ele>
        <time>2021-08-15T17:30:38Z</time>
      </trkpt>
      <trkpt lat="45.0594" lon="2.67394">
        <ele>1301.76</ele>
        <time>2021-08-15T17:30:39Z</time>
      </trkpt>
      <trkpt lat="45.05939" lon="2.67392">
        <ele>1301.76</ele>
        <time>2021-08-15T17:30:40Z</time>
      </trkpt>
      <trkpt lat="45.05939" lon="2.6739">
        <ele>1302.24</ele>
        <time>2021-08-15T17:30:41Z</time>
      </trkpt>
      <trkpt lat="45.05938" lon="2.67387">
        <ele>1302.24</ele>
        <time>2021-08-15T17:30:42Z</time>
      </trkpt>
      <trkpt lat="45.05938" lon="2.67385">
        <ele>1302.24</ele>
        <time>2021-08-15T17:30:43Z</time>
      </trkpt>
      <trkpt lat="45.05933" lon="2.67364">
        <ele>1303.2</ele>
        <time>2021-08-15T17:30:53Z</time>
      </trkpt>
      <trkpt lat="45.05929" lon="2.6735">
        <ele>1305.61</ele>
        <time>2021-08-15T17:31:00Z</time>
      </trkpt>
      <trkpt lat="45.05922" lon="2.67334">
        <ele>1307.05</ele>
        <time>2021-08-15T17:31:09Z</time>
      </trkpt>
      <trkpt lat="45.05912" lon="2.67321">
        <ele>1308.49</ele>
        <time>2021-08-15T17:31:19Z</time>
      </trkpt>
      <trkpt lat="45.05902" lon="2.67313">
        <ele>1309.93</ele>
        <time>2021-08-15T17:31:27Z</time>
      </trkpt>
      <trkpt lat="45.05889" lon="2.67312">
        <ele>1311.38</ele>
        <time>2021-08-15T17:31:36Z</time>
      </trkpt>
      <trkpt lat="45.05877" lon="2.67315">
        <ele>1312.34</ele>
        <time>2021-08-15T17:31:44Z</time>
      </trkpt>
      <trkpt lat="45.0586" lon="2.67322">
        <ele>1313.78</ele>
        <time>2021-08-15T17:31:53Z</time>
      </trkpt>
      <trkpt lat="45.05841" lon="2.67331">
        <ele>1314.74</ele>
        <time>2021-08-15T17:32:03Z</time>
      </trkpt>
      <trkpt lat="45.05821" lon="2.67347">
        <ele>1316.66</ele>
        <time>2021-08-15T17:32:13Z</time>
      </trkpt>
      <trkpt lat="45.0581" lon="2.67367">
        <ele>1317.62</ele>
        <time>2021-08-15T17:32:22Z</time>
      </trkpt>
      <trkpt lat="45.05809" lon="2.67388">
        <ele>1317.62</ele>
        <time>2021-08-15T17:32:29Z</time>
      </trkpt>
      <trkpt lat="45.0581" lon="2.6741">
        <ele>1316.18</ele>
        <time>2021-08-15T17:32:33Z</time>
      </trkpt>
      <trkpt lat="45.05811" lon="2.67417">
        <ele>1315.7</ele>
        <time>2021-08-15T17:32:34Z</time>
      </trkpt>
      <trkpt lat="45.05825" lon="2.67466">
        <ele>1312.82</ele>
        <time>2021-08-15T17:32:40Z</time>
      </trkpt>
      <trkpt lat="45.0584" lon="2.675">
        <ele>1310.41</ele>
        <time>2021-08-15T17:32:44Z</time>
      </trkpt>
      <trkpt lat="45.05845" lon="2.67507">
        <ele>1310.41</ele>
        <time>2021-08-15T17:32:45Z</time>
      </trkpt>
      <trkpt lat="45.05849" lon="2.67513">
        <ele>1309.93</ele>
        <time>2021-08-15T17:32:46Z</time>
      </trkpt>
      <trkpt lat="45.05855" lon="2.6752">
        <ele>1309.93</ele>
        <time>2021-08-15T17:32:47Z</time>
      </trkpt>
      <trkpt lat="45.0586" lon="2.67525">
        <ele>1308.97</ele>
        <time>2021-08-15T17:32:48Z</time>
      </trkpt>
      <trkpt lat="45.05865" lon="2.6753">
        <ele>1308.49</ele>
        <time>2021-08-15T17:32:49Z</time>
      </trkpt>
      <trkpt lat="45.05883" lon="2.67547">
        <ele>1306.57</ele>
        <time>2021-08-15T17:32:52Z</time>
      </trkpt>
      <trkpt lat="45.05888" lon="2.67556">
        <ele>1305.61</ele>
        <time>2021-08-15T17:32:53Z</time>
      </trkpt>
      <trkpt lat="45.05891" lon="2.67565">
        <ele>1305.13</ele>
        <time>2021-08-15T17:32:54Z</time>
      </trkpt>
      <trkpt lat="45.05894" lon="2.67577">
        <ele>1304.17</ele>
        <time>2021-08-15T17:32:55Z</time>
      </trkpt>
      <trkpt lat="45.05895" lon="2.67589">
        <ele>1303.69</ele>
        <time>2021-08-15T17:32:56Z</time>
      </trkpt>
      <trkpt lat="45.05896" lon="2.676">
        <ele>1302.72</ele>
        <time>2021-08-15T17:32:57Z</time>
      </trkpt>
      <trkpt lat="45.05897" lon="2.67613">
        <ele>1302.24</ele>
        <time>2021-08-15T17:32:58Z</time>
      </trkpt>
      <trkpt lat="45.05898" lon="2.67625">
        <ele>1301.76</ele>
        <time>2021-08-15T17:32:59Z</time>
      </trkpt>
      <trkpt lat="45.059" lon="2.67637">
        <ele>1301.76</ele>
        <time>2021-08-15T17:33:00Z</time>
      </trkpt>
      <trkpt lat="45.05905" lon="2.67649">
        <ele>1300.8</ele>
        <time>2021-08-15T17:33:01Z</time>
      </trkpt>
      <trkpt lat="45.05909" lon="2.6766">
        <ele>1299.84</ele>
        <time>2021-08-15T17:33:02Z</time>
      </trkpt>
      <trkpt lat="45.05914" lon="2.67671">
        <ele>1299.36</ele>
        <time>2021-08-15T17:33:03Z</time>
      </trkpt>
      <trkpt lat="45.05938" lon="2.6772">
        <ele>1295.99</ele>
        <time>2021-08-15T17:33:07Z</time>
      </trkpt>
      <trkpt lat="45.05963" lon="2.67768">
        <ele>1291.67</ele>
        <time>2021-08-15T17:33:11Z</time>
      </trkpt>
      <trkpt lat="45.05974" lon="2.67796">
        <ele>1289.75</ele>
        <time>2021-08-15T17:33:13Z</time>
      </trkpt>
      <trkpt lat="45.05978" lon="2.67811">
        <ele>1288.3</ele>
        <time>2021-08-15T17:33:14Z</time>
      </trkpt>
      <trkpt lat="45.05981" lon="2.67827">
        <ele>1287.34</ele>
        <time>2021-08-15T17:33:15Z</time>
      </trkpt>
      <trkpt lat="45.05982" lon="2.67843">
        <ele>1286.38</ele>
        <time>2021-08-15T17:33:16Z</time>
      </trkpt>
      <trkpt lat="45.05982" lon="2.67859">
        <ele>1285.42</ele>
        <time>2021-08-15T17:33:17Z</time>
      </trkpt>
      <trkpt lat="45.05981" lon="2.67876">
        <ele>1284.94</ele>
        <time>2021-08-15T17:33:18Z</time>
      </trkpt>
      <trkpt lat="45.05981" lon="2.67905">
        <ele>1283.5</ele>
        <time>2021-08-15T17:33:20Z</time>
      </trkpt>
      <trkpt lat="45.05982" lon="2.67918">
        <ele>1282.54</ele>
        <time>2021-08-15T17:33:21Z</time>
      </trkpt>
      <trkpt lat="45.05985" lon="2.67933">
        <ele>1282.06</ele>
        <time>2021-08-15T17:33:22Z</time>
      </trkpt>
      <trkpt lat="45.05987" lon="2.67944">
        <ele>1281.09</ele>
        <time>2021-08-15T17:33:23Z</time>
      </trkpt>
      <trkpt lat="45.05992" lon="2.67954">
        <ele>1280.61</ele>
        <time>2021-08-15T17:33:24Z</time>
      </trkpt>
      <trkpt lat="45.05999" lon="2.67962">
        <ele>1279.65</ele>
        <time>2021-08-15T17:33:25Z</time>
      </trkpt>
      <trkpt lat="45.06007" lon="2.67969">
        <ele>1278.69</ele>
        <time>2021-08-15T17:33:26Z</time>
      </trkpt>
      <trkpt lat="45.06016" lon="2.67973">
        <ele>1277.73</ele>
        <time>2021-08-15T17:33:27Z</time>
      </trkpt>
      <trkpt lat="45.06025" lon="2.67978">
        <ele>1277.25</ele>
        <time>2021-08-15T17:33:28Z</time>
      </trkpt>
      <trkpt lat="45.06033" lon="2.67983">
        <ele>1276.77</ele>
        <time>2021-08-15T17:33:29Z</time>
      </trkpt>
      <trkpt lat="45.06041" lon="2.6799">
        <ele>1276.77</ele>
        <time>2021-08-15T17:33:30Z</time>
      </trkpt>
      <trkpt lat="45.06045" lon="2.67998">
        <ele>1276.29</ele>
        <time>2021-08-15T17:33:31Z</time>
      </trkpt>
      <trkpt lat="45.06047" lon="2.68008">
        <ele>1276.29</ele>
        <time>2021-08-15T17:33:32Z</time>
      </trkpt>
      <trkpt lat="45.06046" lon="2.68017">
        <ele>1275.81</ele>
        <time>2021-08-15T17:33:33Z</time>
      </trkpt>
      <trkpt lat="45.06042" lon="2.68026">
        <ele>1275.81</ele>
        <time>2021-08-15T17:33:34Z</time>
      </trkpt>
      <trkpt lat="45.06037" lon="2.68033">
        <ele>1275.33</ele>
        <time>2021-08-15T17:33:35Z</time>
      </trkpt>
      <trkpt lat="45.06031" lon="2.68039">
        <ele>1274.85</ele>
        <time>2021-08-15T17:33:36Z</time>
      </trkpt>
      <trkpt lat="45.0601" lon="2.68055">
        <ele>1272.92</ele>
        <time>2021-08-15T17:33:39Z</time>
      </trkpt>
      <trkpt lat="45.06002" lon="2.68059">
        <ele>1271.96</ele>
        <time>2021-08-15T17:33:40Z</time>
      </trkpt>
      <trkpt lat="45.05992" lon="2.68062">
        <ele>1271</ele>
        <time>2021-08-15T17:33:41Z</time>
      </trkpt>
      <trkpt lat="45.05984" lon="2.68066">
        <ele>1270.04</ele>
        <time>2021-08-15T17:33:42Z</time>
      </trkpt>
      <trkpt lat="45.05976" lon="2.68071">
        <ele>1269.08</ele>
        <time>2021-08-15T17:33:43Z</time>
      </trkpt>
      <trkpt lat="45.05968" lon="2.6808">
        <ele>1268.12</ele>
        <time>2021-08-15T17:33:44Z</time>
      </trkpt>
      <trkpt lat="45.05963" lon="2.6809">
        <ele>1266.67</ele>
        <time>2021-08-15T17:33:45Z</time>
      </trkpt>
      <trkpt lat="45.05957" lon="2.68104">
        <ele>1266.19</ele>
        <time>2021-08-15T17:33:46Z</time>
      </trkpt>
      <trkpt lat="45.05955" lon="2.68115">
        <ele>1265.71</ele>
        <time>2021-08-15T17:33:47Z</time>
      </trkpt>
      <trkpt lat="45.05952" lon="2.68129">
        <ele>1265.71</ele>
        <time>2021-08-15T17:33:48Z</time>
      </trkpt>
      <trkpt lat="45.05951" lon="2.68143">
        <ele>1264.75</ele>
        <time>2021-08-15T17:33:49Z</time>
      </trkpt>
      <trkpt lat="45.0595" lon="2.68154">
        <ele>1264.27</ele>
        <time>2021-08-15T17:33:50Z</time>
      </trkpt>
      <trkpt lat="45.0595" lon="2.68168">
        <ele>1263.31</ele>
        <time>2021-08-15T17:33:51Z</time>
      </trkpt>
      <trkpt lat="45.05952" lon="2.6818">
        <ele>1262.35</ele>
        <time>2021-08-15T17:33:52Z</time>
      </trkpt>
      <trkpt lat="45.05955" lon="2.68192">
        <ele>1261.87</ele>
        <time>2021-08-15T17:33:53Z</time>
      </trkpt>
      <trkpt lat="45.05959" lon="2.68205">
        <ele>1260.91</ele>
        <time>2021-08-15T17:33:54Z</time>
      </trkpt>
      <trkpt lat="45.05965" lon="2.68216">
        <ele>1259.94</ele>
        <time>2021-08-15T17:33:55Z</time>
      </trkpt>
      <trkpt lat="45.05972" lon="2.68226">
        <ele>1259.46</ele>
        <time>2021-08-15T17:33:56Z</time>
      </trkpt>
      <trkpt lat="45.05978" lon="2.68236">
        <ele>1258.98</ele>
        <time>2021-08-15T17:33:57Z</time>
      </trkpt>
      <trkpt lat="45.05985" lon="2.68245">
        <ele>1258.5</ele>
        <time>2021-08-15T17:33:58Z</time>
      </trkpt>
      <trkpt lat="45.06" lon="2.68264">
        <ele>1257.54</ele>
        <time>2021-08-15T17:34:00Z</time>
      </trkpt>
      <trkpt lat="45.06023" lon="2.68303">
        <ele>1255.14</ele>
        <time>2021-08-15T17:34:04Z</time>
      </trkpt>
      <trkpt lat="45.06027" lon="2.68314">
        <ele>1255.14</ele>
        <time>2021-08-15T17:34:05Z</time>
      </trkpt>
      <trkpt lat="45.06029" lon="2.68327">
        <ele>1254.18</ele>
        <time>2021-08-15T17:34:06Z</time>
      </trkpt>
      <trkpt lat="45.06031" lon="2.6834">
        <ele>1253.22</ele>
        <time>2021-08-15T17:34:07Z</time>
      </trkpt>
      <trkpt lat="45.06031" lon="2.68353">
        <ele>1252.74</ele>
        <time>2021-08-15T17:34:08Z</time>
      </trkpt>
      <trkpt lat="45.0603" lon="2.68367">
        <ele>1251.77</ele>
        <time>2021-08-15T17:34:09Z</time>
      </trkpt>
      <trkpt lat="45.06029" lon="2.6838">
        <ele>1251.29</ele>
        <time>2021-08-15T17:34:10Z</time>
      </trkpt>
      <trkpt lat="45.06027" lon="2.68391">
        <ele>1250.81</ele>
        <time>2021-08-15T17:34:11Z</time>
      </trkpt>
      <trkpt lat="45.06023" lon="2.68403">
        <ele>1250.33</ele>
        <time>2021-08-15T17:34:12Z</time>
      </trkpt>
      <trkpt lat="45.06017" lon="2.68411">
        <ele>1249.85</ele>
        <time>2021-08-15T17:34:13Z</time>
      </trkpt>
      <trkpt lat="45.0601" lon="2.68416">
        <ele>1248.89</ele>
        <time>2021-08-15T17:34:14Z</time>
      </trkpt>
      <trkpt lat="45.06002" lon="2.68418">
        <ele>1248.89</ele>
        <time>2021-08-15T17:34:15Z</time>
      </trkpt>
      <trkpt lat="45.05994" lon="2.68417">
        <ele>1248.41</ele>
        <time>2021-08-15T17:34:16Z</time>
      </trkpt>
      <trkpt lat="45.05985" lon="2.68415">
        <ele>1247.93</ele>
        <time>2021-08-15T17:34:17Z</time>
      </trkpt>
      <trkpt lat="45.05976" lon="2.68413">
        <ele>1247.45</ele>
        <time>2021-08-15T17:34:18Z</time>
      </trkpt>
      <trkpt lat="45.05967" lon="2.68413">
        <ele>1246.97</ele>
        <time>2021-08-15T17:34:19Z</time>
      </trkpt>
      <trkpt lat="45.05958" lon="2.68415">
        <ele>1245.04</ele>
        <time>2021-08-15T17:34:20Z</time>
      </trkpt>
      <trkpt lat="45.05948" lon="2.68418">
        <ele>1244.08</ele>
        <time>2021-08-15T17:34:21Z</time>
      </trkpt>
      <trkpt lat="45.05939" lon="2.68422">
        <ele>1243.12</ele>
        <time>2021-08-15T17:34:22Z</time>
      </trkpt>
      <trkpt lat="45.0593" lon="2.68427">
        <ele>1241.68</ele>
        <time>2021-08-15T17:34:23Z</time>
      </trkpt>
      <trkpt lat="45.0592" lon="2.68434">
        <ele>1240.72</ele>
        <time>2021-08-15T17:34:24Z</time>
      </trkpt>
      <trkpt lat="45.05911" lon="2.68442">
        <ele>1239.28</ele>
        <time>2021-08-15T17:34:25Z</time>
      </trkpt>
      <trkpt lat="45.05902" lon="2.68451">
        <ele>1238.8</ele>
        <time>2021-08-15T17:34:26Z</time>
      </trkpt>
      <trkpt lat="45.05895" lon="2.68461">
        <ele>1238.32</ele>
        <time>2021-08-15T17:34:27Z</time>
      </trkpt>
      <trkpt lat="45.0589" lon="2.68473">
        <ele>1237.35</ele>
        <time>2021-08-15T17:34:28Z</time>
      </trkpt>
      <trkpt lat="45.05886" lon="2.68484">
        <ele>1236.87</ele>
        <time>2021-08-15T17:34:29Z</time>
      </trkpt>
      <trkpt lat="45.05883" lon="2.68496">
        <ele>1236.87</ele>
        <time>2021-08-15T17:34:30Z</time>
      </trkpt>
      <trkpt lat="45.0588" lon="2.68505">
        <ele>1235.91</ele>
        <time>2021-08-15T17:34:31Z</time>
      </trkpt>
      <trkpt lat="45.05875" lon="2.68511">
        <ele>1235.43</ele>
        <time>2021-08-15T17:34:32Z</time>
      </trkpt>
      <trkpt lat="45.05868" lon="2.68513">
        <ele>1234.47</ele>
        <time>2021-08-15T17:34:33Z</time>
      </trkpt>
      <trkpt lat="45.05862" lon="2.68511">
        <ele>1233.99</ele>
        <time>2021-08-15T17:34:34Z</time>
      </trkpt>
      <trkpt lat="45.05856" lon="2.68506">
        <ele>1233.51</ele>
        <time>2021-08-15T17:34:35Z</time>
      </trkpt>
      <trkpt lat="45.0585" lon="2.68499">
        <ele>1233.03</ele>
        <time>2021-08-15T17:34:36Z</time>
      </trkpt>
      <trkpt lat="45.05843" lon="2.68493">
        <ele>1232.55</ele>
        <time>2021-08-15T17:34:37Z</time>
      </trkpt>
      <trkpt lat="45.05836" lon="2.68488">
        <ele>1231.59</ele>
        <time>2021-08-15T17:34:38Z</time>
      </trkpt>
      <trkpt lat="45.05828" lon="2.68486">
        <ele>1230.14</ele>
        <time>2021-08-15T17:34:39Z</time>
      </trkpt>
      <trkpt lat="45.05817" lon="2.68486">
        <ele>1229.18</ele>
        <time>2021-08-15T17:34:40Z</time>
      </trkpt>
      <trkpt lat="45.05808" lon="2.68488">
        <ele>1227.74</ele>
        <time>2021-08-15T17:34:41Z</time>
      </trkpt>
      <trkpt lat="45.05798" lon="2.68491">
        <ele>1226.78</ele>
        <time>2021-08-15T17:34:42Z</time>
      </trkpt>
      <trkpt lat="45.05789" lon="2.68496">
        <ele>1225.82</ele>
        <time>2021-08-15T17:34:43Z</time>
      </trkpt>
      <trkpt lat="45.05779" lon="2.68504">
        <ele>1224.86</ele>
        <time>2021-08-15T17:34:44Z</time>
      </trkpt>
      <trkpt lat="45.05772" lon="2.68515">
        <ele>1224.38</ele>
        <time>2021-08-15T17:34:45Z</time>
      </trkpt>
      <trkpt lat="45.05765" lon="2.68525">
        <ele>1223.9</ele>
        <time>2021-08-15T17:34:46Z</time>
      </trkpt>
      <trkpt lat="45.05759" lon="2.68534">
        <ele>1222.93</ele>
        <time>2021-08-15T17:34:47Z</time>
      </trkpt>
      <trkpt lat="45.05751" lon="2.68539">
        <ele>1221.97</ele>
        <time>2021-08-15T17:34:48Z</time>
      </trkpt>
      <trkpt lat="45.05743" lon="2.68539">
        <ele>1221.01</ele>
        <time>2021-08-15T17:34:49Z</time>
      </trkpt>
      <trkpt lat="45.05734" lon="2.68535">
        <ele>1221.01</ele>
        <time>2021-08-15T17:34:50Z</time>
      </trkpt>
      <trkpt lat="45.05726" lon="2.6853">
        <ele>1221.01</ele>
        <time>2021-08-15T17:34:51Z</time>
      </trkpt>
      <trkpt lat="45.05718" lon="2.68523">
        <ele>1220.53</ele>
        <time>2021-08-15T17:34:52Z</time>
      </trkpt>
      <trkpt lat="45.05711" lon="2.68517">
        <ele>1219.09</ele>
        <time>2021-08-15T17:34:53Z</time>
      </trkpt>
      <trkpt lat="45.05694" lon="2.68503">
        <ele>1218.13</ele>
        <time>2021-08-15T17:34:55Z</time>
      </trkpt>
      <trkpt lat="45.05661" lon="2.68475">
        <ele>1216.21</ele>
        <time>2021-08-15T17:34:59Z</time>
      </trkpt>
      <trkpt lat="45.05608" lon="2.68442">
        <ele>1213.32</ele>
        <time>2021-08-15T17:35:05Z</time>
      </trkpt>
      <trkpt lat="45.05599" lon="2.6844">
        <ele>1212.36</ele>
        <time>2021-08-15T17:35:06Z</time>
      </trkpt>
      <trkpt lat="45.05588" lon="2.68438">
        <ele>1212.36</ele>
        <time>2021-08-15T17:35:07Z</time>
      </trkpt>
      <trkpt lat="45.05578" lon="2.68438">
        <ele>1211.88</ele>
        <time>2021-08-15T17:35:08Z</time>
      </trkpt>
      <trkpt lat="45.05569" lon="2.6844">
        <ele>1211.4</ele>
        <time>2021-08-15T17:35:09Z</time>
      </trkpt>
      <trkpt lat="45.05559" lon="2.68443">
        <ele>1211.4</ele>
        <time>2021-08-15T17:35:10Z</time>
      </trkpt>
      <trkpt lat="45.05549" lon="2.68448">
        <ele>1211.4</ele>
        <time>2021-08-15T17:35:11Z</time>
      </trkpt>
      <trkpt lat="45.0554" lon="2.68455">
        <ele>1210.44</ele>
        <time>2021-08-15T17:35:12Z</time>
      </trkpt>
      <trkpt lat="45.05531" lon="2.68463">
        <ele>1209.96</ele>
        <time>2021-08-15T17:35:13Z</time>
      </trkpt>
      <trkpt lat="45.05522" lon="2.68474">
        <ele>1209</ele>
        <time>2021-08-15T17:35:14Z</time>
      </trkpt>
      <trkpt lat="45.05515" lon="2.68485">
        <ele>1208.03</ele>
        <time>2021-08-15T17:35:15Z</time>
      </trkpt>
      <trkpt lat="45.05508" lon="2.68498">
        <ele>1207.07</ele>
        <time>2021-08-15T17:35:16Z</time>
      </trkpt>
      <trkpt lat="45.05484" lon="2.6853">
        <ele>1205.15</ele>
        <time>2021-08-15T17:35:19Z</time>
      </trkpt>
      <trkpt lat="45.05475" lon="2.68538">
        <ele>1204.67</ele>
        <time>2021-08-15T17:35:20Z</time>
      </trkpt>
      <trkpt lat="45.05466" lon="2.68545">
        <ele>1204.67</ele>
        <time>2021-08-15T17:35:21Z</time>
      </trkpt>
      <trkpt lat="45.05455" lon="2.68551">
        <ele>1203.71</ele>
        <time>2021-08-15T17:35:22Z</time>
      </trkpt>
      <trkpt lat="45.05446" lon="2.68556">
        <ele>1203.23</ele>
        <time>2021-08-15T17:35:23Z</time>
      </trkpt>
      <trkpt lat="45.05436" lon="2.6856">
        <ele>1202.75</ele>
        <time>2021-08-15T17:35:24Z</time>
      </trkpt>
      <trkpt lat="45.05428" lon="2.68562">
        <ele>1202.75</ele>
        <time>2021-08-15T17:35:25Z</time>
      </trkpt>
      <trkpt lat="45.05419" lon="2.68566">
        <ele>1201.79</ele>
        <time>2021-08-15T17:35:26Z</time>
      </trkpt>
      <trkpt lat="45.05403" lon="2.68574">
        <ele>1200.82</ele>
        <time>2021-08-15T17:35:28Z</time>
      </trkpt>
      <trkpt lat="45.05396" lon="2.68582">
        <ele>1199.38</ele>
        <time>2021-08-15T17:35:29Z</time>
      </trkpt>
      <trkpt lat="45.05385" lon="2.68599">
        <ele>1197.46</ele>
        <time>2021-08-15T17:35:31Z</time>
      </trkpt>
      <trkpt lat="45.05381" lon="2.68611">
        <ele>1196.02</ele>
        <time>2021-08-15T17:35:32Z</time>
      </trkpt>
      <trkpt lat="45.05378" lon="2.68625">
        <ele>1195.06</ele>
        <time>2021-08-15T17:35:33Z</time>
      </trkpt>
      <trkpt lat="45.05368" lon="2.68665">
        <ele>1191.21</ele>
        <time>2021-08-15T17:35:36Z</time>
      </trkpt>
      <trkpt lat="45.05356" lon="2.687">
        <ele>1187.37</ele>
        <time>2021-08-15T17:35:39Z</time>
      </trkpt>
      <trkpt lat="45.0535" lon="2.68711">
        <ele>1185.92</ele>
        <time>2021-08-15T17:35:40Z</time>
      </trkpt>
      <trkpt lat="45.05341" lon="2.6872">
        <ele>1184.96</ele>
        <time>2021-08-15T17:35:41Z</time>
      </trkpt>
      <trkpt lat="45.05332" lon="2.68728">
        <ele>1184</ele>
        <time>2021-08-15T17:35:42Z</time>
      </trkpt>
      <trkpt lat="45.05323" lon="2.68734">
        <ele>1184.48</ele>
        <time>2021-08-15T17:35:43Z</time>
      </trkpt>
      <trkpt lat="45.05308" lon="2.68749">
        <ele>1184</ele>
        <time>2021-08-15T17:35:45Z</time>
      </trkpt>
      <trkpt lat="45.05302" lon="2.68757">
        <ele>1184</ele>
        <time>2021-08-15T17:35:46Z</time>
      </trkpt>
      <trkpt lat="45.05296" lon="2.68765">
        <ele>1184</ele>
        <time>2021-08-15T17:35:47Z</time>
      </trkpt>
      <trkpt lat="45.05289" lon="2.68773">
        <ele>1184.96</ele>
        <time>2021-08-15T17:35:48Z</time>
      </trkpt>
      <trkpt lat="45.05283" lon="2.68779">
        <ele>1185.44</ele>
        <time>2021-08-15T17:35:49Z</time>
      </trkpt>
      <trkpt lat="45.05277" lon="2.68783">
        <ele>1185.44</ele>
        <time>2021-08-15T17:35:50Z</time>
      </trkpt>
      <trkpt lat="45.0527" lon="2.68786">
        <ele>1186.4</ele>
        <time>2021-08-15T17:35:51Z</time>
      </trkpt>
      <trkpt lat="45.05264" lon="2.68789">
        <ele>1186.4</ele>
        <time>2021-08-15T17:35:52Z</time>
      </trkpt>
      <trkpt lat="45.05257" lon="2.68792">
        <ele>1186.4</ele>
        <time>2021-08-15T17:35:53Z</time>
      </trkpt>
      <trkpt lat="45.05251" lon="2.68796">
        <ele>1186.88</ele>
        <time>2021-08-15T17:35:54Z</time>
      </trkpt>
      <trkpt lat="45.05246" lon="2.68801">
        <ele>1187.85</ele>
        <time>2021-08-15T17:35:55Z</time>
      </trkpt>
      <trkpt lat="45.05242" lon="2.68806">
        <ele>1187.85</ele>
        <time>2021-08-15T17:35:56Z</time>
      </trkpt>
      <trkpt lat="45.05238" lon="2.68812">
        <ele>1187.85</ele>
        <time>2021-08-15T17:35:57Z</time>
      </trkpt>
      <trkpt lat="45.05235" lon="2.68817">
        <ele>1187.85</ele>
        <time>2021-08-15T17:35:58Z</time>
      </trkpt>
      <trkpt lat="45.05232" lon="2.68823">
        <ele>1187.85</ele>
        <time>2021-08-15T17:35:59Z</time>
      </trkpt>
      <trkpt lat="45.0523" lon="2.68829">
        <ele>1187.85</ele>
        <time>2021-08-15T17:36:00Z</time>
      </trkpt>
      <trkpt lat="45.05228" lon="2.68835">
        <ele>1187.85</ele>
        <time>2021-08-15T17:36:01Z</time>
      </trkpt>
      <trkpt lat="45.05227" lon="2.68841">
        <ele>1187.85</ele>
        <time>2021-08-15T17:36:02Z</time>
      </trkpt>
      <trkpt lat="45.05227" lon="2.68846">
        <ele>1187.85</ele>
        <time>2021-08-15T17:36:03Z</time>
      </trkpt>
      <trkpt lat="45.05223" lon="2.68882">
        <ele>1188.81</ele>
        <time>2021-08-15T17:36:11Z</time>
      </trkpt>
      <trkpt lat="45.05218" lon="2.68925">
        <ele>1189.77</ele>
        <time>2021-08-15T17:36:19Z</time>
      </trkpt>
      <trkpt lat="45.05217" lon="2.68965">
        <ele>1186.4</ele>
        <time>2021-08-15T17:36:24Z</time>
      </trkpt>
      <trkpt lat="45.05223" lon="2.69031">
        <ele>1183.04</ele>
        <time>2021-08-15T17:36:30Z</time>
      </trkpt>
      <trkpt lat="45.0523" lon="2.69075">
        <ele>1184.96</ele>
        <time>2021-08-15T17:36:35Z</time>
      </trkpt>
      <trkpt lat="45.05231" lon="2.6908">
        <ele>1185.92</ele>
        <time>2021-08-15T17:36:36Z</time>
      </trkpt>
      <trkpt lat="45.05233" lon="2.69086">
        <ele>1186.4</ele>
        <time>2021-08-15T17:36:37Z</time>
      </trkpt>
      <trkpt lat="45.05241" lon="2.69112">
        <ele>1188.33</ele>
        <time>2021-08-15T17:36:44Z</time>
      </trkpt>
      <trkpt lat="45.05249" lon="2.69139">
        <ele>1188.81</ele>
        <time>2021-08-15T17:36:52Z</time>
      </trkpt>
      <trkpt lat="45.05254" lon="2.69169">
        <ele>1190.25</ele>
        <time>2021-08-15T17:37:02Z</time>
      </trkpt>
      <trkpt lat="45.05253" lon="2.69193">
        <ele>1191.69</ele>
        <time>2021-08-15T17:37:11Z</time>
      </trkpt>
      <trkpt lat="45.05247" lon="2.69224">
        <ele>1193.61</ele>
        <time>2021-08-15T17:37:22Z</time>
      </trkpt>
      <trkpt lat="45.05246" lon="2.69256">
        <ele>1193.61</ele>
        <time>2021-08-15T17:37:30Z</time>
      </trkpt>
      <trkpt lat="45.0525" lon="2.69282">
        <ele>1193.61</ele>
        <time>2021-08-15T17:37:35Z</time>
      </trkpt>
      <trkpt lat="45.05251" lon="2.69288">
        <ele>1193.61</ele>
        <time>2021-08-15T17:37:36Z</time>
      </trkpt>
      <trkpt lat="45.05254" lon="2.693">
        <ele>1193.61</ele>
        <time>2021-08-15T17:37:38Z</time>
      </trkpt>
      <trkpt lat="45.05257" lon="2.69306">
        <ele>1193.61</ele>
        <time>2021-08-15T17:37:39Z</time>
      </trkpt>
      <trkpt lat="45.05262" lon="2.69317">
        <ele>1192.17</ele>
        <time>2021-08-15T17:37:41Z</time>
      </trkpt>
      <trkpt lat="45.05265" lon="2.69322">
        <ele>1192.17</ele>
        <time>2021-08-15T17:37:42Z</time>
      </trkpt>
      <trkpt lat="45.05269" lon="2.69327">
        <ele>1192.17</ele>
        <time>2021-08-15T17:37:43Z</time>
      </trkpt>
      <trkpt lat="45.05287" lon="2.69349">
        <ele>1190.73</ele>
        <time>2021-08-15T17:37:48Z</time>
      </trkpt>
      <trkpt lat="45.05296" lon="2.69357">
        <ele>1190.73</ele>
        <time>2021-08-15T17:37:50Z</time>
      </trkpt>
      <trkpt lat="45.053" lon="2.69362">
        <ele>1190.25</ele>
        <time>2021-08-15T17:37:51Z</time>
      </trkpt>
      <trkpt lat="45.05333" lon="2.69404">
        <ele>1187.37</ele>
        <time>2021-08-15T17:37:58Z</time>
      </trkpt>
      <trkpt lat="45.05356" lon="2.69437">
        <ele>1184</ele>
        <time>2021-08-15T17:38:02Z</time>
      </trkpt>
      <trkpt lat="45.05372" lon="2.69467">
        <ele>1181.12</ele>
        <time>2021-08-15T17:38:05Z</time>
      </trkpt>
      <trkpt lat="45.05376" lon="2.69478">
        <ele>1181.6</ele>
        <time>2021-08-15T17:38:06Z</time>
      </trkpt>
      <trkpt lat="45.05396" lon="2.69545">
        <ele>1180.16</ele>
        <time>2021-08-15T17:38:12Z</time>
      </trkpt>
      <trkpt lat="45.05419" lon="2.6959">
        <ele>1180.16</ele>
        <time>2021-08-15T17:38:17Z</time>
      </trkpt>
      <trkpt lat="45.05432" lon="2.69617">
        <ele>1181.6</ele>
        <time>2021-08-15T17:38:21Z</time>
      </trkpt>
      <trkpt lat="45.05434" lon="2.69624">
        <ele>1181.6</ele>
        <time>2021-08-15T17:38:22Z</time>
      </trkpt>
      <trkpt lat="45.05434" lon="2.69631">
        <ele>1182.08</ele>
        <time>2021-08-15T17:38:23Z</time>
      </trkpt>
      <trkpt lat="45.05434" lon="2.69638">
        <ele>1182.08</ele>
        <time>2021-08-15T17:38:24Z</time>
      </trkpt>
      <trkpt lat="45.05433" lon="2.69644">
        <ele>1182.56</ele>
        <time>2021-08-15T17:38:25Z</time>
      </trkpt>
      <trkpt lat="45.05431" lon="2.69651">
        <ele>1182.56</ele>
        <time>2021-08-15T17:38:26Z</time>
      </trkpt>
      <trkpt lat="45.05429" lon="2.69657">
        <ele>1182.08</ele>
        <time>2021-08-15T17:38:27Z</time>
      </trkpt>
      <trkpt lat="45.05426" lon="2.69662">
        <ele>1183.04</ele>
        <time>2021-08-15T17:38:28Z</time>
      </trkpt>
      <trkpt lat="45.05423" lon="2.69667">
        <ele>1183.04</ele>
        <time>2021-08-15T17:38:29Z</time>
      </trkpt>
      <trkpt lat="45.05419" lon="2.69672">
        <ele>1183.04</ele>
        <time>2021-08-15T17:38:30Z</time>
      </trkpt>
      <trkpt lat="45.05416" lon="2.69676">
        <ele>1183.04</ele>
        <time>2021-08-15T17:38:31Z</time>
      </trkpt>
      <trkpt lat="45.05412" lon="2.6968">
        <ele>1183.52</ele>
        <time>2021-08-15T17:38:32Z</time>
      </trkpt>
      <trkpt lat="45.05377" lon="2.69712">
        <ele>1183.52</ele>
        <time>2021-08-15T17:38:41Z</time>
      </trkpt>
      <trkpt lat="45.05358" lon="2.69724">
        <ele>1184</ele>
        <time>2021-08-15T17:38:46Z</time>
      </trkpt>
      <trkpt lat="45.05353" lon="2.69726">
        <ele>1184</ele>
        <time>2021-08-15T17:38:47Z</time>
      </trkpt>
      <trkpt lat="45.0535" lon="2.69726">
        <ele>1184.48</ele>
        <time>2021-08-15T17:38:48Z</time>
      </trkpt>
      <trkpt lat="45.05324" lon="2.69723">
        <ele>1185.92</ele>
        <time>2021-08-15T17:38:55Z</time>
      </trkpt>
      <trkpt lat="45.05304" lon="2.69715">
        <ele>1187.37</ele>
        <time>2021-08-15T17:39:03Z</time>
      </trkpt>
      <trkpt lat="45.05287" lon="2.69708">
        <ele>1188.33</ele>
        <time>2021-08-15T17:39:12Z</time>
      </trkpt>
      <trkpt lat="45.05266" lon="2.69702">
        <ele>1190.73</ele>
        <time>2021-08-15T17:39:22Z</time>
      </trkpt>
      <trkpt lat="45.05244" lon="2.69695">
        <ele>1192.65</ele>
        <time>2021-08-15T17:39:33Z</time>
      </trkpt>
      <trkpt lat="45.05221" lon="2.69688">
        <ele>1194.09</ele>
        <time>2021-08-15T17:39:44Z</time>
      </trkpt>
      <trkpt lat="45.05204" lon="2.69679">
        <ele>1194.58</ele>
        <time>2021-08-15T17:39:53Z</time>
      </trkpt>
      <trkpt lat="45.05183" lon="2.69667">
        <ele>1195.54</ele>
        <time>2021-08-15T17:40:03Z</time>
      </trkpt>
      <trkpt lat="45.05162" lon="2.69659">
        <ele>1196.5</ele>
        <time>2021-08-15T17:40:10Z</time>
      </trkpt>
      <trkpt lat="45.05128" lon="2.69652">
        <ele>1196.5</ele>
        <time>2021-08-15T17:40:19Z</time>
      </trkpt>
      <trkpt lat="45.05124" lon="2.69653">
        <ele>1196.5</ele>
        <time>2021-08-15T17:40:20Z</time>
      </trkpt>
      <trkpt lat="45.05087" lon="2.69661">
        <ele>1196.5</ele>
        <time>2021-08-15T17:40:27Z</time>
      </trkpt>
      <trkpt lat="45.05061" lon="2.69675">
        <ele>1196.5</ele>
        <time>2021-08-15T17:40:32Z</time>
      </trkpt>
      <trkpt lat="45.05024" lon="2.697">
        <ele>1194.58</ele>
        <time>2021-08-15T17:40:39Z</time>
      </trkpt>
      <trkpt lat="45.05018" lon="2.69706">
        <ele>1194.58</ele>
        <time>2021-08-15T17:40:40Z</time>
      </trkpt>
      <trkpt lat="45.05013" lon="2.69714">
        <ele>1194.58</ele>
        <time>2021-08-15T17:40:41Z</time>
      </trkpt>
      <trkpt lat="45.0501" lon="2.69722">
        <ele>1194.09</ele>
        <time>2021-08-15T17:40:42Z</time>
      </trkpt>
      <trkpt lat="45.05007" lon="2.69732">
        <ele>1194.09</ele>
        <time>2021-08-15T17:40:43Z</time>
      </trkpt>
      <trkpt lat="45.05006" lon="2.69743">
        <ele>1193.61</ele>
        <time>2021-08-15T17:40:44Z</time>
      </trkpt>
      <trkpt lat="45.05006" lon="2.69753">
        <ele>1193.61</ele>
        <time>2021-08-15T17:40:45Z</time>
      </trkpt>
      <trkpt lat="45.05006" lon="2.69764">
        <ele>1192.65</ele>
        <time>2021-08-15T17:40:46Z</time>
      </trkpt>
      <trkpt lat="45.05006" lon="2.698">
        <ele>1190.25</ele>
        <time>2021-08-15T17:40:49Z</time>
      </trkpt>
      <trkpt lat="45.05004" lon="2.69813">
        <ele>1189.77</ele>
        <time>2021-08-15T17:40:50Z</time>
      </trkpt>
      <trkpt lat="45.05002" lon="2.69828">
        <ele>1188.81</ele>
        <time>2021-08-15T17:40:51Z</time>
      </trkpt>
      <trkpt lat="45.04998" lon="2.69841">
        <ele>1187.37</ele>
        <time>2021-08-15T17:40:52Z</time>
      </trkpt>
      <trkpt lat="45.04992" lon="2.69858">
        <ele>1184.96</ele>
        <time>2021-08-15T17:40:53Z</time>
      </trkpt>
      <trkpt lat="45.0498" lon="2.69901">
        <ele>1182.08</ele>
        <time>2021-08-15T17:40:56Z</time>
      </trkpt>
      <trkpt lat="45.04967" lon="2.6995">
        <ele>1177.75</ele>
        <time>2021-08-15T17:40:59Z</time>
      </trkpt>
      <trkpt lat="45.04962" lon="2.69966">
        <ele>1176.31</ele>
        <time>2021-08-15T17:41:00Z</time>
      </trkpt>
      <trkpt lat="45.04955" lon="2.69982">
        <ele>1175.35</ele>
        <time>2021-08-15T17:41:01Z</time>
      </trkpt>
      <trkpt lat="45.04947" lon="2.69997">
        <ele>1174.87</ele>
        <time>2021-08-15T17:41:02Z</time>
      </trkpt>
      <trkpt lat="45.04939" lon="2.70009">
        <ele>1173.91</ele>
        <time>2021-08-15T17:41:03Z</time>
      </trkpt>
      <trkpt lat="45.04929" lon="2.70022">
        <ele>1172.95</ele>
        <time>2021-08-15T17:41:04Z</time>
      </trkpt>
      <trkpt lat="45.0492" lon="2.70033">
        <ele>1172.95</ele>
        <time>2021-08-15T17:41:05Z</time>
      </trkpt>
      <trkpt lat="45.0491" lon="2.70043">
        <ele>1172.95</ele>
        <time>2021-08-15T17:41:06Z</time>
      </trkpt>
      <trkpt lat="45.04899" lon="2.70052">
        <ele>1172.47</ele>
        <time>2021-08-15T17:41:07Z</time>
      </trkpt>
      <trkpt lat="45.04889" lon="2.70059">
        <ele>1172.47</ele>
        <time>2021-08-15T17:41:08Z</time>
      </trkpt>
      <trkpt lat="45.04879" lon="2.70066">
        <ele>1171.5</ele>
        <time>2021-08-15T17:41:09Z</time>
      </trkpt>
      <trkpt lat="45.04846" lon="2.70081">
        <ele>1171.02</ele>
        <time>2021-08-15T17:41:12Z</time>
      </trkpt>
      <trkpt lat="45.04836" lon="2.70084">
        <ele>1171.02</ele>
        <time>2021-08-15T17:41:13Z</time>
      </trkpt>
      <trkpt lat="45.04825" lon="2.70086">
        <ele>1171.02</ele>
        <time>2021-08-15T17:41:14Z</time>
      </trkpt>
      <trkpt lat="45.04796" lon="2.70088">
        <ele>1172.47</ele>
        <time>2021-08-15T17:41:17Z</time>
      </trkpt>
      <trkpt lat="45.04763" lon="2.70088">
        <ele>1173.43</ele>
        <time>2021-08-15T17:41:21Z</time>
      </trkpt>
      <trkpt lat="45.04756" lon="2.70091">
        <ele>1174.39</ele>
        <time>2021-08-15T17:41:22Z</time>
      </trkpt>
      <trkpt lat="45.04751" lon="2.70097">
        <ele>1174.39</ele>
        <time>2021-08-15T17:41:23Z</time>
      </trkpt>
      <trkpt lat="45.04746" lon="2.70105">
        <ele>1174.39</ele>
        <time>2021-08-15T17:41:24Z</time>
      </trkpt>
      <trkpt lat="45.04745" lon="2.70114">
        <ele>1174.39</ele>
        <time>2021-08-15T17:41:25Z</time>
      </trkpt>
      <trkpt lat="45.04746" lon="2.70125">
        <ele>1174.39</ele>
        <time>2021-08-15T17:41:26Z</time>
      </trkpt>
      <trkpt lat="45.04749" lon="2.70134">
        <ele>1172.95</ele>
        <time>2021-08-15T17:41:27Z</time>
      </trkpt>
      <trkpt lat="45.04753" lon="2.70143">
        <ele>1172.95</ele>
        <time>2021-08-15T17:41:28Z</time>
      </trkpt>
      <trkpt lat="45.04757" lon="2.70152">
        <ele>1172.47</ele>
        <time>2021-08-15T17:41:29Z</time>
      </trkpt>
      <trkpt lat="45.04763" lon="2.7016">
        <ele>1171.98</ele>
        <time>2021-08-15T17:41:30Z</time>
      </trkpt>
      <trkpt lat="45.04768" lon="2.70168">
        <ele>1171.5</ele>
        <time>2021-08-15T17:41:31Z</time>
      </trkpt>
      <trkpt lat="45.04774" lon="2.70174">
        <ele>1171.02</ele>
        <time>2021-08-15T17:41:32Z</time>
      </trkpt>
      <trkpt lat="45.04781" lon="2.7018">
        <ele>1170.54</ele>
        <time>2021-08-15T17:41:33Z</time>
      </trkpt>
      <trkpt lat="45.048" lon="2.70199">
        <ele>1169.58</ele>
        <time>2021-08-15T17:41:36Z</time>
      </trkpt>
      <trkpt lat="45.04833" lon="2.70254">
        <ele>1169.58</ele>
        <time>2021-08-15T17:41:44Z</time>
      </trkpt>
      <trkpt lat="45.04836" lon="2.70264">
        <ele>1169.58</ele>
        <time>2021-08-15T17:41:45Z</time>
      </trkpt>
      <trkpt lat="45.04841" lon="2.70278">
        <ele>1171.02</ele>
        <time>2021-08-15T17:41:47Z</time>
      </trkpt>
      <trkpt lat="45.04858" lon="2.70329">
        <ele>1171.5</ele>
        <time>2021-08-15T17:41:56Z</time>
      </trkpt>
      <trkpt lat="45.04866" lon="2.70371">
        <ele>1170.06</ele>
        <time>2021-08-15T17:42:03Z</time>
      </trkpt>
      <trkpt lat="45.04869" lon="2.70397">
        <ele>1168.14</ele>
        <time>2021-08-15T17:42:06Z</time>
      </trkpt>
      <trkpt lat="45.04872" lon="2.70416">
        <ele>1167.18</ele>
        <time>2021-08-15T17:42:08Z</time>
      </trkpt>
      <trkpt lat="45.04872" lon="2.70425">
        <ele>1166.22</ele>
        <time>2021-08-15T17:42:09Z</time>
      </trkpt>
      <trkpt lat="45.04871" lon="2.70432">
        <ele>1165.74</ele>
        <time>2021-08-15T17:42:10Z</time>
      </trkpt>
      <trkpt lat="45.04868" lon="2.7044">
        <ele>1164.29</ele>
        <time>2021-08-15T17:42:11Z</time>
      </trkpt>
      <trkpt lat="45.04864" lon="2.70445">
        <ele>1163.33</ele>
        <time>2021-08-15T17:42:12Z</time>
      </trkpt>
      <trkpt lat="45.04857" lon="2.70447">
        <ele>1162.85</ele>
        <time>2021-08-15T17:42:13Z</time>
      </trkpt>
      <trkpt lat="45.0485" lon="2.70446">
        <ele>1161.89</ele>
        <time>2021-08-15T17:42:14Z</time>
      </trkpt>
      <trkpt lat="45.04842" lon="2.70444">
        <ele>1160.93</ele>
        <time>2021-08-15T17:42:15Z</time>
      </trkpt>
      <trkpt lat="45.04835" lon="2.70441">
        <ele>1159.49</ele>
        <time>2021-08-15T17:42:16Z</time>
      </trkpt>
      <trkpt lat="45.04827" lon="2.70436">
        <ele>1158.05</ele>
        <time>2021-08-15T17:42:17Z</time>
      </trkpt>
      <trkpt lat="45.04819" lon="2.70428">
        <ele>1156.6</ele>
        <time>2021-08-15T17:42:18Z</time>
      </trkpt>
      <trkpt lat="45.04814" lon="2.70419">
        <ele>1155.64</ele>
        <time>2021-08-15T17:42:19Z</time>
      </trkpt>
      <trkpt lat="45.04809" lon="2.70408">
        <ele>1155.16</ele>
        <time>2021-08-15T17:42:20Z</time>
      </trkpt>
      <trkpt lat="45.04805" lon="2.70397">
        <ele>1153.72</ele>
        <time>2021-08-15T17:42:21Z</time>
      </trkpt>
      <trkpt lat="45.048" lon="2.70385">
        <ele>1152.28</ele>
        <time>2021-08-15T17:42:22Z</time>
      </trkpt>
      <trkpt lat="45.04794" lon="2.70377">
        <ele>1151.32</ele>
        <time>2021-08-15T17:42:23Z</time>
      </trkpt>
      <trkpt lat="45.04787" lon="2.70372">
        <ele>1150.84</ele>
        <time>2021-08-15T17:42:24Z</time>
      </trkpt>
      <trkpt lat="45.04777" lon="2.70369">
        <ele>1149.39</ele>
        <time>2021-08-15T17:42:25Z</time>
      </trkpt>
      <trkpt lat="45.04769" lon="2.70371">
        <ele>1147.95</ele>
        <time>2021-08-15T17:42:26Z</time>
      </trkpt>
      <trkpt lat="45.04759" lon="2.70374">
        <ele>1146.99</ele>
        <time>2021-08-15T17:42:27Z</time>
      </trkpt>
      <trkpt lat="45.0475" lon="2.70379">
        <ele>1146.03</ele>
        <time>2021-08-15T17:42:28Z</time>
      </trkpt>
      <trkpt lat="45.04742" lon="2.70384">
        <ele>1144.59</ele>
        <time>2021-08-15T17:42:29Z</time>
      </trkpt>
      <trkpt lat="45.04731" lon="2.70391">
        <ele>1142.66</ele>
        <time>2021-08-15T17:42:30Z</time>
      </trkpt>
      <trkpt lat="45.04722" lon="2.70399">
        <ele>1141.7</ele>
        <time>2021-08-15T17:42:31Z</time>
      </trkpt>
      <trkpt lat="45.04712" lon="2.70408">
        <ele>1140.26</ele>
        <time>2021-08-15T17:42:32Z</time>
      </trkpt>
      <trkpt lat="45.04703" lon="2.70418">
        <ele>1138.34</ele>
        <time>2021-08-15T17:42:33Z</time>
      </trkpt>
      <trkpt lat="45.04679" lon="2.70452">
        <ele>1134.97</ele>
        <time>2021-08-15T17:42:36Z</time>
      </trkpt>
      <trkpt lat="45.04673" lon="2.70464">
        <ele>1134.97</ele>
        <time>2021-08-15T17:42:37Z</time>
      </trkpt>
      <trkpt lat="45.04667" lon="2.70477">
        <ele>1133.53</ele>
        <time>2021-08-15T17:42:38Z</time>
      </trkpt>
      <trkpt lat="45.04664" lon="2.70488">
        <ele>1133.05</ele>
        <time>2021-08-15T17:42:39Z</time>
      </trkpt>
      <trkpt lat="45.04661" lon="2.705">
        <ele>1132.57</ele>
        <time>2021-08-15T17:42:40Z</time>
      </trkpt>
      <trkpt lat="45.0466" lon="2.70514">
        <ele>1131.61</ele>
        <time>2021-08-15T17:42:41Z</time>
      </trkpt>
      <trkpt lat="45.0466" lon="2.70526">
        <ele>1130.65</ele>
        <time>2021-08-15T17:42:42Z</time>
      </trkpt>
      <trkpt lat="45.04661" lon="2.70541">
        <ele>1129.69</ele>
        <time>2021-08-15T17:42:43Z</time>
      </trkpt>
      <trkpt lat="45.04667" lon="2.70581">
        <ele>1127.28</ele>
        <time>2021-08-15T17:42:46Z</time>
      </trkpt>
      <trkpt lat="45.0467" lon="2.70589">
        <ele>1126.8</ele>
        <time>2021-08-15T17:42:47Z</time>
      </trkpt>
      <trkpt lat="45.04675" lon="2.706">
        <ele>1125.84</ele>
        <time>2021-08-15T17:42:48Z</time>
      </trkpt>
      <trkpt lat="45.04681" lon="2.70608">
        <ele>1125.36</ele>
        <time>2021-08-15T17:42:49Z</time>
      </trkpt>
      <trkpt lat="45.04688" lon="2.70616">
        <ele>1123.92</ele>
        <time>2021-08-15T17:42:50Z</time>
      </trkpt>
      <trkpt lat="45.04697" lon="2.70622">
        <ele>1122.48</ele>
        <time>2021-08-15T17:42:51Z</time>
      </trkpt>
      <trkpt lat="45.04707" lon="2.70626">
        <ele>1121.03</ele>
        <time>2021-08-15T17:42:52Z</time>
      </trkpt>
      <trkpt lat="45.04717" lon="2.70628">
        <ele>1120.07</ele>
        <time>2021-08-15T17:42:53Z</time>
      </trkpt>
      <trkpt lat="45.04727" lon="2.70629">
        <ele>1119.11</ele>
        <time>2021-08-15T17:42:54Z</time>
      </trkpt>
      <trkpt lat="45.04751" lon="2.70632">
        <ele>1116.23</ele>
        <time>2021-08-15T17:42:56Z</time>
      </trkpt>
      <trkpt lat="45.04762" lon="2.70635">
        <ele>1114.79</ele>
        <time>2021-08-15T17:42:57Z</time>
      </trkpt>
      <trkpt lat="45.04809" lon="2.70649">
        <ele>1111.9</ele>
        <time>2021-08-15T17:43:01Z</time>
      </trkpt>
      <trkpt lat="45.04821" lon="2.70652">
        <ele>1111.42</ele>
        <time>2021-08-15T17:43:02Z</time>
      </trkpt>
      <trkpt lat="45.04832" lon="2.70658">
        <ele>1110.46</ele>
        <time>2021-08-15T17:43:03Z</time>
      </trkpt>
      <trkpt lat="45.04865" lon="2.70673">
        <ele>1107.1</ele>
        <time>2021-08-15T17:43:06Z</time>
      </trkpt>
      <trkpt lat="45.04875" lon="2.70676">
        <ele>1105.17</ele>
        <time>2021-08-15T17:43:07Z</time>
      </trkpt>
      <trkpt lat="45.04886" lon="2.70677">
        <ele>1103.73</ele>
        <time>2021-08-15T17:43:08Z</time>
      </trkpt>
      <trkpt lat="45.04898" lon="2.70675">
        <ele>1102.29</ele>
        <time>2021-08-15T17:43:09Z</time>
      </trkpt>
      <trkpt lat="45.0491" lon="2.70672">
        <ele>1100.85</ele>
        <time>2021-08-15T17:43:10Z</time>
      </trkpt>
      <trkpt lat="45.04923" lon="2.70668">
        <ele>1098.92</ele>
        <time>2021-08-15T17:43:11Z</time>
      </trkpt>
      <trkpt lat="45.04935" lon="2.70665">
        <ele>1097.48</ele>
        <time>2021-08-15T17:43:12Z</time>
      </trkpt>
      <trkpt lat="45.04947" lon="2.70664">
        <ele>1095.56</ele>
        <time>2021-08-15T17:43:13Z</time>
      </trkpt>
      <trkpt lat="45.04961" lon="2.70665">
        <ele>1094.12</ele>
        <time>2021-08-15T17:43:14Z</time>
      </trkpt>
      <trkpt lat="45.04974" lon="2.70669">
        <ele>1093.16</ele>
        <time>2021-08-15T17:43:15Z</time>
      </trkpt>
      <trkpt lat="45.04987" lon="2.70674">
        <ele>1092.2</ele>
        <time>2021-08-15T17:43:16Z</time>
      </trkpt>
      <trkpt lat="45.05015" lon="2.70686">
        <ele>1088.83</ele>
        <time>2021-08-15T17:43:18Z</time>
      </trkpt>
      <trkpt lat="45.05042" lon="2.70697">
        <ele>1085.47</ele>
        <time>2021-08-15T17:43:20Z</time>
      </trkpt>
      <trkpt lat="45.05076" lon="2.70711">
        <ele>1082.1</ele>
        <time>2021-08-15T17:43:23Z</time>
      </trkpt>
      <trkpt lat="45.05093" lon="2.70717">
        <ele>1080.18</ele>
        <time>2021-08-15T17:43:25Z</time>
      </trkpt>
      <trkpt lat="45.05099" lon="2.70717">
        <ele>1081.14</ele>
        <time>2021-08-15T17:43:26Z</time>
      </trkpt>
      <trkpt lat="45.05104" lon="2.70712">
        <ele>1080.66</ele>
        <time>2021-08-15T17:43:27Z</time>
      </trkpt>
      <trkpt lat="45.05108" lon="2.70705">
        <ele>1080.18</ele>
        <time>2021-08-15T17:43:28Z</time>
      </trkpt>
      <trkpt lat="45.05111" lon="2.70697">
        <ele>1080.18</ele>
        <time>2021-08-15T17:43:29Z</time>
      </trkpt>
      <trkpt lat="45.05114" lon="2.70688">
        <ele>1079.7</ele>
        <time>2021-08-15T17:43:30Z</time>
      </trkpt>
      <trkpt lat="45.05118" lon="2.70681">
        <ele>1079.7</ele>
        <time>2021-08-15T17:43:31Z</time>
      </trkpt>
      <trkpt lat="45.05123" lon="2.70678">
        <ele>1079.7</ele>
        <time>2021-08-15T17:43:32Z</time>
      </trkpt>
      <trkpt lat="45.05129" lon="2.70678">
        <ele>1079.7</ele>
        <time>2021-08-15T17:43:33Z</time>
      </trkpt>
      <trkpt lat="45.05134" lon="2.7068">
        <ele>1078.74</ele>
        <time>2021-08-15T17:43:34Z</time>
      </trkpt>
      <trkpt lat="45.05139" lon="2.70683">
        <ele>1078.74</ele>
        <time>2021-08-15T17:43:35Z</time>
      </trkpt>
      <trkpt lat="45.05144" lon="2.70688">
        <ele>1078.74</ele>
        <time>2021-08-15T17:43:36Z</time>
      </trkpt>
      <trkpt lat="45.05148" lon="2.70693">
        <ele>1078.74</ele>
        <time>2021-08-15T17:43:37Z</time>
      </trkpt>
      <trkpt lat="45.05171" lon="2.70721">
        <ele>1075.85</ele>
        <time>2021-08-15T17:43:41Z</time>
      </trkpt>
      <trkpt lat="45.05177" lon="2.70731">
        <ele>1075.37</ele>
        <time>2021-08-15T17:43:42Z</time>
      </trkpt>
      <trkpt lat="45.05183" lon="2.70741">
        <ele>1073.93</ele>
        <time>2021-08-15T17:43:43Z</time>
      </trkpt>
      <trkpt lat="45.05187" lon="2.70754">
        <ele>1073.45</ele>
        <time>2021-08-15T17:43:44Z</time>
      </trkpt>
      <trkpt lat="45.05192" lon="2.70766">
        <ele>1071.53</ele>
        <time>2021-08-15T17:43:45Z</time>
      </trkpt>
      <trkpt lat="45.05202" lon="2.70794">
        <ele>1068.64</ele>
        <time>2021-08-15T17:43:47Z</time>
      </trkpt>
      <trkpt lat="45.05221" lon="2.70836">
        <ele>1064.8</ele>
        <time>2021-08-15T17:43:50Z</time>
      </trkpt>
      <trkpt lat="45.05241" lon="2.70879">
        <ele>1060.47</ele>
        <time>2021-08-15T17:43:53Z</time>
      </trkpt>
      <trkpt lat="45.05261" lon="2.70916">
        <ele>1057.11</ele>
        <time>2021-08-15T17:43:56Z</time>
      </trkpt>
      <trkpt lat="45.05281" lon="2.70951">
        <ele>1053.26</ele>
        <time>2021-08-15T17:43:59Z</time>
      </trkpt>
      <trkpt lat="45.0529" lon="2.70962">
        <ele>1052.3</ele>
        <time>2021-08-15T17:44:00Z</time>
      </trkpt>
      <trkpt lat="45.05299" lon="2.70971">
        <ele>1050.86</ele>
        <time>2021-08-15T17:44:01Z</time>
      </trkpt>
      <trkpt lat="45.05309" lon="2.70979">
        <ele>1049.42</ele>
        <time>2021-08-15T17:44:02Z</time>
      </trkpt>
      <trkpt lat="45.05342" lon="2.71">
        <ele>1045.57</ele>
        <time>2021-08-15T17:44:05Z</time>
      </trkpt>
      <trkpt lat="45.05352" lon="2.7101">
        <ele>1044.61</ele>
        <time>2021-08-15T17:44:06Z</time>
      </trkpt>
      <trkpt lat="45.05372" lon="2.71031">
        <ele>1041.25</ele>
        <time>2021-08-15T17:44:08Z</time>
      </trkpt>
      <trkpt lat="45.05411" lon="2.71066">
        <ele>1036.92</ele>
        <time>2021-08-15T17:44:12Z</time>
      </trkpt>
      <trkpt lat="45.05443" lon="2.7109">
        <ele>1033.55</ele>
        <time>2021-08-15T17:44:16Z</time>
      </trkpt>
      <trkpt lat="45.05468" lon="2.7111">
        <ele>1029.71</ele>
        <time>2021-08-15T17:44:20Z</time>
      </trkpt>
      <trkpt lat="45.05475" lon="2.71114">
        <ele>1028.27</ele>
        <time>2021-08-15T17:44:21Z</time>
      </trkpt>
      <trkpt lat="45.05483" lon="2.71117">
        <ele>1027.31</ele>
        <time>2021-08-15T17:44:22Z</time>
      </trkpt>
      <trkpt lat="45.0549" lon="2.71117">
        <ele>1025.86</ele>
        <time>2021-08-15T17:44:23Z</time>
      </trkpt>
      <trkpt lat="45.05499" lon="2.71116">
        <ele>1024.9</ele>
        <time>2021-08-15T17:44:24Z</time>
      </trkpt>
      <trkpt lat="45.05509" lon="2.71113">
        <ele>1023.46</ele>
        <time>2021-08-15T17:44:25Z</time>
      </trkpt>
      <trkpt lat="45.05517" lon="2.7111">
        <ele>1022.02</ele>
        <time>2021-08-15T17:44:26Z</time>
      </trkpt>
      <trkpt lat="45.05525" lon="2.71107">
        <ele>1022.02</ele>
        <time>2021-08-15T17:44:27Z</time>
      </trkpt>
      <trkpt lat="45.05532" lon="2.71106">
        <ele>1021.06</ele>
        <time>2021-08-15T17:44:28Z</time>
      </trkpt>
      <trkpt lat="45.05537" lon="2.71108">
        <ele>1021.06</ele>
        <time>2021-08-15T17:44:29Z</time>
      </trkpt>
      <trkpt lat="45.0554" lon="2.71111">
        <ele>1021.06</ele>
        <time>2021-08-15T17:44:30Z</time>
      </trkpt>
      <trkpt lat="45.05542" lon="2.71118">
        <ele>1020.1</ele>
        <time>2021-08-15T17:44:31Z</time>
      </trkpt>
      <trkpt lat="45.05541" lon="2.71126">
        <ele>1019.13</ele>
        <time>2021-08-15T17:44:32Z</time>
      </trkpt>
      <trkpt lat="45.05539" lon="2.71133">
        <ele>1018.65</ele>
        <time>2021-08-15T17:44:33Z</time>
      </trkpt>
      <trkpt lat="45.05536" lon="2.71146">
        <ele>1018.17</ele>
        <time>2021-08-15T17:44:35Z</time>
      </trkpt>
      <trkpt lat="45.0553" lon="2.71156">
        <ele>1018.17</ele>
        <time>2021-08-15T17:44:39Z</time>
      </trkpt>
      <trkpt lat="45.05528" lon="2.71155">
        <ele>1017.69</ele>
        <time>2021-08-15T17:44:44Z</time>
      </trkpt>
      <trkpt lat="45.05511" lon="2.71151">
        <ele>1017.21</ele>
        <time>2021-08-15T17:44:50Z</time>
      </trkpt>
      <trkpt lat="45.05469" lon="2.7114">
        <ele>1015.77</ele>
        <time>2021-08-15T17:44:59Z</time>
      </trkpt>
      <trkpt lat="45.05425" lon="2.71134">
        <ele>1013.85</ele>
        <time>2021-08-15T17:45:07Z</time>
      </trkpt>
      <trkpt lat="45.0542" lon="2.71135">
        <ele>1013.85</ele>
        <time>2021-08-15T17:45:08Z</time>
      </trkpt>
      <trkpt lat="45.05416" lon="2.71138">
        <ele>1013.85</ele>
        <time>2021-08-15T17:45:09Z</time>
      </trkpt>
      <trkpt lat="45.05413" lon="2.7114">
        <ele>1013.85</ele>
        <time>2021-08-15T17:45:10Z</time>
      </trkpt>
      <trkpt lat="45.05409" lon="2.71142">
        <ele>1013.85</ele>
        <time>2021-08-15T17:45:11Z</time>
      </trkpt>
      <trkpt lat="45.05391" lon="2.71147">
        <ele>1011.44</ele>
        <time>2021-08-15T17:45:17Z</time>
      </trkpt>
      <trkpt lat="45.05386" lon="2.71147">
        <ele>1010.96</ele>
        <time>2021-08-15T17:45:18Z</time>
      </trkpt>
      <trkpt lat="45.05369" lon="2.71151">
        <ele>1007.6</ele>
        <time>2021-08-15T17:45:21Z</time>
      </trkpt>
      <trkpt lat="45.05335" lon="2.71163">
        <ele>1005.2</ele>
        <time>2021-08-15T17:45:27Z</time>
      </trkpt>
      <trkpt lat="45.05298" lon="2.71158">
        <ele>1003.75</ele>
        <time>2021-08-15T17:45:34Z</time>
      </trkpt>
      <trkpt lat="45.05285" lon="2.71159">
        <ele>1003.27</ele>
        <time>2021-08-15T17:45:39Z</time>
      </trkpt>
      <trkpt lat="45.05281" lon="2.7116">
        <ele>1002.79</ele>
        <time>2021-08-15T17:45:42Z</time>
      </trkpt>
      <trkpt lat="45.05278" lon="2.71157">
        <ele>1002.79</ele>
        <time>2021-08-15T17:45:48Z</time>
      </trkpt>
      <trkpt lat="45.05278" lon="2.71156">
        <ele>1002.79</ele>
        <time>2021-08-15T17:45:57Z</time>
      </trkpt>
      <trkpt lat="45.05278" lon="2.71156">
        <ele>1002.79</ele>
        <time>2021-08-15T17:46:12Z</time>
      </trkpt>
      <trkpt lat="45.05278" lon="2.71155">
        <ele>1002.31</ele>
        <time>2021-08-15T17:46:29Z</time>
      </trkpt>
      <trkpt lat="45.05277" lon="2.71154">
        <ele>1002.31</ele>
        <time>2021-08-15T17:46:44Z</time>
      </trkpt>
      <trkpt lat="45.05277" lon="2.71153">
        <ele>1002.31</ele>
        <time>2021-08-15T17:47:00Z</time>
      </trkpt>
      <trkpt lat="45.05277" lon="2.71154">
        <ele>1002.31</ele>
        <time>2021-08-15T17:47:13Z</time>
      </trkpt>
      <trkpt lat="45.05276" lon="2.71155">
        <ele>1001.83</ele>
        <time>2021-08-15T17:47:27Z</time>
      </trkpt>
      <trkpt lat="45.05277" lon="2.71154">
        <ele>1001.83</ele>
        <time>2021-08-15T17:47:45Z</time>
      </trkpt>
      <trkpt lat="45.05277" lon="2.71155">
        <ele>1001.83</ele>
        <time>2021-08-15T17:48:00Z</time>
      </trkpt>
      <trkpt lat="45.05277" lon="2.71157">
        <ele>1001.83</ele>
        <time>2021-08-15T17:48:10Z</time>
      </trkpt>
      <trkpt lat="45.05278" lon="2.71158">
        <ele>1001.83</ele>
        <time>2021-08-15T17:48:26Z</time>
      </trkpt>
      <trkpt lat="45.05278" lon="2.71158">
        <ele>1001.35</ele>
        <time>2021-08-15T17:48:37Z</time>
      </trkpt>
      <trkpt lat="45.05278" lon="2.71159">
        <ele>1001.35</ele>
        <time>2021-08-15T17:48:52Z</time>
      </trkpt>
      <trkpt lat="45.05279" lon="2.71159">
        <ele>1001.35</ele>
        <time>2021-08-15T17:49:03Z</time>
      </trkpt>
      <trkpt lat="45.05279" lon="2.71159">
        <ele>1001.35</ele>
        <time>2021-08-15T17:49:15Z</time>
      </trkpt>
      <trkpt lat="45.05279" lon="2.71159">
        <ele>1001.35</ele>
        <time>2021-08-15T17:49:24Z</time>
      </trkpt>
      <trkpt lat="45.05279" lon="2.71159">
        <ele>1001.35</ele>
        <time>2021-08-15T17:49:37Z</time>
      </trkpt>
      <trkpt lat="45.05278" lon="2.71159">
        <ele>1000.87</ele>
        <time>2021-08-15T17:49:51Z</time>
      </trkpt>
      <trkpt lat="45.05277" lon="2.71159">
        <ele>1000.87</ele>
        <time>2021-08-15T17:50:04Z</time>
      </trkpt>
      <trkpt lat="45.05277" lon="2.71161">
        <ele>1000.87</ele>
        <time>2021-08-15T17:50:19Z</time>
      </trkpt>
      <trkpt lat="45.05279" lon="2.71164">
        <ele>1000.87</ele>
        <time>2021-08-15T17:50:20Z</time>
      </trkpt>
      <trkpt lat="45.05279" lon="2.71164">
        <ele>1000.87</ele>
        <time>2021-08-15T17:50:23Z</time>
      </trkpt>
      <trkpt lat="45.05278" lon="2.71164">
        <ele>1000.87</ele>
        <time>2021-08-15T17:50:25Z</time>
      </trkpt>
      <trkpt lat="45.05275" lon="2.71162">
        <ele>1000.87</ele>
        <time>2021-08-15T17:50:32Z</time>
      </trkpt>
      <trkpt lat="45.05274" lon="2.71161">
        <ele>1000.87</ele>
        <time>2021-08-15T17:50:51Z</time>
      </trkpt>
      <trkpt lat="45.05273" lon="2.71159">
        <ele>1000.39</ele>
        <time>2021-08-15T17:51:12Z</time>
      </trkpt>
      <trkpt lat="45.05274" lon="2.71159">
        <ele>1000.39</ele>
        <time>2021-08-15T17:51:33Z</time>
      </trkpt>
      <trkpt lat="45.05274" lon="2.71159">
        <ele>1000.39</ele>
        <time>2021-08-15T17:51:46Z</time>
      </trkpt>
      <trkpt lat="45.05275" lon="2.71158">
        <ele>1000.39</ele>
        <time>2021-08-15T17:51:59Z</time>
      </trkpt>
      <trkpt lat="45.05275" lon="2.71157">
        <ele>1000.39</ele>
        <time>2021-08-15T17:52:12Z</time>
      </trkpt>
      <trkpt lat="45.05273" lon="2.71157">
        <ele>999.91</ele>
        <time>2021-08-15T17:52:21Z</time>
      </trkpt>
      <trkpt lat="45.05271" lon="2.71157">
        <ele>999.91</ele>
        <time>2021-08-15T17:52:22Z</time>
      </trkpt>
      <trkpt lat="45.0527" lon="2.71157">
        <ele>999.91</ele>
        <time>2021-08-15T17:52:23Z</time>
      </trkpt>
      <trkpt lat="45.05268" lon="2.71156">
        <ele>999.91</ele>
        <time>2021-08-15T17:52:24Z</time>
      </trkpt>
      <trkpt lat="45.05265" lon="2.71155">
        <ele>999.91</ele>
        <time>2021-08-15T17:52:25Z</time>
      </trkpt>
      <trkpt lat="45.05258" lon="2.71152">
        <ele>999.91</ele>
        <time>2021-08-15T17:52:29Z</time>
      </trkpt>
      <trkpt lat="45.05258" lon="2.71153">
        <ele>999.91</ele>
        <time>2021-08-15T17:52:30Z</time>
      </trkpt>
      <trkpt lat="45.05259" lon="2.71154">
        <ele>999.91</ele>
        <time>2021-08-15T17:52:31Z</time>
      </trkpt>
      <trkpt lat="45.05261" lon="2.71155">
        <ele>999.91</ele>
        <time>2021-08-15T17:52:32Z</time>
      </trkpt>
      <trkpt lat="45.05263" lon="2.71155">
        <ele>999.91</ele>
        <time>2021-08-15T17:52:33Z</time>
      </trkpt>
      <trkpt lat="45.05274" lon="2.71159">
        <ele>999.91</ele>
        <time>2021-08-15T17:52:37Z</time>
      </trkpt>
      <trkpt lat="45.05276" lon="2.71162">
        <ele>999.91</ele>
        <time>2021-08-15T17:52:38Z</time>
      </trkpt>
      <trkpt lat="45.05277" lon="2.71166">
        <ele>999.91</ele>
        <time>2021-08-15T17:52:39Z</time>
      </trkpt>
      <trkpt lat="45.05278" lon="2.7117">
        <ele>999.91</ele>
        <time>2021-08-15T17:52:40Z</time>
      </trkpt>
      <trkpt lat="45.05277" lon="2.71175">
        <ele>999.91</ele>
        <time>2021-08-15T17:52:41Z</time>
      </trkpt>
      <trkpt lat="45.05275" lon="2.7118">
        <ele>999.91</ele>
        <time>2021-08-15T17:52:42Z</time>
      </trkpt>
      <trkpt lat="45.05274" lon="2.71185">
        <ele>999.91</ele>
        <time>2021-08-15T17:52:43Z</time>
      </trkpt>
      <trkpt lat="45.05273" lon="2.71189">
        <ele>999.91</ele>
        <time>2021-08-15T17:52:44Z</time>
      </trkpt>
      <trkpt lat="45.05272" lon="2.71193">
        <ele>999.91</ele>
        <time>2021-08-15T17:52:45Z</time>
      </trkpt>
      <trkpt lat="45.0527" lon="2.71198">
        <ele>999.91</ele>
        <time>2021-08-15T17:52:46Z</time>
      </trkpt>
      <trkpt lat="45.05267" lon="2.71214">
        <ele>997.99</ele>
        <time>2021-08-15T17:52:49Z</time>
      </trkpt>
      <trkpt lat="45.05267" lon="2.7122">
        <ele>997.02</ele>
        <time>2021-08-15T17:52:50Z</time>
      </trkpt>
      <trkpt lat="45.05269" lon="2.71226">
        <ele>996.06</ele>
        <time>2021-08-15T17:52:51Z</time>
      </trkpt>
      <trkpt lat="45.05272" lon="2.71231">
        <ele>996.06</ele>
        <time>2021-08-15T17:52:52Z</time>
      </trkpt>
      <trkpt lat="45.05276" lon="2.71235">
        <ele>995.58</ele>
        <time>2021-08-15T17:52:53Z</time>
      </trkpt>
      <trkpt lat="45.05281" lon="2.71238">
        <ele>994.62</ele>
        <time>2021-08-15T17:52:54Z</time>
      </trkpt>
      <trkpt lat="45.05287" lon="2.7124">
        <ele>994.14</ele>
        <time>2021-08-15T17:52:55Z</time>
      </trkpt>
      <trkpt lat="45.05309" lon="2.71251">
        <ele>990.3</ele>
        <time>2021-08-15T17:52:59Z</time>
      </trkpt>
      <trkpt lat="45.05315" lon="2.71256">
        <ele>989.33</ele>
        <time>2021-08-15T17:53:00Z</time>
      </trkpt>
      <trkpt lat="45.05318" lon="2.71262">
        <ele>988.37</ele>
        <time>2021-08-15T17:53:01Z</time>
      </trkpt>
      <trkpt lat="45.0532" lon="2.71268">
        <ele>988.37</ele>
        <time>2021-08-15T17:53:02Z</time>
      </trkpt>
      <trkpt lat="45.0532" lon="2.71274">
        <ele>987.89</ele>
        <time>2021-08-15T17:53:03Z</time>
      </trkpt>
      <trkpt lat="45.0532" lon="2.7128">
        <ele>987.89</ele>
        <time>2021-08-15T17:53:04Z</time>
      </trkpt>
      <trkpt lat="45.05315" lon="2.71319">
        <ele>986.93</ele>
        <time>2021-08-15T17:53:11Z</time>
      </trkpt>
      <trkpt lat="45.05309" lon="2.7138">
        <ele>985.49</ele>
        <time>2021-08-15T17:53:20Z</time>
      </trkpt>
      <trkpt lat="45.05306" lon="2.71387">
        <ele>985.49</ele>
        <time>2021-08-15T17:53:21Z</time>
      </trkpt>
      <trkpt lat="45.05303" lon="2.71392">
        <ele>985.49</ele>
        <time>2021-08-15T17:53:22Z</time>
      </trkpt>
      <trkpt lat="45.05299" lon="2.71396">
        <ele>985.49</ele>
        <time>2021-08-15T17:53:23Z</time>
      </trkpt>
      <trkpt lat="45.05294" lon="2.71398">
        <ele>985.49</ele>
        <time>2021-08-15T17:53:24Z</time>
      </trkpt>
      <trkpt lat="45.05289" lon="2.71398">
        <ele>985.49</ele>
        <time>2021-08-15T17:53:25Z</time>
      </trkpt>
      <trkpt lat="45.05284" lon="2.71398">
        <ele>985.49</ele>
        <time>2021-08-15T17:53:26Z</time>
      </trkpt>
      <trkpt lat="45.05279" lon="2.71397">
        <ele>985.49</ele>
        <time>2021-08-15T17:53:27Z</time>
      </trkpt>
      <trkpt lat="45.05275" lon="2.71396">
        <ele>985.49</ele>
        <time>2021-08-15T17:53:28Z</time>
      </trkpt>
      <trkpt lat="45.05223" lon="2.71381">
        <ele>985.01</ele>
        <time>2021-08-15T17:53:38Z</time>
      </trkpt>
      <trkpt lat="45.05178" lon="2.7137">
        <ele>986.45</ele>
        <time>2021-08-15T17:53:48Z</time>
      </trkpt>
      <trkpt lat="45.05147" lon="2.71365">
        <ele>986.93</ele>
        <time>2021-08-15T17:53:57Z</time>
      </trkpt>
      <trkpt lat="45.05125" lon="2.7136">
        <ele>988.37</ele>
        <time>2021-08-15T17:54:05Z</time>
      </trkpt>
      <trkpt lat="45.05101" lon="2.71356">
        <ele>989.81</ele>
        <time>2021-08-15T17:54:15Z</time>
      </trkpt>
      <trkpt lat="45.05072" lon="2.71348">
        <ele>990.3</ele>
        <time>2021-08-15T17:54:25Z</time>
      </trkpt>
      <trkpt lat="45.05056" lon="2.71344">
        <ele>990.3</ele>
        <time>2021-08-15T17:54:29Z</time>
      </trkpt>
      <trkpt lat="45.05044" lon="2.71341">
        <ele>988.85</ele>
        <time>2021-08-15T17:54:32Z</time>
      </trkpt>
      <trkpt lat="45.05" lon="2.71331">
        <ele>987.41</ele>
        <time>2021-08-15T17:54:41Z</time>
      </trkpt>
      <trkpt lat="45.04951" lon="2.71321">
        <ele>985.01</ele>
        <time>2021-08-15T17:54:49Z</time>
      </trkpt>
      <trkpt lat="45.04944" lon="2.7132">
        <ele>985.01</ele>
        <time>2021-08-15T17:54:50Z</time>
      </trkpt>
      <trkpt lat="45.04878" lon="2.71308">
        <ele>983.57</ele>
        <time>2021-08-15T17:55:01Z</time>
      </trkpt>
      <trkpt lat="45.0484" lon="2.71286">
        <ele>984.05</ele>
        <time>2021-08-15T17:55:09Z</time>
      </trkpt>
      <trkpt lat="45.04831" lon="2.71281">
        <ele>985.49</ele>
        <time>2021-08-15T17:55:11Z</time>
      </trkpt>
      <trkpt lat="45.04827" lon="2.71279">
        <ele>985.97</ele>
        <time>2021-08-15T17:55:12Z</time>
      </trkpt>
      <trkpt lat="45.04823" lon="2.71278">
        <ele>985.97</ele>
        <time>2021-08-15T17:55:13Z</time>
      </trkpt>
      <trkpt lat="45.04819" lon="2.71277">
        <ele>986.45</ele>
        <time>2021-08-15T17:55:14Z</time>
      </trkpt>
      <trkpt lat="45.04816" lon="2.71277">
        <ele>986.45</ele>
        <time>2021-08-15T17:55:15Z</time>
      </trkpt>
      <trkpt lat="45.04785" lon="2.71282">
        <ele>986.93</ele>
        <time>2021-08-15T17:55:23Z</time>
      </trkpt>
      <trkpt lat="45.04767" lon="2.71281">
        <ele>987.41</ele>
        <time>2021-08-15T17:55:28Z</time>
      </trkpt>
      <trkpt lat="45.04741" lon="2.71277">
        <ele>988.85</ele>
        <time>2021-08-15T17:55:36Z</time>
      </trkpt>
      <trkpt lat="45.04719" lon="2.71277">
        <ele>990.3</ele>
        <time>2021-08-15T17:55:45Z</time>
      </trkpt>
      <trkpt lat="45.04695" lon="2.71277">
        <ele>990.3</ele>
        <time>2021-08-15T17:55:55Z</time>
      </trkpt>
      <trkpt lat="45.04676" lon="2.71279">
        <ele>991.26</ele>
        <time>2021-08-15T17:56:03Z</time>
      </trkpt>
      <trkpt lat="45.04651" lon="2.71285">
        <ele>992.7</ele>
        <time>2021-08-15T17:56:13Z</time>
      </trkpt>
      <trkpt lat="45.04635" lon="2.71288">
        <ele>993.66</ele>
        <time>2021-08-15T17:56:22Z</time>
      </trkpt>
      <trkpt lat="45.04621" lon="2.7129">
        <ele>994.14</ele>
        <time>2021-08-15T17:56:30Z</time>
      </trkpt>
      <trkpt lat="45.04606" lon="2.71294">
        <ele>995.58</ele>
        <time>2021-08-15T17:56:39Z</time>
      </trkpt>
      <trkpt lat="45.04594" lon="2.71305">
        <ele>997.02</ele>
        <time>2021-08-15T17:56:48Z</time>
      </trkpt>
      <trkpt lat="45.04582" lon="2.71313">
        <ele>997.99</ele>
        <time>2021-08-15T17:56:58Z</time>
      </trkpt>
      <trkpt lat="45.0457" lon="2.71315">
        <ele>999.43</ele>
        <time>2021-08-15T17:57:07Z</time>
      </trkpt>
      <trkpt lat="45.04561" lon="2.71318">
        <ele>1000.39</ele>
        <time>2021-08-15T17:57:13Z</time>
      </trkpt>
      <trkpt lat="45.04552" lon="2.71325">
        <ele>1001.35</ele>
        <time>2021-08-15T17:57:20Z</time>
      </trkpt>
      <trkpt lat="45.04544" lon="2.71338">
        <ele>1002.31</ele>
        <time>2021-08-15T17:57:27Z</time>
      </trkpt>
      <trkpt lat="45.04525" lon="2.71351">
        <ele>1002.79</ele>
        <time>2021-08-15T17:57:36Z</time>
      </trkpt>
      <trkpt lat="45.04497" lon="2.71353">
        <ele>1003.27</ele>
        <time>2021-08-15T17:57:45Z</time>
      </trkpt>
      <trkpt lat="45.04472" lon="2.71359">
        <ele>1003.27</ele>
        <time>2021-08-15T17:57:52Z</time>
      </trkpt>
      <trkpt lat="45.04462" lon="2.71381">
        <ele>1004.23</ele>
        <time>2021-08-15T17:57:58Z</time>
      </trkpt>
      <trkpt lat="45.04457" lon="2.71392">
        <ele>1002.31</ele>
        <time>2021-08-15T17:58:00Z</time>
      </trkpt>
      <trkpt lat="45.04453" lon="2.71398">
        <ele>1002.31</ele>
        <time>2021-08-15T17:58:01Z</time>
      </trkpt>
      <trkpt lat="45.04448" lon="2.71401">
        <ele>1002.31</ele>
        <time>2021-08-15T17:58:02Z</time>
      </trkpt>
      <trkpt lat="45.04444" lon="2.71402">
        <ele>1002.31</ele>
        <time>2021-08-15T17:58:03Z</time>
      </trkpt>
      <trkpt lat="45.04439" lon="2.71401">
        <ele>1002.31</ele>
        <time>2021-08-15T17:58:04Z</time>
      </trkpt>
      <trkpt lat="45.04435" lon="2.714">
        <ele>1002.31</ele>
        <time>2021-08-15T17:58:05Z</time>
      </trkpt>
      <trkpt lat="45.04432" lon="2.71399">
        <ele>1002.31</ele>
        <time>2021-08-15T17:58:06Z</time>
      </trkpt>
      <trkpt lat="45.04429" lon="2.71397">
        <ele>1003.27</ele>
        <time>2021-08-15T17:58:07Z</time>
      </trkpt>
      <trkpt lat="45.04414" lon="2.71387">
        <ele>1004.72</ele>
        <time>2021-08-15T17:58:15Z</time>
      </trkpt>
      <trkpt lat="45.04396" lon="2.71381">
        <ele>1006.16</ele>
        <time>2021-08-15T17:58:26Z</time>
      </trkpt>
      <trkpt lat="45.04378" lon="2.71376">
        <ele>1008.08</ele>
        <time>2021-08-15T17:58:38Z</time>
      </trkpt>
      <trkpt lat="45.04365" lon="2.71374">
        <ele>1010</ele>
        <time>2021-08-15T17:58:47Z</time>
      </trkpt>
      <trkpt lat="45.04351" lon="2.71368">
        <ele>1010</ele>
        <time>2021-08-15T17:58:56Z</time>
      </trkpt>
      <trkpt lat="45.04329" lon="2.71357">
        <ele>1010</ele>
        <time>2021-08-15T17:59:06Z</time>
      </trkpt>
      <trkpt lat="45.04306" lon="2.71345">
        <ele>1010.96</ele>
        <time>2021-08-15T17:59:15Z</time>
      </trkpt>
      <trkpt lat="45.0429" lon="2.71343">
        <ele>1012.41</ele>
        <time>2021-08-15T17:59:25Z</time>
      </trkpt>
      <trkpt lat="45.04277" lon="2.71342">
        <ele>1013.85</ele>
        <time>2021-08-15T17:59:35Z</time>
      </trkpt>
      <trkpt lat="45.04263" lon="2.7134">
        <ele>1014.33</ele>
        <time>2021-08-15T17:59:44Z</time>
      </trkpt>
      <trkpt lat="45.04244" lon="2.71337">
        <ele>1015.77</ele>
        <time>2021-08-15T17:59:54Z</time>
      </trkpt>
      <trkpt lat="45.04221" lon="2.71341">
        <ele>1016.73</ele>
        <time>2021-08-15T18:00:05Z</time>
      </trkpt>
      <trkpt lat="45.04206" lon="2.71339">
        <ele>1017.21</ele>
        <time>2021-08-15T18:00:13Z</time>
      </trkpt>
      <trkpt lat="45.04191" lon="2.71336">
        <ele>1017.69</ele>
        <time>2021-08-15T18:00:21Z</time>
      </trkpt>
      <trkpt lat="45.04181" lon="2.71327">
        <ele>1018.17</ele>
        <time>2021-08-15T18:00:27Z</time>
      </trkpt>
      <trkpt lat="45.04178" lon="2.71315">
        <ele>1016.73</ele>
        <time>2021-08-15T18:00:29Z</time>
      </trkpt>
      <trkpt lat="45.04176" lon="2.71309">
        <ele>1016.25</ele>
        <time>2021-08-15T18:00:30Z</time>
      </trkpt>
      <trkpt lat="45.04172" lon="2.71303">
        <ele>1015.29</ele>
        <time>2021-08-15T18:00:31Z</time>
      </trkpt>
      <trkpt lat="45.04167" lon="2.71299">
        <ele>1014.81</ele>
        <time>2021-08-15T18:00:32Z</time>
      </trkpt>
      <trkpt lat="45.04161" lon="2.71297">
        <ele>1013.85</ele>
        <time>2021-08-15T18:00:33Z</time>
      </trkpt>
      <trkpt lat="45.04154" lon="2.71295">
        <ele>1012.89</ele>
        <time>2021-08-15T18:00:34Z</time>
      </trkpt>
      <trkpt lat="45.04147" lon="2.71294">
        <ele>1012.41</ele>
        <time>2021-08-15T18:00:35Z</time>
      </trkpt>
      <trkpt lat="45.04117" lon="2.71289">
        <ele>1009.52</ele>
        <time>2021-08-15T18:00:39Z</time>
      </trkpt>
      <trkpt lat="45.04102" lon="2.71288">
        <ele>1007.6</ele>
        <time>2021-08-15T18:00:41Z</time>
      </trkpt>
      <trkpt lat="45.04093" lon="2.71289">
        <ele>1006.64</ele>
        <time>2021-08-15T18:00:42Z</time>
      </trkpt>
      <trkpt lat="45.04085" lon="2.71292">
        <ele>1006.16</ele>
        <time>2021-08-15T18:00:43Z</time>
      </trkpt>
      <trkpt lat="45.04076" lon="2.71296">
        <ele>1005.68</ele>
        <time>2021-08-15T18:00:44Z</time>
      </trkpt>
      <trkpt lat="45.04069" lon="2.71301">
        <ele>1005.68</ele>
        <time>2021-08-15T18:00:45Z</time>
      </trkpt>
      <trkpt lat="45.04035" lon="2.7132">
        <ele>1006.64</ele>
        <time>2021-08-15T18:00:50Z</time>
      </trkpt>
      <trkpt lat="45.04029" lon="2.71322">
        <ele>1006.64</ele>
        <time>2021-08-15T18:00:51Z</time>
      </trkpt>
      <trkpt lat="45.04024" lon="2.71322">
        <ele>1007.6</ele>
        <time>2021-08-15T18:00:52Z</time>
      </trkpt>
      <trkpt lat="45.04003" lon="2.71323">
        <ele>1008.08</ele>
        <time>2021-08-15T18:00:57Z</time>
      </trkpt>
      <trkpt lat="45.03992" lon="2.71324">
        <ele>1008.08</ele>
        <time>2021-08-15T18:01:00Z</time>
      </trkpt>
      <trkpt lat="45.03987" lon="2.71324">
        <ele>1008.08</ele>
        <time>2021-08-15T18:01:01Z</time>
      </trkpt>
      <trkpt lat="45.03983" lon="2.71323">
        <ele>1008.08</ele>
        <time>2021-08-15T18:01:02Z</time>
      </trkpt>
      <trkpt lat="45.03977" lon="2.71319">
        <ele>1006.64</ele>
        <time>2021-08-15T18:01:03Z</time>
      </trkpt>
      <trkpt lat="45.03973" lon="2.71313">
        <ele>1006.64</ele>
        <time>2021-08-15T18:01:04Z</time>
      </trkpt>
      <trkpt lat="45.0397" lon="2.71305">
        <ele>1005.68</ele>
        <time>2021-08-15T18:01:05Z</time>
      </trkpt>
      <trkpt lat="45.03967" lon="2.71297">
        <ele>1005.2</ele>
        <time>2021-08-15T18:01:06Z</time>
      </trkpt>
      <trkpt lat="45.0395" lon="2.71247">
        <ele>1002.31</ele>
        <time>2021-08-15T18:01:11Z</time>
      </trkpt>
      <trkpt lat="45.03936" lon="2.71202">
        <ele>1000.87</ele>
        <time>2021-08-15T18:01:15Z</time>
      </trkpt>
      <trkpt lat="45.03931" lon="2.71192">
        <ele>1000.39</ele>
        <time>2021-08-15T18:01:16Z</time>
      </trkpt>
      <trkpt lat="45.03925" lon="2.71183">
        <ele>1000.39</ele>
        <time>2021-08-15T18:01:17Z</time>
      </trkpt>
      <trkpt lat="45.03918" lon="2.71176">
        <ele>999.91</ele>
        <time>2021-08-15T18:01:18Z</time>
      </trkpt>
      <trkpt lat="45.03911" lon="2.7117">
        <ele>999.43</ele>
        <time>2021-08-15T18:01:19Z</time>
      </trkpt>
      <trkpt lat="45.03876" lon="2.7114">
        <ele>998.47</ele>
        <time>2021-08-15T18:01:24Z</time>
      </trkpt>
      <trkpt lat="45.03849" lon="2.71113">
        <ele>998.47</ele>
        <time>2021-08-15T18:01:29Z</time>
      </trkpt>
      <trkpt lat="45.03836" lon="2.71101">
        <ele>999.91</ele>
        <time>2021-08-15T18:01:32Z</time>
      </trkpt>
      <trkpt lat="45.03818" lon="2.71089">
        <ele>1000.87</ele>
        <time>2021-08-15T18:01:38Z</time>
      </trkpt>
      <trkpt lat="45.03802" lon="2.71078">
        <ele>1002.79</ele>
        <time>2021-08-15T18:01:47Z</time>
      </trkpt>
      <trkpt lat="45.03787" lon="2.71071">
        <ele>1003.75</ele>
        <time>2021-08-15T18:01:56Z</time>
      </trkpt>
      <trkpt lat="45.03772" lon="2.71062">
        <ele>1005.2</ele>
        <time>2021-08-15T18:02:07Z</time>
      </trkpt>
      <trkpt lat="45.03762" lon="2.71055">
        <ele>1006.16</ele>
        <time>2021-08-15T18:02:16Z</time>
      </trkpt>
      <trkpt lat="45.03751" lon="2.71047">
        <ele>1007.6</ele>
        <time>2021-08-15T18:02:25Z</time>
      </trkpt>
      <trkpt lat="45.03744" lon="2.7104">
        <ele>1008.56</ele>
        <time>2021-08-15T18:02:33Z</time>
      </trkpt>
      <trkpt lat="45.03743" lon="2.71039">
        <ele>1008.56</ele>
        <time>2021-08-15T18:02:34Z</time>
      </trkpt>
      <trkpt lat="45.03742" lon="2.71038">
        <ele>1008.56</ele>
        <time>2021-08-15T18:02:35Z</time>
      </trkpt>
      <trkpt lat="45.03736" lon="2.71028">
        <ele>1010</ele>
        <time>2021-08-15T18:02:44Z</time>
      </trkpt>
      <trkpt lat="45.03733" lon="2.71024">
        <ele>1010.48</ele>
        <time>2021-08-15T18:02:48Z</time>
      </trkpt>
      <trkpt lat="45.03732" lon="2.71023">
        <ele>1010.48</ele>
        <time>2021-08-15T18:02:49Z</time>
      </trkpt>
      <trkpt lat="45.03731" lon="2.71022">
        <ele>1010.48</ele>
        <time>2021-08-15T18:02:50Z</time>
      </trkpt>
      <trkpt lat="45.03729" lon="2.71017">
        <ele>1010.96</ele>
        <time>2021-08-15T18:02:53Z</time>
      </trkpt>
      <trkpt lat="45.03728" lon="2.71016">
        <ele>1010.96</ele>
        <time>2021-08-15T18:02:54Z</time>
      </trkpt>
      <trkpt lat="45.03727" lon="2.71015">
        <ele>1010.96</ele>
        <time>2021-08-15T18:02:55Z</time>
      </trkpt>
      <trkpt lat="45.0372" lon="2.71004">
        <ele>1011.93</ele>
        <time>2021-08-15T18:03:03Z</time>
      </trkpt>
      <trkpt lat="45.03714" lon="2.70994">
        <ele>1012.89</ele>
        <time>2021-08-15T18:03:11Z</time>
      </trkpt>
      <trkpt lat="45.0371" lon="2.70984">
        <ele>1013.37</ele>
        <time>2021-08-15T18:03:19Z</time>
      </trkpt>
      <trkpt lat="45.03705" lon="2.70975">
        <ele>1013.85</ele>
        <time>2021-08-15T18:03:26Z</time>
      </trkpt>
      <trkpt lat="45.03697" lon="2.70964">
        <ele>1014.81</ele>
        <time>2021-08-15T18:03:34Z</time>
      </trkpt>
      <trkpt lat="45.03692" lon="2.70957">
        <ele>1015.77</ele>
        <time>2021-08-15T18:03:40Z</time>
      </trkpt>
      <trkpt lat="45.03687" lon="2.70951">
        <ele>1016.73</ele>
        <time>2021-08-15T18:03:46Z</time>
      </trkpt>
      <trkpt lat="45.03679" lon="2.7094">
        <ele>1017.21</ele>
        <time>2021-08-15T18:03:54Z</time>
      </trkpt>
      <trkpt lat="45.0367" lon="2.70925">
        <ele>1018.65</ele>
        <time>2021-08-15T18:04:04Z</time>
      </trkpt>
      <trkpt lat="45.03653" lon="2.70914">
        <ele>1020.1</ele>
        <time>2021-08-15T18:04:13Z</time>
      </trkpt>
      <trkpt lat="45.03646" lon="2.70908">
        <ele>1020.58</ele>
        <time>2021-08-15T18:04:17Z</time>
      </trkpt>
      <trkpt lat="45.03644" lon="2.70907">
        <ele>1020.58</ele>
        <time>2021-08-15T18:04:18Z</time>
      </trkpt>
      <trkpt lat="45.03627" lon="2.709">
        <ele>1022.02</ele>
        <time>2021-08-15T18:04:27Z</time>
      </trkpt>
      <trkpt lat="45.03625" lon="2.70899">
        <ele>1022.02</ele>
        <time>2021-08-15T18:04:28Z</time>
      </trkpt>
      <trkpt lat="45.03623" lon="2.70899">
        <ele>1022.5</ele>
        <time>2021-08-15T18:04:29Z</time>
      </trkpt>
      <trkpt lat="45.03621" lon="2.709">
        <ele>1022.5</ele>
        <time>2021-08-15T18:04:30Z</time>
      </trkpt>
      <trkpt lat="45.03619" lon="2.70901">
        <ele>1022.5</ele>
        <time>2021-08-15T18:04:31Z</time>
      </trkpt>
      <trkpt lat="45.03617" lon="2.70902">
        <ele>1022.5</ele>
        <time>2021-08-15T18:04:32Z</time>
      </trkpt>
      <trkpt lat="45.03615" lon="2.70903">
        <ele>1022.98</ele>
        <time>2021-08-15T18:04:33Z</time>
      </trkpt>
      <trkpt lat="45.03613" lon="2.70903">
        <ele>1022.5</ele>
        <time>2021-08-15T18:04:34Z</time>
      </trkpt>
      <trkpt lat="45.0361" lon="2.70904">
        <ele>1022.5</ele>
        <time>2021-08-15T18:04:35Z</time>
      </trkpt>
      <trkpt lat="45.0359" lon="2.70907">
        <ele>1023.46</ele>
        <time>2021-08-15T18:04:45Z</time>
      </trkpt>
      <trkpt lat="45.0357" lon="2.70909">
        <ele>1026.34</ele>
        <time>2021-08-15T18:04:56Z</time>
      </trkpt>
      <trkpt lat="45.03552" lon="2.70914">
        <ele>1027.31</ele>
        <time>2021-08-15T18:05:05Z</time>
      </trkpt>
      <trkpt lat="45.03529" lon="2.70921">
        <ele>1027.79</ele>
        <time>2021-08-15T18:05:16Z</time>
      </trkpt>
      <trkpt lat="45.03517" lon="2.70928">
        <ele>1028.27</ele>
        <time>2021-08-15T18:05:21Z</time>
      </trkpt>
      <trkpt lat="45.03504" lon="2.70946">
        <ele>1029.23</ele>
        <time>2021-08-15T18:05:28Z</time>
      </trkpt>
      <trkpt lat="45.03488" lon="2.70968">
        <ele>1030.19</ele>
        <time>2021-08-15T18:05:38Z</time>
      </trkpt>
      <trkpt lat="45.03474" lon="2.70987">
        <ele>1031.63</ele>
        <time>2021-08-15T18:05:48Z</time>
      </trkpt>
      <trkpt lat="45.03462" lon="2.71009">
        <ele>1033.07</ele>
        <time>2021-08-15T18:05:59Z</time>
      </trkpt>
      <trkpt lat="45.03453" lon="2.71025">
        <ele>1034.52</ele>
        <time>2021-08-15T18:06:09Z</time>
      </trkpt>
      <trkpt lat="45.03443" lon="2.71048">
        <ele>1035.96</ele>
        <time>2021-08-15T18:06:20Z</time>
      </trkpt>
      <trkpt lat="45.03436" lon="2.71069">
        <ele>1036.44</ele>
        <time>2021-08-15T18:06:28Z</time>
      </trkpt>
      <trkpt lat="45.03428" lon="2.71085">
        <ele>1037.4</ele>
        <time>2021-08-15T18:06:36Z</time>
      </trkpt>
      <trkpt lat="45.03417" lon="2.711">
        <ele>1038.36</ele>
        <time>2021-08-15T18:06:46Z</time>
      </trkpt>
      <trkpt lat="45.03404" lon="2.71109">
        <ele>1039.32</ele>
        <time>2021-08-15T18:06:55Z</time>
      </trkpt>
      <trkpt lat="45.03392" lon="2.71116">
        <ele>1040.76</ele>
        <time>2021-08-15T18:07:04Z</time>
      </trkpt>
      <trkpt lat="45.03383" lon="2.71123">
        <ele>1041.25</ele>
        <time>2021-08-15T18:07:11Z</time>
      </trkpt>
      <trkpt lat="45.03376" lon="2.71126">
        <ele>1042.21</ele>
        <time>2021-08-15T18:07:18Z</time>
      </trkpt>
      <trkpt lat="45.03375" lon="2.71127">
        <ele>1042.21</ele>
        <time>2021-08-15T18:07:36Z</time>
      </trkpt>
      <trkpt lat="45.03375" lon="2.71126">
        <ele>1042.21</ele>
        <time>2021-08-15T18:07:48Z</time>
      </trkpt>
      <trkpt lat="45.03375" lon="2.71129">
        <ele>1042.21</ele>
        <time>2021-08-15T18:08:03Z</time>
      </trkpt>
      <trkpt lat="45.03374" lon="2.71127">
        <ele>1042.21</ele>
        <time>2021-08-15T18:08:21Z</time>
      </trkpt>
      <trkpt lat="45.03374" lon="2.71125">
        <ele>1042.21</ele>
        <time>2021-08-15T18:08:42Z</time>
      </trkpt>
      <trkpt lat="45.03376" lon="2.71123">
        <ele>1042.21</ele>
        <time>2021-08-15T18:08:55Z</time>
      </trkpt>
      <trkpt lat="45.03373" lon="2.71126">
        <ele>1042.21</ele>
        <time>2021-08-15T18:09:01Z</time>
      </trkpt>
      <trkpt lat="45.03372" lon="2.71127">
        <ele>1042.21</ele>
        <time>2021-08-15T18:09:02Z</time>
      </trkpt>
      <trkpt lat="45.03372" lon="2.71128">
        <ele>1042.21</ele>
        <time>2021-08-15T18:09:03Z</time>
      </trkpt>
      <trkpt lat="45.0336" lon="2.7114">
        <ele>1044.13</ele>
        <time>2021-08-15T18:09:12Z</time>
      </trkpt>
      <trkpt lat="45.03347" lon="2.71156">
        <ele>1045.57</ele>
        <time>2021-08-15T18:09:22Z</time>
      </trkpt>
      <trkpt lat="45.03335" lon="2.71176">
        <ele>1046.53</ele>
        <time>2021-08-15T18:09:32Z</time>
      </trkpt>
      <trkpt lat="45.03325" lon="2.71191">
        <ele>1047.49</ele>
        <time>2021-08-15T18:09:41Z</time>
      </trkpt>
      <trkpt lat="45.03314" lon="2.7121">
        <ele>1048.94</ele>
        <time>2021-08-15T18:09:51Z</time>
      </trkpt>
      <trkpt lat="45.03304" lon="2.71228">
        <ele>1049.9</ele>
        <time>2021-08-15T18:10:00Z</time>
      </trkpt>
      <trkpt lat="45.03294" lon="2.71237">
        <ele>1050.86</ele>
        <time>2021-08-15T18:10:08Z</time>
      </trkpt>
      <trkpt lat="45.03283" lon="2.71231">
        <ele>1051.82</ele>
        <time>2021-08-15T18:10:16Z</time>
      </trkpt>
      <trkpt lat="45.03282" lon="2.7123">
        <ele>1051.82</ele>
        <time>2021-08-15T18:10:17Z</time>
      </trkpt>
      <trkpt lat="45.03281" lon="2.71229">
        <ele>1052.78</ele>
        <time>2021-08-15T18:10:18Z</time>
      </trkpt>
      <trkpt lat="45.03277" lon="2.71219">
        <ele>1053.74</ele>
        <time>2021-08-15T18:10:26Z</time>
      </trkpt>
      <trkpt lat="45.03276" lon="2.7121">
        <ele>1054.22</ele>
        <time>2021-08-15T18:10:32Z</time>
      </trkpt>
      <trkpt lat="45.03276" lon="2.71208">
        <ele>1054.22</ele>
        <time>2021-08-15T18:10:33Z</time>
      </trkpt>
      <trkpt lat="45.03276" lon="2.71206">
        <ele>1054.7</ele>
        <time>2021-08-15T18:10:34Z</time>
      </trkpt>
      <trkpt lat="45.03276" lon="2.71204">
        <ele>1054.7</ele>
        <time>2021-08-15T18:10:35Z</time>
      </trkpt>
      <trkpt lat="45.03275" lon="2.71202">
        <ele>1054.7</ele>
        <time>2021-08-15T18:10:36Z</time>
      </trkpt>
      <trkpt lat="45.03274" lon="2.71178">
        <ele>1056.63</ele>
        <time>2021-08-15T18:10:46Z</time>
      </trkpt>
      <trkpt lat="45.03275" lon="2.71176">
        <ele>1056.63</ele>
        <time>2021-08-15T18:10:47Z</time>
      </trkpt>
      <trkpt lat="45.03273" lon="2.71157">
        <ele>1058.07</ele>
        <time>2021-08-15T18:10:58Z</time>
      </trkpt>
      <trkpt lat="45.0327" lon="2.71143">
        <ele>1059.03</ele>
        <time>2021-08-15T18:11:06Z</time>
      </trkpt>
      <trkpt lat="45.03267" lon="2.71135">
        <ele>1059.51</ele>
        <time>2021-08-15T18:11:10Z</time>
      </trkpt>
      <trkpt lat="45.03267" lon="2.71133">
        <ele>1059.99</ele>
        <time>2021-08-15T18:11:11Z</time>
      </trkpt>
      <trkpt lat="45.03266" lon="2.71131">
        <ele>1059.99</ele>
        <time>2021-08-15T18:11:12Z</time>
      </trkpt>
      <trkpt lat="45.03261" lon="2.71119">
        <ele>1060.95</ele>
        <time>2021-08-15T18:11:20Z</time>
      </trkpt>
      <trkpt lat="45.03253" lon="2.711">
        <ele>1062.39</ele>
        <time>2021-08-15T18:11:30Z</time>
      </trkpt>
      <trkpt lat="45.03251" lon="2.71081">
        <ele>1063.36</ele>
        <time>2021-08-15T18:11:38Z</time>
      </trkpt>
      <trkpt lat="45.03248" lon="2.71062">
        <ele>1064.8</ele>
        <time>2021-08-15T18:11:47Z</time>
      </trkpt>
      <trkpt lat="45.03251" lon="2.71034">
        <ele>1067.2</ele>
        <time>2021-08-15T18:12:00Z</time>
      </trkpt>
      <trkpt lat="45.03254" lon="2.71005">
        <ele>1069.12</ele>
        <time>2021-08-15T18:12:13Z</time>
      </trkpt>
      <trkpt lat="45.03254" lon="2.70989">
        <ele>1070.57</ele>
        <time>2021-08-15T18:12:21Z</time>
      </trkpt>
      <trkpt lat="45.03253" lon="2.70967">
        <ele>1072.49</ele>
        <time>2021-08-15T18:12:32Z</time>
      </trkpt>
      <trkpt lat="45.03253" lon="2.70966">
        <ele>1072.49</ele>
        <time>2021-08-15T18:12:33Z</time>
      </trkpt>
      <trkpt lat="45.03253" lon="2.70964">
        <ele>1072.49</ele>
        <time>2021-08-15T18:12:34Z</time>
      </trkpt>
      <trkpt lat="45.03252" lon="2.70962">
        <ele>1073.45</ele>
        <time>2021-08-15T18:12:35Z</time>
      </trkpt>
      <trkpt lat="45.03251" lon="2.70955">
        <ele>1073.45</ele>
        <time>2021-08-15T18:12:40Z</time>
      </trkpt>
      <trkpt lat="45.0325" lon="2.70949">
        <ele>1073.93</ele>
        <time>2021-08-15T18:12:43Z</time>
      </trkpt>
      <trkpt lat="45.03242" lon="2.70929">
        <ele>1075.85</ele>
        <time>2021-08-15T18:12:54Z</time>
      </trkpt>
      <trkpt lat="45.03234" lon="2.70914">
        <ele>1076.81</ele>
        <time>2021-08-15T18:13:05Z</time>
      </trkpt>
      <trkpt lat="45.03226" lon="2.70905">
        <ele>1077.78</ele>
        <time>2021-08-15T18:13:12Z</time>
      </trkpt>
      <trkpt lat="45.0322" lon="2.70898">
        <ele>1078.26</ele>
        <time>2021-08-15T18:13:18Z</time>
      </trkpt>
      <trkpt lat="45.03219" lon="2.70897">
        <ele>1078.26</ele>
        <time>2021-08-15T18:13:19Z</time>
      </trkpt>
      <trkpt lat="45.03205" lon="2.70888">
        <ele>1080.18</ele>
        <time>2021-08-15T18:13:30Z</time>
      </trkpt>
      <trkpt lat="45.03189" lon="2.70879">
        <ele>1081.62</ele>
        <time>2021-08-15T18:13:41Z</time>
      </trkpt>
      <trkpt lat="45.03177" lon="2.7087">
        <ele>1083.06</ele>
        <time>2021-08-15T18:13:50Z</time>
      </trkpt>
      <trkpt lat="45.03164" lon="2.70864">
        <ele>1084.02</ele>
        <time>2021-08-15T18:14:01Z</time>
      </trkpt>
      <trkpt lat="45.03152" lon="2.70863">
        <ele>1085.47</ele>
        <time>2021-08-15T18:14:11Z</time>
      </trkpt>
      <trkpt lat="45.03135" lon="2.70865">
        <ele>1086.43</ele>
        <time>2021-08-15T18:14:22Z</time>
      </trkpt>
      <trkpt lat="45.03124" lon="2.70867">
        <ele>1087.87</ele>
        <time>2021-08-15T18:14:30Z</time>
      </trkpt>
      <trkpt lat="45.03122" lon="2.70867">
        <ele>1087.87</ele>
        <time>2021-08-15T18:14:31Z</time>
      </trkpt>
      <trkpt lat="45.03108" lon="2.70869">
        <ele>1089.31</ele>
        <time>2021-08-15T18:14:41Z</time>
      </trkpt>
      <trkpt lat="45.03093" lon="2.70872">
        <ele>1090.75</ele>
        <time>2021-08-15T18:14:51Z</time>
      </trkpt>
      <trkpt lat="45.03077" lon="2.70876">
        <ele>1091.71</ele>
        <time>2021-08-15T18:15:00Z</time>
      </trkpt>
      <trkpt lat="45.0306" lon="2.70881">
        <ele>1091.71</ele>
        <time>2021-08-15T18:15:07Z</time>
      </trkpt>
      <trkpt lat="45.0305" lon="2.70885">
        <ele>1090.75</ele>
        <time>2021-08-15T18:15:10Z</time>
      </trkpt>
      <trkpt lat="45.03027" lon="2.709">
        <ele>1089.31</ele>
        <time>2021-08-15T18:15:17Z</time>
      </trkpt>
      <trkpt lat="45.03023" lon="2.70902">
        <ele>1089.31</ele>
        <time>2021-08-15T18:15:18Z</time>
      </trkpt>
      <trkpt lat="45.03019" lon="2.70902">
        <ele>1089.31</ele>
        <time>2021-08-15T18:15:19Z</time>
      </trkpt>
      <trkpt lat="45.02985" lon="2.709">
        <ele>1086.91</ele>
        <time>2021-08-15T18:15:25Z</time>
      </trkpt>
      <trkpt lat="45.02979" lon="2.709">
        <ele>1086.91</ele>
        <time>2021-08-15T18:15:26Z</time>
      </trkpt>
      <trkpt lat="45.02973" lon="2.70901">
        <ele>1086.43</ele>
        <time>2021-08-15T18:15:27Z</time>
      </trkpt>
      <trkpt lat="45.02968" lon="2.70903">
        <ele>1085.95</ele>
        <time>2021-08-15T18:15:28Z</time>
      </trkpt>
      <trkpt lat="45.02963" lon="2.70906">
        <ele>1085.95</ele>
        <time>2021-08-15T18:15:29Z</time>
      </trkpt>
      <trkpt lat="45.02959" lon="2.7091">
        <ele>1085.95</ele>
        <time>2021-08-15T18:15:30Z</time>
      </trkpt>
      <trkpt lat="45.02955" lon="2.70915">
        <ele>1085.95</ele>
        <time>2021-08-15T18:15:31Z</time>
      </trkpt>
      <trkpt lat="45.02951" lon="2.7092">
        <ele>1085.95</ele>
        <time>2021-08-15T18:15:32Z</time>
      </trkpt>
      <trkpt lat="45.02947" lon="2.70926">
        <ele>1085.95</ele>
        <time>2021-08-15T18:15:33Z</time>
      </trkpt>
      <trkpt lat="45.02944" lon="2.70931">
        <ele>1085.95</ele>
        <time>2021-08-15T18:15:34Z</time>
      </trkpt>
      <trkpt lat="45.02934" lon="2.70947">
        <ele>1085.95</ele>
        <time>2021-08-15T18:15:37Z</time>
      </trkpt>
      <trkpt lat="45.02923" lon="2.7096">
        <ele>1085.95</ele>
        <time>2021-08-15T18:15:40Z</time>
      </trkpt>
      <trkpt lat="45.02919" lon="2.70963">
        <ele>1085.95</ele>
        <time>2021-08-15T18:15:41Z</time>
      </trkpt>
      <trkpt lat="45.02915" lon="2.70966">
        <ele>1085.95</ele>
        <time>2021-08-15T18:15:42Z</time>
      </trkpt>
      <trkpt lat="45.02888" lon="2.70978">
        <ele>1087.39</ele>
        <time>2021-08-15T18:15:50Z</time>
      </trkpt>
      <trkpt lat="45.02886" lon="2.70977">
        <ele>1087.39</ele>
        <time>2021-08-15T18:15:51Z</time>
      </trkpt>
      <trkpt lat="45.02884" lon="2.70976">
        <ele>1087.87</ele>
        <time>2021-08-15T18:15:52Z</time>
      </trkpt>
      <trkpt lat="45.02883" lon="2.70974">
        <ele>1087.87</ele>
        <time>2021-08-15T18:15:53Z</time>
      </trkpt>
      <trkpt lat="45.02882" lon="2.70973">
        <ele>1088.35</ele>
        <time>2021-08-15T18:15:54Z</time>
      </trkpt>
      <trkpt lat="45.02881" lon="2.70971">
        <ele>1088.35</ele>
        <time>2021-08-15T18:15:55Z</time>
      </trkpt>
      <trkpt lat="45.0288" lon="2.7097">
        <ele>1088.83</ele>
        <time>2021-08-15T18:15:56Z</time>
      </trkpt>
      <trkpt lat="45.0288" lon="2.70968">
        <ele>1088.83</ele>
        <time>2021-08-15T18:15:57Z</time>
      </trkpt>
      <trkpt lat="45.0288" lon="2.70967">
        <ele>1088.83</ele>
        <time>2021-08-15T18:15:58Z</time>
      </trkpt>
      <trkpt lat="45.0288" lon="2.70966">
        <ele>1089.79</ele>
        <time>2021-08-15T18:15:59Z</time>
      </trkpt>
      <trkpt lat="45.0288" lon="2.70964">
        <ele>1089.31</ele>
        <time>2021-08-15T18:16:00Z</time>
      </trkpt>
      <trkpt lat="45.0288" lon="2.70963">
        <ele>1089.79</ele>
        <time>2021-08-15T18:16:01Z</time>
      </trkpt>
      <trkpt lat="45.0288" lon="2.70961">
        <ele>1089.79</ele>
        <time>2021-08-15T18:16:02Z</time>
      </trkpt>
      <trkpt lat="45.02877" lon="2.70941">
        <ele>1090.75</ele>
        <time>2021-08-15T18:16:11Z</time>
      </trkpt>
      <trkpt lat="45.0287" lon="2.70912">
        <ele>1092.2</ele>
        <time>2021-08-15T18:16:20Z</time>
      </trkpt>
      <trkpt lat="45.02858" lon="2.70879">
        <ele>1092.68</ele>
        <time>2021-08-15T18:16:29Z</time>
      </trkpt>
      <trkpt lat="45.02841" lon="2.70843">
        <ele>1092.68</ele>
        <time>2021-08-15T18:16:37Z</time>
      </trkpt>
      <trkpt lat="45.02838" lon="2.70835">
        <ele>1090.75</ele>
        <time>2021-08-15T18:16:38Z</time>
      </trkpt>
      <trkpt lat="45.02834" lon="2.7082">
        <ele>1089.79</ele>
        <time>2021-08-15T18:16:40Z</time>
      </trkpt>
      <trkpt lat="45.02833" lon="2.7081">
        <ele>1089.31</ele>
        <time>2021-08-15T18:16:41Z</time>
      </trkpt>
      <trkpt lat="45.02831" lon="2.708">
        <ele>1088.83</ele>
        <time>2021-08-15T18:16:42Z</time>
      </trkpt>
      <trkpt lat="45.02829" lon="2.70779">
        <ele>1087.87</ele>
        <time>2021-08-15T18:16:44Z</time>
      </trkpt>
      <trkpt lat="45.02813" lon="2.70719">
        <ele>1086.43</ele>
        <time>2021-08-15T18:16:50Z</time>
      </trkpt>
      <trkpt lat="45.02792" lon="2.70672">
        <ele>1083.54</ele>
        <time>2021-08-15T18:16:55Z</time>
      </trkpt>
      <trkpt lat="45.02788" lon="2.70663">
        <ele>1083.54</ele>
        <time>2021-08-15T18:16:56Z</time>
      </trkpt>
      <trkpt lat="45.0277" lon="2.70593">
        <ele>1079.7</ele>
        <time>2021-08-15T18:17:02Z</time>
      </trkpt>
      <trkpt lat="45.02765" lon="2.70536">
        <ele>1075.37</ele>
        <time>2021-08-15T18:17:06Z</time>
      </trkpt>
      <trkpt lat="45.02769" lon="2.7049">
        <ele>1072.49</ele>
        <time>2021-08-15T18:17:09Z</time>
      </trkpt>
      <trkpt lat="45.02777" lon="2.70449">
        <ele>1071.05</ele>
        <time>2021-08-15T18:17:12Z</time>
      </trkpt>
      <trkpt lat="45.02783" lon="2.70412">
        <ele>1069.6</ele>
        <time>2021-08-15T18:17:15Z</time>
      </trkpt>
      <trkpt lat="45.02786" lon="2.70401">
        <ele>1069.12</ele>
        <time>2021-08-15T18:17:16Z</time>
      </trkpt>
      <trkpt lat="45.0279" lon="2.7039">
        <ele>1068.16</ele>
        <time>2021-08-15T18:17:17Z</time>
      </trkpt>
      <trkpt lat="45.02797" lon="2.70368">
        <ele>1067.68</ele>
        <time>2021-08-15T18:17:19Z</time>
      </trkpt>
      <trkpt lat="45.02798" lon="2.70357">
        <ele>1066.72</ele>
        <time>2021-08-15T18:17:20Z</time>
      </trkpt>
      <trkpt lat="45.02797" lon="2.70346">
        <ele>1066.72</ele>
        <time>2021-08-15T18:17:21Z</time>
      </trkpt>
      <trkpt lat="45.02794" lon="2.70334">
        <ele>1065.28</ele>
        <time>2021-08-15T18:17:22Z</time>
      </trkpt>
      <trkpt lat="45.0279" lon="2.70324">
        <ele>1064.8</ele>
        <time>2021-08-15T18:17:23Z</time>
      </trkpt>
      <trkpt lat="45.02786" lon="2.70314">
        <ele>1063.84</ele>
        <time>2021-08-15T18:17:24Z</time>
      </trkpt>
      <trkpt lat="45.02763" lon="2.70273">
        <ele>1060.95</ele>
        <time>2021-08-15T18:17:28Z</time>
      </trkpt>
      <trkpt lat="45.02755" lon="2.70264">
        <ele>1060.47</ele>
        <time>2021-08-15T18:17:29Z</time>
      </trkpt>
      <trkpt lat="45.02746" lon="2.70257">
        <ele>1059.51</ele>
        <time>2021-08-15T18:17:30Z</time>
      </trkpt>
      <trkpt lat="45.02737" lon="2.7025">
        <ele>1058.07</ele>
        <time>2021-08-15T18:17:31Z</time>
      </trkpt>
      <trkpt lat="45.02728" lon="2.70244">
        <ele>1057.59</ele>
        <time>2021-08-15T18:17:32Z</time>
      </trkpt>
      <trkpt lat="45.02672" lon="2.70211">
        <ele>1053.74</ele>
        <time>2021-08-15T18:17:38Z</time>
      </trkpt>
      <trkpt lat="45.02642" lon="2.70192">
        <ele>1050.86</ele>
        <time>2021-08-15T18:17:41Z</time>
      </trkpt>
      <trkpt lat="45.02614" lon="2.70174">
        <ele>1047.49</ele>
        <time>2021-08-15T18:17:44Z</time>
      </trkpt>
      <trkpt lat="45.02597" lon="2.70165">
        <ele>1045.57</ele>
        <time>2021-08-15T18:17:46Z</time>
      </trkpt>
      <trkpt lat="45.02589" lon="2.70163">
        <ele>1044.13</ele>
        <time>2021-08-15T18:17:47Z</time>
      </trkpt>
      <trkpt lat="45.02582" lon="2.70163">
        <ele>1043.17</ele>
        <time>2021-08-15T18:17:48Z</time>
      </trkpt>
      <trkpt lat="45.02575" lon="2.70164">
        <ele>1042.21</ele>
        <time>2021-08-15T18:17:49Z</time>
      </trkpt>
      <trkpt lat="45.02568" lon="2.70166">
        <ele>1041.25</ele>
        <time>2021-08-15T18:17:50Z</time>
      </trkpt>
      <trkpt lat="45.02563" lon="2.7017">
        <ele>1040.76</ele>
        <time>2021-08-15T18:17:51Z</time>
      </trkpt>
      <trkpt lat="45.02558" lon="2.70174">
        <ele>1039.32</ele>
        <time>2021-08-15T18:17:52Z</time>
      </trkpt>
      <trkpt lat="45.02548" lon="2.70179">
        <ele>1037.88</ele>
        <time>2021-08-15T18:17:54Z</time>
      </trkpt>
      <trkpt lat="45.02545" lon="2.70179">
        <ele>1037.88</ele>
        <time>2021-08-15T18:17:55Z</time>
      </trkpt>
      <trkpt lat="45.02542" lon="2.70178">
        <ele>1037.4</ele>
        <time>2021-08-15T18:17:56Z</time>
      </trkpt>
      <trkpt lat="45.02539" lon="2.70176">
        <ele>1037.4</ele>
        <time>2021-08-15T18:17:57Z</time>
      </trkpt>
      <trkpt lat="45.02537" lon="2.70173">
        <ele>1036.44</ele>
        <time>2021-08-15T18:17:58Z</time>
      </trkpt>
      <trkpt lat="45.02536" lon="2.70172">
        <ele>1036.44</ele>
        <time>2021-08-15T18:17:59Z</time>
      </trkpt>
      <trkpt lat="45.02534" lon="2.70172">
        <ele>1036.92</ele>
        <time>2021-08-15T18:18:00Z</time>
      </trkpt>
      <trkpt lat="45.02533" lon="2.70174">
        <ele>1037.4</ele>
        <time>2021-08-15T18:18:01Z</time>
      </trkpt>
      <trkpt lat="45.02532" lon="2.70176">
        <ele>1037.4</ele>
        <time>2021-08-15T18:18:02Z</time>
      </trkpt>
      <trkpt lat="45.0253" lon="2.7018">
        <ele>1036.92</ele>
        <time>2021-08-15T18:18:04Z</time>
      </trkpt>
      <trkpt lat="45.02529" lon="2.70182">
        <ele>1036.92</ele>
        <time>2021-08-15T18:18:05Z</time>
      </trkpt>
      <trkpt lat="45.02527" lon="2.70183">
        <ele>1036.92</ele>
        <time>2021-08-15T18:18:06Z</time>
      </trkpt>
      <trkpt lat="45.02525" lon="2.70183">
        <ele>1036.44</ele>
        <time>2021-08-15T18:18:07Z</time>
      </trkpt>
      <trkpt lat="45.02524" lon="2.70183">
        <ele>1036.44</ele>
        <time>2021-08-15T18:18:08Z</time>
      </trkpt>
      <trkpt lat="45.02522" lon="2.70183">
        <ele>1035.96</ele>
        <time>2021-08-15T18:18:09Z</time>
      </trkpt>
      <trkpt lat="45.0252" lon="2.70182">
        <ele>1035.96</ele>
        <time>2021-08-15T18:18:10Z</time>
      </trkpt>
      <trkpt lat="45.02518" lon="2.70182">
        <ele>1035.48</ele>
        <time>2021-08-15T18:18:11Z</time>
      </trkpt>
      <trkpt lat="45.02517" lon="2.70181">
        <ele>1035.48</ele>
        <time>2021-08-15T18:18:12Z</time>
      </trkpt>
      <trkpt lat="45.02516" lon="2.70181">
        <ele>1035.48</ele>
        <time>2021-08-15T18:18:13Z</time>
      </trkpt>
      <trkpt lat="45.02513" lon="2.7018">
        <ele>1035</ele>
        <time>2021-08-15T18:18:21Z</time>
      </trkpt>
      <trkpt lat="45.02512" lon="2.70177">
        <ele>1035</ele>
        <time>2021-08-15T18:18:25Z</time>
      </trkpt>
      <trkpt lat="45.02512" lon="2.70175">
        <ele>1035</ele>
        <time>2021-08-15T18:18:26Z</time>
      </trkpt>
      <trkpt lat="45.02509" lon="2.70159">
        <ele>1033.55</ele>
        <time>2021-08-15T18:18:31Z</time>
      </trkpt>
      <trkpt lat="45.02494" lon="2.7013">
        <ele>1031.63</ele>
        <time>2021-08-15T18:18:38Z</time>
      </trkpt>
      <trkpt lat="45.02488" lon="2.70104">
        <ele>1028.75</ele>
        <time>2021-08-15T18:18:44Z</time>
      </trkpt>
      <trkpt lat="45.02488" lon="2.701">
        <ele>1028.75</ele>
        <time>2021-08-15T18:18:45Z</time>
      </trkpt>
      <trkpt lat="45.02488" lon="2.70095">
        <ele>1028.75</ele>
        <time>2021-08-15T18:18:46Z</time>
      </trkpt>
      <trkpt lat="45.02487" lon="2.70089">
        <ele>1028.75</ele>
        <time>2021-08-15T18:18:47Z</time>
      </trkpt>
      <trkpt lat="45.02486" lon="2.70082">
        <ele>1027.79</ele>
        <time>2021-08-15T18:18:48Z</time>
      </trkpt>
      <trkpt lat="45.02484" lon="2.70075">
        <ele>1025.86</ele>
        <time>2021-08-15T18:18:49Z</time>
      </trkpt>
      <trkpt lat="45.02483" lon="2.70068">
        <ele>1025.38</ele>
        <time>2021-08-15T18:18:50Z</time>
      </trkpt>
      <trkpt lat="45.02478" lon="2.7005">
        <ele>1021.54</ele>
        <time>2021-08-15T18:18:52Z</time>
      </trkpt>
      <trkpt lat="45.0247" lon="2.70026">
        <ele>1017.69</ele>
        <time>2021-08-15T18:18:55Z</time>
      </trkpt>
      <trkpt lat="45.02469" lon="2.70017">
        <ele>1016.25</ele>
        <time>2021-08-15T18:18:56Z</time>
      </trkpt>
      <trkpt lat="45.02468" lon="2.70006">
        <ele>1013.85</ele>
        <time>2021-08-15T18:18:57Z</time>
      </trkpt>
      <trkpt lat="45.02466" lon="2.69975">
        <ele>1010</ele>
        <time>2021-08-15T18:19:00Z</time>
      </trkpt>
      <trkpt lat="45.02464" lon="2.69966">
        <ele>1009.52</ele>
        <time>2021-08-15T18:19:01Z</time>
      </trkpt>
      <trkpt lat="45.0246" lon="2.69958">
        <ele>1007.6</ele>
        <time>2021-08-15T18:19:02Z</time>
      </trkpt>
      <trkpt lat="45.02451" lon="2.69943">
        <ele>1004.72</ele>
        <time>2021-08-15T18:19:04Z</time>
      </trkpt>
      <trkpt lat="45.02446" lon="2.69937">
        <ele>1003.27</ele>
        <time>2021-08-15T18:19:05Z</time>
      </trkpt>
      <trkpt lat="45.02443" lon="2.69931">
        <ele>1001.35</ele>
        <time>2021-08-15T18:19:06Z</time>
      </trkpt>
      <trkpt lat="45.02441" lon="2.69924">
        <ele>999.91</ele>
        <time>2021-08-15T18:19:07Z</time>
      </trkpt>
      <trkpt lat="45.02441" lon="2.69917">
        <ele>998.95</ele>
        <time>2021-08-15T18:19:08Z</time>
      </trkpt>
      <trkpt lat="45.02443" lon="2.69908">
        <ele>998.47</ele>
        <time>2021-08-15T18:19:09Z</time>
      </trkpt>
      <trkpt lat="45.02445" lon="2.69898">
        <ele>997.51</ele>
        <time>2021-08-15T18:19:10Z</time>
      </trkpt>
      <trkpt lat="45.02448" lon="2.69888">
        <ele>995.58</ele>
        <time>2021-08-15T18:19:11Z</time>
      </trkpt>
      <trkpt lat="45.02452" lon="2.6988">
        <ele>995.1</ele>
        <time>2021-08-15T18:19:12Z</time>
      </trkpt>
      <trkpt lat="45.0246" lon="2.69865">
        <ele>995.1</ele>
        <time>2021-08-15T18:19:14Z</time>
      </trkpt>
      <trkpt lat="45.02468" lon="2.69842">
        <ele>994.62</ele>
        <time>2021-08-15T18:19:18Z</time>
      </trkpt>
      <trkpt lat="45.02463" lon="2.69821">
        <ele>992.7</ele>
        <time>2021-08-15T18:19:23Z</time>
      </trkpt>
      <trkpt lat="45.02457" lon="2.69801">
        <ele>990.3</ele>
        <time>2021-08-15T18:19:27Z</time>
      </trkpt>
      <trkpt lat="45.0245" lon="2.69781">
        <ele>986.93</ele>
        <time>2021-08-15T18:19:33Z</time>
      </trkpt>
      <trkpt lat="45.02452" lon="2.69763">
        <ele>983.57</ele>
        <time>2021-08-15T18:19:38Z</time>
      </trkpt>
      <trkpt lat="45.02453" lon="2.69749">
        <ele>981.64</ele>
        <time>2021-08-15T18:19:42Z</time>
      </trkpt>
      <trkpt lat="45.02452" lon="2.69747">
        <ele>981.16</ele>
        <time>2021-08-15T18:19:43Z</time>
      </trkpt>
      <trkpt lat="45.02449" lon="2.69742">
        <ele>980.68</ele>
        <time>2021-08-15T18:19:45Z</time>
      </trkpt>
      <trkpt lat="45.02441" lon="2.69729">
        <ele>976.84</ele>
        <time>2021-08-15T18:19:50Z</time>
      </trkpt>
      <trkpt lat="45.02433" lon="2.69715">
        <ele>974.43</ele>
        <time>2021-08-15T18:19:56Z</time>
      </trkpt>
      <trkpt lat="45.02433" lon="2.69713">
        <ele>973.95</ele>
        <time>2021-08-15T18:19:57Z</time>
      </trkpt>
      <trkpt lat="45.02432" lon="2.69711">
        <ele>973.47</ele>
        <time>2021-08-15T18:19:58Z</time>
      </trkpt>
      <trkpt lat="45.02425" lon="2.69701">
        <ele>971.07</ele>
        <time>2021-08-15T18:20:04Z</time>
      </trkpt>
      <trkpt lat="45.02423" lon="2.69698">
        <ele>970.11</ele>
        <time>2021-08-15T18:20:05Z</time>
      </trkpt>
      <trkpt lat="45.02422" lon="2.69696">
        <ele>969.63</ele>
        <time>2021-08-15T18:20:06Z</time>
      </trkpt>
      <trkpt lat="45.02421" lon="2.69693">
        <ele>969.15</ele>
        <time>2021-08-15T18:20:07Z</time>
      </trkpt>
      <trkpt lat="45.0242" lon="2.69691">
        <ele>969.15</ele>
        <time>2021-08-15T18:20:08Z</time>
      </trkpt>
      <trkpt lat="45.0242" lon="2.69689">
        <ele>968.18</ele>
        <time>2021-08-15T18:20:09Z</time>
      </trkpt>
      <trkpt lat="45.0242" lon="2.69687">
        <ele>968.18</ele>
        <time>2021-08-15T18:20:10Z</time>
      </trkpt>
      <trkpt lat="45.0242" lon="2.69684">
        <ele>967.7</ele>
        <time>2021-08-15T18:20:11Z</time>
      </trkpt>
      <trkpt lat="45.02422" lon="2.69667">
        <ele>964.34</ele>
        <time>2021-08-15T18:20:18Z</time>
      </trkpt>
      <trkpt lat="45.0243" lon="2.69655">
        <ele>960.98</ele>
        <time>2021-08-15T18:20:25Z</time>
      </trkpt>
      <trkpt lat="45.02431" lon="2.69655">
        <ele>960.98</ele>
        <time>2021-08-15T18:20:26Z</time>
      </trkpt>
      <trkpt lat="45.02432" lon="2.69656">
        <ele>960.98</ele>
        <time>2021-08-15T18:20:27Z</time>
      </trkpt>
      <trkpt lat="45.02432" lon="2.69657">
        <ele>960.49</ele>
        <time>2021-08-15T18:20:28Z</time>
      </trkpt>
      <trkpt lat="45.02432" lon="2.69659">
        <ele>960.49</ele>
        <time>2021-08-15T18:20:29Z</time>
      </trkpt>
      <trkpt lat="45.02438" lon="2.69668">
        <ele>957.61</ele>
        <time>2021-08-15T18:20:35Z</time>
      </trkpt>
      <trkpt lat="45.02439" lon="2.69669">
        <ele>956.65</ele>
        <time>2021-08-15T18:20:36Z</time>
      </trkpt>
      <trkpt lat="45.0244" lon="2.69671">
        <ele>956.65</ele>
        <time>2021-08-15T18:20:37Z</time>
      </trkpt>
      <trkpt lat="45.02442" lon="2.69673">
        <ele>955.69</ele>
        <time>2021-08-15T18:20:38Z</time>
      </trkpt>
      <trkpt lat="45.02443" lon="2.69674">
        <ele>955.21</ele>
        <time>2021-08-15T18:20:39Z</time>
      </trkpt>
      <trkpt lat="45.02445" lon="2.69673">
        <ele>955.21</ele>
        <time>2021-08-15T18:20:40Z</time>
      </trkpt>
      <trkpt lat="45.02446" lon="2.69671">
        <ele>954.73</ele>
        <time>2021-08-15T18:20:41Z</time>
      </trkpt>
      <trkpt lat="45.02445" lon="2.69668">
        <ele>954.25</ele>
        <time>2021-08-15T18:20:43Z</time>
      </trkpt>
      <trkpt lat="45.02446" lon="2.69663">
        <ele>952.8</ele>
        <time>2021-08-15T18:20:47Z</time>
      </trkpt>
      <trkpt lat="45.02457" lon="2.69671">
        <ele>949.92</ele>
        <time>2021-08-15T18:20:55Z</time>
      </trkpt>
      <trkpt lat="45.02467" lon="2.69674">
        <ele>948</ele>
        <time>2021-08-15T18:21:02Z</time>
      </trkpt>
      <trkpt lat="45.0247" lon="2.69675">
        <ele>947.52</ele>
        <time>2021-08-15T18:21:04Z</time>
      </trkpt>
      <trkpt lat="45.02471" lon="2.69676">
        <ele>947.04</ele>
        <time>2021-08-15T18:21:05Z</time>
      </trkpt>
      <trkpt lat="45.02472" lon="2.69676">
        <ele>947.04</ele>
        <time>2021-08-15T18:21:06Z</time>
      </trkpt>
      <trkpt lat="45.02474" lon="2.69677">
        <ele>946.56</ele>
        <time>2021-08-15T18:21:07Z</time>
      </trkpt>
      <trkpt lat="45.02475" lon="2.69676">
        <ele>946.56</ele>
        <time>2021-08-15T18:21:08Z</time>
      </trkpt>
      <trkpt lat="45.02479" lon="2.69677">
        <ele>945.59</ele>
        <time>2021-08-15T18:21:14Z</time>
      </trkpt>
      <trkpt lat="45.0249" lon="2.69677">
        <ele>942.23</ele>
        <time>2021-08-15T18:21:20Z</time>
      </trkpt>
      <trkpt lat="45.02492" lon="2.69675">
        <ele>941.75</ele>
        <time>2021-08-15T18:21:21Z</time>
      </trkpt>
      <trkpt lat="45.02493" lon="2.69674">
        <ele>941.27</ele>
        <time>2021-08-15T18:21:22Z</time>
      </trkpt>
      <trkpt lat="45.02494" lon="2.69672">
        <ele>940.79</ele>
        <time>2021-08-15T18:21:23Z</time>
      </trkpt>
      <trkpt lat="45.02493" lon="2.6967">
        <ele>940.79</ele>
        <time>2021-08-15T18:21:24Z</time>
      </trkpt>
      <trkpt lat="45.02493" lon="2.69669">
        <ele>939.83</ele>
        <time>2021-08-15T18:21:25Z</time>
      </trkpt>
      <trkpt lat="45.02492" lon="2.69667">
        <ele>939.83</ele>
        <time>2021-08-15T18:21:26Z</time>
      </trkpt>
      <trkpt lat="45.02492" lon="2.69665">
        <ele>938.86</ele>
        <time>2021-08-15T18:21:27Z</time>
      </trkpt>
      <trkpt lat="45.02493" lon="2.69663">
        <ele>938.86</ele>
        <time>2021-08-15T18:21:28Z</time>
      </trkpt>
      <trkpt lat="45.02495" lon="2.69662">
        <ele>938.38</ele>
        <time>2021-08-15T18:21:29Z</time>
      </trkpt>
      <trkpt lat="45.02496" lon="2.69661">
        <ele>937.9</ele>
        <time>2021-08-15T18:21:30Z</time>
      </trkpt>
      <trkpt lat="45.02498" lon="2.69661">
        <ele>937.9</ele>
        <time>2021-08-15T18:21:31Z</time>
      </trkpt>
      <trkpt lat="45.025" lon="2.69662">
        <ele>936.94</ele>
        <time>2021-08-15T18:21:32Z</time>
      </trkpt>
      <trkpt lat="45.02501" lon="2.69663">
        <ele>936.46</ele>
        <time>2021-08-15T18:21:33Z</time>
      </trkpt>
      <trkpt lat="45.02503" lon="2.69664">
        <ele>935.98</ele>
        <time>2021-08-15T18:21:34Z</time>
      </trkpt>
      <trkpt lat="45.02506" lon="2.69665">
        <ele>935.5</ele>
        <time>2021-08-15T18:21:35Z</time>
      </trkpt>
      <trkpt lat="45.02508" lon="2.69665">
        <ele>934.54</ele>
        <time>2021-08-15T18:21:36Z</time>
      </trkpt>
      <trkpt lat="45.0251" lon="2.69664">
        <ele>934.06</ele>
        <time>2021-08-15T18:21:37Z</time>
      </trkpt>
      <trkpt lat="45.02513" lon="2.69664">
        <ele>933.58</ele>
        <time>2021-08-15T18:21:38Z</time>
      </trkpt>
      <trkpt lat="45.02521" lon="2.69661">
        <ele>931.65</ele>
        <time>2021-08-15T18:21:41Z</time>
      </trkpt>
      <trkpt lat="45.02537" lon="2.69656">
        <ele>928.29</ele>
        <time>2021-08-15T18:21:47Z</time>
      </trkpt>
      <trkpt lat="45.02546" lon="2.69653">
        <ele>927.33</ele>
        <time>2021-08-15T18:21:49Z</time>
      </trkpt>
      <trkpt lat="45.02556" lon="2.69652">
        <ele>926.85</ele>
        <time>2021-08-15T18:21:51Z</time>
      </trkpt>
      <trkpt lat="45.02561" lon="2.69653">
        <ele>926.37</ele>
        <time>2021-08-15T18:21:52Z</time>
      </trkpt>
      <trkpt lat="45.02572" lon="2.69655">
        <ele>925.41</ele>
        <time>2021-08-15T18:21:54Z</time>
      </trkpt>
      <trkpt lat="45.02582" lon="2.69657">
        <ele>924.45</ele>
        <time>2021-08-15T18:21:56Z</time>
      </trkpt>
      <trkpt lat="45.02587" lon="2.69659">
        <ele>923.48</ele>
        <time>2021-08-15T18:21:57Z</time>
      </trkpt>
      <trkpt lat="45.02602" lon="2.69666">
        <ele>922.04</ele>
        <time>2021-08-15T18:22:01Z</time>
      </trkpt>
      <trkpt lat="45.02606" lon="2.69664">
        <ele>921.56</ele>
        <time>2021-08-15T18:22:03Z</time>
      </trkpt>
      <trkpt lat="45.02608" lon="2.69661">
        <ele>921.56</ele>
        <time>2021-08-15T18:22:04Z</time>
      </trkpt>
      <trkpt lat="45.0261" lon="2.69656">
        <ele>921.08</ele>
        <time>2021-08-15T18:22:09Z</time>
      </trkpt>
      <trkpt lat="45.02613" lon="2.6966">
        <ele>921.08</ele>
        <time>2021-08-15T18:22:26Z</time>
      </trkpt>
      <trkpt lat="45.02614" lon="2.69659">
        <ele>921.08</ele>
        <time>2021-08-15T18:22:29Z</time>
      </trkpt>
      <trkpt lat="45.02616" lon="2.69658">
        <ele>920.6</ele>
        <time>2021-08-15T18:22:30Z</time>
      </trkpt>
      <trkpt lat="45.02618" lon="2.69658">
        <ele>920.6</ele>
        <time>2021-08-15T18:22:31Z</time>
      </trkpt>
      <trkpt lat="45.02635" lon="2.69655">
        <ele>917.24</ele>
        <time>2021-08-15T18:22:38Z</time>
      </trkpt>
      <trkpt lat="45.02653" lon="2.69661">
        <ele>914.35</ele>
        <time>2021-08-15T18:22:44Z</time>
      </trkpt>
      <trkpt lat="45.02655" lon="2.69662">
        <ele>914.35</ele>
        <time>2021-08-15T18:22:45Z</time>
      </trkpt>
      <trkpt lat="45.02668" lon="2.69663">
        <ele>910.99</ele>
        <time>2021-08-15T18:22:50Z</time>
      </trkpt>
      <trkpt lat="45.0267" lon="2.69663">
        <ele>910.99</ele>
        <time>2021-08-15T18:22:51Z</time>
      </trkpt>
      <trkpt lat="45.02683" lon="2.69654">
        <ele>907.62</ele>
        <time>2021-08-15T18:22:57Z</time>
      </trkpt>
      <trkpt lat="45.02694" lon="2.69642">
        <ele>904.26</ele>
        <time>2021-08-15T18:23:01Z</time>
      </trkpt>
      <trkpt lat="45.02699" lon="2.69635">
        <ele>902.82</ele>
        <time>2021-08-15T18:23:03Z</time>
      </trkpt>
      <trkpt lat="45.02699" lon="2.69631">
        <ele>901.85</ele>
        <time>2021-08-15T18:23:04Z</time>
      </trkpt>
      <trkpt lat="45.02698" lon="2.69627">
        <ele>901.37</ele>
        <time>2021-08-15T18:23:05Z</time>
      </trkpt>
      <trkpt lat="45.02698" lon="2.69623">
        <ele>901.37</ele>
        <time>2021-08-15T18:23:06Z</time>
      </trkpt>
      <trkpt lat="45.02698" lon="2.69617">
        <ele>900.89</ele>
        <time>2021-08-15T18:23:07Z</time>
      </trkpt>
      <trkpt lat="45.02699" lon="2.69613">
        <ele>900.89</ele>
        <time>2021-08-15T18:23:08Z</time>
      </trkpt>
      <trkpt lat="45.02699" lon="2.69608">
        <ele>900.41</ele>
        <time>2021-08-15T18:23:09Z</time>
      </trkpt>
      <trkpt lat="45.027" lon="2.69604">
        <ele>899.45</ele>
        <time>2021-08-15T18:23:10Z</time>
      </trkpt>
      <trkpt lat="45.02701" lon="2.696">
        <ele>899.45</ele>
        <time>2021-08-15T18:23:11Z</time>
      </trkpt>
      <trkpt lat="45.02702" lon="2.69596">
        <ele>898.97</ele>
        <time>2021-08-15T18:23:12Z</time>
      </trkpt>
      <trkpt lat="45.02702" lon="2.69591">
        <ele>898.49</ele>
        <time>2021-08-15T18:23:13Z</time>
      </trkpt>
      <trkpt lat="45.02703" lon="2.69587">
        <ele>898.49</ele>
        <time>2021-08-15T18:23:14Z</time>
      </trkpt>
      <trkpt lat="45.02703" lon="2.69582">
        <ele>898.49</ele>
        <time>2021-08-15T18:23:15Z</time>
      </trkpt>
      <trkpt lat="45.02708" lon="2.69548">
        <ele>896.09</ele>
        <time>2021-08-15T18:23:22Z</time>
      </trkpt>
      <trkpt lat="45.02705" lon="2.69536">
        <ele>895.12</ele>
        <time>2021-08-15T18:23:25Z</time>
      </trkpt>
      <trkpt lat="45.02702" lon="2.69533">
        <ele>894.16</ele>
        <time>2021-08-15T18:23:26Z</time>
      </trkpt>
      <trkpt lat="45.02699" lon="2.69532">
        <ele>894.16</ele>
        <time>2021-08-15T18:23:27Z</time>
      </trkpt>
      <trkpt lat="45.02686" lon="2.6953">
        <ele>892.24</ele>
        <time>2021-08-15T18:23:30Z</time>
      </trkpt>
      <trkpt lat="45.02681" lon="2.69528">
        <ele>891.76</ele>
        <time>2021-08-15T18:23:31Z</time>
      </trkpt>
      <trkpt lat="45.02677" lon="2.69526">
        <ele>891.76</ele>
        <time>2021-08-15T18:23:32Z</time>
      </trkpt>
      <trkpt lat="45.02674" lon="2.69525">
        <ele>891.28</ele>
        <time>2021-08-15T18:23:33Z</time>
      </trkpt>
      <trkpt lat="45.02671" lon="2.69525">
        <ele>891.28</ele>
        <time>2021-08-15T18:23:34Z</time>
      </trkpt>
      <trkpt lat="45.02668" lon="2.69527">
        <ele>890.8</ele>
        <time>2021-08-15T18:23:35Z</time>
      </trkpt>
      <trkpt lat="45.02655" lon="2.69537">
        <ele>888.4</ele>
        <time>2021-08-15T18:23:39Z</time>
      </trkpt>
      <trkpt lat="45.02651" lon="2.6954">
        <ele>888.4</ele>
        <time>2021-08-15T18:23:40Z</time>
      </trkpt>
      <trkpt lat="45.02646" lon="2.69542">
        <ele>887.43</ele>
        <time>2021-08-15T18:23:41Z</time>
      </trkpt>
      <trkpt lat="45.02642" lon="2.69541">
        <ele>886.95</ele>
        <time>2021-08-15T18:23:42Z</time>
      </trkpt>
      <trkpt lat="45.02637" lon="2.69539">
        <ele>886.47</ele>
        <time>2021-08-15T18:23:43Z</time>
      </trkpt>
      <trkpt lat="45.02634" lon="2.69534">
        <ele>885.51</ele>
        <time>2021-08-15T18:23:44Z</time>
      </trkpt>
      <trkpt lat="45.02632" lon="2.69527">
        <ele>885.51</ele>
        <time>2021-08-15T18:23:45Z</time>
      </trkpt>
      <trkpt lat="45.0263" lon="2.6952">
        <ele>884.55</ele>
        <time>2021-08-15T18:23:46Z</time>
      </trkpt>
      <trkpt lat="45.0263" lon="2.69513">
        <ele>884.55</ele>
        <time>2021-08-15T18:23:47Z</time>
      </trkpt>
      <trkpt lat="45.02631" lon="2.69507">
        <ele>884.55</ele>
        <time>2021-08-15T18:23:48Z</time>
      </trkpt>
      <trkpt lat="45.02632" lon="2.69502">
        <ele>884.07</ele>
        <time>2021-08-15T18:23:49Z</time>
      </trkpt>
      <trkpt lat="45.02631" lon="2.69496">
        <ele>883.59</ele>
        <time>2021-08-15T18:23:50Z</time>
      </trkpt>
      <trkpt lat="45.02629" lon="2.69491">
        <ele>883.11</ele>
        <time>2021-08-15T18:23:51Z</time>
      </trkpt>
      <trkpt lat="45.02628" lon="2.69486">
        <ele>882.15</ele>
        <time>2021-08-15T18:23:52Z</time>
      </trkpt>
      <trkpt lat="45.02626" lon="2.69481">
        <ele>882.15</ele>
        <time>2021-08-15T18:23:53Z</time>
      </trkpt>
      <trkpt lat="45.02625" lon="2.69473">
        <ele>881.19</ele>
        <time>2021-08-15T18:23:54Z</time>
      </trkpt>
      <trkpt lat="45.02624" lon="2.69465">
        <ele>881.19</ele>
        <time>2021-08-15T18:23:55Z</time>
      </trkpt>
      <trkpt lat="45.02624" lon="2.69456">
        <ele>881.19</ele>
        <time>2021-08-15T18:23:56Z</time>
      </trkpt>
      <trkpt lat="45.02625" lon="2.69448">
        <ele>880.71</ele>
        <time>2021-08-15T18:23:57Z</time>
      </trkpt>
      <trkpt lat="45.02624" lon="2.69438">
        <ele>880.22</ele>
        <time>2021-08-15T18:23:58Z</time>
      </trkpt>
      <trkpt lat="45.02622" lon="2.69428">
        <ele>879.74</ele>
        <time>2021-08-15T18:23:59Z</time>
      </trkpt>
      <trkpt lat="45.02619" lon="2.6942">
        <ele>878.78</ele>
        <time>2021-08-15T18:24:00Z</time>
      </trkpt>
      <trkpt lat="45.02616" lon="2.69413">
        <ele>878.78</ele>
        <time>2021-08-15T18:24:01Z</time>
      </trkpt>
      <trkpt lat="45.02612" lon="2.69407">
        <ele>878.3</ele>
        <time>2021-08-15T18:24:02Z</time>
      </trkpt>
      <trkpt lat="45.02609" lon="2.69405">
        <ele>877.82</ele>
        <time>2021-08-15T18:24:03Z</time>
      </trkpt>
      <trkpt lat="45.02604" lon="2.69407">
        <ele>877.34</ele>
        <time>2021-08-15T18:24:04Z</time>
      </trkpt>
      <trkpt lat="45.026" lon="2.6941">
        <ele>876.38</ele>
        <time>2021-08-15T18:24:05Z</time>
      </trkpt>
      <trkpt lat="45.02595" lon="2.69412">
        <ele>875.9</ele>
        <time>2021-08-15T18:24:06Z</time>
      </trkpt>
      <trkpt lat="45.0259" lon="2.69411">
        <ele>875.42</ele>
        <time>2021-08-15T18:24:07Z</time>
      </trkpt>
      <trkpt lat="45.02584" lon="2.69409">
        <ele>874.94</ele>
        <time>2021-08-15T18:24:08Z</time>
      </trkpt>
      <trkpt lat="45.02578" lon="2.69406">
        <ele>874.46</ele>
        <time>2021-08-15T18:24:09Z</time>
      </trkpt>
      <trkpt lat="45.02572" lon="2.69404">
        <ele>874.46</ele>
        <time>2021-08-15T18:24:10Z</time>
      </trkpt>
      <trkpt lat="45.02567" lon="2.69403">
        <ele>873.5</ele>
        <time>2021-08-15T18:24:11Z</time>
      </trkpt>
      <trkpt lat="45.02561" lon="2.69402">
        <ele>873.01</ele>
        <time>2021-08-15T18:24:12Z</time>
      </trkpt>
      <trkpt lat="45.02556" lon="2.69399">
        <ele>872.53</ele>
        <time>2021-08-15T18:24:13Z</time>
      </trkpt>
      <trkpt lat="45.0255" lon="2.69397">
        <ele>872.53</ele>
        <time>2021-08-15T18:24:14Z</time>
      </trkpt>
      <trkpt lat="45.02545" lon="2.69393">
        <ele>871.09</ele>
        <time>2021-08-15T18:24:15Z</time>
      </trkpt>
      <trkpt lat="45.0254" lon="2.69389">
        <ele>870.61</ele>
        <time>2021-08-15T18:24:16Z</time>
      </trkpt>
      <trkpt lat="45.02536" lon="2.69386">
        <ele>870.61</ele>
        <time>2021-08-15T18:24:17Z</time>
      </trkpt>
      <trkpt lat="45.02532" lon="2.69385">
        <ele>869.65</ele>
        <time>2021-08-15T18:24:18Z</time>
      </trkpt>
      <trkpt lat="45.02527" lon="2.69384">
        <ele>868.69</ele>
        <time>2021-08-15T18:24:19Z</time>
      </trkpt>
      <trkpt lat="45.02522" lon="2.69384">
        <ele>867.73</ele>
        <time>2021-08-15T18:24:20Z</time>
      </trkpt>
      <trkpt lat="45.02517" lon="2.69383">
        <ele>866.77</ele>
        <time>2021-08-15T18:24:21Z</time>
      </trkpt>
      <trkpt lat="45.02512" lon="2.69381">
        <ele>865.8</ele>
        <time>2021-08-15T18:24:22Z</time>
      </trkpt>
      <trkpt lat="45.02506" lon="2.69377">
        <ele>864.36</ele>
        <time>2021-08-15T18:24:23Z</time>
      </trkpt>
      <trkpt lat="45.02502" lon="2.69371">
        <ele>863.88</ele>
        <time>2021-08-15T18:24:24Z</time>
      </trkpt>
      <trkpt lat="45.02499" lon="2.69364">
        <ele>863.4</ele>
        <time>2021-08-15T18:24:25Z</time>
      </trkpt>
      <trkpt lat="45.02497" lon="2.69358">
        <ele>863.4</ele>
        <time>2021-08-15T18:24:26Z</time>
      </trkpt>
      <trkpt lat="45.02495" lon="2.69353">
        <ele>863.4</ele>
        <time>2021-08-15T18:24:27Z</time>
      </trkpt>
      <trkpt lat="45.02492" lon="2.69349">
        <ele>862.92</ele>
        <time>2021-08-15T18:24:28Z</time>
      </trkpt>
      <trkpt lat="45.02488" lon="2.69346">
        <ele>861.96</ele>
        <time>2021-08-15T18:24:29Z</time>
      </trkpt>
      <trkpt lat="45.02484" lon="2.69344">
        <ele>861.48</ele>
        <time>2021-08-15T18:24:30Z</time>
      </trkpt>
      <trkpt lat="45.02479" lon="2.69343">
        <ele>860.52</ele>
        <time>2021-08-15T18:24:31Z</time>
      </trkpt>
      <trkpt lat="45.02473" lon="2.69343">
        <ele>859.56</ele>
        <time>2021-08-15T18:24:32Z</time>
      </trkpt>
      <trkpt lat="45.0246" lon="2.6934">
        <ele>858.11</ele>
        <time>2021-08-15T18:24:34Z</time>
      </trkpt>
      <trkpt lat="45.02455" lon="2.69336">
        <ele>857.63</ele>
        <time>2021-08-15T18:24:35Z</time>
      </trkpt>
      <trkpt lat="45.02449" lon="2.6933">
        <ele>857.15</ele>
        <time>2021-08-15T18:24:36Z</time>
      </trkpt>
      <trkpt lat="45.02441" lon="2.69319">
        <ele>856.67</ele>
        <time>2021-08-15T18:24:38Z</time>
      </trkpt>
      <trkpt lat="45.02429" lon="2.693">
        <ele>856.19</ele>
        <time>2021-08-15T18:24:41Z</time>
      </trkpt>
      <trkpt lat="45.0242" lon="2.69289">
        <ele>855.71</ele>
        <time>2021-08-15T18:24:43Z</time>
      </trkpt>
      <trkpt lat="45.02417" lon="2.69281">
        <ele>854.75</ele>
        <time>2021-08-15T18:24:44Z</time>
      </trkpt>
      <trkpt lat="45.02415" lon="2.69273">
        <ele>854.27</ele>
        <time>2021-08-15T18:24:45Z</time>
      </trkpt>
      <trkpt lat="45.02412" lon="2.69266">
        <ele>854.27</ele>
        <time>2021-08-15T18:24:46Z</time>
      </trkpt>
      <trkpt lat="45.02409" lon="2.69261">
        <ele>853.79</ele>
        <time>2021-08-15T18:24:47Z</time>
      </trkpt>
      <trkpt lat="45.02406" lon="2.69257">
        <ele>853.31</ele>
        <time>2021-08-15T18:24:48Z</time>
      </trkpt>
      <trkpt lat="45.02402" lon="2.69252">
        <ele>852.83</ele>
        <time>2021-08-15T18:24:49Z</time>
      </trkpt>
      <trkpt lat="45.02399" lon="2.69246">
        <ele>851.87</ele>
        <time>2021-08-15T18:24:50Z</time>
      </trkpt>
      <trkpt lat="45.02396" lon="2.69239">
        <ele>851.38</ele>
        <time>2021-08-15T18:24:51Z</time>
      </trkpt>
      <trkpt lat="45.02395" lon="2.69231">
        <ele>849.94</ele>
        <time>2021-08-15T18:24:52Z</time>
      </trkpt>
      <trkpt lat="45.02395" lon="2.69223">
        <ele>848.98</ele>
        <time>2021-08-15T18:24:53Z</time>
      </trkpt>
      <trkpt lat="45.02396" lon="2.69214">
        <ele>848.5</ele>
        <time>2021-08-15T18:24:54Z</time>
      </trkpt>
      <trkpt lat="45.02395" lon="2.69204">
        <ele>848.02</ele>
        <time>2021-08-15T18:24:55Z</time>
      </trkpt>
      <trkpt lat="45.02394" lon="2.69197">
        <ele>848.02</ele>
        <time>2021-08-15T18:24:56Z</time>
      </trkpt>
      <trkpt lat="45.02392" lon="2.69182">
        <ele>848.02</ele>
        <time>2021-08-15T18:24:59Z</time>
      </trkpt>
      <trkpt lat="45.0239" lon="2.69179">
        <ele>848.02</ele>
        <time>2021-08-15T18:25:00Z</time>
      </trkpt>
      <trkpt lat="45.02389" lon="2.69173">
        <ele>848.02</ele>
        <time>2021-08-15T18:25:02Z</time>
      </trkpt>
      <trkpt lat="45.02388" lon="2.6917">
        <ele>848.02</ele>
        <time>2021-08-15T18:25:03Z</time>
      </trkpt>
      <trkpt lat="45.02387" lon="2.69167">
        <ele>848.02</ele>
        <time>2021-08-15T18:25:04Z</time>
      </trkpt>
      <trkpt lat="45.02387" lon="2.69163">
        <ele>848.02</ele>
        <time>2021-08-15T18:25:05Z</time>
      </trkpt>
      <trkpt lat="45.02386" lon="2.69159">
        <ele>848.02</ele>
        <time>2021-08-15T18:25:06Z</time>
      </trkpt>
      <trkpt lat="45.02386" lon="2.69154">
        <ele>848.02</ele>
        <time>2021-08-15T18:25:07Z</time>
      </trkpt>
      <trkpt lat="45.02379" lon="2.69127">
        <ele>845.62</ele>
        <time>2021-08-15T18:25:13Z</time>
      </trkpt>
      <trkpt lat="45.02377" lon="2.69108">
        <ele>842.73</ele>
        <time>2021-08-15T18:25:16Z</time>
      </trkpt>
      <trkpt lat="45.02374" lon="2.69099">
        <ele>842.25</ele>
        <time>2021-08-15T18:25:17Z</time>
      </trkpt>
      <trkpt lat="45.02365" lon="2.69065">
        <ele>841.29</ele>
        <time>2021-08-15T18:25:21Z</time>
      </trkpt>
      <trkpt lat="45.02359" lon="2.69037">
        <ele>840.81</ele>
        <time>2021-08-15T18:25:25Z</time>
      </trkpt>
      <trkpt lat="45.02356" lon="2.69031">
        <ele>840.81</ele>
        <time>2021-08-15T18:25:26Z</time>
      </trkpt>
      <trkpt lat="45.02353" lon="2.69026">
        <ele>839.85</ele>
        <time>2021-08-15T18:25:27Z</time>
      </trkpt>
      <trkpt lat="45.02352" lon="2.69022">
        <ele>839.85</ele>
        <time>2021-08-15T18:25:28Z</time>
      </trkpt>
      <trkpt lat="45.02351" lon="2.69016">
        <ele>839.85</ele>
        <time>2021-08-15T18:25:33Z</time>
      </trkpt>
      <trkpt lat="45.02349" lon="2.69015">
        <ele>839.37</ele>
        <time>2021-08-15T18:25:52Z</time>
      </trkpt>
      <trkpt lat="45.02348" lon="2.69014">
        <ele>838.89</ele>
        <time>2021-08-15T18:26:04Z</time>
      </trkpt>
      <trkpt lat="45.02347" lon="2.69017">
        <ele>838.89</ele>
        <time>2021-08-15T18:26:09Z</time>
      </trkpt>
      <trkpt lat="45.02348" lon="2.69017">
        <ele>838.89</ele>
        <time>2021-08-15T18:26:10Z</time>
      </trkpt>
      <trkpt lat="45.02356" lon="2.6903">
        <ele>840.33</ele>
        <time>2021-08-15T18:26:18Z</time>
      </trkpt>
      <trkpt lat="45.02355" lon="2.69035">
        <ele>840.81</ele>
        <time>2021-08-15T18:26:20Z</time>
      </trkpt>
      <trkpt lat="45.02354" lon="2.69037">
        <ele>840.81</ele>
        <time>2021-08-15T18:26:21Z</time>
      </trkpt>
      <trkpt lat="45.02353" lon="2.69038">
        <ele>841.29</ele>
        <time>2021-08-15T18:26:22Z</time>
      </trkpt>
      <trkpt lat="45.02351" lon="2.69038">
        <ele>841.29</ele>
        <time>2021-08-15T18:26:23Z</time>
      </trkpt>
      <trkpt lat="45.02349" lon="2.69038">
        <ele>841.77</ele>
        <time>2021-08-15T18:26:24Z</time>
      </trkpt>
      <trkpt lat="45.02348" lon="2.69037">
        <ele>841.77</ele>
        <time>2021-08-15T18:26:25Z</time>
      </trkpt>
      <trkpt lat="45.02347" lon="2.69036">
        <ele>842.73</ele>
        <time>2021-08-15T18:26:26Z</time>
      </trkpt>
      <trkpt lat="45.02346" lon="2.69035">
        <ele>842.73</ele>
        <time>2021-08-15T18:26:27Z</time>
      </trkpt>
      <trkpt lat="45.02345" lon="2.69034">
        <ele>842.73</ele>
        <time>2021-08-15T18:26:28Z</time>
      </trkpt>
      <trkpt lat="45.02344" lon="2.69032">
        <ele>843.21</ele>
        <time>2021-08-15T18:26:29Z</time>
      </trkpt>
      <trkpt lat="45.02343" lon="2.69031">
        <ele>843.21</ele>
        <time>2021-08-15T18:26:30Z</time>
      </trkpt>
      <trkpt lat="45.02343" lon="2.6903">
        <ele>843.21</ele>
        <time>2021-08-15T18:26:31Z</time>
      </trkpt>
      <trkpt lat="45.02342" lon="2.69028">
        <ele>843.69</ele>
        <time>2021-08-15T18:26:32Z</time>
      </trkpt>
      <trkpt lat="45.02337" lon="2.69016">
        <ele>845.14</ele>
        <time>2021-08-15T18:26:41Z</time>
      </trkpt>
      <trkpt lat="45.0233" lon="2.69006">
        <ele>846.58</ele>
        <time>2021-08-15T18:26:50Z</time>
      </trkpt>
      <trkpt lat="45.02321" lon="2.68995">
        <ele>847.54</ele>
        <time>2021-08-15T18:26:59Z</time>
      </trkpt>
      <trkpt lat="45.02305" lon="2.68981">
        <ele>849.46</ele>
        <time>2021-08-15T18:27:13Z</time>
      </trkpt>
      <trkpt lat="45.0229" lon="2.68973">
        <ele>849.94</ele>
        <time>2021-08-15T18:27:23Z</time>
      </trkpt>
      <trkpt lat="45.02269" lon="2.68976">
        <ele>850.42</ele>
        <time>2021-08-15T18:27:33Z</time>
      </trkpt>
      <trkpt lat="45.0225" lon="2.68993">
        <ele>850.42</ele>
        <time>2021-08-15T18:27:41Z</time>
      </trkpt>
      <trkpt lat="45.02224" lon="2.69022">
        <ele>850.42</ele>
        <time>2021-08-15T18:27:50Z</time>
      </trkpt>
      <trkpt lat="45.02194" lon="2.69046">
        <ele>850.9</ele>
        <time>2021-08-15T18:27:59Z</time>
      </trkpt>
      <trkpt lat="45.0216" lon="2.69074">
        <ele>850.9</ele>
        <time>2021-08-15T18:28:08Z</time>
      </trkpt>
      <trkpt lat="45.02151" lon="2.6908">
        <ele>852.35</ele>
        <time>2021-08-15T18:28:12Z</time>
      </trkpt>
      <trkpt lat="45.02148" lon="2.69079">
        <ele>852.35</ele>
        <time>2021-08-15T18:28:13Z</time>
      </trkpt>
      <trkpt lat="45.02132" lon="2.69068">
        <ele>853.31</ele>
        <time>2021-08-15T18:28:21Z</time>
      </trkpt>
      <trkpt lat="45.02129" lon="2.69064">
        <ele>853.79</ele>
        <time>2021-08-15T18:28:24Z</time>
      </trkpt>
      <trkpt lat="45.02126" lon="2.69061">
        <ele>854.27</ele>
        <time>2021-08-15T18:28:29Z</time>
      </trkpt>
      <trkpt lat="45.02124" lon="2.69052">
        <ele>855.71</ele>
        <time>2021-08-15T18:28:38Z</time>
      </trkpt>
      <trkpt lat="45.02123" lon="2.69043">
        <ele>857.15</ele>
        <time>2021-08-15T18:28:46Z</time>
      </trkpt>
      <trkpt lat="45.02121" lon="2.69032">
        <ele>858.59</ele>
        <time>2021-08-15T18:28:56Z</time>
      </trkpt>
      <trkpt lat="45.02116" lon="2.69023">
        <ele>859.56</ele>
        <time>2021-08-15T18:29:05Z</time>
      </trkpt>
      <trkpt lat="45.02115" lon="2.69022">
        <ele>859.56</ele>
        <time>2021-08-15T18:29:07Z</time>
      </trkpt>
      <trkpt lat="45.02114" lon="2.69021">
        <ele>859.56</ele>
        <time>2021-08-15T18:29:08Z</time>
      </trkpt>
      <trkpt lat="45.02114" lon="2.69019">
        <ele>859.56</ele>
        <time>2021-08-15T18:29:09Z</time>
      </trkpt>
      <trkpt lat="45.02112" lon="2.69018">
        <ele>859.56</ele>
        <time>2021-08-15T18:29:10Z</time>
      </trkpt>
      <trkpt lat="45.02111" lon="2.69016">
        <ele>859.56</ele>
        <time>2021-08-15T18:29:11Z</time>
      </trkpt>
      <trkpt lat="45.02109" lon="2.69014">
        <ele>859.56</ele>
        <time>2021-08-15T18:29:12Z</time>
      </trkpt>
      <trkpt lat="45.02107" lon="2.69011">
        <ele>859.56</ele>
        <time>2021-08-15T18:29:13Z</time>
      </trkpt>
      <trkpt lat="45.02105" lon="2.69008">
        <ele>859.56</ele>
        <time>2021-08-15T18:29:14Z</time>
      </trkpt>
      <trkpt lat="45.02088" lon="2.68985">
        <ele>857.63</ele>
        <time>2021-08-15T18:29:21Z</time>
      </trkpt>
      <trkpt lat="45.02084" lon="2.68979">
        <ele>857.63</ele>
        <time>2021-08-15T18:29:26Z</time>
      </trkpt>
      <trkpt lat="45.02083" lon="2.68978">
        <ele>857.63</ele>
        <time>2021-08-15T18:29:33Z</time>
      </trkpt>
      <trkpt lat="45.02083" lon="2.68978">
        <ele>857.15</ele>
        <time>2021-08-15T18:29:45Z</time>
      </trkpt>
      <trkpt lat="45.02082" lon="2.68975">
        <ele>857.15</ele>
        <time>2021-08-15T18:29:53Z</time>
      </trkpt>
      <trkpt lat="45.02082" lon="2.68972">
        <ele>857.15</ele>
        <time>2021-08-15T18:29:54Z</time>
      </trkpt>
      <trkpt lat="45.02082" lon="2.6897">
        <ele>857.15</ele>
        <time>2021-08-15T18:29:55Z</time>
      </trkpt>
      <trkpt lat="45.02083" lon="2.68967">
        <ele>857.15</ele>
        <time>2021-08-15T18:29:56Z</time>
      </trkpt>
      <trkpt lat="45.02082" lon="2.68964">
        <ele>857.15</ele>
        <time>2021-08-15T18:29:57Z</time>
      </trkpt>
      <trkpt lat="45.02081" lon="2.68962">
        <ele>856.67</ele>
        <time>2021-08-15T18:29:58Z</time>
      </trkpt>
      <trkpt lat="45.0208" lon="2.68959">
        <ele>856.67</ele>
        <time>2021-08-15T18:29:59Z</time>
      </trkpt>
      <trkpt lat="45.02079" lon="2.68957">
        <ele>856.67</ele>
        <time>2021-08-15T18:30:00Z</time>
      </trkpt>
      <trkpt lat="45.02077" lon="2.68953">
        <ele>856.19</ele>
        <time>2021-08-15T18:30:01Z</time>
      </trkpt>
      <trkpt lat="45.02075" lon="2.68949">
        <ele>855.23</ele>
        <time>2021-08-15T18:30:02Z</time>
      </trkpt>
      <trkpt lat="45.02071" lon="2.68943">
        <ele>854.75</ele>
        <time>2021-08-15T18:30:04Z</time>
      </trkpt>
      <trkpt lat="45.0207" lon="2.68928">
        <ele>852.83</ele>
        <time>2021-08-15T18:30:09Z</time>
      </trkpt>
      <trkpt lat="45.0207" lon="2.68912">
        <ele>851.38</ele>
        <time>2021-08-15T18:30:15Z</time>
      </trkpt>
      <trkpt lat="45.02073" lon="2.68909">
        <ele>850.9</ele>
        <time>2021-08-15T18:30:17Z</time>
      </trkpt>
      <trkpt lat="45.02074" lon="2.68908">
        <ele>850.9</ele>
        <time>2021-08-15T18:30:18Z</time>
      </trkpt>
      <trkpt lat="45.02076" lon="2.68906">
        <ele>850.9</ele>
        <time>2021-08-15T18:30:19Z</time>
      </trkpt>
      <trkpt lat="45.02078" lon="2.68905">
        <ele>850.9</ele>
        <time>2021-08-15T18:30:20Z</time>
      </trkpt>
      <trkpt lat="45.0208" lon="2.68904">
        <ele>850.42</ele>
        <time>2021-08-15T18:30:21Z</time>
      </trkpt>
      <trkpt lat="45.02094" lon="2.68884">
        <ele>847.06</ele>
        <time>2021-08-15T18:30:27Z</time>
      </trkpt>
      <trkpt lat="45.02098" lon="2.68881">
        <ele>847.06</ele>
        <time>2021-08-15T18:30:28Z</time>
      </trkpt>
      <trkpt lat="45.02105" lon="2.68873">
        <ele>846.1</ele>
        <time>2021-08-15T18:30:30Z</time>
      </trkpt>
      <trkpt lat="45.02107" lon="2.68868">
        <ele>845.62</ele>
        <time>2021-08-15T18:30:31Z</time>
      </trkpt>
      <trkpt lat="45.02108" lon="2.68864">
        <ele>845.62</ele>
        <time>2021-08-15T18:30:32Z</time>
      </trkpt>
      <trkpt lat="45.02107" lon="2.68861">
        <ele>845.62</ele>
        <time>2021-08-15T18:30:33Z</time>
      </trkpt>
      <trkpt lat="45.02105" lon="2.68858">
        <ele>845.62</ele>
        <time>2021-08-15T18:30:34Z</time>
      </trkpt>
      <trkpt lat="45.02103" lon="2.68855">
        <ele>845.62</ele>
        <time>2021-08-15T18:30:35Z</time>
      </trkpt>
      <trkpt lat="45.02097" lon="2.68838">
        <ele>845.62</ele>
        <time>2021-08-15T18:30:40Z</time>
      </trkpt>
      <trkpt lat="45.02093" lon="2.6882">
        <ele>845.62</ele>
        <time>2021-08-15T18:30:46Z</time>
      </trkpt>
      <trkpt lat="45.02084" lon="2.68808">
        <ele>844.66</ele>
        <time>2021-08-15T18:30:51Z</time>
      </trkpt>
      <trkpt lat="45.02063" lon="2.68789">
        <ele>844.66</ele>
        <time>2021-08-15T18:30:59Z</time>
      </trkpt>
      <trkpt lat="45.0206" lon="2.68786">
        <ele>846.1</ele>
        <time>2021-08-15T18:31:01Z</time>
      </trkpt>
      <trkpt lat="45.02051" lon="2.68777">
        <ele>847.06</ele>
        <time>2021-08-15T18:31:07Z</time>
      </trkpt>
      <trkpt lat="45.02041" lon="2.68769">
        <ele>848.02</ele>
        <time>2021-08-15T18:31:13Z</time>
      </trkpt>
      <trkpt lat="45.02038" lon="2.68764">
        <ele>848.5</ele>
        <time>2021-08-15T18:31:20Z</time>
      </trkpt>
      <trkpt lat="45.02035" lon="2.68757">
        <ele>848.5</ele>
        <time>2021-08-15T18:31:27Z</time>
      </trkpt>
      <trkpt lat="45.02035" lon="2.68755">
        <ele>848.98</ele>
        <time>2021-08-15T18:31:28Z</time>
      </trkpt>
      <trkpt lat="45.02034" lon="2.68753">
        <ele>848.98</ele>
        <time>2021-08-15T18:31:29Z</time>
      </trkpt>
      <trkpt lat="45.02034" lon="2.68751">
        <ele>849.46</ele>
        <time>2021-08-15T18:31:30Z</time>
      </trkpt>
      <trkpt lat="45.02035" lon="2.68747">
        <ele>849.46</ele>
        <time>2021-08-15T18:31:31Z</time>
      </trkpt>
      <trkpt lat="45.02035" lon="2.68743">
        <ele>849.46</ele>
        <time>2021-08-15T18:31:32Z</time>
      </trkpt>
      <trkpt lat="45.02036" lon="2.68717">
        <ele>849.46</ele>
        <time>2021-08-15T18:31:38Z</time>
      </trkpt>
      <trkpt lat="45.02036" lon="2.68715">
        <ele>849.46</ele>
        <time>2021-08-15T18:31:39Z</time>
      </trkpt>
      <trkpt lat="45.02034" lon="2.68712">
        <ele>848.5</ele>
        <time>2021-08-15T18:31:40Z</time>
      </trkpt>
      <trkpt lat="45.02033" lon="2.68709">
        <ele>848.5</ele>
        <time>2021-08-15T18:31:41Z</time>
      </trkpt>
      <trkpt lat="45.02031" lon="2.68706">
        <ele>848.5</ele>
        <time>2021-08-15T18:31:42Z</time>
      </trkpt>
      <trkpt lat="45.0202" lon="2.68689">
        <ele>846.1</ele>
        <time>2021-08-15T18:31:48Z</time>
      </trkpt>
      <trkpt lat="45.02017" lon="2.6868">
        <ele>845.62</ele>
        <time>2021-08-15T18:31:50Z</time>
      </trkpt>
      <trkpt lat="45.02015" lon="2.68669">
        <ele>844.66</ele>
        <time>2021-08-15T18:31:52Z</time>
      </trkpt>
      <trkpt lat="45.02014" lon="2.68664">
        <ele>844.66</ele>
        <time>2021-08-15T18:31:53Z</time>
      </trkpt>
      <trkpt lat="45.02012" lon="2.68639">
        <ele>844.66</ele>
        <time>2021-08-15T18:31:59Z</time>
      </trkpt>
      <trkpt lat="45.02002" lon="2.68622">
        <ele>844.66</ele>
        <time>2021-08-15T18:32:04Z</time>
      </trkpt>
      <trkpt lat="45.01979" lon="2.68615">
        <ele>844.66</ele>
        <time>2021-08-15T18:32:11Z</time>
      </trkpt>
      <trkpt lat="45.01961" lon="2.68611">
        <ele>846.1</ele>
        <time>2021-08-15T18:32:17Z</time>
      </trkpt>
      <trkpt lat="45.01947" lon="2.68596">
        <ele>846.1</ele>
        <time>2021-08-15T18:32:24Z</time>
      </trkpt>
      <trkpt lat="45.0194" lon="2.68591">
        <ele>844.66</ele>
        <time>2021-08-15T18:32:26Z</time>
      </trkpt>
      <trkpt lat="45.01926" lon="2.68583">
        <ele>843.21</ele>
        <time>2021-08-15T18:32:29Z</time>
      </trkpt>
      <trkpt lat="45.01922" lon="2.68579">
        <ele>842.73</ele>
        <time>2021-08-15T18:32:30Z</time>
      </trkpt>
      <trkpt lat="45.01918" lon="2.68575">
        <ele>842.73</ele>
        <time>2021-08-15T18:32:31Z</time>
      </trkpt>
      <trkpt lat="45.01907" lon="2.68563">
        <ele>842.73</ele>
        <time>2021-08-15T18:32:34Z</time>
      </trkpt>
      <trkpt lat="45.01894" lon="2.68553">
        <ele>842.73</ele>
        <time>2021-08-15T18:32:39Z</time>
      </trkpt>
      <trkpt lat="45.01881" lon="2.68548">
        <ele>842.73</ele>
        <time>2021-08-15T18:32:45Z</time>
      </trkpt>
      <trkpt lat="45.01878" lon="2.68547">
        <ele>842.73</ele>
        <time>2021-08-15T18:32:50Z</time>
      </trkpt>
      <trkpt lat="45.01877" lon="2.68548">
        <ele>842.73</ele>
        <time>2021-08-15T18:32:51Z</time>
      </trkpt>
      <trkpt lat="45.01875" lon="2.68548">
        <ele>842.73</ele>
        <time>2021-08-15T18:32:52Z</time>
      </trkpt>
      <trkpt lat="45.01874" lon="2.68548">
        <ele>842.25</ele>
        <time>2021-08-15T18:32:53Z</time>
      </trkpt>
      <trkpt lat="45.01872" lon="2.68548">
        <ele>841.77</ele>
        <time>2021-08-15T18:32:54Z</time>
      </trkpt>
      <trkpt lat="45.01871" lon="2.68548">
        <ele>841.77</ele>
        <time>2021-08-15T18:32:55Z</time>
      </trkpt>
      <trkpt lat="45.01868" lon="2.68548">
        <ele>841.77</ele>
        <time>2021-08-15T18:32:56Z</time>
      </trkpt>
      <trkpt lat="45.01866" lon="2.68548">
        <ele>841.29</ele>
        <time>2021-08-15T18:32:57Z</time>
      </trkpt>
      <trkpt lat="45.01863" lon="2.68547">
        <ele>841.29</ele>
        <time>2021-08-15T18:32:58Z</time>
      </trkpt>
      <trkpt lat="45.01846" lon="2.68544">
        <ele>838.41</ele>
        <time>2021-08-15T18:33:05Z</time>
      </trkpt>
      <trkpt lat="45.01842" lon="2.68543">
        <ele>837.45</ele>
        <time>2021-08-15T18:33:07Z</time>
      </trkpt>
      <trkpt lat="45.01841" lon="2.68541">
        <ele>836.96</ele>
        <time>2021-08-15T18:33:08Z</time>
      </trkpt>
      <trkpt lat="45.01839" lon="2.6854">
        <ele>836.96</ele>
        <time>2021-08-15T18:33:09Z</time>
      </trkpt>
      <trkpt lat="45.01838" lon="2.68539">
        <ele>836.48</ele>
        <time>2021-08-15T18:33:10Z</time>
      </trkpt>
      <trkpt lat="45.01836" lon="2.68537">
        <ele>836</ele>
        <time>2021-08-15T18:33:11Z</time>
      </trkpt>
      <trkpt lat="45.01833" lon="2.68535">
        <ele>835.04</ele>
        <time>2021-08-15T18:33:12Z</time>
      </trkpt>
      <trkpt lat="45.0183" lon="2.68532">
        <ele>835.04</ele>
        <time>2021-08-15T18:33:13Z</time>
      </trkpt>
      <trkpt lat="45.01821" lon="2.68523">
        <ele>833.12</ele>
        <time>2021-08-15T18:33:18Z</time>
      </trkpt>
      <trkpt lat="45.01819" lon="2.68518">
        <ele>833.12</ele>
        <time>2021-08-15T18:33:21Z</time>
      </trkpt>
      <trkpt lat="45.01818" lon="2.68517">
        <ele>833.12</ele>
        <time>2021-08-15T18:33:22Z</time>
      </trkpt>
      <trkpt lat="45.01818" lon="2.68515">
        <ele>832.64</ele>
        <time>2021-08-15T18:33:23Z</time>
      </trkpt>
      <trkpt lat="45.01817" lon="2.68506">
        <ele>831.68</ele>
        <time>2021-08-15T18:33:29Z</time>
      </trkpt>
      <trkpt lat="45.01816" lon="2.68505">
        <ele>831.2</ele>
        <time>2021-08-15T18:33:30Z</time>
      </trkpt>
      <trkpt lat="45.01815" lon="2.68495">
        <ele>829.76</ele>
        <time>2021-08-15T18:33:36Z</time>
      </trkpt>
      <trkpt lat="45.01814" lon="2.68493">
        <ele>829.76</ele>
        <time>2021-08-15T18:33:37Z</time>
      </trkpt>
      <trkpt lat="45.01813" lon="2.68489">
        <ele>829.76</ele>
        <time>2021-08-15T18:33:39Z</time>
      </trkpt>
      <trkpt lat="45.01805" lon="2.6847">
        <ele>829.27</ele>
        <time>2021-08-15T18:33:47Z</time>
      </trkpt>
      <trkpt lat="45.01803" lon="2.68464">
        <ele>828.31</ele>
        <time>2021-08-15T18:33:50Z</time>
      </trkpt>
      <trkpt lat="45.01794" lon="2.68433">
        <ele>827.83</ele>
        <time>2021-08-15T18:33:59Z</time>
      </trkpt>
      <trkpt lat="45.0179" lon="2.68415">
        <ele>827.35</ele>
        <time>2021-08-15T18:34:05Z</time>
      </trkpt>
      <trkpt lat="45.01784" lon="2.68401">
        <ele>827.35</ele>
        <time>2021-08-15T18:34:12Z</time>
      </trkpt>
      <trkpt lat="45.01779" lon="2.68389">
        <ele>827.35</ele>
        <time>2021-08-15T18:34:17Z</time>
      </trkpt>
      <trkpt lat="45.01775" lon="2.68378">
        <ele>827.35</ele>
        <time>2021-08-15T18:34:25Z</time>
      </trkpt>
      <trkpt lat="45.01771" lon="2.68367">
        <ele>827.35</ele>
        <time>2021-08-15T18:34:33Z</time>
      </trkpt>
      <trkpt lat="45.01767" lon="2.6834">
        <ele>826.87</ele>
        <time>2021-08-15T18:34:41Z</time>
      </trkpt>
      <trkpt lat="45.01764" lon="2.68326">
        <ele>826.39</ele>
        <time>2021-08-15T18:34:46Z</time>
      </trkpt>
      <trkpt lat="45.01764" lon="2.68323">
        <ele>826.39</ele>
        <time>2021-08-15T18:34:47Z</time>
      </trkpt>
      <trkpt lat="45.01759" lon="2.68304">
        <ele>826.39</ele>
        <time>2021-08-15T18:34:53Z</time>
      </trkpt>
      <trkpt lat="45.01748" lon="2.68276">
        <ele>826.39</ele>
        <time>2021-08-15T18:35:02Z</time>
      </trkpt>
      <trkpt lat="45.01737" lon="2.68251">
        <ele>826.39</ele>
        <time>2021-08-15T18:35:08Z</time>
      </trkpt>
      <trkpt lat="45.01735" lon="2.68249">
        <ele>826.39</ele>
        <time>2021-08-15T18:35:09Z</time>
      </trkpt>
      <trkpt lat="45.01733" lon="2.68246">
        <ele>826.39</ele>
        <time>2021-08-15T18:35:10Z</time>
      </trkpt>
      <trkpt lat="45.01731" lon="2.68242">
        <ele>826.39</ele>
        <time>2021-08-15T18:35:11Z</time>
      </trkpt>
      <trkpt lat="45.01729" lon="2.68237">
        <ele>826.39</ele>
        <time>2021-08-15T18:35:12Z</time>
      </trkpt>
      <trkpt lat="45.01728" lon="2.68233">
        <ele>827.83</ele>
        <time>2021-08-15T18:35:13Z</time>
      </trkpt>
      <trkpt lat="45.01727" lon="2.6823">
        <ele>827.83</ele>
        <time>2021-08-15T18:35:14Z</time>
      </trkpt>
      <trkpt lat="45.01725" lon="2.68227">
        <ele>827.83</ele>
        <time>2021-08-15T18:35:15Z</time>
      </trkpt>
      <trkpt lat="45.01724" lon="2.68224">
        <ele>827.83</ele>
        <time>2021-08-15T18:35:16Z</time>
      </trkpt>
      <trkpt lat="45.01721" lon="2.68218">
        <ele>827.83</ele>
        <time>2021-08-15T18:35:18Z</time>
      </trkpt>
      <trkpt lat="45.01719" lon="2.68215">
        <ele>827.83</ele>
        <time>2021-08-15T18:35:19Z</time>
      </trkpt>
      <trkpt lat="45.01716" lon="2.68212">
        <ele>827.83</ele>
        <time>2021-08-15T18:35:20Z</time>
      </trkpt>
      <trkpt lat="45.01713" lon="2.6821">
        <ele>827.83</ele>
        <time>2021-08-15T18:35:21Z</time>
      </trkpt>
      <trkpt lat="45.01711" lon="2.68208">
        <ele>827.83</ele>
        <time>2021-08-15T18:35:22Z</time>
      </trkpt>
      <trkpt lat="45.01709" lon="2.68206">
        <ele>827.83</ele>
        <time>2021-08-15T18:35:23Z</time>
      </trkpt>
      <trkpt lat="45.01706" lon="2.68204">
        <ele>827.83</ele>
        <time>2021-08-15T18:35:24Z</time>
      </trkpt>
      <trkpt lat="45.01703" lon="2.68202">
        <ele>827.83</ele>
        <time>2021-08-15T18:35:25Z</time>
      </trkpt>
      <trkpt lat="45.01701" lon="2.68199">
        <ele>827.83</ele>
        <time>2021-08-15T18:35:26Z</time>
      </trkpt>
      <trkpt lat="45.01698" lon="2.68196">
        <ele>827.83</ele>
        <time>2021-08-15T18:35:27Z</time>
      </trkpt>
      <trkpt lat="45.01697" lon="2.68192">
        <ele>827.83</ele>
        <time>2021-08-15T18:35:28Z</time>
      </trkpt>
      <trkpt lat="45.01696" lon="2.68189">
        <ele>827.83</ele>
        <time>2021-08-15T18:35:29Z</time>
      </trkpt>
      <trkpt lat="45.01696" lon="2.68186">
        <ele>826.39</ele>
        <time>2021-08-15T18:35:30Z</time>
      </trkpt>
      <trkpt lat="45.01696" lon="2.68183">
        <ele>826.39</ele>
        <time>2021-08-15T18:35:31Z</time>
      </trkpt>
      <trkpt lat="45.01696" lon="2.68181">
        <ele>826.39</ele>
        <time>2021-08-15T18:35:32Z</time>
      </trkpt>
      <trkpt lat="45.01696" lon="2.68178">
        <ele>826.39</ele>
        <time>2021-08-15T18:35:33Z</time>
      </trkpt>
      <trkpt lat="45.01697" lon="2.68175">
        <ele>826.39</ele>
        <time>2021-08-15T18:35:34Z</time>
      </trkpt>
      <trkpt lat="45.01697" lon="2.68171">
        <ele>825.91</ele>
        <time>2021-08-15T18:35:35Z</time>
      </trkpt>
      <trkpt lat="45.01698" lon="2.68168">
        <ele>825.91</ele>
        <time>2021-08-15T18:35:36Z</time>
      </trkpt>
      <trkpt lat="45.01698" lon="2.68165">
        <ele>825.91</ele>
        <time>2021-08-15T18:35:37Z</time>
      </trkpt>
      <trkpt lat="45.01699" lon="2.68163">
        <ele>825.91</ele>
        <time>2021-08-15T18:35:38Z</time>
      </trkpt>
      <trkpt lat="45.017" lon="2.6816">
        <ele>825.43</ele>
        <time>2021-08-15T18:35:39Z</time>
      </trkpt>
      <trkpt lat="45.01702" lon="2.68157">
        <ele>825.43</ele>
        <time>2021-08-15T18:35:40Z</time>
      </trkpt>
      <trkpt lat="45.01703" lon="2.68155">
        <ele>825.43</ele>
        <time>2021-08-15T18:35:41Z</time>
      </trkpt>
      <trkpt lat="45.01704" lon="2.68152">
        <ele>825.43</ele>
        <time>2021-08-15T18:35:42Z</time>
      </trkpt>
      <trkpt lat="45.01706" lon="2.68149">
        <ele>825.43</ele>
        <time>2021-08-15T18:35:43Z</time>
      </trkpt>
      <trkpt lat="45.01707" lon="2.68146">
        <ele>825.43</ele>
        <time>2021-08-15T18:35:44Z</time>
      </trkpt>
      <trkpt lat="45.0171" lon="2.68126">
        <ele>824.95</ele>
        <time>2021-08-15T18:35:51Z</time>
      </trkpt>
      <trkpt lat="45.0171" lon="2.68123">
        <ele>824.95</ele>
        <time>2021-08-15T18:35:52Z</time>
      </trkpt>
      <trkpt lat="45.0171" lon="2.6812">
        <ele>824.47</ele>
        <time>2021-08-15T18:35:53Z</time>
      </trkpt>
      <trkpt lat="45.01709" lon="2.68118">
        <ele>824.47</ele>
        <time>2021-08-15T18:35:54Z</time>
      </trkpt>
      <trkpt lat="45.01707" lon="2.68116">
        <ele>824.47</ele>
        <time>2021-08-15T18:35:55Z</time>
      </trkpt>
      <trkpt lat="45.01706" lon="2.68113">
        <ele>824.47</ele>
        <time>2021-08-15T18:35:56Z</time>
      </trkpt>
      <trkpt lat="45.01704" lon="2.6811">
        <ele>824.47</ele>
        <time>2021-08-15T18:35:57Z</time>
      </trkpt>
      <trkpt lat="45.01699" lon="2.68101">
        <ele>825.43</ele>
        <time>2021-08-15T18:36:00Z</time>
      </trkpt>
      <trkpt lat="45.01685" lon="2.68086">
        <ele>826.87</ele>
        <time>2021-08-15T18:36:08Z</time>
      </trkpt>
      <trkpt lat="45.01671" lon="2.68075">
        <ele>827.83</ele>
        <time>2021-08-15T18:36:16Z</time>
      </trkpt>
      <trkpt lat="45.01659" lon="2.68065">
        <ele>828.79</ele>
        <time>2021-08-15T18:36:24Z</time>
      </trkpt>
      <trkpt lat="45.01647" lon="2.68051">
        <ele>830.24</ele>
        <time>2021-08-15T18:36:33Z</time>
      </trkpt>
      <trkpt lat="45.01638" lon="2.68043">
        <ele>831.2</ele>
        <time>2021-08-15T18:36:40Z</time>
      </trkpt>
      <trkpt lat="45.01629" lon="2.68035">
        <ele>831.68</ele>
        <time>2021-08-15T18:36:47Z</time>
      </trkpt>
      <trkpt lat="45.01628" lon="2.68035">
        <ele>832.16</ele>
        <time>2021-08-15T18:36:48Z</time>
      </trkpt>
      <trkpt lat="45.01626" lon="2.68035">
        <ele>832.16</ele>
        <time>2021-08-15T18:36:49Z</time>
      </trkpt>
      <trkpt lat="45.0161" lon="2.68029">
        <ele>833.6</ele>
        <time>2021-08-15T18:36:59Z</time>
      </trkpt>
      <trkpt lat="45.01596" lon="2.68023">
        <ele>835.04</ele>
        <time>2021-08-15T18:37:07Z</time>
      </trkpt>
      <trkpt lat="45.01578" lon="2.68015">
        <ele>836.48</ele>
        <time>2021-08-15T18:37:17Z</time>
      </trkpt>
      <trkpt lat="45.01563" lon="2.68008">
        <ele>836.96</ele>
        <time>2021-08-15T18:37:26Z</time>
      </trkpt>
      <trkpt lat="45.01547" lon="2.67999">
        <ele>838.41</ele>
        <time>2021-08-15T18:37:34Z</time>
      </trkpt>
      <trkpt lat="45.01524" lon="2.67987">
        <ele>838.89</ele>
        <time>2021-08-15T18:37:44Z</time>
      </trkpt>
      <trkpt lat="45.01506" lon="2.67978">
        <ele>836.96</ele>
        <time>2021-08-15T18:37:49Z</time>
      </trkpt>
      <trkpt lat="45.01476" lon="2.67969">
        <ele>835.04</ele>
        <time>2021-08-15T18:37:55Z</time>
      </trkpt>
      <trkpt lat="45.01473" lon="2.67966">
        <ele>835.04</ele>
        <time>2021-08-15T18:37:56Z</time>
      </trkpt>
      <trkpt lat="45.01472" lon="2.67961">
        <ele>835.04</ele>
        <time>2021-08-15T18:37:57Z</time>
      </trkpt>
      <trkpt lat="45.01471" lon="2.67942">
        <ele>834.08</ele>
        <time>2021-08-15T18:38:01Z</time>
      </trkpt>
      <trkpt lat="45.01469" lon="2.67936">
        <ele>833.6</ele>
        <time>2021-08-15T18:38:02Z</time>
      </trkpt>
      <trkpt lat="45.01465" lon="2.67931">
        <ele>833.6</ele>
        <time>2021-08-15T18:38:03Z</time>
      </trkpt>
      <trkpt lat="45.0146" lon="2.67926">
        <ele>833.6</ele>
        <time>2021-08-15T18:38:04Z</time>
      </trkpt>
      <trkpt lat="45.01455" lon="2.67922">
        <ele>833.6</ele>
        <time>2021-08-15T18:38:05Z</time>
      </trkpt>
      <trkpt lat="45.01422" lon="2.67889">
        <ele>830.24</ele>
        <time>2021-08-15T18:38:11Z</time>
      </trkpt>
      <trkpt lat="45.01411" lon="2.67872">
        <ele>828.31</ele>
        <time>2021-08-15T18:38:13Z</time>
      </trkpt>
      <trkpt lat="45.01407" lon="2.67862">
        <ele>827.35</ele>
        <time>2021-08-15T18:38:14Z</time>
      </trkpt>
      <trkpt lat="45.01402" lon="2.67851">
        <ele>825.91</ele>
        <time>2021-08-15T18:38:15Z</time>
      </trkpt>
      <trkpt lat="45.01392" lon="2.67826">
        <ele>822.55</ele>
        <time>2021-08-15T18:38:17Z</time>
      </trkpt>
      <trkpt lat="45.0137" lon="2.67784">
        <ele>819.18</ele>
        <time>2021-08-15T18:38:21Z</time>
      </trkpt>
      <trkpt lat="45.01359" lon="2.67763">
        <ele>817.74</ele>
        <time>2021-08-15T18:38:24Z</time>
      </trkpt>
      <trkpt lat="45.01357" lon="2.67756">
        <ele>817.74</ele>
        <time>2021-08-15T18:38:25Z</time>
      </trkpt>
      <trkpt lat="45.01356" lon="2.67748">
        <ele>816.78</ele>
        <time>2021-08-15T18:38:26Z</time>
      </trkpt>
      <trkpt lat="45.01357" lon="2.67742">
        <ele>816.3</ele>
        <time>2021-08-15T18:38:27Z</time>
      </trkpt>
      <trkpt lat="45.01358" lon="2.67735">
        <ele>815.82</ele>
        <time>2021-08-15T18:38:28Z</time>
      </trkpt>
      <trkpt lat="45.0136" lon="2.67728">
        <ele>814.85</ele>
        <time>2021-08-15T18:38:29Z</time>
      </trkpt>
      <trkpt lat="45.01363" lon="2.6772">
        <ele>814.37</ele>
        <time>2021-08-15T18:38:30Z</time>
      </trkpt>
      <trkpt lat="45.01367" lon="2.67712">
        <ele>813.41</ele>
        <time>2021-08-15T18:38:31Z</time>
      </trkpt>
      <trkpt lat="45.01372" lon="2.67704">
        <ele>812.45</ele>
        <time>2021-08-15T18:38:32Z</time>
      </trkpt>
      <trkpt lat="45.01385" lon="2.67683">
        <ele>810.53</ele>
        <time>2021-08-15T18:38:35Z</time>
      </trkpt>
      <trkpt lat="45.01387" lon="2.67676">
        <ele>810.05</ele>
        <time>2021-08-15T18:38:36Z</time>
      </trkpt>
      <trkpt lat="45.01389" lon="2.67668">
        <ele>809.09</ele>
        <time>2021-08-15T18:38:37Z</time>
      </trkpt>
      <trkpt lat="45.01391" lon="2.6766">
        <ele>808.13</ele>
        <time>2021-08-15T18:38:38Z</time>
      </trkpt>
      <trkpt lat="45.01391" lon="2.67651">
        <ele>807.64</ele>
        <time>2021-08-15T18:38:39Z</time>
      </trkpt>
      <trkpt lat="45.0139" lon="2.67642">
        <ele>806.68</ele>
        <time>2021-08-15T18:38:40Z</time>
      </trkpt>
      <trkpt lat="45.01385" lon="2.676">
        <ele>802.84</ele>
        <time>2021-08-15T18:38:44Z</time>
      </trkpt>
      <trkpt lat="45.01383" lon="2.67579">
        <ele>801.4</ele>
        <time>2021-08-15T18:38:46Z</time>
      </trkpt>
      <trkpt lat="45.0138" lon="2.67553">
        <ele>798.99</ele>
        <time>2021-08-15T18:38:49Z</time>
      </trkpt>
      <trkpt lat="45.01379" lon="2.67545">
        <ele>798.51</ele>
        <time>2021-08-15T18:38:50Z</time>
      </trkpt>
      <trkpt lat="45.01377" lon="2.67537">
        <ele>798.03</ele>
        <time>2021-08-15T18:38:51Z</time>
      </trkpt>
      <trkpt lat="45.01371" lon="2.67508">
        <ele>794.19</ele>
        <time>2021-08-15T18:38:55Z</time>
      </trkpt>
      <trkpt lat="45.01369" lon="2.67502">
        <ele>793.22</ele>
        <time>2021-08-15T18:38:56Z</time>
      </trkpt>
      <trkpt lat="45.01366" lon="2.67497">
        <ele>792.26</ele>
        <time>2021-08-15T18:38:57Z</time>
      </trkpt>
      <trkpt lat="45.01362" lon="2.67493">
        <ele>792.26</ele>
        <time>2021-08-15T18:38:58Z</time>
      </trkpt>
      <trkpt lat="45.01357" lon="2.67488">
        <ele>792.26</ele>
        <time>2021-08-15T18:38:59Z</time>
      </trkpt>
      <trkpt lat="45.01355" lon="2.67484">
        <ele>791.78</ele>
        <time>2021-08-15T18:39:00Z</time>
      </trkpt>
      <trkpt lat="45.01354" lon="2.6748">
        <ele>791.3</ele>
        <time>2021-08-15T18:39:01Z</time>
      </trkpt>
      <trkpt lat="45.01352" lon="2.67473">
        <ele>790.82</ele>
        <time>2021-08-15T18:39:02Z</time>
      </trkpt>
      <trkpt lat="45.01351" lon="2.67465">
        <ele>790.34</ele>
        <time>2021-08-15T18:39:03Z</time>
      </trkpt>
      <trkpt lat="45.0135" lon="2.67457">
        <ele>788.9</ele>
        <time>2021-08-15T18:39:04Z</time>
      </trkpt>
      <trkpt lat="45.0135" lon="2.67449">
        <ele>787.46</ele>
        <time>2021-08-15T18:39:05Z</time>
      </trkpt>
      <trkpt lat="45.01351" lon="2.6744">
        <ele>787.46</ele>
        <time>2021-08-15T18:39:06Z</time>
      </trkpt>
      <trkpt lat="45.01353" lon="2.67433">
        <ele>786.98</ele>
        <time>2021-08-15T18:39:07Z</time>
      </trkpt>
      <trkpt lat="45.01357" lon="2.67426">
        <ele>786.98</ele>
        <time>2021-08-15T18:39:08Z</time>
      </trkpt>
      <trkpt lat="45.01363" lon="2.67421">
        <ele>785.05</ele>
        <time>2021-08-15T18:39:09Z</time>
      </trkpt>
      <trkpt lat="45.01369" lon="2.67418">
        <ele>785.05</ele>
        <time>2021-08-15T18:39:10Z</time>
      </trkpt>
      <trkpt lat="45.01376" lon="2.67417">
        <ele>785.05</ele>
        <time>2021-08-15T18:39:11Z</time>
      </trkpt>
      <trkpt lat="45.01383" lon="2.67416">
        <ele>784.57</ele>
        <time>2021-08-15T18:39:12Z</time>
      </trkpt>
      <trkpt lat="45.01391" lon="2.67416">
        <ele>784.57</ele>
        <time>2021-08-15T18:39:13Z</time>
      </trkpt>
      <trkpt lat="45.01398" lon="2.67415">
        <ele>783.61</ele>
        <time>2021-08-15T18:39:14Z</time>
      </trkpt>
      <trkpt lat="45.01405" lon="2.67413">
        <ele>783.61</ele>
        <time>2021-08-15T18:39:15Z</time>
      </trkpt>
      <trkpt lat="45.01412" lon="2.67408">
        <ele>782.17</ele>
        <time>2021-08-15T18:39:16Z</time>
      </trkpt>
      <trkpt lat="45.01419" lon="2.67401">
        <ele>782.17</ele>
        <time>2021-08-15T18:39:17Z</time>
      </trkpt>
      <trkpt lat="45.01424" lon="2.67392">
        <ele>781.69</ele>
        <time>2021-08-15T18:39:18Z</time>
      </trkpt>
      <trkpt lat="45.01427" lon="2.67383">
        <ele>781.69</ele>
        <time>2021-08-15T18:39:19Z</time>
      </trkpt>
      <trkpt lat="45.01429" lon="2.67373">
        <ele>780.73</ele>
        <time>2021-08-15T18:39:20Z</time>
      </trkpt>
      <trkpt lat="45.01429" lon="2.67362">
        <ele>780.73</ele>
        <time>2021-08-15T18:39:21Z</time>
      </trkpt>
      <trkpt lat="45.01429" lon="2.67351">
        <ele>780.73</ele>
        <time>2021-08-15T18:39:22Z</time>
      </trkpt>
      <trkpt lat="45.01429" lon="2.6734">
        <ele>780.25</ele>
        <time>2021-08-15T18:39:23Z</time>
      </trkpt>
      <trkpt lat="45.01423" lon="2.67264">
        <ele>778.32</ele>
        <time>2021-08-15T18:39:30Z</time>
      </trkpt>
      <trkpt lat="45.01419" lon="2.67189">
        <ele>776.88</ele>
        <time>2021-08-15T18:39:37Z</time>
      </trkpt>
      <trkpt lat="45.0142" lon="2.6718">
        <ele>775.92</ele>
        <time>2021-08-15T18:39:38Z</time>
      </trkpt>
      <trkpt lat="45.01423" lon="2.67172">
        <ele>775.92</ele>
        <time>2021-08-15T18:39:39Z</time>
      </trkpt>
      <trkpt lat="45.01427" lon="2.67165">
        <ele>775.92</ele>
        <time>2021-08-15T18:39:40Z</time>
      </trkpt>
      <trkpt lat="45.01431" lon="2.67161">
        <ele>775.92</ele>
        <time>2021-08-15T18:39:41Z</time>
      </trkpt>
      <trkpt lat="45.01435" lon="2.67157">
        <ele>777.36</ele>
        <time>2021-08-15T18:39:42Z</time>
      </trkpt>
      <trkpt lat="45.01438" lon="2.67154">
        <ele>777.36</ele>
        <time>2021-08-15T18:39:43Z</time>
      </trkpt>
      <trkpt lat="45.01463" lon="2.67129">
        <ele>777.36</ele>
        <time>2021-08-15T18:39:52Z</time>
      </trkpt>
      <trkpt lat="45.01466" lon="2.67124">
        <ele>777.84</ele>
        <time>2021-08-15T18:39:53Z</time>
      </trkpt>
      <trkpt lat="45.01469" lon="2.67117">
        <ele>777.84</ele>
        <time>2021-08-15T18:39:54Z</time>
      </trkpt>
      <trkpt lat="45.01469" lon="2.6711">
        <ele>776.88</ele>
        <time>2021-08-15T18:39:55Z</time>
      </trkpt>
      <trkpt lat="45.0147" lon="2.67101">
        <ele>775.92</ele>
        <time>2021-08-15T18:39:56Z</time>
      </trkpt>
      <trkpt lat="45.0147" lon="2.67093">
        <ele>775.44</ele>
        <time>2021-08-15T18:39:57Z</time>
      </trkpt>
      <trkpt lat="45.01471" lon="2.67084">
        <ele>775.44</ele>
        <time>2021-08-15T18:39:58Z</time>
      </trkpt>
      <trkpt lat="45.01472" lon="2.67078">
        <ele>775.44</ele>
        <time>2021-08-15T18:39:59Z</time>
      </trkpt>
      <trkpt lat="45.01474" lon="2.67071">
        <ele>775.44</ele>
        <time>2021-08-15T18:40:00Z</time>
      </trkpt>
      <trkpt lat="45.01477" lon="2.67063">
        <ele>776.88</ele>
        <time>2021-08-15T18:40:02Z</time>
      </trkpt>
      <trkpt lat="45.01479" lon="2.6705">
        <ele>778.81</ele>
        <time>2021-08-15T18:40:08Z</time>
      </trkpt>
      <trkpt lat="45.01476" lon="2.67036">
        <ele>779.29</ele>
        <time>2021-08-15T18:40:14Z</time>
      </trkpt>
      <trkpt lat="45.01467" lon="2.67021">
        <ele>778.81</ele>
        <time>2021-08-15T18:40:18Z</time>
      </trkpt>
      <trkpt lat="45.01465" lon="2.67015">
        <ele>777.36</ele>
        <time>2021-08-15T18:40:19Z</time>
      </trkpt>
      <trkpt lat="45.01463" lon="2.67007">
        <ele>775.92</ele>
        <time>2021-08-15T18:40:20Z</time>
      </trkpt>
      <trkpt lat="45.01459" lon="2.66991">
        <ele>774.48</ele>
        <time>2021-08-15T18:40:22Z</time>
      </trkpt>
      <trkpt lat="45.01456" lon="2.66983">
        <ele>774.48</ele>
        <time>2021-08-15T18:40:23Z</time>
      </trkpt>
      <trkpt lat="45.01452" lon="2.66975">
        <ele>774.48</ele>
        <time>2021-08-15T18:40:24Z</time>
      </trkpt>
      <trkpt lat="45.01447" lon="2.66969">
        <ele>774.48</ele>
        <time>2021-08-15T18:40:25Z</time>
      </trkpt>
      <trkpt lat="45.01442" lon="2.66961">
        <ele>774</ele>
        <time>2021-08-15T18:40:26Z</time>
      </trkpt>
      <trkpt lat="45.01413" lon="2.66919">
        <ele>774</ele>
        <time>2021-08-15T18:40:33Z</time>
      </trkpt>
      <trkpt lat="45.01382" lon="2.66881">
        <ele>774</ele>
        <time>2021-08-15T18:40:41Z</time>
      </trkpt>
      <trkpt lat="45.01367" lon="2.66864">
        <ele>774</ele>
        <time>2021-08-15T18:40:45Z</time>
      </trkpt>
      <trkpt lat="45.01347" lon="2.66839">
        <ele>773.52</ele>
        <time>2021-08-15T18:40:50Z</time>
      </trkpt>
      <trkpt lat="45.01311" lon="2.66805">
        <ele>773.52</ele>
        <time>2021-08-15T18:40:58Z</time>
      </trkpt>
      <trkpt lat="45.0129" lon="2.66781">
        <ele>773.52</ele>
        <time>2021-08-15T18:41:04Z</time>
      </trkpt>
      <trkpt lat="45.01287" lon="2.66777">
        <ele>773.04</ele>
        <time>2021-08-15T18:41:05Z</time>
      </trkpt>
      <trkpt lat="45.01265" lon="2.66745">
        <ele>772.56</ele>
        <time>2021-08-15T18:41:12Z</time>
      </trkpt>
      <trkpt lat="45.0124" lon="2.66716">
        <ele>772.08</ele>
        <time>2021-08-15T18:41:20Z</time>
      </trkpt>
      <trkpt lat="45.01226" lon="2.66703">
        <ele>771.6</ele>
        <time>2021-08-15T18:41:24Z</time>
      </trkpt>
      <trkpt lat="45.01199" lon="2.66678">
        <ele>770.63</ele>
        <time>2021-08-15T18:41:32Z</time>
      </trkpt>
      <trkpt lat="45.01187" lon="2.66662">
        <ele>771.11</ele>
        <time>2021-08-15T18:41:38Z</time>
      </trkpt>
      <trkpt lat="45.01184" lon="2.66658">
        <ele>772.08</ele>
        <time>2021-08-15T18:41:40Z</time>
      </trkpt>
      <trkpt lat="45.01181" lon="2.66639">
        <ele>773.04</ele>
        <time>2021-08-15T18:41:46Z</time>
      </trkpt>
      <trkpt lat="45.0118" lon="2.66628">
        <ele>773.52</ele>
        <time>2021-08-15T18:41:50Z</time>
      </trkpt>
      <trkpt lat="45.01179" lon="2.66626">
        <ele>773.52</ele>
        <time>2021-08-15T18:41:51Z</time>
      </trkpt>
      <trkpt lat="45.01177" lon="2.66626">
        <ele>774</ele>
        <time>2021-08-15T18:41:52Z</time>
      </trkpt>
      <trkpt lat="45.01175" lon="2.66626">
        <ele>774</ele>
        <time>2021-08-15T18:41:53Z</time>
      </trkpt>
      <trkpt lat="45.01173" lon="2.66628">
        <ele>774</ele>
        <time>2021-08-15T18:41:54Z</time>
      </trkpt>
      <trkpt lat="45.0117" lon="2.66629">
        <ele>774</ele>
        <time>2021-08-15T18:41:55Z</time>
      </trkpt>
      <trkpt lat="45.01147" lon="2.66644">
        <ele>772.56</ele>
        <time>2021-08-15T18:42:02Z</time>
      </trkpt>
      <trkpt lat="45.01135" lon="2.66668">
        <ele>772.56</ele>
        <time>2021-08-15T18:42:08Z</time>
      </trkpt>
      <trkpt lat="45.01129" lon="2.66682">
        <ele>772.56</ele>
        <time>2021-08-15T18:42:12Z</time>
      </trkpt>
      <trkpt lat="45.01126" lon="2.66683">
        <ele>772.56</ele>
        <time>2021-08-15T18:42:13Z</time>
      </trkpt>
      <trkpt lat="45.01122" lon="2.66682">
        <ele>772.56</ele>
        <time>2021-08-15T18:42:14Z</time>
      </trkpt>
      <trkpt lat="45.01118" lon="2.6668">
        <ele>772.56</ele>
        <time>2021-08-15T18:42:15Z</time>
      </trkpt>
      <trkpt lat="45.01115" lon="2.66678">
        <ele>772.08</ele>
        <time>2021-08-15T18:42:16Z</time>
      </trkpt>
      <trkpt lat="45.0111" lon="2.66675">
        <ele>771.6</ele>
        <time>2021-08-15T18:42:17Z</time>
      </trkpt>
      <trkpt lat="45.01068" lon="2.66656">
        <ele>769.19</ele>
        <time>2021-08-15T18:42:25Z</time>
      </trkpt>
      <trkpt lat="45.01019" lon="2.66628">
        <ele>767.27</ele>
        <time>2021-08-15T18:42:33Z</time>
      </trkpt>
      <trkpt lat="45.00978" lon="2.6659">
        <ele>766.79</ele>
        <time>2021-08-15T18:42:41Z</time>
      </trkpt>
      <trkpt lat="45.00957" lon="2.66548">
        <ele>766.79</ele>
        <time>2021-08-15T18:42:47Z</time>
      </trkpt>
      <trkpt lat="45.00924" lon="2.66469">
        <ele>766.79</ele>
        <time>2021-08-15T18:42:58Z</time>
      </trkpt>
      <trkpt lat="45.00885" lon="2.66417">
        <ele>766.79</ele>
        <time>2021-08-15T18:43:07Z</time>
      </trkpt>
      <trkpt lat="45.00839" lon="2.66379">
        <ele>766.31</ele>
        <time>2021-08-15T18:43:16Z</time>
      </trkpt>
      <trkpt lat="45.00813" lon="2.66366">
        <ele>765.83</ele>
        <time>2021-08-15T18:43:21Z</time>
      </trkpt>
      <trkpt lat="45.00808" lon="2.66362">
        <ele>765.83</ele>
        <time>2021-08-15T18:43:22Z</time>
      </trkpt>
      <trkpt lat="45.00803" lon="2.66357">
        <ele>765.83</ele>
        <time>2021-08-15T18:43:23Z</time>
      </trkpt>
      <trkpt lat="45.008" lon="2.66352">
        <ele>765.83</ele>
        <time>2021-08-15T18:43:24Z</time>
      </trkpt>
      <trkpt lat="45.00797" lon="2.66346">
        <ele>765.83</ele>
        <time>2021-08-15T18:43:25Z</time>
      </trkpt>
      <trkpt lat="45.00794" lon="2.66339">
        <ele>765.83</ele>
        <time>2021-08-15T18:43:26Z</time>
      </trkpt>
      <trkpt lat="45.00792" lon="2.66333">
        <ele>765.83</ele>
        <time>2021-08-15T18:43:27Z</time>
      </trkpt>
      <trkpt lat="45.00779" lon="2.66305">
        <ele>765.83</ele>
        <time>2021-08-15T18:43:32Z</time>
      </trkpt>
      <trkpt lat="45.00764" lon="2.66264">
        <ele>767.27</ele>
        <time>2021-08-15T18:43:39Z</time>
      </trkpt>
      <trkpt lat="45.00749" lon="2.66237">
        <ele>768.23</ele>
        <time>2021-08-15T18:43:46Z</time>
      </trkpt>
      <trkpt lat="45.00746" lon="2.66224">
        <ele>769.67</ele>
        <time>2021-08-15T18:43:53Z</time>
      </trkpt>
      <trkpt lat="45.00745" lon="2.66214">
        <ele>770.63</ele>
        <time>2021-08-15T18:44:00Z</time>
      </trkpt>
      <trkpt lat="45.00742" lon="2.66201">
        <ele>772.08</ele>
        <time>2021-08-15T18:44:10Z</time>
      </trkpt>
      <trkpt lat="45.00738" lon="2.66194">
        <ele>773.04</ele>
        <time>2021-08-15T18:44:19Z</time>
      </trkpt>
      <trkpt lat="45.00739" lon="2.66195">
        <ele>773.04</ele>
        <time>2021-08-15T18:44:34Z</time>
      </trkpt>
      <trkpt lat="45.00739" lon="2.66196">
        <ele>773.04</ele>
        <time>2021-08-15T18:44:49Z</time>
      </trkpt>
      <trkpt lat="45.00739" lon="2.66194">
        <ele>773.04</ele>
        <time>2021-08-15T18:45:08Z</time>
      </trkpt>
      <trkpt lat="45.00735" lon="2.6619">
        <ele>774</ele>
        <time>2021-08-15T18:45:18Z</time>
      </trkpt>
      <trkpt lat="45.0073" lon="2.66185">
        <ele>774.48</ele>
        <time>2021-08-15T18:45:24Z</time>
      </trkpt>
      <trkpt lat="45.00729" lon="2.66184">
        <ele>774.48</ele>
        <time>2021-08-15T18:45:25Z</time>
      </trkpt>
      <trkpt lat="45.00728" lon="2.66183">
        <ele>774.48</ele>
        <time>2021-08-15T18:45:26Z</time>
      </trkpt>
      <trkpt lat="45.00719" lon="2.66175">
        <ele>774.96</ele>
        <time>2021-08-15T18:45:35Z</time>
      </trkpt>
      <trkpt lat="45.00713" lon="2.66161">
        <ele>775.92</ele>
        <time>2021-08-15T18:45:45Z</time>
      </trkpt>
      <trkpt lat="45.00708" lon="2.66149">
        <ele>777.36</ele>
        <time>2021-08-15T18:45:53Z</time>
      </trkpt>
      <trkpt lat="45.00706" lon="2.66134">
        <ele>778.81</ele>
        <time>2021-08-15T18:46:03Z</time>
      </trkpt>
      <trkpt lat="45.00706" lon="2.66133">
        <ele>779.29</ele>
        <time>2021-08-15T18:46:04Z</time>
      </trkpt>
      <trkpt lat="45.007" lon="2.66119">
        <ele>779.29</ele>
        <time>2021-08-15T18:46:14Z</time>
      </trkpt>
      <trkpt lat="45.00698" lon="2.66117">
        <ele>780.25</ele>
        <time>2021-08-15T18:46:20Z</time>
      </trkpt>
      <trkpt lat="45.00698" lon="2.66114">
        <ele>779.77</ele>
        <time>2021-08-15T18:46:36Z</time>
      </trkpt>
      <trkpt lat="45.00695" lon="2.66115">
        <ele>779.77</ele>
        <time>2021-08-15T18:47:00Z</time>
      </trkpt>
      <trkpt lat="45.00692" lon="2.66115">
        <ele>779.77</ele>
        <time>2021-08-15T18:47:05Z</time>
      </trkpt>
      <trkpt lat="45.00681" lon="2.66111">
        <ele>779.77</ele>
        <time>2021-08-15T18:47:12Z</time>
      </trkpt>
      <trkpt lat="45.00669" lon="2.66098">
        <ele>780.73</ele>
        <time>2021-08-15T18:47:18Z</time>
      </trkpt>
      <trkpt lat="45.00656" lon="2.66085">
        <ele>781.21</ele>
        <time>2021-08-15T18:47:24Z</time>
      </trkpt>
      <trkpt lat="45.00642" lon="2.66073">
        <ele>781.69</ele>
        <time>2021-08-15T18:47:31Z</time>
      </trkpt>
      <trkpt lat="45.00634" lon="2.66059">
        <ele>782.17</ele>
        <time>2021-08-15T18:47:37Z</time>
      </trkpt>
      <trkpt lat="45.00623" lon="2.66043">
        <ele>783.13</ele>
        <time>2021-08-15T18:47:45Z</time>
      </trkpt>
      <trkpt lat="45.00603" lon="2.66024">
        <ele>784.09</ele>
        <time>2021-08-15T18:47:55Z</time>
      </trkpt>
      <trkpt lat="45.00593" lon="2.66014">
        <ele>785.53</ele>
        <time>2021-08-15T18:48:02Z</time>
      </trkpt>
      <trkpt lat="45.00592" lon="2.6601">
        <ele>786.02</ele>
        <time>2021-08-15T18:48:05Z</time>
      </trkpt>
      <trkpt lat="45.00587" lon="2.65998">
        <ele>786.98</ele>
        <time>2021-08-15T18:48:12Z</time>
      </trkpt>
      <trkpt lat="45.00581" lon="2.65982">
        <ele>787.46</ele>
        <time>2021-08-15T18:48:20Z</time>
      </trkpt>
      <trkpt lat="45.00576" lon="2.65964">
        <ele>787.94</ele>
        <time>2021-08-15T18:48:27Z</time>
      </trkpt>
      <trkpt lat="45.0057" lon="2.65945">
        <ele>787.94</ele>
        <time>2021-08-15T18:48:34Z</time>
      </trkpt>
      <trkpt lat="45.00561" lon="2.6592">
        <ele>787.94</ele>
        <time>2021-08-15T18:48:41Z</time>
      </trkpt>
      <trkpt lat="45.00548" lon="2.65892">
        <ele>787.94</ele>
        <time>2021-08-15T18:48:48Z</time>
      </trkpt>
      <trkpt lat="45.00538" lon="2.65865">
        <ele>787.94</ele>
        <time>2021-08-15T18:48:54Z</time>
      </trkpt>
      <trkpt lat="45.0053" lon="2.65838">
        <ele>788.42</ele>
        <time>2021-08-15T18:49:00Z</time>
      </trkpt>
      <trkpt lat="45.00525" lon="2.65812">
        <ele>788.42</ele>
        <time>2021-08-15T18:49:06Z</time>
      </trkpt>
      <trkpt lat="45.00516" lon="2.65788">
        <ele>788.42</ele>
        <time>2021-08-15T18:49:11Z</time>
      </trkpt>
      <trkpt lat="45.00508" lon="2.65771">
        <ele>788.42</ele>
        <time>2021-08-15T18:49:14Z</time>
      </trkpt>
      <trkpt lat="45.00497" lon="2.65744">
        <ele>786.98</ele>
        <time>2021-08-15T18:49:19Z</time>
      </trkpt>
      <trkpt lat="45.00493" lon="2.65739">
        <ele>786.98</ele>
        <time>2021-08-15T18:49:20Z</time>
      </trkpt>
      <trkpt lat="45.00489" lon="2.65734">
        <ele>786.98</ele>
        <time>2021-08-15T18:49:21Z</time>
      </trkpt>
      <trkpt lat="45.0046" lon="2.65711">
        <ele>786.5</ele>
        <time>2021-08-15T18:49:27Z</time>
      </trkpt>
      <trkpt lat="45.00443" lon="2.65697">
        <ele>784.57</ele>
        <time>2021-08-15T18:49:31Z</time>
      </trkpt>
      <trkpt lat="45.00439" lon="2.65691">
        <ele>784.09</ele>
        <time>2021-08-15T18:49:32Z</time>
      </trkpt>
      <trkpt lat="45.00418" lon="2.65656">
        <ele>782.65</ele>
        <time>2021-08-15T18:49:37Z</time>
      </trkpt>
      <trkpt lat="45.00402" lon="2.65627">
        <ele>780.73</ele>
        <time>2021-08-15T18:49:41Z</time>
      </trkpt>
      <trkpt lat="45.00395" lon="2.65613">
        <ele>780.25</ele>
        <time>2021-08-15T18:49:43Z</time>
      </trkpt>
      <trkpt lat="45.0039" lon="2.65606">
        <ele>779.77</ele>
        <time>2021-08-15T18:49:44Z</time>
      </trkpt>
      <trkpt lat="45.00367" lon="2.65576">
        <ele>779.29</ele>
        <time>2021-08-15T18:49:50Z</time>
      </trkpt>
      <trkpt lat="45.00348" lon="2.6555">
        <ele>779.77</ele>
        <time>2021-08-15T18:49:56Z</time>
      </trkpt>
      <trkpt lat="45.00339" lon="2.65537">
        <ele>779.77</ele>
        <time>2021-08-15T18:49:59Z</time>
      </trkpt>
      <trkpt lat="45.00323" lon="2.65511">
        <ele>779.77</ele>
        <time>2021-08-15T18:50:05Z</time>
      </trkpt>
      <trkpt lat="45.00322" lon="2.6551">
        <ele>779.77</ele>
        <time>2021-08-15T18:50:06Z</time>
      </trkpt>
      <trkpt lat="45.00321" lon="2.65507">
        <ele>780.73</ele>
        <time>2021-08-15T18:50:07Z</time>
      </trkpt>
      <trkpt lat="45.00313" lon="2.65494">
        <ele>781.69</ele>
        <time>2021-08-15T18:50:14Z</time>
      </trkpt>
      <trkpt lat="45.0031" lon="2.65489">
        <ele>782.17</ele>
        <time>2021-08-15T18:50:17Z</time>
      </trkpt>
      <trkpt lat="45.00309" lon="2.65488">
        <ele>782.65</ele>
        <time>2021-08-15T18:50:18Z</time>
      </trkpt>
      <trkpt lat="45.00299" lon="2.65482">
        <ele>783.61</ele>
        <time>2021-08-15T18:50:26Z</time>
      </trkpt>
      <trkpt lat="45.00287" lon="2.65482">
        <ele>784.57</ele>
        <time>2021-08-15T18:50:35Z</time>
      </trkpt>
      <trkpt lat="45.00271" lon="2.65483">
        <ele>783.13</ele>
        <time>2021-08-15T18:50:40Z</time>
      </trkpt>
      <trkpt lat="45.00267" lon="2.65484">
        <ele>783.13</ele>
        <time>2021-08-15T18:50:41Z</time>
      </trkpt>
      <trkpt lat="45.00252" lon="2.6549">
        <ele>783.13</ele>
        <time>2021-08-15T18:50:46Z</time>
      </trkpt>
      <trkpt lat="45.00244" lon="2.65498">
        <ele>782.65</ele>
        <time>2021-08-15T18:50:52Z</time>
      </trkpt>
      <trkpt lat="45.00239" lon="2.65502">
        <ele>784.09</ele>
        <time>2021-08-15T18:50:56Z</time>
      </trkpt>
      <trkpt lat="45.00233" lon="2.65509">
        <ele>785.05</ele>
        <time>2021-08-15T18:51:03Z</time>
      </trkpt>
      <trkpt lat="45.0022" lon="2.65521">
        <ele>786.02</ele>
        <time>2021-08-15T18:51:12Z</time>
      </trkpt>
      <trkpt lat="45.00216" lon="2.65528">
        <ele>786.98</ele>
        <time>2021-08-15T18:51:20Z</time>
      </trkpt>
      <trkpt lat="45.00214" lon="2.65535">
        <ele>788.42</ele>
        <time>2021-08-15T18:51:29Z</time>
      </trkpt>
      <trkpt lat="45.00213" lon="2.65542">
        <ele>789.38</ele>
        <time>2021-08-15T18:51:37Z</time>
      </trkpt>
      <trkpt lat="45.00213" lon="2.65545">
        <ele>791.3</ele>
        <time>2021-08-15T18:51:47Z</time>
      </trkpt>
      <trkpt lat="45.00211" lon="2.65551">
        <ele>792.74</ele>
        <time>2021-08-15T18:51:56Z</time>
      </trkpt>
      <trkpt lat="45.00211" lon="2.65557">
        <ele>793.71</ele>
        <time>2021-08-15T18:52:03Z</time>
      </trkpt>
      <trkpt lat="45.0021" lon="2.65565">
        <ele>795.15</ele>
        <time>2021-08-15T18:52:13Z</time>
      </trkpt>
      <trkpt lat="45.00209" lon="2.65569">
        <ele>797.07</ele>
        <time>2021-08-15T18:52:22Z</time>
      </trkpt>
      <trkpt lat="45.00207" lon="2.65573">
        <ele>797.55</ele>
        <time>2021-08-15T18:52:29Z</time>
      </trkpt>
      <trkpt lat="45.00206" lon="2.65578">
        <ele>798.99</ele>
        <time>2021-08-15T18:52:35Z</time>
      </trkpt>
      <trkpt lat="45.00205" lon="2.65586">
        <ele>799.47</ele>
        <time>2021-08-15T18:52:43Z</time>
      </trkpt>
      <trkpt lat="45.00204" lon="2.65596">
        <ele>800.92</ele>
        <time>2021-08-15T18:52:51Z</time>
      </trkpt>
      <trkpt lat="45.00205" lon="2.65606">
        <ele>801.88</ele>
        <time>2021-08-15T18:52:58Z</time>
      </trkpt>
      <trkpt lat="45.00204" lon="2.65618">
        <ele>802.84</ele>
        <time>2021-08-15T18:53:07Z</time>
      </trkpt>
      <trkpt lat="45.00204" lon="2.65619">
        <ele>802.84</ele>
        <time>2021-08-15T18:53:08Z</time>
      </trkpt>
      <trkpt lat="45.00204" lon="2.65628">
        <ele>803.8</ele>
        <time>2021-08-15T18:53:15Z</time>
      </trkpt>
      <trkpt lat="45.00207" lon="2.65639">
        <ele>805.24</ele>
        <time>2021-08-15T18:53:25Z</time>
      </trkpt>
      <trkpt lat="45.00206" lon="2.6565">
        <ele>805.72</ele>
        <time>2021-08-15T18:53:32Z</time>
      </trkpt>
      <trkpt lat="45.00205" lon="2.65652">
        <ele>806.2</ele>
        <time>2021-08-15T18:53:34Z</time>
      </trkpt>
      <trkpt lat="45.00204" lon="2.65653">
        <ele>806.2</ele>
        <time>2021-08-15T18:53:35Z</time>
      </trkpt>
      <trkpt lat="45.00201" lon="2.65651">
        <ele>806.68</ele>
        <time>2021-08-15T18:53:43Z</time>
      </trkpt>
      <trkpt lat="45.00198" lon="2.65645">
        <ele>807.16</ele>
        <time>2021-08-15T18:53:51Z</time>
      </trkpt>
      <trkpt lat="45.00196" lon="2.65637">
        <ele>808.61</ele>
        <time>2021-08-15T18:53:58Z</time>
      </trkpt>
      <trkpt lat="45.00196" lon="2.65629">
        <ele>809.57</ele>
        <time>2021-08-15T18:54:06Z</time>
      </trkpt>
      <trkpt lat="45.00196" lon="2.65623">
        <ele>810.53</ele>
        <time>2021-08-15T18:54:13Z</time>
      </trkpt>
      <trkpt lat="45.00194" lon="2.65617">
        <ele>811.97</ele>
        <time>2021-08-15T18:54:21Z</time>
      </trkpt>
      <trkpt lat="45.00193" lon="2.65611">
        <ele>813.41</ele>
        <time>2021-08-15T18:54:29Z</time>
      </trkpt>
      <trkpt lat="45.00192" lon="2.65602">
        <ele>814.37</ele>
        <time>2021-08-15T18:54:38Z</time>
      </trkpt>
      <trkpt lat="45.00191" lon="2.65593">
        <ele>814.85</ele>
        <time>2021-08-15T18:54:45Z</time>
      </trkpt>
      <trkpt lat="45.0019" lon="2.65583">
        <ele>815.82</ele>
        <time>2021-08-15T18:54:53Z</time>
      </trkpt>
      <trkpt lat="45.00186" lon="2.65575">
        <ele>816.78</ele>
        <time>2021-08-15T18:55:01Z</time>
      </trkpt>
      <trkpt lat="45.00183" lon="2.65568">
        <ele>818.22</ele>
        <time>2021-08-15T18:55:08Z</time>
      </trkpt>
      <trkpt lat="45.0018" lon="2.6556">
        <ele>819.18</ele>
        <time>2021-08-15T18:55:16Z</time>
      </trkpt>
      <trkpt lat="45.00173" lon="2.6555">
        <ele>820.62</ele>
        <time>2021-08-15T18:55:26Z</time>
      </trkpt>
      <trkpt lat="45.00165" lon="2.65546">
        <ele>821.58</ele>
        <time>2021-08-15T18:55:35Z</time>
      </trkpt>
      <trkpt lat="45.00164" lon="2.65545">
        <ele>821.58</ele>
        <time>2021-08-15T18:55:36Z</time>
      </trkpt>
      <trkpt lat="45.00163" lon="2.65543">
        <ele>820.62</ele>
        <time>2021-08-15T18:55:37Z</time>
      </trkpt>
      <trkpt lat="45.00161" lon="2.65542">
        <ele>820.14</ele>
        <time>2021-08-15T18:55:38Z</time>
      </trkpt>
      <trkpt lat="45.00159" lon="2.65541">
        <ele>819.18</ele>
        <time>2021-08-15T18:55:39Z</time>
      </trkpt>
      <trkpt lat="45.00156" lon="2.65539">
        <ele>818.7</ele>
        <time>2021-08-15T18:55:40Z</time>
      </trkpt>
      <trkpt lat="45.00152" lon="2.65536">
        <ele>817.74</ele>
        <time>2021-08-15T18:55:41Z</time>
      </trkpt>
      <trkpt lat="45.00148" lon="2.65533">
        <ele>817.26</ele>
        <time>2021-08-15T18:55:42Z</time>
      </trkpt>
      <trkpt lat="45.00144" lon="2.65529">
        <ele>817.26</ele>
        <time>2021-08-15T18:55:43Z</time>
      </trkpt>
      <trkpt lat="45.0014" lon="2.65526">
        <ele>817.26</ele>
        <time>2021-08-15T18:55:44Z</time>
      </trkpt>
      <trkpt lat="45.00137" lon="2.65524">
        <ele>817.26</ele>
        <time>2021-08-15T18:55:45Z</time>
      </trkpt>
      <trkpt lat="45.00134" lon="2.65522">
        <ele>817.26</ele>
        <time>2021-08-15T18:55:46Z</time>
      </trkpt>
      <trkpt lat="45.00132" lon="2.65521">
        <ele>818.7</ele>
        <time>2021-08-15T18:55:47Z</time>
      </trkpt>
      <trkpt lat="45.00131" lon="2.65521">
        <ele>818.7</ele>
        <time>2021-08-15T18:55:48Z</time>
      </trkpt>
      <trkpt lat="45.00119" lon="2.65511">
        <ele>820.62</ele>
        <time>2021-08-15T18:55:56Z</time>
      </trkpt>
      <trkpt lat="45.00112" lon="2.65509">
        <ele>822.55</ele>
        <time>2021-08-15T18:56:06Z</time>
      </trkpt>
      <trkpt lat="45.00109" lon="2.65511">
        <ele>822.55</ele>
        <time>2021-08-15T18:56:26Z</time>
      </trkpt>
      <trkpt lat="45.00108" lon="2.6551">
        <ele>822.55</ele>
        <time>2021-08-15T18:56:39Z</time>
      </trkpt>
      <trkpt lat="45.00106" lon="2.6551">
        <ele>822.55</ele>
        <time>2021-08-15T18:56:54Z</time>
      </trkpt>
      <trkpt lat="45.00105" lon="2.65511">
        <ele>822.55</ele>
        <time>2021-08-15T18:57:05Z</time>
      </trkpt>
      <trkpt lat="45.00099" lon="2.6551">
        <ele>823.99</ele>
        <time>2021-08-15T18:57:13Z</time>
      </trkpt>
      <trkpt lat="45.00093" lon="2.6551">
        <ele>825.91</ele>
        <time>2021-08-15T18:57:22Z</time>
      </trkpt>
      <trkpt lat="45.00089" lon="2.65509">
        <ele>827.35</ele>
        <time>2021-08-15T18:57:30Z</time>
      </trkpt>
      <trkpt lat="45.00082" lon="2.6551">
        <ele>829.27</ele>
        <time>2021-08-15T18:57:39Z</time>
      </trkpt>
      <trkpt lat="45.00077" lon="2.6551">
        <ele>830.72</ele>
        <time>2021-08-15T18:57:47Z</time>
      </trkpt>
      <trkpt lat="45.00069" lon="2.65509">
        <ele>831.2</ele>
        <time>2021-08-15T18:57:54Z</time>
      </trkpt>
      <trkpt lat="45.00063" lon="2.65508">
        <ele>831.2</ele>
        <time>2021-08-15T18:58:01Z</time>
      </trkpt>
      <trkpt lat="45.00062" lon="2.65508">
        <ele>831.2</ele>
        <time>2021-08-15T18:58:10Z</time>
      </trkpt>
      <trkpt lat="45.00062" lon="2.6551">
        <ele>831.2</ele>
        <time>2021-08-15T18:58:23Z</time>
      </trkpt>
      <trkpt lat="45.00067" lon="2.65513">
        <ele>831.2</ele>
        <time>2021-08-15T18:58:45Z</time>
      </trkpt>
      <trkpt lat="45.00065" lon="2.65514">
        <ele>831.2</ele>
        <time>2021-08-15T18:59:09Z</time>
      </trkpt>
      <trkpt lat="45.0006" lon="2.65515">
        <ele>831.2</ele>
        <time>2021-08-15T18:59:32Z</time>
      </trkpt>
      <trkpt lat="45.00058" lon="2.65516">
        <ele>831.2</ele>
        <time>2021-08-15T18:59:50Z</time>
      </trkpt>
      <trkpt lat="45.00059" lon="2.65516">
        <ele>831.2</ele>
        <time>2021-08-15T18:59:51Z</time>
      </trkpt>
      <trkpt lat="45.00058" lon="2.65517">
        <ele>831.2</ele>
        <time>2021-08-15T18:59:57Z</time>
      </trkpt>
      <trkpt lat="45.00056" lon="2.65516">
        <ele>831.2</ele>
        <time>2021-08-15T19:00:06Z</time>
      </trkpt>
      <trkpt lat="45.00057" lon="2.65516">
        <ele>831.2</ele>
        <time>2021-08-15T19:00:23Z</time>
      </trkpt>
      <trkpt lat="45.00056" lon="2.65512">
        <ele>831.2</ele>
        <time>2021-08-15T19:00:27Z</time>
      </trkpt>
      <trkpt lat="45.00055" lon="2.6551">
        <ele>831.2</ele>
        <time>2021-08-15T19:00:28Z</time>
      </trkpt>
      <trkpt lat="45.00046" lon="2.65498">
        <ele>829.76</ele>
        <time>2021-08-15T19:00:32Z</time>
      </trkpt>
      <trkpt lat="45.00039" lon="2.65491">
        <ele>828.31</ele>
        <time>2021-08-15T19:00:34Z</time>
      </trkpt>
      <trkpt lat="45.00036" lon="2.65487">
        <ele>827.35</ele>
        <time>2021-08-15T19:00:35Z</time>
      </trkpt>
      <trkpt lat="45.00033" lon="2.65482">
        <ele>826.87</ele>
        <time>2021-08-15T19:00:36Z</time>
      </trkpt>
      <trkpt lat="45.00016" lon="2.65452">
        <ele>823.51</ele>
        <time>2021-08-15T19:00:42Z</time>
      </trkpt>
      <trkpt lat="45.00012" lon="2.65449">
        <ele>823.03</ele>
        <time>2021-08-15T19:00:43Z</time>
      </trkpt>
      <trkpt lat="45.00007" lon="2.65447">
        <ele>822.06</ele>
        <time>2021-08-15T19:00:44Z</time>
      </trkpt>
      <trkpt lat="45.00003" lon="2.65446">
        <ele>821.1</ele>
        <time>2021-08-15T19:00:45Z</time>
      </trkpt>
      <trkpt lat="44.99998" lon="2.65446">
        <ele>820.62</ele>
        <time>2021-08-15T19:00:46Z</time>
      </trkpt>
      <trkpt lat="44.99993" lon="2.65445">
        <ele>820.14</ele>
        <time>2021-08-15T19:00:47Z</time>
      </trkpt>
      <trkpt lat="44.99988" lon="2.65444">
        <ele>819.66</ele>
        <time>2021-08-15T19:00:48Z</time>
      </trkpt>
      <trkpt lat="44.99983" lon="2.65443">
        <ele>819.18</ele>
        <time>2021-08-15T19:00:49Z</time>
      </trkpt>
      <trkpt lat="44.9998" lon="2.65441">
        <ele>819.18</ele>
        <time>2021-08-15T19:00:50Z</time>
      </trkpt>
      <trkpt lat="44.99977" lon="2.65438">
        <ele>818.7</ele>
        <time>2021-08-15T19:00:51Z</time>
      </trkpt>
      <trkpt lat="44.99975" lon="2.65436">
        <ele>818.7</ele>
        <time>2021-08-15T19:00:52Z</time>
      </trkpt>
      <trkpt lat="44.99971" lon="2.65433">
        <ele>818.22</ele>
        <time>2021-08-15T19:00:56Z</time>
      </trkpt>
      <trkpt lat="44.99972" lon="2.65435">
        <ele>818.22</ele>
        <time>2021-08-15T19:01:14Z</time>
      </trkpt>
      <trkpt lat="44.9997" lon="2.65433">
        <ele>817.74</ele>
        <time>2021-08-15T19:01:24Z</time>
      </trkpt>
      <trkpt lat="44.99968" lon="2.65432">
        <ele>817.74</ele>
        <time>2021-08-15T19:01:25Z</time>
      </trkpt>
      <trkpt lat="44.99965" lon="2.65431">
        <ele>817.26</ele>
        <time>2021-08-15T19:01:26Z</time>
      </trkpt>
      <trkpt lat="44.99961" lon="2.6543">
        <ele>817.26</ele>
        <time>2021-08-15T19:01:27Z</time>
      </trkpt>
      <trkpt lat="44.99957" lon="2.6543">
        <ele>816.78</ele>
        <time>2021-08-15T19:01:28Z</time>
      </trkpt>
      <trkpt lat="44.99952" lon="2.6543">
        <ele>816.78</ele>
        <time>2021-08-15T19:01:29Z</time>
      </trkpt>
      <trkpt lat="44.99941" lon="2.65431">
        <ele>814.85</ele>
        <time>2021-08-15T19:01:31Z</time>
      </trkpt>
      <trkpt lat="44.99935" lon="2.65429">
        <ele>813.89</ele>
        <time>2021-08-15T19:01:32Z</time>
      </trkpt>
      <trkpt lat="44.99929" lon="2.65426">
        <ele>813.41</ele>
        <time>2021-08-15T19:01:33Z</time>
      </trkpt>
      <trkpt lat="44.99922" lon="2.65422">
        <ele>812.45</ele>
        <time>2021-08-15T19:01:34Z</time>
      </trkpt>
      <trkpt lat="44.99916" lon="2.65417">
        <ele>811.97</ele>
        <time>2021-08-15T19:01:35Z</time>
      </trkpt>
      <trkpt lat="44.9991" lon="2.65411">
        <ele>811.01</ele>
        <time>2021-08-15T19:01:36Z</time>
      </trkpt>
      <trkpt lat="44.99905" lon="2.65404">
        <ele>809.57</ele>
        <time>2021-08-15T19:01:37Z</time>
      </trkpt>
      <trkpt lat="44.99901" lon="2.65396">
        <ele>808.61</ele>
        <time>2021-08-15T19:01:38Z</time>
      </trkpt>
      <trkpt lat="44.99898" lon="2.65387">
        <ele>807.64</ele>
        <time>2021-08-15T19:01:39Z</time>
      </trkpt>
      <trkpt lat="44.99896" lon="2.65377">
        <ele>806.68</ele>
        <time>2021-08-15T19:01:40Z</time>
      </trkpt>
      <trkpt lat="44.99893" lon="2.65369">
        <ele>805.72</ele>
        <time>2021-08-15T19:01:41Z</time>
      </trkpt>
      <trkpt lat="44.99889" lon="2.6536">
        <ele>805.72</ele>
        <time>2021-08-15T19:01:42Z</time>
      </trkpt>
      <trkpt lat="44.99885" lon="2.65352">
        <ele>804.76</ele>
        <time>2021-08-15T19:01:43Z</time>
      </trkpt>
      <trkpt lat="44.99879" lon="2.65346">
        <ele>803.8</ele>
        <time>2021-08-15T19:01:44Z</time>
      </trkpt>
      <trkpt lat="44.99873" lon="2.65341">
        <ele>802.36</ele>
        <time>2021-08-15T19:01:45Z</time>
      </trkpt>
      <trkpt lat="44.99866" lon="2.65337">
        <ele>801.4</ele>
        <time>2021-08-15T19:01:46Z</time>
      </trkpt>
      <trkpt lat="44.99859" lon="2.65334">
        <ele>800.92</ele>
        <time>2021-08-15T19:01:47Z</time>
      </trkpt>
      <trkpt lat="44.99853" lon="2.65329">
        <ele>800.44</ele>
        <time>2021-08-15T19:01:48Z</time>
      </trkpt>
      <trkpt lat="44.99848" lon="2.65323">
        <ele>799.47</ele>
        <time>2021-08-15T19:01:49Z</time>
      </trkpt>
      <trkpt lat="44.99844" lon="2.65317">
        <ele>798.99</ele>
        <time>2021-08-15T19:01:50Z</time>
      </trkpt>
      <trkpt lat="44.99841" lon="2.65311">
        <ele>798.51</ele>
        <time>2021-08-15T19:01:51Z</time>
      </trkpt>
      <trkpt lat="44.99839" lon="2.65304">
        <ele>798.03</ele>
        <time>2021-08-15T19:01:52Z</time>
      </trkpt>
      <trkpt lat="44.9983" lon="2.65282">
        <ele>796.11</ele>
        <time>2021-08-15T19:01:56Z</time>
      </trkpt>
      <trkpt lat="44.99824" lon="2.65276">
        <ele>795.15</ele>
        <time>2021-08-15T19:01:58Z</time>
      </trkpt>
      <trkpt lat="44.9982" lon="2.65275">
        <ele>795.15</ele>
        <time>2021-08-15T19:01:59Z</time>
      </trkpt>
      <trkpt lat="44.99816" lon="2.65276">
        <ele>794.67</ele>
        <time>2021-08-15T19:02:00Z</time>
      </trkpt>
      <trkpt lat="44.99805" lon="2.65282">
        <ele>794.67</ele>
        <time>2021-08-15T19:02:03Z</time>
      </trkpt>
      <trkpt lat="44.998" lon="2.65283">
        <ele>794.19</ele>
        <time>2021-08-15T19:02:04Z</time>
      </trkpt>
      <trkpt lat="44.99796" lon="2.65282">
        <ele>794.19</ele>
        <time>2021-08-15T19:02:05Z</time>
      </trkpt>
      <trkpt lat="44.99791" lon="2.65281">
        <ele>793.22</ele>
        <time>2021-08-15T19:02:06Z</time>
      </trkpt>
      <trkpt lat="44.99785" lon="2.65279">
        <ele>793.22</ele>
        <time>2021-08-15T19:02:07Z</time>
      </trkpt>
      <trkpt lat="44.9978" lon="2.65277">
        <ele>793.22</ele>
        <time>2021-08-15T19:02:08Z</time>
      </trkpt>
      <trkpt lat="44.99774" lon="2.65274">
        <ele>792.26</ele>
        <time>2021-08-15T19:02:09Z</time>
      </trkpt>
      <trkpt lat="44.99738" lon="2.65256">
        <ele>791.78</ele>
        <time>2021-08-15T19:02:15Z</time>
      </trkpt>
      <trkpt lat="44.99733" lon="2.65254">
        <ele>791.78</ele>
        <time>2021-08-15T19:02:16Z</time>
      </trkpt>
      <trkpt lat="44.99704" lon="2.65236">
        <ele>791.78</ele>
        <time>2021-08-15T19:02:23Z</time>
      </trkpt>
      <trkpt lat="44.99699" lon="2.65234">
        <ele>791.78</ele>
        <time>2021-08-15T19:02:24Z</time>
      </trkpt>
      <trkpt lat="44.99695" lon="2.65232">
        <ele>791.78</ele>
        <time>2021-08-15T19:02:25Z</time>
      </trkpt>
      <trkpt lat="44.99658" lon="2.65218">
        <ele>788.42</ele>
        <time>2021-08-15T19:02:32Z</time>
      </trkpt>
      <trkpt lat="44.99651" lon="2.65216">
        <ele>787.46</ele>
        <time>2021-08-15T19:02:33Z</time>
      </trkpt>
      <trkpt lat="44.99644" lon="2.65215">
        <ele>786.98</ele>
        <time>2021-08-15T19:02:34Z</time>
      </trkpt>
      <trkpt lat="44.99621" lon="2.65213">
        <ele>784.57</ele>
        <time>2021-08-15T19:02:37Z</time>
      </trkpt>
      <trkpt lat="44.99615" lon="2.65212">
        <ele>783.61</ele>
        <time>2021-08-15T19:02:38Z</time>
      </trkpt>
      <trkpt lat="44.996" lon="2.65211">
        <ele>782.65</ele>
        <time>2021-08-15T19:02:40Z</time>
      </trkpt>
      <trkpt lat="44.9958" lon="2.65213">
        <ele>780.25</ele>
        <time>2021-08-15T19:02:43Z</time>
      </trkpt>
      <trkpt lat="44.99575" lon="2.65211">
        <ele>779.77</ele>
        <time>2021-08-15T19:02:44Z</time>
      </trkpt>
      <trkpt lat="44.9957" lon="2.65207">
        <ele>779.29</ele>
        <time>2021-08-15T19:02:45Z</time>
      </trkpt>
      <trkpt lat="44.99567" lon="2.65194">
        <ele>778.81</ele>
        <time>2021-08-15T19:02:47Z</time>
      </trkpt>
      <trkpt lat="44.99568" lon="2.65188">
        <ele>778.81</ele>
        <time>2021-08-15T19:02:48Z</time>
      </trkpt>
      <trkpt lat="44.99569" lon="2.65184">
        <ele>778.81</ele>
        <time>2021-08-15T19:02:49Z</time>
      </trkpt>
      <trkpt lat="44.9957" lon="2.65181">
        <ele>778.81</ele>
        <time>2021-08-15T19:02:50Z</time>
      </trkpt>
      <trkpt lat="44.99573" lon="2.65175">
        <ele>778.81</ele>
        <time>2021-08-15T19:02:52Z</time>
      </trkpt>
      <trkpt lat="44.99575" lon="2.65173">
        <ele>778.81</ele>
        <time>2021-08-15T19:02:53Z</time>
      </trkpt>
      <trkpt lat="44.99576" lon="2.6517">
        <ele>778.81</ele>
        <time>2021-08-15T19:02:54Z</time>
      </trkpt>
      <trkpt lat="44.99577" lon="2.65167">
        <ele>780.25</ele>
        <time>2021-08-15T19:02:55Z</time>
      </trkpt>
      <trkpt lat="44.99578" lon="2.65164">
        <ele>780.25</ele>
        <time>2021-08-15T19:02:56Z</time>
      </trkpt>
      <trkpt lat="44.99579" lon="2.65161">
        <ele>780.25</ele>
        <time>2021-08-15T19:02:57Z</time>
      </trkpt>
      <trkpt lat="44.9958" lon="2.65157">
        <ele>780.25</ele>
        <time>2021-08-15T19:02:58Z</time>
      </trkpt>
      <trkpt lat="44.99582" lon="2.65154">
        <ele>780.25</ele>
        <time>2021-08-15T19:02:59Z</time>
      </trkpt>
      <trkpt lat="44.99584" lon="2.6515">
        <ele>780.25</ele>
        <time>2021-08-15T19:03:00Z</time>
      </trkpt>
      <trkpt lat="44.99591" lon="2.65127">
        <ele>780.73</ele>
        <time>2021-08-15T19:03:05Z</time>
      </trkpt>
      <trkpt lat="44.99591" lon="2.6511">
        <ele>780.73</ele>
        <time>2021-08-15T19:03:08Z</time>
      </trkpt>
      <trkpt lat="44.99589" lon="2.65104">
        <ele>780.73</ele>
        <time>2021-08-15T19:03:09Z</time>
      </trkpt>
      <trkpt lat="44.99587" lon="2.651">
        <ele>780.73</ele>
        <time>2021-08-15T19:03:10Z</time>
      </trkpt>
      <trkpt lat="44.99577" lon="2.65071">
        <ele>781.21</ele>
        <time>2021-08-15T19:03:16Z</time>
      </trkpt>
      <trkpt lat="44.99573" lon="2.65059">
        <ele>781.21</ele>
        <time>2021-08-15T19:03:18Z</time>
      </trkpt>
      <trkpt lat="44.99567" lon="2.65035">
        <ele>781.21</ele>
        <time>2021-08-15T19:03:22Z</time>
      </trkpt>
      <trkpt lat="44.99566" lon="2.65029">
        <ele>781.21</ele>
        <time>2021-08-15T19:03:23Z</time>
      </trkpt>
      <trkpt lat="44.99564" lon="2.65024">
        <ele>781.21</ele>
        <time>2021-08-15T19:03:24Z</time>
      </trkpt>
      <trkpt lat="44.99563" lon="2.65019">
        <ele>781.21</ele>
        <time>2021-08-15T19:03:25Z</time>
      </trkpt>
      <trkpt lat="44.99562" lon="2.65014">
        <ele>781.69</ele>
        <time>2021-08-15T19:03:26Z</time>
      </trkpt>
      <trkpt lat="44.9956" lon="2.65009">
        <ele>781.69</ele>
        <time>2021-08-15T19:03:27Z</time>
      </trkpt>
      <trkpt lat="44.99558" lon="2.65004">
        <ele>781.69</ele>
        <time>2021-08-15T19:03:28Z</time>
      </trkpt>
      <trkpt lat="44.99551" lon="2.64983">
        <ele>781.69</ele>
        <time>2021-08-15T19:03:32Z</time>
      </trkpt>
      <trkpt lat="44.99545" lon="2.64972">
        <ele>781.69</ele>
        <time>2021-08-15T19:03:34Z</time>
      </trkpt>
      <trkpt lat="44.99526" lon="2.64933">
        <ele>780.25</ele>
        <time>2021-08-15T19:03:41Z</time>
      </trkpt>
      <trkpt lat="44.99508" lon="2.64906">
        <ele>778.81</ele>
        <time>2021-08-15T19:03:45Z</time>
      </trkpt>
      <trkpt lat="44.995" lon="2.64894">
        <ele>777.36</ele>
        <time>2021-08-15T19:03:47Z</time>
      </trkpt>
      <trkpt lat="44.99498" lon="2.64887">
        <ele>777.36</ele>
        <time>2021-08-15T19:03:48Z</time>
      </trkpt>
      <trkpt lat="44.99498" lon="2.6488">
        <ele>777.36</ele>
        <time>2021-08-15T19:03:49Z</time>
      </trkpt>
      <trkpt lat="44.995" lon="2.64872">
        <ele>776.88</ele>
        <time>2021-08-15T19:03:50Z</time>
      </trkpt>
      <trkpt lat="44.99504" lon="2.64867">
        <ele>776.4</ele>
        <time>2021-08-15T19:03:51Z</time>
      </trkpt>
      <trkpt lat="44.99509" lon="2.64861">
        <ele>775.44</ele>
        <time>2021-08-15T19:03:52Z</time>
      </trkpt>
      <trkpt lat="44.9953" lon="2.64836">
        <ele>771.6</ele>
        <time>2021-08-15T19:03:56Z</time>
      </trkpt>
      <trkpt lat="44.99535" lon="2.64833">
        <ele>771.11</ele>
        <time>2021-08-15T19:03:57Z</time>
      </trkpt>
      <trkpt lat="44.9954" lon="2.64832">
        <ele>771.11</ele>
        <time>2021-08-15T19:03:58Z</time>
      </trkpt>
      <trkpt lat="44.99545" lon="2.64833">
        <ele>770.63</ele>
        <time>2021-08-15T19:03:59Z</time>
      </trkpt>
      <trkpt lat="44.9955" lon="2.64836">
        <ele>770.63</ele>
        <time>2021-08-15T19:04:00Z</time>
      </trkpt>
      <trkpt lat="44.99555" lon="2.6484">
        <ele>770.15</ele>
        <time>2021-08-15T19:04:01Z</time>
      </trkpt>
      <trkpt lat="44.9956" lon="2.64842">
        <ele>770.15</ele>
        <time>2021-08-15T19:04:02Z</time>
      </trkpt>
      <trkpt lat="44.99565" lon="2.64842">
        <ele>769.19</ele>
        <time>2021-08-15T19:04:03Z</time>
      </trkpt>
      <trkpt lat="44.99571" lon="2.6484">
        <ele>769.19</ele>
        <time>2021-08-15T19:04:04Z</time>
      </trkpt>
      <trkpt lat="44.99575" lon="2.64835">
        <ele>768.23</ele>
        <time>2021-08-15T19:04:05Z</time>
      </trkpt>
      <trkpt lat="44.99578" lon="2.64827">
        <ele>767.75</ele>
        <time>2021-08-15T19:04:06Z</time>
      </trkpt>
      <trkpt lat="44.99581" lon="2.64818">
        <ele>767.27</ele>
        <time>2021-08-15T19:04:07Z</time>
      </trkpt>
      <trkpt lat="44.99584" lon="2.64808">
        <ele>766.79</ele>
        <time>2021-08-15T19:04:08Z</time>
      </trkpt>
      <trkpt lat="44.99589" lon="2.64787">
        <ele>765.35</ele>
        <time>2021-08-15T19:04:10Z</time>
      </trkpt>
      <trkpt lat="44.9959" lon="2.64777">
        <ele>765.35</ele>
        <time>2021-08-15T19:04:11Z</time>
      </trkpt>
      <trkpt lat="44.99589" lon="2.64766">
        <ele>764.87</ele>
        <time>2021-08-15T19:04:12Z</time>
      </trkpt>
      <trkpt lat="44.99588" lon="2.64754">
        <ele>763.9</ele>
        <time>2021-08-15T19:04:13Z</time>
      </trkpt>
      <trkpt lat="44.99586" lon="2.64744">
        <ele>763.9</ele>
        <time>2021-08-15T19:04:14Z</time>
      </trkpt>
      <trkpt lat="44.99581" lon="2.64723">
        <ele>763.42</ele>
        <time>2021-08-15T19:04:16Z</time>
      </trkpt>
      <trkpt lat="44.99577" lon="2.64714">
        <ele>763.42</ele>
        <time>2021-08-15T19:04:17Z</time>
      </trkpt>
      <trkpt lat="44.99574" lon="2.64708">
        <ele>763.42</ele>
        <time>2021-08-15T19:04:18Z</time>
      </trkpt>
      <trkpt lat="44.9957" lon="2.64705">
        <ele>763.42</ele>
        <time>2021-08-15T19:04:19Z</time>
      </trkpt>
      <trkpt lat="44.99568" lon="2.64703">
        <ele>763.42</ele>
        <time>2021-08-15T19:04:20Z</time>
      </trkpt>
      <trkpt lat="44.99565" lon="2.64702">
        <ele>763.42</ele>
        <time>2021-08-15T19:04:21Z</time>
      </trkpt>
      <trkpt lat="44.99562" lon="2.64701">
        <ele>763.42</ele>
        <time>2021-08-15T19:04:22Z</time>
      </trkpt>
      <trkpt lat="44.9956" lon="2.64701">
        <ele>763.42</ele>
        <time>2021-08-15T19:04:23Z</time>
      </trkpt>
      <trkpt lat="44.99557" lon="2.647">
        <ele>763.42</ele>
        <time>2021-08-15T19:04:24Z</time>
      </trkpt>
      <trkpt lat="44.99555" lon="2.647">
        <ele>763.42</ele>
        <time>2021-08-15T19:04:25Z</time>
      </trkpt>
      <trkpt lat="44.9954" lon="2.647">
        <ele>765.83</ele>
        <time>2021-08-15T19:04:34Z</time>
      </trkpt>
      <trkpt lat="44.99527" lon="2.64702">
        <ele>767.27</ele>
        <time>2021-08-15T19:04:41Z</time>
      </trkpt>
      <trkpt lat="44.99523" lon="2.64702">
        <ele>767.27</ele>
        <time>2021-08-15T19:04:43Z</time>
      </trkpt>
      <trkpt lat="44.99521" lon="2.64702">
        <ele>767.75</ele>
        <time>2021-08-15T19:04:44Z</time>
      </trkpt>
      <trkpt lat="44.99512" lon="2.64707">
        <ele>768.23</ele>
        <time>2021-08-15T19:04:49Z</time>
      </trkpt>
      <trkpt lat="44.99511" lon="2.64709">
        <ele>768.23</ele>
        <time>2021-08-15T19:04:50Z</time>
      </trkpt>
      <trkpt lat="44.99509" lon="2.6471">
        <ele>768.23</ele>
        <time>2021-08-15T19:04:51Z</time>
      </trkpt>
      <trkpt lat="44.99488" lon="2.64719">
        <ele>766.79</ele>
        <time>2021-08-15T19:04:58Z</time>
      </trkpt>
      <trkpt lat="44.99484" lon="2.64722">
        <ele>766.31</ele>
        <time>2021-08-15T19:04:59Z</time>
      </trkpt>
      <trkpt lat="44.99481" lon="2.64726">
        <ele>765.83</ele>
        <time>2021-08-15T19:05:00Z</time>
      </trkpt>
      <trkpt lat="44.99473" lon="2.64734">
        <ele>765.83</ele>
        <time>2021-08-15T19:05:02Z</time>
      </trkpt>
      <trkpt lat="44.99469" lon="2.64737">
        <ele>765.83</ele>
        <time>2021-08-15T19:05:03Z</time>
      </trkpt>
      <trkpt lat="44.99463" lon="2.64745">
        <ele>765.83</ele>
        <time>2021-08-15T19:05:06Z</time>
      </trkpt>
      <trkpt lat="44.99461" lon="2.64746">
        <ele>765.83</ele>
        <time>2021-08-15T19:05:07Z</time>
      </trkpt>
      <trkpt lat="44.9946" lon="2.64747">
        <ele>767.27</ele>
        <time>2021-08-15T19:05:08Z</time>
      </trkpt>
      <trkpt lat="44.99459" lon="2.64748">
        <ele>767.27</ele>
        <time>2021-08-15T19:05:09Z</time>
      </trkpt>
      <trkpt lat="44.99457" lon="2.64749">
        <ele>767.27</ele>
        <time>2021-08-15T19:05:10Z</time>
      </trkpt>
      <trkpt lat="44.99456" lon="2.6475">
        <ele>767.75</ele>
        <time>2021-08-15T19:05:11Z</time>
      </trkpt>
      <trkpt lat="44.99442" lon="2.64758">
        <ele>767.75</ele>
        <time>2021-08-15T19:05:18Z</time>
      </trkpt>
      <trkpt lat="44.99433" lon="2.64756">
        <ele>766.31</ele>
        <time>2021-08-15T19:05:21Z</time>
      </trkpt>
      <trkpt lat="44.99409" lon="2.64744">
        <ele>763.9</ele>
        <time>2021-08-15T19:05:28Z</time>
      </trkpt>
      <trkpt lat="44.99384" lon="2.64746">
        <ele>760.06</ele>
        <time>2021-08-15T19:05:35Z</time>
      </trkpt>
      <trkpt lat="44.9938" lon="2.64747">
        <ele>760.06</ele>
        <time>2021-08-15T19:05:36Z</time>
      </trkpt>
      <trkpt lat="44.99375" lon="2.64748">
        <ele>759.58</ele>
        <time>2021-08-15T19:05:37Z</time>
      </trkpt>
      <trkpt lat="44.99364" lon="2.64751">
        <ele>758.62</ele>
        <time>2021-08-15T19:05:39Z</time>
      </trkpt>
      <trkpt lat="44.99321" lon="2.64747">
        <ele>754.77</ele>
        <time>2021-08-15T19:05:46Z</time>
      </trkpt>
      <trkpt lat="44.99316" lon="2.64744">
        <ele>754.29</ele>
        <time>2021-08-15T19:05:47Z</time>
      </trkpt>
      <trkpt lat="44.9931" lon="2.64738">
        <ele>754.29</ele>
        <time>2021-08-15T19:05:48Z</time>
      </trkpt>
      <trkpt lat="44.99306" lon="2.64732">
        <ele>753.81</ele>
        <time>2021-08-15T19:05:49Z</time>
      </trkpt>
      <trkpt lat="44.99303" lon="2.64724">
        <ele>753.81</ele>
        <time>2021-08-15T19:05:50Z</time>
      </trkpt>
      <trkpt lat="44.993" lon="2.64717">
        <ele>753.81</ele>
        <time>2021-08-15T19:05:51Z</time>
      </trkpt>
      <trkpt lat="44.99298" lon="2.64709">
        <ele>753.81</ele>
        <time>2021-08-15T19:05:52Z</time>
      </trkpt>
      <trkpt lat="44.99297" lon="2.64701">
        <ele>753.81</ele>
        <time>2021-08-15T19:05:53Z</time>
      </trkpt>
      <trkpt lat="44.99296" lon="2.64693">
        <ele>753.81</ele>
        <time>2021-08-15T19:05:54Z</time>
      </trkpt>
      <trkpt lat="44.99296" lon="2.64674">
        <ele>753.81</ele>
        <time>2021-08-15T19:05:57Z</time>
      </trkpt>
      <trkpt lat="44.99297" lon="2.64667">
        <ele>753.33</ele>
        <time>2021-08-15T19:05:58Z</time>
      </trkpt>
      <trkpt lat="44.99299" lon="2.64661">
        <ele>752.85</ele>
        <time>2021-08-15T19:05:59Z</time>
      </trkpt>
      <trkpt lat="44.99301" lon="2.64655">
        <ele>751.89</ele>
        <time>2021-08-15T19:06:00Z</time>
      </trkpt>
      <trkpt lat="44.99303" lon="2.64651">
        <ele>751.89</ele>
        <time>2021-08-15T19:06:01Z</time>
      </trkpt>
      <trkpt lat="44.99305" lon="2.64646">
        <ele>751.89</ele>
        <time>2021-08-15T19:06:02Z</time>
      </trkpt>
      <trkpt lat="44.99306" lon="2.64639">
        <ele>751.41</ele>
        <time>2021-08-15T19:06:03Z</time>
      </trkpt>
      <trkpt lat="44.99307" lon="2.64633">
        <ele>750.93</ele>
        <time>2021-08-15T19:06:04Z</time>
      </trkpt>
      <trkpt lat="44.99306" lon="2.64626">
        <ele>750.93</ele>
        <time>2021-08-15T19:06:05Z</time>
      </trkpt>
      <trkpt lat="44.99306" lon="2.6462">
        <ele>750.93</ele>
        <time>2021-08-15T19:06:06Z</time>
      </trkpt>
      <trkpt lat="44.99304" lon="2.64613">
        <ele>750.93</ele>
        <time>2021-08-15T19:06:07Z</time>
      </trkpt>
      <trkpt lat="44.99296" lon="2.64588">
        <ele>749.97</ele>
        <time>2021-08-15T19:06:12Z</time>
      </trkpt>
      <trkpt lat="44.9929" lon="2.64579">
        <ele>751.41</ele>
        <time>2021-08-15T19:06:14Z</time>
      </trkpt>
      <trkpt lat="44.99281" lon="2.64563">
        <ele>749</ele>
        <time>2021-08-15T19:06:17Z</time>
      </trkpt>
      <trkpt lat="44.99279" lon="2.64558">
        <ele>748.52</ele>
        <time>2021-08-15T19:06:18Z</time>
      </trkpt>
      <trkpt lat="44.99254" lon="2.64519">
        <ele>747.08</ele>
        <time>2021-08-15T19:06:26Z</time>
      </trkpt>
      <trkpt lat="44.99251" lon="2.64514">
        <ele>746.6</ele>
        <time>2021-08-15T19:06:27Z</time>
      </trkpt>
      <trkpt lat="44.99247" lon="2.64511">
        <ele>746.12</ele>
        <time>2021-08-15T19:06:28Z</time>
      </trkpt>
      <trkpt lat="44.99243" lon="2.64508">
        <ele>745.16</ele>
        <time>2021-08-15T19:06:29Z</time>
      </trkpt>
      <trkpt lat="44.9923" lon="2.64499">
        <ele>741.79</ele>
        <time>2021-08-15T19:06:32Z</time>
      </trkpt>
      <trkpt lat="44.99211" lon="2.64484">
        <ele>738.43</ele>
        <time>2021-08-15T19:06:35Z</time>
      </trkpt>
      <trkpt lat="44.99182" lon="2.64465">
        <ele>735.55</ele>
        <time>2021-08-15T19:06:39Z</time>
      </trkpt>
      <trkpt lat="44.99176" lon="2.6446">
        <ele>734.58</ele>
        <time>2021-08-15T19:06:40Z</time>
      </trkpt>
      <trkpt lat="44.99169" lon="2.64453">
        <ele>734.1</ele>
        <time>2021-08-15T19:06:41Z</time>
      </trkpt>
      <trkpt lat="44.99159" lon="2.64439">
        <ele>732.18</ele>
        <time>2021-08-15T19:06:43Z</time>
      </trkpt>
      <trkpt lat="44.99154" lon="2.64431">
        <ele>731.7</ele>
        <time>2021-08-15T19:06:44Z</time>
      </trkpt>
      <trkpt lat="44.99148" lon="2.64419">
        <ele>731.7</ele>
        <time>2021-08-15T19:06:46Z</time>
      </trkpt>
      <trkpt lat="44.99146" lon="2.64411">
        <ele>731.22</ele>
        <time>2021-08-15T19:06:47Z</time>
      </trkpt>
      <trkpt lat="44.99144" lon="2.64403">
        <ele>730.26</ele>
        <time>2021-08-15T19:06:48Z</time>
      </trkpt>
      <trkpt lat="44.99142" lon="2.64394">
        <ele>729.78</ele>
        <time>2021-08-15T19:06:49Z</time>
      </trkpt>
      <trkpt lat="44.99139" lon="2.64386">
        <ele>728.34</ele>
        <time>2021-08-15T19:06:50Z</time>
      </trkpt>
      <trkpt lat="44.99137" lon="2.64379">
        <ele>727.37</ele>
        <time>2021-08-15T19:06:51Z</time>
      </trkpt>
      <trkpt lat="44.99134" lon="2.64372">
        <ele>727.37</ele>
        <time>2021-08-15T19:06:52Z</time>
      </trkpt>
      <trkpt lat="44.99129" lon="2.6436">
        <ele>724.49</ele>
        <time>2021-08-15T19:06:54Z</time>
      </trkpt>
      <trkpt lat="44.99123" lon="2.64345">
        <ele>721.61</ele>
        <time>2021-08-15T19:06:58Z</time>
      </trkpt>
      <trkpt lat="44.99121" lon="2.64343">
        <ele>721.61</ele>
        <time>2021-08-15T19:06:59Z</time>
      </trkpt>
      <trkpt lat="44.9912" lon="2.64341">
        <ele>721.13</ele>
        <time>2021-08-15T19:07:00Z</time>
      </trkpt>
      <trkpt lat="44.99118" lon="2.6434">
        <ele>721.13</ele>
        <time>2021-08-15T19:07:05Z</time>
      </trkpt>
      <trkpt lat="44.99117" lon="2.6434">
        <ele>720.65</ele>
        <time>2021-08-15T19:07:07Z</time>
      </trkpt>
      <trkpt lat="44.99116" lon="2.6434">
        <ele>720.65</ele>
        <time>2021-08-15T19:07:08Z</time>
      </trkpt>
      <trkpt lat="44.99108" lon="2.64339">
        <ele>719.2</ele>
        <time>2021-08-15T19:07:10Z</time>
      </trkpt>
      <trkpt lat="44.99102" lon="2.64335">
        <ele>718.24</ele>
        <time>2021-08-15T19:07:11Z</time>
      </trkpt>
      <trkpt lat="44.99097" lon="2.64332">
        <ele>716.8</ele>
        <time>2021-08-15T19:07:12Z</time>
      </trkpt>
      <trkpt lat="44.99076" lon="2.64319">
        <ele>712.95</ele>
        <time>2021-08-15T19:07:15Z</time>
      </trkpt>
      <trkpt lat="44.99049" lon="2.64311">
        <ele>708.63</ele>
        <time>2021-08-15T19:07:18Z</time>
      </trkpt>
      <trkpt lat="44.99024" lon="2.64306">
        <ele>706.71</ele>
        <time>2021-08-15T19:07:21Z</time>
      </trkpt>
      <trkpt lat="44.99003" lon="2.64302">
        <ele>706.23</ele>
        <time>2021-08-15T19:07:24Z</time>
      </trkpt>
      <trkpt lat="44.98996" lon="2.643">
        <ele>706.23</ele>
        <time>2021-08-15T19:07:25Z</time>
      </trkpt>
      <trkpt lat="44.98957" lon="2.64277">
        <ele>705.26</ele>
        <time>2021-08-15T19:07:32Z</time>
      </trkpt>
      <trkpt lat="44.98953" lon="2.64273">
        <ele>705.26</ele>
        <time>2021-08-15T19:07:33Z</time>
      </trkpt>
      <trkpt lat="44.98936" lon="2.64258">
        <ele>703.34</ele>
        <time>2021-08-15T19:07:36Z</time>
      </trkpt>
      <trkpt lat="44.989" lon="2.64213">
        <ele>700.94</ele>
        <time>2021-08-15T19:07:42Z</time>
      </trkpt>
      <trkpt lat="44.98891" lon="2.64199">
        <ele>700.46</ele>
        <time>2021-08-15T19:07:44Z</time>
      </trkpt>
      <trkpt lat="44.98876" lon="2.64176">
        <ele>699.98</ele>
        <time>2021-08-15T19:07:48Z</time>
      </trkpt>
      <trkpt lat="44.98872" lon="2.64172">
        <ele>699.5</ele>
        <time>2021-08-15T19:07:49Z</time>
      </trkpt>
      <trkpt lat="44.98866" lon="2.64168">
        <ele>699.02</ele>
        <time>2021-08-15T19:07:50Z</time>
      </trkpt>
      <trkpt lat="44.98862" lon="2.64164">
        <ele>698.53</ele>
        <time>2021-08-15T19:07:51Z</time>
      </trkpt>
      <trkpt lat="44.98856" lon="2.64161">
        <ele>697.57</ele>
        <time>2021-08-15T19:07:52Z</time>
      </trkpt>
      <trkpt lat="44.98823" lon="2.64139">
        <ele>695.65</ele>
        <time>2021-08-15T19:07:59Z</time>
      </trkpt>
      <trkpt lat="44.98818" lon="2.64135">
        <ele>695.65</ele>
        <time>2021-08-15T19:08:00Z</time>
      </trkpt>
      <trkpt lat="44.98813" lon="2.64131">
        <ele>695.65</ele>
        <time>2021-08-15T19:08:01Z</time>
      </trkpt>
      <trkpt lat="44.98802" lon="2.64114">
        <ele>694.69</ele>
        <time>2021-08-15T19:08:06Z</time>
      </trkpt>
      <trkpt lat="44.98802" lon="2.64112">
        <ele>694.69</ele>
        <time>2021-08-15T19:08:07Z</time>
      </trkpt>
      <trkpt lat="44.98802" lon="2.6411">
        <ele>694.69</ele>
        <time>2021-08-15T19:08:08Z</time>
      </trkpt>
      <trkpt lat="44.98801" lon="2.64108">
        <ele>694.69</ele>
        <time>2021-08-15T19:08:09Z</time>
      </trkpt>
      <trkpt lat="44.98799" lon="2.64106">
        <ele>694.69</ele>
        <time>2021-08-15T19:08:10Z</time>
      </trkpt>
      <trkpt lat="44.98798" lon="2.64106">
        <ele>694.69</ele>
        <time>2021-08-15T19:08:11Z</time>
      </trkpt>
      <trkpt lat="44.98797" lon="2.64107">
        <ele>694.69</ele>
        <time>2021-08-15T19:08:12Z</time>
      </trkpt>
      <trkpt lat="44.98797" lon="2.64109">
        <ele>694.69</ele>
        <time>2021-08-15T19:08:13Z</time>
      </trkpt>
      <trkpt lat="44.98799" lon="2.64111">
        <ele>694.69</ele>
        <time>2021-08-15T19:08:14Z</time>
      </trkpt>
      <trkpt lat="44.988" lon="2.64111">
        <ele>694.69</ele>
        <time>2021-08-15T19:08:15Z</time>
      </trkpt>
      <trkpt lat="44.98802" lon="2.64111">
        <ele>694.69</ele>
        <time>2021-08-15T19:08:16Z</time>
      </trkpt>
      <trkpt lat="44.98803" lon="2.6411">
        <ele>694.69</ele>
        <time>2021-08-15T19:08:17Z</time>
      </trkpt>
      <trkpt lat="44.98805" lon="2.6411">
        <ele>694.69</ele>
        <time>2021-08-15T19:08:18Z</time>
      </trkpt>
      <trkpt lat="44.98825" lon="2.6411">
        <ele>692.77</ele>
        <time>2021-08-15T19:08:26Z</time>
      </trkpt>
      <trkpt lat="44.98847" lon="2.64111">
        <ele>691.81</ele>
        <time>2021-08-15T19:08:35Z</time>
      </trkpt>
    </trkseg>
  </trk>
</gpx>